<?xml version="1.0" encoding="UTF-8" standalone="no" ?>
<gpx xmlns="http://www.topografix.com/GPX/1/1" xmlns:xsi="http://www.w3.org/2001/XMLSchema-instance" xsi:schemaLocation="http://www.topografix.com/GPX/1/1 http://www.topografix.com/GPX/1/1/gpx.xsd" version="1.1" creator="VisuGPX - https://www.visugpx.com">
  <metadata>
    <name>French-divide 2021</name>
  </metadata>
  <trk>
    <name><![CDATA[14 FD]]></name>
    <trkseg>
      <trkpt lat="43.12559" lon="-0.32667">
        <ele>348.62</ele>
        <time>2021-08-20T03:43:06Z</time>
      </trkpt>
      <trkpt lat="43.1256" lon="-0.32669">
        <ele>348.62</ele>
        <time>2021-08-20T03:43:13Z</time>
      </trkpt>
      <trkpt lat="43.12564" lon="-0.32686">
        <ele>348.62</ele>
        <time>2021-08-20T03:43:21Z</time>
      </trkpt>
      <trkpt lat="43.1257" lon="-0.32716">
        <ele>347.65</ele>
        <time>2021-08-20T03:43:29Z</time>
      </trkpt>
      <trkpt lat="43.12573" lon="-0.32732">
        <ele>347.17</ele>
        <time>2021-08-20T03:43:32Z</time>
      </trkpt>
      <trkpt lat="43.12586" lon="-0.32786">
        <ele>345.73</ele>
        <time>2021-08-20T03:43:41Z</time>
      </trkpt>
      <trkpt lat="43.12597" lon="-0.32833">
        <ele>345.25</ele>
        <time>2021-08-20T03:43:49Z</time>
      </trkpt>
      <trkpt lat="43.12613" lon="-0.32891">
        <ele>344.77</ele>
        <time>2021-08-20T03:43:59Z</time>
      </trkpt>
      <trkpt lat="43.12614" lon="-0.32896">
        <ele>344.77</ele>
        <time>2021-08-20T03:44:00Z</time>
      </trkpt>
      <trkpt lat="43.12633" lon="-0.32939">
        <ele>344.77</ele>
        <time>2021-08-20T03:44:09Z</time>
      </trkpt>
      <trkpt lat="43.12661" lon="-0.32981">
        <ele>344.77</ele>
        <time>2021-08-20T03:44:19Z</time>
      </trkpt>
      <trkpt lat="43.12692" lon="-0.33021">
        <ele>344.77</ele>
        <time>2021-08-20T03:44:29Z</time>
      </trkpt>
      <trkpt lat="43.12723" lon="-0.33064">
        <ele>343.81</ele>
        <time>2021-08-20T03:44:38Z</time>
      </trkpt>
      <trkpt lat="43.12727" lon="-0.33068">
        <ele>343.81</ele>
        <time>2021-08-20T03:44:39Z</time>
      </trkpt>
      <trkpt lat="43.12748" lon="-0.33098">
        <ele>343.81</ele>
        <time>2021-08-20T03:44:46Z</time>
      </trkpt>
      <trkpt lat="43.12757" lon="-0.33112">
        <ele>343.81</ele>
        <time>2021-08-20T03:44:49Z</time>
      </trkpt>
      <trkpt lat="43.12769" lon="-0.33134">
        <ele>345.25</ele>
        <time>2021-08-20T03:44:55Z</time>
      </trkpt>
      <trkpt lat="43.12776" lon="-0.33167">
        <ele>345.25</ele>
        <time>2021-08-20T03:45:02Z</time>
      </trkpt>
      <trkpt lat="43.12776" lon="-0.33173">
        <ele>345.25</ele>
        <time>2021-08-20T03:45:03Z</time>
      </trkpt>
      <trkpt lat="43.12775" lon="-0.33179">
        <ele>345.25</ele>
        <time>2021-08-20T03:45:04Z</time>
      </trkpt>
      <trkpt lat="43.12774" lon="-0.33185">
        <ele>345.25</ele>
        <time>2021-08-20T03:45:05Z</time>
      </trkpt>
      <trkpt lat="43.12774" lon="-0.3319">
        <ele>345.73</ele>
        <time>2021-08-20T03:45:06Z</time>
      </trkpt>
      <trkpt lat="43.12768" lon="-0.33215">
        <ele>347.17</ele>
        <time>2021-08-20T03:45:13Z</time>
      </trkpt>
      <trkpt lat="43.12762" lon="-0.33242">
        <ele>348.13</ele>
        <time>2021-08-20T03:45:22Z</time>
      </trkpt>
      <trkpt lat="43.12755" lon="-0.33277">
        <ele>348.62</ele>
        <time>2021-08-20T03:45:31Z</time>
      </trkpt>
      <trkpt lat="43.12747" lon="-0.33322">
        <ele>349.58</ele>
        <time>2021-08-20T03:45:42Z</time>
      </trkpt>
      <trkpt lat="43.12737" lon="-0.33367">
        <ele>349.58</ele>
        <time>2021-08-20T03:45:51Z</time>
      </trkpt>
      <trkpt lat="43.12724" lon="-0.33427">
        <ele>349.58</ele>
        <time>2021-08-20T03:46:01Z</time>
      </trkpt>
      <trkpt lat="43.1272" lon="-0.33453">
        <ele>348.13</ele>
        <time>2021-08-20T03:46:05Z</time>
      </trkpt>
      <trkpt lat="43.12723" lon="-0.33515">
        <ele>347.17</ele>
        <time>2021-08-20T03:46:13Z</time>
      </trkpt>
      <trkpt lat="43.12737" lon="-0.33598">
        <ele>345.73</ele>
        <time>2021-08-20T03:46:23Z</time>
      </trkpt>
      <trkpt lat="43.12746" lon="-0.33641">
        <ele>346.69</ele>
        <time>2021-08-20T03:46:30Z</time>
      </trkpt>
      <trkpt lat="43.12758" lon="-0.33694">
        <ele>347.17</ele>
        <time>2021-08-20T03:46:39Z</time>
      </trkpt>
      <trkpt lat="43.12761" lon="-0.33709">
        <ele>345.73</ele>
        <time>2021-08-20T03:46:41Z</time>
      </trkpt>
      <trkpt lat="43.1277" lon="-0.33772">
        <ele>342.37</ele>
        <time>2021-08-20T03:46:48Z</time>
      </trkpt>
      <trkpt lat="43.1277" lon="-0.33783">
        <ele>341.41</ele>
        <time>2021-08-20T03:46:49Z</time>
      </trkpt>
      <trkpt lat="43.12767" lon="-0.33819">
        <ele>339.96</ele>
        <time>2021-08-20T03:46:52Z</time>
      </trkpt>
      <trkpt lat="43.12761" lon="-0.33891">
        <ele>340.44</ele>
        <time>2021-08-20T03:46:59Z</time>
      </trkpt>
      <trkpt lat="43.12766" lon="-0.33953">
        <ele>341.89</ele>
        <time>2021-08-20T03:47:07Z</time>
      </trkpt>
      <trkpt lat="43.12776" lon="-0.33988">
        <ele>342.85</ele>
        <time>2021-08-20T03:47:12Z</time>
      </trkpt>
      <trkpt lat="43.12791" lon="-0.34025">
        <ele>345.25</ele>
        <time>2021-08-20T03:47:20Z</time>
      </trkpt>
      <trkpt lat="43.12806" lon="-0.34076">
        <ele>346.21</ele>
        <time>2021-08-20T03:47:30Z</time>
      </trkpt>
      <trkpt lat="43.12815" lon="-0.34129">
        <ele>346.21</ele>
        <time>2021-08-20T03:47:38Z</time>
      </trkpt>
      <trkpt lat="43.12815" lon="-0.34136">
        <ele>346.21</ele>
        <time>2021-08-20T03:47:39Z</time>
      </trkpt>
      <trkpt lat="43.12823" lon="-0.34204">
        <ele>343.81</ele>
        <time>2021-08-20T03:47:48Z</time>
      </trkpt>
      <trkpt lat="43.1284" lon="-0.34288">
        <ele>342.85</ele>
        <time>2021-08-20T03:47:59Z</time>
      </trkpt>
      <trkpt lat="43.12866" lon="-0.34376">
        <ele>341.41</ele>
        <time>2021-08-20T03:48:10Z</time>
      </trkpt>
      <trkpt lat="43.12888" lon="-0.34426">
        <ele>342.85</ele>
        <time>2021-08-20T03:48:18Z</time>
      </trkpt>
      <trkpt lat="43.12917" lon="-0.34491">
        <ele>343.33</ele>
        <time>2021-08-20T03:48:29Z</time>
      </trkpt>
      <trkpt lat="43.12946" lon="-0.34556">
        <ele>344.29</ele>
        <time>2021-08-20T03:48:40Z</time>
      </trkpt>
      <trkpt lat="43.1298" lon="-0.34633">
        <ele>344.29</ele>
        <time>2021-08-20T03:48:52Z</time>
      </trkpt>
      <trkpt lat="43.13" lon="-0.34691">
        <ele>342.85</ele>
        <time>2021-08-20T03:49:00Z</time>
      </trkpt>
      <trkpt lat="43.13002" lon="-0.347">
        <ele>342.85</ele>
        <time>2021-08-20T03:49:01Z</time>
      </trkpt>
      <trkpt lat="43.13003" lon="-0.34709">
        <ele>341.89</ele>
        <time>2021-08-20T03:49:02Z</time>
      </trkpt>
      <trkpt lat="43.13003" lon="-0.34719">
        <ele>341.41</ele>
        <time>2021-08-20T03:49:03Z</time>
      </trkpt>
      <trkpt lat="43.13002" lon="-0.3473">
        <ele>340.92</ele>
        <time>2021-08-20T03:49:04Z</time>
      </trkpt>
      <trkpt lat="43.13001" lon="-0.3474">
        <ele>340.92</ele>
        <time>2021-08-20T03:49:05Z</time>
      </trkpt>
      <trkpt lat="43.12999" lon="-0.34751">
        <ele>339.96</ele>
        <time>2021-08-20T03:49:06Z</time>
      </trkpt>
      <trkpt lat="43.12987" lon="-0.34811">
        <ele>339.96</ele>
        <time>2021-08-20T03:49:12Z</time>
      </trkpt>
      <trkpt lat="43.12985" lon="-0.3482">
        <ele>339.96</ele>
        <time>2021-08-20T03:49:13Z</time>
      </trkpt>
      <trkpt lat="43.12985" lon="-0.34829">
        <ele>339.96</ele>
        <time>2021-08-20T03:49:14Z</time>
      </trkpt>
      <trkpt lat="43.12984" lon="-0.34844">
        <ele>341.41</ele>
        <time>2021-08-20T03:49:16Z</time>
      </trkpt>
      <trkpt lat="43.12986" lon="-0.3488">
        <ele>344.29</ele>
        <time>2021-08-20T03:49:23Z</time>
      </trkpt>
      <trkpt lat="43.12991" lon="-0.34932">
        <ele>345.73</ele>
        <time>2021-08-20T03:49:33Z</time>
      </trkpt>
      <trkpt lat="43.12993" lon="-0.34954">
        <ele>345.25</ele>
        <time>2021-08-20T03:49:37Z</time>
      </trkpt>
      <trkpt lat="43.12999" lon="-0.35024">
        <ele>347.17</ele>
        <time>2021-08-20T03:49:50Z</time>
      </trkpt>
      <trkpt lat="43.13002" lon="-0.35057">
        <ele>348.62</ele>
        <time>2021-08-20T03:49:57Z</time>
      </trkpt>
      <trkpt lat="43.13006" lon="-0.35101">
        <ele>349.1</ele>
        <time>2021-08-20T03:50:06Z</time>
      </trkpt>
      <trkpt lat="43.13012" lon="-0.35142">
        <ele>348.13</ele>
        <time>2021-08-20T03:50:13Z</time>
      </trkpt>
      <trkpt lat="43.1302" lon="-0.35193">
        <ele>346.21</ele>
        <time>2021-08-20T03:50:20Z</time>
      </trkpt>
      <trkpt lat="43.13032" lon="-0.3526">
        <ele>345.25</ele>
        <time>2021-08-20T03:50:29Z</time>
      </trkpt>
      <trkpt lat="43.13034" lon="-0.3528">
        <ele>345.25</ele>
        <time>2021-08-20T03:50:33Z</time>
      </trkpt>
      <trkpt lat="43.13031" lon="-0.35282">
        <ele>344.77</ele>
        <time>2021-08-20T03:50:34Z</time>
      </trkpt>
      <trkpt lat="43.13028" lon="-0.35283">
        <ele>344.77</ele>
        <time>2021-08-20T03:50:35Z</time>
      </trkpt>
      <trkpt lat="43.13024" lon="-0.35284">
        <ele>344.29</ele>
        <time>2021-08-20T03:50:36Z</time>
      </trkpt>
      <trkpt lat="43.13019" lon="-0.35285">
        <ele>344.29</ele>
        <time>2021-08-20T03:50:37Z</time>
      </trkpt>
      <trkpt lat="43.12977" lon="-0.35295">
        <ele>340.92</ele>
        <time>2021-08-20T03:50:44Z</time>
      </trkpt>
      <trkpt lat="43.12953" lon="-0.35299">
        <ele>340.44</ele>
        <time>2021-08-20T03:50:48Z</time>
      </trkpt>
      <trkpt lat="43.12948" lon="-0.35299">
        <ele>340.44</ele>
        <time>2021-08-20T03:50:49Z</time>
      </trkpt>
      <trkpt lat="43.12904" lon="-0.35298">
        <ele>339.96</ele>
        <time>2021-08-20T03:50:57Z</time>
      </trkpt>
      <trkpt lat="43.12879" lon="-0.353">
        <ele>340.44</ele>
        <time>2021-08-20T03:51:02Z</time>
      </trkpt>
      <trkpt lat="43.1287" lon="-0.35302">
        <ele>340.44</ele>
        <time>2021-08-20T03:51:04Z</time>
      </trkpt>
      <trkpt lat="43.12866" lon="-0.35305">
        <ele>340.44</ele>
        <time>2021-08-20T03:51:05Z</time>
      </trkpt>
      <trkpt lat="43.12862" lon="-0.35309">
        <ele>340.44</ele>
        <time>2021-08-20T03:51:06Z</time>
      </trkpt>
      <trkpt lat="43.12859" lon="-0.35314">
        <ele>340.44</ele>
        <time>2021-08-20T03:51:07Z</time>
      </trkpt>
      <trkpt lat="43.12858" lon="-0.3532">
        <ele>341.41</ele>
        <time>2021-08-20T03:51:08Z</time>
      </trkpt>
      <trkpt lat="43.12857" lon="-0.35324">
        <ele>341.41</ele>
        <time>2021-08-20T03:51:09Z</time>
      </trkpt>
      <trkpt lat="43.12856" lon="-0.35329">
        <ele>341.89</ele>
        <time>2021-08-20T03:51:10Z</time>
      </trkpt>
      <trkpt lat="43.12855" lon="-0.35333">
        <ele>341.89</ele>
        <time>2021-08-20T03:51:11Z</time>
      </trkpt>
      <trkpt lat="43.12851" lon="-0.35358">
        <ele>343.33</ele>
        <time>2021-08-20T03:51:17Z</time>
      </trkpt>
      <trkpt lat="43.12853" lon="-0.35398">
        <ele>343.81</ele>
        <time>2021-08-20T03:51:26Z</time>
      </trkpt>
      <trkpt lat="43.12863" lon="-0.35451">
        <ele>344.77</ele>
        <time>2021-08-20T03:51:37Z</time>
      </trkpt>
      <trkpt lat="43.12869" lon="-0.35491">
        <ele>345.25</ele>
        <time>2021-08-20T03:51:45Z</time>
      </trkpt>
      <trkpt lat="43.12872" lon="-0.35539">
        <ele>346.69</ele>
        <time>2021-08-20T03:51:55Z</time>
      </trkpt>
      <trkpt lat="43.12872" lon="-0.35576">
        <ele>346.69</ele>
        <time>2021-08-20T03:52:02Z</time>
      </trkpt>
      <trkpt lat="43.12871" lon="-0.3562">
        <ele>346.69</ele>
        <time>2021-08-20T03:52:10Z</time>
      </trkpt>
      <trkpt lat="43.12871" lon="-0.35626">
        <ele>346.69</ele>
        <time>2021-08-20T03:52:11Z</time>
      </trkpt>
      <trkpt lat="43.12868" lon="-0.3565">
        <ele>346.69</ele>
        <time>2021-08-20T03:52:15Z</time>
      </trkpt>
      <trkpt lat="43.12867" lon="-0.35656">
        <ele>346.69</ele>
        <time>2021-08-20T03:52:16Z</time>
      </trkpt>
      <trkpt lat="43.12866" lon="-0.35662">
        <ele>346.69</ele>
        <time>2021-08-20T03:52:17Z</time>
      </trkpt>
      <trkpt lat="43.12855" lon="-0.35715">
        <ele>348.13</ele>
        <time>2021-08-20T03:52:27Z</time>
      </trkpt>
      <trkpt lat="43.12845" lon="-0.35775">
        <ele>348.13</ele>
        <time>2021-08-20T03:52:37Z</time>
      </trkpt>
      <trkpt lat="43.12841" lon="-0.35795">
        <ele>347.17</ele>
        <time>2021-08-20T03:52:40Z</time>
      </trkpt>
      <trkpt lat="43.1284" lon="-0.35801">
        <ele>347.17</ele>
        <time>2021-08-20T03:52:41Z</time>
      </trkpt>
      <trkpt lat="43.12838" lon="-0.35807">
        <ele>347.17</ele>
        <time>2021-08-20T03:52:42Z</time>
      </trkpt>
      <trkpt lat="43.12825" lon="-0.35854">
        <ele>347.17</ele>
        <time>2021-08-20T03:52:50Z</time>
      </trkpt>
      <trkpt lat="43.12824" lon="-0.35866">
        <ele>347.17</ele>
        <time>2021-08-20T03:52:52Z</time>
      </trkpt>
      <trkpt lat="43.12824" lon="-0.35871">
        <ele>347.17</ele>
        <time>2021-08-20T03:52:53Z</time>
      </trkpt>
      <trkpt lat="43.12824" lon="-0.35877">
        <ele>348.13</ele>
        <time>2021-08-20T03:52:54Z</time>
      </trkpt>
      <trkpt lat="43.12825" lon="-0.35882">
        <ele>348.13</ele>
        <time>2021-08-20T03:52:55Z</time>
      </trkpt>
      <trkpt lat="43.12827" lon="-0.35887">
        <ele>348.13</ele>
        <time>2021-08-20T03:52:56Z</time>
      </trkpt>
      <trkpt lat="43.12835" lon="-0.35915">
        <ele>348.13</ele>
        <time>2021-08-20T03:53:01Z</time>
      </trkpt>
      <trkpt lat="43.12859" lon="-0.35962">
        <ele>348.62</ele>
        <time>2021-08-20T03:53:11Z</time>
      </trkpt>
      <trkpt lat="43.1287" lon="-0.35987">
        <ele>350.06</ele>
        <time>2021-08-20T03:53:17Z</time>
      </trkpt>
      <trkpt lat="43.12864" lon="-0.36007">
        <ele>350.54</ele>
        <time>2021-08-20T03:53:22Z</time>
      </trkpt>
      <trkpt lat="43.12854" lon="-0.3604">
        <ele>352.46</ele>
        <time>2021-08-20T03:53:31Z</time>
      </trkpt>
      <trkpt lat="43.12846" lon="-0.36068">
        <ele>353.9</ele>
        <time>2021-08-20T03:53:39Z</time>
      </trkpt>
      <trkpt lat="43.12841" lon="-0.36097">
        <ele>355.34</ele>
        <time>2021-08-20T03:53:47Z</time>
      </trkpt>
      <trkpt lat="43.12833" lon="-0.36123">
        <ele>356.79</ele>
        <time>2021-08-20T03:53:55Z</time>
      </trkpt>
      <trkpt lat="43.12816" lon="-0.36156">
        <ele>357.27</ele>
        <time>2021-08-20T03:54:05Z</time>
      </trkpt>
      <trkpt lat="43.12808" lon="-0.36185">
        <ele>358.23</ele>
        <time>2021-08-20T03:54:13Z</time>
      </trkpt>
      <trkpt lat="43.12809" lon="-0.36207">
        <ele>358.71</ele>
        <time>2021-08-20T03:54:20Z</time>
      </trkpt>
      <trkpt lat="43.12809" lon="-0.36234">
        <ele>360.15</ele>
        <time>2021-08-20T03:54:28Z</time>
      </trkpt>
      <trkpt lat="43.12802" lon="-0.36256">
        <ele>360.63</ele>
        <time>2021-08-20T03:54:35Z</time>
      </trkpt>
      <trkpt lat="43.12795" lon="-0.36292">
        <ele>360.63</ele>
        <time>2021-08-20T03:54:42Z</time>
      </trkpt>
      <trkpt lat="43.12793" lon="-0.36319">
        <ele>359.67</ele>
        <time>2021-08-20T03:54:46Z</time>
      </trkpt>
      <trkpt lat="43.12793" lon="-0.36326">
        <ele>359.19</ele>
        <time>2021-08-20T03:54:47Z</time>
      </trkpt>
      <trkpt lat="43.12794" lon="-0.36342">
        <ele>358.23</ele>
        <time>2021-08-20T03:54:49Z</time>
      </trkpt>
      <trkpt lat="43.12794" lon="-0.3635">
        <ele>357.75</ele>
        <time>2021-08-20T03:54:50Z</time>
      </trkpt>
      <trkpt lat="43.12792" lon="-0.36408">
        <ele>357.27</ele>
        <time>2021-08-20T03:54:57Z</time>
      </trkpt>
      <trkpt lat="43.12789" lon="-0.36416">
        <ele>357.27</ele>
        <time>2021-08-20T03:54:58Z</time>
      </trkpt>
      <trkpt lat="43.12787" lon="-0.36422">
        <ele>357.27</ele>
        <time>2021-08-20T03:54:59Z</time>
      </trkpt>
      <trkpt lat="43.12785" lon="-0.36427">
        <ele>357.27</ele>
        <time>2021-08-20T03:55:00Z</time>
      </trkpt>
      <trkpt lat="43.12782" lon="-0.3643">
        <ele>357.27</ele>
        <time>2021-08-20T03:55:01Z</time>
      </trkpt>
      <trkpt lat="43.12779" lon="-0.36433">
        <ele>357.27</ele>
        <time>2021-08-20T03:55:02Z</time>
      </trkpt>
      <trkpt lat="43.12773" lon="-0.36438">
        <ele>358.71</ele>
        <time>2021-08-20T03:55:04Z</time>
      </trkpt>
      <trkpt lat="43.12753" lon="-0.36456">
        <ele>360.15</ele>
        <time>2021-08-20T03:55:13Z</time>
      </trkpt>
      <trkpt lat="43.12744" lon="-0.36477">
        <ele>361.59</ele>
        <time>2021-08-20T03:55:20Z</time>
      </trkpt>
      <trkpt lat="43.12742" lon="-0.36508">
        <ele>363.04</ele>
        <time>2021-08-20T03:55:29Z</time>
      </trkpt>
      <trkpt lat="43.12739" lon="-0.36555">
        <ele>364.48</ele>
        <time>2021-08-20T03:55:42Z</time>
      </trkpt>
      <trkpt lat="43.12732" lon="-0.36582">
        <ele>365.92</ele>
        <time>2021-08-20T03:55:50Z</time>
      </trkpt>
      <trkpt lat="43.12715" lon="-0.36614">
        <ele>365.92</ele>
        <time>2021-08-20T03:55:59Z</time>
      </trkpt>
      <trkpt lat="43.12699" lon="-0.36647">
        <ele>365.92</ele>
        <time>2021-08-20T03:56:07Z</time>
      </trkpt>
      <trkpt lat="43.12681" lon="-0.36678">
        <ele>366.88</ele>
        <time>2021-08-20T03:56:16Z</time>
      </trkpt>
      <trkpt lat="43.12662" lon="-0.36707">
        <ele>366.88</ele>
        <time>2021-08-20T03:56:24Z</time>
      </trkpt>
      <trkpt lat="43.12647" lon="-0.36744">
        <ele>367.36</ele>
        <time>2021-08-20T03:56:32Z</time>
      </trkpt>
      <trkpt lat="43.12636" lon="-0.36781">
        <ele>367.84</ele>
        <time>2021-08-20T03:56:40Z</time>
      </trkpt>
      <trkpt lat="43.12626" lon="-0.36811">
        <ele>369.28</ele>
        <time>2021-08-20T03:56:48Z</time>
      </trkpt>
      <trkpt lat="43.12615" lon="-0.36837">
        <ele>370.73</ele>
        <time>2021-08-20T03:56:57Z</time>
      </trkpt>
      <trkpt lat="43.12597" lon="-0.3687">
        <ele>371.21</ele>
        <time>2021-08-20T03:57:07Z</time>
      </trkpt>
      <trkpt lat="43.12581" lon="-0.36905">
        <ele>372.65</ele>
        <time>2021-08-20T03:57:17Z</time>
      </trkpt>
      <trkpt lat="43.12567" lon="-0.36942">
        <ele>374.09</ele>
        <time>2021-08-20T03:57:27Z</time>
      </trkpt>
      <trkpt lat="43.12557" lon="-0.36984">
        <ele>374.09</ele>
        <time>2021-08-20T03:57:35Z</time>
      </trkpt>
      <trkpt lat="43.1255" lon="-0.37002">
        <ele>374.09</ele>
        <time>2021-08-20T03:57:39Z</time>
      </trkpt>
      <trkpt lat="43.12547" lon="-0.37006">
        <ele>374.09</ele>
        <time>2021-08-20T03:57:40Z</time>
      </trkpt>
      <trkpt lat="43.12543" lon="-0.3701">
        <ele>374.09</ele>
        <time>2021-08-20T03:57:41Z</time>
      </trkpt>
      <trkpt lat="43.12539" lon="-0.37013">
        <ele>374.09</ele>
        <time>2021-08-20T03:57:42Z</time>
      </trkpt>
      <trkpt lat="43.12535" lon="-0.37015">
        <ele>374.09</ele>
        <time>2021-08-20T03:57:43Z</time>
      </trkpt>
      <trkpt lat="43.12531" lon="-0.37017">
        <ele>374.09</ele>
        <time>2021-08-20T03:57:44Z</time>
      </trkpt>
      <trkpt lat="43.12487" lon="-0.37046">
        <ele>373.13</ele>
        <time>2021-08-20T03:57:54Z</time>
      </trkpt>
      <trkpt lat="43.12481" lon="-0.37049">
        <ele>373.13</ele>
        <time>2021-08-20T03:57:55Z</time>
      </trkpt>
      <trkpt lat="43.12468" lon="-0.37054">
        <ele>371.69</ele>
        <time>2021-08-20T03:57:57Z</time>
      </trkpt>
      <trkpt lat="43.12462" lon="-0.37059">
        <ele>371.21</ele>
        <time>2021-08-20T03:57:58Z</time>
      </trkpt>
      <trkpt lat="43.12435" lon="-0.37081">
        <ele>367.84</ele>
        <time>2021-08-20T03:58:02Z</time>
      </trkpt>
      <trkpt lat="43.12421" lon="-0.37094">
        <ele>367.36</ele>
        <time>2021-08-20T03:58:04Z</time>
      </trkpt>
      <trkpt lat="43.12415" lon="-0.37103">
        <ele>366.4</ele>
        <time>2021-08-20T03:58:05Z</time>
      </trkpt>
      <trkpt lat="43.1241" lon="-0.37112">
        <ele>365.92</ele>
        <time>2021-08-20T03:58:06Z</time>
      </trkpt>
      <trkpt lat="43.12406" lon="-0.37122">
        <ele>365.44</ele>
        <time>2021-08-20T03:58:07Z</time>
      </trkpt>
      <trkpt lat="43.12405" lon="-0.37134">
        <ele>364.96</ele>
        <time>2021-08-20T03:58:08Z</time>
      </trkpt>
      <trkpt lat="43.12404" lon="-0.37145">
        <ele>364.48</ele>
        <time>2021-08-20T03:58:09Z</time>
      </trkpt>
      <trkpt lat="43.12404" lon="-0.37157">
        <ele>364</ele>
        <time>2021-08-20T03:58:10Z</time>
      </trkpt>
      <trkpt lat="43.12402" lon="-0.37181">
        <ele>363.52</ele>
        <time>2021-08-20T03:58:12Z</time>
      </trkpt>
      <trkpt lat="43.124" lon="-0.37192">
        <ele>363.52</ele>
        <time>2021-08-20T03:58:13Z</time>
      </trkpt>
      <trkpt lat="43.12397" lon="-0.37201">
        <ele>363.52</ele>
        <time>2021-08-20T03:58:14Z</time>
      </trkpt>
      <trkpt lat="43.12396" lon="-0.3721">
        <ele>363.52</ele>
        <time>2021-08-20T03:58:15Z</time>
      </trkpt>
      <trkpt lat="43.12398" lon="-0.37216">
        <ele>365.44</ele>
        <time>2021-08-20T03:58:16Z</time>
      </trkpt>
      <trkpt lat="43.12401" lon="-0.3722">
        <ele>365.92</ele>
        <time>2021-08-20T03:58:17Z</time>
      </trkpt>
      <trkpt lat="43.12404" lon="-0.37223">
        <ele>366.4</ele>
        <time>2021-08-20T03:58:18Z</time>
      </trkpt>
      <trkpt lat="43.12416" lon="-0.37238">
        <ele>368.8</ele>
        <time>2021-08-20T03:58:25Z</time>
      </trkpt>
      <trkpt lat="43.12426" lon="-0.37258">
        <ele>370.73</ele>
        <time>2021-08-20T03:58:34Z</time>
      </trkpt>
      <trkpt lat="43.12434" lon="-0.37275">
        <ele>372.17</ele>
        <time>2021-08-20T03:58:42Z</time>
      </trkpt>
      <trkpt lat="43.1244" lon="-0.37295">
        <ele>374.09</ele>
        <time>2021-08-20T03:58:52Z</time>
      </trkpt>
      <trkpt lat="43.12445" lon="-0.37316">
        <ele>375.53</ele>
        <time>2021-08-20T03:59:01Z</time>
      </trkpt>
      <trkpt lat="43.12449" lon="-0.37337">
        <ele>376.49</ele>
        <time>2021-08-20T03:59:10Z</time>
      </trkpt>
      <trkpt lat="43.12451" lon="-0.3736">
        <ele>378.42</ele>
        <time>2021-08-20T03:59:20Z</time>
      </trkpt>
      <trkpt lat="43.12453" lon="-0.37378">
        <ele>379.38</ele>
        <time>2021-08-20T03:59:28Z</time>
      </trkpt>
      <trkpt lat="43.12453" lon="-0.37385">
        <ele>380.34</ele>
        <time>2021-08-20T03:59:32Z</time>
      </trkpt>
      <trkpt lat="43.12453" lon="-0.37386">
        <ele>380.34</ele>
        <time>2021-08-20T03:59:33Z</time>
      </trkpt>
      <trkpt lat="43.12453" lon="-0.37389">
        <ele>380.34</ele>
        <time>2021-08-20T03:59:34Z</time>
      </trkpt>
      <trkpt lat="43.12462" lon="-0.37413">
        <ele>382.26</ele>
        <time>2021-08-20T03:59:43Z</time>
      </trkpt>
      <trkpt lat="43.12471" lon="-0.37437">
        <ele>383.22</ele>
        <time>2021-08-20T03:59:52Z</time>
      </trkpt>
      <trkpt lat="43.12478" lon="-0.37462">
        <ele>384.18</ele>
        <time>2021-08-20T04:00:01Z</time>
      </trkpt>
      <trkpt lat="43.12484" lon="-0.37488">
        <ele>386.11</ele>
        <time>2021-08-20T04:00:11Z</time>
      </trkpt>
      <trkpt lat="43.12487" lon="-0.3751">
        <ele>387.07</ele>
        <time>2021-08-20T04:00:18Z</time>
      </trkpt>
      <trkpt lat="43.12494" lon="-0.37532">
        <ele>388.51</ele>
        <time>2021-08-20T04:00:28Z</time>
      </trkpt>
      <trkpt lat="43.125" lon="-0.3754">
        <ele>389.95</ele>
        <time>2021-08-20T04:00:34Z</time>
      </trkpt>
      <trkpt lat="43.12502" lon="-0.37542">
        <ele>390.43</ele>
        <time>2021-08-20T04:00:36Z</time>
      </trkpt>
      <trkpt lat="43.12503" lon="-0.37544">
        <ele>390.43</ele>
        <time>2021-08-20T04:00:37Z</time>
      </trkpt>
      <trkpt lat="43.12504" lon="-0.37545">
        <ele>390.43</ele>
        <time>2021-08-20T04:00:38Z</time>
      </trkpt>
      <trkpt lat="43.12505" lon="-0.37547">
        <ele>390.43</ele>
        <time>2021-08-20T04:00:39Z</time>
      </trkpt>
      <trkpt lat="43.12506" lon="-0.37549">
        <ele>390.91</ele>
        <time>2021-08-20T04:00:40Z</time>
      </trkpt>
      <trkpt lat="43.12507" lon="-0.37551">
        <ele>390.91</ele>
        <time>2021-08-20T04:00:41Z</time>
      </trkpt>
      <trkpt lat="43.12508" lon="-0.37553">
        <ele>390.91</ele>
        <time>2021-08-20T04:00:42Z</time>
      </trkpt>
      <trkpt lat="43.12509" lon="-0.37555">
        <ele>390.91</ele>
        <time>2021-08-20T04:00:43Z</time>
      </trkpt>
      <trkpt lat="43.1251" lon="-0.37556">
        <ele>390.91</ele>
        <time>2021-08-20T04:00:44Z</time>
      </trkpt>
      <trkpt lat="43.12511" lon="-0.37558">
        <ele>391.39</ele>
        <time>2021-08-20T04:00:45Z</time>
      </trkpt>
      <trkpt lat="43.12512" lon="-0.37559">
        <ele>391.39</ele>
        <time>2021-08-20T04:00:46Z</time>
      </trkpt>
      <trkpt lat="43.12513" lon="-0.37561">
        <ele>391.39</ele>
        <time>2021-08-20T04:00:47Z</time>
      </trkpt>
      <trkpt lat="43.12514" lon="-0.37563">
        <ele>391.87</ele>
        <time>2021-08-20T04:00:48Z</time>
      </trkpt>
      <trkpt lat="43.12515" lon="-0.37566">
        <ele>391.87</ele>
        <time>2021-08-20T04:00:49Z</time>
      </trkpt>
      <trkpt lat="43.12524" lon="-0.37584">
        <ele>393.32</ele>
        <time>2021-08-20T04:00:58Z</time>
      </trkpt>
      <trkpt lat="43.12531" lon="-0.37597">
        <ele>394.28</ele>
        <time>2021-08-20T04:01:05Z</time>
      </trkpt>
      <trkpt lat="43.12535" lon="-0.37618">
        <ele>395.24</ele>
        <time>2021-08-20T04:01:14Z</time>
      </trkpt>
      <trkpt lat="43.12535" lon="-0.37638">
        <ele>396.68</ele>
        <time>2021-08-20T04:01:22Z</time>
      </trkpt>
      <trkpt lat="43.1254" lon="-0.37658">
        <ele>398.12</ele>
        <time>2021-08-20T04:01:32Z</time>
      </trkpt>
      <trkpt lat="43.12547" lon="-0.37676">
        <ele>399.08</ele>
        <time>2021-08-20T04:01:41Z</time>
      </trkpt>
      <trkpt lat="43.12549" lon="-0.37687">
        <ele>400.05</ele>
        <time>2021-08-20T04:01:46Z</time>
      </trkpt>
      <trkpt lat="43.12549" lon="-0.37689">
        <ele>400.53</ele>
        <time>2021-08-20T04:01:47Z</time>
      </trkpt>
      <trkpt lat="43.12549" lon="-0.37691">
        <ele>400.53</ele>
        <time>2021-08-20T04:01:48Z</time>
      </trkpt>
      <trkpt lat="43.1255" lon="-0.37702">
        <ele>401.01</ele>
        <time>2021-08-20T04:01:54Z</time>
      </trkpt>
      <trkpt lat="43.12552" lon="-0.3772">
        <ele>401.97</ele>
        <time>2021-08-20T04:02:01Z</time>
      </trkpt>
      <trkpt lat="43.12552" lon="-0.37722">
        <ele>402.93</ele>
        <time>2021-08-20T04:02:02Z</time>
      </trkpt>
      <trkpt lat="43.12552" lon="-0.37725">
        <ele>402.93</ele>
        <time>2021-08-20T04:02:03Z</time>
      </trkpt>
      <trkpt lat="43.12552" lon="-0.37727">
        <ele>402.93</ele>
        <time>2021-08-20T04:02:04Z</time>
      </trkpt>
      <trkpt lat="43.12553" lon="-0.37729">
        <ele>402.93</ele>
        <time>2021-08-20T04:02:05Z</time>
      </trkpt>
      <trkpt lat="43.12554" lon="-0.37748">
        <ele>403.89</ele>
        <time>2021-08-20T04:02:13Z</time>
      </trkpt>
      <trkpt lat="43.12556" lon="-0.37766">
        <ele>405.33</ele>
        <time>2021-08-20T04:02:20Z</time>
      </trkpt>
      <trkpt lat="43.12555" lon="-0.37768">
        <ele>405.33</ele>
        <time>2021-08-20T04:02:21Z</time>
      </trkpt>
      <trkpt lat="43.12548" lon="-0.37788">
        <ele>406.77</ele>
        <time>2021-08-20T04:02:30Z</time>
      </trkpt>
      <trkpt lat="43.12542" lon="-0.37803">
        <ele>407.74</ele>
        <time>2021-08-20T04:02:37Z</time>
      </trkpt>
      <trkpt lat="43.1254" lon="-0.37805">
        <ele>408.7</ele>
        <time>2021-08-20T04:02:38Z</time>
      </trkpt>
      <trkpt lat="43.12539" lon="-0.37807">
        <ele>408.7</ele>
        <time>2021-08-20T04:02:39Z</time>
      </trkpt>
      <trkpt lat="43.12538" lon="-0.3781">
        <ele>408.7</ele>
        <time>2021-08-20T04:02:40Z</time>
      </trkpt>
      <trkpt lat="43.12536" lon="-0.37812">
        <ele>408.7</ele>
        <time>2021-08-20T04:02:41Z</time>
      </trkpt>
      <trkpt lat="43.12535" lon="-0.37815">
        <ele>409.18</ele>
        <time>2021-08-20T04:02:42Z</time>
      </trkpt>
      <trkpt lat="43.12534" lon="-0.37816">
        <ele>409.18</ele>
        <time>2021-08-20T04:02:43Z</time>
      </trkpt>
      <trkpt lat="43.12534" lon="-0.37818">
        <ele>409.66</ele>
        <time>2021-08-20T04:02:44Z</time>
      </trkpt>
      <trkpt lat="43.12531" lon="-0.37831">
        <ele>410.62</ele>
        <time>2021-08-20T04:02:51Z</time>
      </trkpt>
      <trkpt lat="43.12529" lon="-0.37835">
        <ele>410.62</ele>
        <time>2021-08-20T04:02:53Z</time>
      </trkpt>
      <trkpt lat="43.12528" lon="-0.37853">
        <ele>412.06</ele>
        <time>2021-08-20T04:03:01Z</time>
      </trkpt>
      <trkpt lat="43.12528" lon="-0.37855">
        <ele>412.06</ele>
        <time>2021-08-20T04:03:02Z</time>
      </trkpt>
      <trkpt lat="43.12528" lon="-0.37857">
        <ele>412.54</ele>
        <time>2021-08-20T04:03:03Z</time>
      </trkpt>
      <trkpt lat="43.12529" lon="-0.37877">
        <ele>413.98</ele>
        <time>2021-08-20T04:03:12Z</time>
      </trkpt>
      <trkpt lat="43.12525" lon="-0.37899">
        <ele>415.43</ele>
        <time>2021-08-20T04:03:22Z</time>
      </trkpt>
      <trkpt lat="43.12525" lon="-0.37902">
        <ele>415.91</ele>
        <time>2021-08-20T04:03:23Z</time>
      </trkpt>
      <trkpt lat="43.12524" lon="-0.37904">
        <ele>415.91</ele>
        <time>2021-08-20T04:03:24Z</time>
      </trkpt>
      <trkpt lat="43.12521" lon="-0.37919">
        <ele>416.87</ele>
        <time>2021-08-20T04:03:31Z</time>
      </trkpt>
      <trkpt lat="43.12525" lon="-0.3793">
        <ele>418.31</ele>
        <time>2021-08-20T04:03:38Z</time>
      </trkpt>
      <trkpt lat="43.12537" lon="-0.37935">
        <ele>419.27</ele>
        <time>2021-08-20T04:03:46Z</time>
      </trkpt>
      <trkpt lat="43.12546" lon="-0.37942">
        <ele>420.71</ele>
        <time>2021-08-20T04:03:54Z</time>
      </trkpt>
      <trkpt lat="43.12554" lon="-0.37953">
        <ele>421.68</ele>
        <time>2021-08-20T04:04:01Z</time>
      </trkpt>
      <trkpt lat="43.12565" lon="-0.37961">
        <ele>423.12</ele>
        <time>2021-08-20T04:04:09Z</time>
      </trkpt>
      <trkpt lat="43.12578" lon="-0.37963">
        <ele>424.56</ele>
        <time>2021-08-20T04:04:16Z</time>
      </trkpt>
      <trkpt lat="43.12591" lon="-0.37957">
        <ele>425.52</ele>
        <time>2021-08-20T04:04:24Z</time>
      </trkpt>
      <trkpt lat="43.12602" lon="-0.37953">
        <ele>426.96</ele>
        <time>2021-08-20T04:04:32Z</time>
      </trkpt>
      <trkpt lat="43.12603" lon="-0.37954">
        <ele>426.96</ele>
        <time>2021-08-20T04:04:33Z</time>
      </trkpt>
      <trkpt lat="43.12604" lon="-0.37955">
        <ele>427.44</ele>
        <time>2021-08-20T04:04:34Z</time>
      </trkpt>
      <trkpt lat="43.12606" lon="-0.37961">
        <ele>428.4</ele>
        <time>2021-08-20T04:04:38Z</time>
      </trkpt>
      <trkpt lat="43.12602" lon="-0.37974">
        <ele>429.37</ele>
        <time>2021-08-20T04:04:46Z</time>
      </trkpt>
      <trkpt lat="43.12593" lon="-0.3799">
        <ele>430.33</ele>
        <time>2021-08-20T04:04:54Z</time>
      </trkpt>
      <trkpt lat="43.12579" lon="-0.38001">
        <ele>431.29</ele>
        <time>2021-08-20T04:05:03Z</time>
      </trkpt>
      <trkpt lat="43.12562" lon="-0.38003">
        <ele>433.21</ele>
        <time>2021-08-20T04:05:13Z</time>
      </trkpt>
      <trkpt lat="43.12549" lon="-0.38003">
        <ele>434.17</ele>
        <time>2021-08-20T04:05:21Z</time>
      </trkpt>
      <trkpt lat="43.1253" lon="-0.38006">
        <ele>435.61</ele>
        <time>2021-08-20T04:05:32Z</time>
      </trkpt>
      <trkpt lat="43.12519" lon="-0.38009">
        <ele>437.54</ele>
        <time>2021-08-20T04:05:40Z</time>
      </trkpt>
      <trkpt lat="43.12515" lon="-0.38011">
        <ele>438.02</ele>
        <time>2021-08-20T04:05:42Z</time>
      </trkpt>
      <trkpt lat="43.12514" lon="-0.38012">
        <ele>438.02</ele>
        <time>2021-08-20T04:05:43Z</time>
      </trkpt>
      <trkpt lat="43.12512" lon="-0.38013">
        <ele>438.02</ele>
        <time>2021-08-20T04:05:44Z</time>
      </trkpt>
      <trkpt lat="43.1251" lon="-0.38014">
        <ele>438.02</ele>
        <time>2021-08-20T04:05:45Z</time>
      </trkpt>
      <trkpt lat="43.12509" lon="-0.38014">
        <ele>438.02</ele>
        <time>2021-08-20T04:05:46Z</time>
      </trkpt>
      <trkpt lat="43.12492" lon="-0.38019">
        <ele>439.94</ele>
        <time>2021-08-20T04:05:54Z</time>
      </trkpt>
      <trkpt lat="43.12476" lon="-0.38016">
        <ele>440.9</ele>
        <time>2021-08-20T04:06:02Z</time>
      </trkpt>
      <trkpt lat="43.12464" lon="-0.38008">
        <ele>442.82</ele>
        <time>2021-08-20T04:06:10Z</time>
      </trkpt>
      <trkpt lat="43.12449" lon="-0.38005">
        <ele>443.79</ele>
        <time>2021-08-20T04:06:18Z</time>
      </trkpt>
      <trkpt lat="43.12437" lon="-0.38018">
        <ele>444.75</ele>
        <time>2021-08-20T04:06:26Z</time>
      </trkpt>
      <trkpt lat="43.12422" lon="-0.38041">
        <ele>446.19</ele>
        <time>2021-08-20T04:06:37Z</time>
      </trkpt>
      <trkpt lat="43.12408" lon="-0.38059">
        <ele>447.15</ele>
        <time>2021-08-20T04:06:46Z</time>
      </trkpt>
      <trkpt lat="43.12394" lon="-0.38077">
        <ele>448.59</ele>
        <time>2021-08-20T04:06:56Z</time>
      </trkpt>
      <trkpt lat="43.12386" lon="-0.38089">
        <ele>450.03</ele>
        <time>2021-08-20T04:07:03Z</time>
      </trkpt>
      <trkpt lat="43.12376" lon="-0.38103">
        <ele>451.96</ele>
        <time>2021-08-20T04:07:12Z</time>
      </trkpt>
      <trkpt lat="43.12362" lon="-0.38122">
        <ele>453.88</ele>
        <time>2021-08-20T04:07:22Z</time>
      </trkpt>
      <trkpt lat="43.12353" lon="-0.38149">
        <ele>454.84</ele>
        <time>2021-08-20T04:07:32Z</time>
      </trkpt>
      <trkpt lat="43.12349" lon="-0.38173">
        <ele>455.32</ele>
        <time>2021-08-20T04:07:39Z</time>
      </trkpt>
      <trkpt lat="43.12345" lon="-0.38213">
        <ele>457.24</ele>
        <time>2021-08-20T04:07:50Z</time>
      </trkpt>
      <trkpt lat="43.1234" lon="-0.38253">
        <ele>457.72</ele>
        <time>2021-08-20T04:08:01Z</time>
      </trkpt>
      <trkpt lat="43.12338" lon="-0.3828">
        <ele>459.17</ele>
        <time>2021-08-20T04:08:09Z</time>
      </trkpt>
      <trkpt lat="43.12337" lon="-0.38282">
        <ele>459.17</ele>
        <time>2021-08-20T04:08:10Z</time>
      </trkpt>
      <trkpt lat="43.12317" lon="-0.38302">
        <ele>460.13</ele>
        <time>2021-08-20T04:08:19Z</time>
      </trkpt>
      <trkpt lat="43.12294" lon="-0.38332">
        <ele>461.57</ele>
        <time>2021-08-20T04:08:30Z</time>
      </trkpt>
      <trkpt lat="43.12283" lon="-0.3836">
        <ele>462.53</ele>
        <time>2021-08-20T04:08:38Z</time>
      </trkpt>
      <trkpt lat="43.12268" lon="-0.38404">
        <ele>463.97</ele>
        <time>2021-08-20T04:08:49Z</time>
      </trkpt>
      <trkpt lat="43.12255" lon="-0.38444">
        <ele>464.93</ele>
        <time>2021-08-20T04:08:58Z</time>
      </trkpt>
      <trkpt lat="43.12245" lon="-0.38479">
        <ele>464.93</ele>
        <time>2021-08-20T04:09:04Z</time>
      </trkpt>
      <trkpt lat="43.12244" lon="-0.38486">
        <ele>464.93</ele>
        <time>2021-08-20T04:09:05Z</time>
      </trkpt>
      <trkpt lat="43.12244" lon="-0.38492">
        <ele>464.93</ele>
        <time>2021-08-20T04:09:06Z</time>
      </trkpt>
      <trkpt lat="43.12248" lon="-0.38549">
        <ele>464.93</ele>
        <time>2021-08-20T04:09:14Z</time>
      </trkpt>
      <trkpt lat="43.12257" lon="-0.38604">
        <ele>465.9</ele>
        <time>2021-08-20T04:09:22Z</time>
      </trkpt>
      <trkpt lat="43.12259" lon="-0.38617">
        <ele>466.38</ele>
        <time>2021-08-20T04:09:24Z</time>
      </trkpt>
      <trkpt lat="43.1226" lon="-0.38624">
        <ele>466.38</ele>
        <time>2021-08-20T04:09:25Z</time>
      </trkpt>
      <trkpt lat="43.12263" lon="-0.38673">
        <ele>467.34</ele>
        <time>2021-08-20T04:09:32Z</time>
      </trkpt>
      <trkpt lat="43.12262" lon="-0.3868">
        <ele>467.34</ele>
        <time>2021-08-20T04:09:33Z</time>
      </trkpt>
      <trkpt lat="43.12259" lon="-0.38694">
        <ele>467.34</ele>
        <time>2021-08-20T04:09:35Z</time>
      </trkpt>
      <trkpt lat="43.12256" lon="-0.387">
        <ele>467.82</ele>
        <time>2021-08-20T04:09:36Z</time>
      </trkpt>
      <trkpt lat="43.12253" lon="-0.38704">
        <ele>467.82</ele>
        <time>2021-08-20T04:09:37Z</time>
      </trkpt>
      <trkpt lat="43.12249" lon="-0.38708">
        <ele>467.82</ele>
        <time>2021-08-20T04:09:38Z</time>
      </trkpt>
      <trkpt lat="43.12244" lon="-0.38711">
        <ele>467.82</ele>
        <time>2021-08-20T04:09:39Z</time>
      </trkpt>
      <trkpt lat="43.12239" lon="-0.38713">
        <ele>468.3</ele>
        <time>2021-08-20T04:09:40Z</time>
      </trkpt>
      <trkpt lat="43.12234" lon="-0.38715">
        <ele>468.3</ele>
        <time>2021-08-20T04:09:41Z</time>
      </trkpt>
      <trkpt lat="43.12229" lon="-0.38716">
        <ele>468.3</ele>
        <time>2021-08-20T04:09:42Z</time>
      </trkpt>
      <trkpt lat="43.12224" lon="-0.38716">
        <ele>468.3</ele>
        <time>2021-08-20T04:09:43Z</time>
      </trkpt>
      <trkpt lat="43.12219" lon="-0.38716">
        <ele>468.3</ele>
        <time>2021-08-20T04:09:44Z</time>
      </trkpt>
      <trkpt lat="43.12214" lon="-0.38716">
        <ele>468.3</ele>
        <time>2021-08-20T04:09:45Z</time>
      </trkpt>
      <trkpt lat="43.12188" lon="-0.38719">
        <ele>468.78</ele>
        <time>2021-08-20T04:09:50Z</time>
      </trkpt>
      <trkpt lat="43.12183" lon="-0.38722">
        <ele>469.26</ele>
        <time>2021-08-20T04:09:51Z</time>
      </trkpt>
      <trkpt lat="43.12179" lon="-0.38725">
        <ele>469.26</ele>
        <time>2021-08-20T04:09:52Z</time>
      </trkpt>
      <trkpt lat="43.12176" lon="-0.38728">
        <ele>469.26</ele>
        <time>2021-08-20T04:09:53Z</time>
      </trkpt>
      <trkpt lat="43.12173" lon="-0.38733">
        <ele>469.26</ele>
        <time>2021-08-20T04:09:54Z</time>
      </trkpt>
      <trkpt lat="43.12171" lon="-0.38738">
        <ele>469.74</ele>
        <time>2021-08-20T04:09:55Z</time>
      </trkpt>
      <trkpt lat="43.12166" lon="-0.38748">
        <ele>469.74</ele>
        <time>2021-08-20T04:09:57Z</time>
      </trkpt>
      <trkpt lat="43.12164" lon="-0.38754">
        <ele>469.74</ele>
        <time>2021-08-20T04:09:58Z</time>
      </trkpt>
      <trkpt lat="43.12163" lon="-0.38761">
        <ele>469.74</ele>
        <time>2021-08-20T04:09:59Z</time>
      </trkpt>
      <trkpt lat="43.12162" lon="-0.38767">
        <ele>469.74</ele>
        <time>2021-08-20T04:10:00Z</time>
      </trkpt>
      <trkpt lat="43.12162" lon="-0.38774">
        <ele>469.74</ele>
        <time>2021-08-20T04:10:01Z</time>
      </trkpt>
      <trkpt lat="43.12163" lon="-0.3878">
        <ele>469.74</ele>
        <time>2021-08-20T04:10:02Z</time>
      </trkpt>
      <trkpt lat="43.12165" lon="-0.38786">
        <ele>470.7</ele>
        <time>2021-08-20T04:10:03Z</time>
      </trkpt>
      <trkpt lat="43.12167" lon="-0.38792">
        <ele>470.7</ele>
        <time>2021-08-20T04:10:04Z</time>
      </trkpt>
      <trkpt lat="43.12177" lon="-0.38845">
        <ele>472.63</ele>
        <time>2021-08-20T04:10:13Z</time>
      </trkpt>
      <trkpt lat="43.12191" lon="-0.38871">
        <ele>472.63</ele>
        <time>2021-08-20T04:10:19Z</time>
      </trkpt>
      <trkpt lat="43.12213" lon="-0.38901">
        <ele>474.07</ele>
        <time>2021-08-20T04:10:27Z</time>
      </trkpt>
      <trkpt lat="43.12235" lon="-0.38936">
        <ele>474.55</ele>
        <time>2021-08-20T04:10:35Z</time>
      </trkpt>
      <trkpt lat="43.1225" lon="-0.38975">
        <ele>476.47</ele>
        <time>2021-08-20T04:10:43Z</time>
      </trkpt>
      <trkpt lat="43.12252" lon="-0.39018">
        <ele>477.91</ele>
        <time>2021-08-20T04:10:52Z</time>
      </trkpt>
      <trkpt lat="43.12247" lon="-0.39061">
        <ele>479.35</ele>
        <time>2021-08-20T04:11:01Z</time>
      </trkpt>
      <trkpt lat="43.12238" lon="-0.39084">
        <ele>479.35</ele>
        <time>2021-08-20T04:11:06Z</time>
      </trkpt>
      <trkpt lat="43.12235" lon="-0.39088">
        <ele>479.35</ele>
        <time>2021-08-20T04:11:07Z</time>
      </trkpt>
      <trkpt lat="43.12231" lon="-0.39092">
        <ele>479.35</ele>
        <time>2021-08-20T04:11:08Z</time>
      </trkpt>
      <trkpt lat="43.122" lon="-0.3911">
        <ele>479.35</ele>
        <time>2021-08-20T04:11:15Z</time>
      </trkpt>
      <trkpt lat="43.12156" lon="-0.39123">
        <ele>479.35</ele>
        <time>2021-08-20T04:11:23Z</time>
      </trkpt>
      <trkpt lat="43.12102" lon="-0.39134">
        <ele>479.35</ele>
        <time>2021-08-20T04:11:32Z</time>
      </trkpt>
      <trkpt lat="43.12059" lon="-0.39137">
        <ele>479.35</ele>
        <time>2021-08-20T04:11:39Z</time>
      </trkpt>
      <trkpt lat="43.12052" lon="-0.39139">
        <ele>477.91</ele>
        <time>2021-08-20T04:11:40Z</time>
      </trkpt>
      <trkpt lat="43.12044" lon="-0.39143">
        <ele>477.43</ele>
        <time>2021-08-20T04:11:41Z</time>
      </trkpt>
      <trkpt lat="43.1204" lon="-0.39146">
        <ele>477.43</ele>
        <time>2021-08-20T04:11:42Z</time>
      </trkpt>
      <trkpt lat="43.12036" lon="-0.39151">
        <ele>477.43</ele>
        <time>2021-08-20T04:11:43Z</time>
      </trkpt>
      <trkpt lat="43.12031" lon="-0.39158">
        <ele>477.43</ele>
        <time>2021-08-20T04:11:44Z</time>
      </trkpt>
      <trkpt lat="43.12027" lon="-0.39165">
        <ele>477.43</ele>
        <time>2021-08-20T04:11:45Z</time>
      </trkpt>
      <trkpt lat="43.12024" lon="-0.39173">
        <ele>477.43</ele>
        <time>2021-08-20T04:11:46Z</time>
      </trkpt>
      <trkpt lat="43.12022" lon="-0.3918">
        <ele>477.43</ele>
        <time>2021-08-20T04:11:47Z</time>
      </trkpt>
      <trkpt lat="43.12013" lon="-0.39211">
        <ele>477.43</ele>
        <time>2021-08-20T04:11:51Z</time>
      </trkpt>
      <trkpt lat="43.12011" lon="-0.3922">
        <ele>477.43</ele>
        <time>2021-08-20T04:11:52Z</time>
      </trkpt>
      <trkpt lat="43.12011" lon="-0.39226">
        <ele>477.43</ele>
        <time>2021-08-20T04:11:53Z</time>
      </trkpt>
      <trkpt lat="43.12011" lon="-0.39235">
        <ele>478.87</ele>
        <time>2021-08-20T04:11:54Z</time>
      </trkpt>
      <trkpt lat="43.1201" lon="-0.39243">
        <ele>478.87</ele>
        <time>2021-08-20T04:11:55Z</time>
      </trkpt>
      <trkpt lat="43.12009" lon="-0.3925">
        <ele>479.35</ele>
        <time>2021-08-20T04:11:56Z</time>
      </trkpt>
      <trkpt lat="43.12006" lon="-0.39258">
        <ele>479.35</ele>
        <time>2021-08-20T04:11:57Z</time>
      </trkpt>
      <trkpt lat="43.12004" lon="-0.39263">
        <ele>479.84</ele>
        <time>2021-08-20T04:11:58Z</time>
      </trkpt>
      <trkpt lat="43.12" lon="-0.39269">
        <ele>479.84</ele>
        <time>2021-08-20T04:11:59Z</time>
      </trkpt>
      <trkpt lat="43.11996" lon="-0.39273">
        <ele>479.84</ele>
        <time>2021-08-20T04:12:00Z</time>
      </trkpt>
      <trkpt lat="43.11992" lon="-0.39276">
        <ele>480.32</ele>
        <time>2021-08-20T04:12:01Z</time>
      </trkpt>
      <trkpt lat="43.11987" lon="-0.39279">
        <ele>480.8</ele>
        <time>2021-08-20T04:12:02Z</time>
      </trkpt>
      <trkpt lat="43.11982" lon="-0.3928">
        <ele>480.8</ele>
        <time>2021-08-20T04:12:03Z</time>
      </trkpt>
      <trkpt lat="43.11976" lon="-0.3928">
        <ele>480.32</ele>
        <time>2021-08-20T04:12:04Z</time>
      </trkpt>
      <trkpt lat="43.11971" lon="-0.3928">
        <ele>480.32</ele>
        <time>2021-08-20T04:12:05Z</time>
      </trkpt>
      <trkpt lat="43.11965" lon="-0.39279">
        <ele>480.32</ele>
        <time>2021-08-20T04:12:06Z</time>
      </trkpt>
      <trkpt lat="43.11926" lon="-0.39265">
        <ele>481.28</ele>
        <time>2021-08-20T04:12:14Z</time>
      </trkpt>
      <trkpt lat="43.11897" lon="-0.39244">
        <ele>481.76</ele>
        <time>2021-08-20T04:12:20Z</time>
      </trkpt>
      <trkpt lat="43.11892" lon="-0.39242">
        <ele>481.76</ele>
        <time>2021-08-20T04:12:21Z</time>
      </trkpt>
      <trkpt lat="43.11887" lon="-0.3924">
        <ele>481.76</ele>
        <time>2021-08-20T04:12:22Z</time>
      </trkpt>
      <trkpt lat="43.11882" lon="-0.39239">
        <ele>481.76</ele>
        <time>2021-08-20T04:12:23Z</time>
      </trkpt>
      <trkpt lat="43.11875" lon="-0.3924">
        <ele>482.24</ele>
        <time>2021-08-20T04:12:24Z</time>
      </trkpt>
      <trkpt lat="43.11871" lon="-0.39241">
        <ele>482.24</ele>
        <time>2021-08-20T04:12:25Z</time>
      </trkpt>
      <trkpt lat="43.11865" lon="-0.39243">
        <ele>482.24</ele>
        <time>2021-08-20T04:12:26Z</time>
      </trkpt>
      <trkpt lat="43.11827" lon="-0.39254">
        <ele>484.16</ele>
        <time>2021-08-20T04:12:34Z</time>
      </trkpt>
      <trkpt lat="43.11787" lon="-0.39252">
        <ele>485.12</ele>
        <time>2021-08-20T04:12:43Z</time>
      </trkpt>
      <trkpt lat="43.11752" lon="-0.39237">
        <ele>485.6</ele>
        <time>2021-08-20T04:12:52Z</time>
      </trkpt>
      <trkpt lat="43.11726" lon="-0.39214">
        <ele>486.56</ele>
        <time>2021-08-20T04:13:00Z</time>
      </trkpt>
      <trkpt lat="43.11717" lon="-0.39203">
        <ele>486.56</ele>
        <time>2021-08-20T04:13:03Z</time>
      </trkpt>
      <trkpt lat="43.11712" lon="-0.392">
        <ele>486.56</ele>
        <time>2021-08-20T04:13:04Z</time>
      </trkpt>
      <trkpt lat="43.11709" lon="-0.39199">
        <ele>486.56</ele>
        <time>2021-08-20T04:13:05Z</time>
      </trkpt>
      <trkpt lat="43.11696" lon="-0.39196">
        <ele>487.05</ele>
        <time>2021-08-20T04:13:08Z</time>
      </trkpt>
      <trkpt lat="43.11691" lon="-0.39196">
        <ele>487.05</ele>
        <time>2021-08-20T04:13:09Z</time>
      </trkpt>
      <trkpt lat="43.11675" lon="-0.39201">
        <ele>487.53</ele>
        <time>2021-08-20T04:13:13Z</time>
      </trkpt>
      <trkpt lat="43.11671" lon="-0.39204">
        <ele>487.53</ele>
        <time>2021-08-20T04:13:14Z</time>
      </trkpt>
      <trkpt lat="43.11667" lon="-0.39206">
        <ele>487.53</ele>
        <time>2021-08-20T04:13:15Z</time>
      </trkpt>
      <trkpt lat="43.11641" lon="-0.39238">
        <ele>488.49</ele>
        <time>2021-08-20T04:13:23Z</time>
      </trkpt>
      <trkpt lat="43.11637" lon="-0.39241">
        <ele>488.49</ele>
        <time>2021-08-20T04:13:24Z</time>
      </trkpt>
      <trkpt lat="43.11633" lon="-0.39244">
        <ele>488.97</ele>
        <time>2021-08-20T04:13:25Z</time>
      </trkpt>
      <trkpt lat="43.11629" lon="-0.39247">
        <ele>488.97</ele>
        <time>2021-08-20T04:13:26Z</time>
      </trkpt>
      <trkpt lat="43.11625" lon="-0.39249">
        <ele>488.97</ele>
        <time>2021-08-20T04:13:27Z</time>
      </trkpt>
      <trkpt lat="43.11621" lon="-0.3925">
        <ele>488.97</ele>
        <time>2021-08-20T04:13:28Z</time>
      </trkpt>
      <trkpt lat="43.11616" lon="-0.39251">
        <ele>488.97</ele>
        <time>2021-08-20T04:13:29Z</time>
      </trkpt>
      <trkpt lat="43.11612" lon="-0.3925">
        <ele>488.97</ele>
        <time>2021-08-20T04:13:30Z</time>
      </trkpt>
      <trkpt lat="43.11607" lon="-0.39248">
        <ele>489.45</ele>
        <time>2021-08-20T04:13:31Z</time>
      </trkpt>
      <trkpt lat="43.11603" lon="-0.39246">
        <ele>489.45</ele>
        <time>2021-08-20T04:13:32Z</time>
      </trkpt>
      <trkpt lat="43.11599" lon="-0.39243">
        <ele>489.45</ele>
        <time>2021-08-20T04:13:33Z</time>
      </trkpt>
      <trkpt lat="43.11595" lon="-0.3924">
        <ele>489.45</ele>
        <time>2021-08-20T04:13:34Z</time>
      </trkpt>
      <trkpt lat="43.11572" lon="-0.39221">
        <ele>490.41</ele>
        <time>2021-08-20T04:13:40Z</time>
      </trkpt>
      <trkpt lat="43.11568" lon="-0.39218">
        <ele>490.41</ele>
        <time>2021-08-20T04:13:41Z</time>
      </trkpt>
      <trkpt lat="43.11564" lon="-0.39216">
        <ele>489.93</ele>
        <time>2021-08-20T04:13:42Z</time>
      </trkpt>
      <trkpt lat="43.11552" lon="-0.3921">
        <ele>490.89</ele>
        <time>2021-08-20T04:13:45Z</time>
      </trkpt>
      <trkpt lat="43.11516" lon="-0.392">
        <ele>491.85</ele>
        <time>2021-08-20T04:13:54Z</time>
      </trkpt>
      <trkpt lat="43.11488" lon="-0.39199">
        <ele>492.33</ele>
        <time>2021-08-20T04:14:00Z</time>
      </trkpt>
      <trkpt lat="43.11484" lon="-0.39201">
        <ele>492.33</ele>
        <time>2021-08-20T04:14:01Z</time>
      </trkpt>
      <trkpt lat="43.11479" lon="-0.39203">
        <ele>492.33</ele>
        <time>2021-08-20T04:14:02Z</time>
      </trkpt>
      <trkpt lat="43.11475" lon="-0.39205">
        <ele>492.33</ele>
        <time>2021-08-20T04:14:03Z</time>
      </trkpt>
      <trkpt lat="43.11471" lon="-0.39208">
        <ele>492.33</ele>
        <time>2021-08-20T04:14:04Z</time>
      </trkpt>
      <trkpt lat="43.11459" lon="-0.3922">
        <ele>492.33</ele>
        <time>2021-08-20T04:14:07Z</time>
      </trkpt>
      <trkpt lat="43.11456" lon="-0.39225">
        <ele>492.33</ele>
        <time>2021-08-20T04:14:08Z</time>
      </trkpt>
      <trkpt lat="43.11454" lon="-0.39232">
        <ele>491.85</ele>
        <time>2021-08-20T04:14:09Z</time>
      </trkpt>
      <trkpt lat="43.11453" lon="-0.39239">
        <ele>491.85</ele>
        <time>2021-08-20T04:14:10Z</time>
      </trkpt>
      <trkpt lat="43.11452" lon="-0.39246">
        <ele>491.85</ele>
        <time>2021-08-20T04:14:11Z</time>
      </trkpt>
      <trkpt lat="43.1145" lon="-0.39269">
        <ele>491.85</ele>
        <time>2021-08-20T04:14:14Z</time>
      </trkpt>
      <trkpt lat="43.11448" lon="-0.39277">
        <ele>491.85</ele>
        <time>2021-08-20T04:14:15Z</time>
      </trkpt>
      <trkpt lat="43.11445" lon="-0.39284">
        <ele>491.85</ele>
        <time>2021-08-20T04:14:16Z</time>
      </trkpt>
      <trkpt lat="43.11441" lon="-0.3929">
        <ele>491.85</ele>
        <time>2021-08-20T04:14:17Z</time>
      </trkpt>
      <trkpt lat="43.11437" lon="-0.39296">
        <ele>491.85</ele>
        <time>2021-08-20T04:14:18Z</time>
      </trkpt>
      <trkpt lat="43.11432" lon="-0.39301">
        <ele>491.85</ele>
        <time>2021-08-20T04:14:19Z</time>
      </trkpt>
      <trkpt lat="43.11426" lon="-0.39306">
        <ele>491.85</ele>
        <time>2021-08-20T04:14:20Z</time>
      </trkpt>
      <trkpt lat="43.1141" lon="-0.39321">
        <ele>490.89</ele>
        <time>2021-08-20T04:14:23Z</time>
      </trkpt>
      <trkpt lat="43.11389" lon="-0.39345">
        <ele>489.93</ele>
        <time>2021-08-20T04:14:27Z</time>
      </trkpt>
      <trkpt lat="43.11386" lon="-0.39352">
        <ele>489.93</ele>
        <time>2021-08-20T04:14:28Z</time>
      </trkpt>
      <trkpt lat="43.11383" lon="-0.3936">
        <ele>489.93</ele>
        <time>2021-08-20T04:14:29Z</time>
      </trkpt>
      <trkpt lat="43.11382" lon="-0.39366">
        <ele>489.93</ele>
        <time>2021-08-20T04:14:30Z</time>
      </trkpt>
      <trkpt lat="43.11381" lon="-0.39371">
        <ele>489.93</ele>
        <time>2021-08-20T04:14:31Z</time>
      </trkpt>
      <trkpt lat="43.1138" lon="-0.39373">
        <ele>489.93</ele>
        <time>2021-08-20T04:14:32Z</time>
      </trkpt>
      <trkpt lat="43.11378" lon="-0.39373">
        <ele>489.93</ele>
        <time>2021-08-20T04:14:33Z</time>
      </trkpt>
      <trkpt lat="43.11378" lon="-0.3937">
        <ele>489.93</ele>
        <time>2021-08-20T04:14:34Z</time>
      </trkpt>
      <trkpt lat="43.11379" lon="-0.39368">
        <ele>489.93</ele>
        <time>2021-08-20T04:14:35Z</time>
      </trkpt>
      <trkpt lat="43.11379" lon="-0.39366">
        <ele>489.93</ele>
        <time>2021-08-20T04:14:36Z</time>
      </trkpt>
      <trkpt lat="43.11379" lon="-0.39364">
        <ele>489.93</ele>
        <time>2021-08-20T04:14:37Z</time>
      </trkpt>
      <trkpt lat="43.11379" lon="-0.3936">
        <ele>489.93</ele>
        <time>2021-08-20T04:14:38Z</time>
      </trkpt>
      <trkpt lat="43.11378" lon="-0.39358">
        <ele>489.93</ele>
        <time>2021-08-20T04:14:39Z</time>
      </trkpt>
      <trkpt lat="43.11377" lon="-0.39356">
        <ele>489.93</ele>
        <time>2021-08-20T04:14:40Z</time>
      </trkpt>
      <trkpt lat="43.11376" lon="-0.39355">
        <ele>490.89</ele>
        <time>2021-08-20T04:14:41Z</time>
      </trkpt>
      <trkpt lat="43.11375" lon="-0.39355">
        <ele>490.89</ele>
        <time>2021-08-20T04:14:42Z</time>
      </trkpt>
      <trkpt lat="43.11373" lon="-0.39356">
        <ele>491.37</ele>
        <time>2021-08-20T04:14:43Z</time>
      </trkpt>
      <trkpt lat="43.11359" lon="-0.39356">
        <ele>492.81</ele>
        <time>2021-08-20T04:14:50Z</time>
      </trkpt>
      <trkpt lat="43.11339" lon="-0.39362">
        <ele>493.77</ele>
        <time>2021-08-20T04:14:59Z</time>
      </trkpt>
      <trkpt lat="43.11325" lon="-0.39369">
        <ele>494.26</ele>
        <time>2021-08-20T04:15:05Z</time>
      </trkpt>
      <trkpt lat="43.11316" lon="-0.39393">
        <ele>495.22</ele>
        <time>2021-08-20T04:15:13Z</time>
      </trkpt>
      <trkpt lat="43.1131" lon="-0.39413">
        <ele>496.18</ele>
        <time>2021-08-20T04:15:19Z</time>
      </trkpt>
      <trkpt lat="43.11302" lon="-0.39439">
        <ele>497.14</ele>
        <time>2021-08-20T04:15:27Z</time>
      </trkpt>
      <trkpt lat="43.11285" lon="-0.39468">
        <ele>498.1</ele>
        <time>2021-08-20T04:15:37Z</time>
      </trkpt>
      <trkpt lat="43.11264" lon="-0.395">
        <ele>499.06</ele>
        <time>2021-08-20T04:15:47Z</time>
      </trkpt>
      <trkpt lat="43.1125" lon="-0.3953">
        <ele>499.54</ele>
        <time>2021-08-20T04:15:54Z</time>
      </trkpt>
      <trkpt lat="43.11234" lon="-0.39568">
        <ele>498.58</ele>
        <time>2021-08-20T04:16:00Z</time>
      </trkpt>
      <trkpt lat="43.11231" lon="-0.39574">
        <ele>497.62</ele>
        <time>2021-08-20T04:16:01Z</time>
      </trkpt>
      <trkpt lat="43.11227" lon="-0.39581">
        <ele>497.62</ele>
        <time>2021-08-20T04:16:02Z</time>
      </trkpt>
      <trkpt lat="43.11204" lon="-0.39619">
        <ele>494.74</ele>
        <time>2021-08-20T04:16:07Z</time>
      </trkpt>
      <trkpt lat="43.11201" lon="-0.39628">
        <ele>494.74</ele>
        <time>2021-08-20T04:16:08Z</time>
      </trkpt>
      <trkpt lat="43.11183" lon="-0.39701">
        <ele>491.85</ele>
        <time>2021-08-20T04:16:15Z</time>
      </trkpt>
      <trkpt lat="43.11175" lon="-0.39731">
        <ele>491.85</ele>
        <time>2021-08-20T04:16:18Z</time>
      </trkpt>
      <trkpt lat="43.11171" lon="-0.3974">
        <ele>491.85</ele>
        <time>2021-08-20T04:16:19Z</time>
      </trkpt>
      <trkpt lat="43.1115" lon="-0.39771">
        <ele>493.29</ele>
        <time>2021-08-20T04:16:24Z</time>
      </trkpt>
      <trkpt lat="43.1113" lon="-0.3979">
        <ele>494.74</ele>
        <time>2021-08-20T04:16:30Z</time>
      </trkpt>
      <trkpt lat="43.11111" lon="-0.39797">
        <ele>496.18</ele>
        <time>2021-08-20T04:16:37Z</time>
      </trkpt>
      <trkpt lat="43.11089" lon="-0.398">
        <ele>497.62</ele>
        <time>2021-08-20T04:16:46Z</time>
      </trkpt>
      <trkpt lat="43.11065" lon="-0.39801">
        <ele>499.06</ele>
        <time>2021-08-20T04:16:56Z</time>
      </trkpt>
      <trkpt lat="43.11063" lon="-0.398">
        <ele>499.54</ele>
        <time>2021-08-20T04:16:57Z</time>
      </trkpt>
      <trkpt lat="43.11061" lon="-0.39799">
        <ele>499.54</ele>
        <time>2021-08-20T04:16:58Z</time>
      </trkpt>
      <trkpt lat="43.11059" lon="-0.39799">
        <ele>499.54</ele>
        <time>2021-08-20T04:16:59Z</time>
      </trkpt>
      <trkpt lat="43.11057" lon="-0.39798">
        <ele>499.54</ele>
        <time>2021-08-20T04:17:00Z</time>
      </trkpt>
      <trkpt lat="43.11038" lon="-0.39801">
        <ele>500.5</ele>
        <time>2021-08-20T04:17:08Z</time>
      </trkpt>
      <trkpt lat="43.11019" lon="-0.39807">
        <ele>501.46</ele>
        <time>2021-08-20T04:17:16Z</time>
      </trkpt>
      <trkpt lat="43.10995" lon="-0.39818">
        <ele>503.39</ele>
        <time>2021-08-20T04:17:27Z</time>
      </trkpt>
      <trkpt lat="43.10979" lon="-0.39827">
        <ele>503.87</ele>
        <time>2021-08-20T04:17:34Z</time>
      </trkpt>
      <trkpt lat="43.10958" lon="-0.39836">
        <ele>504.83</ele>
        <time>2021-08-20T04:17:43Z</time>
      </trkpt>
      <trkpt lat="43.10934" lon="-0.39839">
        <ele>506.27</ele>
        <time>2021-08-20T04:17:53Z</time>
      </trkpt>
      <trkpt lat="43.10914" lon="-0.39844">
        <ele>508.19</ele>
        <time>2021-08-20T04:18:02Z</time>
      </trkpt>
      <trkpt lat="43.10894" lon="-0.39855">
        <ele>509.16</ele>
        <time>2021-08-20T04:18:10Z</time>
      </trkpt>
      <trkpt lat="43.10874" lon="-0.39864">
        <ele>510.12</ele>
        <time>2021-08-20T04:18:17Z</time>
      </trkpt>
      <trkpt lat="43.10859" lon="-0.3987">
        <ele>511.08</ele>
        <time>2021-08-20T04:18:23Z</time>
      </trkpt>
      <trkpt lat="43.10837" lon="-0.39881">
        <ele>512.52</ele>
        <time>2021-08-20T04:18:32Z</time>
      </trkpt>
      <trkpt lat="43.10819" lon="-0.39901">
        <ele>513.48</ele>
        <time>2021-08-20T04:18:41Z</time>
      </trkpt>
      <trkpt lat="43.10804" lon="-0.39927">
        <ele>514.92</ele>
        <time>2021-08-20T04:18:50Z</time>
      </trkpt>
      <trkpt lat="43.10789" lon="-0.39953">
        <ele>516.37</ele>
        <time>2021-08-20T04:18:59Z</time>
      </trkpt>
      <trkpt lat="43.1077" lon="-0.39978">
        <ele>517.81</ele>
        <time>2021-08-20T04:19:09Z</time>
      </trkpt>
      <trkpt lat="43.10752" lon="-0.39999">
        <ele>519.25</ele>
        <time>2021-08-20T04:19:18Z</time>
      </trkpt>
      <trkpt lat="43.10738" lon="-0.40027">
        <ele>520.69</ele>
        <time>2021-08-20T04:19:27Z</time>
      </trkpt>
      <trkpt lat="43.10729" lon="-0.40042">
        <ele>521.17</ele>
        <time>2021-08-20T04:19:32Z</time>
      </trkpt>
      <trkpt lat="43.10712" lon="-0.40061">
        <ele>522.13</ele>
        <time>2021-08-20T04:19:40Z</time>
      </trkpt>
      <trkpt lat="43.10689" lon="-0.40085">
        <ele>523.09</ele>
        <time>2021-08-20T04:19:50Z</time>
      </trkpt>
      <trkpt lat="43.10666" lon="-0.40115">
        <ele>524.06</ele>
        <time>2021-08-20T04:19:59Z</time>
      </trkpt>
      <trkpt lat="43.10635" lon="-0.40148">
        <ele>524.06</ele>
        <time>2021-08-20T04:20:09Z</time>
      </trkpt>
      <trkpt lat="43.10624" lon="-0.4016">
        <ele>524.06</ele>
        <time>2021-08-20T04:20:12Z</time>
      </trkpt>
      <trkpt lat="43.1062" lon="-0.40162">
        <ele>524.06</ele>
        <time>2021-08-20T04:20:13Z</time>
      </trkpt>
      <trkpt lat="43.10616" lon="-0.40165">
        <ele>524.06</ele>
        <time>2021-08-20T04:20:14Z</time>
      </trkpt>
      <trkpt lat="43.10611" lon="-0.40167">
        <ele>524.06</ele>
        <time>2021-08-20T04:20:15Z</time>
      </trkpt>
      <trkpt lat="43.10607" lon="-0.4017">
        <ele>524.06</ele>
        <time>2021-08-20T04:20:16Z</time>
      </trkpt>
      <trkpt lat="43.10602" lon="-0.40173">
        <ele>524.06</ele>
        <time>2021-08-20T04:20:17Z</time>
      </trkpt>
      <trkpt lat="43.10597" lon="-0.40175">
        <ele>524.06</ele>
        <time>2021-08-20T04:20:18Z</time>
      </trkpt>
      <trkpt lat="43.10592" lon="-0.40176">
        <ele>522.61</ele>
        <time>2021-08-20T04:20:19Z</time>
      </trkpt>
      <trkpt lat="43.10575" lon="-0.40179">
        <ele>521.65</ele>
        <time>2021-08-20T04:20:22Z</time>
      </trkpt>
      <trkpt lat="43.10535" lon="-0.4018">
        <ele>519.25</ele>
        <time>2021-08-20T04:20:28Z</time>
      </trkpt>
      <trkpt lat="43.10489" lon="-0.40192">
        <ele>516.37</ele>
        <time>2021-08-20T04:20:34Z</time>
      </trkpt>
      <trkpt lat="43.10431" lon="-0.402">
        <ele>515.4</ele>
        <time>2021-08-20T04:20:42Z</time>
      </trkpt>
      <trkpt lat="43.10414" lon="-0.40201">
        <ele>518.77</ele>
        <time>2021-08-20T04:20:46Z</time>
      </trkpt>
      <trkpt lat="43.1039" lon="-0.40206">
        <ele>520.21</ele>
        <time>2021-08-20T04:20:54Z</time>
      </trkpt>
      <trkpt lat="43.10374" lon="-0.40211">
        <ele>522.13</ele>
        <time>2021-08-20T04:21:02Z</time>
      </trkpt>
      <trkpt lat="43.1036" lon="-0.40215">
        <ele>523.09</ele>
        <time>2021-08-20T04:21:10Z</time>
      </trkpt>
      <trkpt lat="43.10343" lon="-0.4022">
        <ele>525.02</ele>
        <time>2021-08-20T04:21:20Z</time>
      </trkpt>
      <trkpt lat="43.10327" lon="-0.40222">
        <ele>525.98</ele>
        <time>2021-08-20T04:21:29Z</time>
      </trkpt>
      <trkpt lat="43.10313" lon="-0.40224">
        <ele>527.9</ele>
        <time>2021-08-20T04:21:37Z</time>
      </trkpt>
      <trkpt lat="43.10309" lon="-0.40226">
        <ele>528.86</ele>
        <time>2021-08-20T04:21:41Z</time>
      </trkpt>
      <trkpt lat="43.10308" lon="-0.40227">
        <ele>528.86</ele>
        <time>2021-08-20T04:21:42Z</time>
      </trkpt>
      <trkpt lat="43.10307" lon="-0.40228">
        <ele>528.86</ele>
        <time>2021-08-20T04:21:43Z</time>
      </trkpt>
      <trkpt lat="43.10306" lon="-0.40229">
        <ele>529.82</ele>
        <time>2021-08-20T04:21:44Z</time>
      </trkpt>
      <trkpt lat="43.10305" lon="-0.4023">
        <ele>529.82</ele>
        <time>2021-08-20T04:21:45Z</time>
      </trkpt>
      <trkpt lat="43.10304" lon="-0.40231">
        <ele>529.82</ele>
        <time>2021-08-20T04:21:46Z</time>
      </trkpt>
      <trkpt lat="43.10295" lon="-0.40242">
        <ele>531.75</ele>
        <time>2021-08-20T04:21:53Z</time>
      </trkpt>
      <trkpt lat="43.10294" lon="-0.40244">
        <ele>531.75</ele>
        <time>2021-08-20T04:21:54Z</time>
      </trkpt>
      <trkpt lat="43.10293" lon="-0.40247">
        <ele>531.75</ele>
        <time>2021-08-20T04:21:55Z</time>
      </trkpt>
      <trkpt lat="43.10293" lon="-0.4025">
        <ele>531.75</ele>
        <time>2021-08-20T04:21:56Z</time>
      </trkpt>
      <trkpt lat="43.10294" lon="-0.40253">
        <ele>531.75</ele>
        <time>2021-08-20T04:21:57Z</time>
      </trkpt>
      <trkpt lat="43.10295" lon="-0.40256">
        <ele>532.23</ele>
        <time>2021-08-20T04:21:58Z</time>
      </trkpt>
      <trkpt lat="43.10296" lon="-0.40259">
        <ele>532.23</ele>
        <time>2021-08-20T04:21:59Z</time>
      </trkpt>
      <trkpt lat="43.10297" lon="-0.40262">
        <ele>532.23</ele>
        <time>2021-08-20T04:22:00Z</time>
      </trkpt>
      <trkpt lat="43.10296" lon="-0.40285">
        <ele>532.71</ele>
        <time>2021-08-20T04:22:07Z</time>
      </trkpt>
      <trkpt lat="43.10288" lon="-0.40311">
        <ele>533.19</ele>
        <time>2021-08-20T04:22:15Z</time>
      </trkpt>
      <trkpt lat="43.10276" lon="-0.40338">
        <ele>534.15</ele>
        <time>2021-08-20T04:22:22Z</time>
      </trkpt>
      <trkpt lat="43.10256" lon="-0.40358">
        <ele>534.63</ele>
        <time>2021-08-20T04:22:30Z</time>
      </trkpt>
      <trkpt lat="43.10237" lon="-0.40362">
        <ele>536.55</ele>
        <time>2021-08-20T04:22:37Z</time>
      </trkpt>
      <trkpt lat="43.10235" lon="-0.40362">
        <ele>536.55</ele>
        <time>2021-08-20T04:22:38Z</time>
      </trkpt>
      <trkpt lat="43.10234" lon="-0.40361">
        <ele>537.03</ele>
        <time>2021-08-20T04:22:39Z</time>
      </trkpt>
      <trkpt lat="43.10233" lon="-0.40359">
        <ele>537.03</ele>
        <time>2021-08-20T04:22:40Z</time>
      </trkpt>
      <trkpt lat="43.1023" lon="-0.40351">
        <ele>537.03</ele>
        <time>2021-08-20T04:22:46Z</time>
      </trkpt>
      <trkpt lat="43.10231" lon="-0.40351">
        <ele>537.03</ele>
        <time>2021-08-20T04:22:57Z</time>
      </trkpt>
      <trkpt lat="43.10232" lon="-0.40352">
        <ele>537.51</ele>
        <time>2021-08-20T04:23:16Z</time>
      </trkpt>
      <trkpt lat="43.10232" lon="-0.40352">
        <ele>537.51</ele>
        <time>2021-08-20T04:23:36Z</time>
      </trkpt>
      <trkpt lat="43.10231" lon="-0.40352">
        <ele>537.51</ele>
        <time>2021-08-20T04:23:58Z</time>
      </trkpt>
      <trkpt lat="43.1023" lon="-0.40351">
        <ele>537.51</ele>
        <time>2021-08-20T04:24:11Z</time>
      </trkpt>
      <trkpt lat="43.10231" lon="-0.40351">
        <ele>537.51</ele>
        <time>2021-08-20T04:24:12Z</time>
      </trkpt>
      <trkpt lat="43.10233" lon="-0.40351">
        <ele>537.51</ele>
        <time>2021-08-20T04:24:13Z</time>
      </trkpt>
      <trkpt lat="43.10233" lon="-0.40353">
        <ele>537.51</ele>
        <time>2021-08-20T04:24:14Z</time>
      </trkpt>
      <trkpt lat="43.10234" lon="-0.40356">
        <ele>537.51</ele>
        <time>2021-08-20T04:24:15Z</time>
      </trkpt>
      <trkpt lat="43.10233" lon="-0.40359">
        <ele>537.51</ele>
        <time>2021-08-20T04:24:16Z</time>
      </trkpt>
      <trkpt lat="43.10232" lon="-0.4036">
        <ele>537.51</ele>
        <time>2021-08-20T04:24:18Z</time>
      </trkpt>
      <trkpt lat="43.10231" lon="-0.40361">
        <ele>537.51</ele>
        <time>2021-08-20T04:24:19Z</time>
      </trkpt>
      <trkpt lat="43.10224" lon="-0.40364">
        <ele>538.48</ele>
        <time>2021-08-20T04:24:25Z</time>
      </trkpt>
      <trkpt lat="43.10218" lon="-0.40368">
        <ele>539.44</ele>
        <time>2021-08-20T04:24:30Z</time>
      </trkpt>
      <trkpt lat="43.10213" lon="-0.40376">
        <ele>539.44</ele>
        <time>2021-08-20T04:24:36Z</time>
      </trkpt>
      <trkpt lat="43.10203" lon="-0.40395">
        <ele>539.92</ele>
        <time>2021-08-20T04:24:44Z</time>
      </trkpt>
      <trkpt lat="43.10202" lon="-0.40397">
        <ele>539.92</ele>
        <time>2021-08-20T04:24:45Z</time>
      </trkpt>
      <trkpt lat="43.10201" lon="-0.40399">
        <ele>539.92</ele>
        <time>2021-08-20T04:24:46Z</time>
      </trkpt>
      <trkpt lat="43.102" lon="-0.40402">
        <ele>539.92</ele>
        <time>2021-08-20T04:24:47Z</time>
      </trkpt>
      <trkpt lat="43.10189" lon="-0.40429">
        <ele>539.92</ele>
        <time>2021-08-20T04:24:56Z</time>
      </trkpt>
      <trkpt lat="43.10184" lon="-0.40452">
        <ele>539.92</ele>
        <time>2021-08-20T04:25:04Z</time>
      </trkpt>
      <trkpt lat="43.10179" lon="-0.40471">
        <ele>540.4</ele>
        <time>2021-08-20T04:25:10Z</time>
      </trkpt>
      <trkpt lat="43.10178" lon="-0.40471">
        <ele>540.4</ele>
        <time>2021-08-20T04:25:11Z</time>
      </trkpt>
      <trkpt lat="43.10177" lon="-0.4047">
        <ele>540.4</ele>
        <time>2021-08-20T04:25:12Z</time>
      </trkpt>
      <trkpt lat="43.10178" lon="-0.40468">
        <ele>540.4</ele>
        <time>2021-08-20T04:25:13Z</time>
      </trkpt>
      <trkpt lat="43.10177" lon="-0.40466">
        <ele>540.4</ele>
        <time>2021-08-20T04:25:14Z</time>
      </trkpt>
      <trkpt lat="43.10175" lon="-0.40465">
        <ele>540.4</ele>
        <time>2021-08-20T04:25:15Z</time>
      </trkpt>
      <trkpt lat="43.10173" lon="-0.40467">
        <ele>540.4</ele>
        <time>2021-08-20T04:25:16Z</time>
      </trkpt>
      <trkpt lat="43.10171" lon="-0.40469">
        <ele>540.4</ele>
        <time>2021-08-20T04:25:17Z</time>
      </trkpt>
      <trkpt lat="43.10168" lon="-0.40472">
        <ele>538.48</ele>
        <time>2021-08-20T04:25:18Z</time>
      </trkpt>
      <trkpt lat="43.10157" lon="-0.4048">
        <ele>536.55</ele>
        <time>2021-08-20T04:25:21Z</time>
      </trkpt>
      <trkpt lat="43.10136" lon="-0.40494">
        <ele>533.19</ele>
        <time>2021-08-20T04:25:26Z</time>
      </trkpt>
      <trkpt lat="43.10128" lon="-0.40501">
        <ele>532.71</ele>
        <time>2021-08-20T04:25:28Z</time>
      </trkpt>
      <trkpt lat="43.10125" lon="-0.40506">
        <ele>531.75</ele>
        <time>2021-08-20T04:25:29Z</time>
      </trkpt>
      <trkpt lat="43.10124" lon="-0.40512">
        <ele>531.27</ele>
        <time>2021-08-20T04:25:30Z</time>
      </trkpt>
      <trkpt lat="43.10121" lon="-0.40547">
        <ele>527.9</ele>
        <time>2021-08-20T04:25:35Z</time>
      </trkpt>
      <trkpt lat="43.10124" lon="-0.4058">
        <ele>525.98</ele>
        <time>2021-08-20T04:25:39Z</time>
      </trkpt>
      <trkpt lat="43.10125" lon="-0.40595">
        <ele>525.98</ele>
        <time>2021-08-20T04:25:42Z</time>
      </trkpt>
      <trkpt lat="43.10129" lon="-0.40619">
        <ele>525.98</ele>
        <time>2021-08-20T04:25:49Z</time>
      </trkpt>
      <trkpt lat="43.1014" lon="-0.40635">
        <ele>525.5</ele>
        <time>2021-08-20T04:25:53Z</time>
      </trkpt>
      <trkpt lat="43.10142" lon="-0.40641">
        <ele>525.02</ele>
        <time>2021-08-20T04:25:54Z</time>
      </trkpt>
      <trkpt lat="43.10145" lon="-0.40647">
        <ele>524.06</ele>
        <time>2021-08-20T04:25:55Z</time>
      </trkpt>
      <trkpt lat="43.10154" lon="-0.40671">
        <ele>519.73</ele>
        <time>2021-08-20T04:25:58Z</time>
      </trkpt>
      <trkpt lat="43.10165" lon="-0.40703">
        <ele>518.29</ele>
        <time>2021-08-20T04:26:01Z</time>
      </trkpt>
      <trkpt lat="43.10183" lon="-0.4076">
        <ele>517.81</ele>
        <time>2021-08-20T04:26:07Z</time>
      </trkpt>
      <trkpt lat="43.10194" lon="-0.40799">
        <ele>518.29</ele>
        <time>2021-08-20T04:26:12Z</time>
      </trkpt>
      <trkpt lat="43.10198" lon="-0.40826">
        <ele>515.4</ele>
        <time>2021-08-20T04:26:15Z</time>
      </trkpt>
      <trkpt lat="43.102" lon="-0.40836">
        <ele>515.4</ele>
        <time>2021-08-20T04:26:16Z</time>
      </trkpt>
      <trkpt lat="43.10203" lon="-0.40853">
        <ele>514.44</ele>
        <time>2021-08-20T04:26:18Z</time>
      </trkpt>
      <trkpt lat="43.10207" lon="-0.4086">
        <ele>513.96</ele>
        <time>2021-08-20T04:26:19Z</time>
      </trkpt>
      <trkpt lat="43.10209" lon="-0.40867">
        <ele>513</ele>
        <time>2021-08-20T04:26:20Z</time>
      </trkpt>
      <trkpt lat="43.10212" lon="-0.40874">
        <ele>513</ele>
        <time>2021-08-20T04:26:21Z</time>
      </trkpt>
      <trkpt lat="43.10215" lon="-0.40881">
        <ele>512.04</ele>
        <time>2021-08-20T04:26:22Z</time>
      </trkpt>
      <trkpt lat="43.10218" lon="-0.40888">
        <ele>510.6</ele>
        <time>2021-08-20T04:26:23Z</time>
      </trkpt>
      <trkpt lat="43.10225" lon="-0.40901">
        <ele>508.19</ele>
        <time>2021-08-20T04:26:25Z</time>
      </trkpt>
      <trkpt lat="43.10229" lon="-0.40906">
        <ele>507.23</ele>
        <time>2021-08-20T04:26:26Z</time>
      </trkpt>
      <trkpt lat="43.10238" lon="-0.40916">
        <ele>504.83</ele>
        <time>2021-08-20T04:26:28Z</time>
      </trkpt>
      <trkpt lat="43.10243" lon="-0.40924">
        <ele>502.91</ele>
        <time>2021-08-20T04:26:29Z</time>
      </trkpt>
      <trkpt lat="43.10246" lon="-0.40931">
        <ele>501.95</ele>
        <time>2021-08-20T04:26:30Z</time>
      </trkpt>
      <trkpt lat="43.10248" lon="-0.40939">
        <ele>501.46</ele>
        <time>2021-08-20T04:26:31Z</time>
      </trkpt>
      <trkpt lat="43.1025" lon="-0.4095">
        <ele>501.46</ele>
        <time>2021-08-20T04:26:32Z</time>
      </trkpt>
      <trkpt lat="43.10249" lon="-0.40961">
        <ele>501.46</ele>
        <time>2021-08-20T04:26:33Z</time>
      </trkpt>
      <trkpt lat="43.1025" lon="-0.4097">
        <ele>501.46</ele>
        <time>2021-08-20T04:26:34Z</time>
      </trkpt>
      <trkpt lat="43.10252" lon="-0.40977">
        <ele>501.46</ele>
        <time>2021-08-20T04:26:35Z</time>
      </trkpt>
      <trkpt lat="43.1025" lon="-0.40998">
        <ele>499.54</ele>
        <time>2021-08-20T04:26:37Z</time>
      </trkpt>
      <trkpt lat="43.1025" lon="-0.41007">
        <ele>498.1</ele>
        <time>2021-08-20T04:26:38Z</time>
      </trkpt>
      <trkpt lat="43.1025" lon="-0.41016">
        <ele>497.14</ele>
        <time>2021-08-20T04:26:39Z</time>
      </trkpt>
      <trkpt lat="43.10251" lon="-0.41025">
        <ele>496.66</ele>
        <time>2021-08-20T04:26:40Z</time>
      </trkpt>
      <trkpt lat="43.10254" lon="-0.41034">
        <ele>496.66</ele>
        <time>2021-08-20T04:26:41Z</time>
      </trkpt>
      <trkpt lat="43.10256" lon="-0.41041">
        <ele>496.66</ele>
        <time>2021-08-20T04:26:42Z</time>
      </trkpt>
      <trkpt lat="43.10257" lon="-0.41048">
        <ele>496.66</ele>
        <time>2021-08-20T04:26:43Z</time>
      </trkpt>
      <trkpt lat="43.10258" lon="-0.41054">
        <ele>498.1</ele>
        <time>2021-08-20T04:26:44Z</time>
      </trkpt>
      <trkpt lat="43.10258" lon="-0.41059">
        <ele>498.1</ele>
        <time>2021-08-20T04:26:45Z</time>
      </trkpt>
      <trkpt lat="43.10258" lon="-0.41063">
        <ele>498.1</ele>
        <time>2021-08-20T04:26:46Z</time>
      </trkpt>
      <trkpt lat="43.10259" lon="-0.41067">
        <ele>498.58</ele>
        <time>2021-08-20T04:26:47Z</time>
      </trkpt>
      <trkpt lat="43.10259" lon="-0.41071">
        <ele>498.58</ele>
        <time>2021-08-20T04:26:48Z</time>
      </trkpt>
      <trkpt lat="43.10258" lon="-0.41073">
        <ele>498.58</ele>
        <time>2021-08-20T04:26:49Z</time>
      </trkpt>
      <trkpt lat="43.10257" lon="-0.41075">
        <ele>498.58</ele>
        <time>2021-08-20T04:26:50Z</time>
      </trkpt>
      <trkpt lat="43.10256" lon="-0.41077">
        <ele>498.58</ele>
        <time>2021-08-20T04:26:51Z</time>
      </trkpt>
      <trkpt lat="43.10256" lon="-0.4108">
        <ele>498.58</ele>
        <time>2021-08-20T04:26:52Z</time>
      </trkpt>
      <trkpt lat="43.10257" lon="-0.41084">
        <ele>498.58</ele>
        <time>2021-08-20T04:26:53Z</time>
      </trkpt>
      <trkpt lat="43.10259" lon="-0.41086">
        <ele>498.58</ele>
        <time>2021-08-20T04:26:54Z</time>
      </trkpt>
      <trkpt lat="43.10262" lon="-0.41088">
        <ele>498.58</ele>
        <time>2021-08-20T04:26:55Z</time>
      </trkpt>
      <trkpt lat="43.10265" lon="-0.41089">
        <ele>497.14</ele>
        <time>2021-08-20T04:26:56Z</time>
      </trkpt>
      <trkpt lat="43.10266" lon="-0.4109">
        <ele>496.66</ele>
        <time>2021-08-20T04:26:57Z</time>
      </trkpt>
      <trkpt lat="43.10268" lon="-0.4109">
        <ele>496.66</ele>
        <time>2021-08-20T04:26:58Z</time>
      </trkpt>
      <trkpt lat="43.10269" lon="-0.41092">
        <ele>496.66</ele>
        <time>2021-08-20T04:27:03Z</time>
      </trkpt>
      <trkpt lat="43.10269" lon="-0.41093">
        <ele>496.66</ele>
        <time>2021-08-20T04:27:04Z</time>
      </trkpt>
      <trkpt lat="43.10269" lon="-0.41095">
        <ele>496.18</ele>
        <time>2021-08-20T04:27:05Z</time>
      </trkpt>
      <trkpt lat="43.10269" lon="-0.41097">
        <ele>496.18</ele>
        <time>2021-08-20T04:27:07Z</time>
      </trkpt>
      <trkpt lat="43.10269" lon="-0.41099">
        <ele>495.7</ele>
        <time>2021-08-20T04:27:08Z</time>
      </trkpt>
      <trkpt lat="43.10269" lon="-0.41114">
        <ele>493.77</ele>
        <time>2021-08-20T04:27:15Z</time>
      </trkpt>
      <trkpt lat="43.10265" lon="-0.41126">
        <ele>490.89</ele>
        <time>2021-08-20T04:27:20Z</time>
      </trkpt>
      <trkpt lat="43.10265" lon="-0.41128">
        <ele>490.41</ele>
        <time>2021-08-20T04:27:21Z</time>
      </trkpt>
      <trkpt lat="43.10265" lon="-0.41129">
        <ele>490.41</ele>
        <time>2021-08-20T04:27:22Z</time>
      </trkpt>
      <trkpt lat="43.10267" lon="-0.41131">
        <ele>489.93</ele>
        <time>2021-08-20T04:27:24Z</time>
      </trkpt>
      <trkpt lat="43.10268" lon="-0.41132">
        <ele>489.45</ele>
        <time>2021-08-20T04:27:25Z</time>
      </trkpt>
      <trkpt lat="43.1027" lon="-0.41133">
        <ele>488.49</ele>
        <time>2021-08-20T04:27:26Z</time>
      </trkpt>
      <trkpt lat="43.10271" lon="-0.41134">
        <ele>488.49</ele>
        <time>2021-08-20T04:27:27Z</time>
      </trkpt>
      <trkpt lat="43.10272" lon="-0.41136">
        <ele>488.49</ele>
        <time>2021-08-20T04:27:28Z</time>
      </trkpt>
      <trkpt lat="43.10275" lon="-0.41142">
        <ele>487.53</ele>
        <time>2021-08-20T04:27:35Z</time>
      </trkpt>
      <trkpt lat="43.10276" lon="-0.41146">
        <ele>486.56</ele>
        <time>2021-08-20T04:27:45Z</time>
      </trkpt>
      <trkpt lat="43.1028" lon="-0.41147">
        <ele>486.08</ele>
        <time>2021-08-20T04:27:51Z</time>
      </trkpt>
      <trkpt lat="43.10284" lon="-0.41151">
        <ele>484.64</ele>
        <time>2021-08-20T04:27:59Z</time>
      </trkpt>
      <trkpt lat="43.10288" lon="-0.41156">
        <ele>482.72</ele>
        <time>2021-08-20T04:28:06Z</time>
      </trkpt>
      <trkpt lat="43.10292" lon="-0.41159">
        <ele>481.76</ele>
        <time>2021-08-20T04:28:13Z</time>
      </trkpt>
      <trkpt lat="43.10295" lon="-0.41157">
        <ele>481.76</ele>
        <time>2021-08-20T04:28:20Z</time>
      </trkpt>
      <trkpt lat="43.10296" lon="-0.41158">
        <ele>481.76</ele>
        <time>2021-08-20T04:28:29Z</time>
      </trkpt>
      <trkpt lat="43.10298" lon="-0.41162">
        <ele>480.8</ele>
        <time>2021-08-20T04:28:37Z</time>
      </trkpt>
      <trkpt lat="43.10301" lon="-0.41163">
        <ele>481.28</ele>
        <time>2021-08-20T04:28:44Z</time>
      </trkpt>
      <trkpt lat="43.10305" lon="-0.41166">
        <ele>481.28</ele>
        <time>2021-08-20T04:28:51Z</time>
      </trkpt>
      <trkpt lat="43.10309" lon="-0.41166">
        <ele>481.28</ele>
        <time>2021-08-20T04:28:58Z</time>
      </trkpt>
      <trkpt lat="43.10312" lon="-0.41164">
        <ele>480.32</ele>
        <time>2021-08-20T04:29:03Z</time>
      </trkpt>
      <trkpt lat="43.10313" lon="-0.41163">
        <ele>479.84</ele>
        <time>2021-08-20T04:29:04Z</time>
      </trkpt>
      <trkpt lat="43.10321" lon="-0.41162">
        <ele>478.87</ele>
        <time>2021-08-20T04:29:08Z</time>
      </trkpt>
      <trkpt lat="43.10322" lon="-0.4116">
        <ele>478.87</ele>
        <time>2021-08-20T04:29:09Z</time>
      </trkpt>
      <trkpt lat="43.10336" lon="-0.41152">
        <ele>478.87</ele>
        <time>2021-08-20T04:29:16Z</time>
      </trkpt>
      <trkpt lat="43.10345" lon="-0.41148">
        <ele>478.87</ele>
        <time>2021-08-20T04:29:23Z</time>
      </trkpt>
      <trkpt lat="43.10359" lon="-0.41144">
        <ele>478.87</ele>
        <time>2021-08-20T04:29:29Z</time>
      </trkpt>
      <trkpt lat="43.10381" lon="-0.41132">
        <ele>480.32</ele>
        <time>2021-08-20T04:29:37Z</time>
      </trkpt>
      <trkpt lat="43.10401" lon="-0.41122">
        <ele>480.32</ele>
        <time>2021-08-20T04:29:44Z</time>
      </trkpt>
      <trkpt lat="43.10416" lon="-0.41116">
        <ele>480.32</ele>
        <time>2021-08-20T04:29:51Z</time>
      </trkpt>
      <trkpt lat="43.10428" lon="-0.41109">
        <ele>480.8</ele>
        <time>2021-08-20T04:29:57Z</time>
      </trkpt>
      <trkpt lat="43.10442" lon="-0.41104">
        <ele>481.28</ele>
        <time>2021-08-20T04:30:03Z</time>
      </trkpt>
      <trkpt lat="43.10454" lon="-0.41098">
        <ele>479.84</ele>
        <time>2021-08-20T04:30:09Z</time>
      </trkpt>
      <trkpt lat="43.1046" lon="-0.41094">
        <ele>478.87</ele>
        <time>2021-08-20T04:30:11Z</time>
      </trkpt>
      <trkpt lat="43.10463" lon="-0.41091">
        <ele>478.39</ele>
        <time>2021-08-20T04:30:12Z</time>
      </trkpt>
      <trkpt lat="43.10478" lon="-0.41079">
        <ele>478.39</ele>
        <time>2021-08-20T04:30:19Z</time>
      </trkpt>
      <trkpt lat="43.10482" lon="-0.41079">
        <ele>477.91</ele>
        <time>2021-08-20T04:30:26Z</time>
      </trkpt>
      <trkpt lat="43.10486" lon="-0.41075">
        <ele>477.91</ele>
        <time>2021-08-20T04:30:39Z</time>
      </trkpt>
      <trkpt lat="43.10487" lon="-0.41076">
        <ele>477.43</ele>
        <time>2021-08-20T04:30:41Z</time>
      </trkpt>
      <trkpt lat="43.1049" lon="-0.41078">
        <ele>476.95</ele>
        <time>2021-08-20T04:30:44Z</time>
      </trkpt>
      <trkpt lat="43.10491" lon="-0.41078">
        <ele>476.95</ele>
        <time>2021-08-20T04:30:45Z</time>
      </trkpt>
      <trkpt lat="43.10492" lon="-0.41077">
        <ele>476.95</ele>
        <time>2021-08-20T04:30:46Z</time>
      </trkpt>
      <trkpt lat="43.10493" lon="-0.41078">
        <ele>476.95</ele>
        <time>2021-08-20T04:30:47Z</time>
      </trkpt>
      <trkpt lat="43.10495" lon="-0.41079">
        <ele>476.47</ele>
        <time>2021-08-20T04:30:48Z</time>
      </trkpt>
      <trkpt lat="43.10497" lon="-0.41081">
        <ele>476.47</ele>
        <time>2021-08-20T04:30:49Z</time>
      </trkpt>
      <trkpt lat="43.1051" lon="-0.41091">
        <ele>474.07</ele>
        <time>2021-08-20T04:30:54Z</time>
      </trkpt>
      <trkpt lat="43.10528" lon="-0.41101">
        <ele>474.07</ele>
        <time>2021-08-20T04:31:00Z</time>
      </trkpt>
      <trkpt lat="43.10532" lon="-0.41103">
        <ele>474.07</ele>
        <time>2021-08-20T04:31:02Z</time>
      </trkpt>
      <trkpt lat="43.10534" lon="-0.41105">
        <ele>473.11</ele>
        <time>2021-08-20T04:31:03Z</time>
      </trkpt>
      <trkpt lat="43.10539" lon="-0.41114">
        <ele>471.66</ele>
        <time>2021-08-20T04:31:06Z</time>
      </trkpt>
      <trkpt lat="43.10549" lon="-0.41128">
        <ele>470.22</ele>
        <time>2021-08-20T04:31:11Z</time>
      </trkpt>
      <trkpt lat="43.10564" lon="-0.41144">
        <ele>469.26</ele>
        <time>2021-08-20T04:31:16Z</time>
      </trkpt>
      <trkpt lat="43.10567" lon="-0.41145">
        <ele>469.26</ele>
        <time>2021-08-20T04:31:17Z</time>
      </trkpt>
      <trkpt lat="43.10569" lon="-0.41146">
        <ele>469.26</ele>
        <time>2021-08-20T04:31:18Z</time>
      </trkpt>
      <trkpt lat="43.10571" lon="-0.41146">
        <ele>468.78</ele>
        <time>2021-08-20T04:31:19Z</time>
      </trkpt>
      <trkpt lat="43.10574" lon="-0.41147">
        <ele>468.3</ele>
        <time>2021-08-20T04:31:20Z</time>
      </trkpt>
      <trkpt lat="43.10582" lon="-0.4115">
        <ele>467.34</ele>
        <time>2021-08-20T04:31:22Z</time>
      </trkpt>
      <trkpt lat="43.10595" lon="-0.41169">
        <ele>465.42</ele>
        <time>2021-08-20T04:31:27Z</time>
      </trkpt>
      <trkpt lat="43.106" lon="-0.41178">
        <ele>464.93</ele>
        <time>2021-08-20T04:31:29Z</time>
      </trkpt>
      <trkpt lat="43.10603" lon="-0.41182">
        <ele>463.97</ele>
        <time>2021-08-20T04:31:30Z</time>
      </trkpt>
      <trkpt lat="43.10607" lon="-0.41185">
        <ele>463.97</ele>
        <time>2021-08-20T04:31:31Z</time>
      </trkpt>
      <trkpt lat="43.1062" lon="-0.41203">
        <ele>463.01</ele>
        <time>2021-08-20T04:31:36Z</time>
      </trkpt>
      <trkpt lat="43.10631" lon="-0.41209">
        <ele>462.53</ele>
        <time>2021-08-20T04:31:40Z</time>
      </trkpt>
      <trkpt lat="43.10634" lon="-0.4121">
        <ele>462.05</ele>
        <time>2021-08-20T04:31:45Z</time>
      </trkpt>
      <trkpt lat="43.10636" lon="-0.41208">
        <ele>462.05</ele>
        <time>2021-08-20T04:31:52Z</time>
      </trkpt>
      <trkpt lat="43.10638" lon="-0.41204">
        <ele>461.57</ele>
        <time>2021-08-20T04:32:01Z</time>
      </trkpt>
      <trkpt lat="43.10641" lon="-0.41203">
        <ele>461.57</ele>
        <time>2021-08-20T04:32:10Z</time>
      </trkpt>
      <trkpt lat="43.10643" lon="-0.41202">
        <ele>461.57</ele>
        <time>2021-08-20T04:32:12Z</time>
      </trkpt>
      <trkpt lat="43.10647" lon="-0.41199">
        <ele>461.57</ele>
        <time>2021-08-20T04:32:15Z</time>
      </trkpt>
      <trkpt lat="43.1066" lon="-0.41193">
        <ele>461.57</ele>
        <time>2021-08-20T04:32:22Z</time>
      </trkpt>
      <trkpt lat="43.10674" lon="-0.41183">
        <ele>463.01</ele>
        <time>2021-08-20T04:32:31Z</time>
      </trkpt>
      <trkpt lat="43.10689" lon="-0.41175">
        <ele>463.97</ele>
        <time>2021-08-20T04:32:38Z</time>
      </trkpt>
      <trkpt lat="43.10692" lon="-0.41171">
        <ele>464.45</ele>
        <time>2021-08-20T04:32:41Z</time>
      </trkpt>
      <trkpt lat="43.10695" lon="-0.4117">
        <ele>464.45</ele>
        <time>2021-08-20T04:32:43Z</time>
      </trkpt>
      <trkpt lat="43.10697" lon="-0.41169">
        <ele>464.45</ele>
        <time>2021-08-20T04:32:44Z</time>
      </trkpt>
      <trkpt lat="43.10699" lon="-0.41167">
        <ele>464.45</ele>
        <time>2021-08-20T04:32:45Z</time>
      </trkpt>
      <trkpt lat="43.10702" lon="-0.41165">
        <ele>464.45</ele>
        <time>2021-08-20T04:32:46Z</time>
      </trkpt>
      <trkpt lat="43.10705" lon="-0.41162">
        <ele>462.53</ele>
        <time>2021-08-20T04:32:47Z</time>
      </trkpt>
      <trkpt lat="43.10708" lon="-0.41159">
        <ele>462.53</ele>
        <time>2021-08-20T04:32:48Z</time>
      </trkpt>
      <trkpt lat="43.10716" lon="-0.41158">
        <ele>462.05</ele>
        <time>2021-08-20T04:32:50Z</time>
      </trkpt>
      <trkpt lat="43.1072" lon="-0.41159">
        <ele>462.05</ele>
        <time>2021-08-20T04:32:51Z</time>
      </trkpt>
      <trkpt lat="43.10724" lon="-0.4116">
        <ele>461.57</ele>
        <time>2021-08-20T04:32:52Z</time>
      </trkpt>
      <trkpt lat="43.10727" lon="-0.41161">
        <ele>461.57</ele>
        <time>2021-08-20T04:32:53Z</time>
      </trkpt>
      <trkpt lat="43.10729" lon="-0.41163">
        <ele>463.01</ele>
        <time>2021-08-20T04:32:54Z</time>
      </trkpt>
      <trkpt lat="43.10731" lon="-0.41164">
        <ele>463.01</ele>
        <time>2021-08-20T04:32:55Z</time>
      </trkpt>
      <trkpt lat="43.10732" lon="-0.41165">
        <ele>463.49</ele>
        <time>2021-08-20T04:32:56Z</time>
      </trkpt>
      <trkpt lat="43.10733" lon="-0.41166">
        <ele>463.49</ele>
        <time>2021-08-20T04:32:57Z</time>
      </trkpt>
      <trkpt lat="43.10734" lon="-0.41167">
        <ele>463.97</ele>
        <time>2021-08-20T04:32:58Z</time>
      </trkpt>
      <trkpt lat="43.10735" lon="-0.41167">
        <ele>463.97</ele>
        <time>2021-08-20T04:32:59Z</time>
      </trkpt>
      <trkpt lat="43.10736" lon="-0.41168">
        <ele>463.97</ele>
        <time>2021-08-20T04:33:00Z</time>
      </trkpt>
      <trkpt lat="43.10751" lon="-0.41169">
        <ele>463.97</ele>
        <time>2021-08-20T04:33:06Z</time>
      </trkpt>
      <trkpt lat="43.1076" lon="-0.41168">
        <ele>463.01</ele>
        <time>2021-08-20T04:33:08Z</time>
      </trkpt>
      <trkpt lat="43.10764" lon="-0.41164">
        <ele>463.01</ele>
        <time>2021-08-20T04:33:09Z</time>
      </trkpt>
      <trkpt lat="43.10767" lon="-0.4116">
        <ele>462.05</ele>
        <time>2021-08-20T04:33:10Z</time>
      </trkpt>
      <trkpt lat="43.10774" lon="-0.41151">
        <ele>461.57</ele>
        <time>2021-08-20T04:33:12Z</time>
      </trkpt>
      <trkpt lat="43.10778" lon="-0.41148">
        <ele>460.61</ele>
        <time>2021-08-20T04:33:13Z</time>
      </trkpt>
      <trkpt lat="43.10781" lon="-0.41147">
        <ele>460.13</ele>
        <time>2021-08-20T04:33:14Z</time>
      </trkpt>
      <trkpt lat="43.10783" lon="-0.41146">
        <ele>460.13</ele>
        <time>2021-08-20T04:33:15Z</time>
      </trkpt>
      <trkpt lat="43.10785" lon="-0.41145">
        <ele>460.13</ele>
        <time>2021-08-20T04:33:16Z</time>
      </trkpt>
      <trkpt lat="43.10786" lon="-0.41145">
        <ele>460.13</ele>
        <time>2021-08-20T04:33:21Z</time>
      </trkpt>
      <trkpt lat="43.10791" lon="-0.41145">
        <ele>461.57</ele>
        <time>2021-08-20T04:33:28Z</time>
      </trkpt>
      <trkpt lat="43.10794" lon="-0.41143">
        <ele>462.05</ele>
        <time>2021-08-20T04:33:37Z</time>
      </trkpt>
      <trkpt lat="43.10797" lon="-0.41142">
        <ele>462.05</ele>
        <time>2021-08-20T04:33:44Z</time>
      </trkpt>
      <trkpt lat="43.10796" lon="-0.41144">
        <ele>462.53</ele>
        <time>2021-08-20T04:33:54Z</time>
      </trkpt>
      <trkpt lat="43.10797" lon="-0.41143">
        <ele>462.53</ele>
        <time>2021-08-20T04:34:03Z</time>
      </trkpt>
      <trkpt lat="43.10798" lon="-0.41143">
        <ele>463.01</ele>
        <time>2021-08-20T04:34:13Z</time>
      </trkpt>
      <trkpt lat="43.10805" lon="-0.4114">
        <ele>463.97</ele>
        <time>2021-08-20T04:34:21Z</time>
      </trkpt>
      <trkpt lat="43.10813" lon="-0.41134">
        <ele>465.42</ele>
        <time>2021-08-20T04:34:29Z</time>
      </trkpt>
      <trkpt lat="43.10816" lon="-0.41132">
        <ele>465.42</ele>
        <time>2021-08-20T04:34:32Z</time>
      </trkpt>
      <trkpt lat="43.10822" lon="-0.41128">
        <ele>466.38</ele>
        <time>2021-08-20T04:34:38Z</time>
      </trkpt>
      <trkpt lat="43.10823" lon="-0.41128">
        <ele>466.38</ele>
        <time>2021-08-20T04:34:39Z</time>
      </trkpt>
      <trkpt lat="43.10828" lon="-0.41123">
        <ele>466.86</ele>
        <time>2021-08-20T04:34:44Z</time>
      </trkpt>
      <trkpt lat="43.10832" lon="-0.4112">
        <ele>468.3</ele>
        <time>2021-08-20T04:34:51Z</time>
      </trkpt>
      <trkpt lat="43.1084" lon="-0.41118">
        <ele>468.78</ele>
        <time>2021-08-20T04:34:59Z</time>
      </trkpt>
      <trkpt lat="43.10843" lon="-0.41117">
        <ele>469.74</ele>
        <time>2021-08-20T04:35:05Z</time>
      </trkpt>
      <trkpt lat="43.10845" lon="-0.41115">
        <ele>469.74</ele>
        <time>2021-08-20T04:35:18Z</time>
      </trkpt>
      <trkpt lat="43.10851" lon="-0.41112">
        <ele>471.18</ele>
        <time>2021-08-20T04:35:27Z</time>
      </trkpt>
      <trkpt lat="43.10858" lon="-0.41107">
        <ele>472.63</ele>
        <time>2021-08-20T04:35:36Z</time>
      </trkpt>
      <trkpt lat="43.10865" lon="-0.41106">
        <ele>474.07</ele>
        <time>2021-08-20T04:35:45Z</time>
      </trkpt>
      <trkpt lat="43.10866" lon="-0.41105">
        <ele>474.07</ele>
        <time>2021-08-20T04:35:46Z</time>
      </trkpt>
      <trkpt lat="43.10871" lon="-0.41099">
        <ele>475.03</ele>
        <time>2021-08-20T04:35:53Z</time>
      </trkpt>
      <trkpt lat="43.10879" lon="-0.41094">
        <ele>475.99</ele>
        <time>2021-08-20T04:36:01Z</time>
      </trkpt>
      <trkpt lat="43.10885" lon="-0.41087">
        <ele>476.95</ele>
        <time>2021-08-20T04:36:11Z</time>
      </trkpt>
      <trkpt lat="43.10888" lon="-0.41085">
        <ele>477.91</ele>
        <time>2021-08-20T04:36:19Z</time>
      </trkpt>
      <trkpt lat="43.10891" lon="-0.41083">
        <ele>477.91</ele>
        <time>2021-08-20T04:36:22Z</time>
      </trkpt>
      <trkpt lat="43.10892" lon="-0.41082">
        <ele>477.91</ele>
        <time>2021-08-20T04:36:23Z</time>
      </trkpt>
      <trkpt lat="43.10902" lon="-0.41076">
        <ele>477.91</ele>
        <time>2021-08-20T04:36:29Z</time>
      </trkpt>
      <trkpt lat="43.10905" lon="-0.41073">
        <ele>477.91</ele>
        <time>2021-08-20T04:36:31Z</time>
      </trkpt>
      <trkpt lat="43.10907" lon="-0.41072">
        <ele>477.91</ele>
        <time>2021-08-20T04:36:32Z</time>
      </trkpt>
      <trkpt lat="43.10909" lon="-0.41071">
        <ele>477.91</ele>
        <time>2021-08-20T04:36:33Z</time>
      </trkpt>
      <trkpt lat="43.10923" lon="-0.41069">
        <ele>478.39</ele>
        <time>2021-08-20T04:36:39Z</time>
      </trkpt>
      <trkpt lat="43.10925" lon="-0.41069">
        <ele>478.87</ele>
        <time>2021-08-20T04:36:40Z</time>
      </trkpt>
      <trkpt lat="43.10938" lon="-0.41072">
        <ele>479.84</ele>
        <time>2021-08-20T04:36:46Z</time>
      </trkpt>
      <trkpt lat="43.10944" lon="-0.41072">
        <ele>480.32</ele>
        <time>2021-08-20T04:36:50Z</time>
      </trkpt>
      <trkpt lat="43.10949" lon="-0.41077">
        <ele>481.76</ele>
        <time>2021-08-20T04:36:55Z</time>
      </trkpt>
      <trkpt lat="43.10957" lon="-0.41081">
        <ele>482.24</ele>
        <time>2021-08-20T04:37:01Z</time>
      </trkpt>
      <trkpt lat="43.10958" lon="-0.41081">
        <ele>482.24</ele>
        <time>2021-08-20T04:37:02Z</time>
      </trkpt>
      <trkpt lat="43.1096" lon="-0.41081">
        <ele>482.72</ele>
        <time>2021-08-20T04:37:03Z</time>
      </trkpt>
      <trkpt lat="43.10962" lon="-0.41081">
        <ele>482.72</ele>
        <time>2021-08-20T04:37:04Z</time>
      </trkpt>
      <trkpt lat="43.10969" lon="-0.4108">
        <ele>484.16</ele>
        <time>2021-08-20T04:37:11Z</time>
      </trkpt>
      <trkpt lat="43.10976" lon="-0.41079">
        <ele>485.12</ele>
        <time>2021-08-20T04:37:19Z</time>
      </trkpt>
      <trkpt lat="43.10982" lon="-0.4108">
        <ele>486.56</ele>
        <time>2021-08-20T04:37:28Z</time>
      </trkpt>
      <trkpt lat="43.10984" lon="-0.4108">
        <ele>488.49</ele>
        <time>2021-08-20T04:37:38Z</time>
      </trkpt>
      <trkpt lat="43.10988" lon="-0.41076">
        <ele>489.93</ele>
        <time>2021-08-20T04:37:47Z</time>
      </trkpt>
      <trkpt lat="43.10991" lon="-0.41076">
        <ele>490.41</ele>
        <time>2021-08-20T04:37:54Z</time>
      </trkpt>
      <trkpt lat="43.10993" lon="-0.41074">
        <ele>491.37</ele>
        <time>2021-08-20T04:38:01Z</time>
      </trkpt>
      <trkpt lat="43.11" lon="-0.41074">
        <ele>491.85</ele>
        <time>2021-08-20T04:38:08Z</time>
      </trkpt>
      <trkpt lat="43.11004" lon="-0.41075">
        <ele>491.85</ele>
        <time>2021-08-20T04:38:15Z</time>
      </trkpt>
      <trkpt lat="43.11005" lon="-0.41076">
        <ele>491.85</ele>
        <time>2021-08-20T04:38:16Z</time>
      </trkpt>
      <trkpt lat="43.11006" lon="-0.41077">
        <ele>491.85</ele>
        <time>2021-08-20T04:38:17Z</time>
      </trkpt>
      <trkpt lat="43.11008" lon="-0.41077">
        <ele>491.85</ele>
        <time>2021-08-20T04:38:18Z</time>
      </trkpt>
      <trkpt lat="43.11009" lon="-0.41077">
        <ele>491.85</ele>
        <time>2021-08-20T04:38:19Z</time>
      </trkpt>
      <trkpt lat="43.11011" lon="-0.41077">
        <ele>491.85</ele>
        <time>2021-08-20T04:38:20Z</time>
      </trkpt>
      <trkpt lat="43.11014" lon="-0.41076">
        <ele>491.85</ele>
        <time>2021-08-20T04:38:21Z</time>
      </trkpt>
      <trkpt lat="43.11016" lon="-0.41076">
        <ele>491.85</ele>
        <time>2021-08-20T04:38:22Z</time>
      </trkpt>
      <trkpt lat="43.11018" lon="-0.41075">
        <ele>491.85</ele>
        <time>2021-08-20T04:38:23Z</time>
      </trkpt>
      <trkpt lat="43.1102" lon="-0.41075">
        <ele>491.85</ele>
        <time>2021-08-20T04:38:24Z</time>
      </trkpt>
      <trkpt lat="43.11022" lon="-0.41075">
        <ele>491.85</ele>
        <time>2021-08-20T04:38:25Z</time>
      </trkpt>
      <trkpt lat="43.11024" lon="-0.41074">
        <ele>491.85</ele>
        <time>2021-08-20T04:38:26Z</time>
      </trkpt>
      <trkpt lat="43.11029" lon="-0.41072">
        <ele>491.85</ele>
        <time>2021-08-20T04:38:28Z</time>
      </trkpt>
      <trkpt lat="43.11032" lon="-0.41071">
        <ele>491.85</ele>
        <time>2021-08-20T04:38:29Z</time>
      </trkpt>
      <trkpt lat="43.11039" lon="-0.4107">
        <ele>491.85</ele>
        <time>2021-08-20T04:38:31Z</time>
      </trkpt>
      <trkpt lat="43.11049" lon="-0.41069">
        <ele>490.41</ele>
        <time>2021-08-20T04:38:33Z</time>
      </trkpt>
      <trkpt lat="43.11079" lon="-0.41063">
        <ele>488.49</ele>
        <time>2021-08-20T04:38:38Z</time>
      </trkpt>
      <trkpt lat="43.11121" lon="-0.41067">
        <ele>487.53</ele>
        <time>2021-08-20T04:38:45Z</time>
      </trkpt>
      <trkpt lat="43.11162" lon="-0.41075">
        <ele>484.16</ele>
        <time>2021-08-20T04:38:52Z</time>
      </trkpt>
      <trkpt lat="43.11189" lon="-0.4108">
        <ele>481.28</ele>
        <time>2021-08-20T04:38:56Z</time>
      </trkpt>
      <trkpt lat="43.11195" lon="-0.41083">
        <ele>480.8</ele>
        <time>2021-08-20T04:38:57Z</time>
      </trkpt>
      <trkpt lat="43.11207" lon="-0.41089">
        <ele>480.32</ele>
        <time>2021-08-20T04:38:59Z</time>
      </trkpt>
      <trkpt lat="43.11218" lon="-0.41094">
        <ele>479.35</ele>
        <time>2021-08-20T04:39:01Z</time>
      </trkpt>
      <trkpt lat="43.11241" lon="-0.41102">
        <ele>475.99</ele>
        <time>2021-08-20T04:39:05Z</time>
      </trkpt>
      <trkpt lat="43.11248" lon="-0.41104">
        <ele>475.99</ele>
        <time>2021-08-20T04:39:06Z</time>
      </trkpt>
      <trkpt lat="43.11266" lon="-0.4111">
        <ele>474.55</ele>
        <time>2021-08-20T04:39:09Z</time>
      </trkpt>
      <trkpt lat="43.11271" lon="-0.41113">
        <ele>474.55</ele>
        <time>2021-08-20T04:39:10Z</time>
      </trkpt>
      <trkpt lat="43.11299" lon="-0.41128">
        <ele>475.03</ele>
        <time>2021-08-20T04:39:17Z</time>
      </trkpt>
      <trkpt lat="43.11305" lon="-0.41128">
        <ele>475.03</ele>
        <time>2021-08-20T04:39:23Z</time>
      </trkpt>
      <trkpt lat="43.11309" lon="-0.41129">
        <ele>475.03</ele>
        <time>2021-08-20T04:39:33Z</time>
      </trkpt>
      <trkpt lat="43.11318" lon="-0.41124">
        <ele>474.55</ele>
        <time>2021-08-20T04:39:36Z</time>
      </trkpt>
      <trkpt lat="43.11323" lon="-0.4112">
        <ele>474.07</ele>
        <time>2021-08-20T04:39:37Z</time>
      </trkpt>
      <trkpt lat="43.11337" lon="-0.41109">
        <ele>472.63</ele>
        <time>2021-08-20T04:39:40Z</time>
      </trkpt>
      <trkpt lat="43.11346" lon="-0.41105">
        <ele>472.63</ele>
        <time>2021-08-20T04:39:43Z</time>
      </trkpt>
      <trkpt lat="43.11346" lon="-0.41108">
        <ele>472.63</ele>
        <time>2021-08-20T04:39:44Z</time>
      </trkpt>
      <trkpt lat="43.11345" lon="-0.41111">
        <ele>472.63</ele>
        <time>2021-08-20T04:39:45Z</time>
      </trkpt>
      <trkpt lat="43.11343" lon="-0.41112">
        <ele>472.63</ele>
        <time>2021-08-20T04:39:46Z</time>
      </trkpt>
      <trkpt lat="43.11341" lon="-0.41114">
        <ele>472.63</ele>
        <time>2021-08-20T04:39:47Z</time>
      </trkpt>
      <trkpt lat="43.11329" lon="-0.41129">
        <ele>474.07</ele>
        <time>2021-08-20T04:39:54Z</time>
      </trkpt>
      <trkpt lat="43.11328" lon="-0.41132">
        <ele>474.07</ele>
        <time>2021-08-20T04:39:55Z</time>
      </trkpt>
      <trkpt lat="43.11326" lon="-0.41141">
        <ele>474.55</ele>
        <time>2021-08-20T04:39:58Z</time>
      </trkpt>
      <trkpt lat="43.11326" lon="-0.41143">
        <ele>474.55</ele>
        <time>2021-08-20T04:39:59Z</time>
      </trkpt>
      <trkpt lat="43.11329" lon="-0.41149">
        <ele>474.55</ele>
        <time>2021-08-20T04:40:04Z</time>
      </trkpt>
      <trkpt lat="43.1133" lon="-0.41149">
        <ele>474.55</ele>
        <time>2021-08-20T04:40:05Z</time>
      </trkpt>
      <trkpt lat="43.11331" lon="-0.41148">
        <ele>474.55</ele>
        <time>2021-08-20T04:40:06Z</time>
      </trkpt>
      <trkpt lat="43.11333" lon="-0.41147">
        <ele>475.03</ele>
        <time>2021-08-20T04:40:07Z</time>
      </trkpt>
      <trkpt lat="43.11334" lon="-0.41146">
        <ele>475.03</ele>
        <time>2021-08-20T04:40:08Z</time>
      </trkpt>
      <trkpt lat="43.11349" lon="-0.41136">
        <ele>476.47</ele>
        <time>2021-08-20T04:40:15Z</time>
      </trkpt>
      <trkpt lat="43.11369" lon="-0.41126">
        <ele>476.47</ele>
        <time>2021-08-20T04:40:21Z</time>
      </trkpt>
      <trkpt lat="43.11381" lon="-0.41124">
        <ele>477.91</ele>
        <time>2021-08-20T04:40:26Z</time>
      </trkpt>
      <trkpt lat="43.11393" lon="-0.41126">
        <ele>479.35</ele>
        <time>2021-08-20T04:40:37Z</time>
      </trkpt>
      <trkpt lat="43.11399" lon="-0.41127">
        <ele>479.84</ele>
        <time>2021-08-20T04:40:42Z</time>
      </trkpt>
      <trkpt lat="43.11401" lon="-0.41127">
        <ele>479.84</ele>
        <time>2021-08-20T04:40:43Z</time>
      </trkpt>
      <trkpt lat="43.11412" lon="-0.41127">
        <ele>481.28</ele>
        <time>2021-08-20T04:40:51Z</time>
      </trkpt>
      <trkpt lat="43.11413" lon="-0.41127">
        <ele>481.28</ele>
        <time>2021-08-20T04:40:52Z</time>
      </trkpt>
      <trkpt lat="43.11415" lon="-0.41127">
        <ele>481.76</ele>
        <time>2021-08-20T04:40:53Z</time>
      </trkpt>
      <trkpt lat="43.11429" lon="-0.41129">
        <ele>483.2</ele>
        <time>2021-08-20T04:41:04Z</time>
      </trkpt>
      <trkpt lat="43.11439" lon="-0.41143">
        <ele>484.64</ele>
        <time>2021-08-20T04:41:13Z</time>
      </trkpt>
      <trkpt lat="43.11449" lon="-0.41159">
        <ele>485.6</ele>
        <time>2021-08-20T04:41:22Z</time>
      </trkpt>
      <trkpt lat="43.11461" lon="-0.41176">
        <ele>487.05</ele>
        <time>2021-08-20T04:41:32Z</time>
      </trkpt>
      <trkpt lat="43.11474" lon="-0.41191">
        <ele>488.97</ele>
        <time>2021-08-20T04:41:41Z</time>
      </trkpt>
      <trkpt lat="43.11489" lon="-0.41192">
        <ele>490.41</ele>
        <time>2021-08-20T04:41:51Z</time>
      </trkpt>
      <trkpt lat="43.1149" lon="-0.41191">
        <ele>490.41</ele>
        <time>2021-08-20T04:41:52Z</time>
      </trkpt>
      <trkpt lat="43.11502" lon="-0.41189">
        <ele>491.37</ele>
        <time>2021-08-20T04:42:01Z</time>
      </trkpt>
      <trkpt lat="43.11515" lon="-0.41186">
        <ele>492.81</ele>
        <time>2021-08-20T04:42:10Z</time>
      </trkpt>
      <trkpt lat="43.11532" lon="-0.41184">
        <ele>495.22</ele>
        <time>2021-08-20T04:42:20Z</time>
      </trkpt>
      <trkpt lat="43.11537" lon="-0.41185">
        <ele>496.18</ele>
        <time>2021-08-20T04:42:28Z</time>
      </trkpt>
      <trkpt lat="43.11545" lon="-0.41184">
        <ele>497.62</ele>
        <time>2021-08-20T04:42:36Z</time>
      </trkpt>
      <trkpt lat="43.11547" lon="-0.41184">
        <ele>498.1</ele>
        <time>2021-08-20T04:42:38Z</time>
      </trkpt>
      <trkpt lat="43.11558" lon="-0.41182">
        <ele>499.54</ele>
        <time>2021-08-20T04:42:49Z</time>
      </trkpt>
      <trkpt lat="43.11565" lon="-0.4118">
        <ele>500.5</ele>
        <time>2021-08-20T04:42:57Z</time>
      </trkpt>
      <trkpt lat="43.11572" lon="-0.41177">
        <ele>502.43</ele>
        <time>2021-08-20T04:43:06Z</time>
      </trkpt>
      <trkpt lat="43.11579" lon="-0.41176">
        <ele>503.39</ele>
        <time>2021-08-20T04:43:16Z</time>
      </trkpt>
      <trkpt lat="43.11587" lon="-0.41174">
        <ele>505.31</ele>
        <time>2021-08-20T04:43:27Z</time>
      </trkpt>
      <trkpt lat="43.11594" lon="-0.41172">
        <ele>506.27</ele>
        <time>2021-08-20T04:43:35Z</time>
      </trkpt>
      <trkpt lat="43.11603" lon="-0.41169">
        <ele>507.71</ele>
        <time>2021-08-20T04:43:45Z</time>
      </trkpt>
      <trkpt lat="43.11612" lon="-0.41166">
        <ele>509.16</ele>
        <time>2021-08-20T04:43:56Z</time>
      </trkpt>
      <trkpt lat="43.11619" lon="-0.41164">
        <ele>510.6</ele>
        <time>2021-08-20T04:44:05Z</time>
      </trkpt>
      <trkpt lat="43.11626" lon="-0.41162">
        <ele>512.52</ele>
        <time>2021-08-20T04:44:15Z</time>
      </trkpt>
      <trkpt lat="43.11636" lon="-0.4116">
        <ele>514.44</ele>
        <time>2021-08-20T04:44:25Z</time>
      </trkpt>
      <trkpt lat="43.11643" lon="-0.41158">
        <ele>515.88</ele>
        <time>2021-08-20T04:44:34Z</time>
      </trkpt>
      <trkpt lat="43.11651" lon="-0.41157">
        <ele>517.81</ele>
        <time>2021-08-20T04:44:45Z</time>
      </trkpt>
      <trkpt lat="43.11658" lon="-0.41154">
        <ele>519.73</ele>
        <time>2021-08-20T04:44:55Z</time>
      </trkpt>
      <trkpt lat="43.11664" lon="-0.41148">
        <ele>521.17</ele>
        <time>2021-08-20T04:45:04Z</time>
      </trkpt>
      <trkpt lat="43.11665" lon="-0.41146">
        <ele>521.17</ele>
        <time>2021-08-20T04:45:05Z</time>
      </trkpt>
      <trkpt lat="43.11672" lon="-0.4114">
        <ele>522.61</ele>
        <time>2021-08-20T04:45:13Z</time>
      </trkpt>
      <trkpt lat="43.11681" lon="-0.41134">
        <ele>523.58</ele>
        <time>2021-08-20T04:45:22Z</time>
      </trkpt>
      <trkpt lat="43.1169" lon="-0.4113">
        <ele>525.02</ele>
        <time>2021-08-20T04:45:31Z</time>
      </trkpt>
      <trkpt lat="43.11694" lon="-0.41128">
        <ele>525.5</ele>
        <time>2021-08-20T04:45:38Z</time>
      </trkpt>
      <trkpt lat="43.11703" lon="-0.41125">
        <ele>525.98</ele>
        <time>2021-08-20T04:45:45Z</time>
      </trkpt>
      <trkpt lat="43.11716" lon="-0.41119">
        <ele>527.42</ele>
        <time>2021-08-20T04:45:55Z</time>
      </trkpt>
      <trkpt lat="43.11725" lon="-0.41116">
        <ele>528.86</ele>
        <time>2021-08-20T04:46:02Z</time>
      </trkpt>
      <trkpt lat="43.11732" lon="-0.41112">
        <ele>529.34</ele>
        <time>2021-08-20T04:46:08Z</time>
      </trkpt>
      <trkpt lat="43.11736" lon="-0.41109">
        <ele>530.3</ele>
        <time>2021-08-20T04:46:12Z</time>
      </trkpt>
      <trkpt lat="43.11745" lon="-0.41104">
        <ele>531.27</ele>
        <time>2021-08-20T04:46:19Z</time>
      </trkpt>
      <trkpt lat="43.11754" lon="-0.41098">
        <ele>532.23</ele>
        <time>2021-08-20T04:46:26Z</time>
      </trkpt>
      <trkpt lat="43.11761" lon="-0.41093">
        <ele>532.71</ele>
        <time>2021-08-20T04:46:33Z</time>
      </trkpt>
      <trkpt lat="43.11762" lon="-0.41092">
        <ele>532.71</ele>
        <time>2021-08-20T04:46:34Z</time>
      </trkpt>
      <trkpt lat="43.11767" lon="-0.41089">
        <ele>533.67</ele>
        <time>2021-08-20T04:46:38Z</time>
      </trkpt>
      <trkpt lat="43.11775" lon="-0.41084">
        <ele>534.15</ele>
        <time>2021-08-20T04:46:44Z</time>
      </trkpt>
      <trkpt lat="43.11781" lon="-0.41079">
        <ele>535.59</ele>
        <time>2021-08-20T04:46:50Z</time>
      </trkpt>
      <trkpt lat="43.11791" lon="-0.41072">
        <ele>536.55</ele>
        <time>2021-08-20T04:46:57Z</time>
      </trkpt>
      <trkpt lat="43.11798" lon="-0.41068">
        <ele>537.99</ele>
        <time>2021-08-20T04:47:03Z</time>
      </trkpt>
      <trkpt lat="43.11803" lon="-0.41065">
        <ele>538.96</ele>
        <time>2021-08-20T04:47:07Z</time>
      </trkpt>
      <trkpt lat="43.11808" lon="-0.41062">
        <ele>539.92</ele>
        <time>2021-08-20T04:47:14Z</time>
      </trkpt>
      <trkpt lat="43.11814" lon="-0.41058">
        <ele>540.88</ele>
        <time>2021-08-20T04:47:23Z</time>
      </trkpt>
      <trkpt lat="43.11819" lon="-0.41057">
        <ele>541.84</ele>
        <time>2021-08-20T04:47:30Z</time>
      </trkpt>
      <trkpt lat="43.11823" lon="-0.41056">
        <ele>543.28</ele>
        <time>2021-08-20T04:47:37Z</time>
      </trkpt>
      <trkpt lat="43.1183" lon="-0.41059">
        <ele>544.72</ele>
        <time>2021-08-20T04:47:46Z</time>
      </trkpt>
      <trkpt lat="43.11838" lon="-0.41061">
        <ele>545.69</ele>
        <time>2021-08-20T04:47:54Z</time>
      </trkpt>
      <trkpt lat="43.11844" lon="-0.41062">
        <ele>547.13</ele>
        <time>2021-08-20T04:48:01Z</time>
      </trkpt>
      <trkpt lat="43.11844" lon="-0.41069">
        <ele>548.09</ele>
        <time>2021-08-20T04:48:11Z</time>
      </trkpt>
      <trkpt lat="43.11842" lon="-0.41075">
        <ele>549.53</ele>
        <time>2021-08-20T04:48:21Z</time>
      </trkpt>
      <trkpt lat="43.1184" lon="-0.41081">
        <ele>550.97</ele>
        <time>2021-08-20T04:48:31Z</time>
      </trkpt>
      <trkpt lat="43.11842" lon="-0.41086">
        <ele>552.41</ele>
        <time>2021-08-20T04:48:40Z</time>
      </trkpt>
      <trkpt lat="43.11843" lon="-0.41094">
        <ele>553.38</ele>
        <time>2021-08-20T04:48:48Z</time>
      </trkpt>
      <trkpt lat="43.11845" lon="-0.411">
        <ele>554.82</ele>
        <time>2021-08-20T04:48:58Z</time>
      </trkpt>
      <trkpt lat="43.11845" lon="-0.41106">
        <ele>556.26</ele>
        <time>2021-08-20T04:49:06Z</time>
      </trkpt>
      <trkpt lat="43.11846" lon="-0.41116">
        <ele>557.22</ele>
        <time>2021-08-20T04:49:14Z</time>
      </trkpt>
      <trkpt lat="43.11847" lon="-0.41123">
        <ele>558.66</ele>
        <time>2021-08-20T04:49:23Z</time>
      </trkpt>
      <trkpt lat="43.11848" lon="-0.41131">
        <ele>559.62</ele>
        <time>2021-08-20T04:49:31Z</time>
      </trkpt>
      <trkpt lat="43.11848" lon="-0.41138">
        <ele>560.11</ele>
        <time>2021-08-20T04:49:40Z</time>
      </trkpt>
      <trkpt lat="43.11849" lon="-0.41142">
        <ele>560.11</ele>
        <time>2021-08-20T04:49:46Z</time>
      </trkpt>
      <trkpt lat="43.1185" lon="-0.41144">
        <ele>561.07</ele>
        <time>2021-08-20T04:49:47Z</time>
      </trkpt>
      <trkpt lat="43.11851" lon="-0.41146">
        <ele>561.07</ele>
        <time>2021-08-20T04:49:48Z</time>
      </trkpt>
      <trkpt lat="43.11851" lon="-0.41149">
        <ele>561.07</ele>
        <time>2021-08-20T04:49:49Z</time>
      </trkpt>
      <trkpt lat="43.11852" lon="-0.4115">
        <ele>561.07</ele>
        <time>2021-08-20T04:49:50Z</time>
      </trkpt>
      <trkpt lat="43.11854" lon="-0.41159">
        <ele>561.55</ele>
        <time>2021-08-20T04:49:56Z</time>
      </trkpt>
      <trkpt lat="43.11856" lon="-0.41162">
        <ele>562.51</ele>
        <time>2021-08-20T04:49:58Z</time>
      </trkpt>
      <trkpt lat="43.1186" lon="-0.41175">
        <ele>562.99</ele>
        <time>2021-08-20T04:50:05Z</time>
      </trkpt>
      <trkpt lat="43.11861" lon="-0.41183">
        <ele>563.95</ele>
        <time>2021-08-20T04:50:08Z</time>
      </trkpt>
      <trkpt lat="43.11862" lon="-0.41185">
        <ele>563.95</ele>
        <time>2021-08-20T04:50:09Z</time>
      </trkpt>
      <trkpt lat="43.11862" lon="-0.41187">
        <ele>563.95</ele>
        <time>2021-08-20T04:50:10Z</time>
      </trkpt>
      <trkpt lat="43.11864" lon="-0.41199">
        <ele>564.91</ele>
        <time>2021-08-20T04:50:17Z</time>
      </trkpt>
      <trkpt lat="43.11865" lon="-0.41202">
        <ele>564.91</ele>
        <time>2021-08-20T04:50:18Z</time>
      </trkpt>
      <trkpt lat="43.11865" lon="-0.41205">
        <ele>564.91</ele>
        <time>2021-08-20T04:50:19Z</time>
      </trkpt>
      <trkpt lat="43.1187" lon="-0.41224">
        <ele>565.39</ele>
        <time>2021-08-20T04:50:26Z</time>
      </trkpt>
      <trkpt lat="43.11878" lon="-0.41234">
        <ele>564.43</ele>
        <time>2021-08-20T04:50:31Z</time>
      </trkpt>
      <trkpt lat="43.11896" lon="-0.41244">
        <ele>564.43</ele>
        <time>2021-08-20T04:50:38Z</time>
      </trkpt>
      <trkpt lat="43.11898" lon="-0.41244">
        <ele>564.43</ele>
        <time>2021-08-20T04:50:39Z</time>
      </trkpt>
      <trkpt lat="43.11899" lon="-0.41245">
        <ele>564.43</ele>
        <time>2021-08-20T04:50:40Z</time>
      </trkpt>
      <trkpt lat="43.11912" lon="-0.4125">
        <ele>564.43</ele>
        <time>2021-08-20T04:50:47Z</time>
      </trkpt>
      <trkpt lat="43.11934" lon="-0.41261">
        <ele>563.47</ele>
        <time>2021-08-20T04:50:55Z</time>
      </trkpt>
      <trkpt lat="43.11948" lon="-0.41274">
        <ele>563.47</ele>
        <time>2021-08-20T04:51:01Z</time>
      </trkpt>
      <trkpt lat="43.11965" lon="-0.41287">
        <ele>562.99</ele>
        <time>2021-08-20T04:51:07Z</time>
      </trkpt>
      <trkpt lat="43.11981" lon="-0.41293">
        <ele>563.47</ele>
        <time>2021-08-20T04:51:13Z</time>
      </trkpt>
      <trkpt lat="43.11999" lon="-0.41299">
        <ele>563.47</ele>
        <time>2021-08-20T04:51:20Z</time>
      </trkpt>
      <trkpt lat="43.12004" lon="-0.413">
        <ele>563.47</ele>
        <time>2021-08-20T04:51:22Z</time>
      </trkpt>
      <trkpt lat="43.12006" lon="-0.41299">
        <ele>563.47</ele>
        <time>2021-08-20T04:51:23Z</time>
      </trkpt>
      <trkpt lat="43.12009" lon="-0.41299">
        <ele>562.99</ele>
        <time>2021-08-20T04:51:24Z</time>
      </trkpt>
      <trkpt lat="43.12019" lon="-0.41298">
        <ele>561.55</ele>
        <time>2021-08-20T04:51:29Z</time>
      </trkpt>
      <trkpt lat="43.12025" lon="-0.413">
        <ele>561.07</ele>
        <time>2021-08-20T04:51:35Z</time>
      </trkpt>
      <trkpt lat="43.12027" lon="-0.41302">
        <ele>560.11</ele>
        <time>2021-08-20T04:51:36Z</time>
      </trkpt>
      <trkpt lat="43.12028" lon="-0.41303">
        <ele>560.11</ele>
        <time>2021-08-20T04:51:37Z</time>
      </trkpt>
      <trkpt lat="43.12032" lon="-0.41308">
        <ele>559.62</ele>
        <time>2021-08-20T04:51:39Z</time>
      </trkpt>
      <trkpt lat="43.12033" lon="-0.4131">
        <ele>559.14</ele>
        <time>2021-08-20T04:51:40Z</time>
      </trkpt>
      <trkpt lat="43.1204" lon="-0.41328">
        <ele>557.7</ele>
        <time>2021-08-20T04:51:45Z</time>
      </trkpt>
      <trkpt lat="43.12051" lon="-0.41346">
        <ele>557.7</ele>
        <time>2021-08-20T04:51:49Z</time>
      </trkpt>
      <trkpt lat="43.12058" lon="-0.41357">
        <ele>555.78</ele>
        <time>2021-08-20T04:51:53Z</time>
      </trkpt>
      <trkpt lat="43.12059" lon="-0.4136">
        <ele>555.3</ele>
        <time>2021-08-20T04:51:54Z</time>
      </trkpt>
      <trkpt lat="43.1206" lon="-0.41362">
        <ele>554.82</ele>
        <time>2021-08-20T04:51:55Z</time>
      </trkpt>
      <trkpt lat="43.12062" lon="-0.41364">
        <ele>553.86</ele>
        <time>2021-08-20T04:51:56Z</time>
      </trkpt>
      <trkpt lat="43.12072" lon="-0.41375">
        <ele>551.45</ele>
        <time>2021-08-20T04:52:00Z</time>
      </trkpt>
      <trkpt lat="43.12076" lon="-0.41377">
        <ele>550.97</ele>
        <time>2021-08-20T04:52:01Z</time>
      </trkpt>
      <trkpt lat="43.12079" lon="-0.41378">
        <ele>550.01</ele>
        <time>2021-08-20T04:52:02Z</time>
      </trkpt>
      <trkpt lat="43.12083" lon="-0.41379">
        <ele>550.49</ele>
        <time>2021-08-20T04:52:03Z</time>
      </trkpt>
      <trkpt lat="43.12086" lon="-0.4138">
        <ele>550.01</ele>
        <time>2021-08-20T04:52:04Z</time>
      </trkpt>
      <trkpt lat="43.12088" lon="-0.41381">
        <ele>550.01</ele>
        <time>2021-08-20T04:52:05Z</time>
      </trkpt>
      <trkpt lat="43.12091" lon="-0.41383">
        <ele>549.53</ele>
        <time>2021-08-20T04:52:06Z</time>
      </trkpt>
      <trkpt lat="43.12107" lon="-0.41387">
        <ele>548.09</ele>
        <time>2021-08-20T04:52:13Z</time>
      </trkpt>
      <trkpt lat="43.12119" lon="-0.41382">
        <ele>547.13</ele>
        <time>2021-08-20T04:52:17Z</time>
      </trkpt>
      <trkpt lat="43.12123" lon="-0.41381">
        <ele>547.13</ele>
        <time>2021-08-20T04:52:18Z</time>
      </trkpt>
      <trkpt lat="43.12129" lon="-0.41381">
        <ele>546.65</ele>
        <time>2021-08-20T04:52:19Z</time>
      </trkpt>
      <trkpt lat="43.12134" lon="-0.41381">
        <ele>546.65</ele>
        <time>2021-08-20T04:52:20Z</time>
      </trkpt>
      <trkpt lat="43.12138" lon="-0.41382">
        <ele>546.65</ele>
        <time>2021-08-20T04:52:21Z</time>
      </trkpt>
      <trkpt lat="43.12149" lon="-0.41383">
        <ele>548.09</ele>
        <time>2021-08-20T04:52:25Z</time>
      </trkpt>
      <trkpt lat="43.1215" lon="-0.41385">
        <ele>549.05</ele>
        <time>2021-08-20T04:52:31Z</time>
      </trkpt>
      <trkpt lat="43.1216" lon="-0.41388">
        <ele>550.01</ele>
        <time>2021-08-20T04:52:39Z</time>
      </trkpt>
      <trkpt lat="43.12167" lon="-0.41389">
        <ele>550.97</ele>
        <time>2021-08-20T04:52:48Z</time>
      </trkpt>
      <trkpt lat="43.12174" lon="-0.4139">
        <ele>551.93</ele>
        <time>2021-08-20T04:52:56Z</time>
      </trkpt>
      <trkpt lat="43.1218" lon="-0.41393">
        <ele>552.41</ele>
        <time>2021-08-20T04:53:05Z</time>
      </trkpt>
      <trkpt lat="43.12196" lon="-0.41396">
        <ele>552.9</ele>
        <time>2021-08-20T04:53:12Z</time>
      </trkpt>
      <trkpt lat="43.12215" lon="-0.41397">
        <ele>553.38</ele>
        <time>2021-08-20T04:53:19Z</time>
      </trkpt>
      <trkpt lat="43.12241" lon="-0.41394">
        <ele>552.41</ele>
        <time>2021-08-20T04:53:27Z</time>
      </trkpt>
      <trkpt lat="43.12262" lon="-0.41394">
        <ele>551.45</ele>
        <time>2021-08-20T04:53:33Z</time>
      </trkpt>
      <trkpt lat="43.12286" lon="-0.41395">
        <ele>549.53</ele>
        <time>2021-08-20T04:53:38Z</time>
      </trkpt>
      <trkpt lat="43.12296" lon="-0.41396">
        <ele>548.57</ele>
        <time>2021-08-20T04:53:40Z</time>
      </trkpt>
      <trkpt lat="43.123" lon="-0.41397">
        <ele>547.61</ele>
        <time>2021-08-20T04:53:41Z</time>
      </trkpt>
      <trkpt lat="43.12306" lon="-0.41399">
        <ele>548.09</ele>
        <time>2021-08-20T04:53:42Z</time>
      </trkpt>
      <trkpt lat="43.1231" lon="-0.41401">
        <ele>548.09</ele>
        <time>2021-08-20T04:53:43Z</time>
      </trkpt>
      <trkpt lat="43.12313" lon="-0.41403">
        <ele>548.09</ele>
        <time>2021-08-20T04:53:44Z</time>
      </trkpt>
      <trkpt lat="43.12336" lon="-0.41409">
        <ele>546.65</ele>
        <time>2021-08-20T04:53:50Z</time>
      </trkpt>
      <trkpt lat="43.12352" lon="-0.41412">
        <ele>546.65</ele>
        <time>2021-08-20T04:53:56Z</time>
      </trkpt>
      <trkpt lat="43.12361" lon="-0.41415">
        <ele>547.13</ele>
        <time>2021-08-20T04:54:00Z</time>
      </trkpt>
      <trkpt lat="43.12377" lon="-0.41421">
        <ele>546.17</ele>
        <time>2021-08-20T04:54:06Z</time>
      </trkpt>
      <trkpt lat="43.12392" lon="-0.41409">
        <ele>542.8</ele>
        <time>2021-08-20T04:54:11Z</time>
      </trkpt>
      <trkpt lat="43.124" lon="-0.41399">
        <ele>541.36</ele>
        <time>2021-08-20T04:54:14Z</time>
      </trkpt>
      <trkpt lat="43.12411" lon="-0.41385">
        <ele>537.99</ele>
        <time>2021-08-20T04:54:18Z</time>
      </trkpt>
      <trkpt lat="43.12426" lon="-0.41367">
        <ele>534.63</ele>
        <time>2021-08-20T04:54:23Z</time>
      </trkpt>
      <trkpt lat="43.12437" lon="-0.41364">
        <ele>534.15</ele>
        <time>2021-08-20T04:54:27Z</time>
      </trkpt>
      <trkpt lat="43.12439" lon="-0.41365">
        <ele>534.15</ele>
        <time>2021-08-20T04:54:28Z</time>
      </trkpt>
      <trkpt lat="43.12441" lon="-0.41367">
        <ele>534.15</ele>
        <time>2021-08-20T04:54:30Z</time>
      </trkpt>
      <trkpt lat="43.12442" lon="-0.41369">
        <ele>534.15</ele>
        <time>2021-08-20T04:54:31Z</time>
      </trkpt>
      <trkpt lat="43.12445" lon="-0.41372">
        <ele>534.63</ele>
        <time>2021-08-20T04:54:32Z</time>
      </trkpt>
      <trkpt lat="43.12463" lon="-0.41386">
        <ele>534.15</ele>
        <time>2021-08-20T04:54:38Z</time>
      </trkpt>
      <trkpt lat="43.12486" lon="-0.4141">
        <ele>532.71</ele>
        <time>2021-08-20T04:54:46Z</time>
      </trkpt>
      <trkpt lat="43.12489" lon="-0.41415">
        <ele>532.71</ele>
        <time>2021-08-20T04:54:47Z</time>
      </trkpt>
      <trkpt lat="43.12491" lon="-0.4142">
        <ele>532.71</ele>
        <time>2021-08-20T04:54:48Z</time>
      </trkpt>
      <trkpt lat="43.12505" lon="-0.41451">
        <ele>530.79</ele>
        <time>2021-08-20T04:54:55Z</time>
      </trkpt>
      <trkpt lat="43.12509" lon="-0.41454">
        <ele>530.79</ele>
        <time>2021-08-20T04:54:56Z</time>
      </trkpt>
      <trkpt lat="43.12513" lon="-0.41456">
        <ele>530.79</ele>
        <time>2021-08-20T04:54:57Z</time>
      </trkpt>
      <trkpt lat="43.12517" lon="-0.41457">
        <ele>530.3</ele>
        <time>2021-08-20T04:54:58Z</time>
      </trkpt>
      <trkpt lat="43.1252" lon="-0.41458">
        <ele>529.82</ele>
        <time>2021-08-20T04:54:59Z</time>
      </trkpt>
      <trkpt lat="43.12524" lon="-0.4146">
        <ele>529.82</ele>
        <time>2021-08-20T04:55:00Z</time>
      </trkpt>
      <trkpt lat="43.12527" lon="-0.41461">
        <ele>529.82</ele>
        <time>2021-08-20T04:55:01Z</time>
      </trkpt>
      <trkpt lat="43.1253" lon="-0.41463">
        <ele>528.86</ele>
        <time>2021-08-20T04:55:02Z</time>
      </trkpt>
      <trkpt lat="43.12533" lon="-0.41465">
        <ele>528.86</ele>
        <time>2021-08-20T04:55:03Z</time>
      </trkpt>
      <trkpt lat="43.12536" lon="-0.41467">
        <ele>528.38</ele>
        <time>2021-08-20T04:55:04Z</time>
      </trkpt>
      <trkpt lat="43.12549" lon="-0.41474">
        <ele>526.46</ele>
        <time>2021-08-20T04:55:09Z</time>
      </trkpt>
      <trkpt lat="43.12552" lon="-0.41473">
        <ele>525.98</ele>
        <time>2021-08-20T04:55:10Z</time>
      </trkpt>
      <trkpt lat="43.12556" lon="-0.41471">
        <ele>525.02</ele>
        <time>2021-08-20T04:55:11Z</time>
      </trkpt>
      <trkpt lat="43.12559" lon="-0.4147">
        <ele>525.02</ele>
        <time>2021-08-20T04:55:12Z</time>
      </trkpt>
      <trkpt lat="43.12563" lon="-0.41469">
        <ele>524.54</ele>
        <time>2021-08-20T04:55:13Z</time>
      </trkpt>
      <trkpt lat="43.1259" lon="-0.41463">
        <ele>521.65</ele>
        <time>2021-08-20T04:55:18Z</time>
      </trkpt>
      <trkpt lat="43.12596" lon="-0.41462">
        <ele>521.17</ele>
        <time>2021-08-20T04:55:19Z</time>
      </trkpt>
      <trkpt lat="43.12602" lon="-0.41461">
        <ele>520.21</ele>
        <time>2021-08-20T04:55:20Z</time>
      </trkpt>
      <trkpt lat="43.12608" lon="-0.41462">
        <ele>520.21</ele>
        <time>2021-08-20T04:55:21Z</time>
      </trkpt>
      <trkpt lat="43.12655" lon="-0.41469">
        <ele>517.33</ele>
        <time>2021-08-20T04:55:29Z</time>
      </trkpt>
      <trkpt lat="43.12695" lon="-0.41487">
        <ele>515.88</ele>
        <time>2021-08-20T04:55:36Z</time>
      </trkpt>
      <trkpt lat="43.12741" lon="-0.41494">
        <ele>514.44</ele>
        <time>2021-08-20T04:55:44Z</time>
      </trkpt>
      <trkpt lat="43.12771" lon="-0.41508">
        <ele>513.96</ele>
        <time>2021-08-20T04:55:50Z</time>
      </trkpt>
      <trkpt lat="43.12775" lon="-0.4151">
        <ele>513.96</ele>
        <time>2021-08-20T04:55:51Z</time>
      </trkpt>
      <trkpt lat="43.12779" lon="-0.41511">
        <ele>513.96</ele>
        <time>2021-08-20T04:55:52Z</time>
      </trkpt>
      <trkpt lat="43.12792" lon="-0.41514">
        <ele>513.96</ele>
        <time>2021-08-20T04:55:55Z</time>
      </trkpt>
      <trkpt lat="43.12819" lon="-0.41523">
        <ele>513.96</ele>
        <time>2021-08-20T04:56:01Z</time>
      </trkpt>
      <trkpt lat="43.12828" lon="-0.41524">
        <ele>513.96</ele>
        <time>2021-08-20T04:56:03Z</time>
      </trkpt>
      <trkpt lat="43.12871" lon="-0.41537">
        <ele>515.4</ele>
        <time>2021-08-20T04:56:13Z</time>
      </trkpt>
      <trkpt lat="43.129" lon="-0.41548">
        <ele>515.4</ele>
        <time>2021-08-20T04:56:20Z</time>
      </trkpt>
      <trkpt lat="43.12934" lon="-0.41555">
        <ele>513.96</ele>
        <time>2021-08-20T04:56:27Z</time>
      </trkpt>
      <trkpt lat="43.12961" lon="-0.41555">
        <ele>513</ele>
        <time>2021-08-20T04:56:32Z</time>
      </trkpt>
      <trkpt lat="43.13018" lon="-0.41549">
        <ele>511.08</ele>
        <time>2021-08-20T04:56:42Z</time>
      </trkpt>
      <trkpt lat="43.13075" lon="-0.41541">
        <ele>509.64</ele>
        <time>2021-08-20T04:56:52Z</time>
      </trkpt>
      <trkpt lat="43.13116" lon="-0.41539">
        <ele>506.27</ele>
        <time>2021-08-20T04:56:58Z</time>
      </trkpt>
      <trkpt lat="43.13124" lon="-0.41538">
        <ele>506.27</ele>
        <time>2021-08-20T04:56:59Z</time>
      </trkpt>
      <trkpt lat="43.13147" lon="-0.41536">
        <ele>504.35</ele>
        <time>2021-08-20T04:57:02Z</time>
      </trkpt>
      <trkpt lat="43.13202" lon="-0.41528">
        <ele>502.43</ele>
        <time>2021-08-20T04:57:09Z</time>
      </trkpt>
      <trkpt lat="43.13251" lon="-0.41517">
        <ele>500.98</ele>
        <time>2021-08-20T04:57:16Z</time>
      </trkpt>
      <trkpt lat="43.13271" lon="-0.41513">
        <ele>500.5</ele>
        <time>2021-08-20T04:57:19Z</time>
      </trkpt>
      <trkpt lat="43.13307" lon="-0.41516">
        <ele>497.62</ele>
        <time>2021-08-20T04:57:24Z</time>
      </trkpt>
      <trkpt lat="43.13366" lon="-0.41529">
        <ele>496.66</ele>
        <time>2021-08-20T04:57:32Z</time>
      </trkpt>
      <trkpt lat="43.13406" lon="-0.41541">
        <ele>496.66</ele>
        <time>2021-08-20T04:57:39Z</time>
      </trkpt>
      <trkpt lat="43.13416" lon="-0.41543">
        <ele>498.1</ele>
        <time>2021-08-20T04:57:41Z</time>
      </trkpt>
      <trkpt lat="43.1342" lon="-0.41543">
        <ele>498.1</ele>
        <time>2021-08-20T04:57:42Z</time>
      </trkpt>
      <trkpt lat="43.13433" lon="-0.41545">
        <ele>498.58</ele>
        <time>2021-08-20T04:57:45Z</time>
      </trkpt>
      <trkpt lat="43.13442" lon="-0.41545">
        <ele>498.58</ele>
        <time>2021-08-20T04:57:47Z</time>
      </trkpt>
      <trkpt lat="43.13477" lon="-0.41546">
        <ele>499.54</ele>
        <time>2021-08-20T04:57:54Z</time>
      </trkpt>
      <trkpt lat="43.13493" lon="-0.41544">
        <ele>499.54</ele>
        <time>2021-08-20T04:57:57Z</time>
      </trkpt>
      <trkpt lat="43.1351" lon="-0.41539">
        <ele>499.54</ele>
        <time>2021-08-20T04:58:01Z</time>
      </trkpt>
      <trkpt lat="43.13515" lon="-0.41538">
        <ele>499.54</ele>
        <time>2021-08-20T04:58:02Z</time>
      </trkpt>
      <trkpt lat="43.13551" lon="-0.4153">
        <ele>499.54</ele>
        <time>2021-08-20T04:58:10Z</time>
      </trkpt>
      <trkpt lat="43.13596" lon="-0.41527">
        <ele>497.14</ele>
        <time>2021-08-20T04:58:18Z</time>
      </trkpt>
      <trkpt lat="43.13646" lon="-0.4153">
        <ele>493.77</ele>
        <time>2021-08-20T04:58:25Z</time>
      </trkpt>
      <trkpt lat="43.137" lon="-0.41533">
        <ele>491.37</ele>
        <time>2021-08-20T04:58:32Z</time>
      </trkpt>
      <trkpt lat="43.13707" lon="-0.41532">
        <ele>491.37</ele>
        <time>2021-08-20T04:58:33Z</time>
      </trkpt>
      <trkpt lat="43.13714" lon="-0.41531">
        <ele>491.37</ele>
        <time>2021-08-20T04:58:34Z</time>
      </trkpt>
      <trkpt lat="43.13761" lon="-0.41521">
        <ele>490.41</ele>
        <time>2021-08-20T04:58:41Z</time>
      </trkpt>
      <trkpt lat="43.13812" lon="-0.41521">
        <ele>488.49</ele>
        <time>2021-08-20T04:58:48Z</time>
      </trkpt>
      <trkpt lat="43.13872" lon="-0.41526">
        <ele>485.6</ele>
        <time>2021-08-20T04:58:56Z</time>
      </trkpt>
      <trkpt lat="43.13895" lon="-0.41525">
        <ele>484.16</ele>
        <time>2021-08-20T04:58:59Z</time>
      </trkpt>
      <trkpt lat="43.13903" lon="-0.41526">
        <ele>483.68</ele>
        <time>2021-08-20T04:59:00Z</time>
      </trkpt>
      <trkpt lat="43.13929" lon="-0.41533">
        <ele>480.32</ele>
        <time>2021-08-20T04:59:03Z</time>
      </trkpt>
      <trkpt lat="43.13974" lon="-0.41552">
        <ele>476.95</ele>
        <time>2021-08-20T04:59:08Z</time>
      </trkpt>
      <trkpt lat="43.13982" lon="-0.41557">
        <ele>476.95</ele>
        <time>2021-08-20T04:59:09Z</time>
      </trkpt>
      <trkpt lat="43.14008" lon="-0.41572">
        <ele>475.51</ele>
        <time>2021-08-20T04:59:12Z</time>
      </trkpt>
      <trkpt lat="43.14062" lon="-0.41605">
        <ele>473.59</ele>
        <time>2021-08-20T04:59:19Z</time>
      </trkpt>
      <trkpt lat="43.14071" lon="-0.41611">
        <ele>473.59</ele>
        <time>2021-08-20T04:59:21Z</time>
      </trkpt>
      <trkpt lat="43.14075" lon="-0.41612">
        <ele>475.03</ele>
        <time>2021-08-20T04:59:24Z</time>
      </trkpt>
      <trkpt lat="43.14072" lon="-0.41613">
        <ele>475.03</ele>
        <time>2021-08-20T04:59:38Z</time>
      </trkpt>
      <trkpt lat="43.14073" lon="-0.41613">
        <ele>475.03</ele>
        <time>2021-08-20T04:59:55Z</time>
      </trkpt>
      <trkpt lat="43.14073" lon="-0.41613">
        <ele>475.03</ele>
        <time>2021-08-20T04:59:56Z</time>
      </trkpt>
      <trkpt lat="43.14073" lon="-0.41615">
        <ele>475.03</ele>
        <time>2021-08-20T04:59:57Z</time>
      </trkpt>
      <trkpt lat="43.14073" lon="-0.41617">
        <ele>475.03</ele>
        <time>2021-08-20T05:00:03Z</time>
      </trkpt>
      <trkpt lat="43.14073" lon="-0.41618">
        <ele>475.03</ele>
        <time>2021-08-20T05:00:19Z</time>
      </trkpt>
      <trkpt lat="43.14072" lon="-0.41618">
        <ele>474.55</ele>
        <time>2021-08-20T05:00:41Z</time>
      </trkpt>
      <trkpt lat="43.14073" lon="-0.41618">
        <ele>474.55</ele>
        <time>2021-08-20T05:01:05Z</time>
      </trkpt>
      <trkpt lat="43.14073" lon="-0.41617">
        <ele>474.55</ele>
        <time>2021-08-20T05:01:24Z</time>
      </trkpt>
      <trkpt lat="43.14073" lon="-0.41618">
        <ele>474.55</ele>
        <time>2021-08-20T05:01:39Z</time>
      </trkpt>
      <trkpt lat="43.14072" lon="-0.41618">
        <ele>474.55</ele>
        <time>2021-08-20T05:01:58Z</time>
      </trkpt>
      <trkpt lat="43.14072" lon="-0.41618">
        <ele>474.55</ele>
        <time>2021-08-20T05:02:11Z</time>
      </trkpt>
      <trkpt lat="43.14072" lon="-0.41618">
        <ele>474.55</ele>
        <time>2021-08-20T05:02:27Z</time>
      </trkpt>
      <trkpt lat="43.14075" lon="-0.41616">
        <ele>474.07</ele>
        <time>2021-08-20T05:02:34Z</time>
      </trkpt>
      <trkpt lat="43.14074" lon="-0.41615">
        <ele>474.55</ele>
        <time>2021-08-20T05:02:44Z</time>
      </trkpt>
      <trkpt lat="43.14074" lon="-0.41615">
        <ele>474.55</ele>
        <time>2021-08-20T05:02:49Z</time>
      </trkpt>
      <trkpt lat="43.14075" lon="-0.41616">
        <ele>474.55</ele>
        <time>2021-08-20T05:02:50Z</time>
      </trkpt>
      <trkpt lat="43.14076" lon="-0.41617">
        <ele>474.55</ele>
        <time>2021-08-20T05:02:51Z</time>
      </trkpt>
      <trkpt lat="43.14078" lon="-0.41618">
        <ele>474.55</ele>
        <time>2021-08-20T05:02:52Z</time>
      </trkpt>
      <trkpt lat="43.1408" lon="-0.41619">
        <ele>474.55</ele>
        <time>2021-08-20T05:02:53Z</time>
      </trkpt>
      <trkpt lat="43.14081" lon="-0.4162">
        <ele>474.55</ele>
        <time>2021-08-20T05:02:54Z</time>
      </trkpt>
      <trkpt lat="43.14083" lon="-0.41621">
        <ele>474.55</ele>
        <time>2021-08-20T05:02:55Z</time>
      </trkpt>
      <trkpt lat="43.14096" lon="-0.41629">
        <ele>474.55</ele>
        <time>2021-08-20T05:03:03Z</time>
      </trkpt>
      <trkpt lat="43.14113" lon="-0.41639">
        <ele>474.55</ele>
        <time>2021-08-20T05:03:11Z</time>
      </trkpt>
      <trkpt lat="43.1414" lon="-0.41657">
        <ele>474.55</ele>
        <time>2021-08-20T05:03:18Z</time>
      </trkpt>
      <trkpt lat="43.14177" lon="-0.41678">
        <ele>473.11</ele>
        <time>2021-08-20T05:03:27Z</time>
      </trkpt>
      <trkpt lat="43.14212" lon="-0.41699">
        <ele>472.63</ele>
        <time>2021-08-20T05:03:34Z</time>
      </trkpt>
      <trkpt lat="43.14267" lon="-0.41734">
        <ele>472.14</ele>
        <time>2021-08-20T05:03:45Z</time>
      </trkpt>
      <trkpt lat="43.1428" lon="-0.4174">
        <ele>472.14</ele>
        <time>2021-08-20T05:03:48Z</time>
      </trkpt>
      <trkpt lat="43.14285" lon="-0.41741">
        <ele>472.14</ele>
        <time>2021-08-20T05:03:49Z</time>
      </trkpt>
      <trkpt lat="43.14295" lon="-0.41741">
        <ele>473.59</ele>
        <time>2021-08-20T05:03:52Z</time>
      </trkpt>
      <trkpt lat="43.14315" lon="-0.41745">
        <ele>475.03</ele>
        <time>2021-08-20T05:04:00Z</time>
      </trkpt>
      <trkpt lat="43.14331" lon="-0.41759">
        <ele>475.99</ele>
        <time>2021-08-20T05:04:08Z</time>
      </trkpt>
      <trkpt lat="43.14347" lon="-0.41772">
        <ele>477.43</ele>
        <time>2021-08-20T05:04:15Z</time>
      </trkpt>
      <trkpt lat="43.14362" lon="-0.41782">
        <ele>477.91</ele>
        <time>2021-08-20T05:04:21Z</time>
      </trkpt>
      <trkpt lat="43.14381" lon="-0.41793">
        <ele>478.39</ele>
        <time>2021-08-20T05:04:28Z</time>
      </trkpt>
      <trkpt lat="43.14398" lon="-0.41805">
        <ele>478.39</ele>
        <time>2021-08-20T05:04:34Z</time>
      </trkpt>
      <trkpt lat="43.14421" lon="-0.41819">
        <ele>478.39</ele>
        <time>2021-08-20T05:04:41Z</time>
      </trkpt>
      <trkpt lat="43.14446" lon="-0.41837">
        <ele>478.39</ele>
        <time>2021-08-20T05:04:48Z</time>
      </trkpt>
      <trkpt lat="43.1445" lon="-0.41841">
        <ele>478.39</ele>
        <time>2021-08-20T05:04:49Z</time>
      </trkpt>
      <trkpt lat="43.14464" lon="-0.41854">
        <ele>478.39</ele>
        <time>2021-08-20T05:04:53Z</time>
      </trkpt>
      <trkpt lat="43.14472" lon="-0.41861">
        <ele>478.39</ele>
        <time>2021-08-20T05:04:55Z</time>
      </trkpt>
      <trkpt lat="43.14476" lon="-0.41864">
        <ele>478.39</ele>
        <time>2021-08-20T05:04:56Z</time>
      </trkpt>
      <trkpt lat="43.1448" lon="-0.41867">
        <ele>478.39</ele>
        <time>2021-08-20T05:04:57Z</time>
      </trkpt>
      <trkpt lat="43.1451" lon="-0.41893">
        <ele>478.39</ele>
        <time>2021-08-20T05:05:04Z</time>
      </trkpt>
      <trkpt lat="43.14545" lon="-0.41919">
        <ele>478.39</ele>
        <time>2021-08-20T05:05:12Z</time>
      </trkpt>
      <trkpt lat="43.14572" lon="-0.41946">
        <ele>478.87</ele>
        <time>2021-08-20T05:05:19Z</time>
      </trkpt>
      <trkpt lat="43.14611" lon="-0.41977">
        <ele>479.35</ele>
        <time>2021-08-20T05:05:28Z</time>
      </trkpt>
      <trkpt lat="43.14649" lon="-0.42005">
        <ele>478.87</ele>
        <time>2021-08-20T05:05:36Z</time>
      </trkpt>
      <trkpt lat="43.14662" lon="-0.42014">
        <ele>478.87</ele>
        <time>2021-08-20T05:05:39Z</time>
      </trkpt>
      <trkpt lat="43.14705" lon="-0.4204">
        <ele>477.91</ele>
        <time>2021-08-20T05:05:48Z</time>
      </trkpt>
      <trkpt lat="43.14744" lon="-0.42071">
        <ele>475.99</ele>
        <time>2021-08-20T05:05:56Z</time>
      </trkpt>
      <trkpt lat="43.14778" lon="-0.42099">
        <ele>473.11</ele>
        <time>2021-08-20T05:06:02Z</time>
      </trkpt>
      <trkpt lat="43.14833" lon="-0.4214">
        <ele>471.18</ele>
        <time>2021-08-20T05:06:11Z</time>
      </trkpt>
      <trkpt lat="43.14886" lon="-0.42182">
        <ele>469.26</ele>
        <time>2021-08-20T05:06:20Z</time>
      </trkpt>
      <trkpt lat="43.14898" lon="-0.42192">
        <ele>468.78</ele>
        <time>2021-08-20T05:06:22Z</time>
      </trkpt>
      <trkpt lat="43.14947" lon="-0.42232">
        <ele>468.3</ele>
        <time>2021-08-20T05:06:31Z</time>
      </trkpt>
      <trkpt lat="43.14978" lon="-0.4226">
        <ele>467.82</ele>
        <time>2021-08-20T05:06:38Z</time>
      </trkpt>
      <trkpt lat="43.14986" lon="-0.42267">
        <ele>467.82</ele>
        <time>2021-08-20T05:06:40Z</time>
      </trkpt>
      <trkpt lat="43.1499" lon="-0.42271">
        <ele>467.82</ele>
        <time>2021-08-20T05:06:41Z</time>
      </trkpt>
      <trkpt lat="43.15033" lon="-0.42311">
        <ele>467.34</ele>
        <time>2021-08-20T05:06:51Z</time>
      </trkpt>
      <trkpt lat="43.15077" lon="-0.42353">
        <ele>467.34</ele>
        <time>2021-08-20T05:07:01Z</time>
      </trkpt>
      <trkpt lat="43.15105" lon="-0.42379">
        <ele>468.78</ele>
        <time>2021-08-20T05:07:09Z</time>
      </trkpt>
      <trkpt lat="43.15126" lon="-0.42398">
        <ele>470.22</ele>
        <time>2021-08-20T05:07:16Z</time>
      </trkpt>
      <trkpt lat="43.15154" lon="-0.42423">
        <ele>471.66</ele>
        <time>2021-08-20T05:07:26Z</time>
      </trkpt>
      <trkpt lat="43.15175" lon="-0.42442">
        <ele>472.63</ele>
        <time>2021-08-20T05:07:34Z</time>
      </trkpt>
      <trkpt lat="43.15197" lon="-0.42456">
        <ele>473.11</ele>
        <time>2021-08-20T05:07:41Z</time>
      </trkpt>
      <trkpt lat="43.15223" lon="-0.42479">
        <ele>473.59</ele>
        <time>2021-08-20T05:07:49Z</time>
      </trkpt>
      <trkpt lat="43.15231" lon="-0.42485">
        <ele>473.59</ele>
        <time>2021-08-20T05:07:51Z</time>
      </trkpt>
      <trkpt lat="43.15235" lon="-0.42488">
        <ele>472.14</ele>
        <time>2021-08-20T05:07:52Z</time>
      </trkpt>
      <trkpt lat="43.1524" lon="-0.4249">
        <ele>472.14</ele>
        <time>2021-08-20T05:07:53Z</time>
      </trkpt>
      <trkpt lat="43.15284" lon="-0.4251">
        <ele>469.74</ele>
        <time>2021-08-20T05:08:01Z</time>
      </trkpt>
      <trkpt lat="43.15328" lon="-0.42521">
        <ele>467.82</ele>
        <time>2021-08-20T05:08:08Z</time>
      </trkpt>
      <trkpt lat="43.15341" lon="-0.42522">
        <ele>466.86</ele>
        <time>2021-08-20T05:08:10Z</time>
      </trkpt>
      <trkpt lat="43.15361" lon="-0.42521">
        <ele>466.38</ele>
        <time>2021-08-20T05:08:13Z</time>
      </trkpt>
      <trkpt lat="43.15405" lon="-0.42511">
        <ele>463.01</ele>
        <time>2021-08-20T05:08:19Z</time>
      </trkpt>
      <trkpt lat="43.15457" lon="-0.42503">
        <ele>462.53</ele>
        <time>2021-08-20T05:08:26Z</time>
      </trkpt>
      <trkpt lat="43.15505" lon="-0.42502">
        <ele>462.05</ele>
        <time>2021-08-20T05:08:33Z</time>
      </trkpt>
      <trkpt lat="43.15573" lon="-0.42509">
        <ele>460.13</ele>
        <time>2021-08-20T05:08:42Z</time>
      </trkpt>
      <trkpt lat="43.15612" lon="-0.42514">
        <ele>459.65</ele>
        <time>2021-08-20T05:08:48Z</time>
      </trkpt>
      <trkpt lat="43.1565" lon="-0.42521">
        <ele>459.65</ele>
        <time>2021-08-20T05:08:54Z</time>
      </trkpt>
      <trkpt lat="43.15698" lon="-0.42533">
        <ele>459.65</ele>
        <time>2021-08-20T05:09:03Z</time>
      </trkpt>
      <trkpt lat="43.15719" lon="-0.42538">
        <ele>459.65</ele>
        <time>2021-08-20T05:09:07Z</time>
      </trkpt>
      <trkpt lat="43.1573" lon="-0.42541">
        <ele>459.65</ele>
        <time>2021-08-20T05:09:09Z</time>
      </trkpt>
      <trkpt lat="43.15773" lon="-0.42554">
        <ele>458.69</ele>
        <time>2021-08-20T05:09:16Z</time>
      </trkpt>
      <trkpt lat="43.15791" lon="-0.42559">
        <ele>458.21</ele>
        <time>2021-08-20T05:09:19Z</time>
      </trkpt>
      <trkpt lat="43.15834" lon="-0.42572">
        <ele>457.24</ele>
        <time>2021-08-20T05:09:26Z</time>
      </trkpt>
      <trkpt lat="43.15899" lon="-0.42589">
        <ele>456.28</ele>
        <time>2021-08-20T05:09:36Z</time>
      </trkpt>
      <trkpt lat="43.15934" lon="-0.42598">
        <ele>457.24</ele>
        <time>2021-08-20T05:09:42Z</time>
      </trkpt>
      <trkpt lat="43.15957" lon="-0.42605">
        <ele>459.65</ele>
        <time>2021-08-20T05:09:48Z</time>
      </trkpt>
      <trkpt lat="43.15975" lon="-0.4261">
        <ele>461.09</ele>
        <time>2021-08-20T05:09:55Z</time>
      </trkpt>
      <trkpt lat="43.15999" lon="-0.42608">
        <ele>461.57</ele>
        <time>2021-08-20T05:10:04Z</time>
      </trkpt>
      <trkpt lat="43.16006" lon="-0.42608">
        <ele>462.05</ele>
        <time>2021-08-20T05:10:07Z</time>
      </trkpt>
      <trkpt lat="43.16007" lon="-0.4261">
        <ele>462.05</ele>
        <time>2021-08-20T05:10:08Z</time>
      </trkpt>
      <trkpt lat="43.16008" lon="-0.42613">
        <ele>462.53</ele>
        <time>2021-08-20T05:10:09Z</time>
      </trkpt>
      <trkpt lat="43.1601" lon="-0.42616">
        <ele>462.53</ele>
        <time>2021-08-20T05:10:10Z</time>
      </trkpt>
      <trkpt lat="43.1601" lon="-0.42619">
        <ele>462.53</ele>
        <time>2021-08-20T05:10:11Z</time>
      </trkpt>
      <trkpt lat="43.16011" lon="-0.42622">
        <ele>462.53</ele>
        <time>2021-08-20T05:10:12Z</time>
      </trkpt>
      <trkpt lat="43.16011" lon="-0.42626">
        <ele>463.01</ele>
        <time>2021-08-20T05:10:13Z</time>
      </trkpt>
      <trkpt lat="43.16012" lon="-0.42629">
        <ele>463.01</ele>
        <time>2021-08-20T05:10:14Z</time>
      </trkpt>
      <trkpt lat="43.16012" lon="-0.42633">
        <ele>463.01</ele>
        <time>2021-08-20T05:10:15Z</time>
      </trkpt>
      <trkpt lat="43.16017" lon="-0.42666">
        <ele>464.93</ele>
        <time>2021-08-20T05:10:26Z</time>
      </trkpt>
      <trkpt lat="43.16021" lon="-0.42698">
        <ele>466.38</ele>
        <time>2021-08-20T05:10:36Z</time>
      </trkpt>
      <trkpt lat="43.16022" lon="-0.42725">
        <ele>467.34</ele>
        <time>2021-08-20T05:10:45Z</time>
      </trkpt>
      <trkpt lat="43.16021" lon="-0.42752">
        <ele>468.78</ele>
        <time>2021-08-20T05:10:54Z</time>
      </trkpt>
      <trkpt lat="43.16016" lon="-0.4278">
        <ele>470.22</ele>
        <time>2021-08-20T05:11:03Z</time>
      </trkpt>
      <trkpt lat="43.16012" lon="-0.42801">
        <ele>471.18</ele>
        <time>2021-08-20T05:11:10Z</time>
      </trkpt>
      <trkpt lat="43.16005" lon="-0.42826">
        <ele>472.14</ele>
        <time>2021-08-20T05:11:18Z</time>
      </trkpt>
      <trkpt lat="43.15997" lon="-0.42855">
        <ele>473.59</ele>
        <time>2021-08-20T05:11:27Z</time>
      </trkpt>
      <trkpt lat="43.15988" lon="-0.42874">
        <ele>474.55</ele>
        <time>2021-08-20T05:11:34Z</time>
      </trkpt>
      <trkpt lat="43.15977" lon="-0.42897">
        <ele>475.99</ele>
        <time>2021-08-20T05:11:42Z</time>
      </trkpt>
      <trkpt lat="43.1597" lon="-0.42927">
        <ele>476.95</ele>
        <time>2021-08-20T05:11:50Z</time>
      </trkpt>
      <trkpt lat="43.15967" lon="-0.4297">
        <ele>477.91</ele>
        <time>2021-08-20T05:12:00Z</time>
      </trkpt>
      <trkpt lat="43.15964" lon="-0.43024">
        <ele>478.39</ele>
        <time>2021-08-20T05:12:11Z</time>
      </trkpt>
      <trkpt lat="43.15961" lon="-0.43084">
        <ele>479.35</ele>
        <time>2021-08-20T05:12:22Z</time>
      </trkpt>
      <trkpt lat="43.15958" lon="-0.43138">
        <ele>477.91</ele>
        <time>2021-08-20T05:12:30Z</time>
      </trkpt>
      <trkpt lat="43.15955" lon="-0.43191">
        <ele>475.51</ele>
        <time>2021-08-20T05:12:36Z</time>
      </trkpt>
      <trkpt lat="43.15953" lon="-0.43271">
        <ele>474.55</ele>
        <time>2021-08-20T05:12:45Z</time>
      </trkpt>
      <trkpt lat="43.15955" lon="-0.43336">
        <ele>476.47</ele>
        <time>2021-08-20T05:12:54Z</time>
      </trkpt>
      <trkpt lat="43.15958" lon="-0.43393">
        <ele>476.95</ele>
        <time>2021-08-20T05:13:02Z</time>
      </trkpt>
      <trkpt lat="43.15967" lon="-0.43458">
        <ele>476.95</ele>
        <time>2021-08-20T05:13:11Z</time>
      </trkpt>
      <trkpt lat="43.1599" lon="-0.43507">
        <ele>477.43</ele>
        <time>2021-08-20T05:13:19Z</time>
      </trkpt>
      <trkpt lat="43.16013" lon="-0.43552">
        <ele>477.43</ele>
        <time>2021-08-20T05:13:27Z</time>
      </trkpt>
      <trkpt lat="43.16015" lon="-0.43558">
        <ele>477.43</ele>
        <time>2021-08-20T05:13:28Z</time>
      </trkpt>
      <trkpt lat="43.16033" lon="-0.43613">
        <ele>474.07</ele>
        <time>2021-08-20T05:13:35Z</time>
      </trkpt>
      <trkpt lat="43.16052" lon="-0.43689">
        <ele>471.66</ele>
        <time>2021-08-20T05:13:43Z</time>
      </trkpt>
      <trkpt lat="43.16074" lon="-0.43782">
        <ele>468.3</ele>
        <time>2021-08-20T05:13:51Z</time>
      </trkpt>
      <trkpt lat="43.16093" lon="-0.43889">
        <ele>466.38</ele>
        <time>2021-08-20T05:14:00Z</time>
      </trkpt>
      <trkpt lat="43.16089" lon="-0.43965">
        <ele>464.45</ele>
        <time>2021-08-20T05:14:06Z</time>
      </trkpt>
      <trkpt lat="43.16088" lon="-0.44019">
        <ele>462.05</ele>
        <time>2021-08-20T05:14:10Z</time>
      </trkpt>
      <trkpt lat="43.16089" lon="-0.44031">
        <ele>461.09</ele>
        <time>2021-08-20T05:14:11Z</time>
      </trkpt>
      <trkpt lat="43.16092" lon="-0.44045">
        <ele>461.09</ele>
        <time>2021-08-20T05:14:12Z</time>
      </trkpt>
      <trkpt lat="43.1612" lon="-0.44156">
        <ele>459.17</ele>
        <time>2021-08-20T05:14:21Z</time>
      </trkpt>
      <trkpt lat="43.16148" lon="-0.44259">
        <ele>457.24</ele>
        <time>2021-08-20T05:14:30Z</time>
      </trkpt>
      <trkpt lat="43.16176" lon="-0.44322">
        <ele>457.24</ele>
        <time>2021-08-20T05:14:37Z</time>
      </trkpt>
      <trkpt lat="43.16214" lon="-0.4439">
        <ele>458.69</ele>
        <time>2021-08-20T05:14:46Z</time>
      </trkpt>
      <trkpt lat="43.16242" lon="-0.44427">
        <ele>461.09</ele>
        <time>2021-08-20T05:14:53Z</time>
      </trkpt>
      <trkpt lat="43.16261" lon="-0.44462">
        <ele>462.05</ele>
        <time>2021-08-20T05:15:00Z</time>
      </trkpt>
      <trkpt lat="43.16268" lon="-0.44491">
        <ele>462.53</ele>
        <time>2021-08-20T05:15:05Z</time>
      </trkpt>
      <trkpt lat="43.16269" lon="-0.44498">
        <ele>462.53</ele>
        <time>2021-08-20T05:15:06Z</time>
      </trkpt>
      <trkpt lat="43.16272" lon="-0.44544">
        <ele>461.09</ele>
        <time>2021-08-20T05:15:12Z</time>
      </trkpt>
      <trkpt lat="43.16279" lon="-0.4462">
        <ele>460.13</ele>
        <time>2021-08-20T05:15:21Z</time>
      </trkpt>
      <trkpt lat="43.16286" lon="-0.44706">
        <ele>457.24</ele>
        <time>2021-08-20T05:15:30Z</time>
      </trkpt>
      <trkpt lat="43.16286" lon="-0.44777">
        <ele>453.88</ele>
        <time>2021-08-20T05:15:36Z</time>
      </trkpt>
      <trkpt lat="43.16285" lon="-0.44841">
        <ele>450.52</ele>
        <time>2021-08-20T05:15:41Z</time>
      </trkpt>
      <trkpt lat="43.16284" lon="-0.44854">
        <ele>450.52</ele>
        <time>2021-08-20T05:15:42Z</time>
      </trkpt>
      <trkpt lat="43.16282" lon="-0.44911">
        <ele>447.15</ele>
        <time>2021-08-20T05:15:46Z</time>
      </trkpt>
      <trkpt lat="43.16277" lon="-0.44993">
        <ele>445.71</ele>
        <time>2021-08-20T05:15:52Z</time>
      </trkpt>
      <trkpt lat="43.16265" lon="-0.45056">
        <ele>442.34</ele>
        <time>2021-08-20T05:15:58Z</time>
      </trkpt>
      <trkpt lat="43.16264" lon="-0.45077">
        <ele>442.34</ele>
        <time>2021-08-20T05:16:02Z</time>
      </trkpt>
      <trkpt lat="43.16264" lon="-0.45078">
        <ele>442.34</ele>
        <time>2021-08-20T05:16:03Z</time>
      </trkpt>
      <trkpt lat="43.16265" lon="-0.45078">
        <ele>442.34</ele>
        <time>2021-08-20T05:16:07Z</time>
      </trkpt>
      <trkpt lat="43.16268" lon="-0.45082">
        <ele>442.34</ele>
        <time>2021-08-20T05:16:12Z</time>
      </trkpt>
      <trkpt lat="43.16269" lon="-0.45086">
        <ele>441.86</ele>
        <time>2021-08-20T05:16:13Z</time>
      </trkpt>
      <trkpt lat="43.1627" lon="-0.4509">
        <ele>441.86</ele>
        <time>2021-08-20T05:16:14Z</time>
      </trkpt>
      <trkpt lat="43.16269" lon="-0.45093">
        <ele>441.86</ele>
        <time>2021-08-20T05:16:15Z</time>
      </trkpt>
      <trkpt lat="43.16269" lon="-0.45097">
        <ele>441.86</ele>
        <time>2021-08-20T05:16:16Z</time>
      </trkpt>
      <trkpt lat="43.16268" lon="-0.45099">
        <ele>441.86</ele>
        <time>2021-08-20T05:16:17Z</time>
      </trkpt>
      <trkpt lat="43.16261" lon="-0.45127">
        <ele>441.86</ele>
        <time>2021-08-20T05:16:24Z</time>
      </trkpt>
      <trkpt lat="43.16256" lon="-0.45164">
        <ele>442.82</ele>
        <time>2021-08-20T05:16:31Z</time>
      </trkpt>
      <trkpt lat="43.16258" lon="-0.4519">
        <ele>444.27</ele>
        <time>2021-08-20T05:16:37Z</time>
      </trkpt>
      <trkpt lat="43.16261" lon="-0.45231">
        <ele>445.23</ele>
        <time>2021-08-20T05:16:47Z</time>
      </trkpt>
      <trkpt lat="43.16263" lon="-0.45277">
        <ele>446.19</ele>
        <time>2021-08-20T05:16:57Z</time>
      </trkpt>
      <trkpt lat="43.16265" lon="-0.45331">
        <ele>443.79</ele>
        <time>2021-08-20T05:17:04Z</time>
      </trkpt>
      <trkpt lat="43.16268" lon="-0.45403">
        <ele>440.42</ele>
        <time>2021-08-20T05:17:11Z</time>
      </trkpt>
      <trkpt lat="43.1627" lon="-0.45427">
        <ele>439.46</ele>
        <time>2021-08-20T05:17:13Z</time>
      </trkpt>
      <trkpt lat="43.16286" lon="-0.45501">
        <ele>438.5</ele>
        <time>2021-08-20T05:17:20Z</time>
      </trkpt>
      <trkpt lat="43.16297" lon="-0.45545">
        <ele>441.38</ele>
        <time>2021-08-20T05:17:26Z</time>
      </trkpt>
      <trkpt lat="43.16309" lon="-0.45609">
        <ele>439.46</ele>
        <time>2021-08-20T05:17:34Z</time>
      </trkpt>
      <trkpt lat="43.16318" lon="-0.45659">
        <ele>437.06</ele>
        <time>2021-08-20T05:17:39Z</time>
      </trkpt>
      <trkpt lat="43.16331" lon="-0.45749">
        <ele>435.13</ele>
        <time>2021-08-20T05:17:47Z</time>
      </trkpt>
      <trkpt lat="43.16333" lon="-0.45757">
        <ele>434.65</ele>
        <time>2021-08-20T05:17:48Z</time>
      </trkpt>
      <trkpt lat="43.16336" lon="-0.45766">
        <ele>434.65</ele>
        <time>2021-08-20T05:17:49Z</time>
      </trkpt>
      <trkpt lat="43.16339" lon="-0.45774">
        <ele>434.65</ele>
        <time>2021-08-20T05:17:50Z</time>
      </trkpt>
      <trkpt lat="43.16342" lon="-0.45782">
        <ele>434.17</ele>
        <time>2021-08-20T05:17:51Z</time>
      </trkpt>
      <trkpt lat="43.16345" lon="-0.45792">
        <ele>433.69</ele>
        <time>2021-08-20T05:17:52Z</time>
      </trkpt>
      <trkpt lat="43.16347" lon="-0.458">
        <ele>433.69</ele>
        <time>2021-08-20T05:17:53Z</time>
      </trkpt>
      <trkpt lat="43.16352" lon="-0.45824">
        <ele>437.06</ele>
        <time>2021-08-20T05:17:57Z</time>
      </trkpt>
      <trkpt lat="43.16357" lon="-0.45837">
        <ele>438.98</ele>
        <time>2021-08-20T05:18:03Z</time>
      </trkpt>
      <trkpt lat="43.16364" lon="-0.45857">
        <ele>439.94</ele>
        <time>2021-08-20T05:18:10Z</time>
      </trkpt>
      <trkpt lat="43.16376" lon="-0.45886">
        <ele>440.42</ele>
        <time>2021-08-20T05:18:18Z</time>
      </trkpt>
      <trkpt lat="43.16394" lon="-0.45927">
        <ele>441.38</ele>
        <time>2021-08-20T05:18:28Z</time>
      </trkpt>
      <trkpt lat="43.16401" lon="-0.45966">
        <ele>442.34</ele>
        <time>2021-08-20T05:18:36Z</time>
      </trkpt>
      <trkpt lat="43.1641" lon="-0.46003">
        <ele>442.34</ele>
        <time>2021-08-20T05:18:44Z</time>
      </trkpt>
      <trkpt lat="43.16423" lon="-0.46055">
        <ele>442.34</ele>
        <time>2021-08-20T05:18:53Z</time>
      </trkpt>
      <trkpt lat="43.16431" lon="-0.46099">
        <ele>443.31</ele>
        <time>2021-08-20T05:19:01Z</time>
      </trkpt>
      <trkpt lat="43.16434" lon="-0.46121">
        <ele>443.79</ele>
        <time>2021-08-20T05:19:05Z</time>
      </trkpt>
      <trkpt lat="43.16434" lon="-0.46126">
        <ele>443.79</ele>
        <time>2021-08-20T05:19:06Z</time>
      </trkpt>
      <trkpt lat="43.16435" lon="-0.46131">
        <ele>443.79</ele>
        <time>2021-08-20T05:19:07Z</time>
      </trkpt>
      <trkpt lat="43.16449" lon="-0.46179">
        <ele>444.75</ele>
        <time>2021-08-20T05:19:16Z</time>
      </trkpt>
      <trkpt lat="43.16459" lon="-0.4621">
        <ele>445.71</ele>
        <time>2021-08-20T05:19:22Z</time>
      </trkpt>
      <trkpt lat="43.16463" lon="-0.46217">
        <ele>445.71</ele>
        <time>2021-08-20T05:19:27Z</time>
      </trkpt>
      <trkpt lat="43.16462" lon="-0.46216">
        <ele>445.71</ele>
        <time>2021-08-20T05:19:30Z</time>
      </trkpt>
      <trkpt lat="43.16458" lon="-0.46212">
        <ele>445.71</ele>
        <time>2021-08-20T05:19:33Z</time>
      </trkpt>
      <trkpt lat="43.16457" lon="-0.46215">
        <ele>446.19</ele>
        <time>2021-08-20T05:19:37Z</time>
      </trkpt>
      <trkpt lat="43.16457" lon="-0.4622">
        <ele>446.67</ele>
        <time>2021-08-20T05:19:40Z</time>
      </trkpt>
      <trkpt lat="43.16457" lon="-0.46225">
        <ele>446.67</ele>
        <time>2021-08-20T05:19:47Z</time>
      </trkpt>
      <trkpt lat="43.16458" lon="-0.46231">
        <ele>447.15</ele>
        <time>2021-08-20T05:19:52Z</time>
      </trkpt>
      <trkpt lat="43.16459" lon="-0.46233">
        <ele>447.15</ele>
        <time>2021-08-20T05:19:53Z</time>
      </trkpt>
      <trkpt lat="43.16459" lon="-0.46235">
        <ele>447.15</ele>
        <time>2021-08-20T05:19:54Z</time>
      </trkpt>
      <trkpt lat="43.16465" lon="-0.46257">
        <ele>449.07</ele>
        <time>2021-08-20T05:20:02Z</time>
      </trkpt>
      <trkpt lat="43.16471" lon="-0.46277">
        <ele>450.52</ele>
        <time>2021-08-20T05:20:10Z</time>
      </trkpt>
      <trkpt lat="43.16482" lon="-0.463">
        <ele>451.96</ele>
        <time>2021-08-20T05:20:20Z</time>
      </trkpt>
      <trkpt lat="43.1649" lon="-0.46314">
        <ele>453.4</ele>
        <time>2021-08-20T05:20:27Z</time>
      </trkpt>
      <trkpt lat="43.16493" lon="-0.46322">
        <ele>453.88</ele>
        <time>2021-08-20T05:20:31Z</time>
      </trkpt>
      <trkpt lat="43.16494" lon="-0.46325">
        <ele>453.88</ele>
        <time>2021-08-20T05:20:32Z</time>
      </trkpt>
      <trkpt lat="43.16495" lon="-0.46327">
        <ele>453.88</ele>
        <time>2021-08-20T05:20:33Z</time>
      </trkpt>
      <trkpt lat="43.16496" lon="-0.46329">
        <ele>454.36</ele>
        <time>2021-08-20T05:20:34Z</time>
      </trkpt>
      <trkpt lat="43.16496" lon="-0.46331">
        <ele>454.36</ele>
        <time>2021-08-20T05:20:35Z</time>
      </trkpt>
      <trkpt lat="43.16497" lon="-0.46333">
        <ele>454.84</ele>
        <time>2021-08-20T05:20:36Z</time>
      </trkpt>
      <trkpt lat="43.16501" lon="-0.46351">
        <ele>455.8</ele>
        <time>2021-08-20T05:20:44Z</time>
      </trkpt>
      <trkpt lat="43.16495" lon="-0.46364">
        <ele>456.76</ele>
        <time>2021-08-20T05:20:52Z</time>
      </trkpt>
      <trkpt lat="43.16488" lon="-0.46372">
        <ele>457.72</ele>
        <time>2021-08-20T05:20:57Z</time>
      </trkpt>
      <trkpt lat="43.16477" lon="-0.46393">
        <ele>457.72</ele>
        <time>2021-08-20T05:21:05Z</time>
      </trkpt>
      <trkpt lat="43.16474" lon="-0.46406">
        <ele>458.21</ele>
        <time>2021-08-20T05:21:08Z</time>
      </trkpt>
      <trkpt lat="43.16474" lon="-0.4641">
        <ele>458.21</ele>
        <time>2021-08-20T05:21:09Z</time>
      </trkpt>
      <trkpt lat="43.16474" lon="-0.46414">
        <ele>458.21</ele>
        <time>2021-08-20T05:21:10Z</time>
      </trkpt>
      <trkpt lat="43.16473" lon="-0.46419">
        <ele>458.21</ele>
        <time>2021-08-20T05:21:11Z</time>
      </trkpt>
      <trkpt lat="43.16473" lon="-0.46423">
        <ele>458.21</ele>
        <time>2021-08-20T05:21:12Z</time>
      </trkpt>
      <trkpt lat="43.16467" lon="-0.46444">
        <ele>458.21</ele>
        <time>2021-08-20T05:21:18Z</time>
      </trkpt>
      <trkpt lat="43.16465" lon="-0.46446">
        <ele>458.21</ele>
        <time>2021-08-20T05:21:19Z</time>
      </trkpt>
      <trkpt lat="43.16462" lon="-0.46447">
        <ele>458.21</ele>
        <time>2021-08-20T05:21:20Z</time>
      </trkpt>
      <trkpt lat="43.16459" lon="-0.46448">
        <ele>458.21</ele>
        <time>2021-08-20T05:21:21Z</time>
      </trkpt>
      <trkpt lat="43.16456" lon="-0.46449">
        <ele>458.21</ele>
        <time>2021-08-20T05:21:22Z</time>
      </trkpt>
      <trkpt lat="43.16453" lon="-0.46448">
        <ele>456.28</ele>
        <time>2021-08-20T05:21:23Z</time>
      </trkpt>
      <trkpt lat="43.16437" lon="-0.46451">
        <ele>453.88</ele>
        <time>2021-08-20T05:21:27Z</time>
      </trkpt>
      <trkpt lat="43.16433" lon="-0.46453">
        <ele>452.92</ele>
        <time>2021-08-20T05:21:28Z</time>
      </trkpt>
      <trkpt lat="43.16424" lon="-0.46461">
        <ele>451.48</ele>
        <time>2021-08-20T05:21:30Z</time>
      </trkpt>
      <trkpt lat="43.16421" lon="-0.46466">
        <ele>450.52</ele>
        <time>2021-08-20T05:21:31Z</time>
      </trkpt>
      <trkpt lat="43.16401" lon="-0.46496">
        <ele>447.63</ele>
        <time>2021-08-20T05:21:36Z</time>
      </trkpt>
      <trkpt lat="43.16397" lon="-0.46504">
        <ele>447.15</ele>
        <time>2021-08-20T05:21:37Z</time>
      </trkpt>
      <trkpt lat="43.16393" lon="-0.46513">
        <ele>447.15</ele>
        <time>2021-08-20T05:21:38Z</time>
      </trkpt>
      <trkpt lat="43.16376" lon="-0.46548">
        <ele>444.27</ele>
        <time>2021-08-20T05:21:42Z</time>
      </trkpt>
      <trkpt lat="43.16373" lon="-0.46559">
        <ele>444.27</ele>
        <time>2021-08-20T05:21:43Z</time>
      </trkpt>
      <trkpt lat="43.16355" lon="-0.46635">
        <ele>440.9</ele>
        <time>2021-08-20T05:21:50Z</time>
      </trkpt>
      <trkpt lat="43.16347" lon="-0.46669">
        <ele>439.46</ele>
        <time>2021-08-20T05:21:53Z</time>
      </trkpt>
      <trkpt lat="43.16342" lon="-0.46697">
        <ele>437.54</ele>
        <time>2021-08-20T05:21:56Z</time>
      </trkpt>
      <trkpt lat="43.16342" lon="-0.46706">
        <ele>436.58</ele>
        <time>2021-08-20T05:21:57Z</time>
      </trkpt>
      <trkpt lat="43.1634" lon="-0.46734">
        <ele>435.13</ele>
        <time>2021-08-20T05:22:00Z</time>
      </trkpt>
      <trkpt lat="43.16338" lon="-0.46742">
        <ele>434.17</ele>
        <time>2021-08-20T05:22:01Z</time>
      </trkpt>
      <trkpt lat="43.16334" lon="-0.46758">
        <ele>433.21</ele>
        <time>2021-08-20T05:22:03Z</time>
      </trkpt>
      <trkpt lat="43.1633" lon="-0.46788">
        <ele>430.33</ele>
        <time>2021-08-20T05:22:07Z</time>
      </trkpt>
      <trkpt lat="43.16328" lon="-0.46823">
        <ele>427.92</ele>
        <time>2021-08-20T05:22:12Z</time>
      </trkpt>
      <trkpt lat="43.16326" lon="-0.46836">
        <ele>426.48</ele>
        <time>2021-08-20T05:22:14Z</time>
      </trkpt>
      <trkpt lat="43.16324" lon="-0.46843">
        <ele>426</ele>
        <time>2021-08-20T05:22:15Z</time>
      </trkpt>
      <trkpt lat="43.1632" lon="-0.46864">
        <ele>424.56</ele>
        <time>2021-08-20T05:22:18Z</time>
      </trkpt>
      <trkpt lat="43.16312" lon="-0.46889">
        <ele>422.16</ele>
        <time>2021-08-20T05:22:23Z</time>
      </trkpt>
      <trkpt lat="43.1631" lon="-0.4689">
        <ele>421.68</ele>
        <time>2021-08-20T05:22:24Z</time>
      </trkpt>
      <trkpt lat="43.16308" lon="-0.4689">
        <ele>421.19</ele>
        <time>2021-08-20T05:22:25Z</time>
      </trkpt>
      <trkpt lat="43.16306" lon="-0.46889">
        <ele>420.71</ele>
        <time>2021-08-20T05:22:26Z</time>
      </trkpt>
      <trkpt lat="43.16306" lon="-0.46886">
        <ele>420.71</ele>
        <time>2021-08-20T05:22:27Z</time>
      </trkpt>
      <trkpt lat="43.16305" lon="-0.46884">
        <ele>420.23</ele>
        <time>2021-08-20T05:22:28Z</time>
      </trkpt>
      <trkpt lat="43.16305" lon="-0.4688">
        <ele>419.27</ele>
        <time>2021-08-20T05:22:29Z</time>
      </trkpt>
      <trkpt lat="43.16302" lon="-0.46865">
        <ele>416.87</ele>
        <time>2021-08-20T05:22:32Z</time>
      </trkpt>
      <trkpt lat="43.163" lon="-0.4686">
        <ele>415.91</ele>
        <time>2021-08-20T05:22:33Z</time>
      </trkpt>
      <trkpt lat="43.16299" lon="-0.46856">
        <ele>415.43</ele>
        <time>2021-08-20T05:22:34Z</time>
      </trkpt>
      <trkpt lat="43.16297" lon="-0.46853">
        <ele>414.47</ele>
        <time>2021-08-20T05:22:35Z</time>
      </trkpt>
      <trkpt lat="43.16294" lon="-0.46849">
        <ele>413.98</ele>
        <time>2021-08-20T05:22:36Z</time>
      </trkpt>
      <trkpt lat="43.1629" lon="-0.46845">
        <ele>413.02</ele>
        <time>2021-08-20T05:22:37Z</time>
      </trkpt>
      <trkpt lat="43.16287" lon="-0.46842">
        <ele>412.54</ele>
        <time>2021-08-20T05:22:38Z</time>
      </trkpt>
      <trkpt lat="43.16284" lon="-0.46839">
        <ele>412.54</ele>
        <time>2021-08-20T05:22:39Z</time>
      </trkpt>
      <trkpt lat="43.16281" lon="-0.46836">
        <ele>412.06</ele>
        <time>2021-08-20T05:22:40Z</time>
      </trkpt>
      <trkpt lat="43.16276" lon="-0.46831">
        <ele>411.1</ele>
        <time>2021-08-20T05:22:42Z</time>
      </trkpt>
      <trkpt lat="43.16274" lon="-0.46828">
        <ele>410.62</ele>
        <time>2021-08-20T05:22:43Z</time>
      </trkpt>
      <trkpt lat="43.16273" lon="-0.46825">
        <ele>410.62</ele>
        <time>2021-08-20T05:22:44Z</time>
      </trkpt>
      <trkpt lat="43.16261" lon="-0.46802">
        <ele>406.77</ele>
        <time>2021-08-20T05:22:51Z</time>
      </trkpt>
      <trkpt lat="43.16247" lon="-0.46777">
        <ele>403.89</ele>
        <time>2021-08-20T05:22:57Z</time>
      </trkpt>
      <trkpt lat="43.16234" lon="-0.46757">
        <ele>402.93</ele>
        <time>2021-08-20T05:23:02Z</time>
      </trkpt>
      <trkpt lat="43.16224" lon="-0.46745">
        <ele>400.53</ele>
        <time>2021-08-20T05:23:08Z</time>
      </trkpt>
      <trkpt lat="43.16216" lon="-0.46729">
        <ele>398.6</ele>
        <time>2021-08-20T05:23:13Z</time>
      </trkpt>
      <trkpt lat="43.16214" lon="-0.46725">
        <ele>398.6</ele>
        <time>2021-08-20T05:23:14Z</time>
      </trkpt>
      <trkpt lat="43.16203" lon="-0.4671">
        <ele>398.6</ele>
        <time>2021-08-20T05:23:20Z</time>
      </trkpt>
      <trkpt lat="43.16196" lon="-0.46701">
        <ele>395.72</ele>
        <time>2021-08-20T05:23:24Z</time>
      </trkpt>
      <trkpt lat="43.16187" lon="-0.46685">
        <ele>394.28</ele>
        <time>2021-08-20T05:23:27Z</time>
      </trkpt>
      <trkpt lat="43.16186" lon="-0.46681">
        <ele>393.32</ele>
        <time>2021-08-20T05:23:28Z</time>
      </trkpt>
      <trkpt lat="43.16167" lon="-0.46654">
        <ele>390.43</ele>
        <time>2021-08-20T05:23:36Z</time>
      </trkpt>
      <trkpt lat="43.16164" lon="-0.46651">
        <ele>390.43</ele>
        <time>2021-08-20T05:23:37Z</time>
      </trkpt>
      <trkpt lat="43.16138" lon="-0.46631">
        <ele>388.51</ele>
        <time>2021-08-20T05:23:44Z</time>
      </trkpt>
      <trkpt lat="43.16132" lon="-0.46631">
        <ele>388.51</ele>
        <time>2021-08-20T05:23:46Z</time>
      </trkpt>
      <trkpt lat="43.16123" lon="-0.46638">
        <ele>388.03</ele>
        <time>2021-08-20T05:23:50Z</time>
      </trkpt>
      <trkpt lat="43.16111" lon="-0.46664">
        <ele>384.66</ele>
        <time>2021-08-20T05:23:56Z</time>
      </trkpt>
      <trkpt lat="43.16101" lon="-0.46693">
        <ele>382.74</ele>
        <time>2021-08-20T05:24:02Z</time>
      </trkpt>
      <trkpt lat="43.16094" lon="-0.4671">
        <ele>381.78</ele>
        <time>2021-08-20T05:24:08Z</time>
      </trkpt>
      <trkpt lat="43.1609" lon="-0.46721">
        <ele>380.34</ele>
        <time>2021-08-20T05:24:14Z</time>
      </trkpt>
      <trkpt lat="43.16084" lon="-0.46738">
        <ele>377.94</ele>
        <time>2021-08-20T05:24:19Z</time>
      </trkpt>
      <trkpt lat="43.16066" lon="-0.46769">
        <ele>374.57</ele>
        <time>2021-08-20T05:24:25Z</time>
      </trkpt>
      <trkpt lat="43.16063" lon="-0.46773">
        <ele>374.57</ele>
        <time>2021-08-20T05:24:26Z</time>
      </trkpt>
      <trkpt lat="43.16041" lon="-0.46802">
        <ele>371.21</ele>
        <time>2021-08-20T05:24:33Z</time>
      </trkpt>
      <trkpt lat="43.1603" lon="-0.46812">
        <ele>371.21</ele>
        <time>2021-08-20T05:24:37Z</time>
      </trkpt>
      <trkpt lat="43.16025" lon="-0.46815">
        <ele>370.73</ele>
        <time>2021-08-20T05:24:38Z</time>
      </trkpt>
      <trkpt lat="43.15993" lon="-0.46835">
        <ele>368.8</ele>
        <time>2021-08-20T05:24:45Z</time>
      </trkpt>
      <trkpt lat="43.15979" lon="-0.46857">
        <ele>367.84</ele>
        <time>2021-08-20T05:24:51Z</time>
      </trkpt>
      <trkpt lat="43.15976" lon="-0.46872">
        <ele>366.88</ele>
        <time>2021-08-20T05:24:54Z</time>
      </trkpt>
      <trkpt lat="43.15974" lon="-0.46877">
        <ele>366.88</ele>
        <time>2021-08-20T05:24:55Z</time>
      </trkpt>
      <trkpt lat="43.15968" lon="-0.46886">
        <ele>365.92</ele>
        <time>2021-08-20T05:24:57Z</time>
      </trkpt>
      <trkpt lat="43.15935" lon="-0.46914">
        <ele>362.55</ele>
        <time>2021-08-20T05:25:04Z</time>
      </trkpt>
      <trkpt lat="43.1593" lon="-0.46919">
        <ele>362.55</ele>
        <time>2021-08-20T05:25:05Z</time>
      </trkpt>
      <trkpt lat="43.15876" lon="-0.46965">
        <ele>360.15</ele>
        <time>2021-08-20T05:25:15Z</time>
      </trkpt>
      <trkpt lat="43.15846" lon="-0.46988">
        <ele>357.75</ele>
        <time>2021-08-20T05:25:20Z</time>
      </trkpt>
      <trkpt lat="43.15839" lon="-0.46991">
        <ele>357.27</ele>
        <time>2021-08-20T05:25:21Z</time>
      </trkpt>
      <trkpt lat="43.15818" lon="-0.47">
        <ele>356.31</ele>
        <time>2021-08-20T05:25:24Z</time>
      </trkpt>
      <trkpt lat="43.15812" lon="-0.47005">
        <ele>355.83</ele>
        <time>2021-08-20T05:25:25Z</time>
      </trkpt>
      <trkpt lat="43.15794" lon="-0.4702">
        <ele>354.38</ele>
        <time>2021-08-20T05:25:28Z</time>
      </trkpt>
      <trkpt lat="43.15788" lon="-0.47023">
        <ele>354.86</ele>
        <time>2021-08-20T05:25:29Z</time>
      </trkpt>
      <trkpt lat="43.15783" lon="-0.47025">
        <ele>354.86</ele>
        <time>2021-08-20T05:25:30Z</time>
      </trkpt>
      <trkpt lat="43.15775" lon="-0.47027">
        <ele>354.86</ele>
        <time>2021-08-20T05:25:33Z</time>
      </trkpt>
      <trkpt lat="43.15774" lon="-0.47028">
        <ele>354.86</ele>
        <time>2021-08-20T05:25:34Z</time>
      </trkpt>
      <trkpt lat="43.15773" lon="-0.47029">
        <ele>354.86</ele>
        <time>2021-08-20T05:25:35Z</time>
      </trkpt>
      <trkpt lat="43.15772" lon="-0.47029">
        <ele>354.86</ele>
        <time>2021-08-20T05:25:36Z</time>
      </trkpt>
      <trkpt lat="43.15771" lon="-0.4703">
        <ele>354.86</ele>
        <time>2021-08-20T05:25:37Z</time>
      </trkpt>
      <trkpt lat="43.1577" lon="-0.47031">
        <ele>354.86</ele>
        <time>2021-08-20T05:25:38Z</time>
      </trkpt>
      <trkpt lat="43.1576" lon="-0.47041">
        <ele>354.86</ele>
        <time>2021-08-20T05:25:45Z</time>
      </trkpt>
      <trkpt lat="43.15746" lon="-0.47045">
        <ele>356.31</ele>
        <time>2021-08-20T05:25:53Z</time>
      </trkpt>
      <trkpt lat="43.15729" lon="-0.47047">
        <ele>358.23</ele>
        <time>2021-08-20T05:26:02Z</time>
      </trkpt>
      <trkpt lat="43.15709" lon="-0.47053">
        <ele>360.15</ele>
        <time>2021-08-20T05:26:12Z</time>
      </trkpt>
      <trkpt lat="43.15691" lon="-0.47057">
        <ele>361.59</ele>
        <time>2021-08-20T05:26:21Z</time>
      </trkpt>
      <trkpt lat="43.15679" lon="-0.47061">
        <ele>363.04</ele>
        <time>2021-08-20T05:26:28Z</time>
      </trkpt>
      <trkpt lat="43.15657" lon="-0.47068">
        <ele>364.48</ele>
        <time>2021-08-20T05:26:39Z</time>
      </trkpt>
      <trkpt lat="43.15635" lon="-0.47075">
        <ele>365.44</ele>
        <time>2021-08-20T05:26:49Z</time>
      </trkpt>
      <trkpt lat="43.15618" lon="-0.47079">
        <ele>365.92</ele>
        <time>2021-08-20T05:26:57Z</time>
      </trkpt>
      <trkpt lat="43.15598" lon="-0.47085">
        <ele>365.92</ele>
        <time>2021-08-20T05:27:04Z</time>
      </trkpt>
      <trkpt lat="43.15594" lon="-0.47086">
        <ele>364.96</ele>
        <time>2021-08-20T05:27:05Z</time>
      </trkpt>
      <trkpt lat="43.15589" lon="-0.47088">
        <ele>364.48</ele>
        <time>2021-08-20T05:27:06Z</time>
      </trkpt>
      <trkpt lat="43.1556" lon="-0.47098">
        <ele>360.63</ele>
        <time>2021-08-20T05:27:12Z</time>
      </trkpt>
      <trkpt lat="43.15534" lon="-0.47107">
        <ele>357.27</ele>
        <time>2021-08-20T05:27:16Z</time>
      </trkpt>
      <trkpt lat="43.15504" lon="-0.47117">
        <ele>355.34</ele>
        <time>2021-08-20T05:27:20Z</time>
      </trkpt>
      <trkpt lat="43.15473" lon="-0.47127">
        <ele>352.46</ele>
        <time>2021-08-20T05:27:24Z</time>
      </trkpt>
      <trkpt lat="43.15445" lon="-0.47141">
        <ele>351.98</ele>
        <time>2021-08-20T05:27:28Z</time>
      </trkpt>
      <trkpt lat="43.15439" lon="-0.47146">
        <ele>351.98</ele>
        <time>2021-08-20T05:27:29Z</time>
      </trkpt>
      <trkpt lat="43.15433" lon="-0.47152">
        <ele>351.98</ele>
        <time>2021-08-20T05:27:30Z</time>
      </trkpt>
      <trkpt lat="43.15404" lon="-0.47174">
        <ele>352.46</ele>
        <time>2021-08-20T05:27:36Z</time>
      </trkpt>
      <trkpt lat="43.15399" lon="-0.47175">
        <ele>352.46</ele>
        <time>2021-08-20T05:27:37Z</time>
      </trkpt>
      <trkpt lat="43.15395" lon="-0.47177">
        <ele>352.46</ele>
        <time>2021-08-20T05:27:38Z</time>
      </trkpt>
      <trkpt lat="43.15391" lon="-0.47179">
        <ele>353.42</ele>
        <time>2021-08-20T05:27:39Z</time>
      </trkpt>
      <trkpt lat="43.15388" lon="-0.47181">
        <ele>353.42</ele>
        <time>2021-08-20T05:27:40Z</time>
      </trkpt>
      <trkpt lat="43.15367" lon="-0.47199">
        <ele>353.9</ele>
        <time>2021-08-20T05:27:48Z</time>
      </trkpt>
      <trkpt lat="43.15352" lon="-0.47215">
        <ele>355.34</ele>
        <time>2021-08-20T05:27:56Z</time>
      </trkpt>
      <trkpt lat="43.15335" lon="-0.47235">
        <ele>356.79</ele>
        <time>2021-08-20T05:28:07Z</time>
      </trkpt>
      <trkpt lat="43.15314" lon="-0.4726">
        <ele>357.75</ele>
        <time>2021-08-20T05:28:18Z</time>
      </trkpt>
      <trkpt lat="43.15299" lon="-0.47278">
        <ele>358.71</ele>
        <time>2021-08-20T05:28:27Z</time>
      </trkpt>
      <trkpt lat="43.15289" lon="-0.4729">
        <ele>359.67</ele>
        <time>2021-08-20T05:28:34Z</time>
      </trkpt>
      <trkpt lat="43.15277" lon="-0.47306">
        <ele>361.11</ele>
        <time>2021-08-20T05:28:42Z</time>
      </trkpt>
      <trkpt lat="43.1527" lon="-0.47314">
        <ele>362.07</ele>
        <time>2021-08-20T05:28:47Z</time>
      </trkpt>
      <trkpt lat="43.15268" lon="-0.47316">
        <ele>362.07</ele>
        <time>2021-08-20T05:28:48Z</time>
      </trkpt>
      <trkpt lat="43.15267" lon="-0.47318">
        <ele>362.07</ele>
        <time>2021-08-20T05:28:49Z</time>
      </trkpt>
      <trkpt lat="43.15254" lon="-0.47334">
        <ele>364.96</ele>
        <time>2021-08-20T05:28:58Z</time>
      </trkpt>
      <trkpt lat="43.15241" lon="-0.47348">
        <ele>366.4</ele>
        <time>2021-08-20T05:29:07Z</time>
      </trkpt>
      <trkpt lat="43.15237" lon="-0.47353">
        <ele>366.88</ele>
        <time>2021-08-20T05:29:11Z</time>
      </trkpt>
      <trkpt lat="43.15223" lon="-0.47369">
        <ele>368.32</ele>
        <time>2021-08-20T05:29:21Z</time>
      </trkpt>
      <trkpt lat="43.15208" lon="-0.47388">
        <ele>369.28</ele>
        <time>2021-08-20T05:29:33Z</time>
      </trkpt>
      <trkpt lat="43.15194" lon="-0.47403">
        <ele>369.76</ele>
        <time>2021-08-20T05:29:42Z</time>
      </trkpt>
      <trkpt lat="43.15178" lon="-0.47422">
        <ele>370.24</ele>
        <time>2021-08-20T05:29:52Z</time>
      </trkpt>
      <trkpt lat="43.15162" lon="-0.4744">
        <ele>370.24</ele>
        <time>2021-08-20T05:30:01Z</time>
      </trkpt>
      <trkpt lat="43.15139" lon="-0.47466">
        <ele>370.24</ele>
        <time>2021-08-20T05:30:11Z</time>
      </trkpt>
      <trkpt lat="43.15118" lon="-0.4749">
        <ele>368.8</ele>
        <time>2021-08-20T05:30:19Z</time>
      </trkpt>
      <trkpt lat="43.15098" lon="-0.47511">
        <ele>368.32</ele>
        <time>2021-08-20T05:30:27Z</time>
      </trkpt>
      <trkpt lat="43.15087" lon="-0.47527">
        <ele>368.32</ele>
        <time>2021-08-20T05:30:33Z</time>
      </trkpt>
      <trkpt lat="43.15065" lon="-0.47531">
        <ele>369.76</ele>
        <time>2021-08-20T05:30:40Z</time>
      </trkpt>
      <trkpt lat="43.1504" lon="-0.47522">
        <ele>370.24</ele>
        <time>2021-08-20T05:30:48Z</time>
      </trkpt>
      <trkpt lat="43.15009" lon="-0.47505">
        <ele>370.73</ele>
        <time>2021-08-20T05:30:58Z</time>
      </trkpt>
      <trkpt lat="43.14981" lon="-0.47493">
        <ele>371.69</ele>
        <time>2021-08-20T05:31:07Z</time>
      </trkpt>
      <trkpt lat="43.1496" lon="-0.47481">
        <ele>372.17</ele>
        <time>2021-08-20T05:31:15Z</time>
      </trkpt>
      <trkpt lat="43.1493" lon="-0.47468">
        <ele>373.13</ele>
        <time>2021-08-20T05:31:24Z</time>
      </trkpt>
      <trkpt lat="43.14908" lon="-0.47464">
        <ele>373.13</ele>
        <time>2021-08-20T05:31:30Z</time>
      </trkpt>
      <trkpt lat="43.14905" lon="-0.47465">
        <ele>373.13</ele>
        <time>2021-08-20T05:31:31Z</time>
      </trkpt>
      <trkpt lat="43.14903" lon="-0.47468">
        <ele>373.13</ele>
        <time>2021-08-20T05:31:32Z</time>
      </trkpt>
      <trkpt lat="43.14903" lon="-0.47471">
        <ele>373.13</ele>
        <time>2021-08-20T05:31:33Z</time>
      </trkpt>
      <trkpt lat="43.14904" lon="-0.47475">
        <ele>373.13</ele>
        <time>2021-08-20T05:31:34Z</time>
      </trkpt>
      <trkpt lat="43.14905" lon="-0.4748">
        <ele>373.13</ele>
        <time>2021-08-20T05:31:35Z</time>
      </trkpt>
      <trkpt lat="43.14906" lon="-0.47484">
        <ele>373.13</ele>
        <time>2021-08-20T05:31:36Z</time>
      </trkpt>
      <trkpt lat="43.1491" lon="-0.47515">
        <ele>373.13</ele>
        <time>2021-08-20T05:31:42Z</time>
      </trkpt>
      <trkpt lat="43.14917" lon="-0.47545">
        <ele>373.13</ele>
        <time>2021-08-20T05:31:47Z</time>
      </trkpt>
      <trkpt lat="43.1492" lon="-0.47552">
        <ele>373.13</ele>
        <time>2021-08-20T05:31:48Z</time>
      </trkpt>
      <trkpt lat="43.14923" lon="-0.47557">
        <ele>373.13</ele>
        <time>2021-08-20T05:31:49Z</time>
      </trkpt>
      <trkpt lat="43.14926" lon="-0.47563">
        <ele>373.13</ele>
        <time>2021-08-20T05:31:50Z</time>
      </trkpt>
      <trkpt lat="43.1493" lon="-0.47567">
        <ele>373.13</ele>
        <time>2021-08-20T05:31:51Z</time>
      </trkpt>
      <trkpt lat="43.14962" lon="-0.47601">
        <ele>372.17</ele>
        <time>2021-08-20T05:31:58Z</time>
      </trkpt>
      <trkpt lat="43.15006" lon="-0.47633">
        <ele>370.73</ele>
        <time>2021-08-20T05:32:06Z</time>
      </trkpt>
      <trkpt lat="43.15017" lon="-0.47641">
        <ele>370.73</ele>
        <time>2021-08-20T05:32:08Z</time>
      </trkpt>
      <trkpt lat="43.15021" lon="-0.47647">
        <ele>370.73</ele>
        <time>2021-08-20T05:32:09Z</time>
      </trkpt>
      <trkpt lat="43.15024" lon="-0.47654">
        <ele>370.73</ele>
        <time>2021-08-20T05:32:10Z</time>
      </trkpt>
      <trkpt lat="43.15026" lon="-0.47661">
        <ele>370.73</ele>
        <time>2021-08-20T05:32:11Z</time>
      </trkpt>
      <trkpt lat="43.15025" lon="-0.47669">
        <ele>370.73</ele>
        <time>2021-08-20T05:32:12Z</time>
      </trkpt>
      <trkpt lat="43.15023" lon="-0.47676">
        <ele>370.73</ele>
        <time>2021-08-20T05:32:13Z</time>
      </trkpt>
      <trkpt lat="43.1502" lon="-0.47683">
        <ele>370.73</ele>
        <time>2021-08-20T05:32:14Z</time>
      </trkpt>
      <trkpt lat="43.15012" lon="-0.47706">
        <ele>370.24</ele>
        <time>2021-08-20T05:32:17Z</time>
      </trkpt>
      <trkpt lat="43.1501" lon="-0.47713">
        <ele>370.24</ele>
        <time>2021-08-20T05:32:18Z</time>
      </trkpt>
      <trkpt lat="43.15011" lon="-0.47722">
        <ele>370.24</ele>
        <time>2021-08-20T05:32:19Z</time>
      </trkpt>
      <trkpt lat="43.15013" lon="-0.4773">
        <ele>370.24</ele>
        <time>2021-08-20T05:32:20Z</time>
      </trkpt>
      <trkpt lat="43.15017" lon="-0.47736">
        <ele>369.76</ele>
        <time>2021-08-20T05:32:21Z</time>
      </trkpt>
      <trkpt lat="43.15022" lon="-0.4774">
        <ele>369.76</ele>
        <time>2021-08-20T05:32:22Z</time>
      </trkpt>
      <trkpt lat="43.15028" lon="-0.47743">
        <ele>369.76</ele>
        <time>2021-08-20T05:32:23Z</time>
      </trkpt>
      <trkpt lat="43.15033" lon="-0.47747">
        <ele>369.76</ele>
        <time>2021-08-20T05:32:24Z</time>
      </trkpt>
      <trkpt lat="43.15039" lon="-0.4775">
        <ele>369.76</ele>
        <time>2021-08-20T05:32:25Z</time>
      </trkpt>
      <trkpt lat="43.15044" lon="-0.47754">
        <ele>369.76</ele>
        <time>2021-08-20T05:32:26Z</time>
      </trkpt>
      <trkpt lat="43.15047" lon="-0.47759">
        <ele>369.76</ele>
        <time>2021-08-20T05:32:27Z</time>
      </trkpt>
      <trkpt lat="43.15047" lon="-0.47766">
        <ele>369.76</ele>
        <time>2021-08-20T05:32:28Z</time>
      </trkpt>
      <trkpt lat="43.15045" lon="-0.47771">
        <ele>369.76</ele>
        <time>2021-08-20T05:32:29Z</time>
      </trkpt>
      <trkpt lat="43.15043" lon="-0.47776">
        <ele>369.76</ele>
        <time>2021-08-20T05:32:30Z</time>
      </trkpt>
      <trkpt lat="43.15039" lon="-0.4778">
        <ele>369.76</ele>
        <time>2021-08-20T05:32:31Z</time>
      </trkpt>
      <trkpt lat="43.15035" lon="-0.47784">
        <ele>369.76</ele>
        <time>2021-08-20T05:32:32Z</time>
      </trkpt>
      <trkpt lat="43.15022" lon="-0.47798">
        <ele>369.28</ele>
        <time>2021-08-20T05:32:35Z</time>
      </trkpt>
      <trkpt lat="43.15017" lon="-0.47803">
        <ele>369.28</ele>
        <time>2021-08-20T05:32:36Z</time>
      </trkpt>
      <trkpt lat="43.14972" lon="-0.47852">
        <ele>367.36</ele>
        <time>2021-08-20T05:32:45Z</time>
      </trkpt>
      <trkpt lat="43.14953" lon="-0.47872">
        <ele>367.36</ele>
        <time>2021-08-20T05:32:49Z</time>
      </trkpt>
      <trkpt lat="43.14948" lon="-0.47874">
        <ele>367.36</ele>
        <time>2021-08-20T05:32:50Z</time>
      </trkpt>
      <trkpt lat="43.14943" lon="-0.47874">
        <ele>367.36</ele>
        <time>2021-08-20T05:32:51Z</time>
      </trkpt>
      <trkpt lat="43.14939" lon="-0.47872">
        <ele>367.36</ele>
        <time>2021-08-20T05:32:52Z</time>
      </trkpt>
      <trkpt lat="43.14935" lon="-0.47867">
        <ele>367.36</ele>
        <time>2021-08-20T05:32:53Z</time>
      </trkpt>
      <trkpt lat="43.14931" lon="-0.47862">
        <ele>367.36</ele>
        <time>2021-08-20T05:32:54Z</time>
      </trkpt>
      <trkpt lat="43.14927" lon="-0.47857">
        <ele>367.36</ele>
        <time>2021-08-20T05:32:55Z</time>
      </trkpt>
      <trkpt lat="43.1492" lon="-0.47848">
        <ele>367.36</ele>
        <time>2021-08-20T05:32:57Z</time>
      </trkpt>
      <trkpt lat="43.14915" lon="-0.47845">
        <ele>367.36</ele>
        <time>2021-08-20T05:32:58Z</time>
      </trkpt>
      <trkpt lat="43.14911" lon="-0.47846">
        <ele>367.36</ele>
        <time>2021-08-20T05:32:59Z</time>
      </trkpt>
      <trkpt lat="43.14907" lon="-0.47848">
        <ele>367.36</ele>
        <time>2021-08-20T05:33:00Z</time>
      </trkpt>
      <trkpt lat="43.14905" lon="-0.47853">
        <ele>367.36</ele>
        <time>2021-08-20T05:33:01Z</time>
      </trkpt>
      <trkpt lat="43.14903" lon="-0.47857">
        <ele>367.36</ele>
        <time>2021-08-20T05:33:02Z</time>
      </trkpt>
      <trkpt lat="43.149" lon="-0.47862">
        <ele>367.36</ele>
        <time>2021-08-20T05:33:03Z</time>
      </trkpt>
      <trkpt lat="43.14898" lon="-0.47867">
        <ele>367.36</ele>
        <time>2021-08-20T05:33:04Z</time>
      </trkpt>
      <trkpt lat="43.14895" lon="-0.47871">
        <ele>367.36</ele>
        <time>2021-08-20T05:33:05Z</time>
      </trkpt>
      <trkpt lat="43.14892" lon="-0.47875">
        <ele>368.8</ele>
        <time>2021-08-20T05:33:06Z</time>
      </trkpt>
      <trkpt lat="43.14876" lon="-0.47895">
        <ele>369.76</ele>
        <time>2021-08-20T05:33:12Z</time>
      </trkpt>
      <trkpt lat="43.14859" lon="-0.47923">
        <ele>371.21</ele>
        <time>2021-08-20T05:33:20Z</time>
      </trkpt>
      <trkpt lat="43.1484" lon="-0.47951">
        <ele>372.17</ele>
        <time>2021-08-20T05:33:28Z</time>
      </trkpt>
      <trkpt lat="43.14815" lon="-0.47981">
        <ele>374.09</ele>
        <time>2021-08-20T05:33:39Z</time>
      </trkpt>
      <trkpt lat="43.14798" lon="-0.48002">
        <ele>374.57</ele>
        <time>2021-08-20T05:33:47Z</time>
      </trkpt>
      <trkpt lat="43.14781" lon="-0.48023">
        <ele>376.01</ele>
        <time>2021-08-20T05:33:55Z</time>
      </trkpt>
      <trkpt lat="43.14768" lon="-0.48043">
        <ele>376.01</ele>
        <time>2021-08-20T05:34:01Z</time>
      </trkpt>
      <trkpt lat="43.14762" lon="-0.48051">
        <ele>374.57</ele>
        <time>2021-08-20T05:34:03Z</time>
      </trkpt>
      <trkpt lat="43.14743" lon="-0.48084">
        <ele>371.21</ele>
        <time>2021-08-20T05:34:09Z</time>
      </trkpt>
      <trkpt lat="43.14737" lon="-0.48093">
        <ele>369.76</ele>
        <time>2021-08-20T05:34:11Z</time>
      </trkpt>
      <trkpt lat="43.14732" lon="-0.48104">
        <ele>368.8</ele>
        <time>2021-08-20T05:34:13Z</time>
      </trkpt>
      <trkpt lat="43.14729" lon="-0.4813">
        <ele>364.96</ele>
        <time>2021-08-20T05:34:17Z</time>
      </trkpt>
      <trkpt lat="43.14738" lon="-0.48161">
        <ele>361.11</ele>
        <time>2021-08-20T05:34:21Z</time>
      </trkpt>
      <trkpt lat="43.1475" lon="-0.48176">
        <ele>359.67</ele>
        <time>2021-08-20T05:34:24Z</time>
      </trkpt>
      <trkpt lat="43.14758" lon="-0.48197">
        <ele>358.23</ele>
        <time>2021-08-20T05:34:28Z</time>
      </trkpt>
      <trkpt lat="43.14749" lon="-0.48207">
        <ele>356.79</ele>
        <time>2021-08-20T05:34:31Z</time>
      </trkpt>
      <trkpt lat="43.14746" lon="-0.48205">
        <ele>356.79</ele>
        <time>2021-08-20T05:34:32Z</time>
      </trkpt>
      <trkpt lat="43.14743" lon="-0.48202">
        <ele>356.79</ele>
        <time>2021-08-20T05:34:33Z</time>
      </trkpt>
      <trkpt lat="43.1474" lon="-0.48199">
        <ele>356.31</ele>
        <time>2021-08-20T05:34:34Z</time>
      </trkpt>
      <trkpt lat="43.14729" lon="-0.48189">
        <ele>355.83</ele>
        <time>2021-08-20T05:34:37Z</time>
      </trkpt>
      <trkpt lat="43.14725" lon="-0.48187">
        <ele>354.86</ele>
        <time>2021-08-20T05:34:38Z</time>
      </trkpt>
      <trkpt lat="43.14712" lon="-0.48178">
        <ele>353.9</ele>
        <time>2021-08-20T05:34:41Z</time>
      </trkpt>
      <trkpt lat="43.14704" lon="-0.48173">
        <ele>353.42</ele>
        <time>2021-08-20T05:34:43Z</time>
      </trkpt>
      <trkpt lat="43.14691" lon="-0.48166">
        <ele>352.46</ele>
        <time>2021-08-20T05:34:46Z</time>
      </trkpt>
      <trkpt lat="43.14687" lon="-0.48162">
        <ele>352.46</ele>
        <time>2021-08-20T05:34:47Z</time>
      </trkpt>
      <trkpt lat="43.1467" lon="-0.4814">
        <ele>349.58</ele>
        <time>2021-08-20T05:34:51Z</time>
      </trkpt>
      <trkpt lat="43.14658" lon="-0.48128">
        <ele>348.13</ele>
        <time>2021-08-20T05:34:53Z</time>
      </trkpt>
      <trkpt lat="43.14653" lon="-0.48122">
        <ele>348.13</ele>
        <time>2021-08-20T05:34:54Z</time>
      </trkpt>
      <trkpt lat="43.14644" lon="-0.48112">
        <ele>348.13</ele>
        <time>2021-08-20T05:34:56Z</time>
      </trkpt>
      <trkpt lat="43.1464" lon="-0.48111">
        <ele>348.13</ele>
        <time>2021-08-20T05:34:57Z</time>
      </trkpt>
      <trkpt lat="43.14635" lon="-0.48112">
        <ele>347.65</ele>
        <time>2021-08-20T05:34:58Z</time>
      </trkpt>
      <trkpt lat="43.14631" lon="-0.48116">
        <ele>347.65</ele>
        <time>2021-08-20T05:34:59Z</time>
      </trkpt>
      <trkpt lat="43.14627" lon="-0.48122">
        <ele>346.69</ele>
        <time>2021-08-20T05:35:00Z</time>
      </trkpt>
      <trkpt lat="43.14623" lon="-0.48127">
        <ele>346.21</ele>
        <time>2021-08-20T05:35:01Z</time>
      </trkpt>
      <trkpt lat="43.14618" lon="-0.48131">
        <ele>346.21</ele>
        <time>2021-08-20T05:35:02Z</time>
      </trkpt>
      <trkpt lat="43.14613" lon="-0.48133">
        <ele>346.21</ele>
        <time>2021-08-20T05:35:03Z</time>
      </trkpt>
      <trkpt lat="43.14608" lon="-0.48135">
        <ele>346.21</ele>
        <time>2021-08-20T05:35:04Z</time>
      </trkpt>
      <trkpt lat="43.14602" lon="-0.48135">
        <ele>346.21</ele>
        <time>2021-08-20T05:35:05Z</time>
      </trkpt>
      <trkpt lat="43.14587" lon="-0.48136">
        <ele>346.21</ele>
        <time>2021-08-20T05:35:08Z</time>
      </trkpt>
      <trkpt lat="43.14582" lon="-0.48134">
        <ele>345.73</ele>
        <time>2021-08-20T05:35:09Z</time>
      </trkpt>
      <trkpt lat="43.14547" lon="-0.4812">
        <ele>345.73</ele>
        <time>2021-08-20T05:35:16Z</time>
      </trkpt>
      <trkpt lat="43.14541" lon="-0.48119">
        <ele>345.73</ele>
        <time>2021-08-20T05:35:17Z</time>
      </trkpt>
      <trkpt lat="43.14537" lon="-0.48116">
        <ele>345.73</ele>
        <time>2021-08-20T05:35:18Z</time>
      </trkpt>
      <trkpt lat="43.14532" lon="-0.48114">
        <ele>345.73</ele>
        <time>2021-08-20T05:35:19Z</time>
      </trkpt>
      <trkpt lat="43.14527" lon="-0.48112">
        <ele>345.73</ele>
        <time>2021-08-20T05:35:20Z</time>
      </trkpt>
      <trkpt lat="43.14522" lon="-0.48112">
        <ele>345.73</ele>
        <time>2021-08-20T05:35:21Z</time>
      </trkpt>
      <trkpt lat="43.14517" lon="-0.48111">
        <ele>345.73</ele>
        <time>2021-08-20T05:35:22Z</time>
      </trkpt>
      <trkpt lat="43.14507" lon="-0.48108">
        <ele>345.73</ele>
        <time>2021-08-20T05:35:24Z</time>
      </trkpt>
      <trkpt lat="43.14502" lon="-0.48108">
        <ele>345.73</ele>
        <time>2021-08-20T05:35:25Z</time>
      </trkpt>
      <trkpt lat="43.14492" lon="-0.48108">
        <ele>345.73</ele>
        <time>2021-08-20T05:35:27Z</time>
      </trkpt>
      <trkpt lat="43.14488" lon="-0.48109">
        <ele>345.73</ele>
        <time>2021-08-20T05:35:28Z</time>
      </trkpt>
      <trkpt lat="43.14478" lon="-0.48113">
        <ele>345.73</ele>
        <time>2021-08-20T05:35:30Z</time>
      </trkpt>
      <trkpt lat="43.1447" lon="-0.48117">
        <ele>345.73</ele>
        <time>2021-08-20T05:35:32Z</time>
      </trkpt>
      <trkpt lat="43.14426" lon="-0.48131">
        <ele>345.73</ele>
        <time>2021-08-20T05:35:41Z</time>
      </trkpt>
      <trkpt lat="43.14413" lon="-0.48135">
        <ele>345.73</ele>
        <time>2021-08-20T05:35:44Z</time>
      </trkpt>
      <trkpt lat="43.1437" lon="-0.48151">
        <ele>345.73</ele>
        <time>2021-08-20T05:35:53Z</time>
      </trkpt>
      <trkpt lat="43.14366" lon="-0.48153">
        <ele>345.73</ele>
        <time>2021-08-20T05:35:54Z</time>
      </trkpt>
      <trkpt lat="43.14362" lon="-0.48156">
        <ele>345.73</ele>
        <time>2021-08-20T05:35:55Z</time>
      </trkpt>
      <trkpt lat="43.14359" lon="-0.48158">
        <ele>345.73</ele>
        <time>2021-08-20T05:35:56Z</time>
      </trkpt>
      <trkpt lat="43.14357" lon="-0.48161">
        <ele>345.73</ele>
        <time>2021-08-20T05:35:57Z</time>
      </trkpt>
      <trkpt lat="43.14354" lon="-0.48162">
        <ele>345.73</ele>
        <time>2021-08-20T05:35:58Z</time>
      </trkpt>
      <trkpt lat="43.14351" lon="-0.48161">
        <ele>345.73</ele>
        <time>2021-08-20T05:35:59Z</time>
      </trkpt>
      <trkpt lat="43.14349" lon="-0.48158">
        <ele>345.73</ele>
        <time>2021-08-20T05:36:00Z</time>
      </trkpt>
      <trkpt lat="43.14347" lon="-0.48154">
        <ele>345.73</ele>
        <time>2021-08-20T05:36:01Z</time>
      </trkpt>
      <trkpt lat="43.14327" lon="-0.48118">
        <ele>345.73</ele>
        <time>2021-08-20T05:36:09Z</time>
      </trkpt>
      <trkpt lat="43.14298" lon="-0.4807">
        <ele>345.73</ele>
        <time>2021-08-20T05:36:19Z</time>
      </trkpt>
      <trkpt lat="43.1427" lon="-0.48023">
        <ele>346.69</ele>
        <time>2021-08-20T05:36:28Z</time>
      </trkpt>
      <trkpt lat="43.14244" lon="-0.47982">
        <ele>347.65</ele>
        <time>2021-08-20T05:36:36Z</time>
      </trkpt>
      <trkpt lat="43.14219" lon="-0.47917">
        <ele>348.13</ele>
        <time>2021-08-20T05:36:47Z</time>
      </trkpt>
      <trkpt lat="43.14204" lon="-0.47863">
        <ele>349.1</ele>
        <time>2021-08-20T05:36:56Z</time>
      </trkpt>
      <trkpt lat="43.14201" lon="-0.47859">
        <ele>349.58</ele>
        <time>2021-08-20T05:36:57Z</time>
      </trkpt>
      <trkpt lat="43.14197" lon="-0.47857">
        <ele>349.58</ele>
        <time>2021-08-20T05:36:58Z</time>
      </trkpt>
      <trkpt lat="43.14193" lon="-0.47856">
        <ele>349.58</ele>
        <time>2021-08-20T05:36:59Z</time>
      </trkpt>
      <trkpt lat="43.14189" lon="-0.47857">
        <ele>349.58</ele>
        <time>2021-08-20T05:37:00Z</time>
      </trkpt>
      <trkpt lat="43.14185" lon="-0.47859">
        <ele>349.58</ele>
        <time>2021-08-20T05:37:01Z</time>
      </trkpt>
      <trkpt lat="43.14181" lon="-0.47861">
        <ele>349.58</ele>
        <time>2021-08-20T05:37:02Z</time>
      </trkpt>
      <trkpt lat="43.14177" lon="-0.47864">
        <ele>349.58</ele>
        <time>2021-08-20T05:37:03Z</time>
      </trkpt>
      <trkpt lat="43.14173" lon="-0.47867">
        <ele>349.58</ele>
        <time>2021-08-20T05:37:04Z</time>
      </trkpt>
      <trkpt lat="43.14168" lon="-0.47869">
        <ele>349.58</ele>
        <time>2021-08-20T05:37:05Z</time>
      </trkpt>
      <trkpt lat="43.14164" lon="-0.47872">
        <ele>349.58</ele>
        <time>2021-08-20T05:37:06Z</time>
      </trkpt>
      <trkpt lat="43.1416" lon="-0.47875">
        <ele>349.58</ele>
        <time>2021-08-20T05:37:07Z</time>
      </trkpt>
      <trkpt lat="43.14138" lon="-0.47889">
        <ele>349.1</ele>
        <time>2021-08-20T05:37:12Z</time>
      </trkpt>
      <trkpt lat="43.14134" lon="-0.4789">
        <ele>349.1</ele>
        <time>2021-08-20T05:37:13Z</time>
      </trkpt>
      <trkpt lat="43.14129" lon="-0.47891">
        <ele>349.1</ele>
        <time>2021-08-20T05:37:14Z</time>
      </trkpt>
      <trkpt lat="43.14124" lon="-0.4789">
        <ele>349.1</ele>
        <time>2021-08-20T05:37:15Z</time>
      </trkpt>
      <trkpt lat="43.14119" lon="-0.47889">
        <ele>349.1</ele>
        <time>2021-08-20T05:37:16Z</time>
      </trkpt>
      <trkpt lat="43.14114" lon="-0.47886">
        <ele>349.1</ele>
        <time>2021-08-20T05:37:17Z</time>
      </trkpt>
      <trkpt lat="43.1411" lon="-0.47883">
        <ele>349.1</ele>
        <time>2021-08-20T05:37:18Z</time>
      </trkpt>
      <trkpt lat="43.14106" lon="-0.47879">
        <ele>349.1</ele>
        <time>2021-08-20T05:37:19Z</time>
      </trkpt>
      <trkpt lat="43.14102" lon="-0.47874">
        <ele>349.1</ele>
        <time>2021-08-20T05:37:20Z</time>
      </trkpt>
      <trkpt lat="43.14077" lon="-0.47842">
        <ele>349.58</ele>
        <time>2021-08-20T05:37:28Z</time>
      </trkpt>
      <trkpt lat="43.14053" lon="-0.47814">
        <ele>349.58</ele>
        <time>2021-08-20T05:37:36Z</time>
      </trkpt>
      <trkpt lat="43.14019" lon="-0.47778">
        <ele>349.58</ele>
        <time>2021-08-20T05:37:45Z</time>
      </trkpt>
      <trkpt lat="43.14011" lon="-0.47772">
        <ele>349.58</ele>
        <time>2021-08-20T05:37:47Z</time>
      </trkpt>
      <trkpt lat="43.14006" lon="-0.47769">
        <ele>349.58</ele>
        <time>2021-08-20T05:37:48Z</time>
      </trkpt>
      <trkpt lat="43.14001" lon="-0.47766">
        <ele>349.58</ele>
        <time>2021-08-20T05:37:49Z</time>
      </trkpt>
      <trkpt lat="43.13997" lon="-0.47762">
        <ele>349.58</ele>
        <time>2021-08-20T05:37:50Z</time>
      </trkpt>
      <trkpt lat="43.13993" lon="-0.47759">
        <ele>350.06</ele>
        <time>2021-08-20T05:37:51Z</time>
      </trkpt>
      <trkpt lat="43.13986" lon="-0.47752">
        <ele>350.06</ele>
        <time>2021-08-20T05:37:53Z</time>
      </trkpt>
      <trkpt lat="43.13983" lon="-0.47748">
        <ele>350.06</ele>
        <time>2021-08-20T05:37:54Z</time>
      </trkpt>
      <trkpt lat="43.1398" lon="-0.47743">
        <ele>350.06</ele>
        <time>2021-08-20T05:37:55Z</time>
      </trkpt>
      <trkpt lat="43.13976" lon="-0.4774">
        <ele>350.06</ele>
        <time>2021-08-20T05:37:56Z</time>
      </trkpt>
      <trkpt lat="43.13972" lon="-0.47736">
        <ele>350.06</ele>
        <time>2021-08-20T05:37:57Z</time>
      </trkpt>
      <trkpt lat="43.13967" lon="-0.47734">
        <ele>350.06</ele>
        <time>2021-08-20T05:37:58Z</time>
      </trkpt>
      <trkpt lat="43.13963" lon="-0.47734">
        <ele>350.06</ele>
        <time>2021-08-20T05:37:59Z</time>
      </trkpt>
      <trkpt lat="43.13958" lon="-0.47734">
        <ele>350.54</ele>
        <time>2021-08-20T05:38:00Z</time>
      </trkpt>
      <trkpt lat="43.13954" lon="-0.47735">
        <ele>350.54</ele>
        <time>2021-08-20T05:38:01Z</time>
      </trkpt>
      <trkpt lat="43.13949" lon="-0.47736">
        <ele>350.54</ele>
        <time>2021-08-20T05:38:02Z</time>
      </trkpt>
      <trkpt lat="43.13931" lon="-0.47739">
        <ele>351.02</ele>
        <time>2021-08-20T05:38:06Z</time>
      </trkpt>
      <trkpt lat="43.13926" lon="-0.47738">
        <ele>351.02</ele>
        <time>2021-08-20T05:38:07Z</time>
      </trkpt>
      <trkpt lat="43.13922" lon="-0.47736">
        <ele>351.02</ele>
        <time>2021-08-20T05:38:08Z</time>
      </trkpt>
      <trkpt lat="43.13917" lon="-0.47733">
        <ele>351.02</ele>
        <time>2021-08-20T05:38:09Z</time>
      </trkpt>
      <trkpt lat="43.13913" lon="-0.4773">
        <ele>351.02</ele>
        <time>2021-08-20T05:38:10Z</time>
      </trkpt>
      <trkpt lat="43.1391" lon="-0.47725">
        <ele>351.02</ele>
        <time>2021-08-20T05:38:11Z</time>
      </trkpt>
      <trkpt lat="43.13908" lon="-0.4772">
        <ele>351.02</ele>
        <time>2021-08-20T05:38:12Z</time>
      </trkpt>
      <trkpt lat="43.13906" lon="-0.47715">
        <ele>351.02</ele>
        <time>2021-08-20T05:38:13Z</time>
      </trkpt>
      <trkpt lat="43.13904" lon="-0.47709">
        <ele>351.02</ele>
        <time>2021-08-20T05:38:14Z</time>
      </trkpt>
      <trkpt lat="43.13902" lon="-0.47702">
        <ele>351.02</ele>
        <time>2021-08-20T05:38:15Z</time>
      </trkpt>
      <trkpt lat="43.13892" lon="-0.47665">
        <ele>351.02</ele>
        <time>2021-08-20T05:38:21Z</time>
      </trkpt>
      <trkpt lat="43.1389" lon="-0.47659">
        <ele>351.02</ele>
        <time>2021-08-20T05:38:22Z</time>
      </trkpt>
      <trkpt lat="43.13887" lon="-0.47654">
        <ele>351.5</ele>
        <time>2021-08-20T05:38:23Z</time>
      </trkpt>
      <trkpt lat="43.13881" lon="-0.47646">
        <ele>351.5</ele>
        <time>2021-08-20T05:38:25Z</time>
      </trkpt>
      <trkpt lat="43.13878" lon="-0.47643">
        <ele>351.5</ele>
        <time>2021-08-20T05:38:26Z</time>
      </trkpt>
      <trkpt lat="43.13874" lon="-0.4764">
        <ele>351.5</ele>
        <time>2021-08-20T05:38:27Z</time>
      </trkpt>
      <trkpt lat="43.1387" lon="-0.47639">
        <ele>351.98</ele>
        <time>2021-08-20T05:38:28Z</time>
      </trkpt>
      <trkpt lat="43.13866" lon="-0.47638">
        <ele>351.98</ele>
        <time>2021-08-20T05:38:29Z</time>
      </trkpt>
      <trkpt lat="43.13863" lon="-0.47638">
        <ele>351.98</ele>
        <time>2021-08-20T05:38:30Z</time>
      </trkpt>
      <trkpt lat="43.13859" lon="-0.47639">
        <ele>351.98</ele>
        <time>2021-08-20T05:38:31Z</time>
      </trkpt>
      <trkpt lat="43.13856" lon="-0.47642">
        <ele>351.98</ele>
        <time>2021-08-20T05:38:32Z</time>
      </trkpt>
      <trkpt lat="43.13854" lon="-0.47645">
        <ele>351.98</ele>
        <time>2021-08-20T05:38:33Z</time>
      </trkpt>
      <trkpt lat="43.13851" lon="-0.4765">
        <ele>351.98</ele>
        <time>2021-08-20T05:38:34Z</time>
      </trkpt>
      <trkpt lat="43.13848" lon="-0.47655">
        <ele>351.98</ele>
        <time>2021-08-20T05:38:35Z</time>
      </trkpt>
      <trkpt lat="43.13825" lon="-0.47694">
        <ele>351.98</ele>
        <time>2021-08-20T05:38:43Z</time>
      </trkpt>
      <trkpt lat="43.13808" lon="-0.4771">
        <ele>351.98</ele>
        <time>2021-08-20T05:38:48Z</time>
      </trkpt>
      <trkpt lat="43.13805" lon="-0.47712">
        <ele>351.98</ele>
        <time>2021-08-20T05:38:49Z</time>
      </trkpt>
      <trkpt lat="43.13796" lon="-0.47716">
        <ele>350.54</ele>
        <time>2021-08-20T05:38:51Z</time>
      </trkpt>
      <trkpt lat="43.13791" lon="-0.47717">
        <ele>350.54</ele>
        <time>2021-08-20T05:38:52Z</time>
      </trkpt>
      <trkpt lat="43.13786" lon="-0.47717">
        <ele>350.54</ele>
        <time>2021-08-20T05:38:53Z</time>
      </trkpt>
      <trkpt lat="43.13738" lon="-0.4772">
        <ele>349.1</ele>
        <time>2021-08-20T05:39:01Z</time>
      </trkpt>
      <trkpt lat="43.13698" lon="-0.47722">
        <ele>348.13</ele>
        <time>2021-08-20T05:39:07Z</time>
      </trkpt>
      <trkpt lat="43.13691" lon="-0.47722">
        <ele>348.13</ele>
        <time>2021-08-20T05:39:08Z</time>
      </trkpt>
      <trkpt lat="43.13685" lon="-0.47723">
        <ele>348.13</ele>
        <time>2021-08-20T05:39:09Z</time>
      </trkpt>
      <trkpt lat="43.13672" lon="-0.47724">
        <ele>348.13</ele>
        <time>2021-08-20T05:39:11Z</time>
      </trkpt>
      <trkpt lat="43.13625" lon="-0.47748">
        <ele>348.13</ele>
        <time>2021-08-20T05:39:19Z</time>
      </trkpt>
      <trkpt lat="43.1361" lon="-0.4776">
        <ele>348.13</ele>
        <time>2021-08-20T05:39:22Z</time>
      </trkpt>
      <trkpt lat="43.13604" lon="-0.47764">
        <ele>348.13</ele>
        <time>2021-08-20T05:39:23Z</time>
      </trkpt>
      <trkpt lat="43.13598" lon="-0.47766">
        <ele>348.13</ele>
        <time>2021-08-20T05:39:24Z</time>
      </trkpt>
      <trkpt lat="43.13593" lon="-0.47768">
        <ele>348.13</ele>
        <time>2021-08-20T05:39:25Z</time>
      </trkpt>
      <trkpt lat="43.13587" lon="-0.47771">
        <ele>348.13</ele>
        <time>2021-08-20T05:39:26Z</time>
      </trkpt>
      <trkpt lat="43.13581" lon="-0.47774">
        <ele>347.65</ele>
        <time>2021-08-20T05:39:27Z</time>
      </trkpt>
      <trkpt lat="43.13576" lon="-0.47779">
        <ele>347.65</ele>
        <time>2021-08-20T05:39:28Z</time>
      </trkpt>
      <trkpt lat="43.13572" lon="-0.47785">
        <ele>347.65</ele>
        <time>2021-08-20T05:39:29Z</time>
      </trkpt>
      <trkpt lat="43.13568" lon="-0.47792">
        <ele>347.17</ele>
        <time>2021-08-20T05:39:30Z</time>
      </trkpt>
      <trkpt lat="43.13565" lon="-0.47798">
        <ele>347.17</ele>
        <time>2021-08-20T05:39:31Z</time>
      </trkpt>
      <trkpt lat="43.13561" lon="-0.47806">
        <ele>347.17</ele>
        <time>2021-08-20T05:39:32Z</time>
      </trkpt>
      <trkpt lat="43.13538" lon="-0.4785">
        <ele>346.69</ele>
        <time>2021-08-20T05:39:39Z</time>
      </trkpt>
      <trkpt lat="43.13536" lon="-0.47857">
        <ele>346.69</ele>
        <time>2021-08-20T05:39:40Z</time>
      </trkpt>
      <trkpt lat="43.13537" lon="-0.47864">
        <ele>346.69</ele>
        <time>2021-08-20T05:39:41Z</time>
      </trkpt>
      <trkpt lat="43.13538" lon="-0.47871">
        <ele>346.69</ele>
        <time>2021-08-20T05:39:42Z</time>
      </trkpt>
      <trkpt lat="43.13541" lon="-0.47877">
        <ele>346.69</ele>
        <time>2021-08-20T05:39:43Z</time>
      </trkpt>
      <trkpt lat="43.13544" lon="-0.47883">
        <ele>346.69</ele>
        <time>2021-08-20T05:39:44Z</time>
      </trkpt>
      <trkpt lat="43.13546" lon="-0.4789">
        <ele>346.69</ele>
        <time>2021-08-20T05:39:45Z</time>
      </trkpt>
      <trkpt lat="43.13549" lon="-0.47896">
        <ele>346.69</ele>
        <time>2021-08-20T05:39:46Z</time>
      </trkpt>
      <trkpt lat="43.13569" lon="-0.47949">
        <ele>346.69</ele>
        <time>2021-08-20T05:39:54Z</time>
      </trkpt>
      <trkpt lat="43.13586" lon="-0.48003">
        <ele>348.13</ele>
        <time>2021-08-20T05:40:03Z</time>
      </trkpt>
      <trkpt lat="43.13596" lon="-0.48032">
        <ele>349.1</ele>
        <time>2021-08-20T05:40:10Z</time>
      </trkpt>
      <trkpt lat="43.13602" lon="-0.48051">
        <ele>349.1</ele>
        <time>2021-08-20T05:40:16Z</time>
      </trkpt>
      <trkpt lat="43.13604" lon="-0.48074">
        <ele>349.1</ele>
        <time>2021-08-20T05:40:21Z</time>
      </trkpt>
      <trkpt lat="43.13605" lon="-0.48107">
        <ele>349.1</ele>
        <time>2021-08-20T05:40:28Z</time>
      </trkpt>
      <trkpt lat="43.13604" lon="-0.48136">
        <ele>349.1</ele>
        <time>2021-08-20T05:40:34Z</time>
      </trkpt>
      <trkpt lat="43.13604" lon="-0.48155">
        <ele>349.1</ele>
        <time>2021-08-20T05:40:37Z</time>
      </trkpt>
      <trkpt lat="43.13603" lon="-0.48161">
        <ele>349.1</ele>
        <time>2021-08-20T05:40:38Z</time>
      </trkpt>
      <trkpt lat="43.13602" lon="-0.48167">
        <ele>349.1</ele>
        <time>2021-08-20T05:40:39Z</time>
      </trkpt>
      <trkpt lat="43.13593" lon="-0.4822">
        <ele>349.1</ele>
        <time>2021-08-20T05:40:48Z</time>
      </trkpt>
      <trkpt lat="43.13594" lon="-0.48245">
        <ele>347.65</ele>
        <time>2021-08-20T05:40:52Z</time>
      </trkpt>
      <trkpt lat="43.13596" lon="-0.48251">
        <ele>347.65</ele>
        <time>2021-08-20T05:40:53Z</time>
      </trkpt>
      <trkpt lat="43.13597" lon="-0.48256">
        <ele>347.65</ele>
        <time>2021-08-20T05:40:54Z</time>
      </trkpt>
      <trkpt lat="43.136" lon="-0.4826">
        <ele>347.65</ele>
        <time>2021-08-20T05:40:55Z</time>
      </trkpt>
      <trkpt lat="43.13603" lon="-0.48264">
        <ele>347.65</ele>
        <time>2021-08-20T05:40:56Z</time>
      </trkpt>
      <trkpt lat="43.13607" lon="-0.48266">
        <ele>347.65</ele>
        <time>2021-08-20T05:40:57Z</time>
      </trkpt>
      <trkpt lat="43.1361" lon="-0.48269">
        <ele>347.65</ele>
        <time>2021-08-20T05:40:58Z</time>
      </trkpt>
      <trkpt lat="43.13618" lon="-0.48274">
        <ele>347.65</ele>
        <time>2021-08-20T05:41:00Z</time>
      </trkpt>
      <trkpt lat="43.13634" lon="-0.48287">
        <ele>347.65</ele>
        <time>2021-08-20T05:41:04Z</time>
      </trkpt>
      <trkpt lat="43.13658" lon="-0.48323">
        <ele>349.1</ele>
        <time>2021-08-20T05:41:12Z</time>
      </trkpt>
      <trkpt lat="43.13663" lon="-0.48332">
        <ele>349.1</ele>
        <time>2021-08-20T05:41:14Z</time>
      </trkpt>
      <trkpt lat="43.13665" lon="-0.48338">
        <ele>349.1</ele>
        <time>2021-08-20T05:41:15Z</time>
      </trkpt>
      <trkpt lat="43.13679" lon="-0.48375">
        <ele>349.58</ele>
        <time>2021-08-20T05:41:22Z</time>
      </trkpt>
      <trkpt lat="43.13682" lon="-0.48382">
        <ele>349.58</ele>
        <time>2021-08-20T05:41:23Z</time>
      </trkpt>
      <trkpt lat="43.13683" lon="-0.48389">
        <ele>349.58</ele>
        <time>2021-08-20T05:41:24Z</time>
      </trkpt>
      <trkpt lat="43.13685" lon="-0.48395">
        <ele>349.58</ele>
        <time>2021-08-20T05:41:25Z</time>
      </trkpt>
      <trkpt lat="43.13694" lon="-0.48435">
        <ele>349.58</ele>
        <time>2021-08-20T05:41:31Z</time>
      </trkpt>
      <trkpt lat="43.13695" lon="-0.48441">
        <ele>349.58</ele>
        <time>2021-08-20T05:41:32Z</time>
      </trkpt>
      <trkpt lat="43.13713" lon="-0.48496">
        <ele>348.13</ele>
        <time>2021-08-20T05:41:40Z</time>
      </trkpt>
      <trkpt lat="43.13717" lon="-0.48502">
        <ele>348.13</ele>
        <time>2021-08-20T05:41:41Z</time>
      </trkpt>
      <trkpt lat="43.13721" lon="-0.48508">
        <ele>347.65</ele>
        <time>2021-08-20T05:41:42Z</time>
      </trkpt>
      <trkpt lat="43.13724" lon="-0.48514">
        <ele>347.65</ele>
        <time>2021-08-20T05:41:43Z</time>
      </trkpt>
      <trkpt lat="43.13728" lon="-0.48521">
        <ele>347.65</ele>
        <time>2021-08-20T05:41:44Z</time>
      </trkpt>
      <trkpt lat="43.1373" lon="-0.48528">
        <ele>347.65</ele>
        <time>2021-08-20T05:41:45Z</time>
      </trkpt>
      <trkpt lat="43.13731" lon="-0.48535">
        <ele>347.65</ele>
        <time>2021-08-20T05:41:46Z</time>
      </trkpt>
      <trkpt lat="43.13738" lon="-0.48579">
        <ele>347.17</ele>
        <time>2021-08-20T05:41:52Z</time>
      </trkpt>
      <trkpt lat="43.13741" lon="-0.486">
        <ele>347.17</ele>
        <time>2021-08-20T05:41:55Z</time>
      </trkpt>
      <trkpt lat="43.13742" lon="-0.48608">
        <ele>347.17</ele>
        <time>2021-08-20T05:41:56Z</time>
      </trkpt>
      <trkpt lat="43.13743" lon="-0.48615">
        <ele>347.17</ele>
        <time>2021-08-20T05:41:57Z</time>
      </trkpt>
      <trkpt lat="43.13744" lon="-0.48623">
        <ele>347.17</ele>
        <time>2021-08-20T05:41:58Z</time>
      </trkpt>
      <trkpt lat="43.13744" lon="-0.4863">
        <ele>346.69</ele>
        <time>2021-08-20T05:41:59Z</time>
      </trkpt>
      <trkpt lat="43.13748" lon="-0.4866">
        <ele>346.21</ele>
        <time>2021-08-20T05:42:03Z</time>
      </trkpt>
      <trkpt lat="43.13751" lon="-0.48664">
        <ele>346.21</ele>
        <time>2021-08-20T05:42:04Z</time>
      </trkpt>
      <trkpt lat="43.13755" lon="-0.48667">
        <ele>346.21</ele>
        <time>2021-08-20T05:42:05Z</time>
      </trkpt>
      <trkpt lat="43.13759" lon="-0.48668">
        <ele>346.21</ele>
        <time>2021-08-20T05:42:06Z</time>
      </trkpt>
      <trkpt lat="43.13763" lon="-0.48669">
        <ele>346.21</ele>
        <time>2021-08-20T05:42:07Z</time>
      </trkpt>
      <trkpt lat="43.13768" lon="-0.48668">
        <ele>346.21</ele>
        <time>2021-08-20T05:42:08Z</time>
      </trkpt>
      <trkpt lat="43.13772" lon="-0.48667">
        <ele>346.21</ele>
        <time>2021-08-20T05:42:09Z</time>
      </trkpt>
      <trkpt lat="43.13803" lon="-0.4865">
        <ele>345.25</ele>
        <time>2021-08-20T05:42:15Z</time>
      </trkpt>
      <trkpt lat="43.13808" lon="-0.48646">
        <ele>345.25</ele>
        <time>2021-08-20T05:42:16Z</time>
      </trkpt>
      <trkpt lat="43.13812" lon="-0.48644">
        <ele>345.25</ele>
        <time>2021-08-20T05:42:17Z</time>
      </trkpt>
      <trkpt lat="43.13816" lon="-0.48645">
        <ele>345.25</ele>
        <time>2021-08-20T05:42:18Z</time>
      </trkpt>
      <trkpt lat="43.1382" lon="-0.48648">
        <ele>345.25</ele>
        <time>2021-08-20T05:42:19Z</time>
      </trkpt>
      <trkpt lat="43.13823" lon="-0.48653">
        <ele>345.25</ele>
        <time>2021-08-20T05:42:20Z</time>
      </trkpt>
      <trkpt lat="43.13824" lon="-0.48658">
        <ele>345.25</ele>
        <time>2021-08-20T05:42:21Z</time>
      </trkpt>
      <trkpt lat="43.13826" lon="-0.48664">
        <ele>345.25</ele>
        <time>2021-08-20T05:42:22Z</time>
      </trkpt>
      <trkpt lat="43.13828" lon="-0.4867">
        <ele>345.25</ele>
        <time>2021-08-20T05:42:23Z</time>
      </trkpt>
      <trkpt lat="43.1383" lon="-0.48677">
        <ele>345.25</ele>
        <time>2021-08-20T05:42:24Z</time>
      </trkpt>
      <trkpt lat="43.13832" lon="-0.48683">
        <ele>345.25</ele>
        <time>2021-08-20T05:42:25Z</time>
      </trkpt>
      <trkpt lat="43.13834" lon="-0.4869">
        <ele>345.25</ele>
        <time>2021-08-20T05:42:26Z</time>
      </trkpt>
      <trkpt lat="43.13852" lon="-0.48731">
        <ele>345.25</ele>
        <time>2021-08-20T05:42:33Z</time>
      </trkpt>
      <trkpt lat="43.13869" lon="-0.4877">
        <ele>344.29</ele>
        <time>2021-08-20T05:42:40Z</time>
      </trkpt>
      <trkpt lat="43.13873" lon="-0.48775">
        <ele>344.29</ele>
        <time>2021-08-20T05:42:41Z</time>
      </trkpt>
      <trkpt lat="43.13876" lon="-0.48781">
        <ele>344.29</ele>
        <time>2021-08-20T05:42:42Z</time>
      </trkpt>
      <trkpt lat="43.1388" lon="-0.48786">
        <ele>344.29</ele>
        <time>2021-08-20T05:42:43Z</time>
      </trkpt>
      <trkpt lat="43.13883" lon="-0.48791">
        <ele>344.29</ele>
        <time>2021-08-20T05:42:44Z</time>
      </trkpt>
      <trkpt lat="43.13887" lon="-0.48796">
        <ele>343.81</ele>
        <time>2021-08-20T05:42:45Z</time>
      </trkpt>
      <trkpt lat="43.13891" lon="-0.48803">
        <ele>343.81</ele>
        <time>2021-08-20T05:42:46Z</time>
      </trkpt>
      <trkpt lat="43.1392" lon="-0.48843">
        <ele>343.81</ele>
        <time>2021-08-20T05:42:53Z</time>
      </trkpt>
      <trkpt lat="43.13945" lon="-0.48879">
        <ele>343.33</ele>
        <time>2021-08-20T05:43:00Z</time>
      </trkpt>
      <trkpt lat="43.13948" lon="-0.48885">
        <ele>343.33</ele>
        <time>2021-08-20T05:43:01Z</time>
      </trkpt>
      <trkpt lat="43.13956" lon="-0.48896">
        <ele>343.33</ele>
        <time>2021-08-20T05:43:03Z</time>
      </trkpt>
      <trkpt lat="43.13959" lon="-0.48903">
        <ele>342.85</ele>
        <time>2021-08-20T05:43:04Z</time>
      </trkpt>
      <trkpt lat="43.13979" lon="-0.48947">
        <ele>342.37</ele>
        <time>2021-08-20T05:43:11Z</time>
      </trkpt>
      <trkpt lat="43.1399" lon="-0.48974">
        <ele>342.37</ele>
        <time>2021-08-20T05:43:15Z</time>
      </trkpt>
      <trkpt lat="43.13992" lon="-0.48981">
        <ele>342.37</ele>
        <time>2021-08-20T05:43:16Z</time>
      </trkpt>
      <trkpt lat="43.13994" lon="-0.48988">
        <ele>342.37</ele>
        <time>2021-08-20T05:43:17Z</time>
      </trkpt>
      <trkpt lat="43.14015" lon="-0.4904">
        <ele>341.89</ele>
        <time>2021-08-20T05:43:25Z</time>
      </trkpt>
      <trkpt lat="43.14022" lon="-0.49052">
        <ele>341.41</ele>
        <time>2021-08-20T05:43:27Z</time>
      </trkpt>
      <trkpt lat="43.14059" lon="-0.49099">
        <ele>340.92</ele>
        <time>2021-08-20T05:43:36Z</time>
      </trkpt>
      <trkpt lat="43.14095" lon="-0.49155">
        <ele>339.96</ele>
        <time>2021-08-20T05:43:45Z</time>
      </trkpt>
      <trkpt lat="43.14119" lon="-0.49215">
        <ele>339.48</ele>
        <time>2021-08-20T05:43:53Z</time>
      </trkpt>
      <trkpt lat="43.14142" lon="-0.49262">
        <ele>338.52</ele>
        <time>2021-08-20T05:43:59Z</time>
      </trkpt>
      <trkpt lat="43.14147" lon="-0.49268">
        <ele>338.52</ele>
        <time>2021-08-20T05:44:00Z</time>
      </trkpt>
      <trkpt lat="43.14183" lon="-0.49313">
        <ele>338.04</ele>
        <time>2021-08-20T05:44:07Z</time>
      </trkpt>
      <trkpt lat="43.14219" lon="-0.4936">
        <ele>337.08</ele>
        <time>2021-08-20T05:44:14Z</time>
      </trkpt>
      <trkpt lat="43.14235" lon="-0.49377">
        <ele>337.08</ele>
        <time>2021-08-20T05:44:17Z</time>
      </trkpt>
      <trkpt lat="43.1424" lon="-0.49384">
        <ele>337.08</ele>
        <time>2021-08-20T05:44:18Z</time>
      </trkpt>
      <trkpt lat="43.14244" lon="-0.49391">
        <ele>337.08</ele>
        <time>2021-08-20T05:44:19Z</time>
      </trkpt>
      <trkpt lat="43.14248" lon="-0.49399">
        <ele>337.08</ele>
        <time>2021-08-20T05:44:20Z</time>
      </trkpt>
      <trkpt lat="43.14252" lon="-0.49406">
        <ele>336.6</ele>
        <time>2021-08-20T05:44:21Z</time>
      </trkpt>
      <trkpt lat="43.14264" lon="-0.49429">
        <ele>336.12</ele>
        <time>2021-08-20T05:44:24Z</time>
      </trkpt>
      <trkpt lat="43.14269" lon="-0.49436">
        <ele>336.12</ele>
        <time>2021-08-20T05:44:25Z</time>
      </trkpt>
      <trkpt lat="43.14274" lon="-0.49441">
        <ele>336.12</ele>
        <time>2021-08-20T05:44:26Z</time>
      </trkpt>
      <trkpt lat="43.14295" lon="-0.4946">
        <ele>336.12</ele>
        <time>2021-08-20T05:44:30Z</time>
      </trkpt>
      <trkpt lat="43.14309" lon="-0.49479">
        <ele>336.12</ele>
        <time>2021-08-20T05:44:33Z</time>
      </trkpt>
      <trkpt lat="43.14338" lon="-0.4954">
        <ele>335.64</ele>
        <time>2021-08-20T05:44:41Z</time>
      </trkpt>
      <trkpt lat="43.14346" lon="-0.49555">
        <ele>335.16</ele>
        <time>2021-08-20T05:44:43Z</time>
      </trkpt>
      <trkpt lat="43.14349" lon="-0.49565">
        <ele>335.16</ele>
        <time>2021-08-20T05:44:44Z</time>
      </trkpt>
      <trkpt lat="43.14363" lon="-0.49608">
        <ele>334.68</ele>
        <time>2021-08-20T05:44:49Z</time>
      </trkpt>
      <trkpt lat="43.14366" lon="-0.49616">
        <ele>334.68</ele>
        <time>2021-08-20T05:44:50Z</time>
      </trkpt>
      <trkpt lat="43.1437" lon="-0.49622">
        <ele>334.68</ele>
        <time>2021-08-20T05:44:51Z</time>
      </trkpt>
      <trkpt lat="43.14376" lon="-0.49628">
        <ele>334.68</ele>
        <time>2021-08-20T05:44:52Z</time>
      </trkpt>
      <trkpt lat="43.14381" lon="-0.49633">
        <ele>334.68</ele>
        <time>2021-08-20T05:44:53Z</time>
      </trkpt>
      <trkpt lat="43.14413" lon="-0.49678">
        <ele>334.2</ele>
        <time>2021-08-20T05:45:00Z</time>
      </trkpt>
      <trkpt lat="43.14444" lon="-0.4975">
        <ele>333.71</ele>
        <time>2021-08-20T05:45:09Z</time>
      </trkpt>
      <trkpt lat="43.14468" lon="-0.49791">
        <ele>333.23</ele>
        <time>2021-08-20T05:45:15Z</time>
      </trkpt>
      <trkpt lat="43.14483" lon="-0.49806">
        <ele>332.27</ele>
        <time>2021-08-20T05:45:18Z</time>
      </trkpt>
      <trkpt lat="43.14495" lon="-0.49816">
        <ele>331.79</ele>
        <time>2021-08-20T05:45:20Z</time>
      </trkpt>
      <trkpt lat="43.145" lon="-0.49822">
        <ele>331.79</ele>
        <time>2021-08-20T05:45:21Z</time>
      </trkpt>
      <trkpt lat="43.14504" lon="-0.49829">
        <ele>331.79</ele>
        <time>2021-08-20T05:45:22Z</time>
      </trkpt>
      <trkpt lat="43.14507" lon="-0.49837">
        <ele>331.31</ele>
        <time>2021-08-20T05:45:23Z</time>
      </trkpt>
      <trkpt lat="43.1451" lon="-0.49845">
        <ele>331.31</ele>
        <time>2021-08-20T05:45:24Z</time>
      </trkpt>
      <trkpt lat="43.14511" lon="-0.49854">
        <ele>331.31</ele>
        <time>2021-08-20T05:45:25Z</time>
      </trkpt>
      <trkpt lat="43.14512" lon="-0.49864">
        <ele>331.31</ele>
        <time>2021-08-20T05:45:26Z</time>
      </trkpt>
      <trkpt lat="43.14525" lon="-0.49928">
        <ele>330.35</ele>
        <time>2021-08-20T05:45:33Z</time>
      </trkpt>
      <trkpt lat="43.14559" lon="-0.50015">
        <ele>329.87</ele>
        <time>2021-08-20T05:45:43Z</time>
      </trkpt>
      <trkpt lat="43.14573" lon="-0.5005">
        <ele>328.91</ele>
        <time>2021-08-20T05:45:47Z</time>
      </trkpt>
      <trkpt lat="43.14575" lon="-0.50059">
        <ele>328.91</ele>
        <time>2021-08-20T05:45:48Z</time>
      </trkpt>
      <trkpt lat="43.14577" lon="-0.50068">
        <ele>328.91</ele>
        <time>2021-08-20T05:45:49Z</time>
      </trkpt>
      <trkpt lat="43.14592" lon="-0.50137">
        <ele>328.91</ele>
        <time>2021-08-20T05:45:57Z</time>
      </trkpt>
      <trkpt lat="43.14608" lon="-0.50194">
        <ele>328.43</ele>
        <time>2021-08-20T05:46:04Z</time>
      </trkpt>
      <trkpt lat="43.14632" lon="-0.50249">
        <ele>327.47</ele>
        <time>2021-08-20T05:46:11Z</time>
      </trkpt>
      <trkpt lat="43.14644" lon="-0.50272">
        <ele>326.5</ele>
        <time>2021-08-20T05:46:14Z</time>
      </trkpt>
      <trkpt lat="43.14648" lon="-0.50277">
        <ele>326.5</ele>
        <time>2021-08-20T05:46:15Z</time>
      </trkpt>
      <trkpt lat="43.14652" lon="-0.50282">
        <ele>326.5</ele>
        <time>2021-08-20T05:46:16Z</time>
      </trkpt>
      <trkpt lat="43.14656" lon="-0.50286">
        <ele>326.5</ele>
        <time>2021-08-20T05:46:17Z</time>
      </trkpt>
      <trkpt lat="43.1466" lon="-0.5029">
        <ele>326.5</ele>
        <time>2021-08-20T05:46:18Z</time>
      </trkpt>
      <trkpt lat="43.14664" lon="-0.50294">
        <ele>326.5</ele>
        <time>2021-08-20T05:46:19Z</time>
      </trkpt>
      <trkpt lat="43.14667" lon="-0.50299">
        <ele>326.5</ele>
        <time>2021-08-20T05:46:20Z</time>
      </trkpt>
      <trkpt lat="43.14694" lon="-0.50342">
        <ele>326.02</ele>
        <time>2021-08-20T05:46:27Z</time>
      </trkpt>
      <trkpt lat="43.14696" lon="-0.50348">
        <ele>326.02</ele>
        <time>2021-08-20T05:46:28Z</time>
      </trkpt>
      <trkpt lat="43.14698" lon="-0.50356">
        <ele>326.02</ele>
        <time>2021-08-20T05:46:29Z</time>
      </trkpt>
      <trkpt lat="43.147" lon="-0.50362">
        <ele>326.02</ele>
        <time>2021-08-20T05:46:30Z</time>
      </trkpt>
      <trkpt lat="43.14701" lon="-0.50369">
        <ele>326.02</ele>
        <time>2021-08-20T05:46:31Z</time>
      </trkpt>
      <trkpt lat="43.14705" lon="-0.50391">
        <ele>326.02</ele>
        <time>2021-08-20T05:46:34Z</time>
      </trkpt>
      <trkpt lat="43.14707" lon="-0.50398">
        <ele>326.02</ele>
        <time>2021-08-20T05:46:35Z</time>
      </trkpt>
      <trkpt lat="43.14723" lon="-0.50454">
        <ele>326.02</ele>
        <time>2021-08-20T05:46:43Z</time>
      </trkpt>
      <trkpt lat="43.14724" lon="-0.50462">
        <ele>326.02</ele>
        <time>2021-08-20T05:46:44Z</time>
      </trkpt>
      <trkpt lat="43.14725" lon="-0.50477">
        <ele>326.02</ele>
        <time>2021-08-20T05:46:46Z</time>
      </trkpt>
      <trkpt lat="43.14725" lon="-0.50484">
        <ele>326.02</ele>
        <time>2021-08-20T05:46:47Z</time>
      </trkpt>
      <trkpt lat="43.14725" lon="-0.50492">
        <ele>326.02</ele>
        <time>2021-08-20T05:46:48Z</time>
      </trkpt>
      <trkpt lat="43.14723" lon="-0.50536">
        <ele>326.02</ele>
        <time>2021-08-20T05:46:55Z</time>
      </trkpt>
      <trkpt lat="43.14718" lon="-0.5055">
        <ele>326.02</ele>
        <time>2021-08-20T05:46:58Z</time>
      </trkpt>
      <trkpt lat="43.14714" lon="-0.50552">
        <ele>326.02</ele>
        <time>2021-08-20T05:46:59Z</time>
      </trkpt>
      <trkpt lat="43.14688" lon="-0.50569">
        <ele>326.02</ele>
        <time>2021-08-20T05:47:06Z</time>
      </trkpt>
      <trkpt lat="43.14661" lon="-0.50603">
        <ele>326.02</ele>
        <time>2021-08-20T05:47:14Z</time>
      </trkpt>
      <trkpt lat="43.14641" lon="-0.50629">
        <ele>326.02</ele>
        <time>2021-08-20T05:47:20Z</time>
      </trkpt>
      <trkpt lat="43.14638" lon="-0.50634">
        <ele>326.02</ele>
        <time>2021-08-20T05:47:21Z</time>
      </trkpt>
      <trkpt lat="43.14636" lon="-0.50639">
        <ele>326.02</ele>
        <time>2021-08-20T05:47:22Z</time>
      </trkpt>
      <trkpt lat="43.14629" lon="-0.50663">
        <ele>327.47</ele>
        <time>2021-08-20T05:47:27Z</time>
      </trkpt>
      <trkpt lat="43.14626" lon="-0.50676">
        <ele>326.02</ele>
        <time>2021-08-20T05:47:29Z</time>
      </trkpt>
      <trkpt lat="43.14619" lon="-0.50696">
        <ele>325.54</ele>
        <time>2021-08-20T05:47:32Z</time>
      </trkpt>
      <trkpt lat="43.14616" lon="-0.50702">
        <ele>325.54</ele>
        <time>2021-08-20T05:47:33Z</time>
      </trkpt>
      <trkpt lat="43.14613" lon="-0.50707">
        <ele>325.54</ele>
        <time>2021-08-20T05:47:34Z</time>
      </trkpt>
      <trkpt lat="43.14604" lon="-0.50715">
        <ele>325.54</ele>
        <time>2021-08-20T05:47:36Z</time>
      </trkpt>
      <trkpt lat="43.14573" lon="-0.50741">
        <ele>325.54</ele>
        <time>2021-08-20T05:47:44Z</time>
      </trkpt>
      <trkpt lat="43.1454" lon="-0.50759">
        <ele>325.54</ele>
        <time>2021-08-20T05:47:52Z</time>
      </trkpt>
      <trkpt lat="43.14536" lon="-0.5076">
        <ele>325.54</ele>
        <time>2021-08-20T05:47:53Z</time>
      </trkpt>
      <trkpt lat="43.14531" lon="-0.50761">
        <ele>325.54</ele>
        <time>2021-08-20T05:47:54Z</time>
      </trkpt>
      <trkpt lat="43.14522" lon="-0.5076">
        <ele>325.54</ele>
        <time>2021-08-20T05:47:56Z</time>
      </trkpt>
      <trkpt lat="43.14518" lon="-0.50758">
        <ele>325.54</ele>
        <time>2021-08-20T05:47:57Z</time>
      </trkpt>
      <trkpt lat="43.14488" lon="-0.5074">
        <ele>327.47</ele>
        <time>2021-08-20T05:48:05Z</time>
      </trkpt>
      <trkpt lat="43.14468" lon="-0.5072">
        <ele>327.95</ele>
        <time>2021-08-20T05:48:13Z</time>
      </trkpt>
      <trkpt lat="43.14453" lon="-0.50711">
        <ele>328.43</ele>
        <time>2021-08-20T05:48:19Z</time>
      </trkpt>
      <trkpt lat="43.14434" lon="-0.50713">
        <ele>329.87</ele>
        <time>2021-08-20T05:48:26Z</time>
      </trkpt>
      <trkpt lat="43.14421" lon="-0.50727">
        <ele>330.35</ele>
        <time>2021-08-20T05:48:33Z</time>
      </trkpt>
      <trkpt lat="43.14413" lon="-0.50742">
        <ele>331.79</ele>
        <time>2021-08-20T05:48:40Z</time>
      </trkpt>
      <trkpt lat="43.14412" lon="-0.50753">
        <ele>332.27</ele>
        <time>2021-08-20T05:48:45Z</time>
      </trkpt>
      <trkpt lat="43.14411" lon="-0.50755">
        <ele>332.75</ele>
        <time>2021-08-20T05:48:46Z</time>
      </trkpt>
      <trkpt lat="43.14406" lon="-0.5077">
        <ele>333.71</ele>
        <time>2021-08-20T05:48:54Z</time>
      </trkpt>
      <trkpt lat="43.14406" lon="-0.50778">
        <ele>334.2</ele>
        <time>2021-08-20T05:48:58Z</time>
      </trkpt>
      <trkpt lat="43.14402" lon="-0.50797">
        <ele>335.16</ele>
        <time>2021-08-20T05:49:06Z</time>
      </trkpt>
      <trkpt lat="43.144" lon="-0.50812">
        <ele>336.12</ele>
        <time>2021-08-20T05:49:12Z</time>
      </trkpt>
      <trkpt lat="43.14399" lon="-0.50814">
        <ele>336.12</ele>
        <time>2021-08-20T05:49:13Z</time>
      </trkpt>
      <trkpt lat="43.14395" lon="-0.50837">
        <ele>338.04</ele>
        <time>2021-08-20T05:49:24Z</time>
      </trkpt>
      <trkpt lat="43.14391" lon="-0.5086">
        <ele>339.48</ele>
        <time>2021-08-20T05:49:34Z</time>
      </trkpt>
      <trkpt lat="43.1439" lon="-0.50878">
        <ele>340.92</ele>
        <time>2021-08-20T05:49:43Z</time>
      </trkpt>
      <trkpt lat="43.14388" lon="-0.50899">
        <ele>342.37</ele>
        <time>2021-08-20T05:49:52Z</time>
      </trkpt>
      <trkpt lat="43.14383" lon="-0.50928">
        <ele>345.25</ele>
        <time>2021-08-20T05:50:03Z</time>
      </trkpt>
      <trkpt lat="43.14378" lon="-0.50946">
        <ele>346.69</ele>
        <time>2021-08-20T05:50:10Z</time>
      </trkpt>
      <trkpt lat="43.14375" lon="-0.50966">
        <ele>348.13</ele>
        <time>2021-08-20T05:50:19Z</time>
      </trkpt>
      <trkpt lat="43.14372" lon="-0.50984">
        <ele>349.58</ele>
        <time>2021-08-20T05:50:28Z</time>
      </trkpt>
      <trkpt lat="43.14367" lon="-0.51006">
        <ele>350.54</ele>
        <time>2021-08-20T05:50:36Z</time>
      </trkpt>
      <trkpt lat="43.14358" lon="-0.5103">
        <ele>351.5</ele>
        <time>2021-08-20T05:50:44Z</time>
      </trkpt>
      <trkpt lat="43.14343" lon="-0.51064">
        <ele>351.98</ele>
        <time>2021-08-20T05:50:53Z</time>
      </trkpt>
      <trkpt lat="43.14325" lon="-0.51098">
        <ele>352.46</ele>
        <time>2021-08-20T05:51:00Z</time>
      </trkpt>
      <trkpt lat="43.14304" lon="-0.51141">
        <ele>353.42</ele>
        <time>2021-08-20T05:51:09Z</time>
      </trkpt>
      <trkpt lat="43.14288" lon="-0.51168">
        <ele>354.38</ele>
        <time>2021-08-20T05:51:16Z</time>
      </trkpt>
      <trkpt lat="43.14285" lon="-0.51174">
        <ele>354.38</ele>
        <time>2021-08-20T05:51:17Z</time>
      </trkpt>
      <trkpt lat="43.1428" lon="-0.51188">
        <ele>352.46</ele>
        <time>2021-08-20T05:51:19Z</time>
      </trkpt>
      <trkpt lat="43.14278" lon="-0.51195">
        <ele>352.46</ele>
        <time>2021-08-20T05:51:20Z</time>
      </trkpt>
      <trkpt lat="43.14277" lon="-0.51205">
        <ele>351.5</ele>
        <time>2021-08-20T05:51:21Z</time>
      </trkpt>
      <trkpt lat="43.14277" lon="-0.51214">
        <ele>351.5</ele>
        <time>2021-08-20T05:51:22Z</time>
      </trkpt>
      <trkpt lat="43.14277" lon="-0.51223">
        <ele>351.5</ele>
        <time>2021-08-20T05:51:23Z</time>
      </trkpt>
      <trkpt lat="43.14277" lon="-0.51232">
        <ele>351.02</ele>
        <time>2021-08-20T05:51:24Z</time>
      </trkpt>
      <trkpt lat="43.14278" lon="-0.51241">
        <ele>351.02</ele>
        <time>2021-08-20T05:51:25Z</time>
      </trkpt>
      <trkpt lat="43.14279" lon="-0.51248">
        <ele>351.02</ele>
        <time>2021-08-20T05:51:26Z</time>
      </trkpt>
      <trkpt lat="43.1428" lon="-0.51256">
        <ele>351.02</ele>
        <time>2021-08-20T05:51:27Z</time>
      </trkpt>
      <trkpt lat="43.14282" lon="-0.51292">
        <ele>351.02</ele>
        <time>2021-08-20T05:51:32Z</time>
      </trkpt>
      <trkpt lat="43.14283" lon="-0.51298">
        <ele>351.02</ele>
        <time>2021-08-20T05:51:33Z</time>
      </trkpt>
      <trkpt lat="43.14288" lon="-0.51326">
        <ele>351.02</ele>
        <time>2021-08-20T05:51:37Z</time>
      </trkpt>
      <trkpt lat="43.14303" lon="-0.51379">
        <ele>351.02</ele>
        <time>2021-08-20T05:51:44Z</time>
      </trkpt>
      <trkpt lat="43.14319" lon="-0.51433">
        <ele>351.02</ele>
        <time>2021-08-20T05:51:51Z</time>
      </trkpt>
      <trkpt lat="43.14337" lon="-0.51484">
        <ele>351.02</ele>
        <time>2021-08-20T05:51:59Z</time>
      </trkpt>
      <trkpt lat="43.1436" lon="-0.51529">
        <ele>351.02</ele>
        <time>2021-08-20T05:52:06Z</time>
      </trkpt>
      <trkpt lat="43.14381" lon="-0.51558">
        <ele>350.54</ele>
        <time>2021-08-20T05:52:11Z</time>
      </trkpt>
      <trkpt lat="43.14416" lon="-0.5161">
        <ele>350.54</ele>
        <time>2021-08-20T05:52:20Z</time>
      </trkpt>
      <trkpt lat="43.14457" lon="-0.51678">
        <ele>349.58</ele>
        <time>2021-08-20T05:52:30Z</time>
      </trkpt>
      <trkpt lat="43.14485" lon="-0.51737">
        <ele>349.1</ele>
        <time>2021-08-20T05:52:38Z</time>
      </trkpt>
      <trkpt lat="43.14512" lon="-0.51803">
        <ele>349.1</ele>
        <time>2021-08-20T05:52:47Z</time>
      </trkpt>
      <trkpt lat="43.14539" lon="-0.51847">
        <ele>347.17</ele>
        <time>2021-08-20T05:52:53Z</time>
      </trkpt>
      <trkpt lat="43.14556" lon="-0.51864">
        <ele>346.69</ele>
        <time>2021-08-20T05:52:56Z</time>
      </trkpt>
      <trkpt lat="43.14563" lon="-0.51868">
        <ele>346.21</ele>
        <time>2021-08-20T05:52:57Z</time>
      </trkpt>
      <trkpt lat="43.1457" lon="-0.51871">
        <ele>345.73</ele>
        <time>2021-08-20T05:52:58Z</time>
      </trkpt>
      <trkpt lat="43.14618" lon="-0.51888">
        <ele>345.25</ele>
        <time>2021-08-20T05:53:05Z</time>
      </trkpt>
      <trkpt lat="43.1464" lon="-0.51901">
        <ele>345.25</ele>
        <time>2021-08-20T05:53:09Z</time>
      </trkpt>
      <trkpt lat="43.14645" lon="-0.51905">
        <ele>345.25</ele>
        <time>2021-08-20T05:53:10Z</time>
      </trkpt>
      <trkpt lat="43.14681" lon="-0.51944">
        <ele>345.25</ele>
        <time>2021-08-20T05:53:18Z</time>
      </trkpt>
      <trkpt lat="43.14689" lon="-0.51955">
        <ele>346.69</ele>
        <time>2021-08-20T05:53:20Z</time>
      </trkpt>
      <trkpt lat="43.14711" lon="-0.51986">
        <ele>347.17</ele>
        <time>2021-08-20T05:53:26Z</time>
      </trkpt>
      <trkpt lat="43.14714" lon="-0.51991">
        <ele>347.17</ele>
        <time>2021-08-20T05:53:27Z</time>
      </trkpt>
      <trkpt lat="43.14718" lon="-0.52003">
        <ele>347.17</ele>
        <time>2021-08-20T05:53:29Z</time>
      </trkpt>
      <trkpt lat="43.14719" lon="-0.52009">
        <ele>347.17</ele>
        <time>2021-08-20T05:53:30Z</time>
      </trkpt>
      <trkpt lat="43.1472" lon="-0.52015">
        <ele>347.17</ele>
        <time>2021-08-20T05:53:31Z</time>
      </trkpt>
      <trkpt lat="43.1472" lon="-0.52021">
        <ele>347.17</ele>
        <time>2021-08-20T05:53:32Z</time>
      </trkpt>
      <trkpt lat="43.1472" lon="-0.52027">
        <ele>347.17</ele>
        <time>2021-08-20T05:53:33Z</time>
      </trkpt>
      <trkpt lat="43.14719" lon="-0.52034">
        <ele>347.17</ele>
        <time>2021-08-20T05:53:34Z</time>
      </trkpt>
      <trkpt lat="43.14713" lon="-0.5209">
        <ele>345.73</ele>
        <time>2021-08-20T05:53:41Z</time>
      </trkpt>
      <trkpt lat="43.14711" lon="-0.52098">
        <ele>345.73</ele>
        <time>2021-08-20T05:53:42Z</time>
      </trkpt>
      <trkpt lat="43.14703" lon="-0.52155">
        <ele>344.29</ele>
        <time>2021-08-20T05:53:48Z</time>
      </trkpt>
      <trkpt lat="43.14695" lon="-0.52212">
        <ele>343.33</ele>
        <time>2021-08-20T05:53:54Z</time>
      </trkpt>
      <trkpt lat="43.14692" lon="-0.52241">
        <ele>341.89</ele>
        <time>2021-08-20T05:53:57Z</time>
      </trkpt>
      <trkpt lat="43.14685" lon="-0.52313">
        <ele>340.44</ele>
        <time>2021-08-20T05:54:04Z</time>
      </trkpt>
      <trkpt lat="43.14687" lon="-0.52404">
        <ele>338.52</ele>
        <time>2021-08-20T05:54:13Z</time>
      </trkpt>
      <trkpt lat="43.1469" lon="-0.5247">
        <ele>338.04</ele>
        <time>2021-08-20T05:54:20Z</time>
      </trkpt>
      <trkpt lat="43.14692" lon="-0.52534">
        <ele>336.6</ele>
        <time>2021-08-20T05:54:27Z</time>
      </trkpt>
      <trkpt lat="43.14695" lon="-0.5256">
        <ele>336.12</ele>
        <time>2021-08-20T05:54:30Z</time>
      </trkpt>
      <trkpt lat="43.14697" lon="-0.52569">
        <ele>336.12</ele>
        <time>2021-08-20T05:54:31Z</time>
      </trkpt>
      <trkpt lat="43.147" lon="-0.52577">
        <ele>335.64</ele>
        <time>2021-08-20T05:54:32Z</time>
      </trkpt>
      <trkpt lat="43.14722" lon="-0.52629">
        <ele>334.2</ele>
        <time>2021-08-20T05:54:38Z</time>
      </trkpt>
      <trkpt lat="43.14743" lon="-0.52701">
        <ele>334.2</ele>
        <time>2021-08-20T05:54:46Z</time>
      </trkpt>
      <trkpt lat="43.14766" lon="-0.52778">
        <ele>334.2</ele>
        <time>2021-08-20T05:54:56Z</time>
      </trkpt>
      <trkpt lat="43.14778" lon="-0.5282">
        <ele>334.2</ele>
        <time>2021-08-20T05:55:02Z</time>
      </trkpt>
      <trkpt lat="43.14788" lon="-0.52844">
        <ele>334.2</ele>
        <time>2021-08-20T05:55:06Z</time>
      </trkpt>
      <trkpt lat="43.14791" lon="-0.5285">
        <ele>334.2</ele>
        <time>2021-08-20T05:55:07Z</time>
      </trkpt>
      <trkpt lat="43.14793" lon="-0.52855">
        <ele>335.16</ele>
        <time>2021-08-20T05:55:08Z</time>
      </trkpt>
      <trkpt lat="43.14822" lon="-0.52901">
        <ele>335.16</ele>
        <time>2021-08-20T05:55:16Z</time>
      </trkpt>
      <trkpt lat="43.14856" lon="-0.52955">
        <ele>335.16</ele>
        <time>2021-08-20T05:55:25Z</time>
      </trkpt>
      <trkpt lat="43.14884" lon="-0.53004">
        <ele>335.16</ele>
        <time>2021-08-20T05:55:34Z</time>
      </trkpt>
      <trkpt lat="43.14894" lon="-0.53024">
        <ele>335.16</ele>
        <time>2021-08-20T05:55:38Z</time>
      </trkpt>
      <trkpt lat="43.14899" lon="-0.53034">
        <ele>335.16</ele>
        <time>2021-08-20T05:55:40Z</time>
      </trkpt>
      <trkpt lat="43.14901" lon="-0.53038">
        <ele>335.16</ele>
        <time>2021-08-20T05:55:41Z</time>
      </trkpt>
      <trkpt lat="43.14906" lon="-0.53049">
        <ele>335.16</ele>
        <time>2021-08-20T05:55:43Z</time>
      </trkpt>
      <trkpt lat="43.14912" lon="-0.53059">
        <ele>335.16</ele>
        <time>2021-08-20T05:55:45Z</time>
      </trkpt>
      <trkpt lat="43.14923" lon="-0.53078">
        <ele>335.16</ele>
        <time>2021-08-20T05:55:50Z</time>
      </trkpt>
      <trkpt lat="43.14922" lon="-0.53076">
        <ele>335.64</ele>
        <time>2021-08-20T05:55:58Z</time>
      </trkpt>
      <trkpt lat="43.14922" lon="-0.53076">
        <ele>335.64</ele>
        <time>2021-08-20T05:56:14Z</time>
      </trkpt>
      <trkpt lat="43.14921" lon="-0.53076">
        <ele>335.64</ele>
        <time>2021-08-20T05:56:34Z</time>
      </trkpt>
      <trkpt lat="43.1492" lon="-0.53077">
        <ele>335.64</ele>
        <time>2021-08-20T05:56:52Z</time>
      </trkpt>
      <trkpt lat="43.14921" lon="-0.53077">
        <ele>335.64</ele>
        <time>2021-08-20T05:57:08Z</time>
      </trkpt>
      <trkpt lat="43.14921" lon="-0.53077">
        <ele>335.64</ele>
        <time>2021-08-20T05:57:26Z</time>
      </trkpt>
      <trkpt lat="43.14922" lon="-0.53076">
        <ele>335.16</ele>
        <time>2021-08-20T05:57:43Z</time>
      </trkpt>
      <trkpt lat="43.14922" lon="-0.53077">
        <ele>335.16</ele>
        <time>2021-08-20T05:57:55Z</time>
      </trkpt>
      <trkpt lat="43.14922" lon="-0.53076">
        <ele>335.16</ele>
        <time>2021-08-20T05:58:22Z</time>
      </trkpt>
      <trkpt lat="43.14923" lon="-0.53076">
        <ele>335.16</ele>
        <time>2021-08-20T05:58:37Z</time>
      </trkpt>
      <trkpt lat="43.14923" lon="-0.53075">
        <ele>334.2</ele>
        <time>2021-08-20T05:58:47Z</time>
      </trkpt>
      <trkpt lat="43.14923" lon="-0.53077">
        <ele>334.2</ele>
        <time>2021-08-20T05:58:57Z</time>
      </trkpt>
      <trkpt lat="43.14922" lon="-0.53073">
        <ele>334.2</ele>
        <time>2021-08-20T05:59:03Z</time>
      </trkpt>
      <trkpt lat="43.14921" lon="-0.53074">
        <ele>334.2</ele>
        <time>2021-08-20T05:59:08Z</time>
      </trkpt>
      <trkpt lat="43.14922" lon="-0.53076">
        <ele>333.71</ele>
        <time>2021-08-20T05:59:34Z</time>
      </trkpt>
      <trkpt lat="43.14923" lon="-0.53077">
        <ele>333.71</ele>
        <time>2021-08-20T05:59:45Z</time>
      </trkpt>
      <trkpt lat="43.14924" lon="-0.53081">
        <ele>335.16</ele>
        <time>2021-08-20T05:59:52Z</time>
      </trkpt>
      <trkpt lat="43.14924" lon="-0.53081">
        <ele>335.16</ele>
        <time>2021-08-20T06:00:09Z</time>
      </trkpt>
      <trkpt lat="43.14925" lon="-0.53081">
        <ele>335.16</ele>
        <time>2021-08-20T06:00:30Z</time>
      </trkpt>
      <trkpt lat="43.14925" lon="-0.53083">
        <ele>335.16</ele>
        <time>2021-08-20T06:00:39Z</time>
      </trkpt>
      <trkpt lat="43.14932" lon="-0.53098">
        <ele>335.16</ele>
        <time>2021-08-20T06:00:46Z</time>
      </trkpt>
      <trkpt lat="43.14946" lon="-0.53128">
        <ele>333.71</ele>
        <time>2021-08-20T06:00:53Z</time>
      </trkpt>
      <trkpt lat="43.14949" lon="-0.53133">
        <ele>333.71</ele>
        <time>2021-08-20T06:00:54Z</time>
      </trkpt>
      <trkpt lat="43.14952" lon="-0.53137">
        <ele>333.71</ele>
        <time>2021-08-20T06:00:55Z</time>
      </trkpt>
      <trkpt lat="43.14958" lon="-0.53146">
        <ele>333.23</ele>
        <time>2021-08-20T06:00:57Z</time>
      </trkpt>
      <trkpt lat="43.1497" lon="-0.53161">
        <ele>333.23</ele>
        <time>2021-08-20T06:01:01Z</time>
      </trkpt>
      <trkpt lat="43.14988" lon="-0.53178">
        <ele>334.68</ele>
        <time>2021-08-20T06:01:07Z</time>
      </trkpt>
      <trkpt lat="43.15009" lon="-0.53193">
        <ele>335.64</ele>
        <time>2021-08-20T06:01:14Z</time>
      </trkpt>
      <trkpt lat="43.1502" lon="-0.53196">
        <ele>335.64</ele>
        <time>2021-08-20T06:01:17Z</time>
      </trkpt>
      <trkpt lat="43.15025" lon="-0.53195">
        <ele>334.2</ele>
        <time>2021-08-20T06:01:18Z</time>
      </trkpt>
      <trkpt lat="43.1503" lon="-0.53193">
        <ele>333.71</ele>
        <time>2021-08-20T06:01:19Z</time>
      </trkpt>
      <trkpt lat="43.15035" lon="-0.53189">
        <ele>333.23</ele>
        <time>2021-08-20T06:01:20Z</time>
      </trkpt>
      <trkpt lat="43.1504" lon="-0.53184">
        <ele>332.27</ele>
        <time>2021-08-20T06:01:21Z</time>
      </trkpt>
      <trkpt lat="43.15046" lon="-0.53181">
        <ele>331.31</ele>
        <time>2021-08-20T06:01:22Z</time>
      </trkpt>
      <trkpt lat="43.15052" lon="-0.53178">
        <ele>330.83</ele>
        <time>2021-08-20T06:01:23Z</time>
      </trkpt>
      <trkpt lat="43.15059" lon="-0.53175">
        <ele>329.87</ele>
        <time>2021-08-20T06:01:24Z</time>
      </trkpt>
      <trkpt lat="43.15084" lon="-0.53169">
        <ele>326.5</ele>
        <time>2021-08-20T06:01:27Z</time>
      </trkpt>
      <trkpt lat="43.15109" lon="-0.53166">
        <ele>325.54</ele>
        <time>2021-08-20T06:01:30Z</time>
      </trkpt>
      <trkpt lat="43.15143" lon="-0.53163">
        <ele>324.1</ele>
        <time>2021-08-20T06:01:34Z</time>
      </trkpt>
      <trkpt lat="43.15186" lon="-0.53141">
        <ele>323.14</ele>
        <time>2021-08-20T06:01:40Z</time>
      </trkpt>
      <trkpt lat="43.15216" lon="-0.53114">
        <ele>323.14</ele>
        <time>2021-08-20T06:01:46Z</time>
      </trkpt>
      <trkpt lat="43.15219" lon="-0.5311">
        <ele>323.14</ele>
        <time>2021-08-20T06:01:47Z</time>
      </trkpt>
      <trkpt lat="43.15223" lon="-0.53106">
        <ele>324.58</ele>
        <time>2021-08-20T06:01:48Z</time>
      </trkpt>
      <trkpt lat="43.15227" lon="-0.53102">
        <ele>324.58</ele>
        <time>2021-08-20T06:01:49Z</time>
      </trkpt>
      <trkpt lat="43.1523" lon="-0.53098">
        <ele>325.06</ele>
        <time>2021-08-20T06:01:50Z</time>
      </trkpt>
      <trkpt lat="43.15233" lon="-0.53094">
        <ele>325.06</ele>
        <time>2021-08-20T06:01:51Z</time>
      </trkpt>
      <trkpt lat="43.15236" lon="-0.5309">
        <ele>325.54</ele>
        <time>2021-08-20T06:01:52Z</time>
      </trkpt>
      <trkpt lat="43.15253" lon="-0.53066">
        <ele>326.99</ele>
        <time>2021-08-20T06:02:00Z</time>
      </trkpt>
      <trkpt lat="43.15273" lon="-0.53043">
        <ele>327.95</ele>
        <time>2021-08-20T06:02:09Z</time>
      </trkpt>
      <trkpt lat="43.15289" lon="-0.53036">
        <ele>328.91</ele>
        <time>2021-08-20T06:02:15Z</time>
      </trkpt>
      <trkpt lat="43.15292" lon="-0.5304">
        <ele>329.39</ele>
        <time>2021-08-20T06:02:17Z</time>
      </trkpt>
      <trkpt lat="43.15294" lon="-0.53043">
        <ele>329.39</ele>
        <time>2021-08-20T06:02:18Z</time>
      </trkpt>
      <trkpt lat="43.15294" lon="-0.53045">
        <ele>329.39</ele>
        <time>2021-08-20T06:02:19Z</time>
      </trkpt>
      <trkpt lat="43.15296" lon="-0.53078">
        <ele>329.39</ele>
        <time>2021-08-20T06:02:27Z</time>
      </trkpt>
      <trkpt lat="43.15295" lon="-0.53115">
        <ele>329.39</ele>
        <time>2021-08-20T06:02:34Z</time>
      </trkpt>
      <trkpt lat="43.15295" lon="-0.53152">
        <ele>329.39</ele>
        <time>2021-08-20T06:02:40Z</time>
      </trkpt>
      <trkpt lat="43.15294" lon="-0.53181">
        <ele>329.39</ele>
        <time>2021-08-20T06:02:44Z</time>
      </trkpt>
      <trkpt lat="43.15294" lon="-0.53188">
        <ele>329.39</ele>
        <time>2021-08-20T06:02:45Z</time>
      </trkpt>
      <trkpt lat="43.15296" lon="-0.53195">
        <ele>329.39</ele>
        <time>2021-08-20T06:02:46Z</time>
      </trkpt>
      <trkpt lat="43.15297" lon="-0.53201">
        <ele>329.39</ele>
        <time>2021-08-20T06:02:47Z</time>
      </trkpt>
      <trkpt lat="43.153" lon="-0.53207">
        <ele>329.39</ele>
        <time>2021-08-20T06:02:48Z</time>
      </trkpt>
      <trkpt lat="43.15302" lon="-0.53213">
        <ele>329.39</ele>
        <time>2021-08-20T06:02:49Z</time>
      </trkpt>
      <trkpt lat="43.15305" lon="-0.53219">
        <ele>329.39</ele>
        <time>2021-08-20T06:02:50Z</time>
      </trkpt>
      <trkpt lat="43.15314" lon="-0.53232">
        <ele>330.35</ele>
        <time>2021-08-20T06:02:53Z</time>
      </trkpt>
      <trkpt lat="43.15317" lon="-0.53237">
        <ele>330.35</ele>
        <time>2021-08-20T06:02:54Z</time>
      </trkpt>
      <trkpt lat="43.15323" lon="-0.53245">
        <ele>330.35</ele>
        <time>2021-08-20T06:02:56Z</time>
      </trkpt>
      <trkpt lat="43.15325" lon="-0.5325">
        <ele>330.83</ele>
        <time>2021-08-20T06:02:57Z</time>
      </trkpt>
      <trkpt lat="43.15352" lon="-0.53291">
        <ele>331.79</ele>
        <time>2021-08-20T06:03:07Z</time>
      </trkpt>
      <trkpt lat="43.15353" lon="-0.53297">
        <ele>331.79</ele>
        <time>2021-08-20T06:03:08Z</time>
      </trkpt>
      <trkpt lat="43.15352" lon="-0.53302">
        <ele>331.79</ele>
        <time>2021-08-20T06:03:09Z</time>
      </trkpt>
      <trkpt lat="43.15349" lon="-0.53306">
        <ele>331.79</ele>
        <time>2021-08-20T06:03:10Z</time>
      </trkpt>
      <trkpt lat="43.15346" lon="-0.53309">
        <ele>331.79</ele>
        <time>2021-08-20T06:03:11Z</time>
      </trkpt>
      <trkpt lat="43.15343" lon="-0.53313">
        <ele>331.79</ele>
        <time>2021-08-20T06:03:12Z</time>
      </trkpt>
      <trkpt lat="43.1534" lon="-0.53316">
        <ele>331.79</ele>
        <time>2021-08-20T06:03:13Z</time>
      </trkpt>
      <trkpt lat="43.15332" lon="-0.53321">
        <ele>331.79</ele>
        <time>2021-08-20T06:03:15Z</time>
      </trkpt>
      <trkpt lat="43.15328" lon="-0.53322">
        <ele>331.79</ele>
        <time>2021-08-20T06:03:16Z</time>
      </trkpt>
      <trkpt lat="43.15323" lon="-0.53324">
        <ele>331.79</ele>
        <time>2021-08-20T06:03:17Z</time>
      </trkpt>
      <trkpt lat="43.1531" lon="-0.53327">
        <ele>331.79</ele>
        <time>2021-08-20T06:03:20Z</time>
      </trkpt>
      <trkpt lat="43.15306" lon="-0.53328">
        <ele>331.79</ele>
        <time>2021-08-20T06:03:21Z</time>
      </trkpt>
      <trkpt lat="43.15271" lon="-0.53333">
        <ele>330.83</ele>
        <time>2021-08-20T06:03:29Z</time>
      </trkpt>
      <trkpt lat="43.15267" lon="-0.53334">
        <ele>330.83</ele>
        <time>2021-08-20T06:03:30Z</time>
      </trkpt>
      <trkpt lat="43.15262" lon="-0.53335">
        <ele>330.83</ele>
        <time>2021-08-20T06:03:31Z</time>
      </trkpt>
      <trkpt lat="43.15258" lon="-0.53338">
        <ele>330.83</ele>
        <time>2021-08-20T06:03:32Z</time>
      </trkpt>
      <trkpt lat="43.15254" lon="-0.53341">
        <ele>329.87</ele>
        <time>2021-08-20T06:03:33Z</time>
      </trkpt>
      <trkpt lat="43.15249" lon="-0.53346">
        <ele>329.39</ele>
        <time>2021-08-20T06:03:34Z</time>
      </trkpt>
      <trkpt lat="43.15246" lon="-0.5335">
        <ele>329.39</ele>
        <time>2021-08-20T06:03:35Z</time>
      </trkpt>
      <trkpt lat="43.15243" lon="-0.53356">
        <ele>329.39</ele>
        <time>2021-08-20T06:03:36Z</time>
      </trkpt>
      <trkpt lat="43.1524" lon="-0.53361">
        <ele>329.39</ele>
        <time>2021-08-20T06:03:37Z</time>
      </trkpt>
      <trkpt lat="43.15207" lon="-0.53393">
        <ele>326.99</ele>
        <time>2021-08-20T06:03:44Z</time>
      </trkpt>
      <trkpt lat="43.15168" lon="-0.5343">
        <ele>324.58</ele>
        <time>2021-08-20T06:03:51Z</time>
      </trkpt>
      <trkpt lat="43.15164" lon="-0.53436">
        <ele>324.1</ele>
        <time>2021-08-20T06:03:52Z</time>
      </trkpt>
      <trkpt lat="43.15149" lon="-0.53456">
        <ele>324.1</ele>
        <time>2021-08-20T06:03:56Z</time>
      </trkpt>
      <trkpt lat="43.15142" lon="-0.53462">
        <ele>325.54</ele>
        <time>2021-08-20T06:03:58Z</time>
      </trkpt>
      <trkpt lat="43.15138" lon="-0.53468">
        <ele>326.99</ele>
        <time>2021-08-20T06:04:00Z</time>
      </trkpt>
      <trkpt lat="43.15126" lon="-0.53482">
        <ele>328.43</ele>
        <time>2021-08-20T06:04:06Z</time>
      </trkpt>
      <trkpt lat="43.15112" lon="-0.53505">
        <ele>328.91</ele>
        <time>2021-08-20T06:04:13Z</time>
      </trkpt>
      <trkpt lat="43.15098" lon="-0.53527">
        <ele>330.35</ele>
        <time>2021-08-20T06:04:20Z</time>
      </trkpt>
      <trkpt lat="43.15088" lon="-0.53543">
        <ele>329.87</ele>
        <time>2021-08-20T06:04:26Z</time>
      </trkpt>
      <trkpt lat="43.1507" lon="-0.53568">
        <ele>331.31</ele>
        <time>2021-08-20T06:04:34Z</time>
      </trkpt>
      <trkpt lat="43.15058" lon="-0.53586">
        <ele>331.79</ele>
        <time>2021-08-20T06:04:41Z</time>
      </trkpt>
      <trkpt lat="43.15047" lon="-0.53605">
        <ele>332.75</ele>
        <time>2021-08-20T06:04:49Z</time>
      </trkpt>
      <trkpt lat="43.15039" lon="-0.53626">
        <ele>332.75</ele>
        <time>2021-08-20T06:04:57Z</time>
      </trkpt>
      <trkpt lat="43.1503" lon="-0.53648">
        <ele>334.2</ele>
        <time>2021-08-20T06:05:06Z</time>
      </trkpt>
      <trkpt lat="43.15025" lon="-0.5366">
        <ele>335.16</ele>
        <time>2021-08-20T06:05:13Z</time>
      </trkpt>
      <trkpt lat="43.15016" lon="-0.53679">
        <ele>337.08</ele>
        <time>2021-08-20T06:05:23Z</time>
      </trkpt>
      <trkpt lat="43.15009" lon="-0.53695">
        <ele>338.04</ele>
        <time>2021-08-20T06:05:31Z</time>
      </trkpt>
      <trkpt lat="43.15005" lon="-0.53718">
        <ele>338.04</ele>
        <time>2021-08-20T06:05:38Z</time>
      </trkpt>
      <trkpt lat="43.15006" lon="-0.53748">
        <ele>338.52</ele>
        <time>2021-08-20T06:05:46Z</time>
      </trkpt>
      <trkpt lat="43.15006" lon="-0.53782">
        <ele>339</ele>
        <time>2021-08-20T06:05:55Z</time>
      </trkpt>
      <trkpt lat="43.15008" lon="-0.53796">
        <ele>340.44</ele>
        <time>2021-08-20T06:06:01Z</time>
      </trkpt>
      <trkpt lat="43.15009" lon="-0.53811">
        <ele>341.41</ele>
        <time>2021-08-20T06:06:08Z</time>
      </trkpt>
      <trkpt lat="43.1501" lon="-0.5382">
        <ele>342.37</ele>
        <time>2021-08-20T06:06:15Z</time>
      </trkpt>
      <trkpt lat="43.15008" lon="-0.5383">
        <ele>343.81</ele>
        <time>2021-08-20T06:06:22Z</time>
      </trkpt>
      <trkpt lat="43.15006" lon="-0.5384">
        <ele>344.77</ele>
        <time>2021-08-20T06:06:30Z</time>
      </trkpt>
      <trkpt lat="43.15005" lon="-0.53848">
        <ele>344.77</ele>
        <time>2021-08-20T06:06:37Z</time>
      </trkpt>
      <trkpt lat="43.15004" lon="-0.53855">
        <ele>345.73</ele>
        <time>2021-08-20T06:06:44Z</time>
      </trkpt>
      <trkpt lat="43.15003" lon="-0.53863">
        <ele>346.69</ele>
        <time>2021-08-20T06:06:51Z</time>
      </trkpt>
      <trkpt lat="43.15001" lon="-0.53874">
        <ele>347.65</ele>
        <time>2021-08-20T06:07:00Z</time>
      </trkpt>
      <trkpt lat="43.14999" lon="-0.53878">
        <ele>347.65</ele>
        <time>2021-08-20T06:07:06Z</time>
      </trkpt>
      <trkpt lat="43.14999" lon="-0.53879">
        <ele>347.65</ele>
        <time>2021-08-20T06:07:19Z</time>
      </trkpt>
      <trkpt lat="43.15001" lon="-0.53881">
        <ele>348.13</ele>
        <time>2021-08-20T06:07:34Z</time>
      </trkpt>
      <trkpt lat="43.14993" lon="-0.53882">
        <ele>348.13</ele>
        <time>2021-08-20T06:08:31Z</time>
      </trkpt>
      <trkpt lat="43.14997" lon="-0.5388">
        <ele>348.13</ele>
        <time>2021-08-20T06:08:35Z</time>
      </trkpt>
      <trkpt lat="43.15" lon="-0.53882">
        <ele>348.13</ele>
        <time>2021-08-20T06:08:45Z</time>
      </trkpt>
      <trkpt lat="43.14998" lon="-0.53889">
        <ele>348.13</ele>
        <time>2021-08-20T06:08:51Z</time>
      </trkpt>
      <trkpt lat="43.14997" lon="-0.53897">
        <ele>348.13</ele>
        <time>2021-08-20T06:08:55Z</time>
      </trkpt>
      <trkpt lat="43.14995" lon="-0.539">
        <ele>348.13</ele>
        <time>2021-08-20T06:08:56Z</time>
      </trkpt>
      <trkpt lat="43.14994" lon="-0.53902">
        <ele>346.69</ele>
        <time>2021-08-20T06:08:57Z</time>
      </trkpt>
      <trkpt lat="43.14993" lon="-0.53906">
        <ele>346.69</ele>
        <time>2021-08-20T06:08:58Z</time>
      </trkpt>
      <trkpt lat="43.14993" lon="-0.53911">
        <ele>346.69</ele>
        <time>2021-08-20T06:08:59Z</time>
      </trkpt>
      <trkpt lat="43.14994" lon="-0.53915">
        <ele>346.69</ele>
        <time>2021-08-20T06:09:00Z</time>
      </trkpt>
      <trkpt lat="43.14996" lon="-0.53945">
        <ele>346.69</ele>
        <time>2021-08-20T06:09:07Z</time>
      </trkpt>
      <trkpt lat="43.15001" lon="-0.53971">
        <ele>346.21</ele>
        <time>2021-08-20T06:09:13Z</time>
      </trkpt>
      <trkpt lat="43.15003" lon="-0.53987">
        <ele>344.77</ele>
        <time>2021-08-20T06:09:16Z</time>
      </trkpt>
      <trkpt lat="43.15004" lon="-0.53993">
        <ele>344.29</ele>
        <time>2021-08-20T06:09:17Z</time>
      </trkpt>
      <trkpt lat="43.15007" lon="-0.53999">
        <ele>344.29</ele>
        <time>2021-08-20T06:09:18Z</time>
      </trkpt>
      <trkpt lat="43.15013" lon="-0.54011">
        <ele>341.89</ele>
        <time>2021-08-20T06:09:20Z</time>
      </trkpt>
      <trkpt lat="43.15017" lon="-0.54023">
        <ele>340.44</ele>
        <time>2021-08-20T06:09:22Z</time>
      </trkpt>
      <trkpt lat="43.15018" lon="-0.5403">
        <ele>339.96</ele>
        <time>2021-08-20T06:09:23Z</time>
      </trkpt>
      <trkpt lat="43.15019" lon="-0.54036">
        <ele>339.48</ele>
        <time>2021-08-20T06:09:24Z</time>
      </trkpt>
      <trkpt lat="43.15018" lon="-0.54043">
        <ele>338.52</ele>
        <time>2021-08-20T06:09:25Z</time>
      </trkpt>
      <trkpt lat="43.15018" lon="-0.54048">
        <ele>338.52</ele>
        <time>2021-08-20T06:09:26Z</time>
      </trkpt>
      <trkpt lat="43.15019" lon="-0.54053">
        <ele>337.56</ele>
        <time>2021-08-20T06:09:27Z</time>
      </trkpt>
      <trkpt lat="43.15021" lon="-0.54057">
        <ele>337.56</ele>
        <time>2021-08-20T06:09:28Z</time>
      </trkpt>
      <trkpt lat="43.15022" lon="-0.54063">
        <ele>337.08</ele>
        <time>2021-08-20T06:09:29Z</time>
      </trkpt>
      <trkpt lat="43.15023" lon="-0.54069">
        <ele>336.12</ele>
        <time>2021-08-20T06:09:30Z</time>
      </trkpt>
      <trkpt lat="43.15024" lon="-0.54076">
        <ele>335.64</ele>
        <time>2021-08-20T06:09:31Z</time>
      </trkpt>
      <trkpt lat="43.15024" lon="-0.54083">
        <ele>335.64</ele>
        <time>2021-08-20T06:09:32Z</time>
      </trkpt>
      <trkpt lat="43.15023" lon="-0.5409">
        <ele>334.68</ele>
        <time>2021-08-20T06:09:33Z</time>
      </trkpt>
      <trkpt lat="43.15022" lon="-0.54096">
        <ele>334.2</ele>
        <time>2021-08-20T06:09:34Z</time>
      </trkpt>
      <trkpt lat="43.15019" lon="-0.54103">
        <ele>333.71</ele>
        <time>2021-08-20T06:09:35Z</time>
      </trkpt>
      <trkpt lat="43.15016" lon="-0.5411">
        <ele>332.75</ele>
        <time>2021-08-20T06:09:36Z</time>
      </trkpt>
      <trkpt lat="43.15012" lon="-0.54115">
        <ele>332.27</ele>
        <time>2021-08-20T06:09:37Z</time>
      </trkpt>
      <trkpt lat="43.15008" lon="-0.54121">
        <ele>331.31</ele>
        <time>2021-08-20T06:09:38Z</time>
      </trkpt>
      <trkpt lat="43.15003" lon="-0.54125">
        <ele>330.35</ele>
        <time>2021-08-20T06:09:39Z</time>
      </trkpt>
      <trkpt lat="43.14994" lon="-0.54132">
        <ele>329.87</ele>
        <time>2021-08-20T06:09:41Z</time>
      </trkpt>
      <trkpt lat="43.14988" lon="-0.54135">
        <ele>328.91</ele>
        <time>2021-08-20T06:09:42Z</time>
      </trkpt>
      <trkpt lat="43.14973" lon="-0.54142">
        <ele>327.47</ele>
        <time>2021-08-20T06:09:45Z</time>
      </trkpt>
      <trkpt lat="43.14965" lon="-0.54149">
        <ele>325.54</ele>
        <time>2021-08-20T06:09:47Z</time>
      </trkpt>
      <trkpt lat="43.14961" lon="-0.54152">
        <ele>325.06</ele>
        <time>2021-08-20T06:09:48Z</time>
      </trkpt>
      <trkpt lat="43.14956" lon="-0.54155">
        <ele>324.1</ele>
        <time>2021-08-20T06:09:49Z</time>
      </trkpt>
      <trkpt lat="43.1495" lon="-0.54157">
        <ele>323.62</ele>
        <time>2021-08-20T06:09:50Z</time>
      </trkpt>
      <trkpt lat="43.14944" lon="-0.54159">
        <ele>323.14</ele>
        <time>2021-08-20T06:09:51Z</time>
      </trkpt>
      <trkpt lat="43.14938" lon="-0.54161">
        <ele>322.18</ele>
        <time>2021-08-20T06:09:52Z</time>
      </trkpt>
      <trkpt lat="43.14933" lon="-0.54164">
        <ele>321.7</ele>
        <time>2021-08-20T06:09:53Z</time>
      </trkpt>
      <trkpt lat="43.14929" lon="-0.54167">
        <ele>321.7</ele>
        <time>2021-08-20T06:09:54Z</time>
      </trkpt>
      <trkpt lat="43.14924" lon="-0.5417">
        <ele>321.22</ele>
        <time>2021-08-20T06:09:55Z</time>
      </trkpt>
      <trkpt lat="43.14919" lon="-0.54171">
        <ele>320.26</ele>
        <time>2021-08-20T06:09:56Z</time>
      </trkpt>
      <trkpt lat="43.14914" lon="-0.5417">
        <ele>320.26</ele>
        <time>2021-08-20T06:09:57Z</time>
      </trkpt>
      <trkpt lat="43.14909" lon="-0.54168">
        <ele>319.3</ele>
        <time>2021-08-20T06:09:58Z</time>
      </trkpt>
      <trkpt lat="43.14905" lon="-0.54165">
        <ele>318.33</ele>
        <time>2021-08-20T06:09:59Z</time>
      </trkpt>
      <trkpt lat="43.149" lon="-0.54163">
        <ele>317.85</ele>
        <time>2021-08-20T06:10:00Z</time>
      </trkpt>
      <trkpt lat="43.14884" lon="-0.54156">
        <ele>314.49</ele>
        <time>2021-08-20T06:10:03Z</time>
      </trkpt>
      <trkpt lat="43.14864" lon="-0.54144">
        <ele>310.16</ele>
        <time>2021-08-20T06:10:06Z</time>
      </trkpt>
      <trkpt lat="43.14858" lon="-0.54139">
        <ele>310.16</ele>
        <time>2021-08-20T06:10:07Z</time>
      </trkpt>
      <trkpt lat="43.14853" lon="-0.54134">
        <ele>310.16</ele>
        <time>2021-08-20T06:10:08Z</time>
      </trkpt>
      <trkpt lat="43.14831" lon="-0.54118">
        <ele>309.68</ele>
        <time>2021-08-20T06:10:12Z</time>
      </trkpt>
      <trkpt lat="43.1482" lon="-0.54113">
        <ele>309.68</ele>
        <time>2021-08-20T06:10:14Z</time>
      </trkpt>
      <trkpt lat="43.14814" lon="-0.54112">
        <ele>309.2</ele>
        <time>2021-08-20T06:10:15Z</time>
      </trkpt>
      <trkpt lat="43.14809" lon="-0.54112">
        <ele>309.2</ele>
        <time>2021-08-20T06:10:16Z</time>
      </trkpt>
      <trkpt lat="43.14802" lon="-0.54113">
        <ele>308.72</ele>
        <time>2021-08-20T06:10:17Z</time>
      </trkpt>
      <trkpt lat="43.14796" lon="-0.54114">
        <ele>308.72</ele>
        <time>2021-08-20T06:10:18Z</time>
      </trkpt>
      <trkpt lat="43.14784" lon="-0.54118">
        <ele>308.24</ele>
        <time>2021-08-20T06:10:20Z</time>
      </trkpt>
      <trkpt lat="43.14778" lon="-0.54122">
        <ele>307.76</ele>
        <time>2021-08-20T06:10:21Z</time>
      </trkpt>
      <trkpt lat="43.14773" lon="-0.54127">
        <ele>307.76</ele>
        <time>2021-08-20T06:10:22Z</time>
      </trkpt>
      <trkpt lat="43.14732" lon="-0.54167">
        <ele>306.32</ele>
        <time>2021-08-20T06:10:30Z</time>
      </trkpt>
      <trkpt lat="43.14686" lon="-0.54224">
        <ele>304.88</ele>
        <time>2021-08-20T06:10:40Z</time>
      </trkpt>
      <trkpt lat="43.14655" lon="-0.54267">
        <ele>304.39</ele>
        <time>2021-08-20T06:10:48Z</time>
      </trkpt>
      <trkpt lat="43.14638" lon="-0.54298">
        <ele>304.39</ele>
        <time>2021-08-20T06:10:54Z</time>
      </trkpt>
      <trkpt lat="43.14635" lon="-0.54303">
        <ele>304.39</ele>
        <time>2021-08-20T06:10:55Z</time>
      </trkpt>
      <trkpt lat="43.14627" lon="-0.54313">
        <ele>304.39</ele>
        <time>2021-08-20T06:10:57Z</time>
      </trkpt>
      <trkpt lat="43.14597" lon="-0.54347">
        <ele>303.43</ele>
        <time>2021-08-20T06:11:05Z</time>
      </trkpt>
      <trkpt lat="43.14586" lon="-0.54362">
        <ele>303.43</ele>
        <time>2021-08-20T06:11:08Z</time>
      </trkpt>
      <trkpt lat="43.14582" lon="-0.54368">
        <ele>303.43</ele>
        <time>2021-08-20T06:11:09Z</time>
      </trkpt>
      <trkpt lat="43.14579" lon="-0.54374">
        <ele>302.95</ele>
        <time>2021-08-20T06:11:10Z</time>
      </trkpt>
      <trkpt lat="43.14575" lon="-0.54378">
        <ele>302.95</ele>
        <time>2021-08-20T06:11:11Z</time>
      </trkpt>
      <trkpt lat="43.14571" lon="-0.54382">
        <ele>302.95</ele>
        <time>2021-08-20T06:11:12Z</time>
      </trkpt>
      <trkpt lat="43.14546" lon="-0.54414">
        <ele>302.95</ele>
        <time>2021-08-20T06:11:20Z</time>
      </trkpt>
      <trkpt lat="43.1454" lon="-0.54422">
        <ele>302.95</ele>
        <time>2021-08-20T06:11:22Z</time>
      </trkpt>
      <trkpt lat="43.14537" lon="-0.54427">
        <ele>302.95</ele>
        <time>2021-08-20T06:11:23Z</time>
      </trkpt>
      <trkpt lat="43.14524" lon="-0.54451">
        <ele>302.95</ele>
        <time>2021-08-20T06:11:28Z</time>
      </trkpt>
      <trkpt lat="43.14521" lon="-0.54455">
        <ele>302.95</ele>
        <time>2021-08-20T06:11:29Z</time>
      </trkpt>
      <trkpt lat="43.14512" lon="-0.54484">
        <ele>302.95</ele>
        <time>2021-08-20T06:11:36Z</time>
      </trkpt>
      <trkpt lat="43.14515" lon="-0.54503">
        <ele>302.95</ele>
        <time>2021-08-20T06:11:41Z</time>
      </trkpt>
      <trkpt lat="43.14513" lon="-0.54538">
        <ele>302.95</ele>
        <time>2021-08-20T06:11:47Z</time>
      </trkpt>
      <trkpt lat="43.1451" lon="-0.5456">
        <ele>301.99</ele>
        <time>2021-08-20T06:11:50Z</time>
      </trkpt>
      <trkpt lat="43.14509" lon="-0.54567">
        <ele>301.99</ele>
        <time>2021-08-20T06:11:51Z</time>
      </trkpt>
      <trkpt lat="43.14501" lon="-0.54588">
        <ele>301.99</ele>
        <time>2021-08-20T06:11:56Z</time>
      </trkpt>
      <trkpt lat="43.14497" lon="-0.54595">
        <ele>303.91</ele>
        <time>2021-08-20T06:11:59Z</time>
      </trkpt>
      <trkpt lat="43.1449" lon="-0.54617">
        <ele>304.88</ele>
        <time>2021-08-20T06:12:07Z</time>
      </trkpt>
      <trkpt lat="43.14487" lon="-0.54621">
        <ele>304.88</ele>
        <time>2021-08-20T06:12:09Z</time>
      </trkpt>
      <trkpt lat="43.14484" lon="-0.54623">
        <ele>304.88</ele>
        <time>2021-08-20T06:12:10Z</time>
      </trkpt>
      <trkpt lat="43.14481" lon="-0.54623">
        <ele>304.88</ele>
        <time>2021-08-20T06:12:11Z</time>
      </trkpt>
      <trkpt lat="43.14461" lon="-0.54634">
        <ele>306.32</ele>
        <time>2021-08-20T06:12:19Z</time>
      </trkpt>
      <trkpt lat="43.14447" lon="-0.54645">
        <ele>306.8</ele>
        <time>2021-08-20T06:12:25Z</time>
      </trkpt>
      <trkpt lat="43.14429" lon="-0.54655">
        <ele>306.8</ele>
        <time>2021-08-20T06:12:32Z</time>
      </trkpt>
      <trkpt lat="43.14424" lon="-0.54658">
        <ele>306.8</ele>
        <time>2021-08-20T06:12:36Z</time>
      </trkpt>
      <trkpt lat="43.14423" lon="-0.54657">
        <ele>306.8</ele>
        <time>2021-08-20T06:12:38Z</time>
      </trkpt>
      <trkpt lat="43.14421" lon="-0.54656">
        <ele>307.28</ele>
        <time>2021-08-20T06:12:39Z</time>
      </trkpt>
      <trkpt lat="43.1442" lon="-0.54655">
        <ele>307.28</ele>
        <time>2021-08-20T06:12:40Z</time>
      </trkpt>
      <trkpt lat="43.14418" lon="-0.54655">
        <ele>307.28</ele>
        <time>2021-08-20T06:12:41Z</time>
      </trkpt>
      <trkpt lat="43.14417" lon="-0.54656">
        <ele>307.28</ele>
        <time>2021-08-20T06:12:42Z</time>
      </trkpt>
      <trkpt lat="43.14415" lon="-0.54657">
        <ele>307.28</ele>
        <time>2021-08-20T06:12:43Z</time>
      </trkpt>
      <trkpt lat="43.14414" lon="-0.54659">
        <ele>307.28</ele>
        <time>2021-08-20T06:12:44Z</time>
      </trkpt>
      <trkpt lat="43.14413" lon="-0.54662">
        <ele>307.28</ele>
        <time>2021-08-20T06:12:45Z</time>
      </trkpt>
      <trkpt lat="43.14413" lon="-0.54666">
        <ele>307.28</ele>
        <time>2021-08-20T06:12:46Z</time>
      </trkpt>
      <trkpt lat="43.14413" lon="-0.5467">
        <ele>307.28</ele>
        <time>2021-08-20T06:12:47Z</time>
      </trkpt>
      <trkpt lat="43.14413" lon="-0.54674">
        <ele>307.28</ele>
        <time>2021-08-20T06:12:48Z</time>
      </trkpt>
      <trkpt lat="43.14414" lon="-0.54677">
        <ele>307.28</ele>
        <time>2021-08-20T06:12:49Z</time>
      </trkpt>
      <trkpt lat="43.14414" lon="-0.5468">
        <ele>307.28</ele>
        <time>2021-08-20T06:12:50Z</time>
      </trkpt>
      <trkpt lat="43.14413" lon="-0.54683">
        <ele>307.28</ele>
        <time>2021-08-20T06:12:51Z</time>
      </trkpt>
      <trkpt lat="43.14412" lon="-0.54686">
        <ele>307.28</ele>
        <time>2021-08-20T06:12:52Z</time>
      </trkpt>
      <trkpt lat="43.1441" lon="-0.54689">
        <ele>307.28</ele>
        <time>2021-08-20T06:12:53Z</time>
      </trkpt>
      <trkpt lat="43.14408" lon="-0.54691">
        <ele>307.28</ele>
        <time>2021-08-20T06:12:54Z</time>
      </trkpt>
      <trkpt lat="43.14401" lon="-0.54712">
        <ele>307.28</ele>
        <time>2021-08-20T06:13:00Z</time>
      </trkpt>
      <trkpt lat="43.14398" lon="-0.54725">
        <ele>305.84</ele>
        <time>2021-08-20T06:13:04Z</time>
      </trkpt>
      <trkpt lat="43.14392" lon="-0.5475">
        <ele>305.84</ele>
        <time>2021-08-20T06:13:09Z</time>
      </trkpt>
      <trkpt lat="43.14388" lon="-0.54785">
        <ele>304.88</ele>
        <time>2021-08-20T06:13:16Z</time>
      </trkpt>
      <trkpt lat="43.14393" lon="-0.54818">
        <ele>304.39</ele>
        <time>2021-08-20T06:13:22Z</time>
      </trkpt>
      <trkpt lat="43.14407" lon="-0.54845">
        <ele>304.39</ele>
        <time>2021-08-20T06:13:29Z</time>
      </trkpt>
      <trkpt lat="43.14413" lon="-0.54879">
        <ele>302.95</ele>
        <time>2021-08-20T06:13:35Z</time>
      </trkpt>
      <trkpt lat="43.14414" lon="-0.54895">
        <ele>301.99</ele>
        <time>2021-08-20T06:13:37Z</time>
      </trkpt>
      <trkpt lat="43.14417" lon="-0.54927">
        <ele>300.55</ele>
        <time>2021-08-20T06:13:41Z</time>
      </trkpt>
      <trkpt lat="43.14419" lon="-0.54935">
        <ele>299.59</ele>
        <time>2021-08-20T06:13:42Z</time>
      </trkpt>
      <trkpt lat="43.1442" lon="-0.54944">
        <ele>299.11</ele>
        <time>2021-08-20T06:13:43Z</time>
      </trkpt>
      <trkpt lat="43.14422" lon="-0.54951">
        <ele>299.11</ele>
        <time>2021-08-20T06:13:44Z</time>
      </trkpt>
      <trkpt lat="43.14424" lon="-0.54957">
        <ele>299.11</ele>
        <time>2021-08-20T06:13:45Z</time>
      </trkpt>
      <trkpt lat="43.14426" lon="-0.5496">
        <ele>299.11</ele>
        <time>2021-08-20T06:13:46Z</time>
      </trkpt>
      <trkpt lat="43.14428" lon="-0.54963">
        <ele>299.11</ele>
        <time>2021-08-20T06:13:47Z</time>
      </trkpt>
      <trkpt lat="43.1443" lon="-0.54965">
        <ele>299.11</ele>
        <time>2021-08-20T06:13:48Z</time>
      </trkpt>
      <trkpt lat="43.14432" lon="-0.54968">
        <ele>298.63</ele>
        <time>2021-08-20T06:13:49Z</time>
      </trkpt>
      <trkpt lat="43.14434" lon="-0.54973">
        <ele>298.63</ele>
        <time>2021-08-20T06:13:50Z</time>
      </trkpt>
      <trkpt lat="43.14435" lon="-0.54978">
        <ele>298.15</ele>
        <time>2021-08-20T06:13:51Z</time>
      </trkpt>
      <trkpt lat="43.14435" lon="-0.54983">
        <ele>298.15</ele>
        <time>2021-08-20T06:13:52Z</time>
      </trkpt>
      <trkpt lat="43.14436" lon="-0.54988">
        <ele>298.15</ele>
        <time>2021-08-20T06:13:53Z</time>
      </trkpt>
      <trkpt lat="43.14437" lon="-0.54992">
        <ele>298.15</ele>
        <time>2021-08-20T06:13:54Z</time>
      </trkpt>
      <trkpt lat="43.14448" lon="-0.55021">
        <ele>296.22</ele>
        <time>2021-08-20T06:14:00Z</time>
      </trkpt>
      <trkpt lat="43.14455" lon="-0.5503">
        <ele>293.82</ele>
        <time>2021-08-20T06:14:02Z</time>
      </trkpt>
      <trkpt lat="43.14461" lon="-0.55034">
        <ele>292.86</ele>
        <time>2021-08-20T06:14:03Z</time>
      </trkpt>
      <trkpt lat="43.14485" lon="-0.55047">
        <ele>289.97</ele>
        <time>2021-08-20T06:14:07Z</time>
      </trkpt>
      <trkpt lat="43.14495" lon="-0.5505">
        <ele>288.05</ele>
        <time>2021-08-20T06:14:09Z</time>
      </trkpt>
      <trkpt lat="43.145" lon="-0.55051">
        <ele>287.57</ele>
        <time>2021-08-20T06:14:10Z</time>
      </trkpt>
      <trkpt lat="43.14509" lon="-0.55052">
        <ele>286.61</ele>
        <time>2021-08-20T06:14:12Z</time>
      </trkpt>
      <trkpt lat="43.14518" lon="-0.55055">
        <ele>285.65</ele>
        <time>2021-08-20T06:14:16Z</time>
      </trkpt>
      <trkpt lat="43.14524" lon="-0.55059">
        <ele>285.17</ele>
        <time>2021-08-20T06:14:19Z</time>
      </trkpt>
      <trkpt lat="43.14527" lon="-0.55062">
        <ele>285.17</ele>
        <time>2021-08-20T06:14:20Z</time>
      </trkpt>
      <trkpt lat="43.1453" lon="-0.55064">
        <ele>284.69</ele>
        <time>2021-08-20T06:14:21Z</time>
      </trkpt>
      <trkpt lat="43.14533" lon="-0.55067">
        <ele>284.21</ele>
        <time>2021-08-20T06:14:22Z</time>
      </trkpt>
      <trkpt lat="43.14537" lon="-0.55072">
        <ele>284.21</ele>
        <time>2021-08-20T06:14:23Z</time>
      </trkpt>
      <trkpt lat="43.1454" lon="-0.55076">
        <ele>283.73</ele>
        <time>2021-08-20T06:14:24Z</time>
      </trkpt>
      <trkpt lat="43.14543" lon="-0.55082">
        <ele>283.73</ele>
        <time>2021-08-20T06:14:25Z</time>
      </trkpt>
      <trkpt lat="43.14545" lon="-0.55088">
        <ele>282.77</ele>
        <time>2021-08-20T06:14:26Z</time>
      </trkpt>
      <trkpt lat="43.14547" lon="-0.55093">
        <ele>282.28</ele>
        <time>2021-08-20T06:14:27Z</time>
      </trkpt>
      <trkpt lat="43.14548" lon="-0.55098">
        <ele>281.32</ele>
        <time>2021-08-20T06:14:28Z</time>
      </trkpt>
      <trkpt lat="43.14549" lon="-0.55104">
        <ele>279.4</ele>
        <time>2021-08-20T06:14:29Z</time>
      </trkpt>
      <trkpt lat="43.14549" lon="-0.55111">
        <ele>277.96</ele>
        <time>2021-08-20T06:14:30Z</time>
      </trkpt>
      <trkpt lat="43.1455" lon="-0.55119">
        <ele>276.52</ele>
        <time>2021-08-20T06:14:31Z</time>
      </trkpt>
      <trkpt lat="43.1455" lon="-0.55126">
        <ele>275.07</ele>
        <time>2021-08-20T06:14:32Z</time>
      </trkpt>
      <trkpt lat="43.1455" lon="-0.55133">
        <ele>274.11</ele>
        <time>2021-08-20T06:14:33Z</time>
      </trkpt>
      <trkpt lat="43.1455" lon="-0.55139">
        <ele>274.11</ele>
        <time>2021-08-20T06:14:34Z</time>
      </trkpt>
      <trkpt lat="43.1455" lon="-0.55153">
        <ele>272.19</ele>
        <time>2021-08-20T06:14:38Z</time>
      </trkpt>
      <trkpt lat="43.14553" lon="-0.55163">
        <ele>268.83</ele>
        <time>2021-08-20T06:14:41Z</time>
      </trkpt>
      <trkpt lat="43.14554" lon="-0.55172">
        <ele>266.9</ele>
        <time>2021-08-20T06:14:43Z</time>
      </trkpt>
      <trkpt lat="43.14554" lon="-0.5518">
        <ele>265.94</ele>
        <time>2021-08-20T06:14:44Z</time>
      </trkpt>
      <trkpt lat="43.14558" lon="-0.55211">
        <ele>263.54</ele>
        <time>2021-08-20T06:14:47Z</time>
      </trkpt>
      <trkpt lat="43.14561" lon="-0.5523">
        <ele>263.06</ele>
        <time>2021-08-20T06:14:49Z</time>
      </trkpt>
      <trkpt lat="43.14564" lon="-0.55238">
        <ele>263.06</ele>
        <time>2021-08-20T06:14:50Z</time>
      </trkpt>
      <trkpt lat="43.14566" lon="-0.55246">
        <ele>263.06</ele>
        <time>2021-08-20T06:14:51Z</time>
      </trkpt>
      <trkpt lat="43.14573" lon="-0.5526">
        <ele>263.06</ele>
        <time>2021-08-20T06:14:53Z</time>
      </trkpt>
      <trkpt lat="43.14577" lon="-0.55265">
        <ele>263.06</ele>
        <time>2021-08-20T06:14:54Z</time>
      </trkpt>
      <trkpt lat="43.14595" lon="-0.55295">
        <ele>263.06</ele>
        <time>2021-08-20T06:15:00Z</time>
      </trkpt>
      <trkpt lat="43.14604" lon="-0.55321">
        <ele>263.06</ele>
        <time>2021-08-20T06:15:06Z</time>
      </trkpt>
      <trkpt lat="43.14606" lon="-0.55326">
        <ele>263.06</ele>
        <time>2021-08-20T06:15:07Z</time>
      </trkpt>
      <trkpt lat="43.14615" lon="-0.55349">
        <ele>262.1</ele>
        <time>2021-08-20T06:15:10Z</time>
      </trkpt>
      <trkpt lat="43.14618" lon="-0.55358">
        <ele>261.14</ele>
        <time>2021-08-20T06:15:11Z</time>
      </trkpt>
      <trkpt lat="43.1462" lon="-0.55367">
        <ele>261.14</ele>
        <time>2021-08-20T06:15:12Z</time>
      </trkpt>
      <trkpt lat="43.1462" lon="-0.55374">
        <ele>261.14</ele>
        <time>2021-08-20T06:15:13Z</time>
      </trkpt>
      <trkpt lat="43.1462" lon="-0.55382">
        <ele>261.14</ele>
        <time>2021-08-20T06:15:14Z</time>
      </trkpt>
      <trkpt lat="43.1462" lon="-0.5539">
        <ele>261.14</ele>
        <time>2021-08-20T06:15:15Z</time>
      </trkpt>
      <trkpt lat="43.14618" lon="-0.55407">
        <ele>260.17</ele>
        <time>2021-08-20T06:15:17Z</time>
      </trkpt>
      <trkpt lat="43.14619" lon="-0.55425">
        <ele>259.21</ele>
        <time>2021-08-20T06:15:19Z</time>
      </trkpt>
      <trkpt lat="43.1462" lon="-0.55434">
        <ele>259.21</ele>
        <time>2021-08-20T06:15:20Z</time>
      </trkpt>
      <trkpt lat="43.14621" lon="-0.55443">
        <ele>259.21</ele>
        <time>2021-08-20T06:15:21Z</time>
      </trkpt>
      <trkpt lat="43.14622" lon="-0.55451">
        <ele>259.21</ele>
        <time>2021-08-20T06:15:22Z</time>
      </trkpt>
      <trkpt lat="43.14624" lon="-0.55458">
        <ele>259.21</ele>
        <time>2021-08-20T06:15:23Z</time>
      </trkpt>
      <trkpt lat="43.14627" lon="-0.55465">
        <ele>259.21</ele>
        <time>2021-08-20T06:15:24Z</time>
      </trkpt>
      <trkpt lat="43.14633" lon="-0.55483">
        <ele>261.14</ele>
        <time>2021-08-20T06:15:28Z</time>
      </trkpt>
      <trkpt lat="43.14638" lon="-0.55492">
        <ele>262.58</ele>
        <time>2021-08-20T06:15:34Z</time>
      </trkpt>
      <trkpt lat="43.14646" lon="-0.55513">
        <ele>264.02</ele>
        <time>2021-08-20T06:15:43Z</time>
      </trkpt>
      <trkpt lat="43.14648" lon="-0.55529">
        <ele>265.46</ele>
        <time>2021-08-20T06:15:49Z</time>
      </trkpt>
      <trkpt lat="43.14648" lon="-0.55532">
        <ele>265.46</ele>
        <time>2021-08-20T06:15:50Z</time>
      </trkpt>
      <trkpt lat="43.14651" lon="-0.55555">
        <ele>267.38</ele>
        <time>2021-08-20T06:16:00Z</time>
      </trkpt>
      <trkpt lat="43.14654" lon="-0.55581">
        <ele>268.83</ele>
        <time>2021-08-20T06:16:10Z</time>
      </trkpt>
      <trkpt lat="43.14656" lon="-0.556">
        <ele>269.79</ele>
        <time>2021-08-20T06:16:17Z</time>
      </trkpt>
      <trkpt lat="43.14657" lon="-0.55624">
        <ele>269.79</ele>
        <time>2021-08-20T06:16:25Z</time>
      </trkpt>
      <trkpt lat="43.14657" lon="-0.5563">
        <ele>268.83</ele>
        <time>2021-08-20T06:16:26Z</time>
      </trkpt>
      <trkpt lat="43.14651" lon="-0.55659">
        <ele>265.46</ele>
        <time>2021-08-20T06:16:30Z</time>
      </trkpt>
      <trkpt lat="43.14642" lon="-0.55706">
        <ele>261.62</ele>
        <time>2021-08-20T06:16:35Z</time>
      </trkpt>
      <trkpt lat="43.1464" lon="-0.55717">
        <ele>261.62</ele>
        <time>2021-08-20T06:16:36Z</time>
      </trkpt>
      <trkpt lat="43.14636" lon="-0.55788">
        <ele>260.17</ele>
        <time>2021-08-20T06:16:42Z</time>
      </trkpt>
      <trkpt lat="43.14638" lon="-0.55809">
        <ele>260.17</ele>
        <time>2021-08-20T06:16:44Z</time>
      </trkpt>
      <trkpt lat="43.14641" lon="-0.55819">
        <ele>260.17</ele>
        <time>2021-08-20T06:16:45Z</time>
      </trkpt>
      <trkpt lat="43.14645" lon="-0.55827">
        <ele>260.17</ele>
        <time>2021-08-20T06:16:46Z</time>
      </trkpt>
      <trkpt lat="43.14649" lon="-0.55835">
        <ele>260.17</ele>
        <time>2021-08-20T06:16:47Z</time>
      </trkpt>
      <trkpt lat="43.14653" lon="-0.55842">
        <ele>260.17</ele>
        <time>2021-08-20T06:16:48Z</time>
      </trkpt>
      <trkpt lat="43.14658" lon="-0.55849">
        <ele>260.17</ele>
        <time>2021-08-20T06:16:49Z</time>
      </trkpt>
      <trkpt lat="43.14663" lon="-0.55855">
        <ele>260.17</ele>
        <time>2021-08-20T06:16:50Z</time>
      </trkpt>
      <trkpt lat="43.14667" lon="-0.55859">
        <ele>260.17</ele>
        <time>2021-08-20T06:16:51Z</time>
      </trkpt>
      <trkpt lat="43.14676" lon="-0.55866">
        <ele>260.17</ele>
        <time>2021-08-20T06:16:53Z</time>
      </trkpt>
      <trkpt lat="43.1468" lon="-0.55871">
        <ele>260.17</ele>
        <time>2021-08-20T06:16:54Z</time>
      </trkpt>
      <trkpt lat="43.14701" lon="-0.55895">
        <ele>260.17</ele>
        <time>2021-08-20T06:17:00Z</time>
      </trkpt>
      <trkpt lat="43.14705" lon="-0.559">
        <ele>260.17</ele>
        <time>2021-08-20T06:17:01Z</time>
      </trkpt>
      <trkpt lat="43.14708" lon="-0.55904">
        <ele>260.17</ele>
        <time>2021-08-20T06:17:02Z</time>
      </trkpt>
      <trkpt lat="43.14716" lon="-0.55913">
        <ele>260.17</ele>
        <time>2021-08-20T06:17:04Z</time>
      </trkpt>
      <trkpt lat="43.1472" lon="-0.55917">
        <ele>260.17</ele>
        <time>2021-08-20T06:17:05Z</time>
      </trkpt>
      <trkpt lat="43.14725" lon="-0.5592">
        <ele>260.17</ele>
        <time>2021-08-20T06:17:06Z</time>
      </trkpt>
      <trkpt lat="43.1473" lon="-0.55922">
        <ele>260.17</ele>
        <time>2021-08-20T06:17:07Z</time>
      </trkpt>
      <trkpt lat="43.14734" lon="-0.55922">
        <ele>260.17</ele>
        <time>2021-08-20T06:17:08Z</time>
      </trkpt>
      <trkpt lat="43.14738" lon="-0.5592">
        <ele>260.17</ele>
        <time>2021-08-20T06:17:09Z</time>
      </trkpt>
      <trkpt lat="43.14742" lon="-0.55918">
        <ele>260.17</ele>
        <time>2021-08-20T06:17:10Z</time>
      </trkpt>
      <trkpt lat="43.14762" lon="-0.55913">
        <ele>260.17</ele>
        <time>2021-08-20T06:17:15Z</time>
      </trkpt>
      <trkpt lat="43.14787" lon="-0.55922">
        <ele>260.17</ele>
        <time>2021-08-20T06:17:21Z</time>
      </trkpt>
      <trkpt lat="43.14812" lon="-0.55933">
        <ele>259.21</ele>
        <time>2021-08-20T06:17:26Z</time>
      </trkpt>
      <trkpt lat="43.14846" lon="-0.55939">
        <ele>259.21</ele>
        <time>2021-08-20T06:17:32Z</time>
      </trkpt>
      <trkpt lat="43.14851" lon="-0.55938">
        <ele>259.21</ele>
        <time>2021-08-20T06:17:33Z</time>
      </trkpt>
      <trkpt lat="43.14856" lon="-0.55937">
        <ele>259.21</ele>
        <time>2021-08-20T06:17:34Z</time>
      </trkpt>
      <trkpt lat="43.14861" lon="-0.55937">
        <ele>259.21</ele>
        <time>2021-08-20T06:17:35Z</time>
      </trkpt>
      <trkpt lat="43.14866" lon="-0.55937">
        <ele>259.21</ele>
        <time>2021-08-20T06:17:36Z</time>
      </trkpt>
      <trkpt lat="43.14872" lon="-0.55936">
        <ele>259.21</ele>
        <time>2021-08-20T06:17:37Z</time>
      </trkpt>
      <trkpt lat="43.14877" lon="-0.55936">
        <ele>259.21</ele>
        <time>2021-08-20T06:17:38Z</time>
      </trkpt>
      <trkpt lat="43.14881" lon="-0.55935">
        <ele>259.21</ele>
        <time>2021-08-20T06:17:39Z</time>
      </trkpt>
      <trkpt lat="43.14886" lon="-0.55934">
        <ele>259.21</ele>
        <time>2021-08-20T06:17:40Z</time>
      </trkpt>
      <trkpt lat="43.14891" lon="-0.55932">
        <ele>259.21</ele>
        <time>2021-08-20T06:17:41Z</time>
      </trkpt>
      <trkpt lat="43.14895" lon="-0.55929">
        <ele>259.21</ele>
        <time>2021-08-20T06:17:42Z</time>
      </trkpt>
      <trkpt lat="43.14928" lon="-0.55915">
        <ele>259.21</ele>
        <time>2021-08-20T06:17:49Z</time>
      </trkpt>
      <trkpt lat="43.14933" lon="-0.55913">
        <ele>259.21</ele>
        <time>2021-08-20T06:17:50Z</time>
      </trkpt>
      <trkpt lat="43.14938" lon="-0.55912">
        <ele>259.21</ele>
        <time>2021-08-20T06:17:51Z</time>
      </trkpt>
      <trkpt lat="43.14943" lon="-0.55911">
        <ele>259.21</ele>
        <time>2021-08-20T06:17:52Z</time>
      </trkpt>
      <trkpt lat="43.14948" lon="-0.55911">
        <ele>259.21</ele>
        <time>2021-08-20T06:17:53Z</time>
      </trkpt>
      <trkpt lat="43.14954" lon="-0.5591">
        <ele>259.21</ele>
        <time>2021-08-20T06:17:54Z</time>
      </trkpt>
      <trkpt lat="43.14959" lon="-0.5591">
        <ele>259.21</ele>
        <time>2021-08-20T06:17:55Z</time>
      </trkpt>
      <trkpt lat="43.14983" lon="-0.55909">
        <ele>259.21</ele>
        <time>2021-08-20T06:18:00Z</time>
      </trkpt>
      <trkpt lat="43.15009" lon="-0.55909">
        <ele>259.21</ele>
        <time>2021-08-20T06:18:05Z</time>
      </trkpt>
      <trkpt lat="43.15015" lon="-0.55909">
        <ele>259.21</ele>
        <time>2021-08-20T06:18:06Z</time>
      </trkpt>
      <trkpt lat="43.15021" lon="-0.55909">
        <ele>259.21</ele>
        <time>2021-08-20T06:18:07Z</time>
      </trkpt>
      <trkpt lat="43.15026" lon="-0.5591">
        <ele>259.21</ele>
        <time>2021-08-20T06:18:08Z</time>
      </trkpt>
      <trkpt lat="43.15032" lon="-0.5591">
        <ele>259.21</ele>
        <time>2021-08-20T06:18:09Z</time>
      </trkpt>
      <trkpt lat="43.15062" lon="-0.55917">
        <ele>258.73</ele>
        <time>2021-08-20T06:18:15Z</time>
      </trkpt>
      <trkpt lat="43.15088" lon="-0.55928">
        <ele>257.77</ele>
        <time>2021-08-20T06:18:20Z</time>
      </trkpt>
      <trkpt lat="43.15124" lon="-0.55954">
        <ele>257.29</ele>
        <time>2021-08-20T06:18:27Z</time>
      </trkpt>
      <trkpt lat="43.15133" lon="-0.55961">
        <ele>257.29</ele>
        <time>2021-08-20T06:18:29Z</time>
      </trkpt>
      <trkpt lat="43.15137" lon="-0.55964">
        <ele>258.25</ele>
        <time>2021-08-20T06:18:30Z</time>
      </trkpt>
      <trkpt lat="43.15168" lon="-0.55983">
        <ele>258.25</ele>
        <time>2021-08-20T06:18:37Z</time>
      </trkpt>
      <trkpt lat="43.15173" lon="-0.55986">
        <ele>258.73</ele>
        <time>2021-08-20T06:18:38Z</time>
      </trkpt>
      <trkpt lat="43.15206" lon="-0.56007">
        <ele>258.73</ele>
        <time>2021-08-20T06:18:45Z</time>
      </trkpt>
      <trkpt lat="43.15211" lon="-0.5601">
        <ele>258.73</ele>
        <time>2021-08-20T06:18:46Z</time>
      </trkpt>
      <trkpt lat="43.15217" lon="-0.56012">
        <ele>258.73</ele>
        <time>2021-08-20T06:18:47Z</time>
      </trkpt>
      <trkpt lat="43.1525" lon="-0.56031">
        <ele>258.73</ele>
        <time>2021-08-20T06:18:54Z</time>
      </trkpt>
      <trkpt lat="43.15255" lon="-0.56035">
        <ele>258.73</ele>
        <time>2021-08-20T06:18:55Z</time>
      </trkpt>
      <trkpt lat="43.15268" lon="-0.56048">
        <ele>257.29</ele>
        <time>2021-08-20T06:18:58Z</time>
      </trkpt>
      <trkpt lat="43.15301" lon="-0.56078">
        <ele>256.81</ele>
        <time>2021-08-20T06:19:05Z</time>
      </trkpt>
      <trkpt lat="43.15318" lon="-0.56096">
        <ele>257.29</ele>
        <time>2021-08-20T06:19:09Z</time>
      </trkpt>
      <trkpt lat="43.15321" lon="-0.561">
        <ele>256.81</ele>
        <time>2021-08-20T06:19:10Z</time>
      </trkpt>
      <trkpt lat="43.1533" lon="-0.5611">
        <ele>257.29</ele>
        <time>2021-08-20T06:19:12Z</time>
      </trkpt>
      <trkpt lat="43.1536" lon="-0.56151">
        <ele>257.29</ele>
        <time>2021-08-20T06:19:19Z</time>
      </trkpt>
      <trkpt lat="43.15375" lon="-0.56174">
        <ele>256.33</ele>
        <time>2021-08-20T06:19:23Z</time>
      </trkpt>
      <trkpt lat="43.1538" lon="-0.5618">
        <ele>256.33</ele>
        <time>2021-08-20T06:19:24Z</time>
      </trkpt>
      <trkpt lat="43.15409" lon="-0.56213">
        <ele>255.85</ele>
        <time>2021-08-20T06:19:30Z</time>
      </trkpt>
      <trkpt lat="43.15418" lon="-0.56223">
        <ele>255.85</ele>
        <time>2021-08-20T06:19:32Z</time>
      </trkpt>
      <trkpt lat="43.15423" lon="-0.56229">
        <ele>255.85</ele>
        <time>2021-08-20T06:19:33Z</time>
      </trkpt>
      <trkpt lat="43.15427" lon="-0.56234">
        <ele>255.85</ele>
        <time>2021-08-20T06:19:34Z</time>
      </trkpt>
      <trkpt lat="43.15463" lon="-0.5628">
        <ele>255.85</ele>
        <time>2021-08-20T06:19:42Z</time>
      </trkpt>
      <trkpt lat="43.15471" lon="-0.56289">
        <ele>257.29</ele>
        <time>2021-08-20T06:19:44Z</time>
      </trkpt>
      <trkpt lat="43.15498" lon="-0.56313">
        <ele>257.77</ele>
        <time>2021-08-20T06:19:51Z</time>
      </trkpt>
      <trkpt lat="43.15529" lon="-0.56352">
        <ele>256.81</ele>
        <time>2021-08-20T06:19:58Z</time>
      </trkpt>
      <trkpt lat="43.15535" lon="-0.56358">
        <ele>256.81</ele>
        <time>2021-08-20T06:19:59Z</time>
      </trkpt>
      <trkpt lat="43.15566" lon="-0.56391">
        <ele>256.33</ele>
        <time>2021-08-20T06:20:05Z</time>
      </trkpt>
      <trkpt lat="43.15571" lon="-0.56396">
        <ele>256.33</ele>
        <time>2021-08-20T06:20:06Z</time>
      </trkpt>
      <trkpt lat="43.15607" lon="-0.56433">
        <ele>255.37</ele>
        <time>2021-08-20T06:20:13Z</time>
      </trkpt>
      <trkpt lat="43.15613" lon="-0.56438">
        <ele>255.37</ele>
        <time>2021-08-20T06:20:14Z</time>
      </trkpt>
      <trkpt lat="43.15618" lon="-0.56442">
        <ele>255.37</ele>
        <time>2021-08-20T06:20:15Z</time>
      </trkpt>
      <trkpt lat="43.15632" lon="-0.5645">
        <ele>255.37</ele>
        <time>2021-08-20T06:20:17Z</time>
      </trkpt>
      <trkpt lat="43.15638" lon="-0.56452">
        <ele>254.89</ele>
        <time>2021-08-20T06:20:18Z</time>
      </trkpt>
      <trkpt lat="43.15645" lon="-0.56452">
        <ele>254.89</ele>
        <time>2021-08-20T06:20:19Z</time>
      </trkpt>
      <trkpt lat="43.15665" lon="-0.56449">
        <ele>254.89</ele>
        <time>2021-08-20T06:20:22Z</time>
      </trkpt>
      <trkpt lat="43.15671" lon="-0.56447">
        <ele>253.93</ele>
        <time>2021-08-20T06:20:23Z</time>
      </trkpt>
      <trkpt lat="43.15677" lon="-0.56446">
        <ele>253.93</ele>
        <time>2021-08-20T06:20:24Z</time>
      </trkpt>
      <trkpt lat="43.15696" lon="-0.56441">
        <ele>253.93</ele>
        <time>2021-08-20T06:20:27Z</time>
      </trkpt>
      <trkpt lat="43.15718" lon="-0.56439">
        <ele>252.48</ele>
        <time>2021-08-20T06:20:30Z</time>
      </trkpt>
      <trkpt lat="43.15725" lon="-0.56439">
        <ele>252.48</ele>
        <time>2021-08-20T06:20:31Z</time>
      </trkpt>
      <trkpt lat="43.15745" lon="-0.56438">
        <ele>252.48</ele>
        <time>2021-08-20T06:20:34Z</time>
      </trkpt>
      <trkpt lat="43.15757" lon="-0.56435">
        <ele>252.48</ele>
        <time>2021-08-20T06:20:36Z</time>
      </trkpt>
      <trkpt lat="43.1578" lon="-0.56423">
        <ele>252.48</ele>
        <time>2021-08-20T06:20:40Z</time>
      </trkpt>
      <trkpt lat="43.15792" lon="-0.56418">
        <ele>252.48</ele>
        <time>2021-08-20T06:20:42Z</time>
      </trkpt>
      <trkpt lat="43.15798" lon="-0.56417">
        <ele>252.48</ele>
        <time>2021-08-20T06:20:43Z</time>
      </trkpt>
      <trkpt lat="43.15802" lon="-0.56417">
        <ele>252.48</ele>
        <time>2021-08-20T06:20:44Z</time>
      </trkpt>
      <trkpt lat="43.15814" lon="-0.56416">
        <ele>253.44</ele>
        <time>2021-08-20T06:20:47Z</time>
      </trkpt>
      <trkpt lat="43.15822" lon="-0.56415">
        <ele>253.93</ele>
        <time>2021-08-20T06:20:50Z</time>
      </trkpt>
      <trkpt lat="43.15824" lon="-0.56417">
        <ele>254.89</ele>
        <time>2021-08-20T06:20:54Z</time>
      </trkpt>
      <trkpt lat="43.15823" lon="-0.56416">
        <ele>254.89</ele>
        <time>2021-08-20T06:20:55Z</time>
      </trkpt>
      <trkpt lat="43.15822" lon="-0.56416">
        <ele>254.89</ele>
        <time>2021-08-20T06:20:56Z</time>
      </trkpt>
      <trkpt lat="43.1582" lon="-0.56417">
        <ele>254.89</ele>
        <time>2021-08-20T06:20:57Z</time>
      </trkpt>
      <trkpt lat="43.15819" lon="-0.56417">
        <ele>254.89</ele>
        <time>2021-08-20T06:20:58Z</time>
      </trkpt>
      <trkpt lat="43.15817" lon="-0.56417">
        <ele>254.89</ele>
        <time>2021-08-20T06:20:59Z</time>
      </trkpt>
      <trkpt lat="43.15816" lon="-0.56417">
        <ele>254.89</ele>
        <time>2021-08-20T06:21:00Z</time>
      </trkpt>
      <trkpt lat="43.15814" lon="-0.56417">
        <ele>254.89</ele>
        <time>2021-08-20T06:21:01Z</time>
      </trkpt>
      <trkpt lat="43.15813" lon="-0.56416">
        <ele>254.89</ele>
        <time>2021-08-20T06:21:02Z</time>
      </trkpt>
      <trkpt lat="43.15812" lon="-0.56413">
        <ele>254.89</ele>
        <time>2021-08-20T06:21:08Z</time>
      </trkpt>
      <trkpt lat="43.15816" lon="-0.56417">
        <ele>254.89</ele>
        <time>2021-08-20T06:21:14Z</time>
      </trkpt>
      <trkpt lat="43.15817" lon="-0.56419">
        <ele>252.96</ele>
        <time>2021-08-20T06:21:15Z</time>
      </trkpt>
      <trkpt lat="43.15819" lon="-0.56422">
        <ele>252.96</ele>
        <time>2021-08-20T06:21:16Z</time>
      </trkpt>
      <trkpt lat="43.15821" lon="-0.56425">
        <ele>252.48</ele>
        <time>2021-08-20T06:21:17Z</time>
      </trkpt>
      <trkpt lat="43.15822" lon="-0.56428">
        <ele>252.48</ele>
        <time>2021-08-20T06:21:18Z</time>
      </trkpt>
      <trkpt lat="43.15823" lon="-0.5643">
        <ele>252.48</ele>
        <time>2021-08-20T06:21:19Z</time>
      </trkpt>
      <trkpt lat="43.15826" lon="-0.56435">
        <ele>253.93</ele>
        <time>2021-08-20T06:21:22Z</time>
      </trkpt>
      <trkpt lat="43.15828" lon="-0.56436">
        <ele>253.93</ele>
        <time>2021-08-20T06:21:23Z</time>
      </trkpt>
      <trkpt lat="43.15829" lon="-0.56438">
        <ele>253.93</ele>
        <time>2021-08-20T06:21:24Z</time>
      </trkpt>
      <trkpt lat="43.15831" lon="-0.5644">
        <ele>253.93</ele>
        <time>2021-08-20T06:21:25Z</time>
      </trkpt>
      <trkpt lat="43.15833" lon="-0.56442">
        <ele>253.93</ele>
        <time>2021-08-20T06:21:26Z</time>
      </trkpt>
      <trkpt lat="43.15835" lon="-0.56445">
        <ele>254.41</ele>
        <time>2021-08-20T06:21:27Z</time>
      </trkpt>
      <trkpt lat="43.15845" lon="-0.56461">
        <ele>255.37</ele>
        <time>2021-08-20T06:21:34Z</time>
      </trkpt>
      <trkpt lat="43.15847" lon="-0.56467">
        <ele>256.33</ele>
        <time>2021-08-20T06:21:36Z</time>
      </trkpt>
      <trkpt lat="43.15848" lon="-0.5647">
        <ele>256.33</ele>
        <time>2021-08-20T06:21:37Z</time>
      </trkpt>
      <trkpt lat="43.15849" lon="-0.56472">
        <ele>256.33</ele>
        <time>2021-08-20T06:21:38Z</time>
      </trkpt>
      <trkpt lat="43.15854" lon="-0.56482">
        <ele>257.29</ele>
        <time>2021-08-20T06:21:42Z</time>
      </trkpt>
      <trkpt lat="43.15855" lon="-0.56486">
        <ele>257.29</ele>
        <time>2021-08-20T06:21:43Z</time>
      </trkpt>
      <trkpt lat="43.15855" lon="-0.56489">
        <ele>257.29</ele>
        <time>2021-08-20T06:21:44Z</time>
      </trkpt>
      <trkpt lat="43.15855" lon="-0.56494">
        <ele>257.29</ele>
        <time>2021-08-20T06:21:45Z</time>
      </trkpt>
      <trkpt lat="43.15856" lon="-0.56499">
        <ele>257.29</ele>
        <time>2021-08-20T06:21:46Z</time>
      </trkpt>
      <trkpt lat="43.15857" lon="-0.56504">
        <ele>257.29</ele>
        <time>2021-08-20T06:21:47Z</time>
      </trkpt>
      <trkpt lat="43.15859" lon="-0.56509">
        <ele>257.29</ele>
        <time>2021-08-20T06:21:48Z</time>
      </trkpt>
      <trkpt lat="43.1586" lon="-0.56513">
        <ele>257.29</ele>
        <time>2021-08-20T06:21:49Z</time>
      </trkpt>
      <trkpt lat="43.15861" lon="-0.56517">
        <ele>256.81</ele>
        <time>2021-08-20T06:21:50Z</time>
      </trkpt>
      <trkpt lat="43.15867" lon="-0.5655">
        <ele>256.81</ele>
        <time>2021-08-20T06:21:57Z</time>
      </trkpt>
      <trkpt lat="43.1587" lon="-0.56581">
        <ele>256.81</ele>
        <time>2021-08-20T06:22:04Z</time>
      </trkpt>
      <trkpt lat="43.1587" lon="-0.56591">
        <ele>255.37</ele>
        <time>2021-08-20T06:22:06Z</time>
      </trkpt>
      <trkpt lat="43.15872" lon="-0.56615">
        <ele>254.89</ele>
        <time>2021-08-20T06:22:11Z</time>
      </trkpt>
      <trkpt lat="43.15875" lon="-0.56625">
        <ele>254.89</ele>
        <time>2021-08-20T06:22:14Z</time>
      </trkpt>
      <trkpt lat="43.15877" lon="-0.56626">
        <ele>254.89</ele>
        <time>2021-08-20T06:22:15Z</time>
      </trkpt>
      <trkpt lat="43.1588" lon="-0.56629">
        <ele>256.33</ele>
        <time>2021-08-20T06:22:21Z</time>
      </trkpt>
      <trkpt lat="43.15881" lon="-0.56629">
        <ele>256.33</ele>
        <time>2021-08-20T06:22:22Z</time>
      </trkpt>
      <trkpt lat="43.15886" lon="-0.5663">
        <ele>258.25</ele>
        <time>2021-08-20T06:22:32Z</time>
      </trkpt>
      <trkpt lat="43.15891" lon="-0.56629">
        <ele>260.65</ele>
        <time>2021-08-20T06:22:42Z</time>
      </trkpt>
      <trkpt lat="43.15894" lon="-0.56631">
        <ele>261.62</ele>
        <time>2021-08-20T06:22:51Z</time>
      </trkpt>
      <trkpt lat="43.15895" lon="-0.56633">
        <ele>261.62</ele>
        <time>2021-08-20T06:22:59Z</time>
      </trkpt>
      <trkpt lat="43.15902" lon="-0.56639">
        <ele>261.62</ele>
        <time>2021-08-20T06:23:05Z</time>
      </trkpt>
      <trkpt lat="43.15912" lon="-0.5665">
        <ele>262.58</ele>
        <time>2021-08-20T06:23:11Z</time>
      </trkpt>
      <trkpt lat="43.15921" lon="-0.56679">
        <ele>259.21</ele>
        <time>2021-08-20T06:23:16Z</time>
      </trkpt>
      <trkpt lat="43.15925" lon="-0.56698">
        <ele>257.77</ele>
        <time>2021-08-20T06:23:19Z</time>
      </trkpt>
      <trkpt lat="43.15927" lon="-0.56705">
        <ele>256.81</ele>
        <time>2021-08-20T06:23:20Z</time>
      </trkpt>
      <trkpt lat="43.1593" lon="-0.56711">
        <ele>256.81</ele>
        <time>2021-08-20T06:23:21Z</time>
      </trkpt>
      <trkpt lat="43.15933" lon="-0.56717">
        <ele>255.85</ele>
        <time>2021-08-20T06:23:22Z</time>
      </trkpt>
      <trkpt lat="43.15936" lon="-0.56723">
        <ele>255.85</ele>
        <time>2021-08-20T06:23:23Z</time>
      </trkpt>
      <trkpt lat="43.1594" lon="-0.56729">
        <ele>255.85</ele>
        <time>2021-08-20T06:23:24Z</time>
      </trkpt>
      <trkpt lat="43.15943" lon="-0.56734">
        <ele>255.37</ele>
        <time>2021-08-20T06:23:25Z</time>
      </trkpt>
      <trkpt lat="43.15976" lon="-0.56768">
        <ele>254.41</ele>
        <time>2021-08-20T06:23:33Z</time>
      </trkpt>
      <trkpt lat="43.15983" lon="-0.56776">
        <ele>254.41</ele>
        <time>2021-08-20T06:23:35Z</time>
      </trkpt>
      <trkpt lat="43.15995" lon="-0.56801">
        <ele>254.41</ele>
        <time>2021-08-20T06:23:41Z</time>
      </trkpt>
      <trkpt lat="43.15999" lon="-0.56817">
        <ele>254.41</ele>
        <time>2021-08-20T06:23:44Z</time>
      </trkpt>
      <trkpt lat="43.16001" lon="-0.56823">
        <ele>254.41</ele>
        <time>2021-08-20T06:23:45Z</time>
      </trkpt>
      <trkpt lat="43.16003" lon="-0.56829">
        <ele>254.41</ele>
        <time>2021-08-20T06:23:46Z</time>
      </trkpt>
      <trkpt lat="43.16004" lon="-0.56836">
        <ele>254.41</ele>
        <time>2021-08-20T06:23:47Z</time>
      </trkpt>
      <trkpt lat="43.16006" lon="-0.56842">
        <ele>254.41</ele>
        <time>2021-08-20T06:23:48Z</time>
      </trkpt>
      <trkpt lat="43.16008" lon="-0.56855">
        <ele>253.93</ele>
        <time>2021-08-20T06:23:50Z</time>
      </trkpt>
      <trkpt lat="43.1601" lon="-0.56861">
        <ele>253.93</ele>
        <time>2021-08-20T06:23:51Z</time>
      </trkpt>
      <trkpt lat="43.16011" lon="-0.56867">
        <ele>253.93</ele>
        <time>2021-08-20T06:23:52Z</time>
      </trkpt>
      <trkpt lat="43.16011" lon="-0.56872">
        <ele>253.93</ele>
        <time>2021-08-20T06:23:53Z</time>
      </trkpt>
      <trkpt lat="43.16012" lon="-0.56878">
        <ele>253.93</ele>
        <time>2021-08-20T06:23:54Z</time>
      </trkpt>
      <trkpt lat="43.16013" lon="-0.56907">
        <ele>253.44</ele>
        <time>2021-08-20T06:24:00Z</time>
      </trkpt>
      <trkpt lat="43.16023" lon="-0.56933">
        <ele>254.89</ele>
        <time>2021-08-20T06:24:06Z</time>
      </trkpt>
      <trkpt lat="43.16039" lon="-0.56962">
        <ele>255.85</ele>
        <time>2021-08-20T06:24:14Z</time>
      </trkpt>
      <trkpt lat="43.16049" lon="-0.56988">
        <ele>254.41</ele>
        <time>2021-08-20T06:24:19Z</time>
      </trkpt>
      <trkpt lat="43.1606" lon="-0.57038">
        <ele>253.44</ele>
        <time>2021-08-20T06:24:27Z</time>
      </trkpt>
      <trkpt lat="43.16065" lon="-0.57054">
        <ele>253.44</ele>
        <time>2021-08-20T06:24:30Z</time>
      </trkpt>
      <trkpt lat="43.16083" lon="-0.57084">
        <ele>252.96</ele>
        <time>2021-08-20T06:24:37Z</time>
      </trkpt>
      <trkpt lat="43.16086" lon="-0.57088">
        <ele>252.96</ele>
        <time>2021-08-20T06:24:38Z</time>
      </trkpt>
      <trkpt lat="43.16118" lon="-0.57109">
        <ele>252.48</ele>
        <time>2021-08-20T06:24:46Z</time>
      </trkpt>
      <trkpt lat="43.16142" lon="-0.57118">
        <ele>252.48</ele>
        <time>2021-08-20T06:24:53Z</time>
      </trkpt>
      <trkpt lat="43.1615" lon="-0.5712">
        <ele>252.48</ele>
        <time>2021-08-20T06:24:55Z</time>
      </trkpt>
      <trkpt lat="43.16159" lon="-0.5712">
        <ele>252.48</ele>
        <time>2021-08-20T06:24:57Z</time>
      </trkpt>
      <trkpt lat="43.16164" lon="-0.57119">
        <ele>252.48</ele>
        <time>2021-08-20T06:24:58Z</time>
      </trkpt>
      <trkpt lat="43.16183" lon="-0.57111">
        <ele>252.48</ele>
        <time>2021-08-20T06:25:02Z</time>
      </trkpt>
      <trkpt lat="43.16188" lon="-0.57111">
        <ele>252.48</ele>
        <time>2021-08-20T06:25:03Z</time>
      </trkpt>
      <trkpt lat="43.16192" lon="-0.57113">
        <ele>252.48</ele>
        <time>2021-08-20T06:25:04Z</time>
      </trkpt>
      <trkpt lat="43.16196" lon="-0.57115">
        <ele>252</ele>
        <time>2021-08-20T06:25:05Z</time>
      </trkpt>
      <trkpt lat="43.16199" lon="-0.57118">
        <ele>252</ele>
        <time>2021-08-20T06:25:06Z</time>
      </trkpt>
      <trkpt lat="43.16201" lon="-0.57118">
        <ele>252</ele>
        <time>2021-08-20T06:25:10Z</time>
      </trkpt>
      <trkpt lat="43.16201" lon="-0.57117">
        <ele>252</ele>
        <time>2021-08-20T06:25:16Z</time>
      </trkpt>
      <trkpt lat="43.16204" lon="-0.5711">
        <ele>252.96</ele>
        <time>2021-08-20T06:25:25Z</time>
      </trkpt>
      <trkpt lat="43.16205" lon="-0.57108">
        <ele>252.96</ele>
        <time>2021-08-20T06:25:32Z</time>
      </trkpt>
      <trkpt lat="43.16207" lon="-0.57108">
        <ele>252.96</ele>
        <time>2021-08-20T06:25:37Z</time>
      </trkpt>
      <trkpt lat="43.16209" lon="-0.57108">
        <ele>252.96</ele>
        <time>2021-08-20T06:25:38Z</time>
      </trkpt>
      <trkpt lat="43.16212" lon="-0.57109">
        <ele>252.96</ele>
        <time>2021-08-20T06:25:40Z</time>
      </trkpt>
      <trkpt lat="43.16214" lon="-0.5711">
        <ele>251.52</ele>
        <time>2021-08-20T06:25:41Z</time>
      </trkpt>
      <trkpt lat="43.16215" lon="-0.57111">
        <ele>251.52</ele>
        <time>2021-08-20T06:25:42Z</time>
      </trkpt>
      <trkpt lat="43.16217" lon="-0.57112">
        <ele>251.52</ele>
        <time>2021-08-20T06:25:43Z</time>
      </trkpt>
      <trkpt lat="43.16219" lon="-0.57114">
        <ele>251.04</ele>
        <time>2021-08-20T06:25:44Z</time>
      </trkpt>
      <trkpt lat="43.16222" lon="-0.57116">
        <ele>251.04</ele>
        <time>2021-08-20T06:25:45Z</time>
      </trkpt>
      <trkpt lat="43.16225" lon="-0.57117">
        <ele>251.04</ele>
        <time>2021-08-20T06:25:47Z</time>
      </trkpt>
      <trkpt lat="43.16242" lon="-0.57114">
        <ele>250.56</ele>
        <time>2021-08-20T06:25:53Z</time>
      </trkpt>
      <trkpt lat="43.16259" lon="-0.571">
        <ele>250.08</ele>
        <time>2021-08-20T06:25:59Z</time>
      </trkpt>
      <trkpt lat="43.16272" lon="-0.57087">
        <ele>249.6</ele>
        <time>2021-08-20T06:26:05Z</time>
      </trkpt>
      <trkpt lat="43.16278" lon="-0.57084">
        <ele>249.6</ele>
        <time>2021-08-20T06:26:07Z</time>
      </trkpt>
      <trkpt lat="43.16281" lon="-0.57084">
        <ele>249.6</ele>
        <time>2021-08-20T06:26:08Z</time>
      </trkpt>
      <trkpt lat="43.16285" lon="-0.57083">
        <ele>249.6</ele>
        <time>2021-08-20T06:26:09Z</time>
      </trkpt>
      <trkpt lat="43.16287" lon="-0.57081">
        <ele>249.6</ele>
        <time>2021-08-20T06:26:10Z</time>
      </trkpt>
      <trkpt lat="43.16289" lon="-0.57081">
        <ele>249.6</ele>
        <time>2021-08-20T06:26:11Z</time>
      </trkpt>
      <trkpt lat="43.1629" lon="-0.5708">
        <ele>249.6</ele>
        <time>2021-08-20T06:26:12Z</time>
      </trkpt>
      <trkpt lat="43.16296" lon="-0.5708">
        <ele>249.6</ele>
        <time>2021-08-20T06:26:14Z</time>
      </trkpt>
      <trkpt lat="43.16299" lon="-0.57079">
        <ele>249.12</ele>
        <time>2021-08-20T06:26:15Z</time>
      </trkpt>
      <trkpt lat="43.16302" lon="-0.57077">
        <ele>249.12</ele>
        <time>2021-08-20T06:26:16Z</time>
      </trkpt>
      <trkpt lat="43.16306" lon="-0.57075">
        <ele>249.12</ele>
        <time>2021-08-20T06:26:17Z</time>
      </trkpt>
      <trkpt lat="43.16309" lon="-0.57075">
        <ele>249.12</ele>
        <time>2021-08-20T06:26:18Z</time>
      </trkpt>
      <trkpt lat="43.16313" lon="-0.57075">
        <ele>249.12</ele>
        <time>2021-08-20T06:26:19Z</time>
      </trkpt>
      <trkpt lat="43.16317" lon="-0.57074">
        <ele>249.12</ele>
        <time>2021-08-20T06:26:20Z</time>
      </trkpt>
      <trkpt lat="43.16331" lon="-0.57068">
        <ele>248.16</ele>
        <time>2021-08-20T06:26:25Z</time>
      </trkpt>
      <trkpt lat="43.16337" lon="-0.57061">
        <ele>248.16</ele>
        <time>2021-08-20T06:26:28Z</time>
      </trkpt>
      <trkpt lat="43.16338" lon="-0.5706">
        <ele>248.16</ele>
        <time>2021-08-20T06:26:29Z</time>
      </trkpt>
      <trkpt lat="43.1634" lon="-0.57059">
        <ele>248.16</ele>
        <time>2021-08-20T06:26:30Z</time>
      </trkpt>
      <trkpt lat="43.16341" lon="-0.57058">
        <ele>248.16</ele>
        <time>2021-08-20T06:26:31Z</time>
      </trkpt>
      <trkpt lat="43.16342" lon="-0.57056">
        <ele>248.16</ele>
        <time>2021-08-20T06:26:32Z</time>
      </trkpt>
      <trkpt lat="43.16348" lon="-0.57052">
        <ele>249.6</ele>
        <time>2021-08-20T06:26:37Z</time>
      </trkpt>
      <trkpt lat="43.16358" lon="-0.57045">
        <ele>249.6</ele>
        <time>2021-08-20T06:26:44Z</time>
      </trkpt>
      <trkpt lat="43.1636" lon="-0.57043">
        <ele>249.6</ele>
        <time>2021-08-20T06:26:45Z</time>
      </trkpt>
      <trkpt lat="43.16361" lon="-0.57042">
        <ele>249.6</ele>
        <time>2021-08-20T06:26:46Z</time>
      </trkpt>
      <trkpt lat="43.16365" lon="-0.57038">
        <ele>250.08</ele>
        <time>2021-08-20T06:26:53Z</time>
      </trkpt>
      <trkpt lat="43.16374" lon="-0.57031">
        <ele>250.56</ele>
        <time>2021-08-20T06:27:01Z</time>
      </trkpt>
      <trkpt lat="43.1638" lon="-0.57027">
        <ele>250.56</ele>
        <time>2021-08-20T06:27:08Z</time>
      </trkpt>
      <trkpt lat="43.16384" lon="-0.57019">
        <ele>251.04</ele>
        <time>2021-08-20T06:27:13Z</time>
      </trkpt>
      <trkpt lat="43.16385" lon="-0.57012">
        <ele>252</ele>
        <time>2021-08-20T06:27:19Z</time>
      </trkpt>
      <trkpt lat="43.16383" lon="-0.57006">
        <ele>252</ele>
        <time>2021-08-20T06:27:27Z</time>
      </trkpt>
      <trkpt lat="43.16382" lon="-0.57">
        <ele>252.96</ele>
        <time>2021-08-20T06:27:36Z</time>
      </trkpt>
      <trkpt lat="43.16383" lon="-0.56996">
        <ele>252.96</ele>
        <time>2021-08-20T06:27:38Z</time>
      </trkpt>
      <trkpt lat="43.16387" lon="-0.56994">
        <ele>252.96</ele>
        <time>2021-08-20T06:27:42Z</time>
      </trkpt>
      <trkpt lat="43.16393" lon="-0.56993">
        <ele>252.96</ele>
        <time>2021-08-20T06:27:50Z</time>
      </trkpt>
      <trkpt lat="43.16394" lon="-0.56993">
        <ele>252.96</ele>
        <time>2021-08-20T06:27:51Z</time>
      </trkpt>
      <trkpt lat="43.16396" lon="-0.56994">
        <ele>252.96</ele>
        <time>2021-08-20T06:27:52Z</time>
      </trkpt>
      <trkpt lat="43.16398" lon="-0.56994">
        <ele>252.96</ele>
        <time>2021-08-20T06:27:53Z</time>
      </trkpt>
      <trkpt lat="43.164" lon="-0.56995">
        <ele>253.44</ele>
        <time>2021-08-20T06:27:54Z</time>
      </trkpt>
      <trkpt lat="43.16406" lon="-0.56998">
        <ele>253.93</ele>
        <time>2021-08-20T06:27:57Z</time>
      </trkpt>
      <trkpt lat="43.16409" lon="-0.57001">
        <ele>253.44</ele>
        <time>2021-08-20T06:27:59Z</time>
      </trkpt>
      <trkpt lat="43.16411" lon="-0.57002">
        <ele>252</ele>
        <time>2021-08-20T06:28:00Z</time>
      </trkpt>
      <trkpt lat="43.16413" lon="-0.57003">
        <ele>252</ele>
        <time>2021-08-20T06:28:01Z</time>
      </trkpt>
      <trkpt lat="43.16418" lon="-0.57002">
        <ele>250.56</ele>
        <time>2021-08-20T06:28:03Z</time>
      </trkpt>
      <trkpt lat="43.16422" lon="-0.56999">
        <ele>249.6</ele>
        <time>2021-08-20T06:28:05Z</time>
      </trkpt>
      <trkpt lat="43.1643" lon="-0.56992">
        <ele>247.68</ele>
        <time>2021-08-20T06:28:09Z</time>
      </trkpt>
      <trkpt lat="43.16433" lon="-0.56992">
        <ele>246.23</ele>
        <time>2021-08-20T06:28:10Z</time>
      </trkpt>
      <trkpt lat="43.16437" lon="-0.56992">
        <ele>246.23</ele>
        <time>2021-08-20T06:28:11Z</time>
      </trkpt>
      <trkpt lat="43.16457" lon="-0.56988">
        <ele>247.68</ele>
        <time>2021-08-20T06:28:17Z</time>
      </trkpt>
      <trkpt lat="43.16461" lon="-0.56987">
        <ele>248.16</ele>
        <time>2021-08-20T06:28:19Z</time>
      </trkpt>
      <trkpt lat="43.16463" lon="-0.56987">
        <ele>248.16</ele>
        <time>2021-08-20T06:28:20Z</time>
      </trkpt>
      <trkpt lat="43.16465" lon="-0.56988">
        <ele>248.64</ele>
        <time>2021-08-20T06:28:21Z</time>
      </trkpt>
      <trkpt lat="43.16467" lon="-0.56989">
        <ele>248.64</ele>
        <time>2021-08-20T06:28:22Z</time>
      </trkpt>
      <trkpt lat="43.16469" lon="-0.5699">
        <ele>248.64</ele>
        <time>2021-08-20T06:28:23Z</time>
      </trkpt>
      <trkpt lat="43.16471" lon="-0.56991">
        <ele>248.64</ele>
        <time>2021-08-20T06:28:24Z</time>
      </trkpt>
      <trkpt lat="43.16488" lon="-0.56998">
        <ele>249.12</ele>
        <time>2021-08-20T06:28:31Z</time>
      </trkpt>
      <trkpt lat="43.16498" lon="-0.57003">
        <ele>248.16</ele>
        <time>2021-08-20T06:28:34Z</time>
      </trkpt>
      <trkpt lat="43.16514" lon="-0.57008">
        <ele>248.16</ele>
        <time>2021-08-20T06:28:40Z</time>
      </trkpt>
      <trkpt lat="43.16533" lon="-0.57015">
        <ele>246.72</ele>
        <time>2021-08-20T06:28:46Z</time>
      </trkpt>
      <trkpt lat="43.16549" lon="-0.57018">
        <ele>247.2</ele>
        <time>2021-08-20T06:28:52Z</time>
      </trkpt>
      <trkpt lat="43.16564" lon="-0.57018">
        <ele>246.23</ele>
        <time>2021-08-20T06:28:58Z</time>
      </trkpt>
      <trkpt lat="43.16584" lon="-0.57011">
        <ele>247.68</ele>
        <time>2021-08-20T06:29:04Z</time>
      </trkpt>
      <trkpt lat="43.1659" lon="-0.57008">
        <ele>248.16</ele>
        <time>2021-08-20T06:29:06Z</time>
      </trkpt>
      <trkpt lat="43.16593" lon="-0.57008">
        <ele>248.16</ele>
        <time>2021-08-20T06:29:07Z</time>
      </trkpt>
      <trkpt lat="43.16606" lon="-0.57008">
        <ele>248.64</ele>
        <time>2021-08-20T06:29:12Z</time>
      </trkpt>
      <trkpt lat="43.16608" lon="-0.57009">
        <ele>248.64</ele>
        <time>2021-08-20T06:29:13Z</time>
      </trkpt>
      <trkpt lat="43.16611" lon="-0.57009">
        <ele>246.72</ele>
        <time>2021-08-20T06:29:14Z</time>
      </trkpt>
      <trkpt lat="43.16614" lon="-0.5701">
        <ele>245.75</ele>
        <time>2021-08-20T06:29:15Z</time>
      </trkpt>
      <trkpt lat="43.16617" lon="-0.5701">
        <ele>244.79</ele>
        <time>2021-08-20T06:29:16Z</time>
      </trkpt>
      <trkpt lat="43.1662" lon="-0.57012">
        <ele>244.79</ele>
        <time>2021-08-20T06:29:17Z</time>
      </trkpt>
      <trkpt lat="43.16623" lon="-0.57012">
        <ele>244.79</ele>
        <time>2021-08-20T06:29:18Z</time>
      </trkpt>
      <trkpt lat="43.16628" lon="-0.57012">
        <ele>244.79</ele>
        <time>2021-08-20T06:29:20Z</time>
      </trkpt>
      <trkpt lat="43.1664" lon="-0.57013">
        <ele>246.72</ele>
        <time>2021-08-20T06:29:24Z</time>
      </trkpt>
      <trkpt lat="43.16649" lon="-0.57008">
        <ele>248.16</ele>
        <time>2021-08-20T06:29:33Z</time>
      </trkpt>
      <trkpt lat="43.16656" lon="-0.57006">
        <ele>249.12</ele>
        <time>2021-08-20T06:29:41Z</time>
      </trkpt>
      <trkpt lat="43.16662" lon="-0.57003">
        <ele>250.08</ele>
        <time>2021-08-20T06:29:49Z</time>
      </trkpt>
      <trkpt lat="43.16666" lon="-0.57004">
        <ele>250.08</ele>
        <time>2021-08-20T06:29:51Z</time>
      </trkpt>
      <trkpt lat="43.16668" lon="-0.57006">
        <ele>250.08</ele>
        <time>2021-08-20T06:29:52Z</time>
      </trkpt>
      <trkpt lat="43.1667" lon="-0.57007">
        <ele>250.08</ele>
        <time>2021-08-20T06:29:53Z</time>
      </trkpt>
      <trkpt lat="43.16672" lon="-0.57008">
        <ele>248.64</ele>
        <time>2021-08-20T06:29:54Z</time>
      </trkpt>
      <trkpt lat="43.16675" lon="-0.57009">
        <ele>248.64</ele>
        <time>2021-08-20T06:29:55Z</time>
      </trkpt>
      <trkpt lat="43.16688" lon="-0.57019">
        <ele>247.68</ele>
        <time>2021-08-20T06:30:01Z</time>
      </trkpt>
      <trkpt lat="43.16691" lon="-0.57022">
        <ele>246.72</ele>
        <time>2021-08-20T06:30:02Z</time>
      </trkpt>
      <trkpt lat="43.16715" lon="-0.57031">
        <ele>246.23</ele>
        <time>2021-08-20T06:30:10Z</time>
      </trkpt>
      <trkpt lat="43.16717" lon="-0.57031">
        <ele>246.23</ele>
        <time>2021-08-20T06:30:11Z</time>
      </trkpt>
      <trkpt lat="43.16721" lon="-0.57031">
        <ele>246.23</ele>
        <time>2021-08-20T06:30:13Z</time>
      </trkpt>
      <trkpt lat="43.16723" lon="-0.57032">
        <ele>246.23</ele>
        <time>2021-08-20T06:30:14Z</time>
      </trkpt>
      <trkpt lat="43.16734" lon="-0.57038">
        <ele>246.23</ele>
        <time>2021-08-20T06:30:18Z</time>
      </trkpt>
      <trkpt lat="43.16737" lon="-0.5704">
        <ele>245.75</ele>
        <time>2021-08-20T06:30:19Z</time>
      </trkpt>
      <trkpt lat="43.16738" lon="-0.57043">
        <ele>245.75</ele>
        <time>2021-08-20T06:30:20Z</time>
      </trkpt>
      <trkpt lat="43.16746" lon="-0.57053">
        <ele>247.2</ele>
        <time>2021-08-20T06:30:26Z</time>
      </trkpt>
      <trkpt lat="43.1675" lon="-0.57056">
        <ele>247.2</ele>
        <time>2021-08-20T06:30:29Z</time>
      </trkpt>
      <trkpt lat="43.16752" lon="-0.57058">
        <ele>247.2</ele>
        <time>2021-08-20T06:30:30Z</time>
      </trkpt>
      <trkpt lat="43.1677" lon="-0.57072">
        <ele>247.2</ele>
        <time>2021-08-20T06:30:37Z</time>
      </trkpt>
      <trkpt lat="43.16781" lon="-0.57087">
        <ele>247.2</ele>
        <time>2021-08-20T06:30:42Z</time>
      </trkpt>
      <trkpt lat="43.16793" lon="-0.57109">
        <ele>248.16</ele>
        <time>2021-08-20T06:30:48Z</time>
      </trkpt>
      <trkpt lat="43.16803" lon="-0.57133">
        <ele>248.16</ele>
        <time>2021-08-20T06:30:55Z</time>
      </trkpt>
      <trkpt lat="43.16811" lon="-0.57155">
        <ele>249.12</ele>
        <time>2021-08-20T06:31:02Z</time>
      </trkpt>
      <trkpt lat="43.1682" lon="-0.5718">
        <ele>250.08</ele>
        <time>2021-08-20T06:31:09Z</time>
      </trkpt>
      <trkpt lat="43.1682" lon="-0.57183">
        <ele>250.08</ele>
        <time>2021-08-20T06:31:10Z</time>
      </trkpt>
      <trkpt lat="43.16821" lon="-0.57187">
        <ele>250.08</ele>
        <time>2021-08-20T06:31:11Z</time>
      </trkpt>
      <trkpt lat="43.1682" lon="-0.5719">
        <ele>248.64</ele>
        <time>2021-08-20T06:31:12Z</time>
      </trkpt>
      <trkpt lat="43.16821" lon="-0.57194">
        <ele>247.68</ele>
        <time>2021-08-20T06:31:13Z</time>
      </trkpt>
      <trkpt lat="43.16821" lon="-0.572">
        <ele>247.2</ele>
        <time>2021-08-20T06:31:14Z</time>
      </trkpt>
      <trkpt lat="43.16822" lon="-0.57206">
        <ele>247.2</ele>
        <time>2021-08-20T06:31:15Z</time>
      </trkpt>
      <trkpt lat="43.16825" lon="-0.57236">
        <ele>246.72</ele>
        <time>2021-08-20T06:31:20Z</time>
      </trkpt>
      <trkpt lat="43.16826" lon="-0.57242">
        <ele>246.23</ele>
        <time>2021-08-20T06:31:21Z</time>
      </trkpt>
      <trkpt lat="43.16827" lon="-0.57247">
        <ele>246.23</ele>
        <time>2021-08-20T06:31:22Z</time>
      </trkpt>
      <trkpt lat="43.16831" lon="-0.5727">
        <ele>246.23</ele>
        <time>2021-08-20T06:31:26Z</time>
      </trkpt>
      <trkpt lat="43.16833" lon="-0.5728">
        <ele>246.23</ele>
        <time>2021-08-20T06:31:30Z</time>
      </trkpt>
      <trkpt lat="43.16832" lon="-0.57281">
        <ele>246.23</ele>
        <time>2021-08-20T06:31:31Z</time>
      </trkpt>
      <trkpt lat="43.1683" lon="-0.57282">
        <ele>245.75</ele>
        <time>2021-08-20T06:31:32Z</time>
      </trkpt>
      <trkpt lat="43.16828" lon="-0.57283">
        <ele>245.75</ele>
        <time>2021-08-20T06:31:33Z</time>
      </trkpt>
      <trkpt lat="43.16826" lon="-0.57283">
        <ele>245.75</ele>
        <time>2021-08-20T06:31:34Z</time>
      </trkpt>
      <trkpt lat="43.16824" lon="-0.57283">
        <ele>245.75</ele>
        <time>2021-08-20T06:31:35Z</time>
      </trkpt>
      <trkpt lat="43.16821" lon="-0.57283">
        <ele>245.75</ele>
        <time>2021-08-20T06:31:36Z</time>
      </trkpt>
      <trkpt lat="43.16819" lon="-0.57284">
        <ele>247.2</ele>
        <time>2021-08-20T06:31:37Z</time>
      </trkpt>
      <trkpt lat="43.16816" lon="-0.57285">
        <ele>247.2</ele>
        <time>2021-08-20T06:31:38Z</time>
      </trkpt>
      <trkpt lat="43.16814" lon="-0.57284">
        <ele>247.2</ele>
        <time>2021-08-20T06:31:39Z</time>
      </trkpt>
      <trkpt lat="43.16796" lon="-0.57282">
        <ele>247.2</ele>
        <time>2021-08-20T06:31:45Z</time>
      </trkpt>
      <trkpt lat="43.16784" lon="-0.57279">
        <ele>247.2</ele>
        <time>2021-08-20T06:31:49Z</time>
      </trkpt>
      <trkpt lat="43.16783" lon="-0.5728">
        <ele>247.2</ele>
        <time>2021-08-20T06:31:54Z</time>
      </trkpt>
      <trkpt lat="43.16784" lon="-0.5728">
        <ele>247.2</ele>
        <time>2021-08-20T06:32:05Z</time>
      </trkpt>
      <trkpt lat="43.16781" lon="-0.57279">
        <ele>247.2</ele>
        <time>2021-08-20T06:32:11Z</time>
      </trkpt>
      <trkpt lat="43.16779" lon="-0.57278">
        <ele>247.2</ele>
        <time>2021-08-20T06:32:12Z</time>
      </trkpt>
      <trkpt lat="43.16776" lon="-0.57278">
        <ele>247.2</ele>
        <time>2021-08-20T06:32:13Z</time>
      </trkpt>
      <trkpt lat="43.16766" lon="-0.57279">
        <ele>247.2</ele>
        <time>2021-08-20T06:32:17Z</time>
      </trkpt>
      <trkpt lat="43.16764" lon="-0.57281">
        <ele>247.2</ele>
        <time>2021-08-20T06:32:18Z</time>
      </trkpt>
      <trkpt lat="43.16763" lon="-0.57284">
        <ele>247.2</ele>
        <time>2021-08-20T06:32:19Z</time>
      </trkpt>
      <trkpt lat="43.16762" lon="-0.57287">
        <ele>247.2</ele>
        <time>2021-08-20T06:32:20Z</time>
      </trkpt>
      <trkpt lat="43.16762" lon="-0.57289">
        <ele>247.2</ele>
        <time>2021-08-20T06:32:21Z</time>
      </trkpt>
      <trkpt lat="43.1676" lon="-0.57292">
        <ele>247.2</ele>
        <time>2021-08-20T06:32:22Z</time>
      </trkpt>
      <trkpt lat="43.1676" lon="-0.57294">
        <ele>247.2</ele>
        <time>2021-08-20T06:32:23Z</time>
      </trkpt>
      <trkpt lat="43.16759" lon="-0.57296">
        <ele>247.2</ele>
        <time>2021-08-20T06:32:24Z</time>
      </trkpt>
      <trkpt lat="43.16759" lon="-0.57299">
        <ele>247.2</ele>
        <time>2021-08-20T06:32:25Z</time>
      </trkpt>
      <trkpt lat="43.16758" lon="-0.57302">
        <ele>247.2</ele>
        <time>2021-08-20T06:32:26Z</time>
      </trkpt>
      <trkpt lat="43.16758" lon="-0.57305">
        <ele>247.2</ele>
        <time>2021-08-20T06:32:27Z</time>
      </trkpt>
      <trkpt lat="43.16758" lon="-0.57309">
        <ele>247.2</ele>
        <time>2021-08-20T06:32:28Z</time>
      </trkpt>
      <trkpt lat="43.16758" lon="-0.57313">
        <ele>247.2</ele>
        <time>2021-08-20T06:32:29Z</time>
      </trkpt>
      <trkpt lat="43.16758" lon="-0.57317">
        <ele>247.2</ele>
        <time>2021-08-20T06:32:30Z</time>
      </trkpt>
      <trkpt lat="43.16758" lon="-0.57329">
        <ele>245.75</ele>
        <time>2021-08-20T06:32:32Z</time>
      </trkpt>
      <trkpt lat="43.1676" lon="-0.57378">
        <ele>244.31</ele>
        <time>2021-08-20T06:32:39Z</time>
      </trkpt>
      <trkpt lat="43.16764" lon="-0.57422">
        <ele>244.31</ele>
        <time>2021-08-20T06:32:46Z</time>
      </trkpt>
      <trkpt lat="43.16763" lon="-0.57462">
        <ele>244.31</ele>
        <time>2021-08-20T06:32:53Z</time>
      </trkpt>
      <trkpt lat="43.16764" lon="-0.57475">
        <ele>244.31</ele>
        <time>2021-08-20T06:32:55Z</time>
      </trkpt>
      <trkpt lat="43.16765" lon="-0.57481">
        <ele>244.31</ele>
        <time>2021-08-20T06:32:56Z</time>
      </trkpt>
      <trkpt lat="43.16773" lon="-0.57523">
        <ele>243.83</ele>
        <time>2021-08-20T06:33:03Z</time>
      </trkpt>
      <trkpt lat="43.16777" lon="-0.57543">
        <ele>244.79</ele>
        <time>2021-08-20T06:33:07Z</time>
      </trkpt>
      <trkpt lat="43.1678" lon="-0.57558">
        <ele>246.23</ele>
        <time>2021-08-20T06:33:13Z</time>
      </trkpt>
      <trkpt lat="43.16781" lon="-0.57566">
        <ele>246.72</ele>
        <time>2021-08-20T06:33:18Z</time>
      </trkpt>
      <trkpt lat="43.16785" lon="-0.57581">
        <ele>248.64</ele>
        <time>2021-08-20T06:33:26Z</time>
      </trkpt>
      <trkpt lat="43.16791" lon="-0.57595">
        <ele>250.56</ele>
        <time>2021-08-20T06:33:35Z</time>
      </trkpt>
      <trkpt lat="43.16797" lon="-0.57608">
        <ele>251.04</ele>
        <time>2021-08-20T06:33:42Z</time>
      </trkpt>
      <trkpt lat="43.16808" lon="-0.57624">
        <ele>251.52</ele>
        <time>2021-08-20T06:33:49Z</time>
      </trkpt>
      <trkpt lat="43.16821" lon="-0.57635">
        <ele>252</ele>
        <time>2021-08-20T06:33:55Z</time>
      </trkpt>
      <trkpt lat="43.16838" lon="-0.57644">
        <ele>252</ele>
        <time>2021-08-20T06:34:01Z</time>
      </trkpt>
      <trkpt lat="43.16863" lon="-0.57662">
        <ele>252</ele>
        <time>2021-08-20T06:34:09Z</time>
      </trkpt>
      <trkpt lat="43.16871" lon="-0.57667">
        <ele>250.56</ele>
        <time>2021-08-20T06:34:11Z</time>
      </trkpt>
      <trkpt lat="43.16876" lon="-0.57668">
        <ele>250.08</ele>
        <time>2021-08-20T06:34:12Z</time>
      </trkpt>
      <trkpt lat="43.16881" lon="-0.57668">
        <ele>250.08</ele>
        <time>2021-08-20T06:34:13Z</time>
      </trkpt>
      <trkpt lat="43.16886" lon="-0.57668">
        <ele>249.12</ele>
        <time>2021-08-20T06:34:14Z</time>
      </trkpt>
      <trkpt lat="43.16923" lon="-0.57659">
        <ele>247.68</ele>
        <time>2021-08-20T06:34:20Z</time>
      </trkpt>
      <trkpt lat="43.1693" lon="-0.57659">
        <ele>246.72</ele>
        <time>2021-08-20T06:34:21Z</time>
      </trkpt>
      <trkpt lat="43.16976" lon="-0.57667">
        <ele>245.75</ele>
        <time>2021-08-20T06:34:28Z</time>
      </trkpt>
      <trkpt lat="43.17022" lon="-0.57668">
        <ele>245.27</ele>
        <time>2021-08-20T06:34:36Z</time>
      </trkpt>
      <trkpt lat="43.17034" lon="-0.5767">
        <ele>246.72</ele>
        <time>2021-08-20T06:34:39Z</time>
      </trkpt>
      <trkpt lat="43.17062" lon="-0.57668">
        <ele>247.68</ele>
        <time>2021-08-20T06:34:46Z</time>
      </trkpt>
      <trkpt lat="43.17094" lon="-0.57665">
        <ele>248.64</ele>
        <time>2021-08-20T06:34:54Z</time>
      </trkpt>
      <trkpt lat="43.17117" lon="-0.57663">
        <ele>249.6</ele>
        <time>2021-08-20T06:35:01Z</time>
      </trkpt>
      <trkpt lat="43.17134" lon="-0.57666">
        <ele>249.6</ele>
        <time>2021-08-20T06:35:07Z</time>
      </trkpt>
      <trkpt lat="43.17146" lon="-0.57672">
        <ele>247.68</ele>
        <time>2021-08-20T06:35:10Z</time>
      </trkpt>
      <trkpt lat="43.17151" lon="-0.57675">
        <ele>247.68</ele>
        <time>2021-08-20T06:35:11Z</time>
      </trkpt>
      <trkpt lat="43.17156" lon="-0.57679">
        <ele>247.68</ele>
        <time>2021-08-20T06:35:12Z</time>
      </trkpt>
      <trkpt lat="43.1716" lon="-0.57682">
        <ele>247.68</ele>
        <time>2021-08-20T06:35:13Z</time>
      </trkpt>
      <trkpt lat="43.17165" lon="-0.57686">
        <ele>247.68</ele>
        <time>2021-08-20T06:35:14Z</time>
      </trkpt>
      <trkpt lat="43.17184" lon="-0.57698">
        <ele>247.2</ele>
        <time>2021-08-20T06:35:19Z</time>
      </trkpt>
      <trkpt lat="43.172" lon="-0.57713">
        <ele>248.64</ele>
        <time>2021-08-20T06:35:24Z</time>
      </trkpt>
      <trkpt lat="43.17202" lon="-0.57717">
        <ele>248.64</ele>
        <time>2021-08-20T06:35:25Z</time>
      </trkpt>
      <trkpt lat="43.17217" lon="-0.57742">
        <ele>249.12</ele>
        <time>2021-08-20T06:35:32Z</time>
      </trkpt>
      <trkpt lat="43.17236" lon="-0.57786">
        <ele>250.08</ele>
        <time>2021-08-20T06:35:40Z</time>
      </trkpt>
      <trkpt lat="43.17252" lon="-0.57808">
        <ele>250.08</ele>
        <time>2021-08-20T06:35:46Z</time>
      </trkpt>
      <trkpt lat="43.17265" lon="-0.57837">
        <ele>251.04</ele>
        <time>2021-08-20T06:35:53Z</time>
      </trkpt>
      <trkpt lat="43.17275" lon="-0.57863">
        <ele>251.52</ele>
        <time>2021-08-20T06:35:59Z</time>
      </trkpt>
      <trkpt lat="43.17282" lon="-0.57889">
        <ele>252</ele>
        <time>2021-08-20T06:36:04Z</time>
      </trkpt>
      <trkpt lat="43.17287" lon="-0.57913">
        <ele>252</ele>
        <time>2021-08-20T06:36:08Z</time>
      </trkpt>
      <trkpt lat="43.17294" lon="-0.57943">
        <ele>252</ele>
        <time>2021-08-20T06:36:13Z</time>
      </trkpt>
      <trkpt lat="43.17294" lon="-0.57949">
        <ele>252</ele>
        <time>2021-08-20T06:36:14Z</time>
      </trkpt>
      <trkpt lat="43.17296" lon="-0.57955">
        <ele>252</ele>
        <time>2021-08-20T06:36:15Z</time>
      </trkpt>
      <trkpt lat="43.17298" lon="-0.57961">
        <ele>252</ele>
        <time>2021-08-20T06:36:16Z</time>
      </trkpt>
      <trkpt lat="43.17299" lon="-0.57968">
        <ele>252</ele>
        <time>2021-08-20T06:36:17Z</time>
      </trkpt>
      <trkpt lat="43.17306" lon="-0.57999">
        <ele>252</ele>
        <time>2021-08-20T06:36:22Z</time>
      </trkpt>
      <trkpt lat="43.17307" lon="-0.58005">
        <ele>252</ele>
        <time>2021-08-20T06:36:23Z</time>
      </trkpt>
      <trkpt lat="43.17308" lon="-0.58011">
        <ele>252</ele>
        <time>2021-08-20T06:36:24Z</time>
      </trkpt>
      <trkpt lat="43.17309" lon="-0.58016">
        <ele>252</ele>
        <time>2021-08-20T06:36:25Z</time>
      </trkpt>
      <trkpt lat="43.17309" lon="-0.58022">
        <ele>252</ele>
        <time>2021-08-20T06:36:26Z</time>
      </trkpt>
      <trkpt lat="43.1731" lon="-0.58027">
        <ele>252.96</ele>
        <time>2021-08-20T06:36:27Z</time>
      </trkpt>
      <trkpt lat="43.17311" lon="-0.58031">
        <ele>252.96</ele>
        <time>2021-08-20T06:36:28Z</time>
      </trkpt>
      <trkpt lat="43.17312" lon="-0.58036">
        <ele>252.96</ele>
        <time>2021-08-20T06:36:29Z</time>
      </trkpt>
      <trkpt lat="43.17314" lon="-0.58041">
        <ele>252.96</ele>
        <time>2021-08-20T06:36:30Z</time>
      </trkpt>
      <trkpt lat="43.17321" lon="-0.58078">
        <ele>251.52</ele>
        <time>2021-08-20T06:36:36Z</time>
      </trkpt>
      <trkpt lat="43.17328" lon="-0.58123">
        <ele>251.04</ele>
        <time>2021-08-20T06:36:43Z</time>
      </trkpt>
      <trkpt lat="43.17337" lon="-0.58156">
        <ele>251.04</ele>
        <time>2021-08-20T06:36:50Z</time>
      </trkpt>
      <trkpt lat="43.1734" lon="-0.58169">
        <ele>250.56</ele>
        <time>2021-08-20T06:36:52Z</time>
      </trkpt>
      <trkpt lat="43.17345" lon="-0.58191">
        <ele>249.6</ele>
        <time>2021-08-20T06:36:55Z</time>
      </trkpt>
      <trkpt lat="43.17349" lon="-0.58206">
        <ele>249.12</ele>
        <time>2021-08-20T06:36:57Z</time>
      </trkpt>
      <trkpt lat="43.17354" lon="-0.58221">
        <ele>247.68</ele>
        <time>2021-08-20T06:36:59Z</time>
      </trkpt>
      <trkpt lat="43.17365" lon="-0.58271">
        <ele>244.79</ele>
        <time>2021-08-20T06:37:04Z</time>
      </trkpt>
      <trkpt lat="43.17367" lon="-0.58281">
        <ele>244.79</ele>
        <time>2021-08-20T06:37:05Z</time>
      </trkpt>
      <trkpt lat="43.17385" lon="-0.58334">
        <ele>245.27</ele>
        <time>2021-08-20T06:37:11Z</time>
      </trkpt>
      <trkpt lat="43.1739" lon="-0.58358">
        <ele>245.27</ele>
        <time>2021-08-20T06:37:14Z</time>
      </trkpt>
      <trkpt lat="43.17391" lon="-0.58366">
        <ele>245.27</ele>
        <time>2021-08-20T06:37:15Z</time>
      </trkpt>
      <trkpt lat="43.17405" lon="-0.58418">
        <ele>245.27</ele>
        <time>2021-08-20T06:37:23Z</time>
      </trkpt>
      <trkpt lat="43.17415" lon="-0.58456">
        <ele>245.27</ele>
        <time>2021-08-20T06:37:30Z</time>
      </trkpt>
      <trkpt lat="43.17417" lon="-0.58462">
        <ele>245.27</ele>
        <time>2021-08-20T06:37:31Z</time>
      </trkpt>
      <trkpt lat="43.17419" lon="-0.58469">
        <ele>245.27</ele>
        <time>2021-08-20T06:37:32Z</time>
      </trkpt>
      <trkpt lat="43.17421" lon="-0.58475">
        <ele>245.27</ele>
        <time>2021-08-20T06:37:33Z</time>
      </trkpt>
      <trkpt lat="43.17422" lon="-0.58482">
        <ele>245.27</ele>
        <time>2021-08-20T06:37:34Z</time>
      </trkpt>
      <trkpt lat="43.17422" lon="-0.58489">
        <ele>244.31</ele>
        <time>2021-08-20T06:37:35Z</time>
      </trkpt>
      <trkpt lat="43.17423" lon="-0.58496">
        <ele>244.31</ele>
        <time>2021-08-20T06:37:36Z</time>
      </trkpt>
      <trkpt lat="43.17423" lon="-0.58504">
        <ele>244.31</ele>
        <time>2021-08-20T06:37:37Z</time>
      </trkpt>
      <trkpt lat="43.17423" lon="-0.58511">
        <ele>244.31</ele>
        <time>2021-08-20T06:37:38Z</time>
      </trkpt>
      <trkpt lat="43.17423" lon="-0.58519">
        <ele>243.83</ele>
        <time>2021-08-20T06:37:39Z</time>
      </trkpt>
      <trkpt lat="43.17424" lon="-0.58526">
        <ele>243.83</ele>
        <time>2021-08-20T06:37:40Z</time>
      </trkpt>
      <trkpt lat="43.17425" lon="-0.58533">
        <ele>243.83</ele>
        <time>2021-08-20T06:37:41Z</time>
      </trkpt>
      <trkpt lat="43.17427" lon="-0.58556">
        <ele>245.75</ele>
        <time>2021-08-20T06:37:45Z</time>
      </trkpt>
      <trkpt lat="43.17428" lon="-0.58578">
        <ele>247.68</ele>
        <time>2021-08-20T06:37:51Z</time>
      </trkpt>
      <trkpt lat="43.17428" lon="-0.58615">
        <ele>248.16</ele>
        <time>2021-08-20T06:37:59Z</time>
      </trkpt>
      <trkpt lat="43.17426" lon="-0.58649">
        <ele>246.72</ele>
        <time>2021-08-20T06:38:05Z</time>
      </trkpt>
      <trkpt lat="43.17426" lon="-0.58697">
        <ele>245.75</ele>
        <time>2021-08-20T06:38:12Z</time>
      </trkpt>
      <trkpt lat="43.17427" lon="-0.58713">
        <ele>244.79</ele>
        <time>2021-08-20T06:38:14Z</time>
      </trkpt>
      <trkpt lat="43.17427" lon="-0.58721">
        <ele>244.79</ele>
        <time>2021-08-20T06:38:15Z</time>
      </trkpt>
      <trkpt lat="43.17427" lon="-0.58729">
        <ele>244.79</ele>
        <time>2021-08-20T06:38:16Z</time>
      </trkpt>
      <trkpt lat="43.17427" lon="-0.58737">
        <ele>244.79</ele>
        <time>2021-08-20T06:38:17Z</time>
      </trkpt>
      <trkpt lat="43.17428" lon="-0.58745">
        <ele>244.79</ele>
        <time>2021-08-20T06:38:18Z</time>
      </trkpt>
      <trkpt lat="43.17429" lon="-0.58774">
        <ele>244.31</ele>
        <time>2021-08-20T06:38:22Z</time>
      </trkpt>
      <trkpt lat="43.1743" lon="-0.58829">
        <ele>243.83</ele>
        <time>2021-08-20T06:38:30Z</time>
      </trkpt>
      <trkpt lat="43.17429" lon="-0.58854">
        <ele>245.75</ele>
        <time>2021-08-20T06:38:36Z</time>
      </trkpt>
      <trkpt lat="43.17428" lon="-0.58868">
        <ele>247.68</ele>
        <time>2021-08-20T06:38:43Z</time>
      </trkpt>
      <trkpt lat="43.17429" lon="-0.58871">
        <ele>248.16</ele>
        <time>2021-08-20T06:38:45Z</time>
      </trkpt>
      <trkpt lat="43.17428" lon="-0.58874">
        <ele>248.16</ele>
        <time>2021-08-20T06:38:46Z</time>
      </trkpt>
      <trkpt lat="43.17427" lon="-0.58876">
        <ele>248.16</ele>
        <time>2021-08-20T06:38:47Z</time>
      </trkpt>
      <trkpt lat="43.17427" lon="-0.58878">
        <ele>248.64</ele>
        <time>2021-08-20T06:38:48Z</time>
      </trkpt>
      <trkpt lat="43.17427" lon="-0.5888">
        <ele>248.64</ele>
        <time>2021-08-20T06:38:49Z</time>
      </trkpt>
      <trkpt lat="43.17427" lon="-0.58882">
        <ele>249.12</ele>
        <time>2021-08-20T06:38:50Z</time>
      </trkpt>
      <trkpt lat="43.17425" lon="-0.58907">
        <ele>250.08</ele>
        <time>2021-08-20T06:38:59Z</time>
      </trkpt>
      <trkpt lat="43.17428" lon="-0.58924">
        <ele>251.04</ele>
        <time>2021-08-20T06:39:06Z</time>
      </trkpt>
      <trkpt lat="43.17431" lon="-0.58946">
        <ele>252</ele>
        <time>2021-08-20T06:39:14Z</time>
      </trkpt>
      <trkpt lat="43.17436" lon="-0.58965">
        <ele>252.96</ele>
        <time>2021-08-20T06:39:21Z</time>
      </trkpt>
      <trkpt lat="43.17443" lon="-0.58986">
        <ele>254.89</ele>
        <time>2021-08-20T06:39:29Z</time>
      </trkpt>
      <trkpt lat="43.17447" lon="-0.59005">
        <ele>255.85</ele>
        <time>2021-08-20T06:39:36Z</time>
      </trkpt>
      <trkpt lat="43.17451" lon="-0.59031">
        <ele>256.81</ele>
        <time>2021-08-20T06:39:44Z</time>
      </trkpt>
      <trkpt lat="43.17453" lon="-0.59054">
        <ele>256.81</ele>
        <time>2021-08-20T06:39:50Z</time>
      </trkpt>
      <trkpt lat="43.17453" lon="-0.59067">
        <ele>256.81</ele>
        <time>2021-08-20T06:39:52Z</time>
      </trkpt>
      <trkpt lat="43.17454" lon="-0.59073">
        <ele>256.81</ele>
        <time>2021-08-20T06:39:53Z</time>
      </trkpt>
      <trkpt lat="43.17457" lon="-0.59088">
        <ele>255.37</ele>
        <time>2021-08-20T06:39:55Z</time>
      </trkpt>
      <trkpt lat="43.17469" lon="-0.5915">
        <ele>253.93</ele>
        <time>2021-08-20T06:40:03Z</time>
      </trkpt>
      <trkpt lat="43.17473" lon="-0.59165">
        <ele>253.44</ele>
        <time>2021-08-20T06:40:05Z</time>
      </trkpt>
      <trkpt lat="43.17476" lon="-0.59171">
        <ele>253.44</ele>
        <time>2021-08-20T06:40:06Z</time>
      </trkpt>
      <trkpt lat="43.1748" lon="-0.59176">
        <ele>253.44</ele>
        <time>2021-08-20T06:40:07Z</time>
      </trkpt>
      <trkpt lat="43.17484" lon="-0.5918">
        <ele>253.93</ele>
        <time>2021-08-20T06:40:08Z</time>
      </trkpt>
      <trkpt lat="43.17488" lon="-0.59183">
        <ele>253.93</ele>
        <time>2021-08-20T06:40:09Z</time>
      </trkpt>
      <trkpt lat="43.17496" lon="-0.5919">
        <ele>255.37</ele>
        <time>2021-08-20T06:40:11Z</time>
      </trkpt>
      <trkpt lat="43.175" lon="-0.59192">
        <ele>255.37</ele>
        <time>2021-08-20T06:40:12Z</time>
      </trkpt>
      <trkpt lat="43.17515" lon="-0.59199">
        <ele>256.81</ele>
        <time>2021-08-20T06:40:18Z</time>
      </trkpt>
      <trkpt lat="43.17526" lon="-0.59207">
        <ele>257.77</ele>
        <time>2021-08-20T06:40:25Z</time>
      </trkpt>
      <trkpt lat="43.17537" lon="-0.59219">
        <ele>259.69</ele>
        <time>2021-08-20T06:40:34Z</time>
      </trkpt>
      <trkpt lat="43.17547" lon="-0.59231">
        <ele>261.14</ele>
        <time>2021-08-20T06:40:43Z</time>
      </trkpt>
      <trkpt lat="43.17551" lon="-0.59237">
        <ele>261.62</ele>
        <time>2021-08-20T06:40:47Z</time>
      </trkpt>
      <trkpt lat="43.17553" lon="-0.59238">
        <ele>262.58</ele>
        <time>2021-08-20T06:40:48Z</time>
      </trkpt>
      <trkpt lat="43.17554" lon="-0.59239">
        <ele>262.58</ele>
        <time>2021-08-20T06:40:49Z</time>
      </trkpt>
      <trkpt lat="43.17556" lon="-0.59241">
        <ele>262.58</ele>
        <time>2021-08-20T06:40:55Z</time>
      </trkpt>
      <trkpt lat="43.17559" lon="-0.5924">
        <ele>262.58</ele>
        <time>2021-08-20T06:41:22Z</time>
      </trkpt>
      <trkpt lat="43.17562" lon="-0.59243">
        <ele>262.58</ele>
        <time>2021-08-20T06:41:44Z</time>
      </trkpt>
      <trkpt lat="43.17562" lon="-0.59249">
        <ele>263.06</ele>
        <time>2021-08-20T06:41:51Z</time>
      </trkpt>
      <trkpt lat="43.17564" lon="-0.59253">
        <ele>263.06</ele>
        <time>2021-08-20T06:41:54Z</time>
      </trkpt>
      <trkpt lat="43.17564" lon="-0.59255">
        <ele>264.02</ele>
        <time>2021-08-20T06:41:55Z</time>
      </trkpt>
      <trkpt lat="43.17566" lon="-0.59258">
        <ele>264.5</ele>
        <time>2021-08-20T06:41:57Z</time>
      </trkpt>
      <trkpt lat="43.17566" lon="-0.5926">
        <ele>264.5</ele>
        <time>2021-08-20T06:41:58Z</time>
      </trkpt>
      <trkpt lat="43.17567" lon="-0.59262">
        <ele>264.5</ele>
        <time>2021-08-20T06:41:59Z</time>
      </trkpt>
      <trkpt lat="43.17575" lon="-0.59283">
        <ele>265.94</ele>
        <time>2021-08-20T06:42:08Z</time>
      </trkpt>
      <trkpt lat="43.17581" lon="-0.59301">
        <ele>267.38</ele>
        <time>2021-08-20T06:42:16Z</time>
      </trkpt>
      <trkpt lat="43.17586" lon="-0.59321">
        <ele>268.83</ele>
        <time>2021-08-20T06:42:24Z</time>
      </trkpt>
      <trkpt lat="43.1759" lon="-0.5934">
        <ele>270.27</ele>
        <time>2021-08-20T06:42:33Z</time>
      </trkpt>
      <trkpt lat="43.17593" lon="-0.59357">
        <ele>271.23</ele>
        <time>2021-08-20T06:42:41Z</time>
      </trkpt>
      <trkpt lat="43.17598" lon="-0.59378">
        <ele>273.63</ele>
        <time>2021-08-20T06:42:51Z</time>
      </trkpt>
      <trkpt lat="43.17601" lon="-0.59399">
        <ele>275.07</ele>
        <time>2021-08-20T06:43:00Z</time>
      </trkpt>
      <trkpt lat="43.176" lon="-0.59418">
        <ele>277</ele>
        <time>2021-08-20T06:43:08Z</time>
      </trkpt>
      <trkpt lat="43.17592" lon="-0.59435">
        <ele>275.56</ele>
        <time>2021-08-20T06:43:14Z</time>
      </trkpt>
      <trkpt lat="43.17584" lon="-0.5945">
        <ele>274.59</ele>
        <time>2021-08-20T06:43:17Z</time>
      </trkpt>
      <trkpt lat="43.17582" lon="-0.59456">
        <ele>274.59</ele>
        <time>2021-08-20T06:43:18Z</time>
      </trkpt>
      <trkpt lat="43.17581" lon="-0.59462">
        <ele>274.59</ele>
        <time>2021-08-20T06:43:19Z</time>
      </trkpt>
      <trkpt lat="43.1758" lon="-0.59469">
        <ele>274.59</ele>
        <time>2021-08-20T06:43:20Z</time>
      </trkpt>
      <trkpt lat="43.1758" lon="-0.59476">
        <ele>274.59</ele>
        <time>2021-08-20T06:43:21Z</time>
      </trkpt>
      <trkpt lat="43.17581" lon="-0.59482">
        <ele>274.59</ele>
        <time>2021-08-20T06:43:22Z</time>
      </trkpt>
      <trkpt lat="43.17583" lon="-0.59487">
        <ele>274.59</ele>
        <time>2021-08-20T06:43:23Z</time>
      </trkpt>
      <trkpt lat="43.17585" lon="-0.59491">
        <ele>274.59</ele>
        <time>2021-08-20T06:43:24Z</time>
      </trkpt>
      <trkpt lat="43.17588" lon="-0.59495">
        <ele>274.11</ele>
        <time>2021-08-20T06:43:25Z</time>
      </trkpt>
      <trkpt lat="43.17592" lon="-0.595">
        <ele>274.11</ele>
        <time>2021-08-20T06:43:26Z</time>
      </trkpt>
      <trkpt lat="43.17603" lon="-0.59511">
        <ele>273.63</ele>
        <time>2021-08-20T06:43:29Z</time>
      </trkpt>
      <trkpt lat="43.17642" lon="-0.59533">
        <ele>273.15</ele>
        <time>2021-08-20T06:43:38Z</time>
      </trkpt>
      <trkpt lat="43.17677" lon="-0.59555">
        <ele>272.19</ele>
        <time>2021-08-20T06:43:45Z</time>
      </trkpt>
      <trkpt lat="43.17731" lon="-0.59581">
        <ele>271.71</ele>
        <time>2021-08-20T06:43:55Z</time>
      </trkpt>
      <trkpt lat="43.17737" lon="-0.59585">
        <ele>272.19</ele>
        <time>2021-08-20T06:43:56Z</time>
      </trkpt>
      <trkpt lat="43.1776" lon="-0.59605">
        <ele>273.63</ele>
        <time>2021-08-20T06:44:02Z</time>
      </trkpt>
      <trkpt lat="43.17764" lon="-0.59609">
        <ele>273.63</ele>
        <time>2021-08-20T06:44:03Z</time>
      </trkpt>
      <trkpt lat="43.17781" lon="-0.5963">
        <ele>274.11</ele>
        <time>2021-08-20T06:44:10Z</time>
      </trkpt>
      <trkpt lat="43.178" lon="-0.59652">
        <ele>275.56</ele>
        <time>2021-08-20T06:44:18Z</time>
      </trkpt>
      <trkpt lat="43.17817" lon="-0.59669">
        <ele>276.52</ele>
        <time>2021-08-20T06:44:26Z</time>
      </trkpt>
      <trkpt lat="43.17833" lon="-0.59681">
        <ele>277.48</ele>
        <time>2021-08-20T06:44:33Z</time>
      </trkpt>
      <trkpt lat="43.17849" lon="-0.59691">
        <ele>278.44</ele>
        <time>2021-08-20T06:44:41Z</time>
      </trkpt>
      <trkpt lat="43.17861" lon="-0.59698">
        <ele>278.92</ele>
        <time>2021-08-20T06:44:49Z</time>
      </trkpt>
      <trkpt lat="43.17876" lon="-0.59706">
        <ele>280.36</ele>
        <time>2021-08-20T06:44:56Z</time>
      </trkpt>
      <trkpt lat="43.1789" lon="-0.59728">
        <ele>279.88</ele>
        <time>2021-08-20T06:45:04Z</time>
      </trkpt>
      <trkpt lat="43.17904" lon="-0.59757">
        <ele>278.44</ele>
        <time>2021-08-20T06:45:09Z</time>
      </trkpt>
      <trkpt lat="43.17907" lon="-0.59762">
        <ele>278.44</ele>
        <time>2021-08-20T06:45:10Z</time>
      </trkpt>
      <trkpt lat="43.17915" lon="-0.59771">
        <ele>279.88</ele>
        <time>2021-08-20T06:45:13Z</time>
      </trkpt>
      <trkpt lat="43.17929" lon="-0.59785">
        <ele>281.32</ele>
        <time>2021-08-20T06:45:20Z</time>
      </trkpt>
      <trkpt lat="43.17938" lon="-0.59806">
        <ele>282.77</ele>
        <time>2021-08-20T06:45:27Z</time>
      </trkpt>
      <trkpt lat="43.1795" lon="-0.59839">
        <ele>284.69</ele>
        <time>2021-08-20T06:45:37Z</time>
      </trkpt>
      <trkpt lat="43.17963" lon="-0.59858">
        <ele>286.13</ele>
        <time>2021-08-20T06:45:45Z</time>
      </trkpt>
      <trkpt lat="43.17977" lon="-0.59866">
        <ele>287.09</ele>
        <time>2021-08-20T06:45:52Z</time>
      </trkpt>
      <trkpt lat="43.17979" lon="-0.59867">
        <ele>287.09</ele>
        <time>2021-08-20T06:45:53Z</time>
      </trkpt>
      <trkpt lat="43.17981" lon="-0.59868">
        <ele>288.05</ele>
        <time>2021-08-20T06:45:54Z</time>
      </trkpt>
      <trkpt lat="43.17983" lon="-0.59868">
        <ele>288.05</ele>
        <time>2021-08-20T06:45:55Z</time>
      </trkpt>
      <trkpt lat="43.17985" lon="-0.59868">
        <ele>288.05</ele>
        <time>2021-08-20T06:45:56Z</time>
      </trkpt>
      <trkpt lat="43.17987" lon="-0.59869">
        <ele>288.05</ele>
        <time>2021-08-20T06:45:57Z</time>
      </trkpt>
      <trkpt lat="43.17989" lon="-0.59869">
        <ele>288.05</ele>
        <time>2021-08-20T06:45:58Z</time>
      </trkpt>
      <trkpt lat="43.17991" lon="-0.59869">
        <ele>289.01</ele>
        <time>2021-08-20T06:45:59Z</time>
      </trkpt>
      <trkpt lat="43.17993" lon="-0.5987">
        <ele>289.01</ele>
        <time>2021-08-20T06:46:00Z</time>
      </trkpt>
      <trkpt lat="43.17995" lon="-0.5987">
        <ele>289.01</ele>
        <time>2021-08-20T06:46:01Z</time>
      </trkpt>
      <trkpt lat="43.17997" lon="-0.59871">
        <ele>289.01</ele>
        <time>2021-08-20T06:46:02Z</time>
      </trkpt>
      <trkpt lat="43.18015" lon="-0.59871">
        <ele>290.94</ele>
        <time>2021-08-20T06:46:10Z</time>
      </trkpt>
      <trkpt lat="43.18036" lon="-0.59868">
        <ele>291.9</ele>
        <time>2021-08-20T06:46:19Z</time>
      </trkpt>
      <trkpt lat="43.18062" lon="-0.59866">
        <ele>293.34</ele>
        <time>2021-08-20T06:46:30Z</time>
      </trkpt>
      <trkpt lat="43.18079" lon="-0.59864">
        <ele>294.3</ele>
        <time>2021-08-20T06:46:37Z</time>
      </trkpt>
      <trkpt lat="43.18103" lon="-0.59858">
        <ele>295.26</ele>
        <time>2021-08-20T06:46:45Z</time>
      </trkpt>
      <trkpt lat="43.18132" lon="-0.59851">
        <ele>295.26</ele>
        <time>2021-08-20T06:46:53Z</time>
      </trkpt>
      <trkpt lat="43.18137" lon="-0.5985">
        <ele>295.26</ele>
        <time>2021-08-20T06:46:54Z</time>
      </trkpt>
      <trkpt lat="43.18142" lon="-0.5985">
        <ele>293.82</ele>
        <time>2021-08-20T06:46:55Z</time>
      </trkpt>
      <trkpt lat="43.1817" lon="-0.59851">
        <ele>290.46</ele>
        <time>2021-08-20T06:46:59Z</time>
      </trkpt>
      <trkpt lat="43.18199" lon="-0.59854">
        <ele>286.61</ele>
        <time>2021-08-20T06:47:02Z</time>
      </trkpt>
      <trkpt lat="43.18239" lon="-0.59857">
        <ele>283.25</ele>
        <time>2021-08-20T06:47:06Z</time>
      </trkpt>
      <trkpt lat="43.18259" lon="-0.59858">
        <ele>282.28</ele>
        <time>2021-08-20T06:47:08Z</time>
      </trkpt>
      <trkpt lat="43.18306" lon="-0.5987">
        <ele>282.28</ele>
        <time>2021-08-20T06:47:13Z</time>
      </trkpt>
      <trkpt lat="43.18362" lon="-0.59888">
        <ele>282.28</ele>
        <time>2021-08-20T06:47:20Z</time>
      </trkpt>
      <trkpt lat="43.18413" lon="-0.59905">
        <ele>282.28</ele>
        <time>2021-08-20T06:47:28Z</time>
      </trkpt>
      <trkpt lat="43.1843" lon="-0.59912">
        <ele>282.28</ele>
        <time>2021-08-20T06:47:31Z</time>
      </trkpt>
      <trkpt lat="43.18435" lon="-0.59915">
        <ele>282.28</ele>
        <time>2021-08-20T06:47:32Z</time>
      </trkpt>
      <trkpt lat="43.1844" lon="-0.59919">
        <ele>282.28</ele>
        <time>2021-08-20T06:47:33Z</time>
      </trkpt>
      <trkpt lat="43.18444" lon="-0.59924">
        <ele>282.28</ele>
        <time>2021-08-20T06:47:34Z</time>
      </trkpt>
      <trkpt lat="43.18448" lon="-0.59929">
        <ele>282.28</ele>
        <time>2021-08-20T06:47:35Z</time>
      </trkpt>
      <trkpt lat="43.18452" lon="-0.59933">
        <ele>282.28</ele>
        <time>2021-08-20T06:47:36Z</time>
      </trkpt>
      <trkpt lat="43.1846" lon="-0.5994">
        <ele>283.73</ele>
        <time>2021-08-20T06:47:38Z</time>
      </trkpt>
      <trkpt lat="43.18481" lon="-0.59965">
        <ele>285.65</ele>
        <time>2021-08-20T06:47:45Z</time>
      </trkpt>
      <trkpt lat="43.18505" lon="-0.59987">
        <ele>287.09</ele>
        <time>2021-08-20T06:47:53Z</time>
      </trkpt>
      <trkpt lat="43.18534" lon="-0.60015">
        <ele>287.57</ele>
        <time>2021-08-20T06:48:03Z</time>
      </trkpt>
      <trkpt lat="43.18552" lon="-0.60036">
        <ele>288.53</ele>
        <time>2021-08-20T06:48:10Z</time>
      </trkpt>
      <trkpt lat="43.18571" lon="-0.60059">
        <ele>289.01</ele>
        <time>2021-08-20T06:48:18Z</time>
      </trkpt>
      <trkpt lat="43.18592" lon="-0.60084">
        <ele>289.01</ele>
        <time>2021-08-20T06:48:24Z</time>
      </trkpt>
      <trkpt lat="43.186" lon="-0.60095">
        <ele>287.57</ele>
        <time>2021-08-20T06:48:26Z</time>
      </trkpt>
      <trkpt lat="43.18632" lon="-0.60132">
        <ele>284.21</ele>
        <time>2021-08-20T06:48:33Z</time>
      </trkpt>
      <trkpt lat="43.18653" lon="-0.60159">
        <ele>281.32</ele>
        <time>2021-08-20T06:48:37Z</time>
      </trkpt>
      <trkpt lat="43.18658" lon="-0.60164">
        <ele>281.32</ele>
        <time>2021-08-20T06:48:38Z</time>
      </trkpt>
      <trkpt lat="43.18676" lon="-0.60183">
        <ele>278.44</ele>
        <time>2021-08-20T06:48:41Z</time>
      </trkpt>
      <trkpt lat="43.18688" lon="-0.60194">
        <ele>276.52</ele>
        <time>2021-08-20T06:48:43Z</time>
      </trkpt>
      <trkpt lat="43.18693" lon="-0.60201">
        <ele>276.52</ele>
        <time>2021-08-20T06:48:44Z</time>
      </trkpt>
      <trkpt lat="43.18699" lon="-0.60208">
        <ele>275.07</ele>
        <time>2021-08-20T06:48:45Z</time>
      </trkpt>
      <trkpt lat="43.18736" lon="-0.60246">
        <ele>271.23</ele>
        <time>2021-08-20T06:48:50Z</time>
      </trkpt>
      <trkpt lat="43.18794" lon="-0.6031">
        <ele>268.35</ele>
        <time>2021-08-20T06:48:58Z</time>
      </trkpt>
      <trkpt lat="43.18836" lon="-0.6036">
        <ele>267.38</ele>
        <time>2021-08-20T06:49:05Z</time>
      </trkpt>
      <trkpt lat="43.18861" lon="-0.60396">
        <ele>267.38</ele>
        <time>2021-08-20T06:49:10Z</time>
      </trkpt>
      <trkpt lat="43.18864" lon="-0.60403">
        <ele>267.38</ele>
        <time>2021-08-20T06:49:11Z</time>
      </trkpt>
      <trkpt lat="43.18866" lon="-0.60412">
        <ele>267.38</ele>
        <time>2021-08-20T06:49:12Z</time>
      </trkpt>
      <trkpt lat="43.18879" lon="-0.6046">
        <ele>268.35</ele>
        <time>2021-08-20T06:49:19Z</time>
      </trkpt>
      <trkpt lat="43.1888" lon="-0.60465">
        <ele>268.35</ele>
        <time>2021-08-20T06:49:20Z</time>
      </trkpt>
      <trkpt lat="43.18884" lon="-0.60478">
        <ele>270.27</ele>
        <time>2021-08-20T06:49:25Z</time>
      </trkpt>
      <trkpt lat="43.18884" lon="-0.6048">
        <ele>270.27</ele>
        <time>2021-08-20T06:49:26Z</time>
      </trkpt>
      <trkpt lat="43.18884" lon="-0.60482">
        <ele>270.27</ele>
        <time>2021-08-20T06:49:27Z</time>
      </trkpt>
      <trkpt lat="43.18883" lon="-0.60483">
        <ele>270.27</ele>
        <time>2021-08-20T06:49:28Z</time>
      </trkpt>
      <trkpt lat="43.18883" lon="-0.60485">
        <ele>270.27</ele>
        <time>2021-08-20T06:49:29Z</time>
      </trkpt>
      <trkpt lat="43.18884" lon="-0.60487">
        <ele>270.75</ele>
        <time>2021-08-20T06:49:30Z</time>
      </trkpt>
      <trkpt lat="43.18884" lon="-0.60488">
        <ele>270.75</ele>
        <time>2021-08-20T06:49:31Z</time>
      </trkpt>
      <trkpt lat="43.18885" lon="-0.60489">
        <ele>271.23</ele>
        <time>2021-08-20T06:49:32Z</time>
      </trkpt>
      <trkpt lat="43.18887" lon="-0.6049">
        <ele>271.23</ele>
        <time>2021-08-20T06:49:33Z</time>
      </trkpt>
      <trkpt lat="43.18888" lon="-0.60491">
        <ele>271.23</ele>
        <time>2021-08-20T06:49:34Z</time>
      </trkpt>
      <trkpt lat="43.18889" lon="-0.60491">
        <ele>271.23</ele>
        <time>2021-08-20T06:49:35Z</time>
      </trkpt>
      <trkpt lat="43.18891" lon="-0.60492">
        <ele>271.23</ele>
        <time>2021-08-20T06:49:36Z</time>
      </trkpt>
      <trkpt lat="43.18892" lon="-0.60493">
        <ele>272.19</ele>
        <time>2021-08-20T06:49:37Z</time>
      </trkpt>
      <trkpt lat="43.18898" lon="-0.60505">
        <ele>273.15</ele>
        <time>2021-08-20T06:49:45Z</time>
      </trkpt>
      <trkpt lat="43.18899" lon="-0.60506">
        <ele>273.15</ele>
        <time>2021-08-20T06:49:46Z</time>
      </trkpt>
      <trkpt lat="43.189" lon="-0.60508">
        <ele>273.63</ele>
        <time>2021-08-20T06:49:47Z</time>
      </trkpt>
      <trkpt lat="43.18901" lon="-0.60509">
        <ele>274.11</ele>
        <time>2021-08-20T06:49:48Z</time>
      </trkpt>
      <trkpt lat="43.18902" lon="-0.6051">
        <ele>274.11</ele>
        <time>2021-08-20T06:49:49Z</time>
      </trkpt>
      <trkpt lat="43.18903" lon="-0.60512">
        <ele>274.11</ele>
        <time>2021-08-20T06:49:50Z</time>
      </trkpt>
      <trkpt lat="43.18904" lon="-0.60513">
        <ele>274.59</ele>
        <time>2021-08-20T06:49:51Z</time>
      </trkpt>
      <trkpt lat="43.18912" lon="-0.60523">
        <ele>276.04</ele>
        <time>2021-08-20T06:49:59Z</time>
      </trkpt>
      <trkpt lat="43.18922" lon="-0.6053">
        <ele>277.48</ele>
        <time>2021-08-20T06:50:07Z</time>
      </trkpt>
      <trkpt lat="43.18931" lon="-0.60537">
        <ele>277.96</ele>
        <time>2021-08-20T06:50:14Z</time>
      </trkpt>
      <trkpt lat="43.18932" lon="-0.60539">
        <ele>277.96</ele>
        <time>2021-08-20T06:50:15Z</time>
      </trkpt>
      <trkpt lat="43.18932" lon="-0.60542">
        <ele>278.44</ele>
        <time>2021-08-20T06:50:16Z</time>
      </trkpt>
      <trkpt lat="43.18931" lon="-0.60545">
        <ele>278.44</ele>
        <time>2021-08-20T06:50:17Z</time>
      </trkpt>
      <trkpt lat="43.18931" lon="-0.60547">
        <ele>278.44</ele>
        <time>2021-08-20T06:50:18Z</time>
      </trkpt>
      <trkpt lat="43.18929" lon="-0.60578">
        <ele>279.4</ele>
        <time>2021-08-20T06:50:27Z</time>
      </trkpt>
      <trkpt lat="43.18932" lon="-0.60602">
        <ele>279.4</ele>
        <time>2021-08-20T06:50:33Z</time>
      </trkpt>
      <trkpt lat="43.1894" lon="-0.6062">
        <ele>277.48</ele>
        <time>2021-08-20T06:50:39Z</time>
      </trkpt>
      <trkpt lat="43.18956" lon="-0.60636">
        <ele>274.59</ele>
        <time>2021-08-20T06:50:45Z</time>
      </trkpt>
      <trkpt lat="43.18977" lon="-0.60654">
        <ele>271.23</ele>
        <time>2021-08-20T06:50:52Z</time>
      </trkpt>
      <trkpt lat="43.18984" lon="-0.60662">
        <ele>270.27</ele>
        <time>2021-08-20T06:50:57Z</time>
      </trkpt>
      <trkpt lat="43.18983" lon="-0.60665">
        <ele>269.79</ele>
        <time>2021-08-20T06:50:58Z</time>
      </trkpt>
      <trkpt lat="43.18981" lon="-0.60667">
        <ele>269.79</ele>
        <time>2021-08-20T06:50:59Z</time>
      </trkpt>
      <trkpt lat="43.18978" lon="-0.60669">
        <ele>269.79</ele>
        <time>2021-08-20T06:51:00Z</time>
      </trkpt>
      <trkpt lat="43.18975" lon="-0.60669">
        <ele>269.79</ele>
        <time>2021-08-20T06:51:01Z</time>
      </trkpt>
      <trkpt lat="43.18974" lon="-0.60669">
        <ele>269.79</ele>
        <time>2021-08-20T06:51:02Z</time>
      </trkpt>
      <trkpt lat="43.18974" lon="-0.60668">
        <ele>269.79</ele>
        <time>2021-08-20T06:51:03Z</time>
      </trkpt>
      <trkpt lat="43.18975" lon="-0.60664">
        <ele>269.79</ele>
        <time>2021-08-20T06:51:04Z</time>
      </trkpt>
      <trkpt lat="43.18975" lon="-0.60661">
        <ele>269.79</ele>
        <time>2021-08-20T06:51:05Z</time>
      </trkpt>
      <trkpt lat="43.18975" lon="-0.6066">
        <ele>269.79</ele>
        <time>2021-08-20T06:51:06Z</time>
      </trkpt>
      <trkpt lat="43.18975" lon="-0.60659">
        <ele>270.75</ele>
        <time>2021-08-20T06:51:07Z</time>
      </trkpt>
      <trkpt lat="43.18974" lon="-0.60658">
        <ele>270.75</ele>
        <time>2021-08-20T06:51:08Z</time>
      </trkpt>
      <trkpt lat="43.18974" lon="-0.6066">
        <ele>271.23</ele>
        <time>2021-08-20T06:51:11Z</time>
      </trkpt>
      <trkpt lat="43.18974" lon="-0.60661">
        <ele>271.23</ele>
        <time>2021-08-20T06:51:12Z</time>
      </trkpt>
      <trkpt lat="43.18976" lon="-0.60664">
        <ele>271.23</ele>
        <time>2021-08-20T06:51:14Z</time>
      </trkpt>
      <trkpt lat="43.18976" lon="-0.60667">
        <ele>271.23</ele>
        <time>2021-08-20T06:51:15Z</time>
      </trkpt>
      <trkpt lat="43.18976" lon="-0.6067">
        <ele>271.23</ele>
        <time>2021-08-20T06:51:16Z</time>
      </trkpt>
      <trkpt lat="43.18975" lon="-0.60674">
        <ele>269.79</ele>
        <time>2021-08-20T06:51:17Z</time>
      </trkpt>
      <trkpt lat="43.18974" lon="-0.60678">
        <ele>269.31</ele>
        <time>2021-08-20T06:51:18Z</time>
      </trkpt>
      <trkpt lat="43.18973" lon="-0.60681">
        <ele>269.79</ele>
        <time>2021-08-20T06:51:19Z</time>
      </trkpt>
      <trkpt lat="43.18972" lon="-0.60684">
        <ele>269.31</ele>
        <time>2021-08-20T06:51:20Z</time>
      </trkpt>
      <trkpt lat="43.18971" lon="-0.60687">
        <ele>268.83</ele>
        <time>2021-08-20T06:51:21Z</time>
      </trkpt>
      <trkpt lat="43.1897" lon="-0.6069">
        <ele>268.83</ele>
        <time>2021-08-20T06:51:22Z</time>
      </trkpt>
      <trkpt lat="43.18969" lon="-0.60693">
        <ele>268.83</ele>
        <time>2021-08-20T06:51:23Z</time>
      </trkpt>
      <trkpt lat="43.18969" lon="-0.60698">
        <ele>268.35</ele>
        <time>2021-08-20T06:51:25Z</time>
      </trkpt>
      <trkpt lat="43.18968" lon="-0.60701">
        <ele>267.38</ele>
        <time>2021-08-20T06:51:26Z</time>
      </trkpt>
      <trkpt lat="43.18964" lon="-0.60712">
        <ele>266.9</ele>
        <time>2021-08-20T06:51:30Z</time>
      </trkpt>
      <trkpt lat="43.18965" lon="-0.60714">
        <ele>266.42</ele>
        <time>2021-08-20T06:51:31Z</time>
      </trkpt>
      <trkpt lat="43.18966" lon="-0.60715">
        <ele>266.42</ele>
        <time>2021-08-20T06:51:32Z</time>
      </trkpt>
      <trkpt lat="43.18968" lon="-0.60716">
        <ele>265.94</ele>
        <time>2021-08-20T06:51:33Z</time>
      </trkpt>
      <trkpt lat="43.1897" lon="-0.60717">
        <ele>265.94</ele>
        <time>2021-08-20T06:51:34Z</time>
      </trkpt>
      <trkpt lat="43.18972" lon="-0.60718">
        <ele>265.46</ele>
        <time>2021-08-20T06:51:35Z</time>
      </trkpt>
      <trkpt lat="43.18975" lon="-0.6072">
        <ele>264.5</ele>
        <time>2021-08-20T06:51:36Z</time>
      </trkpt>
      <trkpt lat="43.18978" lon="-0.60721">
        <ele>263.54</ele>
        <time>2021-08-20T06:51:37Z</time>
      </trkpt>
      <trkpt lat="43.18981" lon="-0.60723">
        <ele>263.06</ele>
        <time>2021-08-20T06:51:38Z</time>
      </trkpt>
      <trkpt lat="43.19" lon="-0.60734">
        <ele>260.17</ele>
        <time>2021-08-20T06:51:42Z</time>
      </trkpt>
      <trkpt lat="43.19017" lon="-0.6074">
        <ele>257.77</ele>
        <time>2021-08-20T06:51:46Z</time>
      </trkpt>
      <trkpt lat="43.19021" lon="-0.60741">
        <ele>257.29</ele>
        <time>2021-08-20T06:51:47Z</time>
      </trkpt>
      <trkpt lat="43.19024" lon="-0.6074">
        <ele>256.81</ele>
        <time>2021-08-20T06:51:48Z</time>
      </trkpt>
      <trkpt lat="43.19027" lon="-0.60738">
        <ele>256.81</ele>
        <time>2021-08-20T06:51:49Z</time>
      </trkpt>
      <trkpt lat="43.1903" lon="-0.60735">
        <ele>256.81</ele>
        <time>2021-08-20T06:51:50Z</time>
      </trkpt>
      <trkpt lat="43.19033" lon="-0.60731">
        <ele>256.81</ele>
        <time>2021-08-20T06:51:51Z</time>
      </trkpt>
      <trkpt lat="43.1905" lon="-0.60706">
        <ele>256.81</ele>
        <time>2021-08-20T06:51:58Z</time>
      </trkpt>
      <trkpt lat="43.19065" lon="-0.60685">
        <ele>256.33</ele>
        <time>2021-08-20T06:52:05Z</time>
      </trkpt>
      <trkpt lat="43.1907" lon="-0.60684">
        <ele>255.37</ele>
        <time>2021-08-20T06:52:07Z</time>
      </trkpt>
      <trkpt lat="43.19074" lon="-0.60685">
        <ele>254.89</ele>
        <time>2021-08-20T06:52:08Z</time>
      </trkpt>
      <trkpt lat="43.19091" lon="-0.60695">
        <ele>252</ele>
        <time>2021-08-20T06:52:14Z</time>
      </trkpt>
      <trkpt lat="43.19092" lon="-0.60696">
        <ele>251.52</ele>
        <time>2021-08-20T06:52:15Z</time>
      </trkpt>
      <trkpt lat="43.19093" lon="-0.60697">
        <ele>251.52</ele>
        <time>2021-08-20T06:52:16Z</time>
      </trkpt>
      <trkpt lat="43.19095" lon="-0.60699">
        <ele>251.52</ele>
        <time>2021-08-20T06:52:17Z</time>
      </trkpt>
      <trkpt lat="43.19096" lon="-0.607">
        <ele>250.56</ele>
        <time>2021-08-20T06:52:18Z</time>
      </trkpt>
      <trkpt lat="43.19098" lon="-0.607">
        <ele>250.56</ele>
        <time>2021-08-20T06:52:19Z</time>
      </trkpt>
      <trkpt lat="43.19099" lon="-0.607">
        <ele>250.56</ele>
        <time>2021-08-20T06:52:20Z</time>
      </trkpt>
      <trkpt lat="43.19113" lon="-0.60701">
        <ele>247.2</ele>
        <time>2021-08-20T06:52:24Z</time>
      </trkpt>
      <trkpt lat="43.19131" lon="-0.60699">
        <ele>242.39</ele>
        <time>2021-08-20T06:52:27Z</time>
      </trkpt>
      <trkpt lat="43.19139" lon="-0.60699">
        <ele>241.43</ele>
        <time>2021-08-20T06:52:28Z</time>
      </trkpt>
      <trkpt lat="43.1916" lon="-0.60698">
        <ele>237.1</ele>
        <time>2021-08-20T06:52:30Z</time>
      </trkpt>
      <trkpt lat="43.19177" lon="-0.60697">
        <ele>234.22</ele>
        <time>2021-08-20T06:52:32Z</time>
      </trkpt>
      <trkpt lat="43.19201" lon="-0.60695">
        <ele>230.37</ele>
        <time>2021-08-20T06:52:35Z</time>
      </trkpt>
      <trkpt lat="43.19214" lon="-0.60697">
        <ele>229.41</ele>
        <time>2021-08-20T06:52:38Z</time>
      </trkpt>
      <trkpt lat="43.19224" lon="-0.60701">
        <ele>227.49</ele>
        <time>2021-08-20T06:52:42Z</time>
      </trkpt>
      <trkpt lat="43.19228" lon="-0.60703">
        <ele>226.05</ele>
        <time>2021-08-20T06:52:46Z</time>
      </trkpt>
      <trkpt lat="43.1923" lon="-0.60702">
        <ele>226.53</ele>
        <time>2021-08-20T06:52:47Z</time>
      </trkpt>
      <trkpt lat="43.19233" lon="-0.60701">
        <ele>225.57</ele>
        <time>2021-08-20T06:52:48Z</time>
      </trkpt>
      <trkpt lat="43.19235" lon="-0.60699">
        <ele>226.05</ele>
        <time>2021-08-20T06:52:49Z</time>
      </trkpt>
      <trkpt lat="43.19237" lon="-0.60696">
        <ele>226.05</ele>
        <time>2021-08-20T06:52:50Z</time>
      </trkpt>
      <trkpt lat="43.19238" lon="-0.60693">
        <ele>225.57</ele>
        <time>2021-08-20T06:52:51Z</time>
      </trkpt>
      <trkpt lat="43.19248" lon="-0.6066">
        <ele>223.16</ele>
        <time>2021-08-20T06:52:58Z</time>
      </trkpt>
      <trkpt lat="43.1925" lon="-0.60649">
        <ele>222.68</ele>
        <time>2021-08-20T06:53:00Z</time>
      </trkpt>
      <trkpt lat="43.19251" lon="-0.60643">
        <ele>222.68</ele>
        <time>2021-08-20T06:53:01Z</time>
      </trkpt>
      <trkpt lat="43.19253" lon="-0.60637">
        <ele>222.68</ele>
        <time>2021-08-20T06:53:02Z</time>
      </trkpt>
      <trkpt lat="43.19255" lon="-0.60632">
        <ele>222.2</ele>
        <time>2021-08-20T06:53:03Z</time>
      </trkpt>
      <trkpt lat="43.19258" lon="-0.60628">
        <ele>222.2</ele>
        <time>2021-08-20T06:53:04Z</time>
      </trkpt>
      <trkpt lat="43.19261" lon="-0.60624">
        <ele>222.2</ele>
        <time>2021-08-20T06:53:05Z</time>
      </trkpt>
      <trkpt lat="43.19264" lon="-0.6062">
        <ele>222.2</ele>
        <time>2021-08-20T06:53:06Z</time>
      </trkpt>
      <trkpt lat="43.19276" lon="-0.6059">
        <ele>222.68</ele>
        <time>2021-08-20T06:53:13Z</time>
      </trkpt>
      <trkpt lat="43.19279" lon="-0.60586">
        <ele>222.68</ele>
        <time>2021-08-20T06:53:14Z</time>
      </trkpt>
      <trkpt lat="43.19288" lon="-0.60578">
        <ele>222.68</ele>
        <time>2021-08-20T06:53:16Z</time>
      </trkpt>
      <trkpt lat="43.19306" lon="-0.60554">
        <ele>225.09</ele>
        <time>2021-08-20T06:53:23Z</time>
      </trkpt>
      <trkpt lat="43.19304" lon="-0.60531">
        <ele>226.53</ele>
        <time>2021-08-20T06:53:30Z</time>
      </trkpt>
      <trkpt lat="43.1931" lon="-0.60512">
        <ele>227.01</ele>
        <time>2021-08-20T06:53:37Z</time>
      </trkpt>
      <trkpt lat="43.19317" lon="-0.60493">
        <ele>228.45</ele>
        <time>2021-08-20T06:53:45Z</time>
      </trkpt>
      <trkpt lat="43.19323" lon="-0.60472">
        <ele>229.89</ele>
        <time>2021-08-20T06:53:53Z</time>
      </trkpt>
      <trkpt lat="43.19325" lon="-0.60454">
        <ele>231.81</ele>
        <time>2021-08-20T06:54:00Z</time>
      </trkpt>
      <trkpt lat="43.19318" lon="-0.60441">
        <ele>232.3</ele>
        <time>2021-08-20T06:54:07Z</time>
      </trkpt>
      <trkpt lat="43.19316" lon="-0.60442">
        <ele>232.78</ele>
        <time>2021-08-20T06:54:08Z</time>
      </trkpt>
      <trkpt lat="43.19315" lon="-0.60443">
        <ele>232.78</ele>
        <time>2021-08-20T06:54:09Z</time>
      </trkpt>
      <trkpt lat="43.19314" lon="-0.60445">
        <ele>232.78</ele>
        <time>2021-08-20T06:54:10Z</time>
      </trkpt>
      <trkpt lat="43.19312" lon="-0.60445">
        <ele>232.78</ele>
        <time>2021-08-20T06:54:11Z</time>
      </trkpt>
      <trkpt lat="43.19311" lon="-0.60446">
        <ele>232.78</ele>
        <time>2021-08-20T06:54:12Z</time>
      </trkpt>
      <trkpt lat="43.19311" lon="-0.60446">
        <ele>232.78</ele>
        <time>2021-08-20T06:54:17Z</time>
      </trkpt>
      <trkpt lat="43.19312" lon="-0.60446">
        <ele>232.78</ele>
        <time>2021-08-20T06:54:26Z</time>
      </trkpt>
      <trkpt lat="43.19313" lon="-0.60445">
        <ele>232.78</ele>
        <time>2021-08-20T06:54:27Z</time>
      </trkpt>
      <trkpt lat="43.19314" lon="-0.60443">
        <ele>232.78</ele>
        <time>2021-08-20T06:54:28Z</time>
      </trkpt>
      <trkpt lat="43.19315" lon="-0.60442">
        <ele>232.78</ele>
        <time>2021-08-20T06:54:29Z</time>
      </trkpt>
      <trkpt lat="43.19316" lon="-0.60441">
        <ele>232.78</ele>
        <time>2021-08-20T06:54:30Z</time>
      </trkpt>
      <trkpt lat="43.19317" lon="-0.60439">
        <ele>232.78</ele>
        <time>2021-08-20T06:54:31Z</time>
      </trkpt>
      <trkpt lat="43.19317" lon="-0.60437">
        <ele>232.78</ele>
        <time>2021-08-20T06:54:32Z</time>
      </trkpt>
      <trkpt lat="43.19319" lon="-0.60435">
        <ele>232.78</ele>
        <time>2021-08-20T06:54:33Z</time>
      </trkpt>
      <trkpt lat="43.1932" lon="-0.60434">
        <ele>232.78</ele>
        <time>2021-08-20T06:54:34Z</time>
      </trkpt>
      <trkpt lat="43.19322" lon="-0.60434">
        <ele>232.78</ele>
        <time>2021-08-20T06:54:35Z</time>
      </trkpt>
      <trkpt lat="43.19324" lon="-0.60435">
        <ele>233.26</ele>
        <time>2021-08-20T06:54:36Z</time>
      </trkpt>
      <trkpt lat="43.19326" lon="-0.60436">
        <ele>233.26</ele>
        <time>2021-08-20T06:54:37Z</time>
      </trkpt>
      <trkpt lat="43.19328" lon="-0.60438">
        <ele>233.26</ele>
        <time>2021-08-20T06:54:38Z</time>
      </trkpt>
      <trkpt lat="43.19339" lon="-0.6045">
        <ele>233.26</ele>
        <time>2021-08-20T06:54:46Z</time>
      </trkpt>
      <trkpt lat="43.1934" lon="-0.60451">
        <ele>233.26</ele>
        <time>2021-08-20T06:54:55Z</time>
      </trkpt>
      <trkpt lat="43.19341" lon="-0.60453">
        <ele>233.26</ele>
        <time>2021-08-20T06:55:12Z</time>
      </trkpt>
      <trkpt lat="43.19342" lon="-0.60456">
        <ele>233.26</ele>
        <time>2021-08-20T06:55:24Z</time>
      </trkpt>
      <trkpt lat="43.19341" lon="-0.60457">
        <ele>233.26</ele>
        <time>2021-08-20T06:55:32Z</time>
      </trkpt>
      <trkpt lat="43.19341" lon="-0.60458">
        <ele>233.26</ele>
        <time>2021-08-20T06:55:40Z</time>
      </trkpt>
      <trkpt lat="43.19342" lon="-0.6046">
        <ele>233.26</ele>
        <time>2021-08-20T06:55:41Z</time>
      </trkpt>
      <trkpt lat="43.19343" lon="-0.60461">
        <ele>231.81</ele>
        <time>2021-08-20T06:55:43Z</time>
      </trkpt>
      <trkpt lat="43.19344" lon="-0.60462">
        <ele>231.81</ele>
        <time>2021-08-20T06:55:44Z</time>
      </trkpt>
      <trkpt lat="43.19346" lon="-0.60463">
        <ele>231.81</ele>
        <time>2021-08-20T06:55:45Z</time>
      </trkpt>
      <trkpt lat="43.19347" lon="-0.60465">
        <ele>231.81</ele>
        <time>2021-08-20T06:55:46Z</time>
      </trkpt>
      <trkpt lat="43.19348" lon="-0.60465">
        <ele>231.81</ele>
        <time>2021-08-20T06:55:47Z</time>
      </trkpt>
      <trkpt lat="43.19359" lon="-0.60474">
        <ele>231.81</ele>
        <time>2021-08-20T06:55:52Z</time>
      </trkpt>
      <trkpt lat="43.19372" lon="-0.60484">
        <ele>231.81</ele>
        <time>2021-08-20T06:55:58Z</time>
      </trkpt>
      <trkpt lat="43.19375" lon="-0.60486">
        <ele>231.81</ele>
        <time>2021-08-20T06:56:04Z</time>
      </trkpt>
      <trkpt lat="43.19377" lon="-0.60485">
        <ele>231.81</ele>
        <time>2021-08-20T06:56:17Z</time>
      </trkpt>
      <trkpt lat="43.19381" lon="-0.60486">
        <ele>231.81</ele>
        <time>2021-08-20T06:56:24Z</time>
      </trkpt>
      <trkpt lat="43.19389" lon="-0.60488">
        <ele>231.81</ele>
        <time>2021-08-20T06:56:32Z</time>
      </trkpt>
      <trkpt lat="43.19389" lon="-0.60488">
        <ele>231.81</ele>
        <time>2021-08-20T06:56:37Z</time>
      </trkpt>
      <trkpt lat="43.19384" lon="-0.6049">
        <ele>231.81</ele>
        <time>2021-08-20T06:56:44Z</time>
      </trkpt>
      <trkpt lat="43.19382" lon="-0.6049">
        <ele>231.81</ele>
        <time>2021-08-20T06:56:50Z</time>
      </trkpt>
      <trkpt lat="43.19382" lon="-0.60488">
        <ele>231.81</ele>
        <time>2021-08-20T06:57:06Z</time>
      </trkpt>
      <trkpt lat="43.19383" lon="-0.60487">
        <ele>231.81</ele>
        <time>2021-08-20T06:57:21Z</time>
      </trkpt>
      <trkpt lat="43.19384" lon="-0.60488">
        <ele>231.81</ele>
        <time>2021-08-20T06:57:36Z</time>
      </trkpt>
      <trkpt lat="43.19383" lon="-0.60488">
        <ele>231.81</ele>
        <time>2021-08-20T06:57:52Z</time>
      </trkpt>
      <trkpt lat="43.19382" lon="-0.60488">
        <ele>231.81</ele>
        <time>2021-08-20T06:58:05Z</time>
      </trkpt>
      <trkpt lat="43.19382" lon="-0.60489">
        <ele>231.81</ele>
        <time>2021-08-20T06:58:21Z</time>
      </trkpt>
      <trkpt lat="43.19384" lon="-0.60487">
        <ele>232.3</ele>
        <time>2021-08-20T06:58:36Z</time>
      </trkpt>
      <trkpt lat="43.19384" lon="-0.60487">
        <ele>232.3</ele>
        <time>2021-08-20T06:58:46Z</time>
      </trkpt>
      <trkpt lat="43.19385" lon="-0.60489">
        <ele>232.3</ele>
        <time>2021-08-20T06:58:59Z</time>
      </trkpt>
      <trkpt lat="43.19384" lon="-0.60487">
        <ele>232.3</ele>
        <time>2021-08-20T06:59:17Z</time>
      </trkpt>
      <trkpt lat="43.19386" lon="-0.60487">
        <ele>232.3</ele>
        <time>2021-08-20T06:59:28Z</time>
      </trkpt>
      <trkpt lat="43.19385" lon="-0.60486">
        <ele>232.3</ele>
        <time>2021-08-20T06:59:48Z</time>
      </trkpt>
      <trkpt lat="43.19384" lon="-0.60486">
        <ele>232.3</ele>
        <time>2021-08-20T06:59:59Z</time>
      </trkpt>
      <trkpt lat="43.19386" lon="-0.60488">
        <ele>232.3</ele>
        <time>2021-08-20T07:00:10Z</time>
      </trkpt>
      <trkpt lat="43.19388" lon="-0.60489">
        <ele>232.3</ele>
        <time>2021-08-20T07:00:21Z</time>
      </trkpt>
      <trkpt lat="43.19387" lon="-0.60488">
        <ele>232.3</ele>
        <time>2021-08-20T07:00:36Z</time>
      </trkpt>
      <trkpt lat="43.19385" lon="-0.60481">
        <ele>232.3</ele>
        <time>2021-08-20T07:00:55Z</time>
      </trkpt>
      <trkpt lat="43.19387" lon="-0.60483">
        <ele>232.3</ele>
        <time>2021-08-20T07:01:09Z</time>
      </trkpt>
      <trkpt lat="43.19387" lon="-0.60484">
        <ele>232.78</ele>
        <time>2021-08-20T07:01:24Z</time>
      </trkpt>
      <trkpt lat="43.19388" lon="-0.60478">
        <ele>232.78</ele>
        <time>2021-08-20T07:01:41Z</time>
      </trkpt>
      <trkpt lat="43.19389" lon="-0.6048">
        <ele>232.78</ele>
        <time>2021-08-20T07:01:54Z</time>
      </trkpt>
      <trkpt lat="43.19387" lon="-0.60482">
        <ele>232.78</ele>
        <time>2021-08-20T07:02:10Z</time>
      </trkpt>
      <trkpt lat="43.19387" lon="-0.60483">
        <ele>232.78</ele>
        <time>2021-08-20T07:02:27Z</time>
      </trkpt>
      <trkpt lat="43.19385" lon="-0.60483">
        <ele>233.26</ele>
        <time>2021-08-20T07:02:38Z</time>
      </trkpt>
      <trkpt lat="43.19383" lon="-0.60484">
        <ele>233.26</ele>
        <time>2021-08-20T07:02:54Z</time>
      </trkpt>
      <trkpt lat="43.19384" lon="-0.60485">
        <ele>233.26</ele>
        <time>2021-08-20T07:03:07Z</time>
      </trkpt>
      <trkpt lat="43.19382" lon="-0.60483">
        <ele>233.26</ele>
        <time>2021-08-20T07:03:26Z</time>
      </trkpt>
      <trkpt lat="43.19379" lon="-0.60485">
        <ele>233.26</ele>
        <time>2021-08-20T07:03:38Z</time>
      </trkpt>
      <trkpt lat="43.1938" lon="-0.60486">
        <ele>233.26</ele>
        <time>2021-08-20T07:03:46Z</time>
      </trkpt>
      <trkpt lat="43.19382" lon="-0.60485">
        <ele>233.26</ele>
        <time>2021-08-20T07:03:56Z</time>
      </trkpt>
      <trkpt lat="43.19382" lon="-0.60485">
        <ele>233.26</ele>
        <time>2021-08-20T07:04:10Z</time>
      </trkpt>
      <trkpt lat="43.19383" lon="-0.60484">
        <ele>233.74</ele>
        <time>2021-08-20T07:04:21Z</time>
      </trkpt>
      <trkpt lat="43.19382" lon="-0.60483">
        <ele>233.74</ele>
        <time>2021-08-20T07:04:34Z</time>
      </trkpt>
      <trkpt lat="43.1938" lon="-0.60485">
        <ele>233.74</ele>
        <time>2021-08-20T07:04:50Z</time>
      </trkpt>
      <trkpt lat="43.19381" lon="-0.60486">
        <ele>233.74</ele>
        <time>2021-08-20T07:05:06Z</time>
      </trkpt>
      <trkpt lat="43.19381" lon="-0.60487">
        <ele>233.74</ele>
        <time>2021-08-20T07:05:19Z</time>
      </trkpt>
      <trkpt lat="43.19386" lon="-0.60487">
        <ele>233.74</ele>
        <time>2021-08-20T07:05:43Z</time>
      </trkpt>
      <trkpt lat="43.19386" lon="-0.60486">
        <ele>233.74</ele>
        <time>2021-08-20T07:05:57Z</time>
      </trkpt>
      <trkpt lat="43.19386" lon="-0.60486">
        <ele>233.74</ele>
        <time>2021-08-20T07:06:11Z</time>
      </trkpt>
      <trkpt lat="43.19386" lon="-0.60485">
        <ele>233.74</ele>
        <time>2021-08-20T07:06:24Z</time>
      </trkpt>
      <trkpt lat="43.19385" lon="-0.60484">
        <ele>234.22</ele>
        <time>2021-08-20T07:06:39Z</time>
      </trkpt>
      <trkpt lat="43.19383" lon="-0.60485">
        <ele>234.22</ele>
        <time>2021-08-20T07:06:52Z</time>
      </trkpt>
      <trkpt lat="43.19381" lon="-0.60486">
        <ele>234.22</ele>
        <time>2021-08-20T07:07:08Z</time>
      </trkpt>
      <trkpt lat="43.19382" lon="-0.60487">
        <ele>234.22</ele>
        <time>2021-08-20T07:07:25Z</time>
      </trkpt>
      <trkpt lat="43.19384" lon="-0.60487">
        <ele>234.22</ele>
        <time>2021-08-20T07:07:39Z</time>
      </trkpt>
      <trkpt lat="43.19384" lon="-0.60486">
        <ele>234.22</ele>
        <time>2021-08-20T07:07:51Z</time>
      </trkpt>
      <trkpt lat="43.19383" lon="-0.60485">
        <ele>234.22</ele>
        <time>2021-08-20T07:08:06Z</time>
      </trkpt>
      <trkpt lat="43.19384" lon="-0.60487">
        <ele>235.18</ele>
        <time>2021-08-20T07:08:25Z</time>
      </trkpt>
      <trkpt lat="43.19383" lon="-0.60487">
        <ele>235.18</ele>
        <time>2021-08-20T07:08:36Z</time>
      </trkpt>
      <trkpt lat="43.19382" lon="-0.60486">
        <ele>235.18</ele>
        <time>2021-08-20T07:08:42Z</time>
      </trkpt>
      <trkpt lat="43.19381" lon="-0.60487">
        <ele>235.18</ele>
        <time>2021-08-20T07:08:59Z</time>
      </trkpt>
      <trkpt lat="43.19381" lon="-0.60488">
        <ele>235.18</ele>
        <time>2021-08-20T07:09:15Z</time>
      </trkpt>
      <trkpt lat="43.19381" lon="-0.60489">
        <ele>235.18</ele>
        <time>2021-08-20T07:09:27Z</time>
      </trkpt>
      <trkpt lat="43.19381" lon="-0.60491">
        <ele>235.18</ele>
        <time>2021-08-20T07:09:39Z</time>
      </trkpt>
      <trkpt lat="43.1938" lon="-0.60492">
        <ele>235.18</ele>
        <time>2021-08-20T07:09:52Z</time>
      </trkpt>
      <trkpt lat="43.19381" lon="-0.60493">
        <ele>235.18</ele>
        <time>2021-08-20T07:10:08Z</time>
      </trkpt>
      <trkpt lat="43.19381" lon="-0.60489">
        <ele>235.18</ele>
        <time>2021-08-20T07:10:22Z</time>
      </trkpt>
      <trkpt lat="43.1938" lon="-0.60489">
        <ele>235.18</ele>
        <time>2021-08-20T07:10:39Z</time>
      </trkpt>
      <trkpt lat="43.19385" lon="-0.60489">
        <ele>235.18</ele>
        <time>2021-08-20T07:10:54Z</time>
      </trkpt>
      <trkpt lat="43.19384" lon="-0.60487">
        <ele>235.18</ele>
        <time>2021-08-20T07:11:10Z</time>
      </trkpt>
      <trkpt lat="43.19383" lon="-0.60487">
        <ele>234.7</ele>
        <time>2021-08-20T07:11:24Z</time>
      </trkpt>
      <trkpt lat="43.19382" lon="-0.60488">
        <ele>234.7</ele>
        <time>2021-08-20T07:11:39Z</time>
      </trkpt>
      <trkpt lat="43.19382" lon="-0.60488">
        <ele>234.7</ele>
        <time>2021-08-20T07:11:55Z</time>
      </trkpt>
      <trkpt lat="43.1938" lon="-0.6049">
        <ele>234.7</ele>
        <time>2021-08-20T07:12:14Z</time>
      </trkpt>
      <trkpt lat="43.1938" lon="-0.60489">
        <ele>234.7</ele>
        <time>2021-08-20T07:12:30Z</time>
      </trkpt>
      <trkpt lat="43.19379" lon="-0.60488">
        <ele>235.18</ele>
        <time>2021-08-20T07:12:44Z</time>
      </trkpt>
      <trkpt lat="43.19382" lon="-0.60487">
        <ele>235.18</ele>
        <time>2021-08-20T07:12:58Z</time>
      </trkpt>
      <trkpt lat="43.19381" lon="-0.60486">
        <ele>235.18</ele>
        <time>2021-08-20T07:13:13Z</time>
      </trkpt>
      <trkpt lat="43.1938" lon="-0.60484">
        <ele>235.18</ele>
        <time>2021-08-20T07:13:26Z</time>
      </trkpt>
      <trkpt lat="43.19379" lon="-0.60482">
        <ele>235.66</ele>
        <time>2021-08-20T07:13:46Z</time>
      </trkpt>
      <trkpt lat="43.19379" lon="-0.60484">
        <ele>235.66</ele>
        <time>2021-08-20T07:13:59Z</time>
      </trkpt>
      <trkpt lat="43.19378" lon="-0.60482">
        <ele>235.66</ele>
        <time>2021-08-20T07:14:25Z</time>
      </trkpt>
      <trkpt lat="43.19376" lon="-0.60485">
        <ele>235.66</ele>
        <time>2021-08-20T07:14:41Z</time>
      </trkpt>
      <trkpt lat="43.19374" lon="-0.60485">
        <ele>235.66</ele>
        <time>2021-08-20T07:15:03Z</time>
      </trkpt>
      <trkpt lat="43.19377" lon="-0.60487">
        <ele>235.66</ele>
        <time>2021-08-20T07:15:21Z</time>
      </trkpt>
      <trkpt lat="43.19378" lon="-0.60486">
        <ele>235.66</ele>
        <time>2021-08-20T07:15:42Z</time>
      </trkpt>
      <trkpt lat="43.19379" lon="-0.60488">
        <ele>236.14</ele>
        <time>2021-08-20T07:16:01Z</time>
      </trkpt>
      <trkpt lat="43.19382" lon="-0.60486">
        <ele>236.14</ele>
        <time>2021-08-20T07:16:25Z</time>
      </trkpt>
      <trkpt lat="43.19383" lon="-0.60489">
        <ele>236.14</ele>
        <time>2021-08-20T07:16:51Z</time>
      </trkpt>
      <trkpt lat="43.19383" lon="-0.60491">
        <ele>236.14</ele>
        <time>2021-08-20T07:17:11Z</time>
      </trkpt>
      <trkpt lat="43.19381" lon="-0.6049">
        <ele>236.14</ele>
        <time>2021-08-20T07:17:23Z</time>
      </trkpt>
      <trkpt lat="43.19381" lon="-0.60485">
        <ele>236.62</ele>
        <time>2021-08-20T07:17:47Z</time>
      </trkpt>
      <trkpt lat="43.19383" lon="-0.60486">
        <ele>236.62</ele>
        <time>2021-08-20T07:18:13Z</time>
      </trkpt>
      <trkpt lat="43.19381" lon="-0.60484">
        <ele>236.62</ele>
        <time>2021-08-20T07:18:42Z</time>
      </trkpt>
      <trkpt lat="43.19381" lon="-0.60487">
        <ele>237.1</ele>
        <time>2021-08-20T07:19:09Z</time>
      </trkpt>
      <trkpt lat="43.19381" lon="-0.60488">
        <ele>237.1</ele>
        <time>2021-08-20T07:19:31Z</time>
      </trkpt>
      <trkpt lat="43.1938" lon="-0.60488">
        <ele>237.1</ele>
        <time>2021-08-20T07:19:49Z</time>
      </trkpt>
      <trkpt lat="43.1938" lon="-0.60487">
        <ele>237.1</ele>
        <time>2021-08-20T07:20:12Z</time>
      </trkpt>
      <trkpt lat="43.19381" lon="-0.60489">
        <ele>237.1</ele>
        <time>2021-08-20T07:20:30Z</time>
      </trkpt>
      <trkpt lat="43.1938" lon="-0.60493">
        <ele>237.1</ele>
        <time>2021-08-20T07:20:47Z</time>
      </trkpt>
      <trkpt lat="43.1938" lon="-0.60493">
        <ele>237.1</ele>
        <time>2021-08-20T07:21:05Z</time>
      </trkpt>
      <trkpt lat="43.1938" lon="-0.60485">
        <ele>237.1</ele>
        <time>2021-08-20T07:21:31Z</time>
      </trkpt>
      <trkpt lat="43.19382" lon="-0.60488">
        <ele>237.1</ele>
        <time>2021-08-20T07:21:53Z</time>
      </trkpt>
      <trkpt lat="43.19381" lon="-0.60486">
        <ele>237.1</ele>
        <time>2021-08-20T07:22:17Z</time>
      </trkpt>
      <trkpt lat="43.19382" lon="-0.60489">
        <ele>237.1</ele>
        <time>2021-08-20T07:22:35Z</time>
      </trkpt>
      <trkpt lat="43.19383" lon="-0.6049">
        <ele>237.1</ele>
        <time>2021-08-20T07:22:47Z</time>
      </trkpt>
      <trkpt lat="43.19382" lon="-0.60492">
        <ele>237.1</ele>
        <time>2021-08-20T07:23:09Z</time>
      </trkpt>
      <trkpt lat="43.19382" lon="-0.60491">
        <ele>237.1</ele>
        <time>2021-08-20T07:23:28Z</time>
      </trkpt>
      <trkpt lat="43.19381" lon="-0.60492">
        <ele>237.1</ele>
        <time>2021-08-20T07:23:45Z</time>
      </trkpt>
      <trkpt lat="43.1938" lon="-0.60493">
        <ele>237.1</ele>
        <time>2021-08-20T07:24:08Z</time>
      </trkpt>
      <trkpt lat="43.19378" lon="-0.60493">
        <ele>237.1</ele>
        <time>2021-08-20T07:24:31Z</time>
      </trkpt>
      <trkpt lat="43.19377" lon="-0.60493">
        <ele>237.1</ele>
        <time>2021-08-20T07:24:52Z</time>
      </trkpt>
      <trkpt lat="43.19382" lon="-0.60493">
        <ele>237.1</ele>
        <time>2021-08-20T07:25:07Z</time>
      </trkpt>
      <trkpt lat="43.19382" lon="-0.60494">
        <ele>236.62</ele>
        <time>2021-08-20T07:25:26Z</time>
      </trkpt>
      <trkpt lat="43.19381" lon="-0.60493">
        <ele>235.66</ele>
        <time>2021-08-20T07:25:50Z</time>
      </trkpt>
      <trkpt lat="43.1938" lon="-0.60494">
        <ele>235.66</ele>
        <time>2021-08-20T07:26:10Z</time>
      </trkpt>
      <trkpt lat="43.19378" lon="-0.60492">
        <ele>235.18</ele>
        <time>2021-08-20T07:26:26Z</time>
      </trkpt>
      <trkpt lat="43.19379" lon="-0.60492">
        <ele>235.18</ele>
        <time>2021-08-20T07:26:47Z</time>
      </trkpt>
      <trkpt lat="43.1938" lon="-0.60493">
        <ele>235.18</ele>
        <time>2021-08-20T07:27:07Z</time>
      </trkpt>
      <trkpt lat="43.19383" lon="-0.60493">
        <ele>235.18</ele>
        <time>2021-08-20T07:27:26Z</time>
      </trkpt>
      <trkpt lat="43.19382" lon="-0.60493">
        <ele>235.18</ele>
        <time>2021-08-20T07:27:42Z</time>
      </trkpt>
      <trkpt lat="43.19381" lon="-0.60487">
        <ele>235.18</ele>
        <time>2021-08-20T07:28:03Z</time>
      </trkpt>
      <trkpt lat="43.19384" lon="-0.60486">
        <ele>235.18</ele>
        <time>2021-08-20T07:28:18Z</time>
      </trkpt>
      <trkpt lat="43.19385" lon="-0.60486">
        <ele>235.18</ele>
        <time>2021-08-20T07:28:35Z</time>
      </trkpt>
      <trkpt lat="43.19383" lon="-0.60487">
        <ele>235.18</ele>
        <time>2021-08-20T07:28:49Z</time>
      </trkpt>
      <trkpt lat="43.19382" lon="-0.60489">
        <ele>235.18</ele>
        <time>2021-08-20T07:29:01Z</time>
      </trkpt>
      <trkpt lat="43.19384" lon="-0.6049">
        <ele>235.18</ele>
        <time>2021-08-20T07:29:21Z</time>
      </trkpt>
      <trkpt lat="43.19383" lon="-0.60487">
        <ele>235.18</ele>
        <time>2021-08-20T07:29:40Z</time>
      </trkpt>
      <trkpt lat="43.19379" lon="-0.60487">
        <ele>235.18</ele>
        <time>2021-08-20T07:29:58Z</time>
      </trkpt>
      <trkpt lat="43.1938" lon="-0.60487">
        <ele>235.18</ele>
        <time>2021-08-20T07:30:18Z</time>
      </trkpt>
      <trkpt lat="43.19381" lon="-0.60485">
        <ele>235.18</ele>
        <time>2021-08-20T07:30:34Z</time>
      </trkpt>
      <trkpt lat="43.19382" lon="-0.60485">
        <ele>235.18</ele>
        <time>2021-08-20T07:30:52Z</time>
      </trkpt>
      <trkpt lat="43.19381" lon="-0.60484">
        <ele>235.18</ele>
        <time>2021-08-20T07:31:14Z</time>
      </trkpt>
      <trkpt lat="43.19382" lon="-0.60486">
        <ele>235.66</ele>
        <time>2021-08-20T07:31:34Z</time>
      </trkpt>
      <trkpt lat="43.19382" lon="-0.60485">
        <ele>235.66</ele>
        <time>2021-08-20T07:31:57Z</time>
      </trkpt>
      <trkpt lat="43.19384" lon="-0.60486">
        <ele>235.66</ele>
        <time>2021-08-20T07:32:20Z</time>
      </trkpt>
      <trkpt lat="43.19383" lon="-0.60488">
        <ele>235.66</ele>
        <time>2021-08-20T07:32:39Z</time>
      </trkpt>
      <trkpt lat="43.19384" lon="-0.60488">
        <ele>235.66</ele>
        <time>2021-08-20T07:33:00Z</time>
      </trkpt>
      <trkpt lat="43.19385" lon="-0.60487">
        <ele>235.66</ele>
        <time>2021-08-20T07:33:16Z</time>
      </trkpt>
      <trkpt lat="43.19384" lon="-0.60487">
        <ele>235.66</ele>
        <time>2021-08-20T07:33:41Z</time>
      </trkpt>
      <trkpt lat="43.19384" lon="-0.60486">
        <ele>235.66</ele>
        <time>2021-08-20T07:34:00Z</time>
      </trkpt>
      <trkpt lat="43.19384" lon="-0.60485">
        <ele>236.14</ele>
        <time>2021-08-20T07:34:19Z</time>
      </trkpt>
      <trkpt lat="43.19383" lon="-0.60484">
        <ele>236.14</ele>
        <time>2021-08-20T07:34:35Z</time>
      </trkpt>
      <trkpt lat="43.19385" lon="-0.60484">
        <ele>236.14</ele>
        <time>2021-08-20T07:34:55Z</time>
      </trkpt>
      <trkpt lat="43.19388" lon="-0.60484">
        <ele>236.14</ele>
        <time>2021-08-20T07:35:09Z</time>
      </trkpt>
      <trkpt lat="43.19386" lon="-0.60485">
        <ele>236.14</ele>
        <time>2021-08-20T07:35:29Z</time>
      </trkpt>
      <trkpt lat="43.19385" lon="-0.60485">
        <ele>236.14</ele>
        <time>2021-08-20T07:35:43Z</time>
      </trkpt>
      <trkpt lat="43.19386" lon="-0.60487">
        <ele>236.14</ele>
        <time>2021-08-20T07:36:02Z</time>
      </trkpt>
      <trkpt lat="43.19389" lon="-0.60486">
        <ele>236.14</ele>
        <time>2021-08-20T07:36:21Z</time>
      </trkpt>
      <trkpt lat="43.19386" lon="-0.60485">
        <ele>236.14</ele>
        <time>2021-08-20T07:36:40Z</time>
      </trkpt>
      <trkpt lat="43.19385" lon="-0.60488">
        <ele>236.14</ele>
        <time>2021-08-20T07:36:56Z</time>
      </trkpt>
      <trkpt lat="43.19385" lon="-0.60488">
        <ele>236.14</ele>
        <time>2021-08-20T07:37:12Z</time>
      </trkpt>
      <trkpt lat="43.19385" lon="-0.60487">
        <ele>236.14</ele>
        <time>2021-08-20T07:37:29Z</time>
      </trkpt>
      <trkpt lat="43.19384" lon="-0.60487">
        <ele>236.14</ele>
        <time>2021-08-20T07:37:42Z</time>
      </trkpt>
      <trkpt lat="43.19382" lon="-0.60487">
        <ele>236.14</ele>
        <time>2021-08-20T07:37:49Z</time>
      </trkpt>
      <trkpt lat="43.19381" lon="-0.6049">
        <ele>236.14</ele>
        <time>2021-08-20T07:38:05Z</time>
      </trkpt>
      <trkpt lat="43.19379" lon="-0.6049">
        <ele>236.14</ele>
        <time>2021-08-20T07:38:27Z</time>
      </trkpt>
      <trkpt lat="43.19378" lon="-0.60491">
        <ele>236.14</ele>
        <time>2021-08-20T07:38:41Z</time>
      </trkpt>
      <trkpt lat="43.19376" lon="-0.6049">
        <ele>236.14</ele>
        <time>2021-08-20T07:38:59Z</time>
      </trkpt>
      <trkpt lat="43.19379" lon="-0.60491">
        <ele>237.1</ele>
        <time>2021-08-20T07:39:11Z</time>
      </trkpt>
      <trkpt lat="43.19379" lon="-0.60491">
        <ele>237.1</ele>
        <time>2021-08-20T07:39:27Z</time>
      </trkpt>
      <trkpt lat="43.1938" lon="-0.60491">
        <ele>237.1</ele>
        <time>2021-08-20T07:39:48Z</time>
      </trkpt>
      <trkpt lat="43.1938" lon="-0.60492">
        <ele>236.62</ele>
        <time>2021-08-20T07:40:02Z</time>
      </trkpt>
      <trkpt lat="43.1938" lon="-0.60492">
        <ele>236.62</ele>
        <time>2021-08-20T07:40:16Z</time>
      </trkpt>
      <trkpt lat="43.1938" lon="-0.60492">
        <ele>236.62</ele>
        <time>2021-08-20T07:40:29Z</time>
      </trkpt>
      <trkpt lat="43.19379" lon="-0.60494">
        <ele>236.62</ele>
        <time>2021-08-20T07:40:47Z</time>
      </trkpt>
      <trkpt lat="43.19379" lon="-0.60494">
        <ele>236.14</ele>
        <time>2021-08-20T07:41:04Z</time>
      </trkpt>
      <trkpt lat="43.19382" lon="-0.60495">
        <ele>236.14</ele>
        <time>2021-08-20T07:41:26Z</time>
      </trkpt>
      <trkpt lat="43.19379" lon="-0.60494">
        <ele>235.66</ele>
        <time>2021-08-20T07:41:51Z</time>
      </trkpt>
      <trkpt lat="43.19381" lon="-0.60497">
        <ele>235.18</ele>
        <time>2021-08-20T07:42:11Z</time>
      </trkpt>
      <trkpt lat="43.1938" lon="-0.60497">
        <ele>235.18</ele>
        <time>2021-08-20T07:42:30Z</time>
      </trkpt>
      <trkpt lat="43.19381" lon="-0.60497">
        <ele>234.7</ele>
        <time>2021-08-20T07:42:49Z</time>
      </trkpt>
      <trkpt lat="43.19378" lon="-0.60499">
        <ele>234.7</ele>
        <time>2021-08-20T07:43:10Z</time>
      </trkpt>
      <trkpt lat="43.1938" lon="-0.60495">
        <ele>234.7</ele>
        <time>2021-08-20T07:43:26Z</time>
      </trkpt>
      <trkpt lat="43.1938" lon="-0.60494">
        <ele>234.22</ele>
        <time>2021-08-20T07:43:45Z</time>
      </trkpt>
      <trkpt lat="43.19379" lon="-0.60492">
        <ele>234.22</ele>
        <time>2021-08-20T07:44:02Z</time>
      </trkpt>
      <trkpt lat="43.19378" lon="-0.6049">
        <ele>234.22</ele>
        <time>2021-08-20T07:44:23Z</time>
      </trkpt>
      <trkpt lat="43.19378" lon="-0.6049">
        <ele>233.74</ele>
        <time>2021-08-20T07:44:37Z</time>
      </trkpt>
      <trkpt lat="43.1938" lon="-0.6049">
        <ele>233.74</ele>
        <time>2021-08-20T07:44:50Z</time>
      </trkpt>
      <trkpt lat="43.19379" lon="-0.6049">
        <ele>233.74</ele>
        <time>2021-08-20T07:44:59Z</time>
      </trkpt>
      <trkpt lat="43.19379" lon="-0.6049">
        <ele>233.74</ele>
        <time>2021-08-20T07:45:00Z</time>
      </trkpt>
      <trkpt lat="43.19377" lon="-0.60489">
        <ele>233.74</ele>
        <time>2021-08-20T07:45:01Z</time>
      </trkpt>
      <trkpt lat="43.19376" lon="-0.60489">
        <ele>233.74</ele>
        <time>2021-08-20T07:45:02Z</time>
      </trkpt>
      <trkpt lat="43.19366" lon="-0.60482">
        <ele>233.74</ele>
        <time>2021-08-20T07:45:08Z</time>
      </trkpt>
      <trkpt lat="43.19346" lon="-0.6047">
        <ele>233.74</ele>
        <time>2021-08-20T07:45:16Z</time>
      </trkpt>
      <trkpt lat="43.19344" lon="-0.60468">
        <ele>233.74</ele>
        <time>2021-08-20T07:45:18Z</time>
      </trkpt>
      <trkpt lat="43.19342" lon="-0.60468">
        <ele>233.74</ele>
        <time>2021-08-20T07:45:19Z</time>
      </trkpt>
      <trkpt lat="43.19341" lon="-0.60467">
        <ele>233.74</ele>
        <time>2021-08-20T07:45:20Z</time>
      </trkpt>
      <trkpt lat="43.19339" lon="-0.60465">
        <ele>233.74</ele>
        <time>2021-08-20T07:45:21Z</time>
      </trkpt>
      <trkpt lat="43.19338" lon="-0.60464">
        <ele>228.45</ele>
        <time>2021-08-20T07:45:22Z</time>
      </trkpt>
      <trkpt lat="43.19337" lon="-0.60464">
        <ele>235.66</ele>
        <time>2021-08-20T07:45:23Z</time>
      </trkpt>
      <trkpt lat="43.19335" lon="-0.60462">
        <ele>232.78</ele>
        <time>2021-08-20T07:45:26Z</time>
      </trkpt>
      <trkpt lat="43.19334" lon="-0.60462">
        <ele>232.78</ele>
        <time>2021-08-20T07:45:27Z</time>
      </trkpt>
      <trkpt lat="43.19333" lon="-0.60462">
        <ele>232.78</ele>
        <time>2021-08-20T07:45:28Z</time>
      </trkpt>
      <trkpt lat="43.19331" lon="-0.6046">
        <ele>232.78</ele>
        <time>2021-08-20T07:45:29Z</time>
      </trkpt>
      <trkpt lat="43.19329" lon="-0.60459">
        <ele>232.78</ele>
        <time>2021-08-20T07:45:30Z</time>
      </trkpt>
      <trkpt lat="43.19327" lon="-0.60456">
        <ele>232.78</ele>
        <time>2021-08-20T07:45:31Z</time>
      </trkpt>
      <trkpt lat="43.19325" lon="-0.60453">
        <ele>232.78</ele>
        <time>2021-08-20T07:45:32Z</time>
      </trkpt>
      <trkpt lat="43.19325" lon="-0.6045">
        <ele>232.78</ele>
        <time>2021-08-20T07:45:33Z</time>
      </trkpt>
      <trkpt lat="43.19323" lon="-0.60435">
        <ele>233.74</ele>
        <time>2021-08-20T07:45:40Z</time>
      </trkpt>
      <trkpt lat="43.19334" lon="-0.60421">
        <ele>235.66</ele>
        <time>2021-08-20T07:45:48Z</time>
      </trkpt>
      <trkpt lat="43.19343" lon="-0.60406">
        <ele>237.1</ele>
        <time>2021-08-20T07:45:56Z</time>
      </trkpt>
      <trkpt lat="43.19359" lon="-0.60399">
        <ele>237.58</ele>
        <time>2021-08-20T07:46:04Z</time>
      </trkpt>
      <trkpt lat="43.19379" lon="-0.60408">
        <ele>237.58</ele>
        <time>2021-08-20T07:46:12Z</time>
      </trkpt>
      <trkpt lat="43.19399" lon="-0.60416">
        <ele>238.54</ele>
        <time>2021-08-20T07:46:19Z</time>
      </trkpt>
      <trkpt lat="43.19424" lon="-0.60426">
        <ele>239.51</ele>
        <time>2021-08-20T07:46:28Z</time>
      </trkpt>
      <trkpt lat="43.19446" lon="-0.60439">
        <ele>240.47</ele>
        <time>2021-08-20T07:46:36Z</time>
      </trkpt>
      <trkpt lat="43.19472" lon="-0.60452">
        <ele>241.91</ele>
        <time>2021-08-20T07:46:45Z</time>
      </trkpt>
      <trkpt lat="43.19495" lon="-0.60452">
        <ele>242.39</ele>
        <time>2021-08-20T07:46:52Z</time>
      </trkpt>
      <trkpt lat="43.19523" lon="-0.60436">
        <ele>243.35</ele>
        <time>2021-08-20T07:47:00Z</time>
      </trkpt>
      <trkpt lat="43.19554" lon="-0.60417">
        <ele>243.35</ele>
        <time>2021-08-20T07:47:08Z</time>
      </trkpt>
      <trkpt lat="43.19559" lon="-0.60415">
        <ele>243.35</ele>
        <time>2021-08-20T07:47:09Z</time>
      </trkpt>
      <trkpt lat="43.19563" lon="-0.60413">
        <ele>243.35</ele>
        <time>2021-08-20T07:47:10Z</time>
      </trkpt>
      <trkpt lat="43.19568" lon="-0.60412">
        <ele>243.35</ele>
        <time>2021-08-20T07:47:11Z</time>
      </trkpt>
      <trkpt lat="43.19573" lon="-0.60411">
        <ele>243.35</ele>
        <time>2021-08-20T07:47:12Z</time>
      </trkpt>
      <trkpt lat="43.19578" lon="-0.60412">
        <ele>243.35</ele>
        <time>2021-08-20T07:47:13Z</time>
      </trkpt>
      <trkpt lat="43.19584" lon="-0.60412">
        <ele>241.91</ele>
        <time>2021-08-20T07:47:14Z</time>
      </trkpt>
      <trkpt lat="43.1964" lon="-0.60422">
        <ele>240.95</ele>
        <time>2021-08-20T07:47:24Z</time>
      </trkpt>
      <trkpt lat="43.19683" lon="-0.60422">
        <ele>240.95</ele>
        <time>2021-08-20T07:47:32Z</time>
      </trkpt>
      <trkpt lat="43.19722" lon="-0.60423">
        <ele>240.47</ele>
        <time>2021-08-20T07:47:39Z</time>
      </trkpt>
      <trkpt lat="43.19743" lon="-0.60422">
        <ele>239.99</ele>
        <time>2021-08-20T07:47:43Z</time>
      </trkpt>
      <trkpt lat="43.19747" lon="-0.6042">
        <ele>239.99</ele>
        <time>2021-08-20T07:47:44Z</time>
      </trkpt>
      <trkpt lat="43.19757" lon="-0.60415">
        <ele>239.99</ele>
        <time>2021-08-20T07:47:46Z</time>
      </trkpt>
      <trkpt lat="43.19762" lon="-0.60416">
        <ele>239.99</ele>
        <time>2021-08-20T07:47:47Z</time>
      </trkpt>
      <trkpt lat="43.19767" lon="-0.60418">
        <ele>239.99</ele>
        <time>2021-08-20T07:47:48Z</time>
      </trkpt>
      <trkpt lat="43.19771" lon="-0.60423">
        <ele>239.99</ele>
        <time>2021-08-20T07:47:49Z</time>
      </trkpt>
      <trkpt lat="43.19774" lon="-0.60429">
        <ele>239.99</ele>
        <time>2021-08-20T07:47:50Z</time>
      </trkpt>
      <trkpt lat="43.19778" lon="-0.60435">
        <ele>239.99</ele>
        <time>2021-08-20T07:47:51Z</time>
      </trkpt>
      <trkpt lat="43.19781" lon="-0.6044">
        <ele>239.99</ele>
        <time>2021-08-20T07:47:52Z</time>
      </trkpt>
      <trkpt lat="43.19784" lon="-0.60444">
        <ele>239.99</ele>
        <time>2021-08-20T07:47:53Z</time>
      </trkpt>
      <trkpt lat="43.19787" lon="-0.60446">
        <ele>239.99</ele>
        <time>2021-08-20T07:47:54Z</time>
      </trkpt>
      <trkpt lat="43.19789" lon="-0.60445">
        <ele>239.99</ele>
        <time>2021-08-20T07:47:55Z</time>
      </trkpt>
      <trkpt lat="43.19791" lon="-0.60443">
        <ele>239.99</ele>
        <time>2021-08-20T07:47:56Z</time>
      </trkpt>
      <trkpt lat="43.19794" lon="-0.60443">
        <ele>239.99</ele>
        <time>2021-08-20T07:47:57Z</time>
      </trkpt>
      <trkpt lat="43.19796" lon="-0.60443">
        <ele>239.99</ele>
        <time>2021-08-20T07:47:58Z</time>
      </trkpt>
      <trkpt lat="43.198" lon="-0.60444">
        <ele>239.99</ele>
        <time>2021-08-20T07:47:59Z</time>
      </trkpt>
      <trkpt lat="43.19804" lon="-0.60445">
        <ele>239.51</ele>
        <time>2021-08-20T07:48:00Z</time>
      </trkpt>
      <trkpt lat="43.19809" lon="-0.60445">
        <ele>239.51</ele>
        <time>2021-08-20T07:48:01Z</time>
      </trkpt>
      <trkpt lat="43.19813" lon="-0.60445">
        <ele>239.51</ele>
        <time>2021-08-20T07:48:02Z</time>
      </trkpt>
      <trkpt lat="43.19836" lon="-0.60444">
        <ele>239.51</ele>
        <time>2021-08-20T07:48:06Z</time>
      </trkpt>
      <trkpt lat="43.19853" lon="-0.60442">
        <ele>239.51</ele>
        <time>2021-08-20T07:48:09Z</time>
      </trkpt>
      <trkpt lat="43.19898" lon="-0.60441">
        <ele>239.51</ele>
        <time>2021-08-20T07:48:17Z</time>
      </trkpt>
      <trkpt lat="43.19948" lon="-0.6044">
        <ele>239.51</ele>
        <time>2021-08-20T07:48:26Z</time>
      </trkpt>
      <trkpt lat="43.19966" lon="-0.60438">
        <ele>239.51</ele>
        <time>2021-08-20T07:48:31Z</time>
      </trkpt>
      <trkpt lat="43.19969" lon="-0.60439">
        <ele>239.51</ele>
        <time>2021-08-20T07:48:37Z</time>
      </trkpt>
      <trkpt lat="43.19971" lon="-0.60439">
        <ele>239.51</ele>
        <time>2021-08-20T07:48:38Z</time>
      </trkpt>
      <trkpt lat="43.19974" lon="-0.6044">
        <ele>239.51</ele>
        <time>2021-08-20T07:48:39Z</time>
      </trkpt>
      <trkpt lat="43.19977" lon="-0.6044">
        <ele>239.51</ele>
        <time>2021-08-20T07:48:40Z</time>
      </trkpt>
      <trkpt lat="43.19982" lon="-0.6044">
        <ele>239.51</ele>
        <time>2021-08-20T07:48:41Z</time>
      </trkpt>
      <trkpt lat="43.20021" lon="-0.60439">
        <ele>239.51</ele>
        <time>2021-08-20T07:48:49Z</time>
      </trkpt>
      <trkpt lat="43.20081" lon="-0.60432">
        <ele>238.54</ele>
        <time>2021-08-20T07:49:01Z</time>
      </trkpt>
      <trkpt lat="43.20092" lon="-0.60429">
        <ele>238.54</ele>
        <time>2021-08-20T07:49:05Z</time>
      </trkpt>
      <trkpt lat="43.20091" lon="-0.60429">
        <ele>238.54</ele>
        <time>2021-08-20T07:49:13Z</time>
      </trkpt>
      <trkpt lat="43.20089" lon="-0.6043">
        <ele>238.54</ele>
        <time>2021-08-20T07:49:23Z</time>
      </trkpt>
      <trkpt lat="43.20085" lon="-0.60433">
        <ele>238.06</ele>
        <time>2021-08-20T07:49:39Z</time>
      </trkpt>
      <trkpt lat="43.20086" lon="-0.60432">
        <ele>238.06</ele>
        <time>2021-08-20T07:49:52Z</time>
      </trkpt>
      <trkpt lat="43.20087" lon="-0.60431">
        <ele>238.06</ele>
        <time>2021-08-20T07:50:06Z</time>
      </trkpt>
      <trkpt lat="43.20089" lon="-0.60429">
        <ele>238.06</ele>
        <time>2021-08-20T07:50:20Z</time>
      </trkpt>
      <trkpt lat="43.20091" lon="-0.60428">
        <ele>238.06</ele>
        <time>2021-08-20T07:50:35Z</time>
      </trkpt>
      <trkpt lat="43.20093" lon="-0.60426">
        <ele>238.06</ele>
        <time>2021-08-20T07:50:41Z</time>
      </trkpt>
      <trkpt lat="43.20094" lon="-0.60428">
        <ele>238.06</ele>
        <time>2021-08-20T07:50:44Z</time>
      </trkpt>
      <trkpt lat="43.20094" lon="-0.60429">
        <ele>237.58</ele>
        <time>2021-08-20T07:50:50Z</time>
      </trkpt>
      <trkpt lat="43.20091" lon="-0.60429">
        <ele>237.58</ele>
        <time>2021-08-20T07:51:16Z</time>
      </trkpt>
      <trkpt lat="43.2009" lon="-0.6043">
        <ele>237.58</ele>
        <time>2021-08-20T07:51:29Z</time>
      </trkpt>
      <trkpt lat="43.20091" lon="-0.60434">
        <ele>237.58</ele>
        <time>2021-08-20T07:51:45Z</time>
      </trkpt>
      <trkpt lat="43.20091" lon="-0.60433">
        <ele>237.58</ele>
        <time>2021-08-20T07:52:05Z</time>
      </trkpt>
      <trkpt lat="43.20088" lon="-0.60433">
        <ele>237.58</ele>
        <time>2021-08-20T07:52:24Z</time>
      </trkpt>
      <trkpt lat="43.20086" lon="-0.60432">
        <ele>237.58</ele>
        <time>2021-08-20T07:52:41Z</time>
      </trkpt>
      <trkpt lat="43.20087" lon="-0.6043">
        <ele>237.58</ele>
        <time>2021-08-20T07:52:54Z</time>
      </trkpt>
      <trkpt lat="43.20089" lon="-0.60428">
        <ele>238.06</ele>
        <time>2021-08-20T07:53:10Z</time>
      </trkpt>
      <trkpt lat="43.20089" lon="-0.60426">
        <ele>238.06</ele>
        <time>2021-08-20T07:53:34Z</time>
      </trkpt>
      <trkpt lat="43.20088" lon="-0.60424">
        <ele>238.06</ele>
        <time>2021-08-20T07:53:53Z</time>
      </trkpt>
      <trkpt lat="43.20089" lon="-0.60424">
        <ele>238.06</ele>
        <time>2021-08-20T07:54:15Z</time>
      </trkpt>
      <trkpt lat="43.20089" lon="-0.60423">
        <ele>238.06</ele>
        <time>2021-08-20T07:54:45Z</time>
      </trkpt>
      <trkpt lat="43.20089" lon="-0.60429">
        <ele>239.51</ele>
        <time>2021-08-20T07:55:06Z</time>
      </trkpt>
      <trkpt lat="43.20091" lon="-0.60433">
        <ele>239.51</ele>
        <time>2021-08-20T07:55:16Z</time>
      </trkpt>
      <trkpt lat="43.20093" lon="-0.60434">
        <ele>239.51</ele>
        <time>2021-08-20T07:55:18Z</time>
      </trkpt>
      <trkpt lat="43.20094" lon="-0.60435">
        <ele>239.51</ele>
        <time>2021-08-20T07:55:19Z</time>
      </trkpt>
      <trkpt lat="43.20096" lon="-0.60435">
        <ele>239.51</ele>
        <time>2021-08-20T07:55:20Z</time>
      </trkpt>
      <trkpt lat="43.20098" lon="-0.60435">
        <ele>239.51</ele>
        <time>2021-08-20T07:55:21Z</time>
      </trkpt>
      <trkpt lat="43.201" lon="-0.60435">
        <ele>239.51</ele>
        <time>2021-08-20T07:55:22Z</time>
      </trkpt>
      <trkpt lat="43.20103" lon="-0.60435">
        <ele>239.51</ele>
        <time>2021-08-20T07:55:23Z</time>
      </trkpt>
      <trkpt lat="43.20106" lon="-0.60435">
        <ele>239.51</ele>
        <time>2021-08-20T07:55:24Z</time>
      </trkpt>
      <trkpt lat="43.20131" lon="-0.60434">
        <ele>239.51</ele>
        <time>2021-08-20T07:55:30Z</time>
      </trkpt>
      <trkpt lat="43.20161" lon="-0.60432">
        <ele>238.06</ele>
        <time>2021-08-20T07:55:36Z</time>
      </trkpt>
      <trkpt lat="43.20202" lon="-0.60427">
        <ele>236.14</ele>
        <time>2021-08-20T07:55:43Z</time>
      </trkpt>
      <trkpt lat="43.20246" lon="-0.60417">
        <ele>233.74</ele>
        <time>2021-08-20T07:55:49Z</time>
      </trkpt>
      <trkpt lat="43.20276" lon="-0.60414">
        <ele>231.33</ele>
        <time>2021-08-20T07:55:53Z</time>
      </trkpt>
      <trkpt lat="43.20286" lon="-0.60415">
        <ele>230.37</ele>
        <time>2021-08-20T07:55:54Z</time>
      </trkpt>
      <trkpt lat="43.20293" lon="-0.60416">
        <ele>229.89</ele>
        <time>2021-08-20T07:55:55Z</time>
      </trkpt>
      <trkpt lat="43.20317" lon="-0.60421">
        <ele>229.41</ele>
        <time>2021-08-20T07:55:59Z</time>
      </trkpt>
      <trkpt lat="43.20317" lon="-0.6042">
        <ele>229.41</ele>
        <time>2021-08-20T07:56:03Z</time>
      </trkpt>
      <trkpt lat="43.20318" lon="-0.60419">
        <ele>228.93</ele>
        <time>2021-08-20T07:56:15Z</time>
      </trkpt>
      <trkpt lat="43.20319" lon="-0.6042">
        <ele>228.93</ele>
        <time>2021-08-20T07:56:16Z</time>
      </trkpt>
      <trkpt lat="43.20332" lon="-0.60435">
        <ele>228.45</ele>
        <time>2021-08-20T07:56:21Z</time>
      </trkpt>
      <trkpt lat="43.20336" lon="-0.6044">
        <ele>227.49</ele>
        <time>2021-08-20T07:56:22Z</time>
      </trkpt>
      <trkpt lat="43.2036" lon="-0.6048">
        <ele>226.53</ele>
        <time>2021-08-20T07:56:28Z</time>
      </trkpt>
      <trkpt lat="43.20381" lon="-0.60536">
        <ele>225.57</ele>
        <time>2021-08-20T07:56:35Z</time>
      </trkpt>
      <trkpt lat="43.2039" lon="-0.60563">
        <ele>226.53</ele>
        <time>2021-08-20T07:56:39Z</time>
      </trkpt>
      <trkpt lat="43.20405" lon="-0.60594">
        <ele>228.45</ele>
        <time>2021-08-20T07:56:46Z</time>
      </trkpt>
      <trkpt lat="43.2041" lon="-0.60615">
        <ele>229.41</ele>
        <time>2021-08-20T07:56:51Z</time>
      </trkpt>
      <trkpt lat="43.20407" lon="-0.60619">
        <ele>229.41</ele>
        <time>2021-08-20T07:56:52Z</time>
      </trkpt>
      <trkpt lat="43.20395" lon="-0.60637">
        <ele>226.05</ele>
        <time>2021-08-20T07:56:55Z</time>
      </trkpt>
      <trkpt lat="43.20379" lon="-0.60658">
        <ele>226.05</ele>
        <time>2021-08-20T07:57:00Z</time>
      </trkpt>
      <trkpt lat="43.20363" lon="-0.60695">
        <ele>226.05</ele>
        <time>2021-08-20T07:57:07Z</time>
      </trkpt>
      <trkpt lat="43.20354" lon="-0.60719">
        <ele>228.45</ele>
        <time>2021-08-20T07:57:13Z</time>
      </trkpt>
      <trkpt lat="43.20349" lon="-0.60735">
        <ele>228.93</ele>
        <time>2021-08-20T07:57:18Z</time>
      </trkpt>
      <trkpt lat="43.20347" lon="-0.60741">
        <ele>229.41</ele>
        <time>2021-08-20T07:57:23Z</time>
      </trkpt>
      <trkpt lat="43.20344" lon="-0.60747">
        <ele>229.41</ele>
        <time>2021-08-20T07:57:30Z</time>
      </trkpt>
      <trkpt lat="43.20331" lon="-0.60771">
        <ele>229.41</ele>
        <time>2021-08-20T07:57:36Z</time>
      </trkpt>
      <trkpt lat="43.20305" lon="-0.60818">
        <ele>228.45</ele>
        <time>2021-08-20T07:57:45Z</time>
      </trkpt>
      <trkpt lat="43.20297" lon="-0.60835">
        <ele>227.97</ele>
        <time>2021-08-20T07:57:48Z</time>
      </trkpt>
      <trkpt lat="43.20294" lon="-0.6084">
        <ele>227.97</ele>
        <time>2021-08-20T07:57:49Z</time>
      </trkpt>
      <trkpt lat="43.20267" lon="-0.60885">
        <ele>226.53</ele>
        <time>2021-08-20T07:57:57Z</time>
      </trkpt>
      <trkpt lat="43.20229" lon="-0.60949">
        <ele>225.57</ele>
        <time>2021-08-20T07:58:07Z</time>
      </trkpt>
      <trkpt lat="43.20201" lon="-0.60997">
        <ele>224.12</ele>
        <time>2021-08-20T07:58:15Z</time>
      </trkpt>
      <trkpt lat="43.20194" lon="-0.61013">
        <ele>223.64</ele>
        <time>2021-08-20T07:58:18Z</time>
      </trkpt>
      <trkpt lat="43.20195" lon="-0.61019">
        <ele>223.16</ele>
        <time>2021-08-20T07:58:19Z</time>
      </trkpt>
      <trkpt lat="43.20196" lon="-0.61022">
        <ele>223.16</ele>
        <time>2021-08-20T07:58:20Z</time>
      </trkpt>
      <trkpt lat="43.20198" lon="-0.61027">
        <ele>223.16</ele>
        <time>2021-08-20T07:58:21Z</time>
      </trkpt>
      <trkpt lat="43.20199" lon="-0.61032">
        <ele>223.16</ele>
        <time>2021-08-20T07:58:22Z</time>
      </trkpt>
      <trkpt lat="43.202" lon="-0.61038">
        <ele>223.16</ele>
        <time>2021-08-20T07:58:23Z</time>
      </trkpt>
      <trkpt lat="43.20202" lon="-0.6105">
        <ele>223.16</ele>
        <time>2021-08-20T07:58:25Z</time>
      </trkpt>
      <trkpt lat="43.20204" lon="-0.61056">
        <ele>223.16</ele>
        <time>2021-08-20T07:58:26Z</time>
      </trkpt>
      <trkpt lat="43.20207" lon="-0.61062">
        <ele>223.16</ele>
        <time>2021-08-20T07:58:27Z</time>
      </trkpt>
      <trkpt lat="43.2023" lon="-0.61125">
        <ele>223.16</ele>
        <time>2021-08-20T07:58:37Z</time>
      </trkpt>
      <trkpt lat="43.20244" lon="-0.61178">
        <ele>223.16</ele>
        <time>2021-08-20T07:58:45Z</time>
      </trkpt>
      <trkpt lat="43.20252" lon="-0.61238">
        <ele>223.16</ele>
        <time>2021-08-20T07:58:54Z</time>
      </trkpt>
      <trkpt lat="43.20253" lon="-0.61244">
        <ele>223.16</ele>
        <time>2021-08-20T07:58:55Z</time>
      </trkpt>
      <trkpt lat="43.20255" lon="-0.6125">
        <ele>223.16</ele>
        <time>2021-08-20T07:58:56Z</time>
      </trkpt>
      <trkpt lat="43.20274" lon="-0.61306">
        <ele>223.16</ele>
        <time>2021-08-20T07:59:05Z</time>
      </trkpt>
      <trkpt lat="43.20276" lon="-0.61312">
        <ele>223.16</ele>
        <time>2021-08-20T07:59:06Z</time>
      </trkpt>
      <trkpt lat="43.20279" lon="-0.61317">
        <ele>223.16</ele>
        <time>2021-08-20T07:59:07Z</time>
      </trkpt>
      <trkpt lat="43.20293" lon="-0.61344">
        <ele>223.16</ele>
        <time>2021-08-20T07:59:12Z</time>
      </trkpt>
      <trkpt lat="43.20313" lon="-0.61404">
        <ele>223.16</ele>
        <time>2021-08-20T07:59:21Z</time>
      </trkpt>
      <trkpt lat="43.20326" lon="-0.61451">
        <ele>222.68</ele>
        <time>2021-08-20T07:59:28Z</time>
      </trkpt>
      <trkpt lat="43.2035" lon="-0.615">
        <ele>222.68</ele>
        <time>2021-08-20T07:59:36Z</time>
      </trkpt>
      <trkpt lat="43.20373" lon="-0.6156">
        <ele>221.24</ele>
        <time>2021-08-20T07:59:45Z</time>
      </trkpt>
      <trkpt lat="43.20397" lon="-0.6161">
        <ele>220.28</ele>
        <time>2021-08-20T07:59:53Z</time>
      </trkpt>
      <trkpt lat="43.2041" lon="-0.61637">
        <ele>220.28</ele>
        <time>2021-08-20T07:59:58Z</time>
      </trkpt>
      <trkpt lat="43.20415" lon="-0.61649">
        <ele>220.28</ele>
        <time>2021-08-20T08:00:00Z</time>
      </trkpt>
      <trkpt lat="43.20422" lon="-0.61661">
        <ele>220.28</ele>
        <time>2021-08-20T08:00:02Z</time>
      </trkpt>
      <trkpt lat="43.20426" lon="-0.61666">
        <ele>220.28</ele>
        <time>2021-08-20T08:00:03Z</time>
      </trkpt>
      <trkpt lat="43.20456" lon="-0.61703">
        <ele>220.28</ele>
        <time>2021-08-20T08:00:10Z</time>
      </trkpt>
      <trkpt lat="43.20486" lon="-0.6176">
        <ele>220.28</ele>
        <time>2021-08-20T08:00:19Z</time>
      </trkpt>
      <trkpt lat="43.20493" lon="-0.6178">
        <ele>220.28</ele>
        <time>2021-08-20T08:00:22Z</time>
      </trkpt>
      <trkpt lat="43.20515" lon="-0.61842">
        <ele>219.8</ele>
        <time>2021-08-20T08:00:31Z</time>
      </trkpt>
      <trkpt lat="43.20532" lon="-0.6189">
        <ele>219.8</ele>
        <time>2021-08-20T08:00:39Z</time>
      </trkpt>
      <trkpt lat="43.20546" lon="-0.61922">
        <ele>219.8</ele>
        <time>2021-08-20T08:00:45Z</time>
      </trkpt>
      <trkpt lat="43.20568" lon="-0.6195">
        <ele>219.32</ele>
        <time>2021-08-20T08:00:51Z</time>
      </trkpt>
      <trkpt lat="43.20571" lon="-0.61955">
        <ele>218.84</ele>
        <time>2021-08-20T08:00:52Z</time>
      </trkpt>
      <trkpt lat="43.20574" lon="-0.61961">
        <ele>218.84</ele>
        <time>2021-08-20T08:00:53Z</time>
      </trkpt>
      <trkpt lat="43.20599" lon="-0.62009">
        <ele>218.36</ele>
        <time>2021-08-20T08:01:02Z</time>
      </trkpt>
      <trkpt lat="43.20608" lon="-0.62031">
        <ele>218.36</ele>
        <time>2021-08-20T08:01:06Z</time>
      </trkpt>
      <trkpt lat="43.2061" lon="-0.62038">
        <ele>218.36</ele>
        <time>2021-08-20T08:01:07Z</time>
      </trkpt>
      <trkpt lat="43.20613" lon="-0.62043">
        <ele>218.36</ele>
        <time>2021-08-20T08:01:08Z</time>
      </trkpt>
      <trkpt lat="43.20615" lon="-0.62049">
        <ele>218.36</ele>
        <time>2021-08-20T08:01:09Z</time>
      </trkpt>
      <trkpt lat="43.20618" lon="-0.62054">
        <ele>217.88</ele>
        <time>2021-08-20T08:01:10Z</time>
      </trkpt>
      <trkpt lat="43.20628" lon="-0.6207">
        <ele>217.88</ele>
        <time>2021-08-20T08:01:13Z</time>
      </trkpt>
      <trkpt lat="43.20631" lon="-0.62074">
        <ele>217.88</ele>
        <time>2021-08-20T08:01:14Z</time>
      </trkpt>
      <trkpt lat="43.20635" lon="-0.62077">
        <ele>217.88</ele>
        <time>2021-08-20T08:01:15Z</time>
      </trkpt>
      <trkpt lat="43.20666" lon="-0.62099">
        <ele>217.88</ele>
        <time>2021-08-20T08:01:22Z</time>
      </trkpt>
      <trkpt lat="43.20701" lon="-0.62117">
        <ele>217.88</ele>
        <time>2021-08-20T08:01:29Z</time>
      </trkpt>
      <trkpt lat="43.20736" lon="-0.62142">
        <ele>217.4</ele>
        <time>2021-08-20T08:01:36Z</time>
      </trkpt>
      <trkpt lat="43.20741" lon="-0.62146">
        <ele>217.4</ele>
        <time>2021-08-20T08:01:37Z</time>
      </trkpt>
      <trkpt lat="43.20783" lon="-0.6219">
        <ele>217.4</ele>
        <time>2021-08-20T08:01:46Z</time>
      </trkpt>
      <trkpt lat="43.20791" lon="-0.622">
        <ele>216.91</ele>
        <time>2021-08-20T08:01:48Z</time>
      </trkpt>
      <trkpt lat="43.20826" lon="-0.62245">
        <ele>216.91</ele>
        <time>2021-08-20T08:01:56Z</time>
      </trkpt>
      <trkpt lat="43.20836" lon="-0.62256">
        <ele>216.43</ele>
        <time>2021-08-20T08:01:58Z</time>
      </trkpt>
      <trkpt lat="43.2084" lon="-0.62262">
        <ele>216.43</ele>
        <time>2021-08-20T08:01:59Z</time>
      </trkpt>
      <trkpt lat="43.20843" lon="-0.62268">
        <ele>216.43</ele>
        <time>2021-08-20T08:02:00Z</time>
      </trkpt>
      <trkpt lat="43.20847" lon="-0.62275">
        <ele>216.43</ele>
        <time>2021-08-20T08:02:01Z</time>
      </trkpt>
      <trkpt lat="43.2085" lon="-0.62282">
        <ele>215.47</ele>
        <time>2021-08-20T08:02:02Z</time>
      </trkpt>
      <trkpt lat="43.2087" lon="-0.62332">
        <ele>215.95</ele>
        <time>2021-08-20T08:02:09Z</time>
      </trkpt>
      <trkpt lat="43.20892" lon="-0.62385">
        <ele>215.47</ele>
        <time>2021-08-20T08:02:17Z</time>
      </trkpt>
      <trkpt lat="43.20928" lon="-0.62444">
        <ele>214.99</ele>
        <time>2021-08-20T08:02:26Z</time>
      </trkpt>
      <trkpt lat="43.20936" lon="-0.62456">
        <ele>214.99</ele>
        <time>2021-08-20T08:02:28Z</time>
      </trkpt>
      <trkpt lat="43.20941" lon="-0.62461">
        <ele>214.99</ele>
        <time>2021-08-20T08:02:29Z</time>
      </trkpt>
      <trkpt lat="43.20945" lon="-0.62465">
        <ele>214.99</ele>
        <time>2021-08-20T08:02:30Z</time>
      </trkpt>
      <trkpt lat="43.2095" lon="-0.62469">
        <ele>214.99</ele>
        <time>2021-08-20T08:02:31Z</time>
      </trkpt>
      <trkpt lat="43.20955" lon="-0.62473">
        <ele>214.99</ele>
        <time>2021-08-20T08:02:32Z</time>
      </trkpt>
      <trkpt lat="43.2096" lon="-0.62476">
        <ele>214.99</ele>
        <time>2021-08-20T08:02:33Z</time>
      </trkpt>
      <trkpt lat="43.20966" lon="-0.62479">
        <ele>214.99</ele>
        <time>2021-08-20T08:02:34Z</time>
      </trkpt>
      <trkpt lat="43.20971" lon="-0.62482">
        <ele>214.99</ele>
        <time>2021-08-20T08:02:35Z</time>
      </trkpt>
      <trkpt lat="43.20977" lon="-0.62484">
        <ele>214.99</ele>
        <time>2021-08-20T08:02:36Z</time>
      </trkpt>
      <trkpt lat="43.21" lon="-0.62494">
        <ele>214.99</ele>
        <time>2021-08-20T08:02:40Z</time>
      </trkpt>
      <trkpt lat="43.21006" lon="-0.62495">
        <ele>214.99</ele>
        <time>2021-08-20T08:02:41Z</time>
      </trkpt>
      <trkpt lat="43.21012" lon="-0.62497">
        <ele>214.99</ele>
        <time>2021-08-20T08:02:42Z</time>
      </trkpt>
      <trkpt lat="43.21018" lon="-0.62499">
        <ele>214.99</ele>
        <time>2021-08-20T08:02:43Z</time>
      </trkpt>
      <trkpt lat="43.21023" lon="-0.62503">
        <ele>214.99</ele>
        <time>2021-08-20T08:02:44Z</time>
      </trkpt>
      <trkpt lat="43.21059" lon="-0.62533">
        <ele>214.99</ele>
        <time>2021-08-20T08:02:51Z</time>
      </trkpt>
      <trkpt lat="43.21111" lon="-0.62575">
        <ele>213.55</ele>
        <time>2021-08-20T08:03:01Z</time>
      </trkpt>
      <trkpt lat="43.21139" lon="-0.62603">
        <ele>213.55</ele>
        <time>2021-08-20T08:03:08Z</time>
      </trkpt>
      <trkpt lat="43.21144" lon="-0.62605">
        <ele>213.55</ele>
        <time>2021-08-20T08:03:09Z</time>
      </trkpt>
      <trkpt lat="43.21149" lon="-0.62606">
        <ele>213.55</ele>
        <time>2021-08-20T08:03:10Z</time>
      </trkpt>
      <trkpt lat="43.21164" lon="-0.62605">
        <ele>213.55</ele>
        <time>2021-08-20T08:03:13Z</time>
      </trkpt>
      <trkpt lat="43.21169" lon="-0.62604">
        <ele>213.55</ele>
        <time>2021-08-20T08:03:14Z</time>
      </trkpt>
      <trkpt lat="43.21174" lon="-0.62604">
        <ele>214.51</ele>
        <time>2021-08-20T08:03:15Z</time>
      </trkpt>
      <trkpt lat="43.21179" lon="-0.62604">
        <ele>214.51</ele>
        <time>2021-08-20T08:03:16Z</time>
      </trkpt>
      <trkpt lat="43.21184" lon="-0.62606">
        <ele>214.51</ele>
        <time>2021-08-20T08:03:17Z</time>
      </trkpt>
      <trkpt lat="43.21189" lon="-0.62607">
        <ele>214.51</ele>
        <time>2021-08-20T08:03:18Z</time>
      </trkpt>
      <trkpt lat="43.21193" lon="-0.62608">
        <ele>214.51</ele>
        <time>2021-08-20T08:03:19Z</time>
      </trkpt>
      <trkpt lat="43.21199" lon="-0.62609">
        <ele>214.51</ele>
        <time>2021-08-20T08:03:20Z</time>
      </trkpt>
      <trkpt lat="43.21236" lon="-0.62615">
        <ele>214.51</ele>
        <time>2021-08-20T08:03:27Z</time>
      </trkpt>
      <trkpt lat="43.21242" lon="-0.62618">
        <ele>214.51</ele>
        <time>2021-08-20T08:03:28Z</time>
      </trkpt>
      <trkpt lat="43.21246" lon="-0.62623">
        <ele>214.51</ele>
        <time>2021-08-20T08:03:29Z</time>
      </trkpt>
      <trkpt lat="43.21255" lon="-0.62633">
        <ele>214.51</ele>
        <time>2021-08-20T08:03:31Z</time>
      </trkpt>
      <trkpt lat="43.21258" lon="-0.62639">
        <ele>214.51</ele>
        <time>2021-08-20T08:03:32Z</time>
      </trkpt>
      <trkpt lat="43.21259" lon="-0.62645">
        <ele>214.51</ele>
        <time>2021-08-20T08:03:33Z</time>
      </trkpt>
      <trkpt lat="43.2126" lon="-0.62652">
        <ele>214.51</ele>
        <time>2021-08-20T08:03:34Z</time>
      </trkpt>
      <trkpt lat="43.2126" lon="-0.62658">
        <ele>214.51</ele>
        <time>2021-08-20T08:03:35Z</time>
      </trkpt>
      <trkpt lat="43.2126" lon="-0.62665">
        <ele>214.51</ele>
        <time>2021-08-20T08:03:36Z</time>
      </trkpt>
      <trkpt lat="43.21261" lon="-0.62673">
        <ele>214.51</ele>
        <time>2021-08-20T08:03:37Z</time>
      </trkpt>
      <trkpt lat="43.21263" lon="-0.62679">
        <ele>214.51</ele>
        <time>2021-08-20T08:03:38Z</time>
      </trkpt>
      <trkpt lat="43.21279" lon="-0.62717">
        <ele>213.07</ele>
        <time>2021-08-20T08:03:44Z</time>
      </trkpt>
      <trkpt lat="43.21296" lon="-0.62746">
        <ele>213.07</ele>
        <time>2021-08-20T08:03:49Z</time>
      </trkpt>
      <trkpt lat="43.2132" lon="-0.62807">
        <ele>213.07</ele>
        <time>2021-08-20T08:03:58Z</time>
      </trkpt>
      <trkpt lat="43.2134" lon="-0.62852">
        <ele>212.59</ele>
        <time>2021-08-20T08:04:05Z</time>
      </trkpt>
      <trkpt lat="43.21345" lon="-0.62856">
        <ele>212.59</ele>
        <time>2021-08-20T08:04:06Z</time>
      </trkpt>
      <trkpt lat="43.2135" lon="-0.62859">
        <ele>212.59</ele>
        <time>2021-08-20T08:04:07Z</time>
      </trkpt>
      <trkpt lat="43.21366" lon="-0.62865">
        <ele>212.59</ele>
        <time>2021-08-20T08:04:10Z</time>
      </trkpt>
      <trkpt lat="43.21409" lon="-0.62875">
        <ele>212.11</ele>
        <time>2021-08-20T08:04:18Z</time>
      </trkpt>
      <trkpt lat="43.2144" lon="-0.62887">
        <ele>212.11</ele>
        <time>2021-08-20T08:04:24Z</time>
      </trkpt>
      <trkpt lat="43.21445" lon="-0.62891">
        <ele>212.11</ele>
        <time>2021-08-20T08:04:25Z</time>
      </trkpt>
      <trkpt lat="43.2145" lon="-0.62894">
        <ele>212.11</ele>
        <time>2021-08-20T08:04:26Z</time>
      </trkpt>
      <trkpt lat="43.21483" lon="-0.62918">
        <ele>212.11</ele>
        <time>2021-08-20T08:04:33Z</time>
      </trkpt>
      <trkpt lat="43.21487" lon="-0.62923">
        <ele>212.11</ele>
        <time>2021-08-20T08:04:34Z</time>
      </trkpt>
      <trkpt lat="43.21491" lon="-0.62928">
        <ele>212.11</ele>
        <time>2021-08-20T08:04:35Z</time>
      </trkpt>
      <trkpt lat="43.21512" lon="-0.62976">
        <ele>212.11</ele>
        <time>2021-08-20T08:04:42Z</time>
      </trkpt>
      <trkpt lat="43.21543" lon="-0.63045">
        <ele>211.63</ele>
        <time>2021-08-20T08:04:52Z</time>
      </trkpt>
      <trkpt lat="43.21568" lon="-0.63087">
        <ele>211.63</ele>
        <time>2021-08-20T08:04:59Z</time>
      </trkpt>
      <trkpt lat="43.21579" lon="-0.63106">
        <ele>211.63</ele>
        <time>2021-08-20T08:05:02Z</time>
      </trkpt>
      <trkpt lat="43.21581" lon="-0.63113">
        <ele>211.63</ele>
        <time>2021-08-20T08:05:03Z</time>
      </trkpt>
      <trkpt lat="43.21596" lon="-0.63164">
        <ele>211.15</ele>
        <time>2021-08-20T08:05:10Z</time>
      </trkpt>
      <trkpt lat="43.21603" lon="-0.63186">
        <ele>211.15</ele>
        <time>2021-08-20T08:05:13Z</time>
      </trkpt>
      <trkpt lat="43.21613" lon="-0.63213">
        <ele>211.15</ele>
        <time>2021-08-20T08:05:17Z</time>
      </trkpt>
      <trkpt lat="43.21628" lon="-0.63256">
        <ele>212.11</ele>
        <time>2021-08-20T08:05:24Z</time>
      </trkpt>
      <trkpt lat="43.21638" lon="-0.63266">
        <ele>212.11</ele>
        <time>2021-08-20T08:05:27Z</time>
      </trkpt>
      <trkpt lat="43.21656" lon="-0.63294">
        <ele>210.67</ele>
        <time>2021-08-20T08:05:32Z</time>
      </trkpt>
      <trkpt lat="43.21674" lon="-0.63316">
        <ele>210.19</ele>
        <time>2021-08-20T08:05:36Z</time>
      </trkpt>
      <trkpt lat="43.2168" lon="-0.63321">
        <ele>210.19</ele>
        <time>2021-08-20T08:05:37Z</time>
      </trkpt>
      <trkpt lat="43.21684" lon="-0.63327">
        <ele>210.19</ele>
        <time>2021-08-20T08:05:38Z</time>
      </trkpt>
      <trkpt lat="43.21711" lon="-0.63361">
        <ele>209.7</ele>
        <time>2021-08-20T08:05:44Z</time>
      </trkpt>
      <trkpt lat="43.21721" lon="-0.6337">
        <ele>209.7</ele>
        <time>2021-08-20T08:05:46Z</time>
      </trkpt>
      <trkpt lat="43.21726" lon="-0.63374">
        <ele>209.7</ele>
        <time>2021-08-20T08:05:47Z</time>
      </trkpt>
      <trkpt lat="43.21732" lon="-0.63377">
        <ele>209.7</ele>
        <time>2021-08-20T08:05:48Z</time>
      </trkpt>
      <trkpt lat="43.21737" lon="-0.63378">
        <ele>209.7</ele>
        <time>2021-08-20T08:05:49Z</time>
      </trkpt>
      <trkpt lat="43.21743" lon="-0.63378">
        <ele>209.22</ele>
        <time>2021-08-20T08:05:50Z</time>
      </trkpt>
      <trkpt lat="43.21748" lon="-0.63378">
        <ele>209.22</ele>
        <time>2021-08-20T08:05:51Z</time>
      </trkpt>
      <trkpt lat="43.21753" lon="-0.63376">
        <ele>209.22</ele>
        <time>2021-08-20T08:05:52Z</time>
      </trkpt>
      <trkpt lat="43.2176" lon="-0.63376">
        <ele>209.22</ele>
        <time>2021-08-20T08:05:54Z</time>
      </trkpt>
      <trkpt lat="43.21763" lon="-0.63379">
        <ele>209.22</ele>
        <time>2021-08-20T08:05:55Z</time>
      </trkpt>
      <trkpt lat="43.21771" lon="-0.63393">
        <ele>209.22</ele>
        <time>2021-08-20T08:05:58Z</time>
      </trkpt>
      <trkpt lat="43.21795" lon="-0.6345">
        <ele>208.74</ele>
        <time>2021-08-20T08:06:07Z</time>
      </trkpt>
      <trkpt lat="43.21826" lon="-0.63527">
        <ele>208.26</ele>
        <time>2021-08-20T08:06:18Z</time>
      </trkpt>
      <trkpt lat="43.21832" lon="-0.6354">
        <ele>208.26</ele>
        <time>2021-08-20T08:06:20Z</time>
      </trkpt>
      <trkpt lat="43.21852" lon="-0.63578">
        <ele>208.26</ele>
        <time>2021-08-20T08:06:26Z</time>
      </trkpt>
      <trkpt lat="43.21856" lon="-0.63583">
        <ele>208.26</ele>
        <time>2021-08-20T08:06:27Z</time>
      </trkpt>
      <trkpt lat="43.2186" lon="-0.63588">
        <ele>208.26</ele>
        <time>2021-08-20T08:06:28Z</time>
      </trkpt>
      <trkpt lat="43.21894" lon="-0.63628">
        <ele>208.26</ele>
        <time>2021-08-20T08:06:36Z</time>
      </trkpt>
      <trkpt lat="43.21925" lon="-0.63666">
        <ele>207.3</ele>
        <time>2021-08-20T08:06:43Z</time>
      </trkpt>
      <trkpt lat="43.21939" lon="-0.63691">
        <ele>207.3</ele>
        <time>2021-08-20T08:06:47Z</time>
      </trkpt>
      <trkpt lat="43.21965" lon="-0.63736">
        <ele>206.82</ele>
        <time>2021-08-20T08:06:54Z</time>
      </trkpt>
      <trkpt lat="43.21998" lon="-0.63797">
        <ele>206.34</ele>
        <time>2021-08-20T08:07:03Z</time>
      </trkpt>
      <trkpt lat="43.22029" lon="-0.63861">
        <ele>206.34</ele>
        <time>2021-08-20T08:07:12Z</time>
      </trkpt>
      <trkpt lat="43.2204" lon="-0.63882">
        <ele>206.34</ele>
        <time>2021-08-20T08:07:15Z</time>
      </trkpt>
      <trkpt lat="43.22055" lon="-0.63909">
        <ele>205.86</ele>
        <time>2021-08-20T08:07:19Z</time>
      </trkpt>
      <trkpt lat="43.22092" lon="-0.63959">
        <ele>205.86</ele>
        <time>2021-08-20T08:07:28Z</time>
      </trkpt>
      <trkpt lat="43.22117" lon="-0.63992">
        <ele>205.86</ele>
        <time>2021-08-20T08:07:34Z</time>
      </trkpt>
      <trkpt lat="43.22125" lon="-0.64005">
        <ele>205.86</ele>
        <time>2021-08-20T08:07:36Z</time>
      </trkpt>
      <trkpt lat="43.22171" lon="-0.6405">
        <ele>205.38</ele>
        <time>2021-08-20T08:07:45Z</time>
      </trkpt>
      <trkpt lat="43.22216" lon="-0.64093">
        <ele>205.38</ele>
        <time>2021-08-20T08:07:54Z</time>
      </trkpt>
      <trkpt lat="43.22221" lon="-0.64099">
        <ele>205.38</ele>
        <time>2021-08-20T08:07:55Z</time>
      </trkpt>
      <trkpt lat="43.22252" lon="-0.64141">
        <ele>204.9</ele>
        <time>2021-08-20T08:08:02Z</time>
      </trkpt>
      <trkpt lat="43.22257" lon="-0.64146">
        <ele>204.9</ele>
        <time>2021-08-20T08:08:03Z</time>
      </trkpt>
      <trkpt lat="43.22262" lon="-0.6415">
        <ele>204.9</ele>
        <time>2021-08-20T08:08:04Z</time>
      </trkpt>
      <trkpt lat="43.22308" lon="-0.64182">
        <ele>204.9</ele>
        <time>2021-08-20T08:08:13Z</time>
      </trkpt>
      <trkpt lat="43.22317" lon="-0.6419">
        <ele>205.86</ele>
        <time>2021-08-20T08:08:15Z</time>
      </trkpt>
      <trkpt lat="43.22329" lon="-0.64204">
        <ele>206.34</ele>
        <time>2021-08-20T08:08:18Z</time>
      </trkpt>
      <trkpt lat="43.22332" lon="-0.64209">
        <ele>206.82</ele>
        <time>2021-08-20T08:08:19Z</time>
      </trkpt>
      <trkpt lat="43.22334" lon="-0.64213">
        <ele>206.82</ele>
        <time>2021-08-20T08:08:20Z</time>
      </trkpt>
      <trkpt lat="43.22355" lon="-0.64244">
        <ele>207.78</ele>
        <time>2021-08-20T08:08:28Z</time>
      </trkpt>
      <trkpt lat="43.22376" lon="-0.64263">
        <ele>208.74</ele>
        <time>2021-08-20T08:08:35Z</time>
      </trkpt>
      <trkpt lat="43.2239" lon="-0.64272">
        <ele>209.7</ele>
        <time>2021-08-20T08:08:40Z</time>
      </trkpt>
      <trkpt lat="43.22407" lon="-0.64292">
        <ele>211.15</ele>
        <time>2021-08-20T08:08:47Z</time>
      </trkpt>
      <trkpt lat="43.2242" lon="-0.64306">
        <ele>211.63</ele>
        <time>2021-08-20T08:08:52Z</time>
      </trkpt>
      <trkpt lat="43.22448" lon="-0.64343">
        <ele>213.07</ele>
        <time>2021-08-20T08:09:01Z</time>
      </trkpt>
      <trkpt lat="43.22471" lon="-0.64386">
        <ele>211.15</ele>
        <time>2021-08-20T08:09:08Z</time>
      </trkpt>
      <trkpt lat="43.22494" lon="-0.64423">
        <ele>210.67</ele>
        <time>2021-08-20T08:09:14Z</time>
      </trkpt>
      <trkpt lat="43.22522" lon="-0.64457">
        <ele>210.19</ele>
        <time>2021-08-20T08:09:21Z</time>
      </trkpt>
      <trkpt lat="43.22535" lon="-0.64471">
        <ele>210.19</ele>
        <time>2021-08-20T08:09:24Z</time>
      </trkpt>
      <trkpt lat="43.22539" lon="-0.64474">
        <ele>210.19</ele>
        <time>2021-08-20T08:09:25Z</time>
      </trkpt>
      <trkpt lat="43.22546" lon="-0.64477">
        <ele>209.7</ele>
        <time>2021-08-20T08:09:26Z</time>
      </trkpt>
      <trkpt lat="43.22551" lon="-0.64478">
        <ele>209.7</ele>
        <time>2021-08-20T08:09:27Z</time>
      </trkpt>
      <trkpt lat="43.22557" lon="-0.64479">
        <ele>209.7</ele>
        <time>2021-08-20T08:09:28Z</time>
      </trkpt>
      <trkpt lat="43.22568" lon="-0.6448">
        <ele>209.7</ele>
        <time>2021-08-20T08:09:30Z</time>
      </trkpt>
      <trkpt lat="43.22601" lon="-0.64495">
        <ele>209.7</ele>
        <time>2021-08-20T08:09:36Z</time>
      </trkpt>
      <trkpt lat="43.22606" lon="-0.64496">
        <ele>209.7</ele>
        <time>2021-08-20T08:09:37Z</time>
      </trkpt>
      <trkpt lat="43.22613" lon="-0.64496">
        <ele>209.7</ele>
        <time>2021-08-20T08:09:38Z</time>
      </trkpt>
      <trkpt lat="43.22618" lon="-0.64495">
        <ele>209.7</ele>
        <time>2021-08-20T08:09:39Z</time>
      </trkpt>
      <trkpt lat="43.22623" lon="-0.64494">
        <ele>209.7</ele>
        <time>2021-08-20T08:09:40Z</time>
      </trkpt>
      <trkpt lat="43.22629" lon="-0.64495">
        <ele>209.7</ele>
        <time>2021-08-20T08:09:41Z</time>
      </trkpt>
      <trkpt lat="43.22636" lon="-0.64497">
        <ele>209.7</ele>
        <time>2021-08-20T08:09:42Z</time>
      </trkpt>
      <trkpt lat="43.2264" lon="-0.64499">
        <ele>209.7</ele>
        <time>2021-08-20T08:09:43Z</time>
      </trkpt>
      <trkpt lat="43.22645" lon="-0.64501">
        <ele>209.7</ele>
        <time>2021-08-20T08:09:44Z</time>
      </trkpt>
      <trkpt lat="43.22651" lon="-0.64506">
        <ele>209.7</ele>
        <time>2021-08-20T08:09:45Z</time>
      </trkpt>
      <trkpt lat="43.22655" lon="-0.64511">
        <ele>209.7</ele>
        <time>2021-08-20T08:09:46Z</time>
      </trkpt>
      <trkpt lat="43.22659" lon="-0.64517">
        <ele>209.7</ele>
        <time>2021-08-20T08:09:47Z</time>
      </trkpt>
      <trkpt lat="43.22663" lon="-0.64524">
        <ele>209.7</ele>
        <time>2021-08-20T08:09:48Z</time>
      </trkpt>
      <trkpt lat="43.22666" lon="-0.64531">
        <ele>209.7</ele>
        <time>2021-08-20T08:09:49Z</time>
      </trkpt>
      <trkpt lat="43.22673" lon="-0.64546">
        <ele>209.7</ele>
        <time>2021-08-20T08:09:51Z</time>
      </trkpt>
      <trkpt lat="43.22674" lon="-0.64556">
        <ele>209.7</ele>
        <time>2021-08-20T08:09:52Z</time>
      </trkpt>
      <trkpt lat="43.22684" lon="-0.64632">
        <ele>209.22</ele>
        <time>2021-08-20T08:10:01Z</time>
      </trkpt>
      <trkpt lat="43.22686" lon="-0.6464">
        <ele>209.22</ele>
        <time>2021-08-20T08:10:02Z</time>
      </trkpt>
      <trkpt lat="43.22692" lon="-0.64654">
        <ele>209.22</ele>
        <time>2021-08-20T08:10:04Z</time>
      </trkpt>
      <trkpt lat="43.22695" lon="-0.6466">
        <ele>209.22</ele>
        <time>2021-08-20T08:10:05Z</time>
      </trkpt>
      <trkpt lat="43.22711" lon="-0.64681">
        <ele>209.22</ele>
        <time>2021-08-20T08:10:09Z</time>
      </trkpt>
      <trkpt lat="43.22757" lon="-0.64734">
        <ele>208.74</ele>
        <time>2021-08-20T08:10:19Z</time>
      </trkpt>
      <trkpt lat="43.22804" lon="-0.64794">
        <ele>208.74</ele>
        <time>2021-08-20T08:10:29Z</time>
      </trkpt>
      <trkpt lat="43.22809" lon="-0.64801">
        <ele>208.74</ele>
        <time>2021-08-20T08:10:30Z</time>
      </trkpt>
      <trkpt lat="43.22849" lon="-0.6485">
        <ele>208.26</ele>
        <time>2021-08-20T08:10:38Z</time>
      </trkpt>
      <trkpt lat="43.22885" lon="-0.64894">
        <ele>207.3</ele>
        <time>2021-08-20T08:10:45Z</time>
      </trkpt>
      <trkpt lat="43.22931" lon="-0.64949">
        <ele>206.82</ele>
        <time>2021-08-20T08:10:54Z</time>
      </trkpt>
      <trkpt lat="43.22982" lon="-0.64998">
        <ele>206.82</ele>
        <time>2021-08-20T08:11:03Z</time>
      </trkpt>
      <trkpt lat="43.23012" lon="-0.6503">
        <ele>206.82</ele>
        <time>2021-08-20T08:11:09Z</time>
      </trkpt>
      <trkpt lat="43.23045" lon="-0.65078">
        <ele>206.34</ele>
        <time>2021-08-20T08:11:17Z</time>
      </trkpt>
      <trkpt lat="43.23077" lon="-0.65142">
        <ele>206.34</ele>
        <time>2021-08-20T08:11:26Z</time>
      </trkpt>
      <trkpt lat="43.23102" lon="-0.65195">
        <ele>205.38</ele>
        <time>2021-08-20T08:11:33Z</time>
      </trkpt>
      <trkpt lat="43.23134" lon="-0.65261">
        <ele>204.9</ele>
        <time>2021-08-20T08:11:41Z</time>
      </trkpt>
      <trkpt lat="43.23169" lon="-0.65332">
        <ele>203.94</ele>
        <time>2021-08-20T08:11:49Z</time>
      </trkpt>
      <trkpt lat="43.2321" lon="-0.65416">
        <ele>202.01</ele>
        <time>2021-08-20T08:11:58Z</time>
      </trkpt>
      <trkpt lat="43.23246" lon="-0.65498">
        <ele>199.13</ele>
        <time>2021-08-20T08:12:06Z</time>
      </trkpt>
      <trkpt lat="43.23262" lon="-0.65526">
        <ele>198.17</ele>
        <time>2021-08-20T08:12:09Z</time>
      </trkpt>
      <trkpt lat="43.23268" lon="-0.65534">
        <ele>198.17</ele>
        <time>2021-08-20T08:12:10Z</time>
      </trkpt>
      <trkpt lat="43.2332" lon="-0.65594">
        <ele>196.25</ele>
        <time>2021-08-20T08:12:18Z</time>
      </trkpt>
      <trkpt lat="43.23339" lon="-0.65616">
        <ele>195.77</ele>
        <time>2021-08-20T08:12:21Z</time>
      </trkpt>
      <trkpt lat="43.23382" lon="-0.65675">
        <ele>194.8</ele>
        <time>2021-08-20T08:12:29Z</time>
      </trkpt>
      <trkpt lat="43.23424" lon="-0.65727">
        <ele>194.32</ele>
        <time>2021-08-20T08:12:37Z</time>
      </trkpt>
      <trkpt lat="43.23483" lon="-0.65802">
        <ele>192.88</ele>
        <time>2021-08-20T08:12:48Z</time>
      </trkpt>
      <trkpt lat="43.23527" lon="-0.65856">
        <ele>190.48</ele>
        <time>2021-08-20T08:12:56Z</time>
      </trkpt>
      <trkpt lat="43.23532" lon="-0.65863">
        <ele>190.48</ele>
        <time>2021-08-20T08:12:57Z</time>
      </trkpt>
      <trkpt lat="43.23538" lon="-0.65871">
        <ele>190</ele>
        <time>2021-08-20T08:12:58Z</time>
      </trkpt>
      <trkpt lat="43.23542" lon="-0.65881">
        <ele>189.04</ele>
        <time>2021-08-20T08:12:59Z</time>
      </trkpt>
      <trkpt lat="43.23545" lon="-0.6589">
        <ele>189.04</ele>
        <time>2021-08-20T08:13:00Z</time>
      </trkpt>
      <trkpt lat="43.23548" lon="-0.659">
        <ele>188.08</ele>
        <time>2021-08-20T08:13:01Z</time>
      </trkpt>
      <trkpt lat="43.23552" lon="-0.65908">
        <ele>187.59</ele>
        <time>2021-08-20T08:13:02Z</time>
      </trkpt>
      <trkpt lat="43.23558" lon="-0.65915">
        <ele>187.59</ele>
        <time>2021-08-20T08:13:03Z</time>
      </trkpt>
      <trkpt lat="43.23564" lon="-0.65922">
        <ele>187.59</ele>
        <time>2021-08-20T08:13:04Z</time>
      </trkpt>
      <trkpt lat="43.2357" lon="-0.65928">
        <ele>187.11</ele>
        <time>2021-08-20T08:13:05Z</time>
      </trkpt>
      <trkpt lat="43.23589" lon="-0.65941">
        <ele>187.11</ele>
        <time>2021-08-20T08:13:08Z</time>
      </trkpt>
      <trkpt lat="43.23595" lon="-0.65944">
        <ele>187.11</ele>
        <time>2021-08-20T08:13:09Z</time>
      </trkpt>
      <trkpt lat="43.23616" lon="-0.65949">
        <ele>190</ele>
        <time>2021-08-20T08:13:13Z</time>
      </trkpt>
      <trkpt lat="43.23621" lon="-0.65952">
        <ele>189.52</ele>
        <time>2021-08-20T08:13:14Z</time>
      </trkpt>
      <trkpt lat="43.23625" lon="-0.65955">
        <ele>189.52</ele>
        <time>2021-08-20T08:13:15Z</time>
      </trkpt>
      <trkpt lat="43.2365" lon="-0.65975">
        <ele>190.48</ele>
        <time>2021-08-20T08:13:22Z</time>
      </trkpt>
      <trkpt lat="43.23675" lon="-0.65998">
        <ele>190.96</ele>
        <time>2021-08-20T08:13:29Z</time>
      </trkpt>
      <trkpt lat="43.23699" lon="-0.66018">
        <ele>190.96</ele>
        <time>2021-08-20T08:13:36Z</time>
      </trkpt>
      <trkpt lat="43.23715" lon="-0.66031">
        <ele>190.96</ele>
        <time>2021-08-20T08:13:41Z</time>
      </trkpt>
      <trkpt lat="43.23721" lon="-0.66034">
        <ele>190.96</ele>
        <time>2021-08-20T08:13:42Z</time>
      </trkpt>
      <trkpt lat="43.23724" lon="-0.66038">
        <ele>191.44</ele>
        <time>2021-08-20T08:13:43Z</time>
      </trkpt>
      <trkpt lat="43.23728" lon="-0.66042">
        <ele>191.44</ele>
        <time>2021-08-20T08:13:44Z</time>
      </trkpt>
      <trkpt lat="43.2373" lon="-0.66046">
        <ele>191.44</ele>
        <time>2021-08-20T08:13:45Z</time>
      </trkpt>
      <trkpt lat="43.23746" lon="-0.66074">
        <ele>190.96</ele>
        <time>2021-08-20T08:13:51Z</time>
      </trkpt>
      <trkpt lat="43.23755" lon="-0.66088">
        <ele>190</ele>
        <time>2021-08-20T08:13:54Z</time>
      </trkpt>
      <trkpt lat="43.23763" lon="-0.66103">
        <ele>188.56</ele>
        <time>2021-08-20T08:13:58Z</time>
      </trkpt>
      <trkpt lat="43.23765" lon="-0.66105">
        <ele>188.56</ele>
        <time>2021-08-20T08:13:59Z</time>
      </trkpt>
      <trkpt lat="43.23766" lon="-0.66106">
        <ele>188.56</ele>
        <time>2021-08-20T08:14:00Z</time>
      </trkpt>
      <trkpt lat="43.23767" lon="-0.66109">
        <ele>188.56</ele>
        <time>2021-08-20T08:14:01Z</time>
      </trkpt>
      <trkpt lat="43.23769" lon="-0.66112">
        <ele>188.56</ele>
        <time>2021-08-20T08:14:02Z</time>
      </trkpt>
      <trkpt lat="43.23775" lon="-0.66135">
        <ele>186.63</ele>
        <time>2021-08-20T08:14:07Z</time>
      </trkpt>
      <trkpt lat="43.23782" lon="-0.66165">
        <ele>185.19</ele>
        <time>2021-08-20T08:14:13Z</time>
      </trkpt>
      <trkpt lat="43.23791" lon="-0.66204">
        <ele>183.75</ele>
        <time>2021-08-20T08:14:21Z</time>
      </trkpt>
      <trkpt lat="43.23793" lon="-0.66229">
        <ele>183.27</ele>
        <time>2021-08-20T08:14:27Z</time>
      </trkpt>
      <trkpt lat="43.23797" lon="-0.66266">
        <ele>183.27</ele>
        <time>2021-08-20T08:14:35Z</time>
      </trkpt>
      <trkpt lat="43.23809" lon="-0.66288">
        <ele>182.79</ele>
        <time>2021-08-20T08:14:41Z</time>
      </trkpt>
      <trkpt lat="43.23825" lon="-0.6631">
        <ele>182.31</ele>
        <time>2021-08-20T08:14:48Z</time>
      </trkpt>
      <trkpt lat="43.2383" lon="-0.66315">
        <ele>182.31</ele>
        <time>2021-08-20T08:14:53Z</time>
      </trkpt>
      <trkpt lat="43.2383" lon="-0.66316">
        <ele>182.31</ele>
        <time>2021-08-20T08:15:00Z</time>
      </trkpt>
      <trkpt lat="43.23829" lon="-0.66316">
        <ele>182.31</ele>
        <time>2021-08-20T08:15:15Z</time>
      </trkpt>
      <trkpt lat="43.23828" lon="-0.66315">
        <ele>182.31</ele>
        <time>2021-08-20T08:15:28Z</time>
      </trkpt>
      <trkpt lat="43.23828" lon="-0.66315">
        <ele>182.31</ele>
        <time>2021-08-20T08:15:37Z</time>
      </trkpt>
      <trkpt lat="43.23829" lon="-0.66315">
        <ele>182.31</ele>
        <time>2021-08-20T08:15:49Z</time>
      </trkpt>
      <trkpt lat="43.23829" lon="-0.66315">
        <ele>182.31</ele>
        <time>2021-08-20T08:15:57Z</time>
      </trkpt>
      <trkpt lat="43.2383" lon="-0.66317">
        <ele>182.31</ele>
        <time>2021-08-20T08:16:03Z</time>
      </trkpt>
      <trkpt lat="43.23831" lon="-0.6632">
        <ele>182.31</ele>
        <time>2021-08-20T08:16:10Z</time>
      </trkpt>
      <trkpt lat="43.23833" lon="-0.66321">
        <ele>182.31</ele>
        <time>2021-08-20T08:16:15Z</time>
      </trkpt>
      <trkpt lat="43.23835" lon="-0.66326">
        <ele>182.31</ele>
        <time>2021-08-20T08:16:22Z</time>
      </trkpt>
      <trkpt lat="43.23845" lon="-0.66339">
        <ele>182.31</ele>
        <time>2021-08-20T08:16:29Z</time>
      </trkpt>
      <trkpt lat="43.23861" lon="-0.66362">
        <ele>182.31</ele>
        <time>2021-08-20T08:16:36Z</time>
      </trkpt>
      <trkpt lat="43.2387" lon="-0.66374">
        <ele>182.31</ele>
        <time>2021-08-20T08:16:41Z</time>
      </trkpt>
      <trkpt lat="43.2388" lon="-0.6639">
        <ele>182.31</ele>
        <time>2021-08-20T08:16:47Z</time>
      </trkpt>
      <trkpt lat="43.2389" lon="-0.66405">
        <ele>182.31</ele>
        <time>2021-08-20T08:16:53Z</time>
      </trkpt>
      <trkpt lat="43.23901" lon="-0.66422">
        <ele>182.31</ele>
        <time>2021-08-20T08:16:59Z</time>
      </trkpt>
      <trkpt lat="43.23912" lon="-0.66438">
        <ele>182.31</ele>
        <time>2021-08-20T08:17:05Z</time>
      </trkpt>
      <trkpt lat="43.23926" lon="-0.66461">
        <ele>181.83</ele>
        <time>2021-08-20T08:17:11Z</time>
      </trkpt>
      <trkpt lat="43.23932" lon="-0.66468">
        <ele>181.83</ele>
        <time>2021-08-20T08:17:14Z</time>
      </trkpt>
      <trkpt lat="43.23944" lon="-0.66487">
        <ele>181.83</ele>
        <time>2021-08-20T08:17:21Z</time>
      </trkpt>
      <trkpt lat="43.23957" lon="-0.66504">
        <ele>181.35</ele>
        <time>2021-08-20T08:17:28Z</time>
      </trkpt>
      <trkpt lat="43.23958" lon="-0.66504">
        <ele>181.35</ele>
        <time>2021-08-20T08:17:34Z</time>
      </trkpt>
      <trkpt lat="43.23961" lon="-0.66508">
        <ele>181.35</ele>
        <time>2021-08-20T08:17:40Z</time>
      </trkpt>
      <trkpt lat="43.23965" lon="-0.66511">
        <ele>181.35</ele>
        <time>2021-08-20T08:17:46Z</time>
      </trkpt>
      <trkpt lat="43.23965" lon="-0.66515">
        <ele>181.35</ele>
        <time>2021-08-20T08:17:52Z</time>
      </trkpt>
      <trkpt lat="43.23967" lon="-0.66517">
        <ele>181.35</ele>
        <time>2021-08-20T08:17:58Z</time>
      </trkpt>
      <trkpt lat="43.23968" lon="-0.66521">
        <ele>181.35</ele>
        <time>2021-08-20T08:18:00Z</time>
      </trkpt>
      <trkpt lat="43.23981" lon="-0.66538">
        <ele>181.35</ele>
        <time>2021-08-20T08:18:07Z</time>
      </trkpt>
      <trkpt lat="43.23996" lon="-0.66555">
        <ele>180.87</ele>
        <time>2021-08-20T08:18:14Z</time>
      </trkpt>
      <trkpt lat="43.24009" lon="-0.66571">
        <ele>180.87</ele>
        <time>2021-08-20T08:18:19Z</time>
      </trkpt>
      <trkpt lat="43.24025" lon="-0.6658">
        <ele>180.87</ele>
        <time>2021-08-20T08:18:25Z</time>
      </trkpt>
      <trkpt lat="43.2404" lon="-0.66615">
        <ele>180.87</ele>
        <time>2021-08-20T08:18:34Z</time>
      </trkpt>
      <trkpt lat="43.24054" lon="-0.66646">
        <ele>180.87</ele>
        <time>2021-08-20T08:18:42Z</time>
      </trkpt>
      <trkpt lat="43.24067" lon="-0.66669">
        <ele>180.38</ele>
        <time>2021-08-20T08:18:49Z</time>
      </trkpt>
      <trkpt lat="43.24085" lon="-0.667">
        <ele>180.38</ele>
        <time>2021-08-20T08:18:58Z</time>
      </trkpt>
      <trkpt lat="43.24102" lon="-0.66728">
        <ele>179.9</ele>
        <time>2021-08-20T08:19:06Z</time>
      </trkpt>
      <trkpt lat="43.24118" lon="-0.66753">
        <ele>179.9</ele>
        <time>2021-08-20T08:19:13Z</time>
      </trkpt>
      <trkpt lat="43.24124" lon="-0.66761">
        <ele>179.9</ele>
        <time>2021-08-20T08:19:16Z</time>
      </trkpt>
      <trkpt lat="43.24126" lon="-0.66764">
        <ele>179.9</ele>
        <time>2021-08-20T08:19:18Z</time>
      </trkpt>
      <trkpt lat="43.24126" lon="-0.66768">
        <ele>179.9</ele>
        <time>2021-08-20T08:19:20Z</time>
      </trkpt>
      <trkpt lat="43.24124" lon="-0.6677">
        <ele>179.9</ele>
        <time>2021-08-20T08:19:21Z</time>
      </trkpt>
      <trkpt lat="43.24108" lon="-0.66787">
        <ele>179.42</ele>
        <time>2021-08-20T08:19:27Z</time>
      </trkpt>
      <trkpt lat="43.24096" lon="-0.66805">
        <ele>178.94</ele>
        <time>2021-08-20T08:19:32Z</time>
      </trkpt>
      <trkpt lat="43.24097" lon="-0.66809">
        <ele>178.94</ele>
        <time>2021-08-20T08:19:33Z</time>
      </trkpt>
      <trkpt lat="43.24099" lon="-0.66813">
        <ele>178.94</ele>
        <time>2021-08-20T08:19:34Z</time>
      </trkpt>
      <trkpt lat="43.24101" lon="-0.66817">
        <ele>178.94</ele>
        <time>2021-08-20T08:19:35Z</time>
      </trkpt>
      <trkpt lat="43.24103" lon="-0.6682">
        <ele>178.94</ele>
        <time>2021-08-20T08:19:36Z</time>
      </trkpt>
      <trkpt lat="43.24122" lon="-0.6685">
        <ele>178.94</ele>
        <time>2021-08-20T08:19:43Z</time>
      </trkpt>
      <trkpt lat="43.24135" lon="-0.66873">
        <ele>178.94</ele>
        <time>2021-08-20T08:19:47Z</time>
      </trkpt>
      <trkpt lat="43.24157" lon="-0.66923">
        <ele>177.98</ele>
        <time>2021-08-20T08:19:54Z</time>
      </trkpt>
      <trkpt lat="43.24197" lon="-0.66979">
        <ele>177.5</ele>
        <time>2021-08-20T08:20:03Z</time>
      </trkpt>
      <trkpt lat="43.24238" lon="-0.67044">
        <ele>177.5</ele>
        <time>2021-08-20T08:20:13Z</time>
      </trkpt>
      <trkpt lat="43.24278" lon="-0.67088">
        <ele>177.5</ele>
        <time>2021-08-20T08:20:21Z</time>
      </trkpt>
      <trkpt lat="43.24297" lon="-0.67112">
        <ele>177.02</ele>
        <time>2021-08-20T08:20:25Z</time>
      </trkpt>
      <trkpt lat="43.24302" lon="-0.67119">
        <ele>177.02</ele>
        <time>2021-08-20T08:20:26Z</time>
      </trkpt>
      <trkpt lat="43.24305" lon="-0.67127">
        <ele>176.54</ele>
        <time>2021-08-20T08:20:27Z</time>
      </trkpt>
      <trkpt lat="43.24307" lon="-0.67136">
        <ele>176.54</ele>
        <time>2021-08-20T08:20:28Z</time>
      </trkpt>
      <trkpt lat="43.24307" lon="-0.67146">
        <ele>176.06</ele>
        <time>2021-08-20T08:20:29Z</time>
      </trkpt>
      <trkpt lat="43.24306" lon="-0.67156">
        <ele>175.58</ele>
        <time>2021-08-20T08:20:30Z</time>
      </trkpt>
      <trkpt lat="43.24305" lon="-0.67167">
        <ele>174.62</ele>
        <time>2021-08-20T08:20:31Z</time>
      </trkpt>
      <trkpt lat="43.24304" lon="-0.67177">
        <ele>174.62</ele>
        <time>2021-08-20T08:20:32Z</time>
      </trkpt>
      <trkpt lat="43.24301" lon="-0.67215">
        <ele>174.62</ele>
        <time>2021-08-20T08:20:36Z</time>
      </trkpt>
      <trkpt lat="43.24302" lon="-0.67224">
        <ele>174.62</ele>
        <time>2021-08-20T08:20:37Z</time>
      </trkpt>
      <trkpt lat="43.24303" lon="-0.67232">
        <ele>174.62</ele>
        <time>2021-08-20T08:20:38Z</time>
      </trkpt>
      <trkpt lat="43.24305" lon="-0.6724">
        <ele>174.62</ele>
        <time>2021-08-20T08:20:39Z</time>
      </trkpt>
      <trkpt lat="43.24308" lon="-0.67247">
        <ele>174.62</ele>
        <time>2021-08-20T08:20:40Z</time>
      </trkpt>
      <trkpt lat="43.24325" lon="-0.67301">
        <ele>174.62</ele>
        <time>2021-08-20T08:20:47Z</time>
      </trkpt>
      <trkpt lat="43.24329" lon="-0.67306">
        <ele>174.62</ele>
        <time>2021-08-20T08:20:48Z</time>
      </trkpt>
      <trkpt lat="43.24333" lon="-0.67307">
        <ele>174.62</ele>
        <time>2021-08-20T08:20:49Z</time>
      </trkpt>
      <trkpt lat="43.24338" lon="-0.67305">
        <ele>174.62</ele>
        <time>2021-08-20T08:20:50Z</time>
      </trkpt>
      <trkpt lat="43.24342" lon="-0.67303">
        <ele>174.62</ele>
        <time>2021-08-20T08:20:51Z</time>
      </trkpt>
      <trkpt lat="43.24346" lon="-0.67304">
        <ele>174.62</ele>
        <time>2021-08-20T08:20:52Z</time>
      </trkpt>
      <trkpt lat="43.2435" lon="-0.67308">
        <ele>174.62</ele>
        <time>2021-08-20T08:20:53Z</time>
      </trkpt>
      <trkpt lat="43.24352" lon="-0.67312">
        <ele>174.62</ele>
        <time>2021-08-20T08:20:54Z</time>
      </trkpt>
      <trkpt lat="43.24354" lon="-0.67318">
        <ele>174.62</ele>
        <time>2021-08-20T08:20:55Z</time>
      </trkpt>
      <trkpt lat="43.24355" lon="-0.67323">
        <ele>174.62</ele>
        <time>2021-08-20T08:20:56Z</time>
      </trkpt>
      <trkpt lat="43.24362" lon="-0.67341">
        <ele>174.62</ele>
        <time>2021-08-20T08:20:59Z</time>
      </trkpt>
      <trkpt lat="43.24365" lon="-0.67347">
        <ele>174.62</ele>
        <time>2021-08-20T08:21:00Z</time>
      </trkpt>
      <trkpt lat="43.24368" lon="-0.67351">
        <ele>174.62</ele>
        <time>2021-08-20T08:21:01Z</time>
      </trkpt>
      <trkpt lat="43.24372" lon="-0.67356">
        <ele>174.62</ele>
        <time>2021-08-20T08:21:02Z</time>
      </trkpt>
      <trkpt lat="43.24376" lon="-0.6736">
        <ele>174.62</ele>
        <time>2021-08-20T08:21:03Z</time>
      </trkpt>
      <trkpt lat="43.24415" lon="-0.67391">
        <ele>174.62</ele>
        <time>2021-08-20T08:21:12Z</time>
      </trkpt>
      <trkpt lat="43.2445" lon="-0.67424">
        <ele>174.62</ele>
        <time>2021-08-20T08:21:20Z</time>
      </trkpt>
      <trkpt lat="43.24489" lon="-0.67473">
        <ele>174.62</ele>
        <time>2021-08-20T08:21:29Z</time>
      </trkpt>
      <trkpt lat="43.24523" lon="-0.67506">
        <ele>174.62</ele>
        <time>2021-08-20T08:21:36Z</time>
      </trkpt>
      <trkpt lat="43.24567" lon="-0.67541">
        <ele>174.14</ele>
        <time>2021-08-20T08:21:44Z</time>
      </trkpt>
      <trkpt lat="43.24606" lon="-0.67563">
        <ele>174.14</ele>
        <time>2021-08-20T08:21:51Z</time>
      </trkpt>
      <trkpt lat="43.24658" lon="-0.67572">
        <ele>174.14</ele>
        <time>2021-08-20T08:22:00Z</time>
      </trkpt>
      <trkpt lat="43.24718" lon="-0.67581">
        <ele>174.14</ele>
        <time>2021-08-20T08:22:10Z</time>
      </trkpt>
      <trkpt lat="43.24729" lon="-0.67582">
        <ele>174.14</ele>
        <time>2021-08-20T08:22:12Z</time>
      </trkpt>
      <trkpt lat="43.24733" lon="-0.67582">
        <ele>174.14</ele>
        <time>2021-08-20T08:22:13Z</time>
      </trkpt>
      <trkpt lat="43.24738" lon="-0.6758">
        <ele>173.66</ele>
        <time>2021-08-20T08:22:14Z</time>
      </trkpt>
      <trkpt lat="43.24742" lon="-0.67578">
        <ele>175.1</ele>
        <time>2021-08-20T08:22:15Z</time>
      </trkpt>
      <trkpt lat="43.24746" lon="-0.67575">
        <ele>175.1</ele>
        <time>2021-08-20T08:22:16Z</time>
      </trkpt>
      <trkpt lat="43.24749" lon="-0.67572">
        <ele>175.58</ele>
        <time>2021-08-20T08:22:17Z</time>
      </trkpt>
      <trkpt lat="43.24773" lon="-0.67555">
        <ele>177.02</ele>
        <time>2021-08-20T08:22:25Z</time>
      </trkpt>
      <trkpt lat="43.24791" lon="-0.67544">
        <ele>178.46</ele>
        <time>2021-08-20T08:22:32Z</time>
      </trkpt>
      <trkpt lat="43.24804" lon="-0.67528">
        <ele>180.38</ele>
        <time>2021-08-20T08:22:39Z</time>
      </trkpt>
      <trkpt lat="43.24816" lon="-0.67511">
        <ele>181.35</ele>
        <time>2021-08-20T08:22:48Z</time>
      </trkpt>
      <trkpt lat="43.24832" lon="-0.67498">
        <ele>182.31</ele>
        <time>2021-08-20T08:22:57Z</time>
      </trkpt>
      <trkpt lat="43.24846" lon="-0.67486">
        <ele>184.23</ele>
        <time>2021-08-20T08:23:07Z</time>
      </trkpt>
      <trkpt lat="43.24857" lon="-0.67477">
        <ele>186.15</ele>
        <time>2021-08-20T08:23:16Z</time>
      </trkpt>
      <trkpt lat="43.24869" lon="-0.67477">
        <ele>186.63</ele>
        <time>2021-08-20T08:23:23Z</time>
      </trkpt>
      <trkpt lat="43.24883" lon="-0.67478">
        <ele>187.11</ele>
        <time>2021-08-20T08:23:29Z</time>
      </trkpt>
      <trkpt lat="43.24897" lon="-0.67476">
        <ele>188.08</ele>
        <time>2021-08-20T08:23:36Z</time>
      </trkpt>
      <trkpt lat="43.24922" lon="-0.67476">
        <ele>188.08</ele>
        <time>2021-08-20T08:23:44Z</time>
      </trkpt>
      <trkpt lat="43.24949" lon="-0.67473">
        <ele>189.04</ele>
        <time>2021-08-20T08:23:52Z</time>
      </trkpt>
      <trkpt lat="43.24968" lon="-0.67471">
        <ele>189.04</ele>
        <time>2021-08-20T08:23:57Z</time>
      </trkpt>
      <trkpt lat="43.24981" lon="-0.67469">
        <ele>188.08</ele>
        <time>2021-08-20T08:24:02Z</time>
      </trkpt>
      <trkpt lat="43.24982" lon="-0.6747">
        <ele>188.08</ele>
        <time>2021-08-20T08:24:03Z</time>
      </trkpt>
      <trkpt lat="43.24983" lon="-0.67469">
        <ele>188.08</ele>
        <time>2021-08-20T08:24:09Z</time>
      </trkpt>
      <trkpt lat="43.24988" lon="-0.67468">
        <ele>188.08</ele>
        <time>2021-08-20T08:24:17Z</time>
      </trkpt>
      <trkpt lat="43.24995" lon="-0.67464">
        <ele>189.04</ele>
        <time>2021-08-20T08:24:26Z</time>
      </trkpt>
      <trkpt lat="43.25003" lon="-0.6746">
        <ele>190</ele>
        <time>2021-08-20T08:24:35Z</time>
      </trkpt>
      <trkpt lat="43.25006" lon="-0.67456">
        <ele>190.48</ele>
        <time>2021-08-20T08:24:43Z</time>
      </trkpt>
      <trkpt lat="43.25013" lon="-0.67453">
        <ele>191.92</ele>
        <time>2021-08-20T08:24:50Z</time>
      </trkpt>
      <trkpt lat="43.25017" lon="-0.67452">
        <ele>192.4</ele>
        <time>2021-08-20T08:24:58Z</time>
      </trkpt>
      <trkpt lat="43.2502" lon="-0.6745">
        <ele>192.4</ele>
        <time>2021-08-20T08:25:02Z</time>
      </trkpt>
      <trkpt lat="43.25022" lon="-0.67449">
        <ele>192.4</ele>
        <time>2021-08-20T08:25:03Z</time>
      </trkpt>
      <trkpt lat="43.25024" lon="-0.67448">
        <ele>192.4</ele>
        <time>2021-08-20T08:25:05Z</time>
      </trkpt>
      <trkpt lat="43.25026" lon="-0.67448">
        <ele>192.4</ele>
        <time>2021-08-20T08:25:06Z</time>
      </trkpt>
      <trkpt lat="43.25027" lon="-0.67448">
        <ele>192.4</ele>
        <time>2021-08-20T08:25:07Z</time>
      </trkpt>
      <trkpt lat="43.25029" lon="-0.67447">
        <ele>192.4</ele>
        <time>2021-08-20T08:25:08Z</time>
      </trkpt>
      <trkpt lat="43.2503" lon="-0.67446">
        <ele>192.4</ele>
        <time>2021-08-20T08:25:09Z</time>
      </trkpt>
      <trkpt lat="43.25033" lon="-0.67445">
        <ele>193.36</ele>
        <time>2021-08-20T08:25:14Z</time>
      </trkpt>
      <trkpt lat="43.25038" lon="-0.67443">
        <ele>193.36</ele>
        <time>2021-08-20T08:25:21Z</time>
      </trkpt>
      <trkpt lat="43.25042" lon="-0.67441">
        <ele>194.32</ele>
        <time>2021-08-20T08:25:28Z</time>
      </trkpt>
      <trkpt lat="43.25047" lon="-0.67438">
        <ele>194.8</ele>
        <time>2021-08-20T08:25:35Z</time>
      </trkpt>
      <trkpt lat="43.25051" lon="-0.67437">
        <ele>194.8</ele>
        <time>2021-08-20T08:25:43Z</time>
      </trkpt>
      <trkpt lat="43.25051" lon="-0.67437">
        <ele>194.8</ele>
        <time>2021-08-20T08:25:50Z</time>
      </trkpt>
      <trkpt lat="43.25052" lon="-0.67438">
        <ele>194.8</ele>
        <time>2021-08-20T08:25:55Z</time>
      </trkpt>
      <trkpt lat="43.25056" lon="-0.67439">
        <ele>195.28</ele>
        <time>2021-08-20T08:26:03Z</time>
      </trkpt>
      <trkpt lat="43.25061" lon="-0.67438">
        <ele>195.28</ele>
        <time>2021-08-20T08:26:11Z</time>
      </trkpt>
      <trkpt lat="43.25063" lon="-0.67439">
        <ele>195.28</ele>
        <time>2021-08-20T08:26:19Z</time>
      </trkpt>
      <trkpt lat="43.25067" lon="-0.6744">
        <ele>195.77</ele>
        <time>2021-08-20T08:26:27Z</time>
      </trkpt>
      <trkpt lat="43.25072" lon="-0.67441">
        <ele>195.77</ele>
        <time>2021-08-20T08:26:35Z</time>
      </trkpt>
      <trkpt lat="43.25078" lon="-0.67443">
        <ele>193.84</ele>
        <time>2021-08-20T08:26:44Z</time>
      </trkpt>
      <trkpt lat="43.25082" lon="-0.67445">
        <ele>192.88</ele>
        <time>2021-08-20T08:26:52Z</time>
      </trkpt>
      <trkpt lat="43.25084" lon="-0.67445">
        <ele>193.36</ele>
        <time>2021-08-20T08:27:03Z</time>
      </trkpt>
      <trkpt lat="43.25092" lon="-0.67449">
        <ele>192.4</ele>
        <time>2021-08-20T08:27:08Z</time>
      </trkpt>
      <trkpt lat="43.25098" lon="-0.67454">
        <ele>191.44</ele>
        <time>2021-08-20T08:27:14Z</time>
      </trkpt>
      <trkpt lat="43.25101" lon="-0.67457">
        <ele>190.96</ele>
        <time>2021-08-20T08:27:20Z</time>
      </trkpt>
      <trkpt lat="43.25103" lon="-0.67458">
        <ele>190.48</ele>
        <time>2021-08-20T08:27:26Z</time>
      </trkpt>
      <trkpt lat="43.25104" lon="-0.67458">
        <ele>190.48</ele>
        <time>2021-08-20T08:27:33Z</time>
      </trkpt>
      <trkpt lat="43.25106" lon="-0.67459">
        <ele>190</ele>
        <time>2021-08-20T08:27:39Z</time>
      </trkpt>
      <trkpt lat="43.2511" lon="-0.6746">
        <ele>190</ele>
        <time>2021-08-20T08:27:47Z</time>
      </trkpt>
      <trkpt lat="43.25113" lon="-0.67462">
        <ele>189.04</ele>
        <time>2021-08-20T08:27:53Z</time>
      </trkpt>
      <trkpt lat="43.25118" lon="-0.67466">
        <ele>188.56</ele>
        <time>2021-08-20T08:28:00Z</time>
      </trkpt>
      <trkpt lat="43.2512" lon="-0.67469">
        <ele>188.08</ele>
        <time>2021-08-20T08:28:07Z</time>
      </trkpt>
      <trkpt lat="43.25128" lon="-0.67471">
        <ele>187.11</ele>
        <time>2021-08-20T08:28:14Z</time>
      </trkpt>
      <trkpt lat="43.25132" lon="-0.67471">
        <ele>187.59</ele>
        <time>2021-08-20T08:28:20Z</time>
      </trkpt>
      <trkpt lat="43.25137" lon="-0.67471">
        <ele>187.59</ele>
        <time>2021-08-20T08:28:28Z</time>
      </trkpt>
      <trkpt lat="43.25138" lon="-0.67469">
        <ele>189.04</ele>
        <time>2021-08-20T08:28:32Z</time>
      </trkpt>
      <trkpt lat="43.25139" lon="-0.67469">
        <ele>190</ele>
        <time>2021-08-20T08:28:40Z</time>
      </trkpt>
      <trkpt lat="43.2514" lon="-0.67466">
        <ele>190</ele>
        <time>2021-08-20T08:28:47Z</time>
      </trkpt>
      <trkpt lat="43.25145" lon="-0.67462">
        <ele>190.48</ele>
        <time>2021-08-20T08:28:56Z</time>
      </trkpt>
      <trkpt lat="43.25148" lon="-0.67465">
        <ele>189.04</ele>
        <time>2021-08-20T08:29:02Z</time>
      </trkpt>
      <trkpt lat="43.25148" lon="-0.67468">
        <ele>188.56</ele>
        <time>2021-08-20T08:29:11Z</time>
      </trkpt>
      <trkpt lat="43.2515" lon="-0.67473">
        <ele>188.08</ele>
        <time>2021-08-20T08:29:20Z</time>
      </trkpt>
      <trkpt lat="43.25148" lon="-0.67474">
        <ele>187.59</ele>
        <time>2021-08-20T08:29:28Z</time>
      </trkpt>
      <trkpt lat="43.25149" lon="-0.67473">
        <ele>187.59</ele>
        <time>2021-08-20T08:29:39Z</time>
      </trkpt>
      <trkpt lat="43.2515" lon="-0.67473">
        <ele>187.59</ele>
        <time>2021-08-20T08:29:47Z</time>
      </trkpt>
      <trkpt lat="43.2515" lon="-0.67471">
        <ele>187.59</ele>
        <time>2021-08-20T08:30:00Z</time>
      </trkpt>
      <trkpt lat="43.2515" lon="-0.67472">
        <ele>187.59</ele>
        <time>2021-08-20T08:30:14Z</time>
      </trkpt>
      <trkpt lat="43.25154" lon="-0.67469">
        <ele>187.59</ele>
        <time>2021-08-20T08:30:28Z</time>
      </trkpt>
      <trkpt lat="43.25155" lon="-0.6747">
        <ele>187.59</ele>
        <time>2021-08-20T08:30:40Z</time>
      </trkpt>
      <trkpt lat="43.25157" lon="-0.6747">
        <ele>187.59</ele>
        <time>2021-08-20T08:30:52Z</time>
      </trkpt>
      <trkpt lat="43.2516" lon="-0.67469">
        <ele>186.63</ele>
        <time>2021-08-20T08:31:02Z</time>
      </trkpt>
      <trkpt lat="43.2516" lon="-0.67473">
        <ele>185.19</ele>
        <time>2021-08-20T08:31:10Z</time>
      </trkpt>
      <trkpt lat="43.25164" lon="-0.67475">
        <ele>184.23</ele>
        <time>2021-08-20T08:31:16Z</time>
      </trkpt>
      <trkpt lat="43.25168" lon="-0.67477">
        <ele>184.23</ele>
        <time>2021-08-20T08:31:23Z</time>
      </trkpt>
      <trkpt lat="43.25182" lon="-0.67483">
        <ele>183.27</ele>
        <time>2021-08-20T08:31:30Z</time>
      </trkpt>
      <trkpt lat="43.25192" lon="-0.67483">
        <ele>182.79</ele>
        <time>2021-08-20T08:31:34Z</time>
      </trkpt>
      <trkpt lat="43.25201" lon="-0.67479">
        <ele>182.79</ele>
        <time>2021-08-20T08:31:41Z</time>
      </trkpt>
      <trkpt lat="43.25206" lon="-0.67478">
        <ele>182.79</ele>
        <time>2021-08-20T08:31:44Z</time>
      </trkpt>
      <trkpt lat="43.25212" lon="-0.67479">
        <ele>182.79</ele>
        <time>2021-08-20T08:31:48Z</time>
      </trkpt>
      <trkpt lat="43.2523" lon="-0.67485">
        <ele>181.83</ele>
        <time>2021-08-20T08:31:55Z</time>
      </trkpt>
      <trkpt lat="43.25242" lon="-0.67488">
        <ele>181.83</ele>
        <time>2021-08-20T08:32:02Z</time>
      </trkpt>
      <trkpt lat="43.25258" lon="-0.67487">
        <ele>181.83</ele>
        <time>2021-08-20T08:32:09Z</time>
      </trkpt>
      <trkpt lat="43.25259" lon="-0.67486">
        <ele>181.83</ele>
        <time>2021-08-20T08:32:10Z</time>
      </trkpt>
      <trkpt lat="43.25262" lon="-0.67484">
        <ele>182.79</ele>
        <time>2021-08-20T08:32:12Z</time>
      </trkpt>
      <trkpt lat="43.25271" lon="-0.67483">
        <ele>183.75</ele>
        <time>2021-08-20T08:32:20Z</time>
      </trkpt>
      <trkpt lat="43.25278" lon="-0.67481">
        <ele>184.23</ele>
        <time>2021-08-20T08:32:33Z</time>
      </trkpt>
      <trkpt lat="43.2528" lon="-0.67481">
        <ele>184.71</ele>
        <time>2021-08-20T08:32:41Z</time>
      </trkpt>
      <trkpt lat="43.25283" lon="-0.67481">
        <ele>184.71</ele>
        <time>2021-08-20T08:32:49Z</time>
      </trkpt>
      <trkpt lat="43.25288" lon="-0.6748">
        <ele>184.71</ele>
        <time>2021-08-20T08:32:57Z</time>
      </trkpt>
      <trkpt lat="43.25295" lon="-0.67476">
        <ele>185.19</ele>
        <time>2021-08-20T08:33:05Z</time>
      </trkpt>
      <trkpt lat="43.25301" lon="-0.67474">
        <ele>186.63</ele>
        <time>2021-08-20T08:33:12Z</time>
      </trkpt>
      <trkpt lat="43.25307" lon="-0.67476">
        <ele>187.11</ele>
        <time>2021-08-20T08:33:20Z</time>
      </trkpt>
      <trkpt lat="43.25312" lon="-0.67475">
        <ele>188.08</ele>
        <time>2021-08-20T08:33:28Z</time>
      </trkpt>
      <trkpt lat="43.25313" lon="-0.67474">
        <ele>188.08</ele>
        <time>2021-08-20T08:33:36Z</time>
      </trkpt>
      <trkpt lat="43.25315" lon="-0.67472">
        <ele>188.56</ele>
        <time>2021-08-20T08:33:48Z</time>
      </trkpt>
      <trkpt lat="43.25318" lon="-0.67475">
        <ele>189.04</ele>
        <time>2021-08-20T08:33:57Z</time>
      </trkpt>
      <trkpt lat="43.25321" lon="-0.67472">
        <ele>190.48</ele>
        <time>2021-08-20T08:34:05Z</time>
      </trkpt>
      <trkpt lat="43.25324" lon="-0.67472">
        <ele>190.96</ele>
        <time>2021-08-20T08:34:14Z</time>
      </trkpt>
      <trkpt lat="43.25324" lon="-0.67471">
        <ele>191.92</ele>
        <time>2021-08-20T08:34:21Z</time>
      </trkpt>
      <trkpt lat="43.25325" lon="-0.67471">
        <ele>192.4</ele>
        <time>2021-08-20T08:34:29Z</time>
      </trkpt>
      <trkpt lat="43.25327" lon="-0.6747">
        <ele>192.88</ele>
        <time>2021-08-20T08:34:38Z</time>
      </trkpt>
      <trkpt lat="43.2533" lon="-0.67468">
        <ele>193.84</ele>
        <time>2021-08-20T08:34:45Z</time>
      </trkpt>
      <trkpt lat="43.25334" lon="-0.67465">
        <ele>195.28</ele>
        <time>2021-08-20T08:34:53Z</time>
      </trkpt>
      <trkpt lat="43.2534" lon="-0.67463">
        <ele>195.28</ele>
        <time>2021-08-20T08:35:01Z</time>
      </trkpt>
      <trkpt lat="43.25342" lon="-0.67462">
        <ele>195.28</ele>
        <time>2021-08-20T08:35:07Z</time>
      </trkpt>
      <trkpt lat="43.25342" lon="-0.67458">
        <ele>195.77</ele>
        <time>2021-08-20T08:35:16Z</time>
      </trkpt>
      <trkpt lat="43.25338" lon="-0.67454">
        <ele>197.21</ele>
        <time>2021-08-20T08:35:24Z</time>
      </trkpt>
      <trkpt lat="43.25336" lon="-0.67452">
        <ele>197.69</ele>
        <time>2021-08-20T08:35:33Z</time>
      </trkpt>
      <trkpt lat="43.25335" lon="-0.67448">
        <ele>197.69</ele>
        <time>2021-08-20T08:35:42Z</time>
      </trkpt>
      <trkpt lat="43.25334" lon="-0.67447">
        <ele>198.17</ele>
        <time>2021-08-20T08:35:49Z</time>
      </trkpt>
      <trkpt lat="43.25335" lon="-0.67446">
        <ele>198.17</ele>
        <time>2021-08-20T08:35:59Z</time>
      </trkpt>
      <trkpt lat="43.25333" lon="-0.6744">
        <ele>198.65</ele>
        <time>2021-08-20T08:36:08Z</time>
      </trkpt>
      <trkpt lat="43.25332" lon="-0.6743">
        <ele>200.09</ele>
        <time>2021-08-20T08:36:17Z</time>
      </trkpt>
      <trkpt lat="43.25331" lon="-0.67422">
        <ele>201.05</ele>
        <time>2021-08-20T08:36:26Z</time>
      </trkpt>
      <trkpt lat="43.2533" lon="-0.67415">
        <ele>202.01</ele>
        <time>2021-08-20T08:36:34Z</time>
      </trkpt>
      <trkpt lat="43.2533" lon="-0.67406">
        <ele>203.94</ele>
        <time>2021-08-20T08:36:44Z</time>
      </trkpt>
      <trkpt lat="43.25331" lon="-0.67399">
        <ele>204.42</ele>
        <time>2021-08-20T08:36:51Z</time>
      </trkpt>
      <trkpt lat="43.25331" lon="-0.67391">
        <ele>206.34</ele>
        <time>2021-08-20T08:37:00Z</time>
      </trkpt>
      <trkpt lat="43.25331" lon="-0.67385">
        <ele>206.82</ele>
        <time>2021-08-20T08:37:07Z</time>
      </trkpt>
      <trkpt lat="43.25331" lon="-0.67381">
        <ele>206.34</ele>
        <time>2021-08-20T08:37:14Z</time>
      </trkpt>
      <trkpt lat="43.25338" lon="-0.67367">
        <ele>206.34</ele>
        <time>2021-08-20T08:37:21Z</time>
      </trkpt>
      <trkpt lat="43.25348" lon="-0.67355">
        <ele>205.38</ele>
        <time>2021-08-20T08:37:26Z</time>
      </trkpt>
      <trkpt lat="43.25355" lon="-0.67348">
        <ele>206.34</ele>
        <time>2021-08-20T08:37:31Z</time>
      </trkpt>
      <trkpt lat="43.25367" lon="-0.6735">
        <ele>206.82</ele>
        <time>2021-08-20T08:37:39Z</time>
      </trkpt>
      <trkpt lat="43.25379" lon="-0.67353">
        <ele>206.82</ele>
        <time>2021-08-20T08:37:45Z</time>
      </trkpt>
      <trkpt lat="43.25382" lon="-0.67353">
        <ele>206.82</ele>
        <time>2021-08-20T08:37:51Z</time>
      </trkpt>
      <trkpt lat="43.25389" lon="-0.67355">
        <ele>206.82</ele>
        <time>2021-08-20T08:37:58Z</time>
      </trkpt>
      <trkpt lat="43.25402" lon="-0.67359">
        <ele>206.82</ele>
        <time>2021-08-20T08:38:06Z</time>
      </trkpt>
      <trkpt lat="43.25414" lon="-0.67364">
        <ele>206.82</ele>
        <time>2021-08-20T08:38:12Z</time>
      </trkpt>
      <trkpt lat="43.25431" lon="-0.67373">
        <ele>206.82</ele>
        <time>2021-08-20T08:38:19Z</time>
      </trkpt>
      <trkpt lat="43.2545" lon="-0.6738">
        <ele>207.3</ele>
        <time>2021-08-20T08:38:26Z</time>
      </trkpt>
      <trkpt lat="43.25462" lon="-0.6738">
        <ele>208.26</ele>
        <time>2021-08-20T08:38:31Z</time>
      </trkpt>
      <trkpt lat="43.25479" lon="-0.67383">
        <ele>208.26</ele>
        <time>2021-08-20T08:38:37Z</time>
      </trkpt>
      <trkpt lat="43.25491" lon="-0.67384">
        <ele>208.74</ele>
        <time>2021-08-20T08:38:42Z</time>
      </trkpt>
      <trkpt lat="43.25505" lon="-0.6739">
        <ele>208.74</ele>
        <time>2021-08-20T08:38:48Z</time>
      </trkpt>
      <trkpt lat="43.25513" lon="-0.67399">
        <ele>207.3</ele>
        <time>2021-08-20T08:38:51Z</time>
      </trkpt>
      <trkpt lat="43.25529" lon="-0.67421">
        <ele>205.38</ele>
        <time>2021-08-20T08:38:58Z</time>
      </trkpt>
      <trkpt lat="43.25531" lon="-0.67426">
        <ele>205.38</ele>
        <time>2021-08-20T08:38:59Z</time>
      </trkpt>
      <trkpt lat="43.25541" lon="-0.67445">
        <ele>203.94</ele>
        <time>2021-08-20T08:39:03Z</time>
      </trkpt>
      <trkpt lat="43.25565" lon="-0.67482">
        <ele>202.98</ele>
        <time>2021-08-20T08:39:12Z</time>
      </trkpt>
      <trkpt lat="43.25581" lon="-0.67491">
        <ele>201.05</ele>
        <time>2021-08-20T08:39:17Z</time>
      </trkpt>
      <trkpt lat="43.25589" lon="-0.67495">
        <ele>198.65</ele>
        <time>2021-08-20T08:39:19Z</time>
      </trkpt>
      <trkpt lat="43.25608" lon="-0.67496">
        <ele>192.4</ele>
        <time>2021-08-20T08:39:23Z</time>
      </trkpt>
      <trkpt lat="43.25621" lon="-0.67502">
        <ele>190.48</ele>
        <time>2021-08-20T08:39:26Z</time>
      </trkpt>
      <trkpt lat="43.25625" lon="-0.67511">
        <ele>189.52</ele>
        <time>2021-08-20T08:39:28Z</time>
      </trkpt>
      <trkpt lat="43.25632" lon="-0.67525">
        <ele>188.08</ele>
        <time>2021-08-20T08:39:32Z</time>
      </trkpt>
      <trkpt lat="43.25641" lon="-0.67529">
        <ele>185.67</ele>
        <time>2021-08-20T08:39:36Z</time>
      </trkpt>
      <trkpt lat="43.25647" lon="-0.67531">
        <ele>184.23</ele>
        <time>2021-08-20T08:39:38Z</time>
      </trkpt>
      <trkpt lat="43.25653" lon="-0.6755">
        <ele>182.31</ele>
        <time>2021-08-20T08:39:44Z</time>
      </trkpt>
      <trkpt lat="43.25651" lon="-0.67557">
        <ele>181.83</ele>
        <time>2021-08-20T08:39:46Z</time>
      </trkpt>
      <trkpt lat="43.2565" lon="-0.67577">
        <ele>179.9</ele>
        <time>2021-08-20T08:39:52Z</time>
      </trkpt>
      <trkpt lat="43.2565" lon="-0.67597">
        <ele>178.46</ele>
        <time>2021-08-20T08:39:58Z</time>
      </trkpt>
      <trkpt lat="43.25659" lon="-0.67607">
        <ele>176.54</ele>
        <time>2021-08-20T08:40:04Z</time>
      </trkpt>
      <trkpt lat="43.25663" lon="-0.67607">
        <ele>175.58</ele>
        <time>2021-08-20T08:40:05Z</time>
      </trkpt>
      <trkpt lat="43.25679" lon="-0.67602">
        <ele>175.58</ele>
        <time>2021-08-20T08:40:11Z</time>
      </trkpt>
      <trkpt lat="43.25682" lon="-0.67601">
        <ele>176.54</ele>
        <time>2021-08-20T08:40:15Z</time>
      </trkpt>
      <trkpt lat="43.25687" lon="-0.676">
        <ele>177.98</ele>
        <time>2021-08-20T08:40:22Z</time>
      </trkpt>
      <trkpt lat="43.25691" lon="-0.67596">
        <ele>178.94</ele>
        <time>2021-08-20T08:40:29Z</time>
      </trkpt>
      <trkpt lat="43.25694" lon="-0.67594">
        <ele>179.42</ele>
        <time>2021-08-20T08:40:38Z</time>
      </trkpt>
      <trkpt lat="43.25694" lon="-0.67594">
        <ele>179.42</ele>
        <time>2021-08-20T08:40:45Z</time>
      </trkpt>
      <trkpt lat="43.25694" lon="-0.67597">
        <ele>179.42</ele>
        <time>2021-08-20T08:41:00Z</time>
      </trkpt>
      <trkpt lat="43.25696" lon="-0.67593">
        <ele>179.42</ele>
        <time>2021-08-20T08:41:13Z</time>
      </trkpt>
      <trkpt lat="43.25696" lon="-0.67594">
        <ele>179.42</ele>
        <time>2021-08-20T08:41:25Z</time>
      </trkpt>
      <trkpt lat="43.25694" lon="-0.67593">
        <ele>179.42</ele>
        <time>2021-08-20T08:41:37Z</time>
      </trkpt>
      <trkpt lat="43.25695" lon="-0.67592">
        <ele>179.42</ele>
        <time>2021-08-20T08:41:46Z</time>
      </trkpt>
      <trkpt lat="43.25698" lon="-0.67591">
        <ele>179.42</ele>
        <time>2021-08-20T08:41:54Z</time>
      </trkpt>
      <trkpt lat="43.25704" lon="-0.67586">
        <ele>179.42</ele>
        <time>2021-08-20T08:41:59Z</time>
      </trkpt>
      <trkpt lat="43.25717" lon="-0.67585">
        <ele>179.42</ele>
        <time>2021-08-20T08:42:05Z</time>
      </trkpt>
      <trkpt lat="43.25726" lon="-0.67584">
        <ele>179.9</ele>
        <time>2021-08-20T08:42:10Z</time>
      </trkpt>
      <trkpt lat="43.25734" lon="-0.67582">
        <ele>180.87</ele>
        <time>2021-08-20T08:42:17Z</time>
      </trkpt>
      <trkpt lat="43.25737" lon="-0.67582">
        <ele>180.87</ele>
        <time>2021-08-20T08:42:19Z</time>
      </trkpt>
      <trkpt lat="43.2575" lon="-0.67578">
        <ele>182.31</ele>
        <time>2021-08-20T08:42:29Z</time>
      </trkpt>
      <trkpt lat="43.25757" lon="-0.67582">
        <ele>182.79</ele>
        <time>2021-08-20T08:42:34Z</time>
      </trkpt>
      <trkpt lat="43.25766" lon="-0.67574">
        <ele>183.75</ele>
        <time>2021-08-20T08:42:43Z</time>
      </trkpt>
      <trkpt lat="43.25774" lon="-0.67564">
        <ele>185.19</ele>
        <time>2021-08-20T08:42:52Z</time>
      </trkpt>
      <trkpt lat="43.2578" lon="-0.67554">
        <ele>186.63</ele>
        <time>2021-08-20T08:43:00Z</time>
      </trkpt>
      <trkpt lat="43.25785" lon="-0.67544">
        <ele>187.59</ele>
        <time>2021-08-20T08:43:07Z</time>
      </trkpt>
      <trkpt lat="43.25792" lon="-0.67532">
        <ele>189.04</ele>
        <time>2021-08-20T08:43:16Z</time>
      </trkpt>
      <trkpt lat="43.25798" lon="-0.67521">
        <ele>191.44</ele>
        <time>2021-08-20T08:43:25Z</time>
      </trkpt>
      <trkpt lat="43.25806" lon="-0.67508">
        <ele>193.36</ele>
        <time>2021-08-20T08:43:35Z</time>
      </trkpt>
      <trkpt lat="43.25811" lon="-0.67498">
        <ele>195.28</ele>
        <time>2021-08-20T08:43:43Z</time>
      </trkpt>
      <trkpt lat="43.25812" lon="-0.67497">
        <ele>195.28</ele>
        <time>2021-08-20T08:43:44Z</time>
      </trkpt>
      <trkpt lat="43.25818" lon="-0.67484">
        <ele>196.73</ele>
        <time>2021-08-20T08:43:54Z</time>
      </trkpt>
      <trkpt lat="43.25822" lon="-0.67473">
        <ele>198.65</ele>
        <time>2021-08-20T08:44:03Z</time>
      </trkpt>
      <trkpt lat="43.25823" lon="-0.6747">
        <ele>199.13</ele>
        <time>2021-08-20T08:44:05Z</time>
      </trkpt>
      <trkpt lat="43.25824" lon="-0.67466">
        <ele>199.61</ele>
        <time>2021-08-20T08:44:07Z</time>
      </trkpt>
      <trkpt lat="43.25829" lon="-0.67454">
        <ele>201.05</ele>
        <time>2021-08-20T08:44:16Z</time>
      </trkpt>
      <trkpt lat="43.25828" lon="-0.67453">
        <ele>202.01</ele>
        <time>2021-08-20T08:44:23Z</time>
      </trkpt>
      <trkpt lat="43.2583" lon="-0.67447">
        <ele>202.98</ele>
        <time>2021-08-20T08:44:31Z</time>
      </trkpt>
      <trkpt lat="43.25833" lon="-0.67435">
        <ele>203.94</ele>
        <time>2021-08-20T08:44:41Z</time>
      </trkpt>
      <trkpt lat="43.25835" lon="-0.6742">
        <ele>205.38</ele>
        <time>2021-08-20T08:44:52Z</time>
      </trkpt>
      <trkpt lat="43.25836" lon="-0.67408">
        <ele>206.82</ele>
        <time>2021-08-20T08:45:00Z</time>
      </trkpt>
      <trkpt lat="43.25838" lon="-0.67396">
        <ele>208.26</ele>
        <time>2021-08-20T08:45:09Z</time>
      </trkpt>
      <trkpt lat="43.25838" lon="-0.67385">
        <ele>209.7</ele>
        <time>2021-08-20T08:45:18Z</time>
      </trkpt>
      <trkpt lat="43.25838" lon="-0.67377">
        <ele>210.67</ele>
        <time>2021-08-20T08:45:25Z</time>
      </trkpt>
      <trkpt lat="43.25839" lon="-0.67371">
        <ele>211.15</ele>
        <time>2021-08-20T08:45:33Z</time>
      </trkpt>
      <trkpt lat="43.25839" lon="-0.67358">
        <ele>212.11</ele>
        <time>2021-08-20T08:45:40Z</time>
      </trkpt>
      <trkpt lat="43.2584" lon="-0.67353">
        <ele>212.59</ele>
        <time>2021-08-20T08:45:42Z</time>
      </trkpt>
      <trkpt lat="43.25839" lon="-0.67341">
        <ele>213.07</ele>
        <time>2021-08-20T08:45:46Z</time>
      </trkpt>
      <trkpt lat="43.25838" lon="-0.67334">
        <ele>213.55</ele>
        <time>2021-08-20T08:45:49Z</time>
      </trkpt>
      <trkpt lat="43.25835" lon="-0.67318">
        <ele>214.51</ele>
        <time>2021-08-20T08:45:55Z</time>
      </trkpt>
      <trkpt lat="43.25827" lon="-0.67289">
        <ele>214.99</ele>
        <time>2021-08-20T08:46:04Z</time>
      </trkpt>
      <trkpt lat="43.25819" lon="-0.67257">
        <ele>215.47</ele>
        <time>2021-08-20T08:46:12Z</time>
      </trkpt>
      <trkpt lat="43.25814" lon="-0.67238">
        <ele>215.95</ele>
        <time>2021-08-20T08:46:17Z</time>
      </trkpt>
      <trkpt lat="43.25815" lon="-0.67235">
        <ele>216.43</ele>
        <time>2021-08-20T08:46:18Z</time>
      </trkpt>
      <trkpt lat="43.25816" lon="-0.67231">
        <ele>216.91</ele>
        <time>2021-08-20T08:46:19Z</time>
      </trkpt>
      <trkpt lat="43.25817" lon="-0.67228">
        <ele>216.91</ele>
        <time>2021-08-20T08:46:20Z</time>
      </trkpt>
      <trkpt lat="43.25819" lon="-0.67225">
        <ele>217.4</ele>
        <time>2021-08-20T08:46:21Z</time>
      </trkpt>
      <trkpt lat="43.25841" lon="-0.67201">
        <ele>218.84</ele>
        <time>2021-08-20T08:46:30Z</time>
      </trkpt>
      <trkpt lat="43.25865" lon="-0.67177">
        <ele>219.32</ele>
        <time>2021-08-20T08:46:39Z</time>
      </trkpt>
      <trkpt lat="43.25884" lon="-0.67154">
        <ele>219.8</ele>
        <time>2021-08-20T08:46:46Z</time>
      </trkpt>
      <trkpt lat="43.25912" lon="-0.6713">
        <ele>220.28</ele>
        <time>2021-08-20T08:46:54Z</time>
      </trkpt>
      <trkpt lat="43.2594" lon="-0.67107">
        <ele>220.28</ele>
        <time>2021-08-20T08:47:02Z</time>
      </trkpt>
      <trkpt lat="43.25955" lon="-0.67091">
        <ele>220.28</ele>
        <time>2021-08-20T08:47:08Z</time>
      </trkpt>
      <trkpt lat="43.25956" lon="-0.67087">
        <ele>220.28</ele>
        <time>2021-08-20T08:47:09Z</time>
      </trkpt>
      <trkpt lat="43.25956" lon="-0.67083">
        <ele>220.28</ele>
        <time>2021-08-20T08:47:10Z</time>
      </trkpt>
      <trkpt lat="43.25955" lon="-0.67079">
        <ele>220.28</ele>
        <time>2021-08-20T08:47:11Z</time>
      </trkpt>
      <trkpt lat="43.25953" lon="-0.67076">
        <ele>220.28</ele>
        <time>2021-08-20T08:47:12Z</time>
      </trkpt>
      <trkpt lat="43.25951" lon="-0.67073">
        <ele>220.28</ele>
        <time>2021-08-20T08:47:13Z</time>
      </trkpt>
      <trkpt lat="43.25918" lon="-0.67036">
        <ele>220.28</ele>
        <time>2021-08-20T08:47:24Z</time>
      </trkpt>
      <trkpt lat="43.25892" lon="-0.67005">
        <ele>221.24</ele>
        <time>2021-08-20T08:47:33Z</time>
      </trkpt>
      <trkpt lat="43.25892" lon="-0.67001">
        <ele>220.76</ele>
        <time>2021-08-20T08:47:34Z</time>
      </trkpt>
      <trkpt lat="43.25894" lon="-0.66996">
        <ele>219.8</ele>
        <time>2021-08-20T08:47:35Z</time>
      </trkpt>
      <trkpt lat="43.25898" lon="-0.66994">
        <ele>219.8</ele>
        <time>2021-08-20T08:47:36Z</time>
      </trkpt>
      <trkpt lat="43.25903" lon="-0.66992">
        <ele>219.8</ele>
        <time>2021-08-20T08:47:37Z</time>
      </trkpt>
      <trkpt lat="43.25945" lon="-0.66976">
        <ele>217.88</ele>
        <time>2021-08-20T08:47:46Z</time>
      </trkpt>
      <trkpt lat="43.2595" lon="-0.66974">
        <ele>217.88</ele>
        <time>2021-08-20T08:47:47Z</time>
      </trkpt>
      <trkpt lat="43.25955" lon="-0.66972">
        <ele>217.88</ele>
        <time>2021-08-20T08:47:48Z</time>
      </trkpt>
      <trkpt lat="43.2598" lon="-0.66962">
        <ele>216.43</ele>
        <time>2021-08-20T08:47:53Z</time>
      </trkpt>
      <trkpt lat="43.26009" lon="-0.66948">
        <ele>215.47</ele>
        <time>2021-08-20T08:47:59Z</time>
      </trkpt>
      <trkpt lat="43.26013" lon="-0.66944">
        <ele>215.47</ele>
        <time>2021-08-20T08:48:00Z</time>
      </trkpt>
      <trkpt lat="43.26016" lon="-0.6694">
        <ele>214.99</ele>
        <time>2021-08-20T08:48:01Z</time>
      </trkpt>
      <trkpt lat="43.2603" lon="-0.66921">
        <ele>213.07</ele>
        <time>2021-08-20T08:48:07Z</time>
      </trkpt>
      <trkpt lat="43.26044" lon="-0.66907">
        <ele>210.19</ele>
        <time>2021-08-20T08:48:14Z</time>
      </trkpt>
      <trkpt lat="43.26045" lon="-0.66908">
        <ele>210.19</ele>
        <time>2021-08-20T08:48:21Z</time>
      </trkpt>
      <trkpt lat="43.26053" lon="-0.66909">
        <ele>208.74</ele>
        <time>2021-08-20T08:48:24Z</time>
      </trkpt>
      <trkpt lat="43.26063" lon="-0.66921">
        <ele>206.34</ele>
        <time>2021-08-20T08:48:28Z</time>
      </trkpt>
      <trkpt lat="43.26073" lon="-0.66932">
        <ele>204.42</ele>
        <time>2021-08-20T08:48:31Z</time>
      </trkpt>
      <trkpt lat="43.26081" lon="-0.66938">
        <ele>202.98</ele>
        <time>2021-08-20T08:48:33Z</time>
      </trkpt>
      <trkpt lat="43.26084" lon="-0.66942">
        <ele>202.49</ele>
        <time>2021-08-20T08:48:34Z</time>
      </trkpt>
      <trkpt lat="43.26106" lon="-0.66956">
        <ele>200.57</ele>
        <time>2021-08-20T08:48:40Z</time>
      </trkpt>
      <trkpt lat="43.2611" lon="-0.66959">
        <ele>199.61</ele>
        <time>2021-08-20T08:48:42Z</time>
      </trkpt>
      <trkpt lat="43.2612" lon="-0.66956">
        <ele>198.65</ele>
        <time>2021-08-20T08:48:46Z</time>
      </trkpt>
      <trkpt lat="43.26123" lon="-0.66955">
        <ele>198.65</ele>
        <time>2021-08-20T08:48:52Z</time>
      </trkpt>
      <trkpt lat="43.26123" lon="-0.66954">
        <ele>198.65</ele>
        <time>2021-08-20T08:49:03Z</time>
      </trkpt>
      <trkpt lat="43.26124" lon="-0.66955">
        <ele>198.65</ele>
        <time>2021-08-20T08:49:14Z</time>
      </trkpt>
      <trkpt lat="43.26124" lon="-0.66956">
        <ele>198.65</ele>
        <time>2021-08-20T08:49:15Z</time>
      </trkpt>
      <trkpt lat="43.26126" lon="-0.66963">
        <ele>198.65</ele>
        <time>2021-08-20T08:49:21Z</time>
      </trkpt>
      <trkpt lat="43.26126" lon="-0.66974">
        <ele>200.09</ele>
        <time>2021-08-20T08:49:29Z</time>
      </trkpt>
      <trkpt lat="43.26127" lon="-0.66977">
        <ele>200.09</ele>
        <time>2021-08-20T08:49:32Z</time>
      </trkpt>
      <trkpt lat="43.26131" lon="-0.66979">
        <ele>199.61</ele>
        <time>2021-08-20T08:49:38Z</time>
      </trkpt>
      <trkpt lat="43.26131" lon="-0.66979">
        <ele>199.61</ele>
        <time>2021-08-20T08:49:39Z</time>
      </trkpt>
      <trkpt lat="43.2614" lon="-0.66968">
        <ele>198.17</ele>
        <time>2021-08-20T08:49:46Z</time>
      </trkpt>
      <trkpt lat="43.26139" lon="-0.66953">
        <ele>197.21</ele>
        <time>2021-08-20T08:49:52Z</time>
      </trkpt>
      <trkpt lat="43.2614" lon="-0.66945">
        <ele>196.73</ele>
        <time>2021-08-20T08:49:59Z</time>
      </trkpt>
      <trkpt lat="43.26141" lon="-0.66947">
        <ele>196.73</ele>
        <time>2021-08-20T08:50:09Z</time>
      </trkpt>
      <trkpt lat="43.26142" lon="-0.66947">
        <ele>196.73</ele>
        <time>2021-08-20T08:50:10Z</time>
      </trkpt>
      <trkpt lat="43.26146" lon="-0.66947">
        <ele>196.25</ele>
        <time>2021-08-20T08:50:17Z</time>
      </trkpt>
      <trkpt lat="43.26148" lon="-0.66944">
        <ele>196.25</ele>
        <time>2021-08-20T08:50:21Z</time>
      </trkpt>
      <trkpt lat="43.26146" lon="-0.66943">
        <ele>196.25</ele>
        <time>2021-08-20T08:50:25Z</time>
      </trkpt>
      <trkpt lat="43.2614" lon="-0.66937">
        <ele>195.77</ele>
        <time>2021-08-20T08:50:33Z</time>
      </trkpt>
      <trkpt lat="43.26136" lon="-0.66933">
        <ele>195.77</ele>
        <time>2021-08-20T08:50:40Z</time>
      </trkpt>
      <trkpt lat="43.26137" lon="-0.66934">
        <ele>195.77</ele>
        <time>2021-08-20T08:50:53Z</time>
      </trkpt>
      <trkpt lat="43.26138" lon="-0.66935">
        <ele>195.77</ele>
        <time>2021-08-20T08:50:55Z</time>
      </trkpt>
      <trkpt lat="43.26139" lon="-0.66938">
        <ele>195.77</ele>
        <time>2021-08-20T08:50:58Z</time>
      </trkpt>
      <trkpt lat="43.26145" lon="-0.66947">
        <ele>195.77</ele>
        <time>2021-08-20T08:51:07Z</time>
      </trkpt>
      <trkpt lat="43.2615" lon="-0.66952">
        <ele>195.77</ele>
        <time>2021-08-20T08:51:16Z</time>
      </trkpt>
      <trkpt lat="43.26151" lon="-0.66952">
        <ele>195.77</ele>
        <time>2021-08-20T08:51:26Z</time>
      </trkpt>
      <trkpt lat="43.2615" lon="-0.66951">
        <ele>195.77</ele>
        <time>2021-08-20T08:51:34Z</time>
      </trkpt>
      <trkpt lat="43.2615" lon="-0.6695">
        <ele>195.77</ele>
        <time>2021-08-20T08:51:41Z</time>
      </trkpt>
      <trkpt lat="43.26146" lon="-0.66947">
        <ele>195.77</ele>
        <time>2021-08-20T08:51:48Z</time>
      </trkpt>
      <trkpt lat="43.26144" lon="-0.66945">
        <ele>195.77</ele>
        <time>2021-08-20T08:51:51Z</time>
      </trkpt>
      <trkpt lat="43.26137" lon="-0.66936">
        <ele>195.77</ele>
        <time>2021-08-20T08:52:01Z</time>
      </trkpt>
      <trkpt lat="43.26133" lon="-0.66923">
        <ele>195.77</ele>
        <time>2021-08-20T08:52:10Z</time>
      </trkpt>
      <trkpt lat="43.26131" lon="-0.66917">
        <ele>195.77</ele>
        <time>2021-08-20T08:52:17Z</time>
      </trkpt>
      <trkpt lat="43.26126" lon="-0.66911">
        <ele>195.77</ele>
        <time>2021-08-20T08:52:20Z</time>
      </trkpt>
      <trkpt lat="43.2612" lon="-0.66896">
        <ele>195.77</ele>
        <time>2021-08-20T08:52:26Z</time>
      </trkpt>
      <trkpt lat="43.26119" lon="-0.66894">
        <ele>195.77</ele>
        <time>2021-08-20T08:52:31Z</time>
      </trkpt>
      <trkpt lat="43.26118" lon="-0.66894">
        <ele>195.77</ele>
        <time>2021-08-20T08:52:43Z</time>
      </trkpt>
      <trkpt lat="43.26118" lon="-0.66892">
        <ele>195.77</ele>
        <time>2021-08-20T08:52:52Z</time>
      </trkpt>
      <trkpt lat="43.26117" lon="-0.66894">
        <ele>195.77</ele>
        <time>2021-08-20T08:53:07Z</time>
      </trkpt>
      <trkpt lat="43.26117" lon="-0.66894">
        <ele>195.28</ele>
        <time>2021-08-20T08:53:29Z</time>
      </trkpt>
      <trkpt lat="43.26116" lon="-0.66897">
        <ele>195.28</ele>
        <time>2021-08-20T08:53:46Z</time>
      </trkpt>
      <trkpt lat="43.26118" lon="-0.66894">
        <ele>195.28</ele>
        <time>2021-08-20T08:54:07Z</time>
      </trkpt>
      <trkpt lat="43.26122" lon="-0.66897">
        <ele>195.28</ele>
        <time>2021-08-20T08:54:11Z</time>
      </trkpt>
      <trkpt lat="43.26125" lon="-0.66908">
        <ele>195.28</ele>
        <time>2021-08-20T08:54:20Z</time>
      </trkpt>
      <trkpt lat="43.26127" lon="-0.6691">
        <ele>195.28</ele>
        <time>2021-08-20T08:54:26Z</time>
      </trkpt>
      <trkpt lat="43.26127" lon="-0.66912">
        <ele>195.28</ele>
        <time>2021-08-20T08:54:38Z</time>
      </trkpt>
      <trkpt lat="43.26129" lon="-0.66915">
        <ele>195.28</ele>
        <time>2021-08-20T08:54:41Z</time>
      </trkpt>
      <trkpt lat="43.2613" lon="-0.66918">
        <ele>195.28</ele>
        <time>2021-08-20T08:54:47Z</time>
      </trkpt>
      <trkpt lat="43.26128" lon="-0.66911">
        <ele>195.28</ele>
        <time>2021-08-20T08:54:56Z</time>
      </trkpt>
      <trkpt lat="43.26127" lon="-0.6691">
        <ele>196.73</ele>
        <time>2021-08-20T08:55:08Z</time>
      </trkpt>
      <trkpt lat="43.26128" lon="-0.66908">
        <ele>195.28</ele>
        <time>2021-08-20T08:55:14Z</time>
      </trkpt>
      <trkpt lat="43.26131" lon="-0.66903">
        <ele>195.28</ele>
        <time>2021-08-20T08:55:24Z</time>
      </trkpt>
      <trkpt lat="43.26132" lon="-0.66903">
        <ele>195.28</ele>
        <time>2021-08-20T08:55:32Z</time>
      </trkpt>
      <trkpt lat="43.26132" lon="-0.66901">
        <ele>195.28</ele>
        <time>2021-08-20T08:55:42Z</time>
      </trkpt>
      <trkpt lat="43.26132" lon="-0.669">
        <ele>194.8</ele>
        <time>2021-08-20T08:55:51Z</time>
      </trkpt>
      <trkpt lat="43.26131" lon="-0.669">
        <ele>194.8</ele>
        <time>2021-08-20T08:55:59Z</time>
      </trkpt>
      <trkpt lat="43.26132" lon="-0.66898">
        <ele>194.8</ele>
        <time>2021-08-20T08:56:05Z</time>
      </trkpt>
      <trkpt lat="43.26136" lon="-0.66893">
        <ele>194.32</ele>
        <time>2021-08-20T08:56:13Z</time>
      </trkpt>
      <trkpt lat="43.26136" lon="-0.66891">
        <ele>194.32</ele>
        <time>2021-08-20T08:56:16Z</time>
      </trkpt>
      <trkpt lat="43.2615" lon="-0.66887">
        <ele>193.36</ele>
        <time>2021-08-20T08:56:23Z</time>
      </trkpt>
      <trkpt lat="43.26168" lon="-0.66885">
        <ele>192.4</ele>
        <time>2021-08-20T08:56:29Z</time>
      </trkpt>
      <trkpt lat="43.26185" lon="-0.66878">
        <ele>191.44</ele>
        <time>2021-08-20T08:56:35Z</time>
      </trkpt>
      <trkpt lat="43.26198" lon="-0.66869">
        <ele>190.96</ele>
        <time>2021-08-20T08:56:41Z</time>
      </trkpt>
      <trkpt lat="43.26198" lon="-0.66868">
        <ele>190.96</ele>
        <time>2021-08-20T08:56:45Z</time>
      </trkpt>
      <trkpt lat="43.26198" lon="-0.66865">
        <ele>190.48</ele>
        <time>2021-08-20T08:56:48Z</time>
      </trkpt>
      <trkpt lat="43.26199" lon="-0.66859">
        <ele>190.48</ele>
        <time>2021-08-20T08:56:55Z</time>
      </trkpt>
      <trkpt lat="43.26201" lon="-0.66852">
        <ele>190</ele>
        <time>2021-08-20T08:57:02Z</time>
      </trkpt>
      <trkpt lat="43.2621" lon="-0.66847">
        <ele>190</ele>
        <time>2021-08-20T08:57:09Z</time>
      </trkpt>
      <trkpt lat="43.26217" lon="-0.66843">
        <ele>190</ele>
        <time>2021-08-20T08:57:15Z</time>
      </trkpt>
      <trkpt lat="43.26221" lon="-0.66843">
        <ele>190</ele>
        <time>2021-08-20T08:57:22Z</time>
      </trkpt>
      <trkpt lat="43.26225" lon="-0.66841">
        <ele>190</ele>
        <time>2021-08-20T08:57:31Z</time>
      </trkpt>
      <trkpt lat="43.26227" lon="-0.66841">
        <ele>189.52</ele>
        <time>2021-08-20T08:57:38Z</time>
      </trkpt>
      <trkpt lat="43.26228" lon="-0.66839">
        <ele>189.52</ele>
        <time>2021-08-20T08:57:44Z</time>
      </trkpt>
      <trkpt lat="43.26235" lon="-0.66835">
        <ele>189.52</ele>
        <time>2021-08-20T08:57:48Z</time>
      </trkpt>
      <trkpt lat="43.26262" lon="-0.66828">
        <ele>189.52</ele>
        <time>2021-08-20T08:57:56Z</time>
      </trkpt>
      <trkpt lat="43.26291" lon="-0.66824">
        <ele>188.56</ele>
        <time>2021-08-20T08:58:04Z</time>
      </trkpt>
      <trkpt lat="43.26311" lon="-0.66836">
        <ele>188.56</ele>
        <time>2021-08-20T08:58:11Z</time>
      </trkpt>
      <trkpt lat="43.26319" lon="-0.66843">
        <ele>187.59</ele>
        <time>2021-08-20T08:58:15Z</time>
      </trkpt>
      <trkpt lat="43.26323" lon="-0.66843">
        <ele>187.59</ele>
        <time>2021-08-20T08:58:21Z</time>
      </trkpt>
      <trkpt lat="43.26323" lon="-0.66843">
        <ele>189.04</ele>
        <time>2021-08-20T08:58:29Z</time>
      </trkpt>
      <trkpt lat="43.26324" lon="-0.66844">
        <ele>189.04</ele>
        <time>2021-08-20T08:58:30Z</time>
      </trkpt>
      <trkpt lat="43.26324" lon="-0.66842">
        <ele>187.59</ele>
        <time>2021-08-20T08:58:37Z</time>
      </trkpt>
      <trkpt lat="43.26325" lon="-0.66841">
        <ele>187.11</ele>
        <time>2021-08-20T08:58:48Z</time>
      </trkpt>
      <trkpt lat="43.26326" lon="-0.66841">
        <ele>188.56</ele>
        <time>2021-08-20T08:58:50Z</time>
      </trkpt>
      <trkpt lat="43.26329" lon="-0.66844">
        <ele>188.56</ele>
        <time>2021-08-20T08:58:57Z</time>
      </trkpt>
      <trkpt lat="43.26329" lon="-0.66846">
        <ele>188.56</ele>
        <time>2021-08-20T08:58:58Z</time>
      </trkpt>
      <trkpt lat="43.26336" lon="-0.66862">
        <ele>188.56</ele>
        <time>2021-08-20T08:59:05Z</time>
      </trkpt>
      <trkpt lat="43.26345" lon="-0.66886">
        <ele>188.56</ele>
        <time>2021-08-20T08:59:13Z</time>
      </trkpt>
      <trkpt lat="43.26359" lon="-0.66918">
        <ele>186.63</ele>
        <time>2021-08-20T08:59:20Z</time>
      </trkpt>
      <trkpt lat="43.26379" lon="-0.66969">
        <ele>185.67</ele>
        <time>2021-08-20T08:59:28Z</time>
      </trkpt>
      <trkpt lat="43.26401" lon="-0.67023">
        <ele>185.19</ele>
        <time>2021-08-20T08:59:36Z</time>
      </trkpt>
      <trkpt lat="43.26422" lon="-0.67075">
        <ele>183.75</ele>
        <time>2021-08-20T08:59:43Z</time>
      </trkpt>
      <trkpt lat="43.26444" lon="-0.67131">
        <ele>183.27</ele>
        <time>2021-08-20T08:59:50Z</time>
      </trkpt>
      <trkpt lat="43.26453" lon="-0.67154">
        <ele>182.79</ele>
        <time>2021-08-20T08:59:53Z</time>
      </trkpt>
      <trkpt lat="43.26456" lon="-0.67162">
        <ele>182.79</ele>
        <time>2021-08-20T08:59:54Z</time>
      </trkpt>
      <trkpt lat="43.26459" lon="-0.6717">
        <ele>182.79</ele>
        <time>2021-08-20T08:59:55Z</time>
      </trkpt>
      <trkpt lat="43.26478" lon="-0.67218">
        <ele>184.23</ele>
        <time>2021-08-20T09:00:02Z</time>
      </trkpt>
      <trkpt lat="43.26488" lon="-0.67238">
        <ele>184.71</ele>
        <time>2021-08-20T09:00:07Z</time>
      </trkpt>
      <trkpt lat="43.26502" lon="-0.67254">
        <ele>184.71</ele>
        <time>2021-08-20T09:00:12Z</time>
      </trkpt>
      <trkpt lat="43.26507" lon="-0.67255">
        <ele>184.71</ele>
        <time>2021-08-20T09:00:13Z</time>
      </trkpt>
      <trkpt lat="43.26512" lon="-0.67257">
        <ele>183.75</ele>
        <time>2021-08-20T09:00:14Z</time>
      </trkpt>
      <trkpt lat="43.26517" lon="-0.67259">
        <ele>183.75</ele>
        <time>2021-08-20T09:00:15Z</time>
      </trkpt>
      <trkpt lat="43.26522" lon="-0.67264">
        <ele>183.75</ele>
        <time>2021-08-20T09:00:16Z</time>
      </trkpt>
      <trkpt lat="43.26555" lon="-0.67298">
        <ele>182.79</ele>
        <time>2021-08-20T09:00:23Z</time>
      </trkpt>
      <trkpt lat="43.26574" lon="-0.67319">
        <ele>182.79</ele>
        <time>2021-08-20T09:00:27Z</time>
      </trkpt>
      <trkpt lat="43.26579" lon="-0.67323">
        <ele>182.31</ele>
        <time>2021-08-20T09:00:28Z</time>
      </trkpt>
      <trkpt lat="43.26584" lon="-0.67327">
        <ele>182.31</ele>
        <time>2021-08-20T09:00:29Z</time>
      </trkpt>
      <trkpt lat="43.26595" lon="-0.67334">
        <ele>181.35</ele>
        <time>2021-08-20T09:00:31Z</time>
      </trkpt>
      <trkpt lat="43.26615" lon="-0.67351">
        <ele>180.38</ele>
        <time>2021-08-20T09:00:35Z</time>
      </trkpt>
      <trkpt lat="43.2662" lon="-0.67355">
        <ele>180.38</ele>
        <time>2021-08-20T09:00:36Z</time>
      </trkpt>
      <trkpt lat="43.26625" lon="-0.67358">
        <ele>180.38</ele>
        <time>2021-08-20T09:00:37Z</time>
      </trkpt>
      <trkpt lat="43.26656" lon="-0.67378">
        <ele>180.38</ele>
        <time>2021-08-20T09:00:43Z</time>
      </trkpt>
      <trkpt lat="43.26668" lon="-0.6739">
        <ele>180.38</ele>
        <time>2021-08-20T09:00:46Z</time>
      </trkpt>
      <trkpt lat="43.26673" lon="-0.67394">
        <ele>180.38</ele>
        <time>2021-08-20T09:00:47Z</time>
      </trkpt>
      <trkpt lat="43.26681" lon="-0.67401">
        <ele>180.38</ele>
        <time>2021-08-20T09:00:49Z</time>
      </trkpt>
      <trkpt lat="43.26709" lon="-0.67432">
        <ele>180.38</ele>
        <time>2021-08-20T09:00:56Z</time>
      </trkpt>
      <trkpt lat="43.26712" lon="-0.67437">
        <ele>180.38</ele>
        <time>2021-08-20T09:00:57Z</time>
      </trkpt>
      <trkpt lat="43.26716" lon="-0.67441">
        <ele>180.38</ele>
        <time>2021-08-20T09:00:58Z</time>
      </trkpt>
      <trkpt lat="43.26728" lon="-0.67453">
        <ele>180.38</ele>
        <time>2021-08-20T09:01:01Z</time>
      </trkpt>
      <trkpt lat="43.26731" lon="-0.67458">
        <ele>180.38</ele>
        <time>2021-08-20T09:01:02Z</time>
      </trkpt>
      <trkpt lat="43.26735" lon="-0.67463">
        <ele>180.38</ele>
        <time>2021-08-20T09:01:03Z</time>
      </trkpt>
      <trkpt lat="43.26739" lon="-0.67468">
        <ele>180.38</ele>
        <time>2021-08-20T09:01:04Z</time>
      </trkpt>
      <trkpt lat="43.26742" lon="-0.67473">
        <ele>180.38</ele>
        <time>2021-08-20T09:01:05Z</time>
      </trkpt>
      <trkpt lat="43.26745" lon="-0.67479">
        <ele>180.38</ele>
        <time>2021-08-20T09:01:06Z</time>
      </trkpt>
      <trkpt lat="43.26748" lon="-0.67485">
        <ele>180.38</ele>
        <time>2021-08-20T09:01:07Z</time>
      </trkpt>
      <trkpt lat="43.2675" lon="-0.6749">
        <ele>180.38</ele>
        <time>2021-08-20T09:01:08Z</time>
      </trkpt>
      <trkpt lat="43.26753" lon="-0.67495">
        <ele>180.38</ele>
        <time>2021-08-20T09:01:09Z</time>
      </trkpt>
      <trkpt lat="43.26756" lon="-0.67498">
        <ele>180.38</ele>
        <time>2021-08-20T09:01:10Z</time>
      </trkpt>
      <trkpt lat="43.2676" lon="-0.67502">
        <ele>180.38</ele>
        <time>2021-08-20T09:01:11Z</time>
      </trkpt>
      <trkpt lat="43.26767" lon="-0.67507">
        <ele>180.38</ele>
        <time>2021-08-20T09:01:13Z</time>
      </trkpt>
      <trkpt lat="43.26771" lon="-0.67509">
        <ele>180.38</ele>
        <time>2021-08-20T09:01:14Z</time>
      </trkpt>
      <trkpt lat="43.26797" lon="-0.67526">
        <ele>179.9</ele>
        <time>2021-08-20T09:01:20Z</time>
      </trkpt>
      <trkpt lat="43.26801" lon="-0.67528">
        <ele>179.42</ele>
        <time>2021-08-20T09:01:21Z</time>
      </trkpt>
      <trkpt lat="43.26806" lon="-0.67529">
        <ele>179.42</ele>
        <time>2021-08-20T09:01:22Z</time>
      </trkpt>
      <trkpt lat="43.26828" lon="-0.67535">
        <ele>181.35</ele>
        <time>2021-08-20T09:01:28Z</time>
      </trkpt>
      <trkpt lat="43.2684" lon="-0.67533">
        <ele>179.9</ele>
        <time>2021-08-20T09:01:31Z</time>
      </trkpt>
      <trkpt lat="43.26844" lon="-0.67529">
        <ele>179.9</ele>
        <time>2021-08-20T09:01:32Z</time>
      </trkpt>
      <trkpt lat="43.2686" lon="-0.6752">
        <ele>177.98</ele>
        <time>2021-08-20T09:01:35Z</time>
      </trkpt>
      <trkpt lat="43.26865" lon="-0.67519">
        <ele>177.98</ele>
        <time>2021-08-20T09:01:36Z</time>
      </trkpt>
      <trkpt lat="43.26869" lon="-0.6752">
        <ele>177.98</ele>
        <time>2021-08-20T09:01:37Z</time>
      </trkpt>
      <trkpt lat="43.26873" lon="-0.67524">
        <ele>177.98</ele>
        <time>2021-08-20T09:01:38Z</time>
      </trkpt>
      <trkpt lat="43.26877" lon="-0.67529">
        <ele>177.98</ele>
        <time>2021-08-20T09:01:39Z</time>
      </trkpt>
      <trkpt lat="43.26904" lon="-0.67565">
        <ele>177.98</ele>
        <time>2021-08-20T09:01:46Z</time>
      </trkpt>
      <trkpt lat="43.26907" lon="-0.6757">
        <ele>177.98</ele>
        <time>2021-08-20T09:01:47Z</time>
      </trkpt>
      <trkpt lat="43.2691" lon="-0.67576">
        <ele>177.98</ele>
        <time>2021-08-20T09:01:48Z</time>
      </trkpt>
      <trkpt lat="43.26933" lon="-0.67623">
        <ele>176.06</ele>
        <time>2021-08-20T09:01:55Z</time>
      </trkpt>
      <trkpt lat="43.26963" lon="-0.67688">
        <ele>174.62</ele>
        <time>2021-08-20T09:02:03Z</time>
      </trkpt>
      <trkpt lat="43.27002" lon="-0.67775">
        <ele>174.14</ele>
        <time>2021-08-20T09:02:13Z</time>
      </trkpt>
      <trkpt lat="43.27032" lon="-0.67834">
        <ele>174.14</ele>
        <time>2021-08-20T09:02:21Z</time>
      </trkpt>
      <trkpt lat="43.27038" lon="-0.67848">
        <ele>174.14</ele>
        <time>2021-08-20T09:02:23Z</time>
      </trkpt>
      <trkpt lat="43.2704" lon="-0.67855">
        <ele>174.14</ele>
        <time>2021-08-20T09:02:24Z</time>
      </trkpt>
      <trkpt lat="43.27041" lon="-0.67863">
        <ele>174.14</ele>
        <time>2021-08-20T09:02:25Z</time>
      </trkpt>
      <trkpt lat="43.27042" lon="-0.6787">
        <ele>174.14</ele>
        <time>2021-08-20T09:02:26Z</time>
      </trkpt>
      <trkpt lat="43.27041" lon="-0.67877">
        <ele>174.14</ele>
        <time>2021-08-20T09:02:27Z</time>
      </trkpt>
      <trkpt lat="43.27039" lon="-0.67884">
        <ele>173.66</ele>
        <time>2021-08-20T09:02:28Z</time>
      </trkpt>
      <trkpt lat="43.27037" lon="-0.67892">
        <ele>173.17</ele>
        <time>2021-08-20T09:02:29Z</time>
      </trkpt>
      <trkpt lat="43.27016" lon="-0.67945">
        <ele>173.17</ele>
        <time>2021-08-20T09:02:36Z</time>
      </trkpt>
      <trkpt lat="43.27008" lon="-0.67979">
        <ele>173.17</ele>
        <time>2021-08-20T09:02:40Z</time>
      </trkpt>
      <trkpt lat="43.27007" lon="-0.67988">
        <ele>173.17</ele>
        <time>2021-08-20T09:02:41Z</time>
      </trkpt>
      <trkpt lat="43.27007" lon="-0.67996">
        <ele>173.17</ele>
        <time>2021-08-20T09:02:42Z</time>
      </trkpt>
      <trkpt lat="43.27007" lon="-0.68011">
        <ele>173.17</ele>
        <time>2021-08-20T09:02:44Z</time>
      </trkpt>
      <trkpt lat="43.27008" lon="-0.68025">
        <ele>174.62</ele>
        <time>2021-08-20T09:02:46Z</time>
      </trkpt>
      <trkpt lat="43.27009" lon="-0.68047">
        <ele>174.62</ele>
        <time>2021-08-20T09:02:49Z</time>
      </trkpt>
      <trkpt lat="43.2701" lon="-0.68054">
        <ele>175.1</ele>
        <time>2021-08-20T09:02:50Z</time>
      </trkpt>
      <trkpt lat="43.27019" lon="-0.68107">
        <ele>175.1</ele>
        <time>2021-08-20T09:02:57Z</time>
      </trkpt>
      <trkpt lat="43.27021" lon="-0.68137">
        <ele>175.1</ele>
        <time>2021-08-20T09:03:01Z</time>
      </trkpt>
      <trkpt lat="43.2702" lon="-0.68145">
        <ele>175.1</ele>
        <time>2021-08-20T09:03:02Z</time>
      </trkpt>
      <trkpt lat="43.27008" lon="-0.6822">
        <ele>175.58</ele>
        <time>2021-08-20T09:03:12Z</time>
      </trkpt>
      <trkpt lat="43.27006" lon="-0.68227">
        <ele>175.58</ele>
        <time>2021-08-20T09:03:13Z</time>
      </trkpt>
      <trkpt lat="43.27003" lon="-0.6824">
        <ele>175.58</ele>
        <time>2021-08-20T09:03:15Z</time>
      </trkpt>
      <trkpt lat="43.26985" lon="-0.68285">
        <ele>173.66</ele>
        <time>2021-08-20T09:03:22Z</time>
      </trkpt>
      <trkpt lat="43.26982" lon="-0.68292">
        <ele>173.66</ele>
        <time>2021-08-20T09:03:23Z</time>
      </trkpt>
      <trkpt lat="43.26979" lon="-0.68299">
        <ele>172.69</ele>
        <time>2021-08-20T09:03:24Z</time>
      </trkpt>
      <trkpt lat="43.26968" lon="-0.68336">
        <ele>170.29</ele>
        <time>2021-08-20T09:03:28Z</time>
      </trkpt>
      <trkpt lat="43.26959" lon="-0.6837">
        <ele>167.89</ele>
        <time>2021-08-20T09:03:31Z</time>
      </trkpt>
      <trkpt lat="43.26957" lon="-0.68382">
        <ele>167.89</ele>
        <time>2021-08-20T09:03:32Z</time>
      </trkpt>
      <trkpt lat="43.26957" lon="-0.68395">
        <ele>167.89</ele>
        <time>2021-08-20T09:03:33Z</time>
      </trkpt>
      <trkpt lat="43.26956" lon="-0.68418">
        <ele>166.93</ele>
        <time>2021-08-20T09:03:35Z</time>
      </trkpt>
      <trkpt lat="43.26955" lon="-0.68429">
        <ele>167.41</ele>
        <time>2021-08-20T09:03:36Z</time>
      </trkpt>
      <trkpt lat="43.26953" lon="-0.6844">
        <ele>167.41</ele>
        <time>2021-08-20T09:03:37Z</time>
      </trkpt>
      <trkpt lat="43.2695" lon="-0.6845">
        <ele>167.41</ele>
        <time>2021-08-20T09:03:38Z</time>
      </trkpt>
      <trkpt lat="43.26946" lon="-0.68458">
        <ele>166.93</ele>
        <time>2021-08-20T09:03:39Z</time>
      </trkpt>
      <trkpt lat="43.26942" lon="-0.68467">
        <ele>166.93</ele>
        <time>2021-08-20T09:03:40Z</time>
      </trkpt>
      <trkpt lat="43.26922" lon="-0.68521">
        <ele>166.45</ele>
        <time>2021-08-20T09:03:46Z</time>
      </trkpt>
      <trkpt lat="43.26909" lon="-0.68588">
        <ele>165.48</ele>
        <time>2021-08-20T09:03:53Z</time>
      </trkpt>
      <trkpt lat="43.26906" lon="-0.68615">
        <ele>165.48</ele>
        <time>2021-08-20T09:03:56Z</time>
      </trkpt>
      <trkpt lat="43.26904" lon="-0.68623">
        <ele>165.48</ele>
        <time>2021-08-20T09:03:57Z</time>
      </trkpt>
      <trkpt lat="43.269" lon="-0.68631">
        <ele>165.48</ele>
        <time>2021-08-20T09:03:58Z</time>
      </trkpt>
      <trkpt lat="43.26877" lon="-0.68673">
        <ele>167.41</ele>
        <time>2021-08-20T09:04:05Z</time>
      </trkpt>
      <trkpt lat="43.26874" lon="-0.68677">
        <ele>167.41</ele>
        <time>2021-08-20T09:04:06Z</time>
      </trkpt>
      <trkpt lat="43.26871" lon="-0.68681">
        <ele>167.41</ele>
        <time>2021-08-20T09:04:07Z</time>
      </trkpt>
      <trkpt lat="43.26867" lon="-0.68685">
        <ele>167.41</ele>
        <time>2021-08-20T09:04:08Z</time>
      </trkpt>
      <trkpt lat="43.26858" lon="-0.68692">
        <ele>167.41</ele>
        <time>2021-08-20T09:04:10Z</time>
      </trkpt>
      <trkpt lat="43.26842" lon="-0.68706">
        <ele>167.41</ele>
        <time>2021-08-20T09:04:13Z</time>
      </trkpt>
      <trkpt lat="43.26817" lon="-0.68735">
        <ele>165.96</ele>
        <time>2021-08-20T09:04:18Z</time>
      </trkpt>
      <trkpt lat="43.26791" lon="-0.68763">
        <ele>165</ele>
        <time>2021-08-20T09:04:23Z</time>
      </trkpt>
      <trkpt lat="43.26787" lon="-0.68769">
        <ele>164.52</ele>
        <time>2021-08-20T09:04:24Z</time>
      </trkpt>
      <trkpt lat="43.26783" lon="-0.68776">
        <ele>164.52</ele>
        <time>2021-08-20T09:04:25Z</time>
      </trkpt>
      <trkpt lat="43.2678" lon="-0.68784">
        <ele>164.52</ele>
        <time>2021-08-20T09:04:26Z</time>
      </trkpt>
      <trkpt lat="43.26778" lon="-0.68793">
        <ele>164.52</ele>
        <time>2021-08-20T09:04:27Z</time>
      </trkpt>
      <trkpt lat="43.26776" lon="-0.68801">
        <ele>164.52</ele>
        <time>2021-08-20T09:04:28Z</time>
      </trkpt>
      <trkpt lat="43.26775" lon="-0.6881">
        <ele>164.52</ele>
        <time>2021-08-20T09:04:29Z</time>
      </trkpt>
      <trkpt lat="43.26774" lon="-0.68818">
        <ele>164.52</ele>
        <time>2021-08-20T09:04:30Z</time>
      </trkpt>
      <trkpt lat="43.26774" lon="-0.68826">
        <ele>165</ele>
        <time>2021-08-20T09:04:31Z</time>
      </trkpt>
      <trkpt lat="43.26774" lon="-0.68834">
        <ele>165.96</ele>
        <time>2021-08-20T09:04:32Z</time>
      </trkpt>
      <trkpt lat="43.26775" lon="-0.68842">
        <ele>165.96</ele>
        <time>2021-08-20T09:04:33Z</time>
      </trkpt>
      <trkpt lat="43.26777" lon="-0.6885">
        <ele>165.96</ele>
        <time>2021-08-20T09:04:34Z</time>
      </trkpt>
      <trkpt lat="43.26779" lon="-0.68857">
        <ele>165.96</ele>
        <time>2021-08-20T09:04:35Z</time>
      </trkpt>
      <trkpt lat="43.26781" lon="-0.68865">
        <ele>165.96</ele>
        <time>2021-08-20T09:04:36Z</time>
      </trkpt>
      <trkpt lat="43.26783" lon="-0.68871">
        <ele>165.96</ele>
        <time>2021-08-20T09:04:37Z</time>
      </trkpt>
      <trkpt lat="43.26814" lon="-0.68931">
        <ele>165.96</ele>
        <time>2021-08-20T09:04:46Z</time>
      </trkpt>
      <trkpt lat="43.2685" lon="-0.6898">
        <ele>165.96</ele>
        <time>2021-08-20T09:04:54Z</time>
      </trkpt>
      <trkpt lat="43.26875" lon="-0.69021">
        <ele>165.96</ele>
        <time>2021-08-20T09:05:00Z</time>
      </trkpt>
      <trkpt lat="43.26881" lon="-0.69038">
        <ele>165.96</ele>
        <time>2021-08-20T09:05:02Z</time>
      </trkpt>
      <trkpt lat="43.2689" lon="-0.69075">
        <ele>164.52</ele>
        <time>2021-08-20T09:05:06Z</time>
      </trkpt>
      <trkpt lat="43.26907" lon="-0.69144">
        <ele>164.52</ele>
        <time>2021-08-20T09:05:14Z</time>
      </trkpt>
      <trkpt lat="43.26908" lon="-0.69152">
        <ele>164.52</ele>
        <time>2021-08-20T09:05:15Z</time>
      </trkpt>
      <trkpt lat="43.2691" lon="-0.69168">
        <ele>164.52</ele>
        <time>2021-08-20T09:05:17Z</time>
      </trkpt>
      <trkpt lat="43.26916" lon="-0.69225">
        <ele>164.52</ele>
        <time>2021-08-20T09:05:23Z</time>
      </trkpt>
      <trkpt lat="43.26919" lon="-0.69302">
        <ele>163.56</ele>
        <time>2021-08-20T09:05:31Z</time>
      </trkpt>
      <trkpt lat="43.26933" lon="-0.69371">
        <ele>163.08</ele>
        <time>2021-08-20T09:05:38Z</time>
      </trkpt>
      <trkpt lat="43.26959" lon="-0.69444">
        <ele>162.6</ele>
        <time>2021-08-20T09:05:46Z</time>
      </trkpt>
      <trkpt lat="43.26986" lon="-0.69519">
        <ele>162.6</ele>
        <time>2021-08-20T09:05:55Z</time>
      </trkpt>
      <trkpt lat="43.26986" lon="-0.69527">
        <ele>162.6</ele>
        <time>2021-08-20T09:05:56Z</time>
      </trkpt>
      <trkpt lat="43.26986" lon="-0.69537">
        <ele>162.6</ele>
        <time>2021-08-20T09:05:57Z</time>
      </trkpt>
      <trkpt lat="43.26987" lon="-0.69595">
        <ele>161.64</ele>
        <time>2021-08-20T09:06:04Z</time>
      </trkpt>
      <trkpt lat="43.26988" lon="-0.69603">
        <ele>161.16</ele>
        <time>2021-08-20T09:06:05Z</time>
      </trkpt>
      <trkpt lat="43.26994" lon="-0.69626">
        <ele>161.16</ele>
        <time>2021-08-20T09:06:08Z</time>
      </trkpt>
      <trkpt lat="43.26997" lon="-0.69633">
        <ele>161.16</ele>
        <time>2021-08-20T09:06:09Z</time>
      </trkpt>
      <trkpt lat="43.2701" lon="-0.69698">
        <ele>161.16</ele>
        <time>2021-08-20T09:06:17Z</time>
      </trkpt>
      <trkpt lat="43.27013" lon="-0.69735">
        <ele>162.6</ele>
        <time>2021-08-20T09:06:23Z</time>
      </trkpt>
      <trkpt lat="43.27013" lon="-0.69741">
        <ele>162.6</ele>
        <time>2021-08-20T09:06:24Z</time>
      </trkpt>
      <trkpt lat="43.27013" lon="-0.69747">
        <ele>162.6</ele>
        <time>2021-08-20T09:06:25Z</time>
      </trkpt>
      <trkpt lat="43.27012" lon="-0.69753">
        <ele>162.6</ele>
        <time>2021-08-20T09:06:26Z</time>
      </trkpt>
      <trkpt lat="43.2701" lon="-0.69759">
        <ele>162.6</ele>
        <time>2021-08-20T09:06:27Z</time>
      </trkpt>
      <trkpt lat="43.27009" lon="-0.69765">
        <ele>162.6</ele>
        <time>2021-08-20T09:06:28Z</time>
      </trkpt>
      <trkpt lat="43.27008" lon="-0.69771">
        <ele>163.08</ele>
        <time>2021-08-20T09:06:29Z</time>
      </trkpt>
      <trkpt lat="43.27007" lon="-0.69777">
        <ele>163.08</ele>
        <time>2021-08-20T09:06:30Z</time>
      </trkpt>
      <trkpt lat="43.27003" lon="-0.69829">
        <ele>163.08</ele>
        <time>2021-08-20T09:06:38Z</time>
      </trkpt>
      <trkpt lat="43.27003" lon="-0.69836">
        <ele>163.08</ele>
        <time>2021-08-20T09:06:39Z</time>
      </trkpt>
      <trkpt lat="43.27003" lon="-0.69843">
        <ele>163.08</ele>
        <time>2021-08-20T09:06:40Z</time>
      </trkpt>
      <trkpt lat="43.27004" lon="-0.69864">
        <ele>163.08</ele>
        <time>2021-08-20T09:06:43Z</time>
      </trkpt>
      <trkpt lat="43.27006" lon="-0.69886">
        <ele>163.08</ele>
        <time>2021-08-20T09:06:46Z</time>
      </trkpt>
      <trkpt lat="43.27014" lon="-0.69932">
        <ele>163.08</ele>
        <time>2021-08-20T09:06:53Z</time>
      </trkpt>
      <trkpt lat="43.2702" lon="-0.6996">
        <ele>163.08</ele>
        <time>2021-08-20T09:06:57Z</time>
      </trkpt>
      <trkpt lat="43.27018" lon="-0.70002">
        <ele>161.64</ele>
        <time>2021-08-20T09:07:03Z</time>
      </trkpt>
      <trkpt lat="43.27016" lon="-0.70015">
        <ele>161.64</ele>
        <time>2021-08-20T09:07:05Z</time>
      </trkpt>
      <trkpt lat="43.27015" lon="-0.70021">
        <ele>161.64</ele>
        <time>2021-08-20T09:07:06Z</time>
      </trkpt>
      <trkpt lat="43.27013" lon="-0.70045">
        <ele>161.64</ele>
        <time>2021-08-20T09:07:10Z</time>
      </trkpt>
      <trkpt lat="43.27013" lon="-0.70052">
        <ele>161.16</ele>
        <time>2021-08-20T09:07:11Z</time>
      </trkpt>
      <trkpt lat="43.27014" lon="-0.70073">
        <ele>161.16</ele>
        <time>2021-08-20T09:07:14Z</time>
      </trkpt>
      <trkpt lat="43.27015" lon="-0.7008">
        <ele>161.16</ele>
        <time>2021-08-20T09:07:15Z</time>
      </trkpt>
      <trkpt lat="43.27018" lon="-0.70093">
        <ele>161.16</ele>
        <time>2021-08-20T09:07:17Z</time>
      </trkpt>
      <trkpt lat="43.27025" lon="-0.70118">
        <ele>160.68</ele>
        <time>2021-08-20T09:07:21Z</time>
      </trkpt>
      <trkpt lat="43.27046" lon="-0.70166">
        <ele>158.75</ele>
        <time>2021-08-20T09:07:28Z</time>
      </trkpt>
      <trkpt lat="43.27057" lon="-0.70197">
        <ele>158.75</ele>
        <time>2021-08-20T09:07:32Z</time>
      </trkpt>
      <trkpt lat="43.27058" lon="-0.70205">
        <ele>158.75</ele>
        <time>2021-08-20T09:07:33Z</time>
      </trkpt>
      <trkpt lat="43.27068" lon="-0.70277">
        <ele>157.79</ele>
        <time>2021-08-20T09:07:42Z</time>
      </trkpt>
      <trkpt lat="43.27079" lon="-0.7035">
        <ele>156.35</ele>
        <time>2021-08-20T09:07:50Z</time>
      </trkpt>
      <trkpt lat="43.27091" lon="-0.704">
        <ele>157.31</ele>
        <time>2021-08-20T09:07:56Z</time>
      </trkpt>
      <trkpt lat="43.27112" lon="-0.70467">
        <ele>157.79</ele>
        <time>2021-08-20T09:08:05Z</time>
      </trkpt>
      <trkpt lat="43.27136" lon="-0.70547">
        <ele>157.79</ele>
        <time>2021-08-20T09:08:15Z</time>
      </trkpt>
      <trkpt lat="43.27144" lon="-0.70603">
        <ele>155.39</ele>
        <time>2021-08-20T09:08:21Z</time>
      </trkpt>
      <trkpt lat="43.2716" lon="-0.70656">
        <ele>155.39</ele>
        <time>2021-08-20T09:08:27Z</time>
      </trkpt>
      <trkpt lat="43.27165" lon="-0.70678">
        <ele>157.31</ele>
        <time>2021-08-20T09:08:30Z</time>
      </trkpt>
      <trkpt lat="43.27174" lon="-0.70734">
        <ele>157.31</ele>
        <time>2021-08-20T09:08:37Z</time>
      </trkpt>
      <trkpt lat="43.27178" lon="-0.70751">
        <ele>156.35</ele>
        <time>2021-08-20T09:08:39Z</time>
      </trkpt>
      <trkpt lat="43.27202" lon="-0.70848">
        <ele>156.35</ele>
        <time>2021-08-20T09:08:50Z</time>
      </trkpt>
      <trkpt lat="43.27217" lon="-0.70927">
        <ele>155.87</ele>
        <time>2021-08-20T09:08:59Z</time>
      </trkpt>
      <trkpt lat="43.27227" lon="-0.70987">
        <ele>155.87</ele>
        <time>2021-08-20T09:09:06Z</time>
      </trkpt>
      <trkpt lat="43.27239" lon="-0.71075">
        <ele>154.91</ele>
        <time>2021-08-20T09:09:16Z</time>
      </trkpt>
      <trkpt lat="43.27243" lon="-0.71158">
        <ele>155.39</ele>
        <time>2021-08-20T09:09:25Z</time>
      </trkpt>
      <trkpt lat="43.27246" lon="-0.71247">
        <ele>154.43</ele>
        <time>2021-08-20T09:09:35Z</time>
      </trkpt>
      <trkpt lat="43.27247" lon="-0.71257">
        <ele>154.43</ele>
        <time>2021-08-20T09:09:36Z</time>
      </trkpt>
      <trkpt lat="43.27251" lon="-0.71284">
        <ele>153.95</ele>
        <time>2021-08-20T09:09:39Z</time>
      </trkpt>
      <trkpt lat="43.27251" lon="-0.71295">
        <ele>153.95</ele>
        <time>2021-08-20T09:09:40Z</time>
      </trkpt>
      <trkpt lat="43.27246" lon="-0.71358">
        <ele>153.95</ele>
        <time>2021-08-20T09:09:47Z</time>
      </trkpt>
      <trkpt lat="43.27246" lon="-0.71374">
        <ele>155.39</ele>
        <time>2021-08-20T09:09:49Z</time>
      </trkpt>
      <trkpt lat="43.27246" lon="-0.71382">
        <ele>155.87</ele>
        <time>2021-08-20T09:09:50Z</time>
      </trkpt>
      <trkpt lat="43.27248" lon="-0.71414">
        <ele>157.79</ele>
        <time>2021-08-20T09:09:56Z</time>
      </trkpt>
      <trkpt lat="43.27247" lon="-0.71446">
        <ele>159.72</ele>
        <time>2021-08-20T09:10:04Z</time>
      </trkpt>
      <trkpt lat="43.27229" lon="-0.71459">
        <ele>159.72</ele>
        <time>2021-08-20T09:10:10Z</time>
      </trkpt>
      <trkpt lat="43.27225" lon="-0.7146">
        <ele>159.72</ele>
        <time>2021-08-20T09:10:11Z</time>
      </trkpt>
      <trkpt lat="43.27221" lon="-0.7146">
        <ele>159.72</ele>
        <time>2021-08-20T09:10:12Z</time>
      </trkpt>
      <trkpt lat="43.27216" lon="-0.71461">
        <ele>159.72</ele>
        <time>2021-08-20T09:10:13Z</time>
      </trkpt>
      <trkpt lat="43.27192" lon="-0.71474">
        <ele>160.68</ele>
        <time>2021-08-20T09:10:20Z</time>
      </trkpt>
      <trkpt lat="43.27189" lon="-0.71477">
        <ele>160.68</ele>
        <time>2021-08-20T09:10:21Z</time>
      </trkpt>
      <trkpt lat="43.27185" lon="-0.7148">
        <ele>160.68</ele>
        <time>2021-08-20T09:10:22Z</time>
      </trkpt>
      <trkpt lat="43.27182" lon="-0.71483">
        <ele>160.68</ele>
        <time>2021-08-20T09:10:23Z</time>
      </trkpt>
      <trkpt lat="43.27178" lon="-0.71488">
        <ele>160.68</ele>
        <time>2021-08-20T09:10:24Z</time>
      </trkpt>
      <trkpt lat="43.27176" lon="-0.71491">
        <ele>161.64</ele>
        <time>2021-08-20T09:10:25Z</time>
      </trkpt>
      <trkpt lat="43.27173" lon="-0.71495">
        <ele>161.64</ele>
        <time>2021-08-20T09:10:26Z</time>
      </trkpt>
      <trkpt lat="43.27161" lon="-0.71521">
        <ele>162.12</ele>
        <time>2021-08-20T09:10:34Z</time>
      </trkpt>
      <trkpt lat="43.27161" lon="-0.71525">
        <ele>162.12</ele>
        <time>2021-08-20T09:10:35Z</time>
      </trkpt>
      <trkpt lat="43.27161" lon="-0.71529">
        <ele>162.12</ele>
        <time>2021-08-20T09:10:36Z</time>
      </trkpt>
      <trkpt lat="43.27163" lon="-0.71533">
        <ele>162.12</ele>
        <time>2021-08-20T09:10:37Z</time>
      </trkpt>
      <trkpt lat="43.27165" lon="-0.71537">
        <ele>162.12</ele>
        <time>2021-08-20T09:10:38Z</time>
      </trkpt>
      <trkpt lat="43.27168" lon="-0.7154">
        <ele>162.12</ele>
        <time>2021-08-20T09:10:39Z</time>
      </trkpt>
      <trkpt lat="43.27172" lon="-0.71545">
        <ele>162.12</ele>
        <time>2021-08-20T09:10:40Z</time>
      </trkpt>
      <trkpt lat="43.27175" lon="-0.71549">
        <ele>162.12</ele>
        <time>2021-08-20T09:10:41Z</time>
      </trkpt>
      <trkpt lat="43.27178" lon="-0.71555">
        <ele>162.12</ele>
        <time>2021-08-20T09:10:42Z</time>
      </trkpt>
      <trkpt lat="43.27211" lon="-0.71604">
        <ele>160.68</ele>
        <time>2021-08-20T09:10:51Z</time>
      </trkpt>
      <trkpt lat="43.27245" lon="-0.71649">
        <ele>158.27</ele>
        <time>2021-08-20T09:10:58Z</time>
      </trkpt>
      <trkpt lat="43.2726" lon="-0.71668">
        <ele>157.79</ele>
        <time>2021-08-20T09:11:01Z</time>
      </trkpt>
      <trkpt lat="43.27267" lon="-0.71673">
        <ele>157.79</ele>
        <time>2021-08-20T09:11:02Z</time>
      </trkpt>
      <trkpt lat="43.27312" lon="-0.71696">
        <ele>159.24</ele>
        <time>2021-08-20T09:11:09Z</time>
      </trkpt>
      <trkpt lat="43.27317" lon="-0.71699">
        <ele>159.24</ele>
        <time>2021-08-20T09:11:10Z</time>
      </trkpt>
      <trkpt lat="43.27359" lon="-0.71721">
        <ele>160.68</ele>
        <time>2021-08-20T09:11:18Z</time>
      </trkpt>
      <trkpt lat="43.27365" lon="-0.71722">
        <ele>160.68</ele>
        <time>2021-08-20T09:11:19Z</time>
      </trkpt>
      <trkpt lat="43.2737" lon="-0.71721">
        <ele>160.68</ele>
        <time>2021-08-20T09:11:20Z</time>
      </trkpt>
      <trkpt lat="43.27375" lon="-0.7172">
        <ele>160.68</ele>
        <time>2021-08-20T09:11:21Z</time>
      </trkpt>
      <trkpt lat="43.27381" lon="-0.71718">
        <ele>160.68</ele>
        <time>2021-08-20T09:11:22Z</time>
      </trkpt>
      <trkpt lat="43.27407" lon="-0.71709">
        <ele>161.16</ele>
        <time>2021-08-20T09:11:27Z</time>
      </trkpt>
      <trkpt lat="43.27412" lon="-0.71709">
        <ele>161.16</ele>
        <time>2021-08-20T09:11:28Z</time>
      </trkpt>
      <trkpt lat="43.27417" lon="-0.71711">
        <ele>161.16</ele>
        <time>2021-08-20T09:11:29Z</time>
      </trkpt>
      <trkpt lat="43.27422" lon="-0.71713">
        <ele>161.16</ele>
        <time>2021-08-20T09:11:30Z</time>
      </trkpt>
      <trkpt lat="43.27427" lon="-0.71717">
        <ele>161.16</ele>
        <time>2021-08-20T09:11:31Z</time>
      </trkpt>
      <trkpt lat="43.27431" lon="-0.71722">
        <ele>161.16</ele>
        <time>2021-08-20T09:11:32Z</time>
      </trkpt>
      <trkpt lat="43.27435" lon="-0.71727">
        <ele>161.64</ele>
        <time>2021-08-20T09:11:33Z</time>
      </trkpt>
      <trkpt lat="43.27466" lon="-0.71766">
        <ele>162.12</ele>
        <time>2021-08-20T09:11:41Z</time>
      </trkpt>
      <trkpt lat="43.27471" lon="-0.7177">
        <ele>162.6</ele>
        <time>2021-08-20T09:11:42Z</time>
      </trkpt>
      <trkpt lat="43.27492" lon="-0.7178">
        <ele>162.6</ele>
        <time>2021-08-20T09:11:46Z</time>
      </trkpt>
      <trkpt lat="43.27497" lon="-0.71779">
        <ele>162.6</ele>
        <time>2021-08-20T09:11:47Z</time>
      </trkpt>
      <trkpt lat="43.27502" lon="-0.71777">
        <ele>162.6</ele>
        <time>2021-08-20T09:11:48Z</time>
      </trkpt>
      <trkpt lat="43.27543" lon="-0.71757">
        <ele>163.08</ele>
        <time>2021-08-20T09:11:56Z</time>
      </trkpt>
      <trkpt lat="43.27549" lon="-0.71756">
        <ele>163.08</ele>
        <time>2021-08-20T09:11:57Z</time>
      </trkpt>
      <trkpt lat="43.27554" lon="-0.71756">
        <ele>163.08</ele>
        <time>2021-08-20T09:11:58Z</time>
      </trkpt>
      <trkpt lat="43.27558" lon="-0.71756">
        <ele>163.08</ele>
        <time>2021-08-20T09:11:59Z</time>
      </trkpt>
      <trkpt lat="43.27563" lon="-0.71758">
        <ele>163.08</ele>
        <time>2021-08-20T09:12:00Z</time>
      </trkpt>
      <trkpt lat="43.27567" lon="-0.71762">
        <ele>163.08</ele>
        <time>2021-08-20T09:12:01Z</time>
      </trkpt>
      <trkpt lat="43.27571" lon="-0.71767">
        <ele>163.08</ele>
        <time>2021-08-20T09:12:02Z</time>
      </trkpt>
      <trkpt lat="43.27574" lon="-0.71773">
        <ele>163.08</ele>
        <time>2021-08-20T09:12:03Z</time>
      </trkpt>
      <trkpt lat="43.27586" lon="-0.71796">
        <ele>163.08</ele>
        <time>2021-08-20T09:12:07Z</time>
      </trkpt>
      <trkpt lat="43.27588" lon="-0.71803">
        <ele>163.08</ele>
        <time>2021-08-20T09:12:08Z</time>
      </trkpt>
      <trkpt lat="43.27595" lon="-0.71833">
        <ele>163.08</ele>
        <time>2021-08-20T09:12:12Z</time>
      </trkpt>
      <trkpt lat="43.27598" lon="-0.7184">
        <ele>163.08</ele>
        <time>2021-08-20T09:12:13Z</time>
      </trkpt>
      <trkpt lat="43.27601" lon="-0.71847">
        <ele>163.08</ele>
        <time>2021-08-20T09:12:14Z</time>
      </trkpt>
      <trkpt lat="43.27637" lon="-0.71907">
        <ele>163.08</ele>
        <time>2021-08-20T09:12:23Z</time>
      </trkpt>
      <trkpt lat="43.27647" lon="-0.71918">
        <ele>163.08</ele>
        <time>2021-08-20T09:12:25Z</time>
      </trkpt>
      <trkpt lat="43.27653" lon="-0.71923">
        <ele>163.08</ele>
        <time>2021-08-20T09:12:26Z</time>
      </trkpt>
      <trkpt lat="43.27701" lon="-0.71957">
        <ele>162.12</ele>
        <time>2021-08-20T09:12:34Z</time>
      </trkpt>
      <trkpt lat="43.27733" lon="-0.71977">
        <ele>162.12</ele>
        <time>2021-08-20T09:12:39Z</time>
      </trkpt>
      <trkpt lat="43.27739" lon="-0.71982">
        <ele>162.12</ele>
        <time>2021-08-20T09:12:40Z</time>
      </trkpt>
      <trkpt lat="43.27789" lon="-0.72033">
        <ele>161.64</ele>
        <time>2021-08-20T09:12:50Z</time>
      </trkpt>
      <trkpt lat="43.27793" lon="-0.72037">
        <ele>161.64</ele>
        <time>2021-08-20T09:12:51Z</time>
      </trkpt>
      <trkpt lat="43.27798" lon="-0.72042">
        <ele>161.64</ele>
        <time>2021-08-20T09:12:52Z</time>
      </trkpt>
      <trkpt lat="43.27837" lon="-0.72065">
        <ele>161.16</ele>
        <time>2021-08-20T09:12:59Z</time>
      </trkpt>
      <trkpt lat="43.27883" lon="-0.72089">
        <ele>160.68</ele>
        <time>2021-08-20T09:13:07Z</time>
      </trkpt>
      <trkpt lat="43.27915" lon="-0.72111">
        <ele>160.68</ele>
        <time>2021-08-20T09:13:13Z</time>
      </trkpt>
      <trkpt lat="43.27961" lon="-0.72136">
        <ele>160.68</ele>
        <time>2021-08-20T09:13:22Z</time>
      </trkpt>
      <trkpt lat="43.27975" lon="-0.72143">
        <ele>160.68</ele>
        <time>2021-08-20T09:13:25Z</time>
      </trkpt>
      <trkpt lat="43.28018" lon="-0.72175">
        <ele>160.68</ele>
        <time>2021-08-20T09:13:34Z</time>
      </trkpt>
      <trkpt lat="43.2805" lon="-0.72213">
        <ele>160.68</ele>
        <time>2021-08-20T09:13:41Z</time>
      </trkpt>
      <trkpt lat="43.28053" lon="-0.7222">
        <ele>160.68</ele>
        <time>2021-08-20T09:13:42Z</time>
      </trkpt>
      <trkpt lat="43.2809" lon="-0.72278">
        <ele>160.68</ele>
        <time>2021-08-20T09:13:51Z</time>
      </trkpt>
      <trkpt lat="43.28131" lon="-0.7233">
        <ele>160.68</ele>
        <time>2021-08-20T09:14:00Z</time>
      </trkpt>
      <trkpt lat="43.28155" lon="-0.72365">
        <ele>160.68</ele>
        <time>2021-08-20T09:14:06Z</time>
      </trkpt>
      <trkpt lat="43.2816" lon="-0.7237">
        <ele>160.68</ele>
        <time>2021-08-20T09:14:07Z</time>
      </trkpt>
      <trkpt lat="43.282" lon="-0.72419">
        <ele>160.68</ele>
        <time>2021-08-20T09:14:16Z</time>
      </trkpt>
      <trkpt lat="43.28244" lon="-0.72475">
        <ele>160.2</ele>
        <time>2021-08-20T09:14:25Z</time>
      </trkpt>
      <trkpt lat="43.28279" lon="-0.72516">
        <ele>161.16</ele>
        <time>2021-08-20T09:14:32Z</time>
      </trkpt>
      <trkpt lat="43.2832" lon="-0.72574">
        <ele>161.16</ele>
        <time>2021-08-20T09:14:41Z</time>
      </trkpt>
      <trkpt lat="43.28365" lon="-0.72635">
        <ele>161.16</ele>
        <time>2021-08-20T09:14:50Z</time>
      </trkpt>
      <trkpt lat="43.28389" lon="-0.72668">
        <ele>159.72</ele>
        <time>2021-08-20T09:14:55Z</time>
      </trkpt>
      <trkpt lat="43.28433" lon="-0.72726">
        <ele>159.72</ele>
        <time>2021-08-20T09:15:04Z</time>
      </trkpt>
      <trkpt lat="43.28437" lon="-0.72733">
        <ele>159.72</ele>
        <time>2021-08-20T09:15:05Z</time>
      </trkpt>
      <trkpt lat="43.28441" lon="-0.72742">
        <ele>159.72</ele>
        <time>2021-08-20T09:15:06Z</time>
      </trkpt>
      <trkpt lat="43.28444" lon="-0.7275">
        <ele>159.72</ele>
        <time>2021-08-20T09:15:07Z</time>
      </trkpt>
      <trkpt lat="43.28447" lon="-0.72759">
        <ele>159.72</ele>
        <time>2021-08-20T09:15:08Z</time>
      </trkpt>
      <trkpt lat="43.28454" lon="-0.72776">
        <ele>159.72</ele>
        <time>2021-08-20T09:15:10Z</time>
      </trkpt>
      <trkpt lat="43.28459" lon="-0.72784">
        <ele>159.72</ele>
        <time>2021-08-20T09:15:11Z</time>
      </trkpt>
      <trkpt lat="43.28464" lon="-0.72792">
        <ele>159.24</ele>
        <time>2021-08-20T09:15:12Z</time>
      </trkpt>
      <trkpt lat="43.28469" lon="-0.72798">
        <ele>159.24</ele>
        <time>2021-08-20T09:15:13Z</time>
      </trkpt>
      <trkpt lat="43.28476" lon="-0.72805">
        <ele>159.24</ele>
        <time>2021-08-20T09:15:14Z</time>
      </trkpt>
      <trkpt lat="43.28481" lon="-0.72812">
        <ele>159.24</ele>
        <time>2021-08-20T09:15:15Z</time>
      </trkpt>
      <trkpt lat="43.28522" lon="-0.7286">
        <ele>159.24</ele>
        <time>2021-08-20T09:15:23Z</time>
      </trkpt>
      <trkpt lat="43.28566" lon="-0.72899">
        <ele>158.75</ele>
        <time>2021-08-20T09:15:31Z</time>
      </trkpt>
      <trkpt lat="43.28583" lon="-0.72917">
        <ele>158.75</ele>
        <time>2021-08-20T09:15:34Z</time>
      </trkpt>
      <trkpt lat="43.28588" lon="-0.72924">
        <ele>158.27</ele>
        <time>2021-08-20T09:15:35Z</time>
      </trkpt>
      <trkpt lat="43.28593" lon="-0.72932">
        <ele>158.27</ele>
        <time>2021-08-20T09:15:36Z</time>
      </trkpt>
      <trkpt lat="43.2863" lon="-0.72972">
        <ele>157.79</ele>
        <time>2021-08-20T09:15:43Z</time>
      </trkpt>
      <trkpt lat="43.28675" lon="-0.73003">
        <ele>157.79</ele>
        <time>2021-08-20T09:15:51Z</time>
      </trkpt>
      <trkpt lat="43.28722" lon="-0.73036">
        <ele>157.79</ele>
        <time>2021-08-20T09:16:00Z</time>
      </trkpt>
      <trkpt lat="43.28741" lon="-0.73056">
        <ele>158.75</ele>
        <time>2021-08-20T09:16:04Z</time>
      </trkpt>
      <trkpt lat="43.28744" lon="-0.73063">
        <ele>158.75</ele>
        <time>2021-08-20T09:16:05Z</time>
      </trkpt>
      <trkpt lat="43.28765" lon="-0.73123">
        <ele>159.24</ele>
        <time>2021-08-20T09:16:13Z</time>
      </trkpt>
      <trkpt lat="43.28793" lon="-0.73194">
        <ele>159.24</ele>
        <time>2021-08-20T09:16:22Z</time>
      </trkpt>
      <trkpt lat="43.28801" lon="-0.7322">
        <ele>157.79</ele>
        <time>2021-08-20T09:16:25Z</time>
      </trkpt>
      <trkpt lat="43.28824" lon="-0.73276">
        <ele>157.31</ele>
        <time>2021-08-20T09:16:32Z</time>
      </trkpt>
      <trkpt lat="43.28827" lon="-0.73293">
        <ele>157.31</ele>
        <time>2021-08-20T09:16:34Z</time>
      </trkpt>
      <trkpt lat="43.28828" lon="-0.73302">
        <ele>156.83</ele>
        <time>2021-08-20T09:16:35Z</time>
      </trkpt>
      <trkpt lat="43.28828" lon="-0.7331">
        <ele>156.83</ele>
        <time>2021-08-20T09:16:36Z</time>
      </trkpt>
      <trkpt lat="43.28827" lon="-0.73336">
        <ele>156.83</ele>
        <time>2021-08-20T09:16:39Z</time>
      </trkpt>
      <trkpt lat="43.28832" lon="-0.73422">
        <ele>156.83</ele>
        <time>2021-08-20T09:16:49Z</time>
      </trkpt>
      <trkpt lat="43.28831" lon="-0.73443">
        <ele>156.83</ele>
        <time>2021-08-20T09:16:52Z</time>
      </trkpt>
      <trkpt lat="43.2883" lon="-0.73449">
        <ele>156.83</ele>
        <time>2021-08-20T09:16:53Z</time>
      </trkpt>
      <trkpt lat="43.28826" lon="-0.73454">
        <ele>156.83</ele>
        <time>2021-08-20T09:16:54Z</time>
      </trkpt>
      <trkpt lat="43.28823" lon="-0.73459">
        <ele>156.83</ele>
        <time>2021-08-20T09:16:55Z</time>
      </trkpt>
      <trkpt lat="43.2882" lon="-0.73465">
        <ele>156.83</ele>
        <time>2021-08-20T09:16:56Z</time>
      </trkpt>
      <trkpt lat="43.28818" lon="-0.73471">
        <ele>156.83</ele>
        <time>2021-08-20T09:16:57Z</time>
      </trkpt>
      <trkpt lat="43.28817" lon="-0.73479">
        <ele>156.83</ele>
        <time>2021-08-20T09:16:58Z</time>
      </trkpt>
      <trkpt lat="43.28816" lon="-0.73486">
        <ele>156.83</ele>
        <time>2021-08-20T09:16:59Z</time>
      </trkpt>
      <trkpt lat="43.28816" lon="-0.73501">
        <ele>156.83</ele>
        <time>2021-08-20T09:17:01Z</time>
      </trkpt>
      <trkpt lat="43.28819" lon="-0.73534">
        <ele>156.35</ele>
        <time>2021-08-20T09:17:05Z</time>
      </trkpt>
      <trkpt lat="43.28819" lon="-0.73543">
        <ele>156.35</ele>
        <time>2021-08-20T09:17:06Z</time>
      </trkpt>
      <trkpt lat="43.28819" lon="-0.73552">
        <ele>156.35</ele>
        <time>2021-08-20T09:17:07Z</time>
      </trkpt>
      <trkpt lat="43.28818" lon="-0.73636">
        <ele>155.39</ele>
        <time>2021-08-20T09:17:16Z</time>
      </trkpt>
      <trkpt lat="43.28827" lon="-0.73716">
        <ele>154.43</ele>
        <time>2021-08-20T09:17:24Z</time>
      </trkpt>
      <trkpt lat="43.28842" lon="-0.7381">
        <ele>153.95</ele>
        <time>2021-08-20T09:17:33Z</time>
      </trkpt>
      <trkpt lat="43.28859" lon="-0.73912">
        <ele>153.95</ele>
        <time>2021-08-20T09:17:43Z</time>
      </trkpt>
      <trkpt lat="43.28883" lon="-0.74006">
        <ele>153.47</ele>
        <time>2021-08-20T09:17:53Z</time>
      </trkpt>
      <trkpt lat="43.28911" lon="-0.74097">
        <ele>152.99</ele>
        <time>2021-08-20T09:18:03Z</time>
      </trkpt>
      <trkpt lat="43.28927" lon="-0.74152">
        <ele>152.99</ele>
        <time>2021-08-20T09:18:10Z</time>
      </trkpt>
      <trkpt lat="43.2893" lon="-0.74205">
        <ele>152.99</ele>
        <time>2021-08-20T09:18:17Z</time>
      </trkpt>
      <trkpt lat="43.28929" lon="-0.74221">
        <ele>152.99</ele>
        <time>2021-08-20T09:18:19Z</time>
      </trkpt>
      <trkpt lat="43.28921" lon="-0.74263">
        <ele>152.99</ele>
        <time>2021-08-20T09:18:25Z</time>
      </trkpt>
      <trkpt lat="43.28921" lon="-0.74269">
        <ele>152.99</ele>
        <time>2021-08-20T09:18:26Z</time>
      </trkpt>
      <trkpt lat="43.28923" lon="-0.74275">
        <ele>152.99</ele>
        <time>2021-08-20T09:18:27Z</time>
      </trkpt>
      <trkpt lat="43.28926" lon="-0.74279">
        <ele>152.99</ele>
        <time>2021-08-20T09:18:28Z</time>
      </trkpt>
      <trkpt lat="43.2893" lon="-0.74281">
        <ele>152.99</ele>
        <time>2021-08-20T09:18:29Z</time>
      </trkpt>
      <trkpt lat="43.28935" lon="-0.74284">
        <ele>152.99</ele>
        <time>2021-08-20T09:18:30Z</time>
      </trkpt>
      <trkpt lat="43.2894" lon="-0.74286">
        <ele>152.99</ele>
        <time>2021-08-20T09:18:31Z</time>
      </trkpt>
      <trkpt lat="43.28944" lon="-0.74288">
        <ele>152.99</ele>
        <time>2021-08-20T09:18:32Z</time>
      </trkpt>
      <trkpt lat="43.28948" lon="-0.74292">
        <ele>152.99</ele>
        <time>2021-08-20T09:18:33Z</time>
      </trkpt>
      <trkpt lat="43.28953" lon="-0.74299">
        <ele>152.99</ele>
        <time>2021-08-20T09:18:34Z</time>
      </trkpt>
      <trkpt lat="43.28956" lon="-0.74304">
        <ele>152.51</ele>
        <time>2021-08-20T09:18:35Z</time>
      </trkpt>
      <trkpt lat="43.28959" lon="-0.74312">
        <ele>152.99</ele>
        <time>2021-08-20T09:18:36Z</time>
      </trkpt>
      <trkpt lat="43.28962" lon="-0.74318">
        <ele>152.03</ele>
        <time>2021-08-20T09:18:37Z</time>
      </trkpt>
      <trkpt lat="43.28991" lon="-0.74378">
        <ele>152.03</ele>
        <time>2021-08-20T09:18:46Z</time>
      </trkpt>
      <trkpt lat="43.28996" lon="-0.74382">
        <ele>152.03</ele>
        <time>2021-08-20T09:18:47Z</time>
      </trkpt>
      <trkpt lat="43.29001" lon="-0.74385">
        <ele>152.03</ele>
        <time>2021-08-20T09:18:48Z</time>
      </trkpt>
      <trkpt lat="43.29007" lon="-0.74385">
        <ele>152.03</ele>
        <time>2021-08-20T09:18:49Z</time>
      </trkpt>
      <trkpt lat="43.29014" lon="-0.74383">
        <ele>151.54</ele>
        <time>2021-08-20T09:18:50Z</time>
      </trkpt>
      <trkpt lat="43.29019" lon="-0.74381">
        <ele>151.54</ele>
        <time>2021-08-20T09:18:51Z</time>
      </trkpt>
      <trkpt lat="43.29024" lon="-0.74377">
        <ele>151.54</ele>
        <time>2021-08-20T09:18:52Z</time>
      </trkpt>
      <trkpt lat="43.29028" lon="-0.74373">
        <ele>151.54</ele>
        <time>2021-08-20T09:18:53Z</time>
      </trkpt>
      <trkpt lat="43.29033" lon="-0.7437">
        <ele>151.54</ele>
        <time>2021-08-20T09:18:54Z</time>
      </trkpt>
      <trkpt lat="43.29037" lon="-0.74371">
        <ele>151.54</ele>
        <time>2021-08-20T09:18:55Z</time>
      </trkpt>
      <trkpt lat="43.29041" lon="-0.74375">
        <ele>151.54</ele>
        <time>2021-08-20T09:18:56Z</time>
      </trkpt>
      <trkpt lat="43.29063" lon="-0.74399">
        <ele>151.54</ele>
        <time>2021-08-20T09:19:02Z</time>
      </trkpt>
      <trkpt lat="43.29068" lon="-0.74403">
        <ele>151.54</ele>
        <time>2021-08-20T09:19:03Z</time>
      </trkpt>
      <trkpt lat="43.29087" lon="-0.74418">
        <ele>151.54</ele>
        <time>2021-08-20T09:19:07Z</time>
      </trkpt>
      <trkpt lat="43.29128" lon="-0.7446">
        <ele>151.54</ele>
        <time>2021-08-20T09:19:16Z</time>
      </trkpt>
      <trkpt lat="43.29133" lon="-0.74464">
        <ele>151.54</ele>
        <time>2021-08-20T09:19:17Z</time>
      </trkpt>
      <trkpt lat="43.29138" lon="-0.74467">
        <ele>151.54</ele>
        <time>2021-08-20T09:19:18Z</time>
      </trkpt>
      <trkpt lat="43.29144" lon="-0.74469">
        <ele>151.54</ele>
        <time>2021-08-20T09:19:19Z</time>
      </trkpt>
      <trkpt lat="43.29171" lon="-0.74477">
        <ele>151.54</ele>
        <time>2021-08-20T09:19:24Z</time>
      </trkpt>
      <trkpt lat="43.29177" lon="-0.74477">
        <ele>151.54</ele>
        <time>2021-08-20T09:19:25Z</time>
      </trkpt>
      <trkpt lat="43.29182" lon="-0.74475">
        <ele>151.54</ele>
        <time>2021-08-20T09:19:26Z</time>
      </trkpt>
      <trkpt lat="43.29228" lon="-0.74456">
        <ele>151.54</ele>
        <time>2021-08-20T09:19:34Z</time>
      </trkpt>
      <trkpt lat="43.29284" lon="-0.74428">
        <ele>151.06</ele>
        <time>2021-08-20T09:19:43Z</time>
      </trkpt>
      <trkpt lat="43.29339" lon="-0.74396">
        <ele>150.1</ele>
        <time>2021-08-20T09:19:52Z</time>
      </trkpt>
      <trkpt lat="43.29404" lon="-0.74347">
        <ele>149.62</ele>
        <time>2021-08-20T09:20:03Z</time>
      </trkpt>
      <trkpt lat="43.29457" lon="-0.74315">
        <ele>149.62</ele>
        <time>2021-08-20T09:20:12Z</time>
      </trkpt>
      <trkpt lat="43.29468" lon="-0.74307">
        <ele>149.62</ele>
        <time>2021-08-20T09:20:14Z</time>
      </trkpt>
      <trkpt lat="43.29518" lon="-0.74281">
        <ele>149.62</ele>
        <time>2021-08-20T09:20:22Z</time>
      </trkpt>
      <trkpt lat="43.29587" lon="-0.74238">
        <ele>149.14</ele>
        <time>2021-08-20T09:20:33Z</time>
      </trkpt>
      <trkpt lat="43.29635" lon="-0.74192">
        <ele>149.14</ele>
        <time>2021-08-20T09:20:42Z</time>
      </trkpt>
      <trkpt lat="43.29666" lon="-0.74161">
        <ele>150.1</ele>
        <time>2021-08-20T09:20:49Z</time>
      </trkpt>
      <trkpt lat="43.29697" lon="-0.74147">
        <ele>151.54</ele>
        <time>2021-08-20T09:20:56Z</time>
      </trkpt>
      <trkpt lat="43.29701" lon="-0.74145">
        <ele>151.54</ele>
        <time>2021-08-20T09:20:57Z</time>
      </trkpt>
      <trkpt lat="43.29745" lon="-0.74123">
        <ele>152.03</ele>
        <time>2021-08-20T09:21:07Z</time>
      </trkpt>
      <trkpt lat="43.29755" lon="-0.74119">
        <ele>152.51</ele>
        <time>2021-08-20T09:21:09Z</time>
      </trkpt>
      <trkpt lat="43.29778" lon="-0.74113">
        <ele>152.99</ele>
        <time>2021-08-20T09:21:14Z</time>
      </trkpt>
      <trkpt lat="43.29782" lon="-0.74113">
        <ele>152.99</ele>
        <time>2021-08-20T09:21:15Z</time>
      </trkpt>
      <trkpt lat="43.29796" lon="-0.74116">
        <ele>152.99</ele>
        <time>2021-08-20T09:21:18Z</time>
      </trkpt>
      <trkpt lat="43.2981" lon="-0.74123">
        <ele>152.99</ele>
        <time>2021-08-20T09:21:21Z</time>
      </trkpt>
      <trkpt lat="43.29816" lon="-0.74124">
        <ele>152.99</ele>
        <time>2021-08-20T09:21:22Z</time>
      </trkpt>
      <trkpt lat="43.2987" lon="-0.74147">
        <ele>152.99</ele>
        <time>2021-08-20T09:21:32Z</time>
      </trkpt>
      <trkpt lat="43.29917" lon="-0.74171">
        <ele>152.99</ele>
        <time>2021-08-20T09:21:40Z</time>
      </trkpt>
      <trkpt lat="43.29968" lon="-0.74201">
        <ele>151.54</ele>
        <time>2021-08-20T09:21:49Z</time>
      </trkpt>
      <trkpt lat="43.29986" lon="-0.74209">
        <ele>151.54</ele>
        <time>2021-08-20T09:21:52Z</time>
      </trkpt>
      <trkpt lat="43.29997" lon="-0.74214">
        <ele>151.54</ele>
        <time>2021-08-20T09:21:54Z</time>
      </trkpt>
      <trkpt lat="43.30002" lon="-0.74216">
        <ele>151.54</ele>
        <time>2021-08-20T09:21:55Z</time>
      </trkpt>
      <trkpt lat="43.30025" lon="-0.74226">
        <ele>151.54</ele>
        <time>2021-08-20T09:21:59Z</time>
      </trkpt>
      <trkpt lat="43.30068" lon="-0.74236">
        <ele>151.54</ele>
        <time>2021-08-20T09:22:06Z</time>
      </trkpt>
      <trkpt lat="43.30079" lon="-0.7424">
        <ele>151.54</ele>
        <time>2021-08-20T09:22:08Z</time>
      </trkpt>
      <trkpt lat="43.30119" lon="-0.74263">
        <ele>150.58</ele>
        <time>2021-08-20T09:22:15Z</time>
      </trkpt>
      <trkpt lat="43.30158" lon="-0.74293">
        <ele>150.1</ele>
        <time>2021-08-20T09:22:22Z</time>
      </trkpt>
      <trkpt lat="43.30194" lon="-0.74326">
        <ele>150.1</ele>
        <time>2021-08-20T09:22:29Z</time>
      </trkpt>
      <trkpt lat="43.30199" lon="-0.74328">
        <ele>150.1</ele>
        <time>2021-08-20T09:22:30Z</time>
      </trkpt>
      <trkpt lat="43.30205" lon="-0.74329">
        <ele>150.1</ele>
        <time>2021-08-20T09:22:31Z</time>
      </trkpt>
      <trkpt lat="43.30211" lon="-0.7433">
        <ele>150.1</ele>
        <time>2021-08-20T09:22:32Z</time>
      </trkpt>
      <trkpt lat="43.30217" lon="-0.74332">
        <ele>150.1</ele>
        <time>2021-08-20T09:22:33Z</time>
      </trkpt>
      <trkpt lat="43.30222" lon="-0.74333">
        <ele>150.1</ele>
        <time>2021-08-20T09:22:34Z</time>
      </trkpt>
      <trkpt lat="43.30244" lon="-0.74338">
        <ele>150.1</ele>
        <time>2021-08-20T09:22:38Z</time>
      </trkpt>
      <trkpt lat="43.3025" lon="-0.74339">
        <ele>150.1</ele>
        <time>2021-08-20T09:22:39Z</time>
      </trkpt>
      <trkpt lat="43.30309" lon="-0.74346">
        <ele>150.1</ele>
        <time>2021-08-20T09:22:49Z</time>
      </trkpt>
      <trkpt lat="43.30365" lon="-0.74355">
        <ele>150.1</ele>
        <time>2021-08-20T09:22:59Z</time>
      </trkpt>
      <trkpt lat="43.30385" lon="-0.74362">
        <ele>150.1</ele>
        <time>2021-08-20T09:23:03Z</time>
      </trkpt>
      <trkpt lat="43.3039" lon="-0.74364">
        <ele>150.1</ele>
        <time>2021-08-20T09:23:04Z</time>
      </trkpt>
      <trkpt lat="43.30395" lon="-0.74367">
        <ele>150.1</ele>
        <time>2021-08-20T09:23:05Z</time>
      </trkpt>
      <trkpt lat="43.30399" lon="-0.7437">
        <ele>150.1</ele>
        <time>2021-08-20T09:23:06Z</time>
      </trkpt>
      <trkpt lat="43.30404" lon="-0.74374">
        <ele>150.1</ele>
        <time>2021-08-20T09:23:07Z</time>
      </trkpt>
      <trkpt lat="43.30408" lon="-0.74379">
        <ele>150.1</ele>
        <time>2021-08-20T09:23:08Z</time>
      </trkpt>
      <trkpt lat="43.30425" lon="-0.74391">
        <ele>150.1</ele>
        <time>2021-08-20T09:23:11Z</time>
      </trkpt>
      <trkpt lat="43.3043" lon="-0.74394">
        <ele>149.62</ele>
        <time>2021-08-20T09:23:12Z</time>
      </trkpt>
      <trkpt lat="43.30436" lon="-0.74396">
        <ele>149.62</ele>
        <time>2021-08-20T09:23:13Z</time>
      </trkpt>
      <trkpt lat="43.30443" lon="-0.74397">
        <ele>149.62</ele>
        <time>2021-08-20T09:23:14Z</time>
      </trkpt>
      <trkpt lat="43.3045" lon="-0.74397">
        <ele>149.62</ele>
        <time>2021-08-20T09:23:15Z</time>
      </trkpt>
      <trkpt lat="43.30456" lon="-0.74396">
        <ele>149.62</ele>
        <time>2021-08-20T09:23:16Z</time>
      </trkpt>
      <trkpt lat="43.30462" lon="-0.74394">
        <ele>149.62</ele>
        <time>2021-08-20T09:23:17Z</time>
      </trkpt>
      <trkpt lat="43.30468" lon="-0.74392">
        <ele>149.62</ele>
        <time>2021-08-20T09:23:18Z</time>
      </trkpt>
      <trkpt lat="43.305" lon="-0.7439">
        <ele>149.62</ele>
        <time>2021-08-20T09:23:23Z</time>
      </trkpt>
      <trkpt lat="43.30506" lon="-0.74392">
        <ele>149.62</ele>
        <time>2021-08-20T09:23:24Z</time>
      </trkpt>
      <trkpt lat="43.30513" lon="-0.74395">
        <ele>149.62</ele>
        <time>2021-08-20T09:23:25Z</time>
      </trkpt>
      <trkpt lat="43.30519" lon="-0.74398">
        <ele>149.62</ele>
        <time>2021-08-20T09:23:26Z</time>
      </trkpt>
      <trkpt lat="43.30525" lon="-0.74403">
        <ele>149.62</ele>
        <time>2021-08-20T09:23:27Z</time>
      </trkpt>
      <trkpt lat="43.3053" lon="-0.74408">
        <ele>149.62</ele>
        <time>2021-08-20T09:23:28Z</time>
      </trkpt>
      <trkpt lat="43.30548" lon="-0.74422">
        <ele>149.62</ele>
        <time>2021-08-20T09:23:31Z</time>
      </trkpt>
      <trkpt lat="43.30554" lon="-0.74426">
        <ele>149.62</ele>
        <time>2021-08-20T09:23:32Z</time>
      </trkpt>
      <trkpt lat="43.30562" lon="-0.7443">
        <ele>149.14</ele>
        <time>2021-08-20T09:23:33Z</time>
      </trkpt>
      <trkpt lat="43.30569" lon="-0.74431">
        <ele>148.66</ele>
        <time>2021-08-20T09:23:34Z</time>
      </trkpt>
      <trkpt lat="43.30577" lon="-0.74432">
        <ele>148.66</ele>
        <time>2021-08-20T09:23:35Z</time>
      </trkpt>
      <trkpt lat="43.30585" lon="-0.74431">
        <ele>148.18</ele>
        <time>2021-08-20T09:23:36Z</time>
      </trkpt>
      <trkpt lat="43.30593" lon="-0.7443">
        <ele>148.18</ele>
        <time>2021-08-20T09:23:37Z</time>
      </trkpt>
      <trkpt lat="43.30601" lon="-0.74427">
        <ele>148.18</ele>
        <time>2021-08-20T09:23:38Z</time>
      </trkpt>
      <trkpt lat="43.30643" lon="-0.74416">
        <ele>148.18</ele>
        <time>2021-08-20T09:23:44Z</time>
      </trkpt>
      <trkpt lat="43.3065" lon="-0.74416">
        <ele>148.18</ele>
        <time>2021-08-20T09:23:45Z</time>
      </trkpt>
      <trkpt lat="43.30657" lon="-0.74419">
        <ele>148.18</ele>
        <time>2021-08-20T09:23:46Z</time>
      </trkpt>
      <trkpt lat="43.30664" lon="-0.74423">
        <ele>148.18</ele>
        <time>2021-08-20T09:23:47Z</time>
      </trkpt>
      <trkpt lat="43.3067" lon="-0.74427">
        <ele>148.18</ele>
        <time>2021-08-20T09:23:48Z</time>
      </trkpt>
      <trkpt lat="43.30676" lon="-0.74432">
        <ele>148.18</ele>
        <time>2021-08-20T09:23:49Z</time>
      </trkpt>
      <trkpt lat="43.30692" lon="-0.74448">
        <ele>149.62</ele>
        <time>2021-08-20T09:23:52Z</time>
      </trkpt>
      <trkpt lat="43.30696" lon="-0.74454">
        <ele>149.62</ele>
        <time>2021-08-20T09:23:53Z</time>
      </trkpt>
      <trkpt lat="43.30729" lon="-0.74515">
        <ele>150.1</ele>
        <time>2021-08-20T09:24:02Z</time>
      </trkpt>
      <trkpt lat="43.30751" lon="-0.74547">
        <ele>149.62</ele>
        <time>2021-08-20T09:24:07Z</time>
      </trkpt>
      <trkpt lat="43.30756" lon="-0.74552">
        <ele>149.62</ele>
        <time>2021-08-20T09:24:08Z</time>
      </trkpt>
      <trkpt lat="43.30779" lon="-0.74567">
        <ele>149.62</ele>
        <time>2021-08-20T09:24:12Z</time>
      </trkpt>
      <trkpt lat="43.30805" lon="-0.74575">
        <ele>148.18</ele>
        <time>2021-08-20T09:24:16Z</time>
      </trkpt>
      <trkpt lat="43.30835" lon="-0.74582">
        <ele>149.62</ele>
        <time>2021-08-20T09:24:21Z</time>
      </trkpt>
      <trkpt lat="43.30841" lon="-0.74584">
        <ele>149.62</ele>
        <time>2021-08-20T09:24:22Z</time>
      </trkpt>
      <trkpt lat="43.30869" lon="-0.74598">
        <ele>149.62</ele>
        <time>2021-08-20T09:24:27Z</time>
      </trkpt>
      <trkpt lat="43.30874" lon="-0.74603">
        <ele>149.62</ele>
        <time>2021-08-20T09:24:28Z</time>
      </trkpt>
      <trkpt lat="43.30879" lon="-0.74607">
        <ele>149.62</ele>
        <time>2021-08-20T09:24:29Z</time>
      </trkpt>
      <trkpt lat="43.30896" lon="-0.74627">
        <ele>149.62</ele>
        <time>2021-08-20T09:24:33Z</time>
      </trkpt>
      <trkpt lat="43.309" lon="-0.74631">
        <ele>149.62</ele>
        <time>2021-08-20T09:24:34Z</time>
      </trkpt>
      <trkpt lat="43.30906" lon="-0.74633">
        <ele>149.62</ele>
        <time>2021-08-20T09:24:35Z</time>
      </trkpt>
      <trkpt lat="43.30912" lon="-0.74633">
        <ele>148.18</ele>
        <time>2021-08-20T09:24:36Z</time>
      </trkpt>
      <trkpt lat="43.30917" lon="-0.74631">
        <ele>148.18</ele>
        <time>2021-08-20T09:24:37Z</time>
      </trkpt>
      <trkpt lat="43.30922" lon="-0.74628">
        <ele>148.18</ele>
        <time>2021-08-20T09:24:38Z</time>
      </trkpt>
      <trkpt lat="43.30926" lon="-0.74622">
        <ele>148.18</ele>
        <time>2021-08-20T09:24:39Z</time>
      </trkpt>
      <trkpt lat="43.3093" lon="-0.74616">
        <ele>148.18</ele>
        <time>2021-08-20T09:24:40Z</time>
      </trkpt>
      <trkpt lat="43.30932" lon="-0.74609">
        <ele>147.7</ele>
        <time>2021-08-20T09:24:41Z</time>
      </trkpt>
      <trkpt lat="43.30935" lon="-0.74601">
        <ele>147.7</ele>
        <time>2021-08-20T09:24:42Z</time>
      </trkpt>
      <trkpt lat="43.30937" lon="-0.74594">
        <ele>147.7</ele>
        <time>2021-08-20T09:24:43Z</time>
      </trkpt>
      <trkpt lat="43.30942" lon="-0.74582">
        <ele>147.7</ele>
        <time>2021-08-20T09:24:45Z</time>
      </trkpt>
      <trkpt lat="43.30946" lon="-0.74577">
        <ele>147.7</ele>
        <time>2021-08-20T09:24:46Z</time>
      </trkpt>
      <trkpt lat="43.3095" lon="-0.74574">
        <ele>147.7</ele>
        <time>2021-08-20T09:24:47Z</time>
      </trkpt>
      <trkpt lat="43.30955" lon="-0.74574">
        <ele>147.7</ele>
        <time>2021-08-20T09:24:48Z</time>
      </trkpt>
      <trkpt lat="43.3096" lon="-0.74574">
        <ele>147.7</ele>
        <time>2021-08-20T09:24:49Z</time>
      </trkpt>
      <trkpt lat="43.30965" lon="-0.74576">
        <ele>147.7</ele>
        <time>2021-08-20T09:24:50Z</time>
      </trkpt>
      <trkpt lat="43.3097" lon="-0.74579">
        <ele>147.7</ele>
        <time>2021-08-20T09:24:51Z</time>
      </trkpt>
      <trkpt lat="43.30974" lon="-0.74585">
        <ele>147.7</ele>
        <time>2021-08-20T09:24:52Z</time>
      </trkpt>
      <trkpt lat="43.30977" lon="-0.74591">
        <ele>147.7</ele>
        <time>2021-08-20T09:24:53Z</time>
      </trkpt>
      <trkpt lat="43.3098" lon="-0.74598">
        <ele>147.7</ele>
        <time>2021-08-20T09:24:54Z</time>
      </trkpt>
      <trkpt lat="43.30982" lon="-0.74605">
        <ele>147.7</ele>
        <time>2021-08-20T09:24:55Z</time>
      </trkpt>
      <trkpt lat="43.31003" lon="-0.74663">
        <ele>147.22</ele>
        <time>2021-08-20T09:25:02Z</time>
      </trkpt>
      <trkpt lat="43.31008" lon="-0.74669">
        <ele>147.22</ele>
        <time>2021-08-20T09:25:03Z</time>
      </trkpt>
      <trkpt lat="43.31013" lon="-0.74675">
        <ele>147.22</ele>
        <time>2021-08-20T09:25:04Z</time>
      </trkpt>
      <trkpt lat="43.3102" lon="-0.74679">
        <ele>147.22</ele>
        <time>2021-08-20T09:25:05Z</time>
      </trkpt>
      <trkpt lat="43.31025" lon="-0.74681">
        <ele>147.22</ele>
        <time>2021-08-20T09:25:06Z</time>
      </trkpt>
      <trkpt lat="43.31065" lon="-0.74695">
        <ele>146.74</ele>
        <time>2021-08-20T09:25:12Z</time>
      </trkpt>
      <trkpt lat="43.31087" lon="-0.74695">
        <ele>146.74</ele>
        <time>2021-08-20T09:25:15Z</time>
      </trkpt>
      <trkpt lat="43.31094" lon="-0.74693">
        <ele>146.74</ele>
        <time>2021-08-20T09:25:16Z</time>
      </trkpt>
      <trkpt lat="43.311" lon="-0.74689">
        <ele>146.74</ele>
        <time>2021-08-20T09:25:17Z</time>
      </trkpt>
      <trkpt lat="43.31107" lon="-0.74686">
        <ele>146.74</ele>
        <time>2021-08-20T09:25:18Z</time>
      </trkpt>
      <trkpt lat="43.31114" lon="-0.74684">
        <ele>146.26</ele>
        <time>2021-08-20T09:25:19Z</time>
      </trkpt>
      <trkpt lat="43.3112" lon="-0.74683">
        <ele>146.26</ele>
        <time>2021-08-20T09:25:20Z</time>
      </trkpt>
      <trkpt lat="43.31126" lon="-0.74684">
        <ele>146.26</ele>
        <time>2021-08-20T09:25:21Z</time>
      </trkpt>
      <trkpt lat="43.31132" lon="-0.74688">
        <ele>146.26</ele>
        <time>2021-08-20T09:25:22Z</time>
      </trkpt>
      <trkpt lat="43.31138" lon="-0.74692">
        <ele>146.26</ele>
        <time>2021-08-20T09:25:23Z</time>
      </trkpt>
      <trkpt lat="43.3119" lon="-0.74728">
        <ele>146.26</ele>
        <time>2021-08-20T09:25:31Z</time>
      </trkpt>
      <trkpt lat="43.31227" lon="-0.74761">
        <ele>146.26</ele>
        <time>2021-08-20T09:25:37Z</time>
      </trkpt>
      <trkpt lat="43.31273" lon="-0.74799">
        <ele>146.26</ele>
        <time>2021-08-20T09:25:44Z</time>
      </trkpt>
      <trkpt lat="43.31288" lon="-0.74807">
        <ele>145.78</ele>
        <time>2021-08-20T09:25:46Z</time>
      </trkpt>
      <trkpt lat="43.31295" lon="-0.74809">
        <ele>145.78</ele>
        <time>2021-08-20T09:25:47Z</time>
      </trkpt>
      <trkpt lat="43.31325" lon="-0.74819">
        <ele>145.78</ele>
        <time>2021-08-20T09:25:51Z</time>
      </trkpt>
      <trkpt lat="43.31381" lon="-0.74834">
        <ele>145.3</ele>
        <time>2021-08-20T09:25:58Z</time>
      </trkpt>
      <trkpt lat="43.31443" lon="-0.74854">
        <ele>145.78</ele>
        <time>2021-08-20T09:26:06Z</time>
      </trkpt>
      <trkpt lat="43.31503" lon="-0.74879">
        <ele>145.78</ele>
        <time>2021-08-20T09:26:14Z</time>
      </trkpt>
      <trkpt lat="43.31555" lon="-0.74906">
        <ele>144.34</ele>
        <time>2021-08-20T09:26:21Z</time>
      </trkpt>
      <trkpt lat="43.31594" lon="-0.74917">
        <ele>144.34</ele>
        <time>2021-08-20T09:26:26Z</time>
      </trkpt>
      <trkpt lat="43.31601" lon="-0.74922">
        <ele>144.34</ele>
        <time>2021-08-20T09:26:27Z</time>
      </trkpt>
      <trkpt lat="43.31665" lon="-0.74972">
        <ele>143.85</ele>
        <time>2021-08-20T09:26:36Z</time>
      </trkpt>
      <trkpt lat="43.31713" lon="-0.75012">
        <ele>142.89</ele>
        <time>2021-08-20T09:26:43Z</time>
      </trkpt>
      <trkpt lat="43.31721" lon="-0.75018">
        <ele>142.89</ele>
        <time>2021-08-20T09:26:44Z</time>
      </trkpt>
      <trkpt lat="43.31728" lon="-0.75022">
        <ele>142.89</ele>
        <time>2021-08-20T09:26:45Z</time>
      </trkpt>
      <trkpt lat="43.31764" lon="-0.75039">
        <ele>142.41</ele>
        <time>2021-08-20T09:26:50Z</time>
      </trkpt>
      <trkpt lat="43.31772" lon="-0.7504">
        <ele>142.41</ele>
        <time>2021-08-20T09:26:51Z</time>
      </trkpt>
      <trkpt lat="43.31779" lon="-0.75039">
        <ele>142.41</ele>
        <time>2021-08-20T09:26:52Z</time>
      </trkpt>
      <trkpt lat="43.31836" lon="-0.75028">
        <ele>141.45</ele>
        <time>2021-08-20T09:27:00Z</time>
      </trkpt>
      <trkpt lat="43.31842" lon="-0.75027">
        <ele>141.45</ele>
        <time>2021-08-20T09:27:01Z</time>
      </trkpt>
      <trkpt lat="43.31846" lon="-0.75028">
        <ele>141.45</ele>
        <time>2021-08-20T09:27:02Z</time>
      </trkpt>
      <trkpt lat="43.31849" lon="-0.75029">
        <ele>141.45</ele>
        <time>2021-08-20T09:27:03Z</time>
      </trkpt>
      <trkpt lat="43.31852" lon="-0.7503">
        <ele>141.45</ele>
        <time>2021-08-20T09:27:04Z</time>
      </trkpt>
      <trkpt lat="43.31854" lon="-0.7503">
        <ele>141.45</ele>
        <time>2021-08-20T09:27:05Z</time>
      </trkpt>
      <trkpt lat="43.31856" lon="-0.7503">
        <ele>141.45</ele>
        <time>2021-08-20T09:27:06Z</time>
      </trkpt>
      <trkpt lat="43.31857" lon="-0.75029">
        <ele>141.45</ele>
        <time>2021-08-20T09:27:07Z</time>
      </trkpt>
      <trkpt lat="43.31858" lon="-0.75029">
        <ele>141.45</ele>
        <time>2021-08-20T09:27:08Z</time>
      </trkpt>
      <trkpt lat="43.31859" lon="-0.75029">
        <ele>141.45</ele>
        <time>2021-08-20T09:27:09Z</time>
      </trkpt>
      <trkpt lat="43.31861" lon="-0.75032">
        <ele>141.45</ele>
        <time>2021-08-20T09:27:16Z</time>
      </trkpt>
      <trkpt lat="43.31874" lon="-0.75043">
        <ele>141.45</ele>
        <time>2021-08-20T09:27:21Z</time>
      </trkpt>
      <trkpt lat="43.31907" lon="-0.75076">
        <ele>141.45</ele>
        <time>2021-08-20T09:27:29Z</time>
      </trkpt>
      <trkpt lat="43.31952" lon="-0.75125">
        <ele>141.45</ele>
        <time>2021-08-20T09:27:39Z</time>
      </trkpt>
      <trkpt lat="43.31997" lon="-0.75168">
        <ele>141.45</ele>
        <time>2021-08-20T09:27:48Z</time>
      </trkpt>
      <trkpt lat="43.32" lon="-0.75175">
        <ele>141.45</ele>
        <time>2021-08-20T09:27:49Z</time>
      </trkpt>
      <trkpt lat="43.32001" lon="-0.75183">
        <ele>141.45</ele>
        <time>2021-08-20T09:27:50Z</time>
      </trkpt>
      <trkpt lat="43.31999" lon="-0.75242">
        <ele>140.01</ele>
        <time>2021-08-20T09:27:57Z</time>
      </trkpt>
      <trkpt lat="43.31999" lon="-0.7526">
        <ele>140.01</ele>
        <time>2021-08-20T09:27:59Z</time>
      </trkpt>
      <trkpt lat="43.32001" lon="-0.75271">
        <ele>139.53</ele>
        <time>2021-08-20T09:28:00Z</time>
      </trkpt>
      <trkpt lat="43.32018" lon="-0.75335">
        <ele>138.57</ele>
        <time>2021-08-20T09:28:07Z</time>
      </trkpt>
      <trkpt lat="43.32024" lon="-0.7535">
        <ele>138.57</ele>
        <time>2021-08-20T09:28:09Z</time>
      </trkpt>
      <trkpt lat="43.32031" lon="-0.75369">
        <ele>138.57</ele>
        <time>2021-08-20T09:28:13Z</time>
      </trkpt>
      <trkpt lat="43.32037" lon="-0.75397">
        <ele>138.57</ele>
        <time>2021-08-20T09:28:19Z</time>
      </trkpt>
      <trkpt lat="43.3204" lon="-0.7541">
        <ele>138.57</ele>
        <time>2021-08-20T09:28:23Z</time>
      </trkpt>
      <trkpt lat="43.32052" lon="-0.75444">
        <ele>138.09</ele>
        <time>2021-08-20T09:28:29Z</time>
      </trkpt>
      <trkpt lat="43.3206" lon="-0.75472">
        <ele>137.13</ele>
        <time>2021-08-20T09:28:33Z</time>
      </trkpt>
      <trkpt lat="43.32065" lon="-0.75496">
        <ele>137.13</ele>
        <time>2021-08-20T09:28:36Z</time>
      </trkpt>
      <trkpt lat="43.32066" lon="-0.75505">
        <ele>137.13</ele>
        <time>2021-08-20T09:28:37Z</time>
      </trkpt>
      <trkpt lat="43.32066" lon="-0.75513">
        <ele>137.13</ele>
        <time>2021-08-20T09:28:38Z</time>
      </trkpt>
      <trkpt lat="43.32065" lon="-0.75532">
        <ele>137.13</ele>
        <time>2021-08-20T09:28:40Z</time>
      </trkpt>
      <trkpt lat="43.32058" lon="-0.75567">
        <ele>135.68</ele>
        <time>2021-08-20T09:28:44Z</time>
      </trkpt>
      <trkpt lat="43.32038" lon="-0.75616">
        <ele>134.72</ele>
        <time>2021-08-20T09:28:50Z</time>
      </trkpt>
      <trkpt lat="43.32037" lon="-0.75622">
        <ele>134.72</ele>
        <time>2021-08-20T09:28:51Z</time>
      </trkpt>
      <trkpt lat="43.32038" lon="-0.75654">
        <ele>134.24</ele>
        <time>2021-08-20T09:28:56Z</time>
      </trkpt>
      <trkpt lat="43.32037" lon="-0.7566">
        <ele>133.76</ele>
        <time>2021-08-20T09:28:57Z</time>
      </trkpt>
      <trkpt lat="43.32036" lon="-0.75666">
        <ele>133.76</ele>
        <time>2021-08-20T09:28:58Z</time>
      </trkpt>
      <trkpt lat="43.32033" lon="-0.75672">
        <ele>133.76</ele>
        <time>2021-08-20T09:28:59Z</time>
      </trkpt>
      <trkpt lat="43.32031" lon="-0.75677">
        <ele>133.76</ele>
        <time>2021-08-20T09:29:00Z</time>
      </trkpt>
      <trkpt lat="43.32029" lon="-0.7568">
        <ele>133.76</ele>
        <time>2021-08-20T09:29:01Z</time>
      </trkpt>
      <trkpt lat="43.32027" lon="-0.75685">
        <ele>133.76</ele>
        <time>2021-08-20T09:29:02Z</time>
      </trkpt>
      <trkpt lat="43.32027" lon="-0.75689">
        <ele>133.76</ele>
        <time>2021-08-20T09:29:03Z</time>
      </trkpt>
      <trkpt lat="43.32027" lon="-0.75693">
        <ele>133.76</ele>
        <time>2021-08-20T09:29:04Z</time>
      </trkpt>
      <trkpt lat="43.32029" lon="-0.75695">
        <ele>133.76</ele>
        <time>2021-08-20T09:29:05Z</time>
      </trkpt>
      <trkpt lat="43.32029" lon="-0.75698">
        <ele>133.76</ele>
        <time>2021-08-20T09:29:06Z</time>
      </trkpt>
      <trkpt lat="43.3203" lon="-0.75702">
        <ele>133.76</ele>
        <time>2021-08-20T09:29:07Z</time>
      </trkpt>
      <trkpt lat="43.32029" lon="-0.75705">
        <ele>133.76</ele>
        <time>2021-08-20T09:29:08Z</time>
      </trkpt>
      <trkpt lat="43.32028" lon="-0.75708">
        <ele>133.28</ele>
        <time>2021-08-20T09:29:09Z</time>
      </trkpt>
      <trkpt lat="43.32027" lon="-0.75709">
        <ele>133.28</ele>
        <time>2021-08-20T09:29:13Z</time>
      </trkpt>
      <trkpt lat="43.32026" lon="-0.75712">
        <ele>133.28</ele>
        <time>2021-08-20T09:29:30Z</time>
      </trkpt>
      <trkpt lat="43.32025" lon="-0.75712">
        <ele>133.28</ele>
        <time>2021-08-20T09:29:53Z</time>
      </trkpt>
      <trkpt lat="43.32025" lon="-0.75715">
        <ele>133.28</ele>
        <time>2021-08-20T09:30:13Z</time>
      </trkpt>
      <trkpt lat="43.32026" lon="-0.75716">
        <ele>133.28</ele>
        <time>2021-08-20T09:30:28Z</time>
      </trkpt>
      <trkpt lat="43.32026" lon="-0.75715">
        <ele>133.28</ele>
        <time>2021-08-20T09:30:47Z</time>
      </trkpt>
      <trkpt lat="43.32028" lon="-0.75712">
        <ele>133.28</ele>
        <time>2021-08-20T09:31:10Z</time>
      </trkpt>
      <trkpt lat="43.32032" lon="-0.75715">
        <ele>133.28</ele>
        <time>2021-08-20T09:31:30Z</time>
      </trkpt>
      <trkpt lat="43.32033" lon="-0.75713">
        <ele>133.28</ele>
        <time>2021-08-20T09:31:49Z</time>
      </trkpt>
      <trkpt lat="43.32033" lon="-0.75712">
        <ele>133.28</ele>
        <time>2021-08-20T09:31:50Z</time>
      </trkpt>
      <trkpt lat="43.32034" lon="-0.75711">
        <ele>133.28</ele>
        <time>2021-08-20T09:31:51Z</time>
      </trkpt>
      <trkpt lat="43.32035" lon="-0.75711">
        <ele>133.28</ele>
        <time>2021-08-20T09:31:52Z</time>
      </trkpt>
      <trkpt lat="43.32036" lon="-0.75711">
        <ele>133.28</ele>
        <time>2021-08-20T09:31:53Z</time>
      </trkpt>
      <trkpt lat="43.32038" lon="-0.7571">
        <ele>133.28</ele>
        <time>2021-08-20T09:31:54Z</time>
      </trkpt>
      <trkpt lat="43.3204" lon="-0.7571">
        <ele>133.28</ele>
        <time>2021-08-20T09:31:55Z</time>
      </trkpt>
      <trkpt lat="43.32042" lon="-0.7571">
        <ele>133.28</ele>
        <time>2021-08-20T09:31:56Z</time>
      </trkpt>
      <trkpt lat="43.32044" lon="-0.75711">
        <ele>133.28</ele>
        <time>2021-08-20T09:31:57Z</time>
      </trkpt>
      <trkpt lat="43.32058" lon="-0.75714">
        <ele>133.28</ele>
        <time>2021-08-20T09:32:02Z</time>
      </trkpt>
      <trkpt lat="43.32065" lon="-0.75733">
        <ele>133.28</ele>
        <time>2021-08-20T09:32:07Z</time>
      </trkpt>
      <trkpt lat="43.32079" lon="-0.75776">
        <ele>132.8</ele>
        <time>2021-08-20T09:32:16Z</time>
      </trkpt>
      <trkpt lat="43.32085" lon="-0.75799">
        <ele>132.8</ele>
        <time>2021-08-20T09:32:20Z</time>
      </trkpt>
      <trkpt lat="43.32089" lon="-0.7581">
        <ele>132.32</ele>
        <time>2021-08-20T09:32:22Z</time>
      </trkpt>
      <trkpt lat="43.3209" lon="-0.75816">
        <ele>132.32</ele>
        <time>2021-08-20T09:32:23Z</time>
      </trkpt>
      <trkpt lat="43.32092" lon="-0.75822">
        <ele>132.32</ele>
        <time>2021-08-20T09:32:24Z</time>
      </trkpt>
      <trkpt lat="43.32093" lon="-0.75829">
        <ele>132.32</ele>
        <time>2021-08-20T09:32:25Z</time>
      </trkpt>
      <trkpt lat="43.32095" lon="-0.75835">
        <ele>131.84</ele>
        <time>2021-08-20T09:32:26Z</time>
      </trkpt>
      <trkpt lat="43.32097" lon="-0.75842">
        <ele>131.84</ele>
        <time>2021-08-20T09:32:27Z</time>
      </trkpt>
      <trkpt lat="43.32117" lon="-0.75894">
        <ele>131.36</ele>
        <time>2021-08-20T09:32:35Z</time>
      </trkpt>
      <trkpt lat="43.32132" lon="-0.75921">
        <ele>130.88</ele>
        <time>2021-08-20T09:32:40Z</time>
      </trkpt>
      <trkpt lat="43.3215" lon="-0.7594">
        <ele>130.4</ele>
        <time>2021-08-20T09:32:44Z</time>
      </trkpt>
      <trkpt lat="43.32153" lon="-0.75946">
        <ele>130.4</ele>
        <time>2021-08-20T09:32:45Z</time>
      </trkpt>
      <trkpt lat="43.3218" lon="-0.75985">
        <ele>130.4</ele>
        <time>2021-08-20T09:32:52Z</time>
      </trkpt>
      <trkpt lat="43.32199" lon="-0.76004">
        <ele>130.4</ele>
        <time>2021-08-20T09:32:56Z</time>
      </trkpt>
      <trkpt lat="43.32212" lon="-0.76025">
        <ele>130.4</ele>
        <time>2021-08-20T09:33:01Z</time>
      </trkpt>
      <trkpt lat="43.32221" lon="-0.76037">
        <ele>130.4</ele>
        <time>2021-08-20T09:33:04Z</time>
      </trkpt>
      <trkpt lat="43.32224" lon="-0.76041">
        <ele>130.4</ele>
        <time>2021-08-20T09:33:05Z</time>
      </trkpt>
      <trkpt lat="43.32228" lon="-0.76046">
        <ele>130.4</ele>
        <time>2021-08-20T09:33:06Z</time>
      </trkpt>
      <trkpt lat="43.32234" lon="-0.76055">
        <ele>130.4</ele>
        <time>2021-08-20T09:33:08Z</time>
      </trkpt>
      <trkpt lat="43.32237" lon="-0.7606">
        <ele>130.4</ele>
        <time>2021-08-20T09:33:09Z</time>
      </trkpt>
      <trkpt lat="43.32239" lon="-0.76064">
        <ele>130.4</ele>
        <time>2021-08-20T09:33:10Z</time>
      </trkpt>
      <trkpt lat="43.32242" lon="-0.76068">
        <ele>130.4</ele>
        <time>2021-08-20T09:33:11Z</time>
      </trkpt>
      <trkpt lat="43.32245" lon="-0.76073">
        <ele>130.4</ele>
        <time>2021-08-20T09:33:12Z</time>
      </trkpt>
      <trkpt lat="43.32248" lon="-0.76077">
        <ele>130.4</ele>
        <time>2021-08-20T09:33:13Z</time>
      </trkpt>
      <trkpt lat="43.3225" lon="-0.76081">
        <ele>130.4</ele>
        <time>2021-08-20T09:33:14Z</time>
      </trkpt>
      <trkpt lat="43.3226" lon="-0.76094">
        <ele>129.92</ele>
        <time>2021-08-20T09:33:18Z</time>
      </trkpt>
      <trkpt lat="43.32262" lon="-0.76098">
        <ele>129.92</ele>
        <time>2021-08-20T09:33:22Z</time>
      </trkpt>
      <trkpt lat="43.32268" lon="-0.76096">
        <ele>129.92</ele>
        <time>2021-08-20T09:33:24Z</time>
      </trkpt>
      <trkpt lat="43.32272" lon="-0.76094">
        <ele>129.92</ele>
        <time>2021-08-20T09:33:32Z</time>
      </trkpt>
      <trkpt lat="43.32272" lon="-0.76092">
        <ele>129.92</ele>
        <time>2021-08-20T09:33:49Z</time>
      </trkpt>
      <trkpt lat="43.32273" lon="-0.76092">
        <ele>129.92</ele>
        <time>2021-08-20T09:34:12Z</time>
      </trkpt>
      <trkpt lat="43.32272" lon="-0.76092">
        <ele>130.4</ele>
        <time>2021-08-20T09:34:37Z</time>
      </trkpt>
      <trkpt lat="43.32272" lon="-0.76094">
        <ele>130.4</ele>
        <time>2021-08-20T09:35:04Z</time>
      </trkpt>
      <trkpt lat="43.32272" lon="-0.76094">
        <ele>130.4</ele>
        <time>2021-08-20T09:35:14Z</time>
      </trkpt>
      <trkpt lat="43.32273" lon="-0.76096">
        <ele>130.4</ele>
        <time>2021-08-20T09:35:21Z</time>
      </trkpt>
      <trkpt lat="43.32275" lon="-0.76099">
        <ele>130.4</ele>
        <time>2021-08-20T09:35:47Z</time>
      </trkpt>
      <trkpt lat="43.32276" lon="-0.761">
        <ele>130.4</ele>
        <time>2021-08-20T09:36:05Z</time>
      </trkpt>
      <trkpt lat="43.32276" lon="-0.761">
        <ele>130.4</ele>
        <time>2021-08-20T09:36:20Z</time>
      </trkpt>
      <trkpt lat="43.32277" lon="-0.761">
        <ele>130.4</ele>
        <time>2021-08-20T09:36:32Z</time>
      </trkpt>
      <trkpt lat="43.32276" lon="-0.76098">
        <ele>129.92</ele>
        <time>2021-08-20T09:36:45Z</time>
      </trkpt>
      <trkpt lat="43.32276" lon="-0.76097">
        <ele>129.92</ele>
        <time>2021-08-20T09:37:01Z</time>
      </trkpt>
      <trkpt lat="43.32275" lon="-0.76097">
        <ele>129.92</ele>
        <time>2021-08-20T09:37:20Z</time>
      </trkpt>
      <trkpt lat="43.32277" lon="-0.76096">
        <ele>129.92</ele>
        <time>2021-08-20T09:37:29Z</time>
      </trkpt>
      <trkpt lat="43.32277" lon="-0.76099">
        <ele>129.92</ele>
        <time>2021-08-20T09:37:37Z</time>
      </trkpt>
      <trkpt lat="43.32274" lon="-0.76101">
        <ele>129.92</ele>
        <time>2021-08-20T09:37:48Z</time>
      </trkpt>
      <trkpt lat="43.32271" lon="-0.76099">
        <ele>129.92</ele>
        <time>2021-08-20T09:37:52Z</time>
      </trkpt>
      <trkpt lat="43.3227" lon="-0.76098">
        <ele>129.92</ele>
        <time>2021-08-20T09:37:53Z</time>
      </trkpt>
      <trkpt lat="43.3227" lon="-0.76097">
        <ele>129.92</ele>
        <time>2021-08-20T09:37:54Z</time>
      </trkpt>
      <trkpt lat="43.32268" lon="-0.76095">
        <ele>129.92</ele>
        <time>2021-08-20T09:37:55Z</time>
      </trkpt>
      <trkpt lat="43.32267" lon="-0.76093">
        <ele>129.92</ele>
        <time>2021-08-20T09:37:56Z</time>
      </trkpt>
      <trkpt lat="43.32251" lon="-0.76075">
        <ele>129.92</ele>
        <time>2021-08-20T09:38:03Z</time>
      </trkpt>
      <trkpt lat="43.32232" lon="-0.76057">
        <ele>129.92</ele>
        <time>2021-08-20T09:38:10Z</time>
      </trkpt>
      <trkpt lat="43.32229" lon="-0.76053">
        <ele>129.92</ele>
        <time>2021-08-20T09:38:12Z</time>
      </trkpt>
      <trkpt lat="43.32226" lon="-0.76054">
        <ele>129.92</ele>
        <time>2021-08-20T09:38:13Z</time>
      </trkpt>
      <trkpt lat="43.32224" lon="-0.76055">
        <ele>129.92</ele>
        <time>2021-08-20T09:38:14Z</time>
      </trkpt>
      <trkpt lat="43.32223" lon="-0.76057">
        <ele>129.92</ele>
        <time>2021-08-20T09:38:15Z</time>
      </trkpt>
      <trkpt lat="43.32221" lon="-0.7606">
        <ele>129.92</ele>
        <time>2021-08-20T09:38:16Z</time>
      </trkpt>
      <trkpt lat="43.32219" lon="-0.76063">
        <ele>129.92</ele>
        <time>2021-08-20T09:38:17Z</time>
      </trkpt>
      <trkpt lat="43.32201" lon="-0.76089">
        <ele>129.92</ele>
        <time>2021-08-20T09:38:25Z</time>
      </trkpt>
      <trkpt lat="43.32192" lon="-0.76103">
        <ele>129.92</ele>
        <time>2021-08-20T09:38:31Z</time>
      </trkpt>
      <trkpt lat="43.32192" lon="-0.76107">
        <ele>131.36</ele>
        <time>2021-08-20T09:38:38Z</time>
      </trkpt>
      <trkpt lat="43.32192" lon="-0.76109">
        <ele>131.36</ele>
        <time>2021-08-20T09:38:39Z</time>
      </trkpt>
      <trkpt lat="43.32193" lon="-0.7611">
        <ele>131.36</ele>
        <time>2021-08-20T09:38:40Z</time>
      </trkpt>
      <trkpt lat="43.32193" lon="-0.76112">
        <ele>131.36</ele>
        <time>2021-08-20T09:38:41Z</time>
      </trkpt>
      <trkpt lat="43.32194" lon="-0.76115">
        <ele>131.36</ele>
        <time>2021-08-20T09:38:42Z</time>
      </trkpt>
      <trkpt lat="43.32195" lon="-0.76117">
        <ele>131.36</ele>
        <time>2021-08-20T09:38:43Z</time>
      </trkpt>
      <trkpt lat="43.32196" lon="-0.76119">
        <ele>131.36</ele>
        <time>2021-08-20T09:38:44Z</time>
      </trkpt>
      <trkpt lat="43.32199" lon="-0.76123">
        <ele>130.88</ele>
        <time>2021-08-20T09:38:45Z</time>
      </trkpt>
      <trkpt lat="43.32201" lon="-0.76125">
        <ele>130.88</ele>
        <time>2021-08-20T09:38:46Z</time>
      </trkpt>
      <trkpt lat="43.32212" lon="-0.7614">
        <ele>131.36</ele>
        <time>2021-08-20T09:38:52Z</time>
      </trkpt>
      <trkpt lat="43.32215" lon="-0.7614">
        <ele>130.88</ele>
        <time>2021-08-20T09:38:53Z</time>
      </trkpt>
      <trkpt lat="43.32218" lon="-0.76138">
        <ele>131.36</ele>
        <time>2021-08-20T09:38:54Z</time>
      </trkpt>
      <trkpt lat="43.32235" lon="-0.76113">
        <ele>131.36</ele>
        <time>2021-08-20T09:39:02Z</time>
      </trkpt>
      <trkpt lat="43.32237" lon="-0.76112">
        <ele>131.36</ele>
        <time>2021-08-20T09:39:03Z</time>
      </trkpt>
      <trkpt lat="43.32241" lon="-0.76114">
        <ele>131.36</ele>
        <time>2021-08-20T09:39:04Z</time>
      </trkpt>
      <trkpt lat="43.32243" lon="-0.76116">
        <ele>131.36</ele>
        <time>2021-08-20T09:39:05Z</time>
      </trkpt>
      <trkpt lat="43.32245" lon="-0.76119">
        <ele>131.36</ele>
        <time>2021-08-20T09:39:06Z</time>
      </trkpt>
      <trkpt lat="43.32247" lon="-0.76122">
        <ele>131.36</ele>
        <time>2021-08-20T09:39:07Z</time>
      </trkpt>
      <trkpt lat="43.3225" lon="-0.76125">
        <ele>131.36</ele>
        <time>2021-08-20T09:39:08Z</time>
      </trkpt>
      <trkpt lat="43.3225" lon="-0.76128">
        <ele>130.88</ele>
        <time>2021-08-20T09:39:09Z</time>
      </trkpt>
      <trkpt lat="43.32251" lon="-0.76136">
        <ele>131.36</ele>
        <time>2021-08-20T09:39:11Z</time>
      </trkpt>
      <trkpt lat="43.32254" lon="-0.76139">
        <ele>131.36</ele>
        <time>2021-08-20T09:39:12Z</time>
      </trkpt>
      <trkpt lat="43.32269" lon="-0.7616">
        <ele>131.36</ele>
        <time>2021-08-20T09:39:20Z</time>
      </trkpt>
      <trkpt lat="43.32271" lon="-0.76163">
        <ele>131.36</ele>
        <time>2021-08-20T09:39:22Z</time>
      </trkpt>
      <trkpt lat="43.32273" lon="-0.76161">
        <ele>131.36</ele>
        <time>2021-08-20T09:39:23Z</time>
      </trkpt>
      <trkpt lat="43.32275" lon="-0.76159">
        <ele>131.36</ele>
        <time>2021-08-20T09:39:24Z</time>
      </trkpt>
      <trkpt lat="43.32276" lon="-0.76157">
        <ele>130.88</ele>
        <time>2021-08-20T09:39:25Z</time>
      </trkpt>
      <trkpt lat="43.32278" lon="-0.76155">
        <ele>131.36</ele>
        <time>2021-08-20T09:39:26Z</time>
      </trkpt>
      <trkpt lat="43.3228" lon="-0.76152">
        <ele>131.36</ele>
        <time>2021-08-20T09:39:27Z</time>
      </trkpt>
      <trkpt lat="43.32284" lon="-0.76149">
        <ele>131.36</ele>
        <time>2021-08-20T09:39:28Z</time>
      </trkpt>
      <trkpt lat="43.32287" lon="-0.76145">
        <ele>131.36</ele>
        <time>2021-08-20T09:39:29Z</time>
      </trkpt>
      <trkpt lat="43.3229" lon="-0.76143">
        <ele>130.88</ele>
        <time>2021-08-20T09:39:30Z</time>
      </trkpt>
      <trkpt lat="43.32292" lon="-0.7614">
        <ele>130.88</ele>
        <time>2021-08-20T09:39:31Z</time>
      </trkpt>
      <trkpt lat="43.32294" lon="-0.76139">
        <ele>131.36</ele>
        <time>2021-08-20T09:39:32Z</time>
      </trkpt>
      <trkpt lat="43.32297" lon="-0.7614">
        <ele>130.88</ele>
        <time>2021-08-20T09:39:33Z</time>
      </trkpt>
      <trkpt lat="43.32299" lon="-0.76142">
        <ele>131.36</ele>
        <time>2021-08-20T09:39:34Z</time>
      </trkpt>
      <trkpt lat="43.32319" lon="-0.76168">
        <ele>129.92</ele>
        <time>2021-08-20T09:39:42Z</time>
      </trkpt>
      <trkpt lat="43.32335" lon="-0.76191">
        <ele>129.92</ele>
        <time>2021-08-20T09:39:49Z</time>
      </trkpt>
      <trkpt lat="43.32341" lon="-0.762">
        <ele>129.92</ele>
        <time>2021-08-20T09:39:53Z</time>
      </trkpt>
      <trkpt lat="43.3234" lon="-0.76203">
        <ele>129.92</ele>
        <time>2021-08-20T09:39:54Z</time>
      </trkpt>
      <trkpt lat="43.32338" lon="-0.76205">
        <ele>129.92</ele>
        <time>2021-08-20T09:39:55Z</time>
      </trkpt>
      <trkpt lat="43.32324" lon="-0.76224">
        <ele>129.43</ele>
        <time>2021-08-20T09:40:02Z</time>
      </trkpt>
      <trkpt lat="43.32315" lon="-0.76241">
        <ele>128.95</ele>
        <time>2021-08-20T09:40:07Z</time>
      </trkpt>
      <trkpt lat="43.32311" lon="-0.76243">
        <ele>128.95</ele>
        <time>2021-08-20T09:40:09Z</time>
      </trkpt>
      <trkpt lat="43.32308" lon="-0.76241">
        <ele>128.95</ele>
        <time>2021-08-20T09:40:10Z</time>
      </trkpt>
      <trkpt lat="43.32305" lon="-0.76237">
        <ele>128.95</ele>
        <time>2021-08-20T09:40:11Z</time>
      </trkpt>
      <trkpt lat="43.32301" lon="-0.76234">
        <ele>128.95</ele>
        <time>2021-08-20T09:40:12Z</time>
      </trkpt>
      <trkpt lat="43.32299" lon="-0.76234">
        <ele>128.95</ele>
        <time>2021-08-20T09:40:13Z</time>
      </trkpt>
      <trkpt lat="43.32295" lon="-0.76234">
        <ele>128.95</ele>
        <time>2021-08-20T09:40:14Z</time>
      </trkpt>
      <trkpt lat="43.32292" lon="-0.76234">
        <ele>128.95</ele>
        <time>2021-08-20T09:40:15Z</time>
      </trkpt>
      <trkpt lat="43.32278" lon="-0.76241">
        <ele>130.4</ele>
        <time>2021-08-20T09:40:21Z</time>
      </trkpt>
      <trkpt lat="43.32277" lon="-0.7624">
        <ele>130.4</ele>
        <time>2021-08-20T09:40:22Z</time>
      </trkpt>
      <trkpt lat="43.32279" lon="-0.76239">
        <ele>130.4</ele>
        <time>2021-08-20T09:40:24Z</time>
      </trkpt>
      <trkpt lat="43.32285" lon="-0.76237">
        <ele>130.4</ele>
        <time>2021-08-20T09:40:27Z</time>
      </trkpt>
      <trkpt lat="43.32287" lon="-0.76234">
        <ele>130.4</ele>
        <time>2021-08-20T09:40:28Z</time>
      </trkpt>
      <trkpt lat="43.32289" lon="-0.76233">
        <ele>130.4</ele>
        <time>2021-08-20T09:40:29Z</time>
      </trkpt>
      <trkpt lat="43.32293" lon="-0.76233">
        <ele>130.4</ele>
        <time>2021-08-20T09:40:30Z</time>
      </trkpt>
      <trkpt lat="43.32297" lon="-0.76233">
        <ele>130.4</ele>
        <time>2021-08-20T09:40:31Z</time>
      </trkpt>
      <trkpt lat="43.32302" lon="-0.76235">
        <ele>129.92</ele>
        <time>2021-08-20T09:40:33Z</time>
      </trkpt>
      <trkpt lat="43.32305" lon="-0.76238">
        <ele>130.4</ele>
        <time>2021-08-20T09:40:34Z</time>
      </trkpt>
      <trkpt lat="43.32307" lon="-0.7624">
        <ele>129.92</ele>
        <time>2021-08-20T09:40:35Z</time>
      </trkpt>
      <trkpt lat="43.32308" lon="-0.76244">
        <ele>130.4</ele>
        <time>2021-08-20T09:40:36Z</time>
      </trkpt>
      <trkpt lat="43.32307" lon="-0.76247">
        <ele>130.4</ele>
        <time>2021-08-20T09:40:37Z</time>
      </trkpt>
      <trkpt lat="43.32307" lon="-0.76252">
        <ele>130.4</ele>
        <time>2021-08-20T09:40:38Z</time>
      </trkpt>
      <trkpt lat="43.32291" lon="-0.76272">
        <ele>128.95</ele>
        <time>2021-08-20T09:40:45Z</time>
      </trkpt>
      <trkpt lat="43.32274" lon="-0.76267">
        <ele>127.99</ele>
        <time>2021-08-20T09:40:51Z</time>
      </trkpt>
      <trkpt lat="43.32273" lon="-0.76267">
        <ele>127.99</ele>
        <time>2021-08-20T09:40:52Z</time>
      </trkpt>
      <trkpt lat="43.32272" lon="-0.76268">
        <ele>127.99</ele>
        <time>2021-08-20T09:40:53Z</time>
      </trkpt>
      <trkpt lat="43.32271" lon="-0.7627">
        <ele>127.99</ele>
        <time>2021-08-20T09:40:54Z</time>
      </trkpt>
      <trkpt lat="43.3227" lon="-0.76273">
        <ele>127.03</ele>
        <time>2021-08-20T09:40:55Z</time>
      </trkpt>
      <trkpt lat="43.32268" lon="-0.76277">
        <ele>127.03</ele>
        <time>2021-08-20T09:40:56Z</time>
      </trkpt>
      <trkpt lat="43.32265" lon="-0.7628">
        <ele>127.03</ele>
        <time>2021-08-20T09:40:57Z</time>
      </trkpt>
      <trkpt lat="43.3226" lon="-0.76283">
        <ele>126.55</ele>
        <time>2021-08-20T09:40:58Z</time>
      </trkpt>
      <trkpt lat="43.32255" lon="-0.76285">
        <ele>126.07</ele>
        <time>2021-08-20T09:40:59Z</time>
      </trkpt>
      <trkpt lat="43.32249" lon="-0.76288">
        <ele>125.11</ele>
        <time>2021-08-20T09:41:00Z</time>
      </trkpt>
      <trkpt lat="43.32243" lon="-0.76294">
        <ele>124.63</ele>
        <time>2021-08-20T09:41:01Z</time>
      </trkpt>
      <trkpt lat="43.32239" lon="-0.76302">
        <ele>123.67</ele>
        <time>2021-08-20T09:41:02Z</time>
      </trkpt>
      <trkpt lat="43.32237" lon="-0.76312">
        <ele>122.71</ele>
        <time>2021-08-20T09:41:03Z</time>
      </trkpt>
      <trkpt lat="43.32236" lon="-0.76322">
        <ele>122.22</ele>
        <time>2021-08-20T09:41:04Z</time>
      </trkpt>
      <trkpt lat="43.32237" lon="-0.76334">
        <ele>121.74</ele>
        <time>2021-08-20T09:41:05Z</time>
      </trkpt>
      <trkpt lat="43.32239" lon="-0.76345">
        <ele>121.74</ele>
        <time>2021-08-20T09:41:06Z</time>
      </trkpt>
      <trkpt lat="43.32242" lon="-0.76357">
        <ele>121.26</ele>
        <time>2021-08-20T09:41:07Z</time>
      </trkpt>
      <trkpt lat="43.32253" lon="-0.76408">
        <ele>123.19</ele>
        <time>2021-08-20T09:41:13Z</time>
      </trkpt>
      <trkpt lat="43.32266" lon="-0.76461">
        <ele>121.74</ele>
        <time>2021-08-20T09:41:19Z</time>
      </trkpt>
      <trkpt lat="43.32272" lon="-0.76492">
        <ele>119.82</ele>
        <time>2021-08-20T09:41:22Z</time>
      </trkpt>
      <trkpt lat="43.32275" lon="-0.76514">
        <ele>119.82</ele>
        <time>2021-08-20T09:41:24Z</time>
      </trkpt>
      <trkpt lat="43.32277" lon="-0.76524">
        <ele>119.82</ele>
        <time>2021-08-20T09:41:25Z</time>
      </trkpt>
      <trkpt lat="43.32282" lon="-0.76533">
        <ele>119.34</ele>
        <time>2021-08-20T09:41:26Z</time>
      </trkpt>
      <trkpt lat="43.32288" lon="-0.76541">
        <ele>118.86</ele>
        <time>2021-08-20T09:41:27Z</time>
      </trkpt>
      <trkpt lat="43.32294" lon="-0.76547">
        <ele>119.34</ele>
        <time>2021-08-20T09:41:28Z</time>
      </trkpt>
      <trkpt lat="43.32337" lon="-0.76584">
        <ele>118.86</ele>
        <time>2021-08-20T09:41:35Z</time>
      </trkpt>
      <trkpt lat="43.32349" lon="-0.76593">
        <ele>120.3</ele>
        <time>2021-08-20T09:41:37Z</time>
      </trkpt>
      <trkpt lat="43.3236" lon="-0.766">
        <ele>121.26</ele>
        <time>2021-08-20T09:41:39Z</time>
      </trkpt>
      <trkpt lat="43.32364" lon="-0.76604">
        <ele>121.74</ele>
        <time>2021-08-20T09:41:40Z</time>
      </trkpt>
      <trkpt lat="43.32383" lon="-0.76625">
        <ele>124.15</ele>
        <time>2021-08-20T09:41:46Z</time>
      </trkpt>
      <trkpt lat="43.32395" lon="-0.76642">
        <ele>125.59</ele>
        <time>2021-08-20T09:41:52Z</time>
      </trkpt>
      <trkpt lat="43.32405" lon="-0.76671">
        <ele>127.03</ele>
        <time>2021-08-20T09:42:00Z</time>
      </trkpt>
      <trkpt lat="43.32412" lon="-0.76697">
        <ele>128.47</ele>
        <time>2021-08-20T09:42:07Z</time>
      </trkpt>
      <trkpt lat="43.32419" lon="-0.76729">
        <ele>129.43</ele>
        <time>2021-08-20T09:42:15Z</time>
      </trkpt>
      <trkpt lat="43.32432" lon="-0.76769">
        <ele>129.92</ele>
        <time>2021-08-20T09:42:24Z</time>
      </trkpt>
      <trkpt lat="43.32449" lon="-0.7682">
        <ele>129.92</ele>
        <time>2021-08-20T09:42:33Z</time>
      </trkpt>
      <trkpt lat="43.32452" lon="-0.76832">
        <ele>129.92</ele>
        <time>2021-08-20T09:42:35Z</time>
      </trkpt>
      <trkpt lat="43.32467" lon="-0.76884">
        <ele>129.92</ele>
        <time>2021-08-20T09:42:43Z</time>
      </trkpt>
      <trkpt lat="43.32484" lon="-0.76951">
        <ele>128.47</ele>
        <time>2021-08-20T09:42:52Z</time>
      </trkpt>
      <trkpt lat="43.32497" lon="-0.77023">
        <ele>128.47</ele>
        <time>2021-08-20T09:43:01Z</time>
      </trkpt>
      <trkpt lat="43.32498" lon="-0.77077">
        <ele>128.47</ele>
        <time>2021-08-20T09:43:08Z</time>
      </trkpt>
      <trkpt lat="43.32498" lon="-0.77091">
        <ele>128.47</ele>
        <time>2021-08-20T09:43:10Z</time>
      </trkpt>
      <trkpt lat="43.32499" lon="-0.77155">
        <ele>129.92</ele>
        <time>2021-08-20T09:43:19Z</time>
      </trkpt>
      <trkpt lat="43.325" lon="-0.77234">
        <ele>129.92</ele>
        <time>2021-08-20T09:43:30Z</time>
      </trkpt>
      <trkpt lat="43.32502" lon="-0.77294">
        <ele>131.36</ele>
        <time>2021-08-20T09:43:39Z</time>
      </trkpt>
      <trkpt lat="43.32503" lon="-0.77299">
        <ele>131.36</ele>
        <time>2021-08-20T09:43:40Z</time>
      </trkpt>
      <trkpt lat="43.3251" lon="-0.7732">
        <ele>132.32</ele>
        <time>2021-08-20T09:43:44Z</time>
      </trkpt>
      <trkpt lat="43.32512" lon="-0.77325">
        <ele>132.32</ele>
        <time>2021-08-20T09:43:45Z</time>
      </trkpt>
      <trkpt lat="43.32514" lon="-0.77331">
        <ele>132.32</ele>
        <time>2021-08-20T09:43:46Z</time>
      </trkpt>
      <trkpt lat="43.32514" lon="-0.77337">
        <ele>132.32</ele>
        <time>2021-08-20T09:43:47Z</time>
      </trkpt>
      <trkpt lat="43.32514" lon="-0.77343">
        <ele>132.32</ele>
        <time>2021-08-20T09:43:48Z</time>
      </trkpt>
      <trkpt lat="43.32512" lon="-0.77349">
        <ele>132.32</ele>
        <time>2021-08-20T09:43:49Z</time>
      </trkpt>
      <trkpt lat="43.3251" lon="-0.77354">
        <ele>132.32</ele>
        <time>2021-08-20T09:43:50Z</time>
      </trkpt>
      <trkpt lat="43.32506" lon="-0.7736">
        <ele>132.32</ele>
        <time>2021-08-20T09:43:51Z</time>
      </trkpt>
      <trkpt lat="43.32503" lon="-0.77365">
        <ele>132.32</ele>
        <time>2021-08-20T09:43:52Z</time>
      </trkpt>
      <trkpt lat="43.325" lon="-0.7737">
        <ele>132.32</ele>
        <time>2021-08-20T09:43:53Z</time>
      </trkpt>
      <trkpt lat="43.32498" lon="-0.77376">
        <ele>132.32</ele>
        <time>2021-08-20T09:43:54Z</time>
      </trkpt>
      <trkpt lat="43.32495" lon="-0.77383">
        <ele>132.32</ele>
        <time>2021-08-20T09:43:55Z</time>
      </trkpt>
      <trkpt lat="43.32493" lon="-0.7739">
        <ele>132.32</ele>
        <time>2021-08-20T09:43:56Z</time>
      </trkpt>
      <trkpt lat="43.32491" lon="-0.77398">
        <ele>132.32</ele>
        <time>2021-08-20T09:43:57Z</time>
      </trkpt>
      <trkpt lat="43.32476" lon="-0.77468">
        <ele>132.32</ele>
        <time>2021-08-20T09:44:06Z</time>
      </trkpt>
      <trkpt lat="43.32463" lon="-0.77548">
        <ele>132.32</ele>
        <time>2021-08-20T09:44:16Z</time>
      </trkpt>
      <trkpt lat="43.32449" lon="-0.77627">
        <ele>133.28</ele>
        <time>2021-08-20T09:44:26Z</time>
      </trkpt>
      <trkpt lat="43.32435" lon="-0.77701">
        <ele>133.28</ele>
        <time>2021-08-20T09:44:35Z</time>
      </trkpt>
      <trkpt lat="43.32419" lon="-0.77776">
        <ele>133.28</ele>
        <time>2021-08-20T09:44:44Z</time>
      </trkpt>
      <trkpt lat="43.32406" lon="-0.77854">
        <ele>133.76</ele>
        <time>2021-08-20T09:44:53Z</time>
      </trkpt>
      <trkpt lat="43.32404" lon="-0.7787">
        <ele>134.24</ele>
        <time>2021-08-20T09:44:55Z</time>
      </trkpt>
      <trkpt lat="43.32392" lon="-0.77931">
        <ele>134.72</ele>
        <time>2021-08-20T09:45:03Z</time>
      </trkpt>
      <trkpt lat="43.32385" lon="-0.77954">
        <ele>136.16</ele>
        <time>2021-08-20T09:45:07Z</time>
      </trkpt>
      <trkpt lat="43.32383" lon="-0.7797">
        <ele>136.64</ele>
        <time>2021-08-20T09:45:10Z</time>
      </trkpt>
      <trkpt lat="43.32384" lon="-0.77974">
        <ele>136.64</ele>
        <time>2021-08-20T09:45:11Z</time>
      </trkpt>
      <trkpt lat="43.32385" lon="-0.77978">
        <ele>137.13</ele>
        <time>2021-08-20T09:45:12Z</time>
      </trkpt>
      <trkpt lat="43.32395" lon="-0.78005">
        <ele>138.57</ele>
        <time>2021-08-20T09:45:20Z</time>
      </trkpt>
      <trkpt lat="43.32408" lon="-0.78028">
        <ele>140.01</ele>
        <time>2021-08-20T09:45:28Z</time>
      </trkpt>
      <trkpt lat="43.32423" lon="-0.78045">
        <ele>140.97</ele>
        <time>2021-08-20T09:45:37Z</time>
      </trkpt>
      <trkpt lat="43.32432" lon="-0.78052">
        <ele>141.93</ele>
        <time>2021-08-20T09:45:42Z</time>
      </trkpt>
      <trkpt lat="43.32447" lon="-0.78059">
        <ele>142.89</ele>
        <time>2021-08-20T09:45:50Z</time>
      </trkpt>
      <trkpt lat="43.32459" lon="-0.78063">
        <ele>143.85</ele>
        <time>2021-08-20T09:45:57Z</time>
      </trkpt>
      <trkpt lat="43.32474" lon="-0.78066">
        <ele>144.82</ele>
        <time>2021-08-20T09:46:04Z</time>
      </trkpt>
      <trkpt lat="43.32497" lon="-0.78076">
        <ele>146.26</ele>
        <time>2021-08-20T09:46:13Z</time>
      </trkpt>
      <trkpt lat="43.32512" lon="-0.78084">
        <ele>147.7</ele>
        <time>2021-08-20T09:46:20Z</time>
      </trkpt>
      <trkpt lat="43.32528" lon="-0.78088">
        <ele>148.66</ele>
        <time>2021-08-20T09:46:27Z</time>
      </trkpt>
      <trkpt lat="43.32551" lon="-0.78097">
        <ele>150.1</ele>
        <time>2021-08-20T09:46:36Z</time>
      </trkpt>
      <trkpt lat="43.32564" lon="-0.78103">
        <ele>150.58</ele>
        <time>2021-08-20T09:46:41Z</time>
      </trkpt>
      <trkpt lat="43.32577" lon="-0.78104">
        <ele>151.54</ele>
        <time>2021-08-20T09:46:46Z</time>
      </trkpt>
      <trkpt lat="43.32595" lon="-0.78097">
        <ele>152.99</ele>
        <time>2021-08-20T09:46:53Z</time>
      </trkpt>
      <trkpt lat="43.32616" lon="-0.78088">
        <ele>153.95</ele>
        <time>2021-08-20T09:47:02Z</time>
      </trkpt>
      <trkpt lat="43.32632" lon="-0.78095">
        <ele>155.39</ele>
        <time>2021-08-20T09:47:10Z</time>
      </trkpt>
      <trkpt lat="43.32643" lon="-0.78116">
        <ele>156.83</ele>
        <time>2021-08-20T09:47:18Z</time>
      </trkpt>
      <trkpt lat="43.32645" lon="-0.78137">
        <ele>157.79</ele>
        <time>2021-08-20T09:47:24Z</time>
      </trkpt>
      <trkpt lat="43.32636" lon="-0.78159">
        <ele>159.24</ele>
        <time>2021-08-20T09:47:31Z</time>
      </trkpt>
      <trkpt lat="43.32616" lon="-0.78181">
        <ele>160.68</ele>
        <time>2021-08-20T09:47:40Z</time>
      </trkpt>
      <trkpt lat="43.32612" lon="-0.78195">
        <ele>161.16</ele>
        <time>2021-08-20T09:47:44Z</time>
      </trkpt>
      <trkpt lat="43.32614" lon="-0.78198">
        <ele>161.64</ele>
        <time>2021-08-20T09:47:45Z</time>
      </trkpt>
      <trkpt lat="43.32616" lon="-0.78201">
        <ele>161.64</ele>
        <time>2021-08-20T09:47:46Z</time>
      </trkpt>
      <trkpt lat="43.32619" lon="-0.78204">
        <ele>161.64</ele>
        <time>2021-08-20T09:47:47Z</time>
      </trkpt>
      <trkpt lat="43.32622" lon="-0.78205">
        <ele>161.64</ele>
        <time>2021-08-20T09:47:48Z</time>
      </trkpt>
      <trkpt lat="43.32626" lon="-0.78207">
        <ele>161.64</ele>
        <time>2021-08-20T09:47:49Z</time>
      </trkpt>
      <trkpt lat="43.32642" lon="-0.78212">
        <ele>161.64</ele>
        <time>2021-08-20T09:47:53Z</time>
      </trkpt>
      <trkpt lat="43.32692" lon="-0.78216">
        <ele>161.64</ele>
        <time>2021-08-20T09:48:03Z</time>
      </trkpt>
      <trkpt lat="43.3271" lon="-0.78215">
        <ele>159.72</ele>
        <time>2021-08-20T09:48:06Z</time>
      </trkpt>
      <trkpt lat="43.32715" lon="-0.78214">
        <ele>159.72</ele>
        <time>2021-08-20T09:48:07Z</time>
      </trkpt>
      <trkpt lat="43.32749" lon="-0.78205">
        <ele>159.72</ele>
        <time>2021-08-20T09:48:13Z</time>
      </trkpt>
      <trkpt lat="43.32754" lon="-0.78204">
        <ele>159.72</ele>
        <time>2021-08-20T09:48:14Z</time>
      </trkpt>
      <trkpt lat="43.3279" lon="-0.78213">
        <ele>158.75</ele>
        <time>2021-08-20T09:48:21Z</time>
      </trkpt>
      <trkpt lat="43.328" lon="-0.78219">
        <ele>159.24</ele>
        <time>2021-08-20T09:48:23Z</time>
      </trkpt>
      <trkpt lat="43.32805" lon="-0.78222">
        <ele>159.24</ele>
        <time>2021-08-20T09:48:24Z</time>
      </trkpt>
      <trkpt lat="43.32846" lon="-0.78232">
        <ele>158.75</ele>
        <time>2021-08-20T09:48:32Z</time>
      </trkpt>
      <trkpt lat="43.32849" lon="-0.78234">
        <ele>158.75</ele>
        <time>2021-08-20T09:48:33Z</time>
      </trkpt>
      <trkpt lat="43.32852" lon="-0.78239">
        <ele>158.75</ele>
        <time>2021-08-20T09:48:34Z</time>
      </trkpt>
      <trkpt lat="43.32852" lon="-0.78245">
        <ele>158.75</ele>
        <time>2021-08-20T09:48:35Z</time>
      </trkpt>
      <trkpt lat="43.32852" lon="-0.78251">
        <ele>158.75</ele>
        <time>2021-08-20T09:48:36Z</time>
      </trkpt>
      <trkpt lat="43.3285" lon="-0.78257">
        <ele>158.75</ele>
        <time>2021-08-20T09:48:37Z</time>
      </trkpt>
      <trkpt lat="43.32846" lon="-0.78308">
        <ele>158.75</ele>
        <time>2021-08-20T09:48:44Z</time>
      </trkpt>
      <trkpt lat="43.32846" lon="-0.7837">
        <ele>160.2</ele>
        <time>2021-08-20T09:48:52Z</time>
      </trkpt>
      <trkpt lat="43.32847" lon="-0.78425">
        <ele>161.16</ele>
        <time>2021-08-20T09:48:59Z</time>
      </trkpt>
      <trkpt lat="43.32847" lon="-0.78433">
        <ele>161.16</ele>
        <time>2021-08-20T09:49:00Z</time>
      </trkpt>
      <trkpt lat="43.32849" lon="-0.78481">
        <ele>161.64</ele>
        <time>2021-08-20T09:49:07Z</time>
      </trkpt>
      <trkpt lat="43.32851" lon="-0.78508">
        <ele>161.64</ele>
        <time>2021-08-20T09:49:11Z</time>
      </trkpt>
      <trkpt lat="43.32854" lon="-0.78561">
        <ele>160.2</ele>
        <time>2021-08-20T09:49:19Z</time>
      </trkpt>
      <trkpt lat="43.3286" lon="-0.78623">
        <ele>160.2</ele>
        <time>2021-08-20T09:49:28Z</time>
      </trkpt>
      <trkpt lat="43.32868" lon="-0.78674">
        <ele>160.2</ele>
        <time>2021-08-20T09:49:35Z</time>
      </trkpt>
      <trkpt lat="43.32874" lon="-0.78701">
        <ele>161.64</ele>
        <time>2021-08-20T09:49:39Z</time>
      </trkpt>
      <trkpt lat="43.32894" lon="-0.78742">
        <ele>163.08</ele>
        <time>2021-08-20T09:49:46Z</time>
      </trkpt>
      <trkpt lat="43.3293" lon="-0.78796">
        <ele>161.64</ele>
        <time>2021-08-20T09:49:55Z</time>
      </trkpt>
      <trkpt lat="43.32972" lon="-0.78859">
        <ele>160.2</ele>
        <time>2021-08-20T09:50:05Z</time>
      </trkpt>
      <trkpt lat="43.32995" lon="-0.78893">
        <ele>160.2</ele>
        <time>2021-08-20T09:50:11Z</time>
      </trkpt>
      <trkpt lat="43.3303" lon="-0.78946">
        <ele>160.2</ele>
        <time>2021-08-20T09:50:19Z</time>
      </trkpt>
      <trkpt lat="43.33058" lon="-0.78987">
        <ele>160.2</ele>
        <time>2021-08-20T09:50:26Z</time>
      </trkpt>
      <trkpt lat="43.33062" lon="-0.78992">
        <ele>160.2</ele>
        <time>2021-08-20T09:50:29Z</time>
      </trkpt>
      <trkpt lat="43.33064" lon="-0.78992">
        <ele>160.2</ele>
        <time>2021-08-20T09:50:30Z</time>
      </trkpt>
      <trkpt lat="43.33065" lon="-0.78994">
        <ele>160.2</ele>
        <time>2021-08-20T09:50:31Z</time>
      </trkpt>
      <trkpt lat="43.33064" lon="-0.78997">
        <ele>160.68</ele>
        <time>2021-08-20T09:50:32Z</time>
      </trkpt>
      <trkpt lat="43.33063" lon="-0.78999">
        <ele>160.2</ele>
        <time>2021-08-20T09:50:33Z</time>
      </trkpt>
      <trkpt lat="43.33062" lon="-0.79001">
        <ele>160.2</ele>
        <time>2021-08-20T09:50:34Z</time>
      </trkpt>
      <trkpt lat="43.33061" lon="-0.79003">
        <ele>160.2</ele>
        <time>2021-08-20T09:50:35Z</time>
      </trkpt>
      <trkpt lat="43.3306" lon="-0.79004">
        <ele>160.2</ele>
        <time>2021-08-20T09:50:36Z</time>
      </trkpt>
      <trkpt lat="43.33059" lon="-0.79006">
        <ele>160.2</ele>
        <time>2021-08-20T09:50:37Z</time>
      </trkpt>
      <trkpt lat="43.33058" lon="-0.79007">
        <ele>160.2</ele>
        <time>2021-08-20T09:50:43Z</time>
      </trkpt>
      <trkpt lat="43.33058" lon="-0.79008">
        <ele>160.2</ele>
        <time>2021-08-20T09:50:59Z</time>
      </trkpt>
      <trkpt lat="43.33057" lon="-0.79009">
        <ele>160.2</ele>
        <time>2021-08-20T09:51:00Z</time>
      </trkpt>
      <trkpt lat="43.33055" lon="-0.79011">
        <ele>160.2</ele>
        <time>2021-08-20T09:51:01Z</time>
      </trkpt>
      <trkpt lat="43.33054" lon="-0.79014">
        <ele>160.2</ele>
        <time>2021-08-20T09:51:02Z</time>
      </trkpt>
      <trkpt lat="43.33051" lon="-0.79017">
        <ele>159.72</ele>
        <time>2021-08-20T09:51:03Z</time>
      </trkpt>
      <trkpt lat="43.33034" lon="-0.79037">
        <ele>157.79</ele>
        <time>2021-08-20T09:51:08Z</time>
      </trkpt>
      <trkpt lat="43.33027" lon="-0.79048">
        <ele>156.83</ele>
        <time>2021-08-20T09:51:10Z</time>
      </trkpt>
      <trkpt lat="43.33025" lon="-0.79054">
        <ele>156.35</ele>
        <time>2021-08-20T09:51:11Z</time>
      </trkpt>
      <trkpt lat="43.33023" lon="-0.7906">
        <ele>156.35</ele>
        <time>2021-08-20T09:51:12Z</time>
      </trkpt>
      <trkpt lat="43.3302" lon="-0.79081">
        <ele>153.95</ele>
        <time>2021-08-20T09:51:15Z</time>
      </trkpt>
      <trkpt lat="43.3302" lon="-0.79089">
        <ele>153.95</ele>
        <time>2021-08-20T09:51:16Z</time>
      </trkpt>
      <trkpt lat="43.33022" lon="-0.79097">
        <ele>152.99</ele>
        <time>2021-08-20T09:51:17Z</time>
      </trkpt>
      <trkpt lat="43.33024" lon="-0.79105">
        <ele>152.51</ele>
        <time>2021-08-20T09:51:18Z</time>
      </trkpt>
      <trkpt lat="43.33026" lon="-0.79113">
        <ele>152.51</ele>
        <time>2021-08-20T09:51:19Z</time>
      </trkpt>
      <trkpt lat="43.33033" lon="-0.79148">
        <ele>150.1</ele>
        <time>2021-08-20T09:51:23Z</time>
      </trkpt>
      <trkpt lat="43.33033" lon="-0.79158">
        <ele>149.14</ele>
        <time>2021-08-20T09:51:24Z</time>
      </trkpt>
      <trkpt lat="43.33032" lon="-0.79167">
        <ele>149.14</ele>
        <time>2021-08-20T09:51:25Z</time>
      </trkpt>
      <trkpt lat="43.33029" lon="-0.79174">
        <ele>148.66</ele>
        <time>2021-08-20T09:51:26Z</time>
      </trkpt>
      <trkpt lat="43.33025" lon="-0.79181">
        <ele>148.66</ele>
        <time>2021-08-20T09:51:27Z</time>
      </trkpt>
      <trkpt lat="43.33019" lon="-0.79187">
        <ele>148.18</ele>
        <time>2021-08-20T09:51:28Z</time>
      </trkpt>
      <trkpt lat="43.33013" lon="-0.79193">
        <ele>147.7</ele>
        <time>2021-08-20T09:51:29Z</time>
      </trkpt>
      <trkpt lat="43.32986" lon="-0.79226">
        <ele>145.3</ele>
        <time>2021-08-20T09:51:34Z</time>
      </trkpt>
      <trkpt lat="43.32983" lon="-0.79233">
        <ele>145.3</ele>
        <time>2021-08-20T09:51:35Z</time>
      </trkpt>
      <trkpt lat="43.3298" lon="-0.79241">
        <ele>144.82</ele>
        <time>2021-08-20T09:51:36Z</time>
      </trkpt>
      <trkpt lat="43.32978" lon="-0.79249">
        <ele>144.34</ele>
        <time>2021-08-20T09:51:37Z</time>
      </trkpt>
      <trkpt lat="43.32977" lon="-0.79259">
        <ele>143.85</ele>
        <time>2021-08-20T09:51:38Z</time>
      </trkpt>
      <trkpt lat="43.32976" lon="-0.79268">
        <ele>142.89</ele>
        <time>2021-08-20T09:51:39Z</time>
      </trkpt>
      <trkpt lat="43.32976" lon="-0.79279">
        <ele>142.89</ele>
        <time>2021-08-20T09:51:40Z</time>
      </trkpt>
      <trkpt lat="43.32977" lon="-0.79289">
        <ele>141.93</ele>
        <time>2021-08-20T09:51:41Z</time>
      </trkpt>
      <trkpt lat="43.32979" lon="-0.79298">
        <ele>140.97</ele>
        <time>2021-08-20T09:51:42Z</time>
      </trkpt>
      <trkpt lat="43.3298" lon="-0.79308">
        <ele>140.97</ele>
        <time>2021-08-20T09:51:43Z</time>
      </trkpt>
      <trkpt lat="43.32982" lon="-0.79317">
        <ele>140.49</ele>
        <time>2021-08-20T09:51:44Z</time>
      </trkpt>
      <trkpt lat="43.32982" lon="-0.79327">
        <ele>140.49</ele>
        <time>2021-08-20T09:51:45Z</time>
      </trkpt>
      <trkpt lat="43.32982" lon="-0.79337">
        <ele>139.53</ele>
        <time>2021-08-20T09:51:46Z</time>
      </trkpt>
      <trkpt lat="43.32982" lon="-0.79347">
        <ele>138.57</ele>
        <time>2021-08-20T09:51:47Z</time>
      </trkpt>
      <trkpt lat="43.3298" lon="-0.79358">
        <ele>138.09</ele>
        <time>2021-08-20T09:51:48Z</time>
      </trkpt>
      <trkpt lat="43.32978" lon="-0.79369">
        <ele>136.16</ele>
        <time>2021-08-20T09:51:49Z</time>
      </trkpt>
      <trkpt lat="43.32972" lon="-0.79418">
        <ele>132.8</ele>
        <time>2021-08-20T09:51:53Z</time>
      </trkpt>
      <trkpt lat="43.32966" lon="-0.79457">
        <ele>129.43</ele>
        <time>2021-08-20T09:51:56Z</time>
      </trkpt>
      <trkpt lat="43.32952" lon="-0.7952">
        <ele>126.55</ele>
        <time>2021-08-20T09:52:01Z</time>
      </trkpt>
      <trkpt lat="43.32948" lon="-0.79531">
        <ele>126.55</ele>
        <time>2021-08-20T09:52:02Z</time>
      </trkpt>
      <trkpt lat="43.32943" lon="-0.7954">
        <ele>126.55</ele>
        <time>2021-08-20T09:52:03Z</time>
      </trkpt>
      <trkpt lat="43.32937" lon="-0.79548">
        <ele>126.55</ele>
        <time>2021-08-20T09:52:04Z</time>
      </trkpt>
      <trkpt lat="43.32931" lon="-0.79555">
        <ele>126.55</ele>
        <time>2021-08-20T09:52:05Z</time>
      </trkpt>
      <trkpt lat="43.32915" lon="-0.79576">
        <ele>127.99</ele>
        <time>2021-08-20T09:52:08Z</time>
      </trkpt>
      <trkpt lat="43.32901" lon="-0.79591">
        <ele>130.88</ele>
        <time>2021-08-20T09:52:12Z</time>
      </trkpt>
      <trkpt lat="43.32898" lon="-0.79593">
        <ele>130.88</ele>
        <time>2021-08-20T09:52:13Z</time>
      </trkpt>
      <trkpt lat="43.3287" lon="-0.79609">
        <ele>131.36</ele>
        <time>2021-08-20T09:52:21Z</time>
      </trkpt>
      <trkpt lat="43.32844" lon="-0.79622">
        <ele>131.84</ele>
        <time>2021-08-20T09:52:28Z</time>
      </trkpt>
      <trkpt lat="43.32809" lon="-0.7964">
        <ele>131.84</ele>
        <time>2021-08-20T09:52:36Z</time>
      </trkpt>
      <trkpt lat="43.32792" lon="-0.7965">
        <ele>131.84</ele>
        <time>2021-08-20T09:52:40Z</time>
      </trkpt>
      <trkpt lat="43.32763" lon="-0.79667">
        <ele>132.32</ele>
        <time>2021-08-20T09:52:47Z</time>
      </trkpt>
      <trkpt lat="43.32741" lon="-0.7968">
        <ele>132.32</ele>
        <time>2021-08-20T09:52:52Z</time>
      </trkpt>
      <trkpt lat="43.32726" lon="-0.79696">
        <ele>132.32</ele>
        <time>2021-08-20T09:52:56Z</time>
      </trkpt>
      <trkpt lat="43.32717" lon="-0.79707">
        <ele>130.88</ele>
        <time>2021-08-20T09:52:58Z</time>
      </trkpt>
      <trkpt lat="43.32703" lon="-0.79721">
        <ele>129.92</ele>
        <time>2021-08-20T09:53:01Z</time>
      </trkpt>
      <trkpt lat="43.32698" lon="-0.79725">
        <ele>129.92</ele>
        <time>2021-08-20T09:53:02Z</time>
      </trkpt>
      <trkpt lat="43.32692" lon="-0.79728">
        <ele>129.92</ele>
        <time>2021-08-20T09:53:03Z</time>
      </trkpt>
      <trkpt lat="43.32667" lon="-0.79736">
        <ele>128.95</ele>
        <time>2021-08-20T09:53:09Z</time>
      </trkpt>
      <trkpt lat="43.32651" lon="-0.79751">
        <ele>127.03</ele>
        <time>2021-08-20T09:53:14Z</time>
      </trkpt>
      <trkpt lat="43.32644" lon="-0.79771">
        <ele>125.11</ele>
        <time>2021-08-20T09:53:18Z</time>
      </trkpt>
      <trkpt lat="43.32642" lon="-0.79777">
        <ele>124.15</ele>
        <time>2021-08-20T09:53:19Z</time>
      </trkpt>
      <trkpt lat="43.32639" lon="-0.79782">
        <ele>124.15</ele>
        <time>2021-08-20T09:53:20Z</time>
      </trkpt>
      <trkpt lat="43.32635" lon="-0.79787">
        <ele>124.15</ele>
        <time>2021-08-20T09:53:21Z</time>
      </trkpt>
      <trkpt lat="43.32631" lon="-0.7979">
        <ele>124.15</ele>
        <time>2021-08-20T09:53:22Z</time>
      </trkpt>
      <trkpt lat="43.32628" lon="-0.79792">
        <ele>124.15</ele>
        <time>2021-08-20T09:53:23Z</time>
      </trkpt>
      <trkpt lat="43.32625" lon="-0.79794">
        <ele>124.15</ele>
        <time>2021-08-20T09:53:24Z</time>
      </trkpt>
      <trkpt lat="43.32621" lon="-0.79795">
        <ele>123.67</ele>
        <time>2021-08-20T09:53:25Z</time>
      </trkpt>
      <trkpt lat="43.32619" lon="-0.79797">
        <ele>123.67</ele>
        <time>2021-08-20T09:53:26Z</time>
      </trkpt>
      <trkpt lat="43.32617" lon="-0.79799">
        <ele>123.67</ele>
        <time>2021-08-20T09:53:27Z</time>
      </trkpt>
      <trkpt lat="43.32613" lon="-0.79803">
        <ele>123.19</ele>
        <time>2021-08-20T09:53:32Z</time>
      </trkpt>
      <trkpt lat="43.326" lon="-0.79814">
        <ele>122.71</ele>
        <time>2021-08-20T09:53:37Z</time>
      </trkpt>
      <trkpt lat="43.32585" lon="-0.79827">
        <ele>122.71</ele>
        <time>2021-08-20T09:53:43Z</time>
      </trkpt>
      <trkpt lat="43.32578" lon="-0.7983">
        <ele>124.15</ele>
        <time>2021-08-20T09:53:46Z</time>
      </trkpt>
      <trkpt lat="43.32563" lon="-0.79833">
        <ele>124.15</ele>
        <time>2021-08-20T09:53:52Z</time>
      </trkpt>
      <trkpt lat="43.32549" lon="-0.79836">
        <ele>124.15</ele>
        <time>2021-08-20T09:53:56Z</time>
      </trkpt>
      <trkpt lat="43.32546" lon="-0.7984">
        <ele>124.15</ele>
        <time>2021-08-20T09:53:57Z</time>
      </trkpt>
      <trkpt lat="43.32545" lon="-0.79844">
        <ele>124.15</ele>
        <time>2021-08-20T09:53:58Z</time>
      </trkpt>
      <trkpt lat="43.32545" lon="-0.79847">
        <ele>124.15</ele>
        <time>2021-08-20T09:53:59Z</time>
      </trkpt>
      <trkpt lat="43.32546" lon="-0.79851">
        <ele>124.15</ele>
        <time>2021-08-20T09:54:00Z</time>
      </trkpt>
      <trkpt lat="43.32547" lon="-0.79854">
        <ele>124.15</ele>
        <time>2021-08-20T09:54:01Z</time>
      </trkpt>
      <trkpt lat="43.32549" lon="-0.79858">
        <ele>124.15</ele>
        <time>2021-08-20T09:54:02Z</time>
      </trkpt>
      <trkpt lat="43.32551" lon="-0.79862">
        <ele>124.15</ele>
        <time>2021-08-20T09:54:03Z</time>
      </trkpt>
      <trkpt lat="43.32562" lon="-0.79889">
        <ele>124.15</ele>
        <time>2021-08-20T09:54:09Z</time>
      </trkpt>
      <trkpt lat="43.32564" lon="-0.79894">
        <ele>124.15</ele>
        <time>2021-08-20T09:54:10Z</time>
      </trkpt>
      <trkpt lat="43.32569" lon="-0.79903">
        <ele>124.15</ele>
        <time>2021-08-20T09:54:12Z</time>
      </trkpt>
      <trkpt lat="43.32578" lon="-0.79919">
        <ele>124.15</ele>
        <time>2021-08-20T09:54:16Z</time>
      </trkpt>
      <trkpt lat="43.32599" lon="-0.79963">
        <ele>124.15</ele>
        <time>2021-08-20T09:54:25Z</time>
      </trkpt>
      <trkpt lat="43.32607" lon="-0.7999">
        <ele>124.15</ele>
        <time>2021-08-20T09:54:31Z</time>
      </trkpt>
      <trkpt lat="43.32613" lon="-0.8002">
        <ele>124.15</ele>
        <time>2021-08-20T09:54:37Z</time>
      </trkpt>
      <trkpt lat="43.3262" lon="-0.80058">
        <ele>124.15</ele>
        <time>2021-08-20T09:54:44Z</time>
      </trkpt>
      <trkpt lat="43.3263" lon="-0.80095">
        <ele>124.15</ele>
        <time>2021-08-20T09:54:51Z</time>
      </trkpt>
      <trkpt lat="43.32632" lon="-0.801">
        <ele>124.15</ele>
        <time>2021-08-20T09:54:52Z</time>
      </trkpt>
      <trkpt lat="43.32633" lon="-0.80106">
        <ele>124.15</ele>
        <time>2021-08-20T09:54:53Z</time>
      </trkpt>
      <trkpt lat="43.32637" lon="-0.80144">
        <ele>124.15</ele>
        <time>2021-08-20T09:54:59Z</time>
      </trkpt>
      <trkpt lat="43.32638" lon="-0.8015">
        <ele>124.15</ele>
        <time>2021-08-20T09:55:00Z</time>
      </trkpt>
      <trkpt lat="43.32646" lon="-0.80211">
        <ele>124.63</ele>
        <time>2021-08-20T09:55:10Z</time>
      </trkpt>
      <trkpt lat="43.32647" lon="-0.80234">
        <ele>124.63</ele>
        <time>2021-08-20T09:55:14Z</time>
      </trkpt>
      <trkpt lat="43.32647" lon="-0.8024">
        <ele>125.11</ele>
        <time>2021-08-20T09:55:15Z</time>
      </trkpt>
      <trkpt lat="43.32648" lon="-0.80244">
        <ele>125.11</ele>
        <time>2021-08-20T09:55:16Z</time>
      </trkpt>
      <trkpt lat="43.32647" lon="-0.80248">
        <ele>125.11</ele>
        <time>2021-08-20T09:55:17Z</time>
      </trkpt>
      <trkpt lat="43.32647" lon="-0.80252">
        <ele>125.11</ele>
        <time>2021-08-20T09:55:18Z</time>
      </trkpt>
      <trkpt lat="43.32647" lon="-0.80271">
        <ele>125.59</ele>
        <time>2021-08-20T09:55:24Z</time>
      </trkpt>
      <trkpt lat="43.32646" lon="-0.80281">
        <ele>126.07</ele>
        <time>2021-08-20T09:55:27Z</time>
      </trkpt>
      <trkpt lat="43.32646" lon="-0.80305">
        <ele>127.03</ele>
        <time>2021-08-20T09:55:34Z</time>
      </trkpt>
      <trkpt lat="43.32635" lon="-0.80332">
        <ele>127.51</ele>
        <time>2021-08-20T09:55:41Z</time>
      </trkpt>
      <trkpt lat="43.32629" lon="-0.8035">
        <ele>128.95</ele>
        <time>2021-08-20T09:55:47Z</time>
      </trkpt>
      <trkpt lat="43.32622" lon="-0.80367">
        <ele>129.92</ele>
        <time>2021-08-20T09:55:53Z</time>
      </trkpt>
      <trkpt lat="43.3262" lon="-0.80372">
        <ele>129.92</ele>
        <time>2021-08-20T09:55:55Z</time>
      </trkpt>
      <trkpt lat="43.32608" lon="-0.80393">
        <ele>130.88</ele>
        <time>2021-08-20T09:56:02Z</time>
      </trkpt>
      <trkpt lat="43.32599" lon="-0.80424">
        <ele>131.36</ele>
        <time>2021-08-20T09:56:09Z</time>
      </trkpt>
      <trkpt lat="43.32596" lon="-0.80446">
        <ele>131.84</ele>
        <time>2021-08-20T09:56:15Z</time>
      </trkpt>
      <trkpt lat="43.32597" lon="-0.80455">
        <ele>132.32</ele>
        <time>2021-08-20T09:56:18Z</time>
      </trkpt>
      <trkpt lat="43.32597" lon="-0.80458">
        <ele>132.32</ele>
        <time>2021-08-20T09:56:19Z</time>
      </trkpt>
      <trkpt lat="43.32597" lon="-0.80461">
        <ele>132.32</ele>
        <time>2021-08-20T09:56:20Z</time>
      </trkpt>
      <trkpt lat="43.32598" lon="-0.80464">
        <ele>132.32</ele>
        <time>2021-08-20T09:56:21Z</time>
      </trkpt>
      <trkpt lat="43.326" lon="-0.80467">
        <ele>132.32</ele>
        <time>2021-08-20T09:56:22Z</time>
      </trkpt>
      <trkpt lat="43.32604" lon="-0.80486">
        <ele>133.76</ele>
        <time>2021-08-20T09:56:29Z</time>
      </trkpt>
      <trkpt lat="43.32606" lon="-0.80493">
        <ele>133.76</ele>
        <time>2021-08-20T09:56:32Z</time>
      </trkpt>
      <trkpt lat="43.32609" lon="-0.80512">
        <ele>133.76</ele>
        <time>2021-08-20T09:56:39Z</time>
      </trkpt>
      <trkpt lat="43.32611" lon="-0.80516">
        <ele>133.76</ele>
        <time>2021-08-20T09:56:40Z</time>
      </trkpt>
      <trkpt lat="43.32612" lon="-0.80519">
        <ele>133.76</ele>
        <time>2021-08-20T09:56:41Z</time>
      </trkpt>
      <trkpt lat="43.32613" lon="-0.80522">
        <ele>133.76</ele>
        <time>2021-08-20T09:56:42Z</time>
      </trkpt>
      <trkpt lat="43.32614" lon="-0.80524">
        <ele>133.76</ele>
        <time>2021-08-20T09:56:43Z</time>
      </trkpt>
      <trkpt lat="43.32614" lon="-0.80526">
        <ele>134.24</ele>
        <time>2021-08-20T09:56:44Z</time>
      </trkpt>
      <trkpt lat="43.32615" lon="-0.80529">
        <ele>134.24</ele>
        <time>2021-08-20T09:56:45Z</time>
      </trkpt>
      <trkpt lat="43.32615" lon="-0.80532">
        <ele>134.24</ele>
        <time>2021-08-20T09:56:46Z</time>
      </trkpt>
      <trkpt lat="43.32615" lon="-0.80534">
        <ele>134.24</ele>
        <time>2021-08-20T09:56:47Z</time>
      </trkpt>
      <trkpt lat="43.32616" lon="-0.80537">
        <ele>134.72</ele>
        <time>2021-08-20T09:56:48Z</time>
      </trkpt>
      <trkpt lat="43.32616" lon="-0.80539">
        <ele>134.72</ele>
        <time>2021-08-20T09:56:49Z</time>
      </trkpt>
      <trkpt lat="43.32616" lon="-0.80541">
        <ele>134.72</ele>
        <time>2021-08-20T09:56:50Z</time>
      </trkpt>
      <trkpt lat="43.32616" lon="-0.80543">
        <ele>135.2</ele>
        <time>2021-08-20T09:56:51Z</time>
      </trkpt>
      <trkpt lat="43.32617" lon="-0.80544">
        <ele>135.2</ele>
        <time>2021-08-20T09:56:52Z</time>
      </trkpt>
      <trkpt lat="43.32618" lon="-0.80546">
        <ele>135.68</ele>
        <time>2021-08-20T09:56:53Z</time>
      </trkpt>
      <trkpt lat="43.32619" lon="-0.80547">
        <ele>135.68</ele>
        <time>2021-08-20T09:56:54Z</time>
      </trkpt>
      <trkpt lat="43.32624" lon="-0.80554">
        <ele>136.64</ele>
        <time>2021-08-20T09:57:01Z</time>
      </trkpt>
      <trkpt lat="43.32628" lon="-0.80564">
        <ele>138.57</ele>
        <time>2021-08-20T09:57:10Z</time>
      </trkpt>
      <trkpt lat="43.32631" lon="-0.80569">
        <ele>139.53</ele>
        <time>2021-08-20T09:57:17Z</time>
      </trkpt>
      <trkpt lat="43.32636" lon="-0.80576">
        <ele>140.49</ele>
        <time>2021-08-20T09:57:24Z</time>
      </trkpt>
      <trkpt lat="43.32641" lon="-0.80586">
        <ele>141.45</ele>
        <time>2021-08-20T09:57:31Z</time>
      </trkpt>
      <trkpt lat="43.32642" lon="-0.80588">
        <ele>141.45</ele>
        <time>2021-08-20T09:57:33Z</time>
      </trkpt>
      <trkpt lat="43.32646" lon="-0.80598">
        <ele>141.93</ele>
        <time>2021-08-20T09:57:40Z</time>
      </trkpt>
      <trkpt lat="43.3265" lon="-0.80605">
        <ele>143.37</ele>
        <time>2021-08-20T09:57:49Z</time>
      </trkpt>
      <trkpt lat="43.32654" lon="-0.80609">
        <ele>144.82</ele>
        <time>2021-08-20T09:57:57Z</time>
      </trkpt>
      <trkpt lat="43.32654" lon="-0.80611">
        <ele>144.82</ele>
        <time>2021-08-20T09:58:07Z</time>
      </trkpt>
      <trkpt lat="43.32657" lon="-0.80612">
        <ele>145.3</ele>
        <time>2021-08-20T09:58:27Z</time>
      </trkpt>
      <trkpt lat="43.32659" lon="-0.80614">
        <ele>145.3</ele>
        <time>2021-08-20T09:58:33Z</time>
      </trkpt>
      <trkpt lat="43.32673" lon="-0.80613">
        <ele>145.3</ele>
        <time>2021-08-20T09:58:40Z</time>
      </trkpt>
      <trkpt lat="43.32684" lon="-0.80612">
        <ele>143.85</ele>
        <time>2021-08-20T09:58:44Z</time>
      </trkpt>
      <trkpt lat="43.32706" lon="-0.80611">
        <ele>141.93</ele>
        <time>2021-08-20T09:58:50Z</time>
      </trkpt>
      <trkpt lat="43.3271" lon="-0.80611">
        <ele>141.45</ele>
        <time>2021-08-20T09:58:51Z</time>
      </trkpt>
      <trkpt lat="43.32715" lon="-0.80612">
        <ele>141.45</ele>
        <time>2021-08-20T09:58:52Z</time>
      </trkpt>
      <trkpt lat="43.32719" lon="-0.80611">
        <ele>141.45</ele>
        <time>2021-08-20T09:58:53Z</time>
      </trkpt>
      <trkpt lat="43.32722" lon="-0.80611">
        <ele>141.45</ele>
        <time>2021-08-20T09:58:54Z</time>
      </trkpt>
      <trkpt lat="43.32727" lon="-0.80609">
        <ele>141.45</ele>
        <time>2021-08-20T09:58:55Z</time>
      </trkpt>
      <trkpt lat="43.32732" lon="-0.80608">
        <ele>140.49</ele>
        <time>2021-08-20T09:58:56Z</time>
      </trkpt>
      <trkpt lat="43.32736" lon="-0.80606">
        <ele>139.53</ele>
        <time>2021-08-20T09:58:57Z</time>
      </trkpt>
      <trkpt lat="43.32744" lon="-0.80604">
        <ele>138.09</ele>
        <time>2021-08-20T09:58:59Z</time>
      </trkpt>
      <trkpt lat="43.3275" lon="-0.80603">
        <ele>137.13</ele>
        <time>2021-08-20T09:59:00Z</time>
      </trkpt>
      <trkpt lat="43.32757" lon="-0.80602">
        <ele>136.64</ele>
        <time>2021-08-20T09:59:01Z</time>
      </trkpt>
      <trkpt lat="43.32765" lon="-0.80603">
        <ele>135.68</ele>
        <time>2021-08-20T09:59:02Z</time>
      </trkpt>
      <trkpt lat="43.32771" lon="-0.80605">
        <ele>135.68</ele>
        <time>2021-08-20T09:59:03Z</time>
      </trkpt>
      <trkpt lat="43.32814" lon="-0.80627">
        <ele>133.28</ele>
        <time>2021-08-20T09:59:10Z</time>
      </trkpt>
      <trkpt lat="43.32841" lon="-0.80649">
        <ele>131.36</ele>
        <time>2021-08-20T09:59:15Z</time>
      </trkpt>
      <trkpt lat="43.32859" lon="-0.80662">
        <ele>127.99</ele>
        <time>2021-08-20T09:59:18Z</time>
      </trkpt>
      <trkpt lat="43.32866" lon="-0.80666">
        <ele>127.51</ele>
        <time>2021-08-20T09:59:19Z</time>
      </trkpt>
      <trkpt lat="43.32871" lon="-0.80673">
        <ele>127.03</ele>
        <time>2021-08-20T09:59:20Z</time>
      </trkpt>
      <trkpt lat="43.32877" lon="-0.8068">
        <ele>127.03</ele>
        <time>2021-08-20T09:59:21Z</time>
      </trkpt>
      <trkpt lat="43.32883" lon="-0.80689">
        <ele>127.03</ele>
        <time>2021-08-20T09:59:22Z</time>
      </trkpt>
      <trkpt lat="43.32891" lon="-0.80704">
        <ele>127.03</ele>
        <time>2021-08-20T09:59:24Z</time>
      </trkpt>
      <trkpt lat="43.32894" lon="-0.80711">
        <ele>127.03</ele>
        <time>2021-08-20T09:59:25Z</time>
      </trkpt>
      <trkpt lat="43.32896" lon="-0.80718">
        <ele>127.03</ele>
        <time>2021-08-20T09:59:26Z</time>
      </trkpt>
      <trkpt lat="43.32899" lon="-0.80723">
        <ele>127.03</ele>
        <time>2021-08-20T09:59:27Z</time>
      </trkpt>
      <trkpt lat="43.32903" lon="-0.80726">
        <ele>127.03</ele>
        <time>2021-08-20T09:59:28Z</time>
      </trkpt>
      <trkpt lat="43.32907" lon="-0.80728">
        <ele>127.03</ele>
        <time>2021-08-20T09:59:29Z</time>
      </trkpt>
      <trkpt lat="43.32911" lon="-0.8073">
        <ele>127.03</ele>
        <time>2021-08-20T09:59:30Z</time>
      </trkpt>
      <trkpt lat="43.32914" lon="-0.8073">
        <ele>127.03</ele>
        <time>2021-08-20T09:59:31Z</time>
      </trkpt>
      <trkpt lat="43.32918" lon="-0.80728">
        <ele>127.03</ele>
        <time>2021-08-20T09:59:32Z</time>
      </trkpt>
      <trkpt lat="43.32921" lon="-0.80726">
        <ele>127.03</ele>
        <time>2021-08-20T09:59:33Z</time>
      </trkpt>
      <trkpt lat="43.32924" lon="-0.80724">
        <ele>127.03</ele>
        <time>2021-08-20T09:59:34Z</time>
      </trkpt>
      <trkpt lat="43.32928" lon="-0.80722">
        <ele>127.03</ele>
        <time>2021-08-20T09:59:35Z</time>
      </trkpt>
      <trkpt lat="43.32931" lon="-0.80722">
        <ele>127.03</ele>
        <time>2021-08-20T09:59:36Z</time>
      </trkpt>
      <trkpt lat="43.32934" lon="-0.80723">
        <ele>127.03</ele>
        <time>2021-08-20T09:59:37Z</time>
      </trkpt>
      <trkpt lat="43.32937" lon="-0.80724">
        <ele>127.03</ele>
        <time>2021-08-20T09:59:38Z</time>
      </trkpt>
      <trkpt lat="43.3294" lon="-0.80727">
        <ele>127.03</ele>
        <time>2021-08-20T09:59:39Z</time>
      </trkpt>
      <trkpt lat="43.32955" lon="-0.80739">
        <ele>127.03</ele>
        <time>2021-08-20T09:59:44Z</time>
      </trkpt>
      <trkpt lat="43.32955" lon="-0.80743">
        <ele>128.47</ele>
        <time>2021-08-20T09:59:45Z</time>
      </trkpt>
      <trkpt lat="43.32955" lon="-0.80747">
        <ele>128.47</ele>
        <time>2021-08-20T09:59:46Z</time>
      </trkpt>
      <trkpt lat="43.32955" lon="-0.80752">
        <ele>128.47</ele>
        <time>2021-08-20T09:59:47Z</time>
      </trkpt>
      <trkpt lat="43.32954" lon="-0.80756">
        <ele>128.47</ele>
        <time>2021-08-20T09:59:48Z</time>
      </trkpt>
      <trkpt lat="43.32949" lon="-0.80784">
        <ele>128.95</ele>
        <time>2021-08-20T09:59:53Z</time>
      </trkpt>
      <trkpt lat="43.32947" lon="-0.8079">
        <ele>128.95</ele>
        <time>2021-08-20T09:59:54Z</time>
      </trkpt>
      <trkpt lat="43.32946" lon="-0.80795">
        <ele>128.95</ele>
        <time>2021-08-20T09:59:55Z</time>
      </trkpt>
      <trkpt lat="43.32941" lon="-0.80814">
        <ele>128.95</ele>
        <time>2021-08-20T09:59:58Z</time>
      </trkpt>
      <trkpt lat="43.3293" lon="-0.80858">
        <ele>128.95</ele>
        <time>2021-08-20T10:00:05Z</time>
      </trkpt>
      <trkpt lat="43.32914" lon="-0.80907">
        <ele>128.95</ele>
        <time>2021-08-20T10:00:12Z</time>
      </trkpt>
      <trkpt lat="43.3291" lon="-0.80915">
        <ele>128.95</ele>
        <time>2021-08-20T10:00:13Z</time>
      </trkpt>
      <trkpt lat="43.32907" lon="-0.80921">
        <ele>128.95</ele>
        <time>2021-08-20T10:00:14Z</time>
      </trkpt>
      <trkpt lat="43.32903" lon="-0.80928">
        <ele>128.95</ele>
        <time>2021-08-20T10:00:15Z</time>
      </trkpt>
      <trkpt lat="43.32899" lon="-0.80934">
        <ele>128.95</ele>
        <time>2021-08-20T10:00:16Z</time>
      </trkpt>
      <trkpt lat="43.32894" lon="-0.80939">
        <ele>128.95</ele>
        <time>2021-08-20T10:00:17Z</time>
      </trkpt>
      <trkpt lat="43.32888" lon="-0.80944">
        <ele>128.95</ele>
        <time>2021-08-20T10:00:18Z</time>
      </trkpt>
      <trkpt lat="43.32883" lon="-0.80948">
        <ele>128.95</ele>
        <time>2021-08-20T10:00:19Z</time>
      </trkpt>
      <trkpt lat="43.3283" lon="-0.80987">
        <ele>128.95</ele>
        <time>2021-08-20T10:00:29Z</time>
      </trkpt>
      <trkpt lat="43.32778" lon="-0.81021">
        <ele>129.43</ele>
        <time>2021-08-20T10:00:40Z</time>
      </trkpt>
      <trkpt lat="43.32737" lon="-0.81035">
        <ele>129.92</ele>
        <time>2021-08-20T10:00:49Z</time>
      </trkpt>
      <trkpt lat="43.32729" lon="-0.8104">
        <ele>129.92</ele>
        <time>2021-08-20T10:00:51Z</time>
      </trkpt>
      <trkpt lat="43.32717" lon="-0.81049">
        <ele>130.4</ele>
        <time>2021-08-20T10:00:54Z</time>
      </trkpt>
      <trkpt lat="43.32714" lon="-0.81053">
        <ele>130.4</ele>
        <time>2021-08-20T10:00:55Z</time>
      </trkpt>
      <trkpt lat="43.32683" lon="-0.811">
        <ele>130.88</ele>
        <time>2021-08-20T10:01:04Z</time>
      </trkpt>
      <trkpt lat="43.32646" lon="-0.81163">
        <ele>131.36</ele>
        <time>2021-08-20T10:01:15Z</time>
      </trkpt>
      <trkpt lat="43.3264" lon="-0.81174">
        <ele>131.36</ele>
        <time>2021-08-20T10:01:17Z</time>
      </trkpt>
      <trkpt lat="43.32638" lon="-0.81181">
        <ele>131.36</ele>
        <time>2021-08-20T10:01:18Z</time>
      </trkpt>
      <trkpt lat="43.32634" lon="-0.81194">
        <ele>131.36</ele>
        <time>2021-08-20T10:01:20Z</time>
      </trkpt>
      <trkpt lat="43.32624" lon="-0.81254">
        <ele>131.36</ele>
        <time>2021-08-20T10:01:28Z</time>
      </trkpt>
      <trkpt lat="43.32614" lon="-0.81289">
        <ele>131.36</ele>
        <time>2021-08-20T10:01:33Z</time>
      </trkpt>
      <trkpt lat="43.32603" lon="-0.81307">
        <ele>131.84</ele>
        <time>2021-08-20T10:01:36Z</time>
      </trkpt>
      <trkpt lat="43.3256" lon="-0.81354">
        <ele>131.84</ele>
        <time>2021-08-20T10:01:46Z</time>
      </trkpt>
      <trkpt lat="43.32526" lon="-0.81391">
        <ele>131.84</ele>
        <time>2021-08-20T10:01:54Z</time>
      </trkpt>
      <trkpt lat="43.32506" lon="-0.81422">
        <ele>131.84</ele>
        <time>2021-08-20T10:01:59Z</time>
      </trkpt>
      <trkpt lat="43.32479" lon="-0.81476">
        <ele>132.8</ele>
        <time>2021-08-20T10:02:07Z</time>
      </trkpt>
      <trkpt lat="43.32476" lon="-0.81483">
        <ele>132.32</ele>
        <time>2021-08-20T10:02:08Z</time>
      </trkpt>
      <trkpt lat="43.32474" lon="-0.81491">
        <ele>132.32</ele>
        <time>2021-08-20T10:02:09Z</time>
      </trkpt>
      <trkpt lat="43.32473" lon="-0.81499">
        <ele>132.8</ele>
        <time>2021-08-20T10:02:10Z</time>
      </trkpt>
      <trkpt lat="43.32471" lon="-0.81515">
        <ele>132.32</ele>
        <time>2021-08-20T10:02:12Z</time>
      </trkpt>
      <trkpt lat="43.3247" lon="-0.81522">
        <ele>132.8</ele>
        <time>2021-08-20T10:02:13Z</time>
      </trkpt>
      <trkpt lat="43.32474" lon="-0.81586">
        <ele>134.24</ele>
        <time>2021-08-20T10:02:22Z</time>
      </trkpt>
      <trkpt lat="43.32487" lon="-0.81653">
        <ele>134.72</ele>
        <time>2021-08-20T10:02:32Z</time>
      </trkpt>
      <trkpt lat="43.32499" lon="-0.81722">
        <ele>134.72</ele>
        <time>2021-08-20T10:02:41Z</time>
      </trkpt>
      <trkpt lat="43.32505" lon="-0.81757">
        <ele>133.76</ele>
        <time>2021-08-20T10:02:45Z</time>
      </trkpt>
      <trkpt lat="43.32506" lon="-0.81765">
        <ele>133.76</ele>
        <time>2021-08-20T10:02:46Z</time>
      </trkpt>
      <trkpt lat="43.32506" lon="-0.81815">
        <ele>134.72</ele>
        <time>2021-08-20T10:02:52Z</time>
      </trkpt>
      <trkpt lat="43.32492" lon="-0.81888">
        <ele>134.72</ele>
        <time>2021-08-20T10:03:01Z</time>
      </trkpt>
      <trkpt lat="43.32481" lon="-0.81948">
        <ele>134.72</ele>
        <time>2021-08-20T10:03:08Z</time>
      </trkpt>
      <trkpt lat="43.32465" lon="-0.82017">
        <ele>134.72</ele>
        <time>2021-08-20T10:03:16Z</time>
      </trkpt>
      <trkpt lat="43.32464" lon="-0.82025">
        <ele>134.72</ele>
        <time>2021-08-20T10:03:17Z</time>
      </trkpt>
      <trkpt lat="43.32464" lon="-0.82031">
        <ele>135.2</ele>
        <time>2021-08-20T10:03:18Z</time>
      </trkpt>
      <trkpt lat="43.32466" lon="-0.82034">
        <ele>135.2</ele>
        <time>2021-08-20T10:03:19Z</time>
      </trkpt>
      <trkpt lat="43.32469" lon="-0.82038">
        <ele>135.2</ele>
        <time>2021-08-20T10:03:20Z</time>
      </trkpt>
      <trkpt lat="43.32472" lon="-0.82041">
        <ele>135.2</ele>
        <time>2021-08-20T10:03:21Z</time>
      </trkpt>
      <trkpt lat="43.32478" lon="-0.82053">
        <ele>135.2</ele>
        <time>2021-08-20T10:03:24Z</time>
      </trkpt>
      <trkpt lat="43.3248" lon="-0.82059">
        <ele>135.68</ele>
        <time>2021-08-20T10:03:25Z</time>
      </trkpt>
      <trkpt lat="43.32481" lon="-0.82064">
        <ele>135.68</ele>
        <time>2021-08-20T10:03:26Z</time>
      </trkpt>
      <trkpt lat="43.32482" lon="-0.8207">
        <ele>135.68</ele>
        <time>2021-08-20T10:03:27Z</time>
      </trkpt>
      <trkpt lat="43.32482" lon="-0.82078">
        <ele>135.68</ele>
        <time>2021-08-20T10:03:28Z</time>
      </trkpt>
      <trkpt lat="43.32481" lon="-0.82085">
        <ele>135.68</ele>
        <time>2021-08-20T10:03:29Z</time>
      </trkpt>
      <trkpt lat="43.32481" lon="-0.82091">
        <ele>135.68</ele>
        <time>2021-08-20T10:03:30Z</time>
      </trkpt>
      <trkpt lat="43.3248" lon="-0.82097">
        <ele>135.68</ele>
        <time>2021-08-20T10:03:31Z</time>
      </trkpt>
      <trkpt lat="43.32479" lon="-0.82103">
        <ele>136.16</ele>
        <time>2021-08-20T10:03:32Z</time>
      </trkpt>
      <trkpt lat="43.32479" lon="-0.82111">
        <ele>136.16</ele>
        <time>2021-08-20T10:03:33Z</time>
      </trkpt>
      <trkpt lat="43.32479" lon="-0.82117">
        <ele>136.16</ele>
        <time>2021-08-20T10:03:34Z</time>
      </trkpt>
      <trkpt lat="43.32479" lon="-0.82124">
        <ele>136.16</ele>
        <time>2021-08-20T10:03:35Z</time>
      </trkpt>
      <trkpt lat="43.3248" lon="-0.82129">
        <ele>136.16</ele>
        <time>2021-08-20T10:03:36Z</time>
      </trkpt>
      <trkpt lat="43.32481" lon="-0.82134">
        <ele>136.16</ele>
        <time>2021-08-20T10:03:37Z</time>
      </trkpt>
      <trkpt lat="43.32482" lon="-0.82139">
        <ele>136.16</ele>
        <time>2021-08-20T10:03:38Z</time>
      </trkpt>
      <trkpt lat="43.32483" lon="-0.82143">
        <ele>136.64</ele>
        <time>2021-08-20T10:03:39Z</time>
      </trkpt>
      <trkpt lat="43.32484" lon="-0.82147">
        <ele>137.13</ele>
        <time>2021-08-20T10:03:40Z</time>
      </trkpt>
      <trkpt lat="43.32486" lon="-0.82149">
        <ele>137.13</ele>
        <time>2021-08-20T10:03:41Z</time>
      </trkpt>
      <trkpt lat="43.32488" lon="-0.8215">
        <ele>137.61</ele>
        <time>2021-08-20T10:03:42Z</time>
      </trkpt>
      <trkpt lat="43.3249" lon="-0.82152">
        <ele>137.61</ele>
        <time>2021-08-20T10:03:43Z</time>
      </trkpt>
      <trkpt lat="43.32498" lon="-0.82163">
        <ele>140.49</ele>
        <time>2021-08-20T10:03:49Z</time>
      </trkpt>
      <trkpt lat="43.32499" lon="-0.82165">
        <ele>140.97</ele>
        <time>2021-08-20T10:03:50Z</time>
      </trkpt>
      <trkpt lat="43.32504" lon="-0.82186">
        <ele>142.41</ele>
        <time>2021-08-20T10:03:58Z</time>
      </trkpt>
      <trkpt lat="43.32508" lon="-0.82206">
        <ele>144.34</ele>
        <time>2021-08-20T10:04:08Z</time>
      </trkpt>
      <trkpt lat="43.32513" lon="-0.82223">
        <ele>145.78</ele>
        <time>2021-08-20T10:04:17Z</time>
      </trkpt>
      <trkpt lat="43.32524" lon="-0.82235">
        <ele>147.7</ele>
        <time>2021-08-20T10:04:26Z</time>
      </trkpt>
      <trkpt lat="43.32533" lon="-0.82247">
        <ele>149.14</ele>
        <time>2021-08-20T10:04:34Z</time>
      </trkpt>
      <trkpt lat="43.32548" lon="-0.82259">
        <ele>151.06</ele>
        <time>2021-08-20T10:04:44Z</time>
      </trkpt>
      <trkpt lat="43.32556" lon="-0.82282">
        <ele>151.54</ele>
        <time>2021-08-20T10:04:51Z</time>
      </trkpt>
      <trkpt lat="43.32565" lon="-0.823">
        <ele>152.03</ele>
        <time>2021-08-20T10:04:56Z</time>
      </trkpt>
      <trkpt lat="43.32568" lon="-0.82302">
        <ele>152.51</ele>
        <time>2021-08-20T10:04:57Z</time>
      </trkpt>
      <trkpt lat="43.3257" lon="-0.82304">
        <ele>152.51</ele>
        <time>2021-08-20T10:04:58Z</time>
      </trkpt>
      <trkpt lat="43.32572" lon="-0.82307">
        <ele>152.51</ele>
        <time>2021-08-20T10:04:59Z</time>
      </trkpt>
      <trkpt lat="43.32574" lon="-0.82311">
        <ele>152.51</ele>
        <time>2021-08-20T10:05:00Z</time>
      </trkpt>
      <trkpt lat="43.32576" lon="-0.82314">
        <ele>152.99</ele>
        <time>2021-08-20T10:05:01Z</time>
      </trkpt>
      <trkpt lat="43.32587" lon="-0.82335">
        <ele>152.99</ele>
        <time>2021-08-20T10:05:06Z</time>
      </trkpt>
      <trkpt lat="43.32608" lon="-0.82369">
        <ele>153.95</ele>
        <time>2021-08-20T10:05:15Z</time>
      </trkpt>
      <trkpt lat="43.32627" lon="-0.82405">
        <ele>155.39</ele>
        <time>2021-08-20T10:05:25Z</time>
      </trkpt>
      <trkpt lat="43.32646" lon="-0.82437">
        <ele>156.83</ele>
        <time>2021-08-20T10:05:35Z</time>
      </trkpt>
      <trkpt lat="43.32658" lon="-0.82457">
        <ele>157.79</ele>
        <time>2021-08-20T10:05:43Z</time>
      </trkpt>
      <trkpt lat="43.32673" lon="-0.82478">
        <ele>158.27</ele>
        <time>2021-08-20T10:05:50Z</time>
      </trkpt>
      <trkpt lat="43.32694" lon="-0.82513">
        <ele>158.75</ele>
        <time>2021-08-20T10:05:58Z</time>
      </trkpt>
      <trkpt lat="43.32712" lon="-0.82546">
        <ele>160.68</ele>
        <time>2021-08-20T10:06:07Z</time>
      </trkpt>
      <trkpt lat="43.32729" lon="-0.82577">
        <ele>162.12</ele>
        <time>2021-08-20T10:06:17Z</time>
      </trkpt>
      <trkpt lat="43.32746" lon="-0.82605">
        <ele>163.08</ele>
        <time>2021-08-20T10:06:25Z</time>
      </trkpt>
      <trkpt lat="43.3276" lon="-0.82611">
        <ele>164.04</ele>
        <time>2021-08-20T10:06:30Z</time>
      </trkpt>
      <trkpt lat="43.32762" lon="-0.8261">
        <ele>164.04</ele>
        <time>2021-08-20T10:06:31Z</time>
      </trkpt>
      <trkpt lat="43.32764" lon="-0.82607">
        <ele>164.04</ele>
        <time>2021-08-20T10:06:32Z</time>
      </trkpt>
      <trkpt lat="43.32784" lon="-0.82585">
        <ele>165</ele>
        <time>2021-08-20T10:06:40Z</time>
      </trkpt>
      <trkpt lat="43.32807" lon="-0.82568">
        <ele>165</ele>
        <time>2021-08-20T10:06:47Z</time>
      </trkpt>
      <trkpt lat="43.3281" lon="-0.82569">
        <ele>165</ele>
        <time>2021-08-20T10:06:48Z</time>
      </trkpt>
      <trkpt lat="43.32812" lon="-0.82571">
        <ele>165</ele>
        <time>2021-08-20T10:06:49Z</time>
      </trkpt>
      <trkpt lat="43.32815" lon="-0.82574">
        <ele>165.48</ele>
        <time>2021-08-20T10:06:50Z</time>
      </trkpt>
      <trkpt lat="43.32817" lon="-0.82577">
        <ele>165.48</ele>
        <time>2021-08-20T10:06:51Z</time>
      </trkpt>
      <trkpt lat="43.32819" lon="-0.8258">
        <ele>165.48</ele>
        <time>2021-08-20T10:06:52Z</time>
      </trkpt>
      <trkpt lat="43.32836" lon="-0.82601">
        <ele>166.93</ele>
        <time>2021-08-20T10:06:59Z</time>
      </trkpt>
      <trkpt lat="43.32853" lon="-0.82624">
        <ele>167.89</ele>
        <time>2021-08-20T10:07:06Z</time>
      </trkpt>
      <trkpt lat="43.3288" lon="-0.82655">
        <ele>167.89</ele>
        <time>2021-08-20T10:07:16Z</time>
      </trkpt>
      <trkpt lat="43.32902" lon="-0.82681">
        <ele>168.37</ele>
        <time>2021-08-20T10:07:24Z</time>
      </trkpt>
      <trkpt lat="43.32912" lon="-0.82691">
        <ele>168.37</ele>
        <time>2021-08-20T10:07:27Z</time>
      </trkpt>
      <trkpt lat="43.32916" lon="-0.82695">
        <ele>168.37</ele>
        <time>2021-08-20T10:07:28Z</time>
      </trkpt>
      <trkpt lat="43.32938" lon="-0.8272">
        <ele>166.93</ele>
        <time>2021-08-20T10:07:34Z</time>
      </trkpt>
      <trkpt lat="43.32956" lon="-0.82737">
        <ele>167.41</ele>
        <time>2021-08-20T10:07:38Z</time>
      </trkpt>
      <trkpt lat="43.32961" lon="-0.82741">
        <ele>166.93</ele>
        <time>2021-08-20T10:07:39Z</time>
      </trkpt>
      <trkpt lat="43.32965" lon="-0.82745">
        <ele>166.93</ele>
        <time>2021-08-20T10:07:40Z</time>
      </trkpt>
      <trkpt lat="43.3297" lon="-0.82749">
        <ele>166.93</ele>
        <time>2021-08-20T10:07:41Z</time>
      </trkpt>
      <trkpt lat="43.32975" lon="-0.82753">
        <ele>166.45</ele>
        <time>2021-08-20T10:07:42Z</time>
      </trkpt>
      <trkpt lat="43.3298" lon="-0.82756">
        <ele>166.45</ele>
        <time>2021-08-20T10:07:43Z</time>
      </trkpt>
      <trkpt lat="43.33022" lon="-0.8279">
        <ele>165.96</ele>
        <time>2021-08-20T10:07:51Z</time>
      </trkpt>
      <trkpt lat="43.3306" lon="-0.82825">
        <ele>165.96</ele>
        <time>2021-08-20T10:07:59Z</time>
      </trkpt>
      <trkpt lat="43.33068" lon="-0.82831">
        <ele>167.41</ele>
        <time>2021-08-20T10:08:01Z</time>
      </trkpt>
      <trkpt lat="43.33095" lon="-0.82856">
        <ele>169.81</ele>
        <time>2021-08-20T10:08:09Z</time>
      </trkpt>
      <trkpt lat="43.33112" lon="-0.82879">
        <ele>170.29</ele>
        <time>2021-08-20T10:08:16Z</time>
      </trkpt>
      <trkpt lat="43.33127" lon="-0.82908">
        <ele>171.73</ele>
        <time>2021-08-20T10:08:23Z</time>
      </trkpt>
      <trkpt lat="43.33137" lon="-0.82928">
        <ele>172.69</ele>
        <time>2021-08-20T10:08:29Z</time>
      </trkpt>
      <trkpt lat="43.33147" lon="-0.82954">
        <ele>174.14</ele>
        <time>2021-08-20T10:08:37Z</time>
      </trkpt>
      <trkpt lat="43.33155" lon="-0.82977">
        <ele>175.1</ele>
        <time>2021-08-20T10:08:44Z</time>
      </trkpt>
      <trkpt lat="43.3316" lon="-0.83002">
        <ele>177.02</ele>
        <time>2021-08-20T10:08:51Z</time>
      </trkpt>
      <trkpt lat="43.3316" lon="-0.83005">
        <ele>177.02</ele>
        <time>2021-08-20T10:08:52Z</time>
      </trkpt>
      <trkpt lat="43.33161" lon="-0.83009">
        <ele>177.02</ele>
        <time>2021-08-20T10:08:53Z</time>
      </trkpt>
      <trkpt lat="43.33161" lon="-0.83013">
        <ele>177.02</ele>
        <time>2021-08-20T10:08:54Z</time>
      </trkpt>
      <trkpt lat="43.33162" lon="-0.83017">
        <ele>177.02</ele>
        <time>2021-08-20T10:08:55Z</time>
      </trkpt>
      <trkpt lat="43.33162" lon="-0.83021">
        <ele>177.5</ele>
        <time>2021-08-20T10:08:56Z</time>
      </trkpt>
      <trkpt lat="43.33163" lon="-0.83043">
        <ele>177.5</ele>
        <time>2021-08-20T10:09:01Z</time>
      </trkpt>
      <trkpt lat="43.33163" lon="-0.83076">
        <ele>177.5</ele>
        <time>2021-08-20T10:09:07Z</time>
      </trkpt>
      <trkpt lat="43.3316" lon="-0.83083">
        <ele>177.5</ele>
        <time>2021-08-20T10:09:09Z</time>
      </trkpt>
      <trkpt lat="43.33157" lon="-0.83084">
        <ele>177.5</ele>
        <time>2021-08-20T10:09:10Z</time>
      </trkpt>
      <trkpt lat="43.33154" lon="-0.83084">
        <ele>177.5</ele>
        <time>2021-08-20T10:09:11Z</time>
      </trkpt>
      <trkpt lat="43.33151" lon="-0.83083">
        <ele>177.5</ele>
        <time>2021-08-20T10:09:12Z</time>
      </trkpt>
      <trkpt lat="43.33148" lon="-0.83082">
        <ele>177.5</ele>
        <time>2021-08-20T10:09:13Z</time>
      </trkpt>
      <trkpt lat="43.33144" lon="-0.83081">
        <ele>177.5</ele>
        <time>2021-08-20T10:09:14Z</time>
      </trkpt>
      <trkpt lat="43.33125" lon="-0.83075">
        <ele>177.5</ele>
        <time>2021-08-20T10:09:19Z</time>
      </trkpt>
      <trkpt lat="43.33107" lon="-0.83066">
        <ele>176.06</ele>
        <time>2021-08-20T10:09:23Z</time>
      </trkpt>
      <trkpt lat="43.33079" lon="-0.83048">
        <ele>173.66</ele>
        <time>2021-08-20T10:09:28Z</time>
      </trkpt>
      <trkpt lat="43.33066" lon="-0.83039">
        <ele>172.21</ele>
        <time>2021-08-20T10:09:30Z</time>
      </trkpt>
      <trkpt lat="43.3306" lon="-0.83033">
        <ele>172.21</ele>
        <time>2021-08-20T10:09:31Z</time>
      </trkpt>
      <trkpt lat="43.33028" lon="-0.83007">
        <ele>170.77</ele>
        <time>2021-08-20T10:09:36Z</time>
      </trkpt>
      <trkpt lat="43.3302" lon="-0.83004">
        <ele>169.81</ele>
        <time>2021-08-20T10:09:37Z</time>
      </trkpt>
      <trkpt lat="43.33012" lon="-0.83004">
        <ele>169.81</ele>
        <time>2021-08-20T10:09:38Z</time>
      </trkpt>
      <trkpt lat="43.33004" lon="-0.83005">
        <ele>168.37</ele>
        <time>2021-08-20T10:09:39Z</time>
      </trkpt>
      <trkpt lat="43.32995" lon="-0.83007">
        <ele>167.41</ele>
        <time>2021-08-20T10:09:40Z</time>
      </trkpt>
      <trkpt lat="43.3296" lon="-0.83015">
        <ele>165.48</ele>
        <time>2021-08-20T10:09:44Z</time>
      </trkpt>
      <trkpt lat="43.32951" lon="-0.83015">
        <ele>164.52</ele>
        <time>2021-08-20T10:09:45Z</time>
      </trkpt>
      <trkpt lat="43.32885" lon="-0.83005">
        <ele>163.56</ele>
        <time>2021-08-20T10:09:53Z</time>
      </trkpt>
      <trkpt lat="43.3287" lon="-0.83001">
        <ele>162.6</ele>
        <time>2021-08-20T10:09:55Z</time>
      </trkpt>
      <trkpt lat="43.32838" lon="-0.8299">
        <ele>160.68</ele>
        <time>2021-08-20T10:09:59Z</time>
      </trkpt>
      <trkpt lat="43.32798" lon="-0.82976">
        <ele>157.31</ele>
        <time>2021-08-20T10:10:04Z</time>
      </trkpt>
      <trkpt lat="43.32781" lon="-0.8297">
        <ele>156.35</ele>
        <time>2021-08-20T10:10:06Z</time>
      </trkpt>
      <trkpt lat="43.32742" lon="-0.82955">
        <ele>153.47</ele>
        <time>2021-08-20T10:10:11Z</time>
      </trkpt>
      <trkpt lat="43.32721" lon="-0.82945">
        <ele>150.1</ele>
        <time>2021-08-20T10:10:14Z</time>
      </trkpt>
      <trkpt lat="43.32693" lon="-0.82933">
        <ele>147.22</ele>
        <time>2021-08-20T10:10:19Z</time>
      </trkpt>
      <trkpt lat="43.32688" lon="-0.82934">
        <ele>146.26</ele>
        <time>2021-08-20T10:10:20Z</time>
      </trkpt>
      <trkpt lat="43.32683" lon="-0.82938">
        <ele>145.78</ele>
        <time>2021-08-20T10:10:21Z</time>
      </trkpt>
      <trkpt lat="43.32678" lon="-0.82944">
        <ele>145.3</ele>
        <time>2021-08-20T10:10:22Z</time>
      </trkpt>
      <trkpt lat="43.32673" lon="-0.82952">
        <ele>144.34</ele>
        <time>2021-08-20T10:10:23Z</time>
      </trkpt>
      <trkpt lat="43.32668" lon="-0.8296">
        <ele>142.89</ele>
        <time>2021-08-20T10:10:24Z</time>
      </trkpt>
      <trkpt lat="43.32644" lon="-0.82994">
        <ele>139.53</ele>
        <time>2021-08-20T10:10:28Z</time>
      </trkpt>
      <trkpt lat="43.32629" lon="-0.83017">
        <ele>137.61</ele>
        <time>2021-08-20T10:10:31Z</time>
      </trkpt>
      <trkpt lat="43.32628" lon="-0.83025">
        <ele>137.61</ele>
        <time>2021-08-20T10:10:32Z</time>
      </trkpt>
      <trkpt lat="43.32629" lon="-0.8303">
        <ele>137.13</ele>
        <time>2021-08-20T10:10:33Z</time>
      </trkpt>
      <trkpt lat="43.32631" lon="-0.83034">
        <ele>138.57</ele>
        <time>2021-08-20T10:10:34Z</time>
      </trkpt>
      <trkpt lat="43.32633" lon="-0.83037">
        <ele>138.57</ele>
        <time>2021-08-20T10:10:35Z</time>
      </trkpt>
      <trkpt lat="43.32642" lon="-0.83061">
        <ele>139.53</ele>
        <time>2021-08-20T10:10:42Z</time>
      </trkpt>
      <trkpt lat="43.32642" lon="-0.8309">
        <ele>140.01</ele>
        <time>2021-08-20T10:10:49Z</time>
      </trkpt>
      <trkpt lat="43.3263" lon="-0.83107">
        <ele>140.01</ele>
        <time>2021-08-20T10:10:55Z</time>
      </trkpt>
      <trkpt lat="43.32618" lon="-0.8313">
        <ele>140.49</ele>
        <time>2021-08-20T10:11:02Z</time>
      </trkpt>
      <trkpt lat="43.32616" lon="-0.83136">
        <ele>140.97</ele>
        <time>2021-08-20T10:11:04Z</time>
      </trkpt>
      <trkpt lat="43.32613" lon="-0.8314">
        <ele>140.97</ele>
        <time>2021-08-20T10:11:05Z</time>
      </trkpt>
      <trkpt lat="43.32601" lon="-0.83158">
        <ele>142.41</ele>
        <time>2021-08-20T10:11:13Z</time>
      </trkpt>
      <trkpt lat="43.32593" lon="-0.83165">
        <ele>144.34</ele>
        <time>2021-08-20T10:11:20Z</time>
      </trkpt>
      <trkpt lat="43.32581" lon="-0.8317">
        <ele>146.26</ele>
        <time>2021-08-20T10:11:29Z</time>
      </trkpt>
      <trkpt lat="43.32567" lon="-0.83169">
        <ele>147.22</ele>
        <time>2021-08-20T10:11:36Z</time>
      </trkpt>
      <trkpt lat="43.32553" lon="-0.83159">
        <ele>149.62</ele>
        <time>2021-08-20T10:11:46Z</time>
      </trkpt>
      <trkpt lat="43.3255" lon="-0.83157">
        <ele>150.1</ele>
        <time>2021-08-20T10:11:48Z</time>
      </trkpt>
      <trkpt lat="43.32546" lon="-0.83153">
        <ele>150.58</ele>
        <time>2021-08-20T10:11:52Z</time>
      </trkpt>
      <trkpt lat="43.32536" lon="-0.83145">
        <ele>152.51</ele>
        <time>2021-08-20T10:12:00Z</time>
      </trkpt>
      <trkpt lat="43.32532" lon="-0.83144">
        <ele>153.47</ele>
        <time>2021-08-20T10:12:04Z</time>
      </trkpt>
      <trkpt lat="43.32523" lon="-0.8315">
        <ele>154.91</ele>
        <time>2021-08-20T10:12:13Z</time>
      </trkpt>
      <trkpt lat="43.32515" lon="-0.83155">
        <ele>156.83</ele>
        <time>2021-08-20T10:12:20Z</time>
      </trkpt>
      <trkpt lat="43.32509" lon="-0.83161">
        <ele>157.79</ele>
        <time>2021-08-20T10:12:25Z</time>
      </trkpt>
      <trkpt lat="43.32501" lon="-0.83176">
        <ele>159.72</ele>
        <time>2021-08-20T10:12:35Z</time>
      </trkpt>
      <trkpt lat="43.32498" lon="-0.83191">
        <ele>160.68</ele>
        <time>2021-08-20T10:12:42Z</time>
      </trkpt>
      <trkpt lat="43.3249" lon="-0.83206">
        <ele>162.12</ele>
        <time>2021-08-20T10:12:50Z</time>
      </trkpt>
      <trkpt lat="43.32483" lon="-0.83217">
        <ele>163.56</ele>
        <time>2021-08-20T10:12:57Z</time>
      </trkpt>
      <trkpt lat="43.32481" lon="-0.83222">
        <ele>164.04</ele>
        <time>2021-08-20T10:13:00Z</time>
      </trkpt>
      <trkpt lat="43.3247" lon="-0.83241">
        <ele>165.96</ele>
        <time>2021-08-20T10:13:10Z</time>
      </trkpt>
      <trkpt lat="43.32459" lon="-0.83259">
        <ele>166.45</ele>
        <time>2021-08-20T10:13:18Z</time>
      </trkpt>
      <trkpt lat="43.32445" lon="-0.83282">
        <ele>168.37</ele>
        <time>2021-08-20T10:13:27Z</time>
      </trkpt>
      <trkpt lat="43.32435" lon="-0.83299">
        <ele>168.85</ele>
        <time>2021-08-20T10:13:33Z</time>
      </trkpt>
      <trkpt lat="43.32425" lon="-0.83321">
        <ele>169.81</ele>
        <time>2021-08-20T10:13:40Z</time>
      </trkpt>
      <trkpt lat="43.32433" lon="-0.83344">
        <ele>170.29</ele>
        <time>2021-08-20T10:13:46Z</time>
      </trkpt>
      <trkpt lat="43.32438" lon="-0.83353">
        <ele>170.29</ele>
        <time>2021-08-20T10:13:48Z</time>
      </trkpt>
      <trkpt lat="43.32438" lon="-0.83358">
        <ele>169.81</ele>
        <time>2021-08-20T10:13:49Z</time>
      </trkpt>
      <trkpt lat="43.32437" lon="-0.83363">
        <ele>169.81</ele>
        <time>2021-08-20T10:13:50Z</time>
      </trkpt>
      <trkpt lat="43.32435" lon="-0.83367">
        <ele>169.81</ele>
        <time>2021-08-20T10:13:51Z</time>
      </trkpt>
      <trkpt lat="43.32432" lon="-0.83371">
        <ele>169.81</ele>
        <time>2021-08-20T10:13:52Z</time>
      </trkpt>
      <trkpt lat="43.3243" lon="-0.83375">
        <ele>169.81</ele>
        <time>2021-08-20T10:13:53Z</time>
      </trkpt>
      <trkpt lat="43.32427" lon="-0.83378">
        <ele>169.81</ele>
        <time>2021-08-20T10:13:54Z</time>
      </trkpt>
      <trkpt lat="43.32408" lon="-0.83405">
        <ele>169.81</ele>
        <time>2021-08-20T10:14:01Z</time>
      </trkpt>
      <trkpt lat="43.32401" lon="-0.83414">
        <ele>169.81</ele>
        <time>2021-08-20T10:14:03Z</time>
      </trkpt>
      <trkpt lat="43.32397" lon="-0.83418">
        <ele>169.81</ele>
        <time>2021-08-20T10:14:04Z</time>
      </trkpt>
      <trkpt lat="43.32393" lon="-0.83421">
        <ele>169.81</ele>
        <time>2021-08-20T10:14:05Z</time>
      </trkpt>
      <trkpt lat="43.32381" lon="-0.83431">
        <ele>170.77</ele>
        <time>2021-08-20T10:14:08Z</time>
      </trkpt>
      <trkpt lat="43.32377" lon="-0.83434">
        <ele>170.77</ele>
        <time>2021-08-20T10:14:09Z</time>
      </trkpt>
      <trkpt lat="43.32373" lon="-0.83437">
        <ele>170.77</ele>
        <time>2021-08-20T10:14:10Z</time>
      </trkpt>
      <trkpt lat="43.32369" lon="-0.83439">
        <ele>170.77</ele>
        <time>2021-08-20T10:14:11Z</time>
      </trkpt>
      <trkpt lat="43.32365" lon="-0.83441">
        <ele>171.25</ele>
        <time>2021-08-20T10:14:12Z</time>
      </trkpt>
      <trkpt lat="43.32335" lon="-0.8345">
        <ele>171.73</ele>
        <time>2021-08-20T10:14:20Z</time>
      </trkpt>
      <trkpt lat="43.32307" lon="-0.8346">
        <ele>173.17</ele>
        <time>2021-08-20T10:14:30Z</time>
      </trkpt>
      <trkpt lat="43.32283" lon="-0.83469">
        <ele>175.1</ele>
        <time>2021-08-20T10:14:40Z</time>
      </trkpt>
      <trkpt lat="43.32261" lon="-0.83477">
        <ele>175.58</ele>
        <time>2021-08-20T10:14:48Z</time>
      </trkpt>
      <trkpt lat="43.32249" lon="-0.83483">
        <ele>174.14</ele>
        <time>2021-08-20T10:14:51Z</time>
      </trkpt>
      <trkpt lat="43.32244" lon="-0.83485">
        <ele>174.14</ele>
        <time>2021-08-20T10:14:52Z</time>
      </trkpt>
      <trkpt lat="43.32229" lon="-0.83495">
        <ele>174.14</ele>
        <time>2021-08-20T10:14:56Z</time>
      </trkpt>
      <trkpt lat="43.3222" lon="-0.83498">
        <ele>174.14</ele>
        <time>2021-08-20T10:14:58Z</time>
      </trkpt>
      <trkpt lat="43.32216" lon="-0.83499">
        <ele>174.14</ele>
        <time>2021-08-20T10:14:59Z</time>
      </trkpt>
      <trkpt lat="43.32211" lon="-0.835">
        <ele>174.14</ele>
        <time>2021-08-20T10:15:00Z</time>
      </trkpt>
      <trkpt lat="43.32206" lon="-0.83502">
        <ele>174.14</ele>
        <time>2021-08-20T10:15:01Z</time>
      </trkpt>
      <trkpt lat="43.32201" lon="-0.83504">
        <ele>174.14</ele>
        <time>2021-08-20T10:15:02Z</time>
      </trkpt>
      <trkpt lat="43.32197" lon="-0.83505">
        <ele>174.14</ele>
        <time>2021-08-20T10:15:03Z</time>
      </trkpt>
      <trkpt lat="43.32193" lon="-0.83506">
        <ele>175.58</ele>
        <time>2021-08-20T10:15:04Z</time>
      </trkpt>
      <trkpt lat="43.32189" lon="-0.83508">
        <ele>175.58</ele>
        <time>2021-08-20T10:15:05Z</time>
      </trkpt>
      <trkpt lat="43.32163" lon="-0.83511">
        <ele>177.5</ele>
        <time>2021-08-20T10:15:13Z</time>
      </trkpt>
      <trkpt lat="43.32132" lon="-0.83516">
        <ele>177.98</ele>
        <time>2021-08-20T10:15:22Z</time>
      </trkpt>
      <trkpt lat="43.32099" lon="-0.83521">
        <ele>178.94</ele>
        <time>2021-08-20T10:15:31Z</time>
      </trkpt>
      <trkpt lat="43.32069" lon="-0.83526">
        <ele>181.83</ele>
        <time>2021-08-20T10:15:41Z</time>
      </trkpt>
      <trkpt lat="43.32039" lon="-0.83531">
        <ele>181.83</ele>
        <time>2021-08-20T10:15:49Z</time>
      </trkpt>
      <trkpt lat="43.32025" lon="-0.83533">
        <ele>181.35</ele>
        <time>2021-08-20T10:15:52Z</time>
      </trkpt>
      <trkpt lat="43.3202" lon="-0.83535">
        <ele>181.35</ele>
        <time>2021-08-20T10:15:53Z</time>
      </trkpt>
      <trkpt lat="43.32016" lon="-0.83537">
        <ele>181.35</ele>
        <time>2021-08-20T10:15:54Z</time>
      </trkpt>
      <trkpt lat="43.32012" lon="-0.8354">
        <ele>181.35</ele>
        <time>2021-08-20T10:15:55Z</time>
      </trkpt>
      <trkpt lat="43.32008" lon="-0.83543">
        <ele>181.35</ele>
        <time>2021-08-20T10:15:56Z</time>
      </trkpt>
      <trkpt lat="43.31988" lon="-0.83553">
        <ele>182.31</ele>
        <time>2021-08-20T10:16:02Z</time>
      </trkpt>
      <trkpt lat="43.31961" lon="-0.83561">
        <ele>184.23</ele>
        <time>2021-08-20T10:16:10Z</time>
      </trkpt>
      <trkpt lat="43.31923" lon="-0.83571">
        <ele>184.23</ele>
        <time>2021-08-20T10:16:20Z</time>
      </trkpt>
      <trkpt lat="43.31889" lon="-0.83583">
        <ele>185.19</ele>
        <time>2021-08-20T10:16:29Z</time>
      </trkpt>
      <trkpt lat="43.31866" lon="-0.83589">
        <ele>186.15</ele>
        <time>2021-08-20T10:16:36Z</time>
      </trkpt>
      <trkpt lat="43.31844" lon="-0.83597">
        <ele>187.59</ele>
        <time>2021-08-20T10:16:45Z</time>
      </trkpt>
      <trkpt lat="43.31828" lon="-0.83604">
        <ele>189.52</ele>
        <time>2021-08-20T10:16:53Z</time>
      </trkpt>
      <trkpt lat="43.31812" lon="-0.83609">
        <ele>190.96</ele>
        <time>2021-08-20T10:17:01Z</time>
      </trkpt>
      <trkpt lat="43.31789" lon="-0.83616">
        <ele>193.84</ele>
        <time>2021-08-20T10:17:13Z</time>
      </trkpt>
      <trkpt lat="43.31771" lon="-0.83621">
        <ele>195.28</ele>
        <time>2021-08-20T10:17:22Z</time>
      </trkpt>
      <trkpt lat="43.31751" lon="-0.83627">
        <ele>196.73</ele>
        <time>2021-08-20T10:17:32Z</time>
      </trkpt>
      <trkpt lat="43.31736" lon="-0.8364">
        <ele>197.21</ele>
        <time>2021-08-20T10:17:39Z</time>
      </trkpt>
      <trkpt lat="43.31733" lon="-0.83661">
        <ele>197.21</ele>
        <time>2021-08-20T10:17:44Z</time>
      </trkpt>
      <trkpt lat="43.31724" lon="-0.83685">
        <ele>197.21</ele>
        <time>2021-08-20T10:17:52Z</time>
      </trkpt>
      <trkpt lat="43.31712" lon="-0.83701">
        <ele>198.65</ele>
        <time>2021-08-20T10:17:59Z</time>
      </trkpt>
      <trkpt lat="43.31708" lon="-0.83721">
        <ele>200.09</ele>
        <time>2021-08-20T10:18:06Z</time>
      </trkpt>
      <trkpt lat="43.31701" lon="-0.83736">
        <ele>200.57</ele>
        <time>2021-08-20T10:18:12Z</time>
      </trkpt>
      <trkpt lat="43.3169" lon="-0.83756">
        <ele>199.13</ele>
        <time>2021-08-20T10:18:17Z</time>
      </trkpt>
      <trkpt lat="43.31688" lon="-0.83761">
        <ele>199.13</ele>
        <time>2021-08-20T10:18:18Z</time>
      </trkpt>
      <trkpt lat="43.31681" lon="-0.83776">
        <ele>198.65</ele>
        <time>2021-08-20T10:18:21Z</time>
      </trkpt>
      <trkpt lat="43.31679" lon="-0.83781">
        <ele>198.65</ele>
        <time>2021-08-20T10:18:22Z</time>
      </trkpt>
      <trkpt lat="43.31676" lon="-0.83786">
        <ele>197.69</ele>
        <time>2021-08-20T10:18:23Z</time>
      </trkpt>
      <trkpt lat="43.31673" lon="-0.83791">
        <ele>197.21</ele>
        <time>2021-08-20T10:18:24Z</time>
      </trkpt>
      <trkpt lat="43.31671" lon="-0.83796">
        <ele>197.21</ele>
        <time>2021-08-20T10:18:25Z</time>
      </trkpt>
      <trkpt lat="43.31661" lon="-0.83811">
        <ele>196.25</ele>
        <time>2021-08-20T10:18:28Z</time>
      </trkpt>
      <trkpt lat="43.31657" lon="-0.83816">
        <ele>195.28</ele>
        <time>2021-08-20T10:18:29Z</time>
      </trkpt>
      <trkpt lat="43.31641" lon="-0.83831">
        <ele>193.36</ele>
        <time>2021-08-20T10:18:32Z</time>
      </trkpt>
      <trkpt lat="43.31636" lon="-0.83837">
        <ele>192.4</ele>
        <time>2021-08-20T10:18:33Z</time>
      </trkpt>
      <trkpt lat="43.31632" lon="-0.83845">
        <ele>191.92</ele>
        <time>2021-08-20T10:18:34Z</time>
      </trkpt>
      <trkpt lat="43.31628" lon="-0.83852">
        <ele>190.96</ele>
        <time>2021-08-20T10:18:35Z</time>
      </trkpt>
      <trkpt lat="43.31625" lon="-0.83861">
        <ele>190.48</ele>
        <time>2021-08-20T10:18:36Z</time>
      </trkpt>
      <trkpt lat="43.31621" lon="-0.8387">
        <ele>190</ele>
        <time>2021-08-20T10:18:37Z</time>
      </trkpt>
      <trkpt lat="43.31611" lon="-0.83903">
        <ele>187.11</ele>
        <time>2021-08-20T10:18:40Z</time>
      </trkpt>
      <trkpt lat="43.31599" lon="-0.83942">
        <ele>183.75</ele>
        <time>2021-08-20T10:18:43Z</time>
      </trkpt>
      <trkpt lat="43.31575" lon="-0.83991">
        <ele>180.87</ele>
        <time>2021-08-20T10:18:47Z</time>
      </trkpt>
      <trkpt lat="43.31567" lon="-0.84001">
        <ele>179.9</ele>
        <time>2021-08-20T10:18:48Z</time>
      </trkpt>
      <trkpt lat="43.31559" lon="-0.84011">
        <ele>178.94</ele>
        <time>2021-08-20T10:18:49Z</time>
      </trkpt>
      <trkpt lat="43.3155" lon="-0.8402">
        <ele>178.94</ele>
        <time>2021-08-20T10:18:50Z</time>
      </trkpt>
      <trkpt lat="43.31541" lon="-0.84029">
        <ele>178.46</ele>
        <time>2021-08-20T10:18:51Z</time>
      </trkpt>
      <trkpt lat="43.31532" lon="-0.84035">
        <ele>178.46</ele>
        <time>2021-08-20T10:18:52Z</time>
      </trkpt>
      <trkpt lat="43.31522" lon="-0.84041">
        <ele>177.98</ele>
        <time>2021-08-20T10:18:53Z</time>
      </trkpt>
      <trkpt lat="43.31512" lon="-0.84045">
        <ele>177.98</ele>
        <time>2021-08-20T10:18:54Z</time>
      </trkpt>
      <trkpt lat="43.31502" lon="-0.84049">
        <ele>177.02</ele>
        <time>2021-08-20T10:18:55Z</time>
      </trkpt>
      <trkpt lat="43.31462" lon="-0.84062">
        <ele>174.62</ele>
        <time>2021-08-20T10:18:59Z</time>
      </trkpt>
      <trkpt lat="43.31383" lon="-0.84089">
        <ele>172.69</ele>
        <time>2021-08-20T10:19:07Z</time>
      </trkpt>
      <trkpt lat="43.31315" lon="-0.84102">
        <ele>171.73</ele>
        <time>2021-08-20T10:19:14Z</time>
      </trkpt>
      <trkpt lat="43.3126" lon="-0.84113">
        <ele>172.21</ele>
        <time>2021-08-20T10:19:21Z</time>
      </trkpt>
      <trkpt lat="43.31227" lon="-0.84122">
        <ele>173.66</ele>
        <time>2021-08-20T10:19:27Z</time>
      </trkpt>
      <trkpt lat="43.31211" lon="-0.84128">
        <ele>173.66</ele>
        <time>2021-08-20T10:19:30Z</time>
      </trkpt>
      <trkpt lat="43.31206" lon="-0.84132">
        <ele>173.66</ele>
        <time>2021-08-20T10:19:31Z</time>
      </trkpt>
      <trkpt lat="43.31202" lon="-0.84136">
        <ele>173.66</ele>
        <time>2021-08-20T10:19:32Z</time>
      </trkpt>
      <trkpt lat="43.31198" lon="-0.84141">
        <ele>173.66</ele>
        <time>2021-08-20T10:19:33Z</time>
      </trkpt>
      <trkpt lat="43.31194" lon="-0.84147">
        <ele>173.66</ele>
        <time>2021-08-20T10:19:34Z</time>
      </trkpt>
      <trkpt lat="43.31191" lon="-0.84154">
        <ele>173.66</ele>
        <time>2021-08-20T10:19:35Z</time>
      </trkpt>
      <trkpt lat="43.31189" lon="-0.84161">
        <ele>173.66</ele>
        <time>2021-08-20T10:19:36Z</time>
      </trkpt>
      <trkpt lat="43.31189" lon="-0.84169">
        <ele>173.66</ele>
        <time>2021-08-20T10:19:37Z</time>
      </trkpt>
      <trkpt lat="43.31189" lon="-0.84178">
        <ele>172.21</ele>
        <time>2021-08-20T10:19:38Z</time>
      </trkpt>
      <trkpt lat="43.31189" lon="-0.84187">
        <ele>172.21</ele>
        <time>2021-08-20T10:19:39Z</time>
      </trkpt>
      <trkpt lat="43.3119" lon="-0.84196">
        <ele>171.73</ele>
        <time>2021-08-20T10:19:40Z</time>
      </trkpt>
      <trkpt lat="43.31197" lon="-0.8424">
        <ele>167.89</ele>
        <time>2021-08-20T10:19:44Z</time>
      </trkpt>
      <trkpt lat="43.31202" lon="-0.8428">
        <ele>164.52</ele>
        <time>2021-08-20T10:19:47Z</time>
      </trkpt>
      <trkpt lat="43.31203" lon="-0.84294">
        <ele>163.56</ele>
        <time>2021-08-20T10:19:48Z</time>
      </trkpt>
      <trkpt lat="43.31202" lon="-0.84308">
        <ele>162.12</ele>
        <time>2021-08-20T10:19:49Z</time>
      </trkpt>
      <trkpt lat="43.312" lon="-0.84323">
        <ele>161.16</ele>
        <time>2021-08-20T10:19:50Z</time>
      </trkpt>
      <trkpt lat="43.31192" lon="-0.84371">
        <ele>157.31</ele>
        <time>2021-08-20T10:19:53Z</time>
      </trkpt>
      <trkpt lat="43.31185" lon="-0.84415">
        <ele>154.43</ele>
        <time>2021-08-20T10:19:56Z</time>
      </trkpt>
      <trkpt lat="43.31172" lon="-0.84458">
        <ele>151.06</ele>
        <time>2021-08-20T10:19:59Z</time>
      </trkpt>
      <trkpt lat="43.31154" lon="-0.84502">
        <ele>147.22</ele>
        <time>2021-08-20T10:20:02Z</time>
      </trkpt>
      <trkpt lat="43.31135" lon="-0.8455">
        <ele>142.41</ele>
        <time>2021-08-20T10:20:05Z</time>
      </trkpt>
      <trkpt lat="43.31121" lon="-0.84581">
        <ele>139.53</ele>
        <time>2021-08-20T10:20:07Z</time>
      </trkpt>
      <trkpt lat="43.311" lon="-0.84625">
        <ele>135.68</ele>
        <time>2021-08-20T10:20:10Z</time>
      </trkpt>
      <trkpt lat="43.31076" lon="-0.84678">
        <ele>132.32</ele>
        <time>2021-08-20T10:20:14Z</time>
      </trkpt>
      <trkpt lat="43.31072" lon="-0.8469">
        <ele>131.36</ele>
        <time>2021-08-20T10:20:15Z</time>
      </trkpt>
      <trkpt lat="43.31069" lon="-0.84703">
        <ele>130.4</ele>
        <time>2021-08-20T10:20:16Z</time>
      </trkpt>
      <trkpt lat="43.31069" lon="-0.84716">
        <ele>128.95</ele>
        <time>2021-08-20T10:20:17Z</time>
      </trkpt>
      <trkpt lat="43.3107" lon="-0.8473">
        <ele>127.99</ele>
        <time>2021-08-20T10:20:18Z</time>
      </trkpt>
      <trkpt lat="43.31073" lon="-0.84744">
        <ele>127.03</ele>
        <time>2021-08-20T10:20:19Z</time>
      </trkpt>
      <trkpt lat="43.31075" lon="-0.84758">
        <ele>126.55</ele>
        <time>2021-08-20T10:20:20Z</time>
      </trkpt>
      <trkpt lat="43.31074" lon="-0.84773">
        <ele>126.55</ele>
        <time>2021-08-20T10:20:21Z</time>
      </trkpt>
      <trkpt lat="43.31071" lon="-0.84786">
        <ele>126.55</ele>
        <time>2021-08-20T10:20:22Z</time>
      </trkpt>
      <trkpt lat="43.31067" lon="-0.84798">
        <ele>126.07</ele>
        <time>2021-08-20T10:20:23Z</time>
      </trkpt>
      <trkpt lat="43.31062" lon="-0.84808">
        <ele>126.07</ele>
        <time>2021-08-20T10:20:24Z</time>
      </trkpt>
      <trkpt lat="43.31057" lon="-0.84818">
        <ele>126.55</ele>
        <time>2021-08-20T10:20:25Z</time>
      </trkpt>
      <trkpt lat="43.31043" lon="-0.84844">
        <ele>128.47</ele>
        <time>2021-08-20T10:20:28Z</time>
      </trkpt>
      <trkpt lat="43.31011" lon="-0.84901">
        <ele>129.92</ele>
        <time>2021-08-20T10:20:36Z</time>
      </trkpt>
      <trkpt lat="43.30987" lon="-0.84959">
        <ele>127.03</ele>
        <time>2021-08-20T10:20:43Z</time>
      </trkpt>
      <trkpt lat="43.30971" lon="-0.84999">
        <ele>125.59</ele>
        <time>2021-08-20T10:20:47Z</time>
      </trkpt>
      <trkpt lat="43.30939" lon="-0.85089">
        <ele>123.19</ele>
        <time>2021-08-20T10:20:56Z</time>
      </trkpt>
      <trkpt lat="43.30927" lon="-0.85158">
        <ele>121.74</ele>
        <time>2021-08-20T10:21:02Z</time>
      </trkpt>
      <trkpt lat="43.30926" lon="-0.85219">
        <ele>123.67</ele>
        <time>2021-08-20T10:21:08Z</time>
      </trkpt>
      <trkpt lat="43.30932" lon="-0.85296">
        <ele>124.15</ele>
        <time>2021-08-20T10:21:17Z</time>
      </trkpt>
      <trkpt lat="43.30944" lon="-0.85358">
        <ele>122.71</ele>
        <time>2021-08-20T10:21:25Z</time>
      </trkpt>
      <trkpt lat="43.30964" lon="-0.85438">
        <ele>121.74</ele>
        <time>2021-08-20T10:21:35Z</time>
      </trkpt>
      <trkpt lat="43.3097" lon="-0.85453">
        <ele>121.74</ele>
        <time>2021-08-20T10:21:37Z</time>
      </trkpt>
      <trkpt lat="43.30974" lon="-0.8546">
        <ele>121.26</ele>
        <time>2021-08-20T10:21:38Z</time>
      </trkpt>
      <trkpt lat="43.30987" lon="-0.85481">
        <ele>120.78</ele>
        <time>2021-08-20T10:21:41Z</time>
      </trkpt>
      <trkpt lat="43.31013" lon="-0.85518">
        <ele>119.82</ele>
        <time>2021-08-20T10:21:47Z</time>
      </trkpt>
      <trkpt lat="43.31016" lon="-0.85525">
        <ele>120.3</ele>
        <time>2021-08-20T10:21:48Z</time>
      </trkpt>
      <trkpt lat="43.31018" lon="-0.85533">
        <ele>119.82</ele>
        <time>2021-08-20T10:21:49Z</time>
      </trkpt>
      <trkpt lat="43.3102" lon="-0.85541">
        <ele>120.3</ele>
        <time>2021-08-20T10:21:50Z</time>
      </trkpt>
      <trkpt lat="43.31021" lon="-0.85549">
        <ele>120.3</ele>
        <time>2021-08-20T10:21:51Z</time>
      </trkpt>
      <trkpt lat="43.31021" lon="-0.85557">
        <ele>119.82</ele>
        <time>2021-08-20T10:21:52Z</time>
      </trkpt>
      <trkpt lat="43.3102" lon="-0.85565">
        <ele>120.3</ele>
        <time>2021-08-20T10:21:53Z</time>
      </trkpt>
      <trkpt lat="43.31019" lon="-0.85572">
        <ele>120.3</ele>
        <time>2021-08-20T10:21:54Z</time>
      </trkpt>
      <trkpt lat="43.31018" lon="-0.8558">
        <ele>120.3</ele>
        <time>2021-08-20T10:21:55Z</time>
      </trkpt>
      <trkpt lat="43.31007" lon="-0.85656">
        <ele>119.34</ele>
        <time>2021-08-20T10:22:04Z</time>
      </trkpt>
      <trkpt lat="43.30995" lon="-0.85751">
        <ele>119.34</ele>
        <time>2021-08-20T10:22:15Z</time>
      </trkpt>
      <trkpt lat="43.30989" lon="-0.85796">
        <ele>121.74</ele>
        <time>2021-08-20T10:22:22Z</time>
      </trkpt>
      <trkpt lat="43.30985" lon="-0.85828">
        <ele>122.71</ele>
        <time>2021-08-20T10:22:29Z</time>
      </trkpt>
      <trkpt lat="43.30978" lon="-0.85885">
        <ele>124.15</ele>
        <time>2021-08-20T10:22:42Z</time>
      </trkpt>
      <trkpt lat="43.30972" lon="-0.85926">
        <ele>125.59</ele>
        <time>2021-08-20T10:22:53Z</time>
      </trkpt>
      <trkpt lat="43.30967" lon="-0.85961">
        <ele>127.03</ele>
        <time>2021-08-20T10:23:03Z</time>
      </trkpt>
      <trkpt lat="43.30964" lon="-0.8599">
        <ele>128.47</ele>
        <time>2021-08-20T10:23:12Z</time>
      </trkpt>
      <trkpt lat="43.30961" lon="-0.8601">
        <ele>129.43</ele>
        <time>2021-08-20T10:23:20Z</time>
      </trkpt>
      <trkpt lat="43.30961" lon="-0.86013">
        <ele>129.92</ele>
        <time>2021-08-20T10:23:21Z</time>
      </trkpt>
      <trkpt lat="43.30962" lon="-0.86015">
        <ele>129.92</ele>
        <time>2021-08-20T10:23:22Z</time>
      </trkpt>
      <trkpt lat="43.30962" lon="-0.86018">
        <ele>129.92</ele>
        <time>2021-08-20T10:23:23Z</time>
      </trkpt>
      <trkpt lat="43.30963" lon="-0.8604">
        <ele>130.4</ele>
        <time>2021-08-20T10:23:30Z</time>
      </trkpt>
      <trkpt lat="43.30965" lon="-0.86074">
        <ele>130.88</ele>
        <time>2021-08-20T10:23:38Z</time>
      </trkpt>
      <trkpt lat="43.30971" lon="-0.86098">
        <ele>130.88</ele>
        <time>2021-08-20T10:23:42Z</time>
      </trkpt>
      <trkpt lat="43.30993" lon="-0.86153">
        <ele>127.51</ele>
        <time>2021-08-20T10:23:50Z</time>
      </trkpt>
      <trkpt lat="43.31014" lon="-0.862">
        <ele>123.67</ele>
        <time>2021-08-20T10:23:55Z</time>
      </trkpt>
      <trkpt lat="43.31036" lon="-0.86246">
        <ele>119.34</ele>
        <time>2021-08-20T10:23:59Z</time>
      </trkpt>
      <trkpt lat="43.31057" lon="-0.86298">
        <ele>115.98</ele>
        <time>2021-08-20T10:24:03Z</time>
      </trkpt>
      <trkpt lat="43.31061" lon="-0.86312">
        <ele>115.98</ele>
        <time>2021-08-20T10:24:04Z</time>
      </trkpt>
      <trkpt lat="43.31071" lon="-0.86355">
        <ele>114.05</ele>
        <time>2021-08-20T10:24:07Z</time>
      </trkpt>
      <trkpt lat="43.31074" lon="-0.86397">
        <ele>113.57</ele>
        <time>2021-08-20T10:24:10Z</time>
      </trkpt>
      <trkpt lat="43.31074" lon="-0.8641">
        <ele>113.09</ele>
        <time>2021-08-20T10:24:11Z</time>
      </trkpt>
      <trkpt lat="43.31071" lon="-0.86423">
        <ele>113.09</ele>
        <time>2021-08-20T10:24:12Z</time>
      </trkpt>
      <trkpt lat="43.31067" lon="-0.86435">
        <ele>113.09</ele>
        <time>2021-08-20T10:24:13Z</time>
      </trkpt>
      <trkpt lat="43.31063" lon="-0.86446">
        <ele>112.61</ele>
        <time>2021-08-20T10:24:14Z</time>
      </trkpt>
      <trkpt lat="43.31057" lon="-0.86456">
        <ele>111.65</ele>
        <time>2021-08-20T10:24:15Z</time>
      </trkpt>
      <trkpt lat="43.31051" lon="-0.86466">
        <ele>111.65</ele>
        <time>2021-08-20T10:24:16Z</time>
      </trkpt>
      <trkpt lat="43.31042" lon="-0.86486">
        <ele>110.69</ele>
        <time>2021-08-20T10:24:18Z</time>
      </trkpt>
      <trkpt lat="43.31038" lon="-0.86497">
        <ele>110.69</ele>
        <time>2021-08-20T10:24:19Z</time>
      </trkpt>
      <trkpt lat="43.31035" lon="-0.86508">
        <ele>110.21</ele>
        <time>2021-08-20T10:24:20Z</time>
      </trkpt>
      <trkpt lat="43.31032" lon="-0.8652">
        <ele>110.21</ele>
        <time>2021-08-20T10:24:21Z</time>
      </trkpt>
      <trkpt lat="43.31029" lon="-0.86531">
        <ele>110.21</ele>
        <time>2021-08-20T10:24:22Z</time>
      </trkpt>
      <trkpt lat="43.31015" lon="-0.86616">
        <ele>109.25</ele>
        <time>2021-08-20T10:24:30Z</time>
      </trkpt>
      <trkpt lat="43.3101" lon="-0.86712">
        <ele>108.77</ele>
        <time>2021-08-20T10:24:39Z</time>
      </trkpt>
      <trkpt lat="43.31006" lon="-0.86786">
        <ele>108.77</ele>
        <time>2021-08-20T10:24:47Z</time>
      </trkpt>
      <trkpt lat="43.31005" lon="-0.86802">
        <ele>108.77</ele>
        <time>2021-08-20T10:24:49Z</time>
      </trkpt>
      <trkpt lat="43.31005" lon="-0.86809">
        <ele>108.77</ele>
        <time>2021-08-20T10:24:50Z</time>
      </trkpt>
      <trkpt lat="43.31005" lon="-0.86815">
        <ele>108.77</ele>
        <time>2021-08-20T10:24:51Z</time>
      </trkpt>
      <trkpt lat="43.31006" lon="-0.86821">
        <ele>108.77</ele>
        <time>2021-08-20T10:24:52Z</time>
      </trkpt>
      <trkpt lat="43.31009" lon="-0.86825">
        <ele>108.77</ele>
        <time>2021-08-20T10:24:53Z</time>
      </trkpt>
      <trkpt lat="43.31012" lon="-0.86828">
        <ele>108.77</ele>
        <time>2021-08-20T10:24:54Z</time>
      </trkpt>
      <trkpt lat="43.31016" lon="-0.86831">
        <ele>108.77</ele>
        <time>2021-08-20T10:24:55Z</time>
      </trkpt>
      <trkpt lat="43.3102" lon="-0.86834">
        <ele>108.77</ele>
        <time>2021-08-20T10:24:56Z</time>
      </trkpt>
      <trkpt lat="43.3105" lon="-0.86866">
        <ele>108.29</ele>
        <time>2021-08-20T10:25:04Z</time>
      </trkpt>
      <trkpt lat="43.31058" lon="-0.86874">
        <ele>108.29</ele>
        <time>2021-08-20T10:25:06Z</time>
      </trkpt>
      <trkpt lat="43.31067" lon="-0.8688">
        <ele>108.29</ele>
        <time>2021-08-20T10:25:08Z</time>
      </trkpt>
      <trkpt lat="43.31072" lon="-0.86882">
        <ele>108.29</ele>
        <time>2021-08-20T10:25:09Z</time>
      </trkpt>
      <trkpt lat="43.31093" lon="-0.86889">
        <ele>107.81</ele>
        <time>2021-08-20T10:25:13Z</time>
      </trkpt>
      <trkpt lat="43.31098" lon="-0.86889">
        <ele>107.81</ele>
        <time>2021-08-20T10:25:14Z</time>
      </trkpt>
      <trkpt lat="43.31103" lon="-0.8689">
        <ele>107.81</ele>
        <time>2021-08-20T10:25:15Z</time>
      </trkpt>
      <trkpt lat="43.31152" lon="-0.86882">
        <ele>107.32</ele>
        <time>2021-08-20T10:25:24Z</time>
      </trkpt>
      <trkpt lat="43.31203" lon="-0.86875">
        <ele>106.84</ele>
        <time>2021-08-20T10:25:33Z</time>
      </trkpt>
      <trkpt lat="43.31254" lon="-0.86876">
        <ele>106.84</ele>
        <time>2021-08-20T10:25:42Z</time>
      </trkpt>
      <trkpt lat="43.31274" lon="-0.86877">
        <ele>106.84</ele>
        <time>2021-08-20T10:25:46Z</time>
      </trkpt>
      <trkpt lat="43.31298" lon="-0.86879">
        <ele>106.84</ele>
        <time>2021-08-20T10:25:51Z</time>
      </trkpt>
      <trkpt lat="43.31302" lon="-0.86883">
        <ele>106.84</ele>
        <time>2021-08-20T10:25:52Z</time>
      </trkpt>
      <trkpt lat="43.31305" lon="-0.86888">
        <ele>106.84</ele>
        <time>2021-08-20T10:25:53Z</time>
      </trkpt>
      <trkpt lat="43.31308" lon="-0.86895">
        <ele>106.84</ele>
        <time>2021-08-20T10:25:54Z</time>
      </trkpt>
      <trkpt lat="43.31308" lon="-0.86901">
        <ele>106.84</ele>
        <time>2021-08-20T10:25:55Z</time>
      </trkpt>
      <trkpt lat="43.31308" lon="-0.86908">
        <ele>106.84</ele>
        <time>2021-08-20T10:25:56Z</time>
      </trkpt>
      <trkpt lat="43.31307" lon="-0.86916">
        <ele>106.84</ele>
        <time>2021-08-20T10:25:57Z</time>
      </trkpt>
      <trkpt lat="43.313" lon="-0.86957">
        <ele>108.29</ele>
        <time>2021-08-20T10:26:04Z</time>
      </trkpt>
      <trkpt lat="43.31292" lon="-0.86984">
        <ele>108.77</ele>
        <time>2021-08-20T10:26:11Z</time>
      </trkpt>
      <trkpt lat="43.31289" lon="-0.86988">
        <ele>108.29</ele>
        <time>2021-08-20T10:26:12Z</time>
      </trkpt>
      <trkpt lat="43.31284" lon="-0.86989">
        <ele>108.29</ele>
        <time>2021-08-20T10:26:13Z</time>
      </trkpt>
      <trkpt lat="43.3128" lon="-0.86989">
        <ele>108.29</ele>
        <time>2021-08-20T10:26:14Z</time>
      </trkpt>
      <trkpt lat="43.31275" lon="-0.86988">
        <ele>107.32</ele>
        <time>2021-08-20T10:26:15Z</time>
      </trkpt>
      <trkpt lat="43.3127" lon="-0.86986">
        <ele>106.84</ele>
        <time>2021-08-20T10:26:16Z</time>
      </trkpt>
      <trkpt lat="43.31264" lon="-0.86985">
        <ele>106.84</ele>
        <time>2021-08-20T10:26:17Z</time>
      </trkpt>
      <trkpt lat="43.3123" lon="-0.86978">
        <ele>106.84</ele>
        <time>2021-08-20T10:26:24Z</time>
      </trkpt>
      <trkpt lat="43.31186" lon="-0.86968">
        <ele>106.84</ele>
        <time>2021-08-20T10:26:33Z</time>
      </trkpt>
      <trkpt lat="43.31152" lon="-0.8696">
        <ele>106.84</ele>
        <time>2021-08-20T10:26:40Z</time>
      </trkpt>
      <trkpt lat="43.31102" lon="-0.86954">
        <ele>106.84</ele>
        <time>2021-08-20T10:26:50Z</time>
      </trkpt>
      <trkpt lat="43.31052" lon="-0.86948">
        <ele>107.81</ele>
        <time>2021-08-20T10:27:00Z</time>
      </trkpt>
      <trkpt lat="43.31047" lon="-0.86947">
        <ele>107.81</ele>
        <time>2021-08-20T10:27:01Z</time>
      </trkpt>
      <trkpt lat="43.31042" lon="-0.86946">
        <ele>107.81</ele>
        <time>2021-08-20T10:27:02Z</time>
      </trkpt>
      <trkpt lat="43.31012" lon="-0.86939">
        <ele>107.81</ele>
        <time>2021-08-20T10:27:08Z</time>
      </trkpt>
      <trkpt lat="43.30951" lon="-0.8693">
        <ele>107.81</ele>
        <time>2021-08-20T10:27:20Z</time>
      </trkpt>
      <trkpt lat="43.30936" lon="-0.86928">
        <ele>107.81</ele>
        <time>2021-08-20T10:27:23Z</time>
      </trkpt>
      <trkpt lat="43.30931" lon="-0.86928">
        <ele>107.81</ele>
        <time>2021-08-20T10:27:24Z</time>
      </trkpt>
      <trkpt lat="43.30927" lon="-0.8693">
        <ele>107.81</ele>
        <time>2021-08-20T10:27:25Z</time>
      </trkpt>
      <trkpt lat="43.30923" lon="-0.86932">
        <ele>107.81</ele>
        <time>2021-08-20T10:27:26Z</time>
      </trkpt>
      <trkpt lat="43.3092" lon="-0.86936">
        <ele>107.81</ele>
        <time>2021-08-20T10:27:27Z</time>
      </trkpt>
      <trkpt lat="43.30919" lon="-0.86959">
        <ele>107.81</ele>
        <time>2021-08-20T10:27:31Z</time>
      </trkpt>
      <trkpt lat="43.30919" lon="-0.86982">
        <ele>107.81</ele>
        <time>2021-08-20T10:27:34Z</time>
      </trkpt>
      <trkpt lat="43.30915" lon="-0.87034">
        <ele>107.32</ele>
        <time>2021-08-20T10:27:43Z</time>
      </trkpt>
      <trkpt lat="43.30914" lon="-0.87054">
        <ele>107.32</ele>
        <time>2021-08-20T10:27:48Z</time>
      </trkpt>
      <trkpt lat="43.30914" lon="-0.87053">
        <ele>107.81</ele>
        <time>2021-08-20T10:28:06Z</time>
      </trkpt>
      <trkpt lat="43.30912" lon="-0.87051">
        <ele>107.81</ele>
        <time>2021-08-20T10:28:17Z</time>
      </trkpt>
      <trkpt lat="43.30912" lon="-0.8705">
        <ele>107.81</ele>
        <time>2021-08-20T10:28:20Z</time>
      </trkpt>
      <trkpt lat="43.30914" lon="-0.87035">
        <ele>107.81</ele>
        <time>2021-08-20T10:28:26Z</time>
      </trkpt>
      <trkpt lat="43.30916" lon="-0.87008">
        <ele>107.81</ele>
        <time>2021-08-20T10:28:32Z</time>
      </trkpt>
      <trkpt lat="43.30917" lon="-0.86983">
        <ele>107.81</ele>
        <time>2021-08-20T10:28:36Z</time>
      </trkpt>
      <trkpt lat="43.30921" lon="-0.86935">
        <ele>107.81</ele>
        <time>2021-08-20T10:28:45Z</time>
      </trkpt>
      <trkpt lat="43.3092" lon="-0.86924">
        <ele>107.81</ele>
        <time>2021-08-20T10:28:48Z</time>
      </trkpt>
      <trkpt lat="43.30919" lon="-0.86923">
        <ele>107.81</ele>
        <time>2021-08-20T10:28:49Z</time>
      </trkpt>
      <trkpt lat="43.30917" lon="-0.86922">
        <ele>107.81</ele>
        <time>2021-08-20T10:28:50Z</time>
      </trkpt>
      <trkpt lat="43.30913" lon="-0.86922">
        <ele>107.81</ele>
        <time>2021-08-20T10:28:51Z</time>
      </trkpt>
      <trkpt lat="43.3091" lon="-0.86921">
        <ele>107.81</ele>
        <time>2021-08-20T10:28:52Z</time>
      </trkpt>
      <trkpt lat="43.30907" lon="-0.8692">
        <ele>107.81</ele>
        <time>2021-08-20T10:28:53Z</time>
      </trkpt>
      <trkpt lat="43.30883" lon="-0.86916">
        <ele>107.81</ele>
        <time>2021-08-20T10:29:00Z</time>
      </trkpt>
      <trkpt lat="43.30863" lon="-0.86912">
        <ele>107.81</ele>
        <time>2021-08-20T10:29:06Z</time>
      </trkpt>
      <trkpt lat="43.30845" lon="-0.86909">
        <ele>107.81</ele>
        <time>2021-08-20T10:29:12Z</time>
      </trkpt>
      <trkpt lat="43.30844" lon="-0.86906">
        <ele>107.81</ele>
        <time>2021-08-20T10:29:17Z</time>
      </trkpt>
      <trkpt lat="43.30841" lon="-0.86905">
        <ele>107.81</ele>
        <time>2021-08-20T10:29:23Z</time>
      </trkpt>
      <trkpt lat="43.3084" lon="-0.86906">
        <ele>107.81</ele>
        <time>2021-08-20T10:29:29Z</time>
      </trkpt>
      <trkpt lat="43.30833" lon="-0.86905">
        <ele>107.81</ele>
        <time>2021-08-20T10:29:35Z</time>
      </trkpt>
      <trkpt lat="43.3082" lon="-0.86903">
        <ele>107.81</ele>
        <time>2021-08-20T10:29:42Z</time>
      </trkpt>
      <trkpt lat="43.30805" lon="-0.869">
        <ele>107.81</ele>
        <time>2021-08-20T10:29:48Z</time>
      </trkpt>
      <trkpt lat="43.30785" lon="-0.86896">
        <ele>107.81</ele>
        <time>2021-08-20T10:29:54Z</time>
      </trkpt>
      <trkpt lat="43.30785" lon="-0.86898">
        <ele>107.81</ele>
        <time>2021-08-20T10:29:58Z</time>
      </trkpt>
      <trkpt lat="43.30784" lon="-0.86901">
        <ele>107.32</ele>
        <time>2021-08-20T10:30:05Z</time>
      </trkpt>
      <trkpt lat="43.30781" lon="-0.86901">
        <ele>107.32</ele>
        <time>2021-08-20T10:30:14Z</time>
      </trkpt>
      <trkpt lat="43.3078" lon="-0.86901">
        <ele>107.32</ele>
        <time>2021-08-20T10:30:15Z</time>
      </trkpt>
      <trkpt lat="43.30772" lon="-0.86902">
        <ele>106.36</ele>
        <time>2021-08-20T10:30:20Z</time>
      </trkpt>
      <trkpt lat="43.30756" lon="-0.86906">
        <ele>103</ele>
        <time>2021-08-20T10:30:25Z</time>
      </trkpt>
      <trkpt lat="43.30752" lon="-0.86907">
        <ele>102.52</ele>
        <time>2021-08-20T10:30:26Z</time>
      </trkpt>
      <trkpt lat="43.30747" lon="-0.86907">
        <ele>102.52</ele>
        <time>2021-08-20T10:30:27Z</time>
      </trkpt>
      <trkpt lat="43.30733" lon="-0.86904">
        <ele>102.52</ele>
        <time>2021-08-20T10:30:30Z</time>
      </trkpt>
      <trkpt lat="43.30729" lon="-0.86905">
        <ele>102.04</ele>
        <time>2021-08-20T10:30:31Z</time>
      </trkpt>
      <trkpt lat="43.30725" lon="-0.86906">
        <ele>102.04</ele>
        <time>2021-08-20T10:30:32Z</time>
      </trkpt>
      <trkpt lat="43.30721" lon="-0.86907">
        <ele>102.04</ele>
        <time>2021-08-20T10:30:33Z</time>
      </trkpt>
      <trkpt lat="43.30718" lon="-0.8691">
        <ele>102.04</ele>
        <time>2021-08-20T10:30:34Z</time>
      </trkpt>
      <trkpt lat="43.30715" lon="-0.86912">
        <ele>102.04</ele>
        <time>2021-08-20T10:30:35Z</time>
      </trkpt>
      <trkpt lat="43.30712" lon="-0.86915">
        <ele>102.04</ele>
        <time>2021-08-20T10:30:36Z</time>
      </trkpt>
      <trkpt lat="43.30696" lon="-0.86934">
        <ele>102.52</ele>
        <time>2021-08-20T10:30:41Z</time>
      </trkpt>
      <trkpt lat="43.30693" lon="-0.86938">
        <ele>102.52</ele>
        <time>2021-08-20T10:30:42Z</time>
      </trkpt>
      <trkpt lat="43.30657" lon="-0.86985">
        <ele>102.52</ele>
        <time>2021-08-20T10:30:53Z</time>
      </trkpt>
      <trkpt lat="43.30638" lon="-0.87009">
        <ele>102.52</ele>
        <time>2021-08-20T10:30:58Z</time>
      </trkpt>
      <trkpt lat="43.30618" lon="-0.87035">
        <ele>104.44</ele>
        <time>2021-08-20T10:31:05Z</time>
      </trkpt>
      <trkpt lat="43.30601" lon="-0.87057">
        <ele>105.88</ele>
        <time>2021-08-20T10:31:13Z</time>
      </trkpt>
      <trkpt lat="43.30582" lon="-0.87081">
        <ele>107.32</ele>
        <time>2021-08-20T10:31:21Z</time>
      </trkpt>
      <trkpt lat="43.30554" lon="-0.87119">
        <ele>107.81</ele>
        <time>2021-08-20T10:31:32Z</time>
      </trkpt>
      <trkpt lat="43.30518" lon="-0.87164">
        <ele>107.81</ele>
        <time>2021-08-20T10:31:44Z</time>
      </trkpt>
      <trkpt lat="43.30489" lon="-0.87202">
        <ele>107.81</ele>
        <time>2021-08-20T10:31:53Z</time>
      </trkpt>
      <trkpt lat="43.30466" lon="-0.8723">
        <ele>108.77</ele>
        <time>2021-08-20T10:32:01Z</time>
      </trkpt>
      <trkpt lat="43.30451" lon="-0.8726">
        <ele>109.25</ele>
        <time>2021-08-20T10:32:09Z</time>
      </trkpt>
      <trkpt lat="43.30446" lon="-0.8728">
        <ele>111.17</ele>
        <time>2021-08-20T10:32:16Z</time>
      </trkpt>
      <trkpt lat="43.30446" lon="-0.87301">
        <ele>112.61</ele>
        <time>2021-08-20T10:32:23Z</time>
      </trkpt>
      <trkpt lat="43.30445" lon="-0.87313">
        <ele>114.05</ele>
        <time>2021-08-20T10:32:27Z</time>
      </trkpt>
      <trkpt lat="43.30445" lon="-0.87316">
        <ele>114.05</ele>
        <time>2021-08-20T10:32:28Z</time>
      </trkpt>
      <trkpt lat="43.30444" lon="-0.87319">
        <ele>114.53</ele>
        <time>2021-08-20T10:32:29Z</time>
      </trkpt>
      <trkpt lat="43.30443" lon="-0.87346">
        <ele>116.46</ele>
        <time>2021-08-20T10:32:38Z</time>
      </trkpt>
      <trkpt lat="43.30444" lon="-0.87378">
        <ele>117.9</ele>
        <time>2021-08-20T10:32:48Z</time>
      </trkpt>
      <trkpt lat="43.30443" lon="-0.87381">
        <ele>117.9</ele>
        <time>2021-08-20T10:32:49Z</time>
      </trkpt>
      <trkpt lat="43.30441" lon="-0.87384">
        <ele>117.9</ele>
        <time>2021-08-20T10:32:50Z</time>
      </trkpt>
      <trkpt lat="43.30439" lon="-0.87386">
        <ele>117.9</ele>
        <time>2021-08-20T10:32:51Z</time>
      </trkpt>
      <trkpt lat="43.30436" lon="-0.87387">
        <ele>117.9</ele>
        <time>2021-08-20T10:32:52Z</time>
      </trkpt>
      <trkpt lat="43.30433" lon="-0.87388">
        <ele>117.9</ele>
        <time>2021-08-20T10:32:53Z</time>
      </trkpt>
      <trkpt lat="43.30415" lon="-0.87404">
        <ele>117.9</ele>
        <time>2021-08-20T10:32:59Z</time>
      </trkpt>
      <trkpt lat="43.30402" lon="-0.87426">
        <ele>117.9</ele>
        <time>2021-08-20T10:33:05Z</time>
      </trkpt>
      <trkpt lat="43.30398" lon="-0.87444">
        <ele>116.46</ele>
        <time>2021-08-20T10:33:08Z</time>
      </trkpt>
      <trkpt lat="43.30397" lon="-0.87452">
        <ele>115.98</ele>
        <time>2021-08-20T10:33:09Z</time>
      </trkpt>
      <trkpt lat="43.30397" lon="-0.87461">
        <ele>115.01</ele>
        <time>2021-08-20T10:33:10Z</time>
      </trkpt>
      <trkpt lat="43.30398" lon="-0.87469">
        <ele>115.01</ele>
        <time>2021-08-20T10:33:11Z</time>
      </trkpt>
      <trkpt lat="43.304" lon="-0.87478">
        <ele>114.05</ele>
        <time>2021-08-20T10:33:12Z</time>
      </trkpt>
      <trkpt lat="43.30403" lon="-0.87488">
        <ele>113.57</ele>
        <time>2021-08-20T10:33:13Z</time>
      </trkpt>
      <trkpt lat="43.30408" lon="-0.87508">
        <ele>112.61</ele>
        <time>2021-08-20T10:33:15Z</time>
      </trkpt>
      <trkpt lat="43.30419" lon="-0.87536">
        <ele>112.13</ele>
        <time>2021-08-20T10:33:18Z</time>
      </trkpt>
      <trkpt lat="43.30435" lon="-0.87578">
        <ele>111.17</ele>
        <time>2021-08-20T10:33:23Z</time>
      </trkpt>
      <trkpt lat="43.30436" lon="-0.87589">
        <ele>110.69</ele>
        <time>2021-08-20T10:33:24Z</time>
      </trkpt>
      <trkpt lat="43.30437" lon="-0.87599">
        <ele>110.21</ele>
        <time>2021-08-20T10:33:25Z</time>
      </trkpt>
      <trkpt lat="43.30437" lon="-0.8761">
        <ele>110.21</ele>
        <time>2021-08-20T10:33:26Z</time>
      </trkpt>
      <trkpt lat="43.30436" lon="-0.8762">
        <ele>109.73</ele>
        <time>2021-08-20T10:33:27Z</time>
      </trkpt>
      <trkpt lat="43.30434" lon="-0.87631">
        <ele>109.73</ele>
        <time>2021-08-20T10:33:28Z</time>
      </trkpt>
      <trkpt lat="43.30431" lon="-0.8764">
        <ele>109.73</ele>
        <time>2021-08-20T10:33:29Z</time>
      </trkpt>
      <trkpt lat="43.30429" lon="-0.8765">
        <ele>109.73</ele>
        <time>2021-08-20T10:33:30Z</time>
      </trkpt>
      <trkpt lat="43.30429" lon="-0.87658">
        <ele>109.73</ele>
        <time>2021-08-20T10:33:31Z</time>
      </trkpt>
      <trkpt lat="43.3043" lon="-0.87666">
        <ele>111.17</ele>
        <time>2021-08-20T10:33:32Z</time>
      </trkpt>
      <trkpt lat="43.30432" lon="-0.87671">
        <ele>111.65</ele>
        <time>2021-08-20T10:33:33Z</time>
      </trkpt>
      <trkpt lat="43.30435" lon="-0.87675">
        <ele>111.65</ele>
        <time>2021-08-20T10:33:34Z</time>
      </trkpt>
      <trkpt lat="43.30465" lon="-0.8772">
        <ele>111.65</ele>
        <time>2021-08-20T10:33:43Z</time>
      </trkpt>
      <trkpt lat="43.30497" lon="-0.87768">
        <ele>112.61</ele>
        <time>2021-08-20T10:33:53Z</time>
      </trkpt>
      <trkpt lat="43.30526" lon="-0.87814">
        <ele>114.05</ele>
        <time>2021-08-20T10:34:04Z</time>
      </trkpt>
      <trkpt lat="43.30536" lon="-0.87831">
        <ele>115.98</ele>
        <time>2021-08-20T10:34:10Z</time>
      </trkpt>
      <trkpt lat="43.30538" lon="-0.87833">
        <ele>115.98</ele>
        <time>2021-08-20T10:34:11Z</time>
      </trkpt>
      <trkpt lat="43.30539" lon="-0.87835">
        <ele>116.46</ele>
        <time>2021-08-20T10:34:12Z</time>
      </trkpt>
      <trkpt lat="43.30552" lon="-0.87854">
        <ele>117.9</ele>
        <time>2021-08-20T10:34:21Z</time>
      </trkpt>
      <trkpt lat="43.30567" lon="-0.87877">
        <ele>117.9</ele>
        <time>2021-08-20T10:34:28Z</time>
      </trkpt>
      <trkpt lat="43.30594" lon="-0.87915">
        <ele>118.86</ele>
        <time>2021-08-20T10:34:38Z</time>
      </trkpt>
      <trkpt lat="43.30621" lon="-0.87942">
        <ele>118.86</ele>
        <time>2021-08-20T10:34:45Z</time>
      </trkpt>
      <trkpt lat="43.30625" lon="-0.87946">
        <ele>118.86</ele>
        <time>2021-08-20T10:34:46Z</time>
      </trkpt>
      <trkpt lat="43.30629" lon="-0.8795">
        <ele>118.86</ele>
        <time>2021-08-20T10:34:47Z</time>
      </trkpt>
      <trkpt lat="43.30634" lon="-0.87954">
        <ele>118.86</ele>
        <time>2021-08-20T10:34:48Z</time>
      </trkpt>
      <trkpt lat="43.30672" lon="-0.87986">
        <ele>117.42</ele>
        <time>2021-08-20T10:34:56Z</time>
      </trkpt>
      <trkpt lat="43.30707" lon="-0.88022">
        <ele>117.42</ele>
        <time>2021-08-20T10:35:03Z</time>
      </trkpt>
      <trkpt lat="43.30741" lon="-0.88076">
        <ele>117.42</ele>
        <time>2021-08-20T10:35:12Z</time>
      </trkpt>
      <trkpt lat="43.30766" lon="-0.8812">
        <ele>117.42</ele>
        <time>2021-08-20T10:35:19Z</time>
      </trkpt>
      <trkpt lat="43.30797" lon="-0.88186">
        <ele>117.42</ele>
        <time>2021-08-20T10:35:28Z</time>
      </trkpt>
      <trkpt lat="43.30828" lon="-0.88244">
        <ele>118.86</ele>
        <time>2021-08-20T10:35:37Z</time>
      </trkpt>
      <trkpt lat="43.30859" lon="-0.88299">
        <ele>119.34</ele>
        <time>2021-08-20T10:35:46Z</time>
      </trkpt>
      <trkpt lat="43.3089" lon="-0.88356">
        <ele>120.3</ele>
        <time>2021-08-20T10:35:55Z</time>
      </trkpt>
      <trkpt lat="43.30922" lon="-0.88425">
        <ele>120.3</ele>
        <time>2021-08-20T10:36:05Z</time>
      </trkpt>
      <trkpt lat="43.30947" lon="-0.88487">
        <ele>120.78</ele>
        <time>2021-08-20T10:36:14Z</time>
      </trkpt>
      <trkpt lat="43.3096" lon="-0.88522">
        <ele>122.22</ele>
        <time>2021-08-20T10:36:20Z</time>
      </trkpt>
      <trkpt lat="43.30963" lon="-0.88527">
        <ele>122.22</ele>
        <time>2021-08-20T10:36:21Z</time>
      </trkpt>
      <trkpt lat="43.30969" lon="-0.88543">
        <ele>122.22</ele>
        <time>2021-08-20T10:36:24Z</time>
      </trkpt>
      <trkpt lat="43.30989" lon="-0.88594">
        <ele>122.71</ele>
        <time>2021-08-20T10:36:33Z</time>
      </trkpt>
      <trkpt lat="43.3101" lon="-0.88649">
        <ele>123.19</ele>
        <time>2021-08-20T10:36:42Z</time>
      </trkpt>
      <trkpt lat="43.31035" lon="-0.88721">
        <ele>124.63</ele>
        <time>2021-08-20T10:36:54Z</time>
      </trkpt>
      <trkpt lat="43.31045" lon="-0.88742">
        <ele>125.11</ele>
        <time>2021-08-20T10:36:58Z</time>
      </trkpt>
      <trkpt lat="43.31067" lon="-0.88794">
        <ele>126.55</ele>
        <time>2021-08-20T10:37:08Z</time>
      </trkpt>
      <trkpt lat="43.31085" lon="-0.8884">
        <ele>127.99</ele>
        <time>2021-08-20T10:37:18Z</time>
      </trkpt>
      <trkpt lat="43.31095" lon="-0.88891">
        <ele>128.95</ele>
        <time>2021-08-20T10:37:29Z</time>
      </trkpt>
      <trkpt lat="43.311" lon="-0.88941">
        <ele>129.92</ele>
        <time>2021-08-20T10:37:39Z</time>
      </trkpt>
      <trkpt lat="43.31113" lon="-0.88994">
        <ele>130.88</ele>
        <time>2021-08-20T10:37:49Z</time>
      </trkpt>
      <trkpt lat="43.31127" lon="-0.8905">
        <ele>132.32</ele>
        <time>2021-08-20T10:37:59Z</time>
      </trkpt>
      <trkpt lat="43.31138" lon="-0.89094">
        <ele>133.28</ele>
        <time>2021-08-20T10:38:08Z</time>
      </trkpt>
      <trkpt lat="43.31148" lon="-0.89122">
        <ele>133.76</ele>
        <time>2021-08-20T10:38:14Z</time>
      </trkpt>
      <trkpt lat="43.3117" lon="-0.89175">
        <ele>135.68</ele>
        <time>2021-08-20T10:38:25Z</time>
      </trkpt>
      <trkpt lat="43.31181" lon="-0.89199">
        <ele>136.64</ele>
        <time>2021-08-20T10:38:32Z</time>
      </trkpt>
      <trkpt lat="43.31197" lon="-0.89235">
        <ele>138.57</ele>
        <time>2021-08-20T10:38:43Z</time>
      </trkpt>
      <trkpt lat="43.31209" lon="-0.89264">
        <ele>140.01</ele>
        <time>2021-08-20T10:38:52Z</time>
      </trkpt>
      <trkpt lat="43.31216" lon="-0.89278">
        <ele>141.45</ele>
        <time>2021-08-20T10:38:58Z</time>
      </trkpt>
      <trkpt lat="43.31226" lon="-0.89298">
        <ele>143.37</ele>
        <time>2021-08-20T10:39:07Z</time>
      </trkpt>
      <trkpt lat="43.31236" lon="-0.89321">
        <ele>144.82</ele>
        <time>2021-08-20T10:39:17Z</time>
      </trkpt>
      <trkpt lat="43.31239" lon="-0.89328">
        <ele>145.78</ele>
        <time>2021-08-20T10:39:20Z</time>
      </trkpt>
      <trkpt lat="43.31253" lon="-0.89349">
        <ele>147.22</ele>
        <time>2021-08-20T10:39:30Z</time>
      </trkpt>
      <trkpt lat="43.31262" lon="-0.89369">
        <ele>148.18</ele>
        <time>2021-08-20T10:39:38Z</time>
      </trkpt>
      <trkpt lat="43.31269" lon="-0.89384">
        <ele>149.14</ele>
        <time>2021-08-20T10:39:44Z</time>
      </trkpt>
      <trkpt lat="43.3127" lon="-0.89387">
        <ele>149.62</ele>
        <time>2021-08-20T10:39:46Z</time>
      </trkpt>
      <trkpt lat="43.31281" lon="-0.89411">
        <ele>150.1</ele>
        <time>2021-08-20T10:39:54Z</time>
      </trkpt>
      <trkpt lat="43.31294" lon="-0.89439">
        <ele>151.54</ele>
        <time>2021-08-20T10:40:04Z</time>
      </trkpt>
      <trkpt lat="43.31303" lon="-0.8947">
        <ele>152.51</ele>
        <time>2021-08-20T10:40:14Z</time>
      </trkpt>
      <trkpt lat="43.31308" lon="-0.89495">
        <ele>153.95</ele>
        <time>2021-08-20T10:40:23Z</time>
      </trkpt>
      <trkpt lat="43.31312" lon="-0.89514">
        <ele>155.87</ele>
        <time>2021-08-20T10:40:31Z</time>
      </trkpt>
      <trkpt lat="43.31317" lon="-0.89532">
        <ele>156.83</ele>
        <time>2021-08-20T10:40:39Z</time>
      </trkpt>
      <trkpt lat="43.31322" lon="-0.89555">
        <ele>158.27</ele>
        <time>2021-08-20T10:40:48Z</time>
      </trkpt>
      <trkpt lat="43.31326" lon="-0.89574">
        <ele>160.2</ele>
        <time>2021-08-20T10:40:56Z</time>
      </trkpt>
      <trkpt lat="43.31329" lon="-0.89593">
        <ele>161.64</ele>
        <time>2021-08-20T10:41:04Z</time>
      </trkpt>
      <trkpt lat="43.31331" lon="-0.89608">
        <ele>163.08</ele>
        <time>2021-08-20T10:41:12Z</time>
      </trkpt>
      <trkpt lat="43.31334" lon="-0.89621">
        <ele>164.04</ele>
        <time>2021-08-20T10:41:21Z</time>
      </trkpt>
      <trkpt lat="43.31335" lon="-0.89629">
        <ele>165</ele>
        <time>2021-08-20T10:41:26Z</time>
      </trkpt>
      <trkpt lat="43.31335" lon="-0.89631">
        <ele>165.48</ele>
        <time>2021-08-20T10:41:28Z</time>
      </trkpt>
      <trkpt lat="43.31335" lon="-0.89633">
        <ele>165.96</ele>
        <time>2021-08-20T10:41:29Z</time>
      </trkpt>
      <trkpt lat="43.31336" lon="-0.89634">
        <ele>165.96</ele>
        <time>2021-08-20T10:41:30Z</time>
      </trkpt>
      <trkpt lat="43.31338" lon="-0.89648">
        <ele>167.41</ele>
        <time>2021-08-20T10:41:40Z</time>
      </trkpt>
      <trkpt lat="43.3134" lon="-0.89659">
        <ele>168.37</ele>
        <time>2021-08-20T10:41:48Z</time>
      </trkpt>
      <trkpt lat="43.31342" lon="-0.89673">
        <ele>169.81</ele>
        <time>2021-08-20T10:41:58Z</time>
      </trkpt>
      <trkpt lat="43.31343" lon="-0.89676">
        <ele>170.29</ele>
        <time>2021-08-20T10:42:01Z</time>
      </trkpt>
      <trkpt lat="43.31345" lon="-0.89692">
        <ele>171.73</ele>
        <time>2021-08-20T10:42:11Z</time>
      </trkpt>
      <trkpt lat="43.31349" lon="-0.89709">
        <ele>173.17</ele>
        <time>2021-08-20T10:42:22Z</time>
      </trkpt>
      <trkpt lat="43.31351" lon="-0.89721">
        <ele>174.14</ele>
        <time>2021-08-20T10:42:30Z</time>
      </trkpt>
      <trkpt lat="43.31352" lon="-0.89724">
        <ele>175.1</ele>
        <time>2021-08-20T10:42:37Z</time>
      </trkpt>
      <trkpt lat="43.31353" lon="-0.89727">
        <ele>175.1</ele>
        <time>2021-08-20T10:42:39Z</time>
      </trkpt>
      <trkpt lat="43.31353" lon="-0.89729">
        <ele>175.1</ele>
        <time>2021-08-20T10:42:40Z</time>
      </trkpt>
      <trkpt lat="43.31353" lon="-0.89731">
        <ele>175.1</ele>
        <time>2021-08-20T10:42:41Z</time>
      </trkpt>
      <trkpt lat="43.31353" lon="-0.89734">
        <ele>175.58</ele>
        <time>2021-08-20T10:42:42Z</time>
      </trkpt>
      <trkpt lat="43.31354" lon="-0.89736">
        <ele>175.58</ele>
        <time>2021-08-20T10:42:43Z</time>
      </trkpt>
      <trkpt lat="43.31355" lon="-0.89739">
        <ele>175.58</ele>
        <time>2021-08-20T10:42:44Z</time>
      </trkpt>
      <trkpt lat="43.31356" lon="-0.89742">
        <ele>175.58</ele>
        <time>2021-08-20T10:42:45Z</time>
      </trkpt>
      <trkpt lat="43.31356" lon="-0.89745">
        <ele>175.58</ele>
        <time>2021-08-20T10:42:46Z</time>
      </trkpt>
      <trkpt lat="43.3136" lon="-0.89767">
        <ele>176.54</ele>
        <time>2021-08-20T10:42:53Z</time>
      </trkpt>
      <trkpt lat="43.31365" lon="-0.89803">
        <ele>177.02</ele>
        <time>2021-08-20T10:43:01Z</time>
      </trkpt>
      <trkpt lat="43.3136" lon="-0.89829">
        <ele>177.02</ele>
        <time>2021-08-20T10:43:07Z</time>
      </trkpt>
      <trkpt lat="43.31346" lon="-0.89836">
        <ele>177.5</ele>
        <time>2021-08-20T10:43:12Z</time>
      </trkpt>
      <trkpt lat="43.31336" lon="-0.89842">
        <ele>178.46</ele>
        <time>2021-08-20T10:43:18Z</time>
      </trkpt>
      <trkpt lat="43.31337" lon="-0.89841">
        <ele>178.46</ele>
        <time>2021-08-20T10:43:28Z</time>
      </trkpt>
      <trkpt lat="43.31338" lon="-0.89838">
        <ele>178.46</ele>
        <time>2021-08-20T10:43:51Z</time>
      </trkpt>
      <trkpt lat="43.31338" lon="-0.89839">
        <ele>178.46</ele>
        <time>2021-08-20T10:44:11Z</time>
      </trkpt>
      <trkpt lat="43.31339" lon="-0.8984">
        <ele>178.46</ele>
        <time>2021-08-20T10:44:36Z</time>
      </trkpt>
      <trkpt lat="43.31338" lon="-0.8984">
        <ele>177.98</ele>
        <time>2021-08-20T10:45:04Z</time>
      </trkpt>
      <trkpt lat="43.31339" lon="-0.8984">
        <ele>177.98</ele>
        <time>2021-08-20T10:45:12Z</time>
      </trkpt>
      <trkpt lat="43.3134" lon="-0.89842">
        <ele>177.98</ele>
        <time>2021-08-20T10:45:23Z</time>
      </trkpt>
      <trkpt lat="43.31339" lon="-0.89843">
        <ele>177.02</ele>
        <time>2021-08-20T10:45:38Z</time>
      </trkpt>
      <trkpt lat="43.31337" lon="-0.89841">
        <ele>177.02</ele>
        <time>2021-08-20T10:45:44Z</time>
      </trkpt>
      <trkpt lat="43.31337" lon="-0.89841">
        <ele>177.98</ele>
        <time>2021-08-20T10:45:58Z</time>
      </trkpt>
      <trkpt lat="43.31335" lon="-0.89841">
        <ele>177.98</ele>
        <time>2021-08-20T10:46:09Z</time>
      </trkpt>
      <trkpt lat="43.31335" lon="-0.89842">
        <ele>177.98</ele>
        <time>2021-08-20T10:46:21Z</time>
      </trkpt>
      <trkpt lat="43.31337" lon="-0.89842">
        <ele>177.98</ele>
        <time>2021-08-20T10:46:31Z</time>
      </trkpt>
      <trkpt lat="43.31337" lon="-0.89841">
        <ele>177.98</ele>
        <time>2021-08-20T10:46:38Z</time>
      </trkpt>
      <trkpt lat="43.31335" lon="-0.89841">
        <ele>177.98</ele>
        <time>2021-08-20T10:47:01Z</time>
      </trkpt>
      <trkpt lat="43.31336" lon="-0.89841">
        <ele>177.98</ele>
        <time>2021-08-20T10:47:21Z</time>
      </trkpt>
      <trkpt lat="43.31337" lon="-0.89842">
        <ele>177.98</ele>
        <time>2021-08-20T10:47:43Z</time>
      </trkpt>
      <trkpt lat="43.31339" lon="-0.8984">
        <ele>177.98</ele>
        <time>2021-08-20T10:48:08Z</time>
      </trkpt>
      <trkpt lat="43.31339" lon="-0.8984">
        <ele>177.98</ele>
        <time>2021-08-20T10:48:39Z</time>
      </trkpt>
      <trkpt lat="43.31339" lon="-0.89841">
        <ele>177.02</ele>
        <time>2021-08-20T10:49:04Z</time>
      </trkpt>
      <trkpt lat="43.31339" lon="-0.8984">
        <ele>177.02</ele>
        <time>2021-08-20T10:49:28Z</time>
      </trkpt>
      <trkpt lat="43.31338" lon="-0.89842">
        <ele>177.02</ele>
        <time>2021-08-20T10:49:49Z</time>
      </trkpt>
      <trkpt lat="43.31338" lon="-0.89843">
        <ele>177.02</ele>
        <time>2021-08-20T10:50:11Z</time>
      </trkpt>
      <trkpt lat="43.31337" lon="-0.89843">
        <ele>177.02</ele>
        <time>2021-08-20T10:50:37Z</time>
      </trkpt>
      <trkpt lat="43.31337" lon="-0.89843">
        <ele>177.02</ele>
        <time>2021-08-20T10:51:03Z</time>
      </trkpt>
      <trkpt lat="43.31337" lon="-0.89843">
        <ele>177.02</ele>
        <time>2021-08-20T10:51:24Z</time>
      </trkpt>
      <trkpt lat="43.31335" lon="-0.89844">
        <ele>177.02</ele>
        <time>2021-08-20T10:51:46Z</time>
      </trkpt>
      <trkpt lat="43.31335" lon="-0.89843">
        <ele>177.02</ele>
        <time>2021-08-20T10:52:11Z</time>
      </trkpt>
      <trkpt lat="43.31337" lon="-0.89842">
        <ele>177.98</ele>
        <time>2021-08-20T10:52:37Z</time>
      </trkpt>
      <trkpt lat="43.31337" lon="-0.89841">
        <ele>177.98</ele>
        <time>2021-08-20T10:52:56Z</time>
      </trkpt>
      <trkpt lat="43.31336" lon="-0.8984">
        <ele>177.98</ele>
        <time>2021-08-20T10:53:19Z</time>
      </trkpt>
      <trkpt lat="43.31337" lon="-0.89842">
        <ele>177.98</ele>
        <time>2021-08-20T10:53:39Z</time>
      </trkpt>
      <trkpt lat="43.31335" lon="-0.89842">
        <ele>177.5</ele>
        <time>2021-08-20T10:53:57Z</time>
      </trkpt>
      <trkpt lat="43.31335" lon="-0.89842">
        <ele>177.5</ele>
        <time>2021-08-20T10:54:18Z</time>
      </trkpt>
      <trkpt lat="43.31336" lon="-0.8984">
        <ele>177.5</ele>
        <time>2021-08-20T10:54:36Z</time>
      </trkpt>
      <trkpt lat="43.31336" lon="-0.8984">
        <ele>177.5</ele>
        <time>2021-08-20T10:54:44Z</time>
      </trkpt>
      <trkpt lat="43.31336" lon="-0.89839">
        <ele>177.5</ele>
        <time>2021-08-20T10:54:46Z</time>
      </trkpt>
      <trkpt lat="43.31335" lon="-0.8984">
        <ele>177.5</ele>
        <time>2021-08-20T10:54:52Z</time>
      </trkpt>
      <trkpt lat="43.31336" lon="-0.89841">
        <ele>177.98</ele>
        <time>2021-08-20T10:55:17Z</time>
      </trkpt>
      <trkpt lat="43.31336" lon="-0.89842">
        <ele>177.98</ele>
        <time>2021-08-20T10:55:39Z</time>
      </trkpt>
      <trkpt lat="43.31335" lon="-0.89843">
        <ele>177.98</ele>
        <time>2021-08-20T10:56:03Z</time>
      </trkpt>
      <trkpt lat="43.31336" lon="-0.89842">
        <ele>177.98</ele>
        <time>2021-08-20T10:56:24Z</time>
      </trkpt>
      <trkpt lat="43.31337" lon="-0.89842">
        <ele>177.98</ele>
        <time>2021-08-20T10:56:44Z</time>
      </trkpt>
      <trkpt lat="43.31336" lon="-0.8984">
        <ele>177.98</ele>
        <time>2021-08-20T10:57:01Z</time>
      </trkpt>
      <trkpt lat="43.31336" lon="-0.8984">
        <ele>177.98</ele>
        <time>2021-08-20T10:57:21Z</time>
      </trkpt>
      <trkpt lat="43.31336" lon="-0.89839">
        <ele>177.98</ele>
        <time>2021-08-20T10:57:37Z</time>
      </trkpt>
      <trkpt lat="43.31333" lon="-0.89843">
        <ele>177.98</ele>
        <time>2021-08-20T10:57:54Z</time>
      </trkpt>
      <trkpt lat="43.31333" lon="-0.89842">
        <ele>177.98</ele>
        <time>2021-08-20T10:58:14Z</time>
      </trkpt>
      <trkpt lat="43.31337" lon="-0.8984">
        <ele>177.98</ele>
        <time>2021-08-20T10:58:28Z</time>
      </trkpt>
      <trkpt lat="43.31336" lon="-0.8984">
        <ele>177.98</ele>
        <time>2021-08-20T10:58:46Z</time>
      </trkpt>
      <trkpt lat="43.31336" lon="-0.89841">
        <ele>177.98</ele>
        <time>2021-08-20T10:59:09Z</time>
      </trkpt>
      <trkpt lat="43.31336" lon="-0.89841">
        <ele>177.98</ele>
        <time>2021-08-20T10:59:24Z</time>
      </trkpt>
      <trkpt lat="43.31336" lon="-0.8984">
        <ele>177.5</ele>
        <time>2021-08-20T10:59:52Z</time>
      </trkpt>
      <trkpt lat="43.31334" lon="-0.89841">
        <ele>177.02</ele>
        <time>2021-08-20T11:00:23Z</time>
      </trkpt>
      <trkpt lat="43.31334" lon="-0.89841">
        <ele>177.02</ele>
        <time>2021-08-20T11:00:47Z</time>
      </trkpt>
      <trkpt lat="43.31335" lon="-0.89841">
        <ele>177.02</ele>
        <time>2021-08-20T11:01:04Z</time>
      </trkpt>
      <trkpt lat="43.31334" lon="-0.89841">
        <ele>177.02</ele>
        <time>2021-08-20T11:01:25Z</time>
      </trkpt>
      <trkpt lat="43.31336" lon="-0.89841">
        <ele>177.02</ele>
        <time>2021-08-20T11:01:47Z</time>
      </trkpt>
      <trkpt lat="43.31336" lon="-0.89843">
        <ele>176.54</ele>
        <time>2021-08-20T11:02:08Z</time>
      </trkpt>
      <trkpt lat="43.31335" lon="-0.89842">
        <ele>176.54</ele>
        <time>2021-08-20T11:02:34Z</time>
      </trkpt>
      <trkpt lat="43.31334" lon="-0.89841">
        <ele>176.54</ele>
        <time>2021-08-20T11:02:50Z</time>
      </trkpt>
      <trkpt lat="43.31337" lon="-0.89843">
        <ele>176.54</ele>
        <time>2021-08-20T11:03:09Z</time>
      </trkpt>
      <trkpt lat="43.31336" lon="-0.89842">
        <ele>176.54</ele>
        <time>2021-08-20T11:03:30Z</time>
      </trkpt>
      <trkpt lat="43.31337" lon="-0.89843">
        <ele>176.54</ele>
        <time>2021-08-20T11:03:48Z</time>
      </trkpt>
      <trkpt lat="43.31339" lon="-0.89842">
        <ele>176.54</ele>
        <time>2021-08-20T11:04:07Z</time>
      </trkpt>
      <trkpt lat="43.31338" lon="-0.89842">
        <ele>176.54</ele>
        <time>2021-08-20T11:04:27Z</time>
      </trkpt>
      <trkpt lat="43.31336" lon="-0.89843">
        <ele>176.54</ele>
        <time>2021-08-20T11:04:51Z</time>
      </trkpt>
      <trkpt lat="43.31338" lon="-0.89843">
        <ele>176.54</ele>
        <time>2021-08-20T11:05:18Z</time>
      </trkpt>
      <trkpt lat="43.31339" lon="-0.89842">
        <ele>176.54</ele>
        <time>2021-08-20T11:05:35Z</time>
      </trkpt>
      <trkpt lat="43.31336" lon="-0.89842">
        <ele>176.54</ele>
        <time>2021-08-20T11:05:56Z</time>
      </trkpt>
      <trkpt lat="43.31336" lon="-0.89841">
        <ele>176.54</ele>
        <time>2021-08-20T11:06:21Z</time>
      </trkpt>
      <trkpt lat="43.31336" lon="-0.89841">
        <ele>176.54</ele>
        <time>2021-08-20T11:06:39Z</time>
      </trkpt>
      <trkpt lat="43.31336" lon="-0.89841">
        <ele>176.54</ele>
        <time>2021-08-20T11:06:59Z</time>
      </trkpt>
      <trkpt lat="43.31337" lon="-0.8984">
        <ele>176.54</ele>
        <time>2021-08-20T11:07:24Z</time>
      </trkpt>
      <trkpt lat="43.31337" lon="-0.8984">
        <ele>176.54</ele>
        <time>2021-08-20T11:07:45Z</time>
      </trkpt>
      <trkpt lat="43.31336" lon="-0.89838">
        <ele>176.54</ele>
        <time>2021-08-20T11:08:04Z</time>
      </trkpt>
      <trkpt lat="43.31335" lon="-0.89839">
        <ele>176.54</ele>
        <time>2021-08-20T11:08:20Z</time>
      </trkpt>
      <trkpt lat="43.31336" lon="-0.89838">
        <ele>176.54</ele>
        <time>2021-08-20T11:08:37Z</time>
      </trkpt>
      <trkpt lat="43.31336" lon="-0.89838">
        <ele>177.98</ele>
        <time>2021-08-20T11:08:51Z</time>
      </trkpt>
      <trkpt lat="43.31336" lon="-0.8984">
        <ele>177.98</ele>
        <time>2021-08-20T11:09:10Z</time>
      </trkpt>
      <trkpt lat="43.31336" lon="-0.8984">
        <ele>178.94</ele>
        <time>2021-08-20T11:09:22Z</time>
      </trkpt>
      <trkpt lat="43.31337" lon="-0.8984">
        <ele>178.94</ele>
        <time>2021-08-20T11:09:33Z</time>
      </trkpt>
      <trkpt lat="43.31335" lon="-0.89841">
        <ele>178.94</ele>
        <time>2021-08-20T11:09:55Z</time>
      </trkpt>
      <trkpt lat="43.31336" lon="-0.89841">
        <ele>178.94</ele>
        <time>2021-08-20T11:10:09Z</time>
      </trkpt>
      <trkpt lat="43.31335" lon="-0.89839">
        <ele>178.94</ele>
        <time>2021-08-20T11:10:15Z</time>
      </trkpt>
      <trkpt lat="43.31335" lon="-0.89839">
        <ele>178.94</ele>
        <time>2021-08-20T11:10:25Z</time>
      </trkpt>
      <trkpt lat="43.31334" lon="-0.89845">
        <ele>178.94</ele>
        <time>2021-08-20T11:10:39Z</time>
      </trkpt>
      <trkpt lat="43.31333" lon="-0.89844">
        <ele>178.94</ele>
        <time>2021-08-20T11:10:57Z</time>
      </trkpt>
      <trkpt lat="43.31334" lon="-0.89841">
        <ele>178.94</ele>
        <time>2021-08-20T11:11:10Z</time>
      </trkpt>
      <trkpt lat="43.31335" lon="-0.8984">
        <ele>178.94</ele>
        <time>2021-08-20T11:11:20Z</time>
      </trkpt>
      <trkpt lat="43.31334" lon="-0.89837">
        <ele>178.94</ele>
        <time>2021-08-20T11:11:30Z</time>
      </trkpt>
      <trkpt lat="43.31334" lon="-0.89835">
        <ele>178.94</ele>
        <time>2021-08-20T11:11:31Z</time>
      </trkpt>
      <trkpt lat="43.31333" lon="-0.89834">
        <ele>178.94</ele>
        <time>2021-08-20T11:11:32Z</time>
      </trkpt>
      <trkpt lat="43.31332" lon="-0.89833">
        <ele>178.94</ele>
        <time>2021-08-20T11:11:33Z</time>
      </trkpt>
      <trkpt lat="43.3133" lon="-0.89833">
        <ele>178.94</ele>
        <time>2021-08-20T11:11:34Z</time>
      </trkpt>
      <trkpt lat="43.31327" lon="-0.89832">
        <ele>178.94</ele>
        <time>2021-08-20T11:11:35Z</time>
      </trkpt>
      <trkpt lat="43.31324" lon="-0.89832">
        <ele>178.94</ele>
        <time>2021-08-20T11:11:36Z</time>
      </trkpt>
      <trkpt lat="43.313" lon="-0.8983">
        <ele>177.5</ele>
        <time>2021-08-20T11:11:43Z</time>
      </trkpt>
      <trkpt lat="43.31275" lon="-0.89825">
        <ele>177.5</ele>
        <time>2021-08-20T11:11:50Z</time>
      </trkpt>
      <trkpt lat="43.31259" lon="-0.89823">
        <ele>178.94</ele>
        <time>2021-08-20T11:11:55Z</time>
      </trkpt>
      <trkpt lat="43.31251" lon="-0.89826">
        <ele>178.94</ele>
        <time>2021-08-20T11:11:58Z</time>
      </trkpt>
      <trkpt lat="43.31249" lon="-0.89828">
        <ele>178.94</ele>
        <time>2021-08-20T11:11:59Z</time>
      </trkpt>
      <trkpt lat="43.31246" lon="-0.89831">
        <ele>179.42</ele>
        <time>2021-08-20T11:12:00Z</time>
      </trkpt>
      <trkpt lat="43.31229" lon="-0.89841">
        <ele>179.42</ele>
        <time>2021-08-20T11:12:06Z</time>
      </trkpt>
      <trkpt lat="43.31211" lon="-0.89851">
        <ele>180.38</ele>
        <time>2021-08-20T11:12:13Z</time>
      </trkpt>
      <trkpt lat="43.31187" lon="-0.8986">
        <ele>181.83</ele>
        <time>2021-08-20T11:12:22Z</time>
      </trkpt>
      <trkpt lat="43.31168" lon="-0.89859">
        <ele>182.31</ele>
        <time>2021-08-20T11:12:28Z</time>
      </trkpt>
      <trkpt lat="43.3115" lon="-0.89856">
        <ele>180.38</ele>
        <time>2021-08-20T11:12:32Z</time>
      </trkpt>
      <trkpt lat="43.31105" lon="-0.89855">
        <ele>177.98</ele>
        <time>2021-08-20T11:12:40Z</time>
      </trkpt>
      <trkpt lat="43.31099" lon="-0.89853">
        <ele>177.5</ele>
        <time>2021-08-20T11:12:41Z</time>
      </trkpt>
      <trkpt lat="43.31064" lon="-0.89842">
        <ele>174.14</ele>
        <time>2021-08-20T11:12:46Z</time>
      </trkpt>
      <trkpt lat="43.31056" lon="-0.89839">
        <ele>174.14</ele>
        <time>2021-08-20T11:12:47Z</time>
      </trkpt>
      <trkpt lat="43.3101" lon="-0.89836">
        <ele>173.17</ele>
        <time>2021-08-20T11:12:53Z</time>
      </trkpt>
      <trkpt lat="43.31003" lon="-0.89835">
        <ele>172.69</ele>
        <time>2021-08-20T11:12:54Z</time>
      </trkpt>
      <trkpt lat="43.30996" lon="-0.89832">
        <ele>172.69</ele>
        <time>2021-08-20T11:12:55Z</time>
      </trkpt>
      <trkpt lat="43.30989" lon="-0.89829">
        <ele>171.73</ele>
        <time>2021-08-20T11:12:56Z</time>
      </trkpt>
      <trkpt lat="43.30982" lon="-0.89825">
        <ele>170.77</ele>
        <time>2021-08-20T11:12:57Z</time>
      </trkpt>
      <trkpt lat="43.30975" lon="-0.8982">
        <ele>170.29</ele>
        <time>2021-08-20T11:12:58Z</time>
      </trkpt>
      <trkpt lat="43.30943" lon="-0.89797">
        <ele>171.73</ele>
        <time>2021-08-20T11:13:03Z</time>
      </trkpt>
      <trkpt lat="43.30932" lon="-0.89789">
        <ele>171.73</ele>
        <time>2021-08-20T11:13:05Z</time>
      </trkpt>
      <trkpt lat="43.30926" lon="-0.89786">
        <ele>171.73</ele>
        <time>2021-08-20T11:13:06Z</time>
      </trkpt>
      <trkpt lat="43.3092" lon="-0.89784">
        <ele>171.73</ele>
        <time>2021-08-20T11:13:07Z</time>
      </trkpt>
      <trkpt lat="43.30914" lon="-0.89784">
        <ele>171.73</ele>
        <time>2021-08-20T11:13:08Z</time>
      </trkpt>
      <trkpt lat="43.30908" lon="-0.89785">
        <ele>171.73</ele>
        <time>2021-08-20T11:13:09Z</time>
      </trkpt>
      <trkpt lat="43.30901" lon="-0.89785">
        <ele>171.73</ele>
        <time>2021-08-20T11:13:10Z</time>
      </trkpt>
      <trkpt lat="43.30894" lon="-0.89784">
        <ele>169.81</ele>
        <time>2021-08-20T11:13:11Z</time>
      </trkpt>
      <trkpt lat="43.30887" lon="-0.89783">
        <ele>169.81</ele>
        <time>2021-08-20T11:13:12Z</time>
      </trkpt>
      <trkpt lat="43.30837" lon="-0.89774">
        <ele>168.85</ele>
        <time>2021-08-20T11:13:19Z</time>
      </trkpt>
      <trkpt lat="43.30782" lon="-0.89768">
        <ele>167.89</ele>
        <time>2021-08-20T11:13:27Z</time>
      </trkpt>
      <trkpt lat="43.30758" lon="-0.89762">
        <ele>168.85</ele>
        <time>2021-08-20T11:13:32Z</time>
      </trkpt>
      <trkpt lat="43.30754" lon="-0.89765">
        <ele>169.33</ele>
        <time>2021-08-20T11:13:33Z</time>
      </trkpt>
      <trkpt lat="43.30752" lon="-0.89769">
        <ele>169.33</ele>
        <time>2021-08-20T11:13:34Z</time>
      </trkpt>
      <trkpt lat="43.30751" lon="-0.89773">
        <ele>169.33</ele>
        <time>2021-08-20T11:13:35Z</time>
      </trkpt>
      <trkpt lat="43.3075" lon="-0.89778">
        <ele>169.33</ele>
        <time>2021-08-20T11:13:36Z</time>
      </trkpt>
      <trkpt lat="43.30751" lon="-0.89812">
        <ele>168.37</ele>
        <time>2021-08-20T11:13:42Z</time>
      </trkpt>
      <trkpt lat="43.30752" lon="-0.89867">
        <ele>168.37</ele>
        <time>2021-08-20T11:13:50Z</time>
      </trkpt>
      <trkpt lat="43.30757" lon="-0.89909">
        <ele>168.37</ele>
        <time>2021-08-20T11:13:58Z</time>
      </trkpt>
      <trkpt lat="43.30765" lon="-0.89949">
        <ele>167.41</ele>
        <time>2021-08-20T11:14:05Z</time>
      </trkpt>
      <trkpt lat="43.30772" lon="-0.89984">
        <ele>165.96</ele>
        <time>2021-08-20T11:14:10Z</time>
      </trkpt>
      <trkpt lat="43.30774" lon="-0.89992">
        <ele>165.96</ele>
        <time>2021-08-20T11:14:11Z</time>
      </trkpt>
      <trkpt lat="43.30786" lon="-0.90057">
        <ele>162.12</ele>
        <time>2021-08-20T11:14:18Z</time>
      </trkpt>
      <trkpt lat="43.30791" lon="-0.90078">
        <ele>161.64</ele>
        <time>2021-08-20T11:14:20Z</time>
      </trkpt>
      <trkpt lat="43.30795" lon="-0.90099">
        <ele>160.2</ele>
        <time>2021-08-20T11:14:22Z</time>
      </trkpt>
      <trkpt lat="43.308" lon="-0.9012">
        <ele>158.75</ele>
        <time>2021-08-20T11:14:24Z</time>
      </trkpt>
      <trkpt lat="43.30812" lon="-0.90185">
        <ele>155.39</ele>
        <time>2021-08-20T11:14:30Z</time>
      </trkpt>
      <trkpt lat="43.30827" lon="-0.90259">
        <ele>152.99</ele>
        <time>2021-08-20T11:14:37Z</time>
      </trkpt>
      <trkpt lat="43.30835" lon="-0.90295">
        <ele>151.06</ele>
        <time>2021-08-20T11:14:41Z</time>
      </trkpt>
      <trkpt lat="43.30836" lon="-0.90302">
        <ele>151.06</ele>
        <time>2021-08-20T11:14:42Z</time>
      </trkpt>
      <trkpt lat="43.30837" lon="-0.90309">
        <ele>151.06</ele>
        <time>2021-08-20T11:14:43Z</time>
      </trkpt>
      <trkpt lat="43.30838" lon="-0.90316">
        <ele>150.58</ele>
        <time>2021-08-20T11:14:44Z</time>
      </trkpt>
      <trkpt lat="43.3084" lon="-0.90322">
        <ele>150.1</ele>
        <time>2021-08-20T11:14:45Z</time>
      </trkpt>
      <trkpt lat="43.30842" lon="-0.90329">
        <ele>149.14</ele>
        <time>2021-08-20T11:14:46Z</time>
      </trkpt>
      <trkpt lat="43.30844" lon="-0.90335">
        <ele>148.66</ele>
        <time>2021-08-20T11:14:47Z</time>
      </trkpt>
      <trkpt lat="43.30846" lon="-0.90342">
        <ele>148.66</ele>
        <time>2021-08-20T11:14:48Z</time>
      </trkpt>
      <trkpt lat="43.30848" lon="-0.9035">
        <ele>148.18</ele>
        <time>2021-08-20T11:14:49Z</time>
      </trkpt>
      <trkpt lat="43.30862" lon="-0.90407">
        <ele>144.82</ele>
        <time>2021-08-20T11:14:56Z</time>
      </trkpt>
      <trkpt lat="43.30863" lon="-0.90415">
        <ele>144.82</ele>
        <time>2021-08-20T11:14:57Z</time>
      </trkpt>
      <trkpt lat="43.30863" lon="-0.90421">
        <ele>144.34</ele>
        <time>2021-08-20T11:14:58Z</time>
      </trkpt>
      <trkpt lat="43.30862" lon="-0.90425">
        <ele>144.34</ele>
        <time>2021-08-20T11:14:59Z</time>
      </trkpt>
      <trkpt lat="43.30861" lon="-0.90428">
        <ele>143.37</ele>
        <time>2021-08-20T11:15:00Z</time>
      </trkpt>
      <trkpt lat="43.30858" lon="-0.90429">
        <ele>142.89</ele>
        <time>2021-08-20T11:15:01Z</time>
      </trkpt>
      <trkpt lat="43.30857" lon="-0.90429">
        <ele>142.41</ele>
        <time>2021-08-20T11:15:02Z</time>
      </trkpt>
      <trkpt lat="43.30856" lon="-0.90428">
        <ele>141.93</ele>
        <time>2021-08-20T11:15:03Z</time>
      </trkpt>
      <trkpt lat="43.30849" lon="-0.90418">
        <ele>138.09</ele>
        <time>2021-08-20T11:15:09Z</time>
      </trkpt>
      <trkpt lat="43.30845" lon="-0.90414">
        <ele>137.13</ele>
        <time>2021-08-20T11:15:11Z</time>
      </trkpt>
      <trkpt lat="43.30843" lon="-0.90414">
        <ele>136.16</ele>
        <time>2021-08-20T11:15:12Z</time>
      </trkpt>
      <trkpt lat="43.30841" lon="-0.90414">
        <ele>135.68</ele>
        <time>2021-08-20T11:15:13Z</time>
      </trkpt>
      <trkpt lat="43.30839" lon="-0.90415">
        <ele>135.68</ele>
        <time>2021-08-20T11:15:14Z</time>
      </trkpt>
      <trkpt lat="43.30838" lon="-0.90416">
        <ele>135.2</ele>
        <time>2021-08-20T11:15:15Z</time>
      </trkpt>
      <trkpt lat="43.30836" lon="-0.90418">
        <ele>135.2</ele>
        <time>2021-08-20T11:15:16Z</time>
      </trkpt>
      <trkpt lat="43.30835" lon="-0.90419">
        <ele>135.2</ele>
        <time>2021-08-20T11:15:17Z</time>
      </trkpt>
      <trkpt lat="43.30835" lon="-0.90421">
        <ele>134.72</ele>
        <time>2021-08-20T11:15:18Z</time>
      </trkpt>
      <trkpt lat="43.30835" lon="-0.90424">
        <ele>135.2</ele>
        <time>2021-08-20T11:15:19Z</time>
      </trkpt>
      <trkpt lat="43.30835" lon="-0.90427">
        <ele>135.2</ele>
        <time>2021-08-20T11:15:20Z</time>
      </trkpt>
      <trkpt lat="43.30837" lon="-0.9043">
        <ele>135.2</ele>
        <time>2021-08-20T11:15:21Z</time>
      </trkpt>
      <trkpt lat="43.30838" lon="-0.90433">
        <ele>134.72</ele>
        <time>2021-08-20T11:15:22Z</time>
      </trkpt>
      <trkpt lat="43.3084" lon="-0.90437">
        <ele>134.24</ele>
        <time>2021-08-20T11:15:23Z</time>
      </trkpt>
      <trkpt lat="43.30842" lon="-0.90441">
        <ele>134.24</ele>
        <time>2021-08-20T11:15:24Z</time>
      </trkpt>
      <trkpt lat="43.30844" lon="-0.90445">
        <ele>133.76</ele>
        <time>2021-08-20T11:15:25Z</time>
      </trkpt>
      <trkpt lat="43.30846" lon="-0.9045">
        <ele>133.76</ele>
        <time>2021-08-20T11:15:26Z</time>
      </trkpt>
      <trkpt lat="43.30848" lon="-0.90455">
        <ele>133.28</ele>
        <time>2021-08-20T11:15:27Z</time>
      </trkpt>
      <trkpt lat="43.30866" lon="-0.905">
        <ele>129.92</ele>
        <time>2021-08-20T11:15:33Z</time>
      </trkpt>
      <trkpt lat="43.30889" lon="-0.90535">
        <ele>127.03</ele>
        <time>2021-08-20T11:15:37Z</time>
      </trkpt>
      <trkpt lat="43.30912" lon="-0.90559">
        <ele>124.15</ele>
        <time>2021-08-20T11:15:40Z</time>
      </trkpt>
      <trkpt lat="43.30922" lon="-0.90565">
        <ele>123.19</ele>
        <time>2021-08-20T11:15:41Z</time>
      </trkpt>
      <trkpt lat="43.30932" lon="-0.9057">
        <ele>122.71</ele>
        <time>2021-08-20T11:15:42Z</time>
      </trkpt>
      <trkpt lat="43.30973" lon="-0.90593">
        <ele>119.34</ele>
        <time>2021-08-20T11:15:46Z</time>
      </trkpt>
      <trkpt lat="43.30983" lon="-0.90599">
        <ele>119.34</ele>
        <time>2021-08-20T11:15:47Z</time>
      </trkpt>
      <trkpt lat="43.31029" lon="-0.90639">
        <ele>115.5</ele>
        <time>2021-08-20T11:15:52Z</time>
      </trkpt>
      <trkpt lat="43.31087" lon="-0.90704">
        <ele>112.13</ele>
        <time>2021-08-20T11:15:59Z</time>
      </trkpt>
      <trkpt lat="43.31095" lon="-0.90713">
        <ele>112.13</ele>
        <time>2021-08-20T11:16:00Z</time>
      </trkpt>
      <trkpt lat="43.31136" lon="-0.90761">
        <ele>110.21</ele>
        <time>2021-08-20T11:16:05Z</time>
      </trkpt>
      <trkpt lat="43.312" lon="-0.90815">
        <ele>107.32</ele>
        <time>2021-08-20T11:16:12Z</time>
      </trkpt>
      <trkpt lat="43.31255" lon="-0.90848">
        <ele>106.84</ele>
        <time>2021-08-20T11:16:18Z</time>
      </trkpt>
      <trkpt lat="43.31262" lon="-0.90855">
        <ele>106.36</ele>
        <time>2021-08-20T11:16:19Z</time>
      </trkpt>
      <trkpt lat="43.31269" lon="-0.90863">
        <ele>106.36</ele>
        <time>2021-08-20T11:16:20Z</time>
      </trkpt>
      <trkpt lat="43.31275" lon="-0.90872">
        <ele>106.84</ele>
        <time>2021-08-20T11:16:21Z</time>
      </trkpt>
      <trkpt lat="43.31281" lon="-0.90881">
        <ele>106.36</ele>
        <time>2021-08-20T11:16:22Z</time>
      </trkpt>
      <trkpt lat="43.31286" lon="-0.90891">
        <ele>106.84</ele>
        <time>2021-08-20T11:16:23Z</time>
      </trkpt>
      <trkpt lat="43.31289" lon="-0.90901">
        <ele>106.36</ele>
        <time>2021-08-20T11:16:24Z</time>
      </trkpt>
      <trkpt lat="43.31293" lon="-0.90911">
        <ele>106.84</ele>
        <time>2021-08-20T11:16:25Z</time>
      </trkpt>
      <trkpt lat="43.31295" lon="-0.90921">
        <ele>106.84</ele>
        <time>2021-08-20T11:16:26Z</time>
      </trkpt>
      <trkpt lat="43.31297" lon="-0.90931">
        <ele>106.36</ele>
        <time>2021-08-20T11:16:27Z</time>
      </trkpt>
      <trkpt lat="43.31299" lon="-0.90942">
        <ele>106.84</ele>
        <time>2021-08-20T11:16:28Z</time>
      </trkpt>
      <trkpt lat="43.31301" lon="-0.90952">
        <ele>105.88</ele>
        <time>2021-08-20T11:16:29Z</time>
      </trkpt>
      <trkpt lat="43.31312" lon="-0.91026">
        <ele>105.88</ele>
        <time>2021-08-20T11:16:37Z</time>
      </trkpt>
      <trkpt lat="43.31318" lon="-0.91073">
        <ele>107.32</ele>
        <time>2021-08-20T11:16:43Z</time>
      </trkpt>
      <trkpt lat="43.31323" lon="-0.91104">
        <ele>107.81</ele>
        <time>2021-08-20T11:16:48Z</time>
      </trkpt>
      <trkpt lat="43.31324" lon="-0.91109">
        <ele>107.81</ele>
        <time>2021-08-20T11:16:49Z</time>
      </trkpt>
      <trkpt lat="43.31325" lon="-0.91115">
        <ele>108.29</ele>
        <time>2021-08-20T11:16:50Z</time>
      </trkpt>
      <trkpt lat="43.31325" lon="-0.9112">
        <ele>108.29</ele>
        <time>2021-08-20T11:16:51Z</time>
      </trkpt>
      <trkpt lat="43.31326" lon="-0.91125">
        <ele>108.77</ele>
        <time>2021-08-20T11:16:52Z</time>
      </trkpt>
      <trkpt lat="43.31327" lon="-0.91129">
        <ele>108.77</ele>
        <time>2021-08-20T11:16:53Z</time>
      </trkpt>
      <trkpt lat="43.31328" lon="-0.91134">
        <ele>108.77</ele>
        <time>2021-08-20T11:16:54Z</time>
      </trkpt>
      <trkpt lat="43.31333" lon="-0.91166">
        <ele>109.73</ele>
        <time>2021-08-20T11:17:01Z</time>
      </trkpt>
      <trkpt lat="43.31339" lon="-0.91206">
        <ele>110.69</ele>
        <time>2021-08-20T11:17:09Z</time>
      </trkpt>
      <trkpt lat="43.31353" lon="-0.91258">
        <ele>112.13</ele>
        <time>2021-08-20T11:17:20Z</time>
      </trkpt>
      <trkpt lat="43.31365" lon="-0.91294">
        <ele>112.61</ele>
        <time>2021-08-20T11:17:28Z</time>
      </trkpt>
      <trkpt lat="43.31382" lon="-0.91338">
        <ele>113.09</ele>
        <time>2021-08-20T11:17:37Z</time>
      </trkpt>
      <trkpt lat="43.31384" lon="-0.91343">
        <ele>113.09</ele>
        <time>2021-08-20T11:17:38Z</time>
      </trkpt>
      <trkpt lat="43.31386" lon="-0.91348">
        <ele>113.09</ele>
        <time>2021-08-20T11:17:39Z</time>
      </trkpt>
      <trkpt lat="43.31388" lon="-0.91353">
        <ele>113.09</ele>
        <time>2021-08-20T11:17:40Z</time>
      </trkpt>
      <trkpt lat="43.31389" lon="-0.91358">
        <ele>113.09</ele>
        <time>2021-08-20T11:17:41Z</time>
      </trkpt>
      <trkpt lat="43.31405" lon="-0.91403">
        <ele>113.57</ele>
        <time>2021-08-20T11:17:50Z</time>
      </trkpt>
      <trkpt lat="43.31419" lon="-0.91441">
        <ele>115.01</ele>
        <time>2021-08-20T11:17:58Z</time>
      </trkpt>
      <trkpt lat="43.31427" lon="-0.91472">
        <ele>115.98</ele>
        <time>2021-08-20T11:18:05Z</time>
      </trkpt>
      <trkpt lat="43.31425" lon="-0.91475">
        <ele>115.98</ele>
        <time>2021-08-20T11:18:06Z</time>
      </trkpt>
      <trkpt lat="43.31422" lon="-0.91477">
        <ele>115.98</ele>
        <time>2021-08-20T11:18:07Z</time>
      </trkpt>
      <trkpt lat="43.31419" lon="-0.91477">
        <ele>115.5</ele>
        <time>2021-08-20T11:18:08Z</time>
      </trkpt>
      <trkpt lat="43.31416" lon="-0.91477">
        <ele>115.5</ele>
        <time>2021-08-20T11:18:09Z</time>
      </trkpt>
      <trkpt lat="43.31412" lon="-0.91477">
        <ele>115.5</ele>
        <time>2021-08-20T11:18:10Z</time>
      </trkpt>
      <trkpt lat="43.31408" lon="-0.91476">
        <ele>115.5</ele>
        <time>2021-08-20T11:18:11Z</time>
      </trkpt>
      <trkpt lat="43.31404" lon="-0.91475">
        <ele>115.5</ele>
        <time>2021-08-20T11:18:12Z</time>
      </trkpt>
      <trkpt lat="43.31383" lon="-0.91468">
        <ele>112.13</ele>
        <time>2021-08-20T11:18:16Z</time>
      </trkpt>
      <trkpt lat="43.31369" lon="-0.91464">
        <ele>110.69</ele>
        <time>2021-08-20T11:18:18Z</time>
      </trkpt>
      <trkpt lat="43.31361" lon="-0.91464">
        <ele>109.73</ele>
        <time>2021-08-20T11:18:19Z</time>
      </trkpt>
      <trkpt lat="43.31352" lon="-0.91464">
        <ele>109.25</ele>
        <time>2021-08-20T11:18:20Z</time>
      </trkpt>
      <trkpt lat="43.31344" lon="-0.91465">
        <ele>109.25</ele>
        <time>2021-08-20T11:18:21Z</time>
      </trkpt>
      <trkpt lat="43.31336" lon="-0.91467">
        <ele>109.25</ele>
        <time>2021-08-20T11:18:22Z</time>
      </trkpt>
      <trkpt lat="43.31328" lon="-0.91469">
        <ele>108.77</ele>
        <time>2021-08-20T11:18:23Z</time>
      </trkpt>
      <trkpt lat="43.31274" lon="-0.91488">
        <ele>108.77</ele>
        <time>2021-08-20T11:18:31Z</time>
      </trkpt>
      <trkpt lat="43.31264" lon="-0.91492">
        <ele>110.21</ele>
        <time>2021-08-20T11:18:33Z</time>
      </trkpt>
      <trkpt lat="43.31246" lon="-0.91498">
        <ele>112.61</ele>
        <time>2021-08-20T11:18:38Z</time>
      </trkpt>
      <trkpt lat="43.31226" lon="-0.9151">
        <ele>114.05</ele>
        <time>2021-08-20T11:18:47Z</time>
      </trkpt>
      <trkpt lat="43.31206" lon="-0.9152">
        <ele>115.5</ele>
        <time>2021-08-20T11:18:55Z</time>
      </trkpt>
      <trkpt lat="43.31186" lon="-0.91532">
        <ele>116.46</ele>
        <time>2021-08-20T11:19:03Z</time>
      </trkpt>
      <trkpt lat="43.31162" lon="-0.9155">
        <ele>117.42</ele>
        <time>2021-08-20T11:19:13Z</time>
      </trkpt>
      <trkpt lat="43.31139" lon="-0.91568">
        <ele>117.9</ele>
        <time>2021-08-20T11:19:21Z</time>
      </trkpt>
      <trkpt lat="43.31112" lon="-0.91588">
        <ele>118.38</ele>
        <time>2021-08-20T11:19:29Z</time>
      </trkpt>
      <trkpt lat="43.31102" lon="-0.91596">
        <ele>118.38</ele>
        <time>2021-08-20T11:19:32Z</time>
      </trkpt>
      <trkpt lat="43.31098" lon="-0.91598">
        <ele>118.86</ele>
        <time>2021-08-20T11:19:33Z</time>
      </trkpt>
      <trkpt lat="43.31082" lon="-0.91609">
        <ele>118.38</ele>
        <time>2021-08-20T11:19:37Z</time>
      </trkpt>
      <trkpt lat="43.31069" lon="-0.91617">
        <ele>117.42</ele>
        <time>2021-08-20T11:19:40Z</time>
      </trkpt>
      <trkpt lat="43.31026" lon="-0.91638">
        <ele>116.46</ele>
        <time>2021-08-20T11:19:48Z</time>
      </trkpt>
      <trkpt lat="43.31014" lon="-0.91644">
        <ele>115.5</ele>
        <time>2021-08-20T11:19:50Z</time>
      </trkpt>
      <trkpt lat="43.3096" lon="-0.91667">
        <ele>113.09</ele>
        <time>2021-08-20T11:19:58Z</time>
      </trkpt>
      <trkpt lat="43.30926" lon="-0.91683">
        <ele>115.5</ele>
        <time>2021-08-20T11:20:04Z</time>
      </trkpt>
      <trkpt lat="43.30917" lon="-0.91689">
        <ele>115.98</ele>
        <time>2021-08-20T11:20:06Z</time>
      </trkpt>
      <trkpt lat="43.30913" lon="-0.9169">
        <ele>116.46</ele>
        <time>2021-08-20T11:20:07Z</time>
      </trkpt>
      <trkpt lat="43.30909" lon="-0.91692">
        <ele>116.46</ele>
        <time>2021-08-20T11:20:08Z</time>
      </trkpt>
      <trkpt lat="43.30906" lon="-0.91694">
        <ele>116.46</ele>
        <time>2021-08-20T11:20:09Z</time>
      </trkpt>
      <trkpt lat="43.30902" lon="-0.91696">
        <ele>117.42</ele>
        <time>2021-08-20T11:20:10Z</time>
      </trkpt>
      <trkpt lat="43.3088" lon="-0.91712">
        <ele>117.9</ele>
        <time>2021-08-20T11:20:17Z</time>
      </trkpt>
      <trkpt lat="43.30864" lon="-0.91724">
        <ele>117.9</ele>
        <time>2021-08-20T11:20:22Z</time>
      </trkpt>
      <trkpt lat="43.3086" lon="-0.91726">
        <ele>117.9</ele>
        <time>2021-08-20T11:20:23Z</time>
      </trkpt>
      <trkpt lat="43.30836" lon="-0.91747">
        <ele>118.38</ele>
        <time>2021-08-20T11:20:30Z</time>
      </trkpt>
      <trkpt lat="43.30832" lon="-0.9175">
        <ele>118.86</ele>
        <time>2021-08-20T11:20:31Z</time>
      </trkpt>
      <trkpt lat="43.30828" lon="-0.91753">
        <ele>118.86</ele>
        <time>2021-08-20T11:20:32Z</time>
      </trkpt>
      <trkpt lat="43.30798" lon="-0.9178">
        <ele>118.86</ele>
        <time>2021-08-20T11:20:40Z</time>
      </trkpt>
      <trkpt lat="43.30784" lon="-0.91798">
        <ele>118.86</ele>
        <time>2021-08-20T11:20:44Z</time>
      </trkpt>
      <trkpt lat="43.30781" lon="-0.91803">
        <ele>118.86</ele>
        <time>2021-08-20T11:20:45Z</time>
      </trkpt>
      <trkpt lat="43.30749" lon="-0.91864">
        <ele>118.86</ele>
        <time>2021-08-20T11:20:56Z</time>
      </trkpt>
      <trkpt lat="43.30731" lon="-0.9191">
        <ele>119.34</ele>
        <time>2021-08-20T11:21:04Z</time>
      </trkpt>
      <trkpt lat="43.30713" lon="-0.91967">
        <ele>118.86</ele>
        <time>2021-08-20T11:21:13Z</time>
      </trkpt>
      <trkpt lat="43.30692" lon="-0.9203">
        <ele>118.86</ele>
        <time>2021-08-20T11:21:22Z</time>
      </trkpt>
      <trkpt lat="43.3067" lon="-0.92097">
        <ele>118.86</ele>
        <time>2021-08-20T11:21:31Z</time>
      </trkpt>
      <trkpt lat="43.3066" lon="-0.92123">
        <ele>118.86</ele>
        <time>2021-08-20T11:21:35Z</time>
      </trkpt>
      <trkpt lat="43.30657" lon="-0.92129">
        <ele>118.86</ele>
        <time>2021-08-20T11:21:36Z</time>
      </trkpt>
      <trkpt lat="43.3063" lon="-0.92182">
        <ele>116.94</ele>
        <time>2021-08-20T11:21:44Z</time>
      </trkpt>
      <trkpt lat="43.30608" lon="-0.92225">
        <ele>116.46</ele>
        <time>2021-08-20T11:21:51Z</time>
      </trkpt>
      <trkpt lat="43.30605" lon="-0.9223">
        <ele>117.9</ele>
        <time>2021-08-20T11:21:52Z</time>
      </trkpt>
      <trkpt lat="43.30601" lon="-0.92237">
        <ele>118.38</ele>
        <time>2021-08-20T11:21:53Z</time>
      </trkpt>
      <trkpt lat="43.30599" lon="-0.9224">
        <ele>118.38</ele>
        <time>2021-08-20T11:21:54Z</time>
      </trkpt>
      <trkpt lat="43.30596" lon="-0.92244">
        <ele>118.38</ele>
        <time>2021-08-20T11:21:55Z</time>
      </trkpt>
      <trkpt lat="43.30584" lon="-0.92257">
        <ele>118.38</ele>
        <time>2021-08-20T11:21:58Z</time>
      </trkpt>
      <trkpt lat="43.30556" lon="-0.92281">
        <ele>116.94</ele>
        <time>2021-08-20T11:22:04Z</time>
      </trkpt>
      <trkpt lat="43.30508" lon="-0.92317">
        <ele>115.5</ele>
        <time>2021-08-20T11:22:13Z</time>
      </trkpt>
      <trkpt lat="43.30474" lon="-0.92335">
        <ele>116.94</ele>
        <time>2021-08-20T11:22:20Z</time>
      </trkpt>
      <trkpt lat="43.30471" lon="-0.92337">
        <ele>116.94</ele>
        <time>2021-08-20T11:22:21Z</time>
      </trkpt>
      <trkpt lat="43.30439" lon="-0.92347">
        <ele>115.98</ele>
        <time>2021-08-20T11:22:28Z</time>
      </trkpt>
      <trkpt lat="43.30425" lon="-0.92351">
        <ele>114.53</ele>
        <time>2021-08-20T11:22:30Z</time>
      </trkpt>
      <trkpt lat="43.30404" lon="-0.92356">
        <ele>112.61</ele>
        <time>2021-08-20T11:22:33Z</time>
      </trkpt>
      <trkpt lat="43.30396" lon="-0.92356">
        <ele>112.61</ele>
        <time>2021-08-20T11:22:34Z</time>
      </trkpt>
      <trkpt lat="43.3039" lon="-0.92355">
        <ele>112.61</ele>
        <time>2021-08-20T11:22:35Z</time>
      </trkpt>
      <trkpt lat="43.30383" lon="-0.92352">
        <ele>112.61</ele>
        <time>2021-08-20T11:22:36Z</time>
      </trkpt>
      <trkpt lat="43.30378" lon="-0.92349">
        <ele>112.61</ele>
        <time>2021-08-20T11:22:37Z</time>
      </trkpt>
      <trkpt lat="43.30372" lon="-0.92344">
        <ele>112.61</ele>
        <time>2021-08-20T11:22:38Z</time>
      </trkpt>
      <trkpt lat="43.30368" lon="-0.9234">
        <ele>112.61</ele>
        <time>2021-08-20T11:22:39Z</time>
      </trkpt>
      <trkpt lat="43.30363" lon="-0.92336">
        <ele>112.61</ele>
        <time>2021-08-20T11:22:40Z</time>
      </trkpt>
      <trkpt lat="43.3035" lon="-0.92325">
        <ele>113.57</ele>
        <time>2021-08-20T11:22:43Z</time>
      </trkpt>
      <trkpt lat="43.30347" lon="-0.92322">
        <ele>114.53</ele>
        <time>2021-08-20T11:22:44Z</time>
      </trkpt>
      <trkpt lat="43.30344" lon="-0.92319">
        <ele>115.01</ele>
        <time>2021-08-20T11:22:45Z</time>
      </trkpt>
      <trkpt lat="43.30341" lon="-0.92317">
        <ele>115.01</ele>
        <time>2021-08-20T11:22:46Z</time>
      </trkpt>
      <trkpt lat="43.30324" lon="-0.92307">
        <ele>116.94</ele>
        <time>2021-08-20T11:22:54Z</time>
      </trkpt>
      <trkpt lat="43.303" lon="-0.92298">
        <ele>116.94</ele>
        <time>2021-08-20T11:23:01Z</time>
      </trkpt>
      <trkpt lat="43.3029" lon="-0.92295">
        <ele>115.5</ele>
        <time>2021-08-20T11:23:03Z</time>
      </trkpt>
      <trkpt lat="43.30252" lon="-0.92287">
        <ele>115.5</ele>
        <time>2021-08-20T11:23:11Z</time>
      </trkpt>
      <trkpt lat="43.30248" lon="-0.92287">
        <ele>115.5</ele>
        <time>2021-08-20T11:23:12Z</time>
      </trkpt>
      <trkpt lat="43.30234" lon="-0.92287">
        <ele>116.46</ele>
        <time>2021-08-20T11:23:15Z</time>
      </trkpt>
      <trkpt lat="43.30189" lon="-0.9229">
        <ele>116.94</ele>
        <time>2021-08-20T11:23:25Z</time>
      </trkpt>
      <trkpt lat="43.30164" lon="-0.92295">
        <ele>118.86</ele>
        <time>2021-08-20T11:23:33Z</time>
      </trkpt>
      <trkpt lat="43.30145" lon="-0.92301">
        <ele>121.26</ele>
        <time>2021-08-20T11:23:42Z</time>
      </trkpt>
      <trkpt lat="43.30117" lon="-0.92316">
        <ele>122.22</ele>
        <time>2021-08-20T11:23:52Z</time>
      </trkpt>
      <trkpt lat="43.30098" lon="-0.92325">
        <ele>122.22</ele>
        <time>2021-08-20T11:23:57Z</time>
      </trkpt>
      <trkpt lat="43.30094" lon="-0.92326">
        <ele>122.22</ele>
        <time>2021-08-20T11:23:58Z</time>
      </trkpt>
      <trkpt lat="43.30055" lon="-0.92334">
        <ele>122.22</ele>
        <time>2021-08-20T11:24:07Z</time>
      </trkpt>
      <trkpt lat="43.30032" lon="-0.92338">
        <ele>122.71</ele>
        <time>2021-08-20T11:24:13Z</time>
      </trkpt>
      <trkpt lat="43.30028" lon="-0.92338">
        <ele>122.71</ele>
        <time>2021-08-20T11:24:14Z</time>
      </trkpt>
      <trkpt lat="43.30023" lon="-0.92337">
        <ele>122.71</ele>
        <time>2021-08-20T11:24:15Z</time>
      </trkpt>
      <trkpt lat="43.30019" lon="-0.92337">
        <ele>123.19</ele>
        <time>2021-08-20T11:24:16Z</time>
      </trkpt>
      <trkpt lat="43.30015" lon="-0.92338">
        <ele>123.19</ele>
        <time>2021-08-20T11:24:17Z</time>
      </trkpt>
      <trkpt lat="43.30011" lon="-0.92338">
        <ele>123.19</ele>
        <time>2021-08-20T11:24:18Z</time>
      </trkpt>
      <trkpt lat="43.30007" lon="-0.9234">
        <ele>123.67</ele>
        <time>2021-08-20T11:24:19Z</time>
      </trkpt>
      <trkpt lat="43.29981" lon="-0.92347">
        <ele>124.15</ele>
        <time>2021-08-20T11:24:27Z</time>
      </trkpt>
      <trkpt lat="43.29952" lon="-0.92361">
        <ele>125.11</ele>
        <time>2021-08-20T11:24:36Z</time>
      </trkpt>
      <trkpt lat="43.29929" lon="-0.9238">
        <ele>125.59</ele>
        <time>2021-08-20T11:24:43Z</time>
      </trkpt>
      <trkpt lat="43.29909" lon="-0.92394">
        <ele>123.67</ele>
        <time>2021-08-20T11:24:47Z</time>
      </trkpt>
      <trkpt lat="43.29897" lon="-0.924">
        <ele>122.71</ele>
        <time>2021-08-20T11:24:49Z</time>
      </trkpt>
      <trkpt lat="43.29891" lon="-0.924">
        <ele>122.71</ele>
        <time>2021-08-20T11:24:50Z</time>
      </trkpt>
      <trkpt lat="43.29885" lon="-0.92398">
        <ele>122.71</ele>
        <time>2021-08-20T11:24:51Z</time>
      </trkpt>
      <trkpt lat="43.29879" lon="-0.92395">
        <ele>122.22</ele>
        <time>2021-08-20T11:24:52Z</time>
      </trkpt>
      <trkpt lat="43.29874" lon="-0.92392">
        <ele>122.22</ele>
        <time>2021-08-20T11:24:53Z</time>
      </trkpt>
      <trkpt lat="43.2987" lon="-0.92389">
        <ele>122.22</ele>
        <time>2021-08-20T11:24:54Z</time>
      </trkpt>
      <trkpt lat="43.29857" lon="-0.92378">
        <ele>124.15</ele>
        <time>2021-08-20T11:24:58Z</time>
      </trkpt>
      <trkpt lat="43.29839" lon="-0.92368">
        <ele>126.07</ele>
        <time>2021-08-20T11:25:05Z</time>
      </trkpt>
      <trkpt lat="43.29819" lon="-0.92364">
        <ele>126.55</ele>
        <time>2021-08-20T11:25:12Z</time>
      </trkpt>
      <trkpt lat="43.29786" lon="-0.92366">
        <ele>127.51</ele>
        <time>2021-08-20T11:25:22Z</time>
      </trkpt>
      <trkpt lat="43.29765" lon="-0.92377">
        <ele>127.99</ele>
        <time>2021-08-20T11:25:29Z</time>
      </trkpt>
      <trkpt lat="43.29766" lon="-0.92379">
        <ele>127.99</ele>
        <time>2021-08-20T11:25:30Z</time>
      </trkpt>
      <trkpt lat="43.29767" lon="-0.9238">
        <ele>128.47</ele>
        <time>2021-08-20T11:25:31Z</time>
      </trkpt>
      <trkpt lat="43.29768" lon="-0.92383">
        <ele>128.47</ele>
        <time>2021-08-20T11:25:32Z</time>
      </trkpt>
      <trkpt lat="43.29768" lon="-0.92384">
        <ele>128.47</ele>
        <time>2021-08-20T11:25:33Z</time>
      </trkpt>
      <trkpt lat="43.29768" lon="-0.92386">
        <ele>128.47</ele>
        <time>2021-08-20T11:25:34Z</time>
      </trkpt>
      <trkpt lat="43.29768" lon="-0.92387">
        <ele>128.47</ele>
        <time>2021-08-20T11:25:35Z</time>
      </trkpt>
      <trkpt lat="43.29768" lon="-0.92389">
        <ele>128.95</ele>
        <time>2021-08-20T11:25:36Z</time>
      </trkpt>
      <trkpt lat="43.29767" lon="-0.92401">
        <ele>129.92</ele>
        <time>2021-08-20T11:25:47Z</time>
      </trkpt>
      <trkpt lat="43.29766" lon="-0.92411">
        <ele>130.88</ele>
        <time>2021-08-20T11:25:57Z</time>
      </trkpt>
      <trkpt lat="43.29766" lon="-0.9242">
        <ele>131.84</ele>
        <time>2021-08-20T11:26:06Z</time>
      </trkpt>
      <trkpt lat="43.29765" lon="-0.92427">
        <ele>132.8</ele>
        <time>2021-08-20T11:26:14Z</time>
      </trkpt>
      <trkpt lat="43.29765" lon="-0.92434">
        <ele>134.72</ele>
        <time>2021-08-20T11:26:24Z</time>
      </trkpt>
      <trkpt lat="43.29765" lon="-0.92442">
        <ele>135.68</ele>
        <time>2021-08-20T11:26:33Z</time>
      </trkpt>
      <trkpt lat="43.29765" lon="-0.9245">
        <ele>136.64</ele>
        <time>2021-08-20T11:26:41Z</time>
      </trkpt>
      <trkpt lat="43.29765" lon="-0.92458">
        <ele>138.09</ele>
        <time>2021-08-20T11:26:48Z</time>
      </trkpt>
      <trkpt lat="43.29761" lon="-0.92465">
        <ele>139.05</ele>
        <time>2021-08-20T11:26:54Z</time>
      </trkpt>
      <trkpt lat="43.29756" lon="-0.92474">
        <ele>139.53</ele>
        <time>2021-08-20T11:27:02Z</time>
      </trkpt>
      <trkpt lat="43.29751" lon="-0.92482">
        <ele>140.01</ele>
        <time>2021-08-20T11:27:10Z</time>
      </trkpt>
      <trkpt lat="43.2975" lon="-0.92483">
        <ele>140.49</ele>
        <time>2021-08-20T11:27:18Z</time>
      </trkpt>
      <trkpt lat="43.29748" lon="-0.92485">
        <ele>140.49</ele>
        <time>2021-08-20T11:27:34Z</time>
      </trkpt>
      <trkpt lat="43.2975" lon="-0.92485">
        <ele>140.49</ele>
        <time>2021-08-20T11:27:50Z</time>
      </trkpt>
      <trkpt lat="43.29749" lon="-0.92483">
        <ele>140.49</ele>
        <time>2021-08-20T11:28:06Z</time>
      </trkpt>
      <trkpt lat="43.29751" lon="-0.92485">
        <ele>140.49</ele>
        <time>2021-08-20T11:28:33Z</time>
      </trkpt>
      <trkpt lat="43.29754" lon="-0.92483">
        <ele>140.97</ele>
        <time>2021-08-20T11:28:57Z</time>
      </trkpt>
      <trkpt lat="43.29754" lon="-0.92483">
        <ele>140.97</ele>
        <time>2021-08-20T11:29:19Z</time>
      </trkpt>
      <trkpt lat="43.29753" lon="-0.92483">
        <ele>140.97</ele>
        <time>2021-08-20T11:29:43Z</time>
      </trkpt>
      <trkpt lat="43.29755" lon="-0.92482">
        <ele>140.49</ele>
        <time>2021-08-20T11:30:03Z</time>
      </trkpt>
      <trkpt lat="43.29753" lon="-0.92483">
        <ele>140.49</ele>
        <time>2021-08-20T11:30:17Z</time>
      </trkpt>
      <trkpt lat="43.29752" lon="-0.92486">
        <ele>140.49</ele>
        <time>2021-08-20T11:30:46Z</time>
      </trkpt>
      <trkpt lat="43.29751" lon="-0.92482">
        <ele>140.49</ele>
        <time>2021-08-20T11:31:12Z</time>
      </trkpt>
      <trkpt lat="43.29751" lon="-0.92483">
        <ele>140.49</ele>
        <time>2021-08-20T11:31:34Z</time>
      </trkpt>
      <trkpt lat="43.29752" lon="-0.92481">
        <ele>140.49</ele>
        <time>2021-08-20T11:31:48Z</time>
      </trkpt>
      <trkpt lat="43.29752" lon="-0.92482">
        <ele>140.49</ele>
        <time>2021-08-20T11:32:00Z</time>
      </trkpt>
      <trkpt lat="43.2975" lon="-0.92484">
        <ele>140.49</ele>
        <time>2021-08-20T11:32:20Z</time>
      </trkpt>
      <trkpt lat="43.29749" lon="-0.92479">
        <ele>140.49</ele>
        <time>2021-08-20T11:32:44Z</time>
      </trkpt>
      <trkpt lat="43.2975" lon="-0.92483">
        <ele>140.49</ele>
        <time>2021-08-20T11:33:11Z</time>
      </trkpt>
      <trkpt lat="43.2975" lon="-0.92482">
        <ele>140.49</ele>
        <time>2021-08-20T11:33:36Z</time>
      </trkpt>
      <trkpt lat="43.29751" lon="-0.92483">
        <ele>140.49</ele>
        <time>2021-08-20T11:33:59Z</time>
      </trkpt>
      <trkpt lat="43.29751" lon="-0.92484">
        <ele>140.49</ele>
        <time>2021-08-20T11:34:22Z</time>
      </trkpt>
      <trkpt lat="43.29751" lon="-0.92484">
        <ele>140.49</ele>
        <time>2021-08-20T11:34:41Z</time>
      </trkpt>
      <trkpt lat="43.29751" lon="-0.92486">
        <ele>140.97</ele>
        <time>2021-08-20T11:34:57Z</time>
      </trkpt>
      <trkpt lat="43.29748" lon="-0.92487">
        <ele>140.97</ele>
        <time>2021-08-20T11:35:15Z</time>
      </trkpt>
      <trkpt lat="43.29747" lon="-0.92486">
        <ele>140.97</ele>
        <time>2021-08-20T11:35:26Z</time>
      </trkpt>
      <trkpt lat="43.29746" lon="-0.92487">
        <ele>140.97</ele>
        <time>2021-08-20T11:35:28Z</time>
      </trkpt>
      <trkpt lat="43.2974" lon="-0.92496">
        <ele>141.45</ele>
        <time>2021-08-20T11:35:34Z</time>
      </trkpt>
      <trkpt lat="43.29739" lon="-0.92498">
        <ele>141.45</ele>
        <time>2021-08-20T11:35:35Z</time>
      </trkpt>
      <trkpt lat="43.29738" lon="-0.92499">
        <ele>141.93</ele>
        <time>2021-08-20T11:35:36Z</time>
      </trkpt>
      <trkpt lat="43.29732" lon="-0.9251">
        <ele>143.37</ele>
        <time>2021-08-20T11:35:44Z</time>
      </trkpt>
      <trkpt lat="43.29726" lon="-0.9252">
        <ele>144.34</ele>
        <time>2021-08-20T11:35:51Z</time>
      </trkpt>
      <trkpt lat="43.29718" lon="-0.92531">
        <ele>145.78</ele>
        <time>2021-08-20T11:35:58Z</time>
      </trkpt>
      <trkpt lat="43.29717" lon="-0.92532">
        <ele>145.78</ele>
        <time>2021-08-20T11:35:59Z</time>
      </trkpt>
      <trkpt lat="43.29716" lon="-0.92534">
        <ele>145.78</ele>
        <time>2021-08-20T11:36:00Z</time>
      </trkpt>
      <trkpt lat="43.29715" lon="-0.92535">
        <ele>145.78</ele>
        <time>2021-08-20T11:36:01Z</time>
      </trkpt>
      <trkpt lat="43.29714" lon="-0.92536">
        <ele>146.26</ele>
        <time>2021-08-20T11:36:02Z</time>
      </trkpt>
      <trkpt lat="43.29714" lon="-0.92537">
        <ele>146.26</ele>
        <time>2021-08-20T11:36:03Z</time>
      </trkpt>
      <trkpt lat="43.29706" lon="-0.92552">
        <ele>147.22</ele>
        <time>2021-08-20T11:36:11Z</time>
      </trkpt>
      <trkpt lat="43.29695" lon="-0.92568">
        <ele>149.14</ele>
        <time>2021-08-20T11:36:20Z</time>
      </trkpt>
      <trkpt lat="43.29686" lon="-0.92583">
        <ele>149.62</ele>
        <time>2021-08-20T11:36:28Z</time>
      </trkpt>
      <trkpt lat="43.29677" lon="-0.92599">
        <ele>150.58</ele>
        <time>2021-08-20T11:36:36Z</time>
      </trkpt>
      <trkpt lat="43.29673" lon="-0.92608">
        <ele>151.06</ele>
        <time>2021-08-20T11:36:40Z</time>
      </trkpt>
      <trkpt lat="43.29672" lon="-0.9261">
        <ele>151.54</ele>
        <time>2021-08-20T11:36:41Z</time>
      </trkpt>
      <trkpt lat="43.29671" lon="-0.92612">
        <ele>151.54</ele>
        <time>2021-08-20T11:36:42Z</time>
      </trkpt>
      <trkpt lat="43.2967" lon="-0.92614">
        <ele>152.03</ele>
        <time>2021-08-20T11:36:43Z</time>
      </trkpt>
      <trkpt lat="43.29668" lon="-0.92616">
        <ele>152.03</ele>
        <time>2021-08-20T11:36:44Z</time>
      </trkpt>
      <trkpt lat="43.29668" lon="-0.92618">
        <ele>152.03</ele>
        <time>2021-08-20T11:36:45Z</time>
      </trkpt>
      <trkpt lat="43.29667" lon="-0.9262">
        <ele>152.51</ele>
        <time>2021-08-20T11:36:46Z</time>
      </trkpt>
      <trkpt lat="43.29666" lon="-0.92622">
        <ele>152.51</ele>
        <time>2021-08-20T11:36:47Z</time>
      </trkpt>
      <trkpt lat="43.29665" lon="-0.92624">
        <ele>152.99</ele>
        <time>2021-08-20T11:36:48Z</time>
      </trkpt>
      <trkpt lat="43.29664" lon="-0.92626">
        <ele>152.99</ele>
        <time>2021-08-20T11:36:49Z</time>
      </trkpt>
      <trkpt lat="43.29662" lon="-0.92628">
        <ele>152.99</ele>
        <time>2021-08-20T11:36:50Z</time>
      </trkpt>
      <trkpt lat="43.29661" lon="-0.92629">
        <ele>153.47</ele>
        <time>2021-08-20T11:36:51Z</time>
      </trkpt>
      <trkpt lat="43.2966" lon="-0.92631">
        <ele>153.47</ele>
        <time>2021-08-20T11:36:52Z</time>
      </trkpt>
      <trkpt lat="43.29656" lon="-0.92638">
        <ele>154.43</ele>
        <time>2021-08-20T11:36:59Z</time>
      </trkpt>
      <trkpt lat="43.29652" lon="-0.92647">
        <ele>155.39</ele>
        <time>2021-08-20T11:37:07Z</time>
      </trkpt>
      <trkpt lat="43.2965" lon="-0.92651">
        <ele>156.35</ele>
        <time>2021-08-20T11:37:11Z</time>
      </trkpt>
      <trkpt lat="43.29643" lon="-0.92664">
        <ele>157.79</ele>
        <time>2021-08-20T11:37:23Z</time>
      </trkpt>
      <trkpt lat="43.29641" lon="-0.92667">
        <ele>158.27</ele>
        <time>2021-08-20T11:37:26Z</time>
      </trkpt>
      <trkpt lat="43.29639" lon="-0.9267">
        <ele>158.27</ele>
        <time>2021-08-20T11:37:29Z</time>
      </trkpt>
      <trkpt lat="43.29634" lon="-0.92683">
        <ele>160.2</ele>
        <time>2021-08-20T11:37:39Z</time>
      </trkpt>
      <trkpt lat="43.29628" lon="-0.92696">
        <ele>161.16</ele>
        <time>2021-08-20T11:37:49Z</time>
      </trkpt>
      <trkpt lat="43.29623" lon="-0.9271">
        <ele>162.6</ele>
        <time>2021-08-20T11:37:59Z</time>
      </trkpt>
      <trkpt lat="43.29618" lon="-0.92723">
        <ele>164.04</ele>
        <time>2021-08-20T11:38:09Z</time>
      </trkpt>
      <trkpt lat="43.29613" lon="-0.92735">
        <ele>165</ele>
        <time>2021-08-20T11:38:18Z</time>
      </trkpt>
      <trkpt lat="43.29606" lon="-0.92751">
        <ele>165.96</ele>
        <time>2021-08-20T11:38:29Z</time>
      </trkpt>
      <trkpt lat="43.29604" lon="-0.92756">
        <ele>166.45</ele>
        <time>2021-08-20T11:38:33Z</time>
      </trkpt>
      <trkpt lat="43.29603" lon="-0.92757">
        <ele>166.45</ele>
        <time>2021-08-20T11:38:34Z</time>
      </trkpt>
      <trkpt lat="43.29602" lon="-0.92759">
        <ele>166.45</ele>
        <time>2021-08-20T11:38:35Z</time>
      </trkpt>
      <trkpt lat="43.29602" lon="-0.9276">
        <ele>166.45</ele>
        <time>2021-08-20T11:38:36Z</time>
      </trkpt>
      <trkpt lat="43.29601" lon="-0.92761">
        <ele>167.41</ele>
        <time>2021-08-20T11:38:37Z</time>
      </trkpt>
      <trkpt lat="43.296" lon="-0.92763">
        <ele>167.41</ele>
        <time>2021-08-20T11:38:38Z</time>
      </trkpt>
      <trkpt lat="43.29592" lon="-0.92774">
        <ele>168.37</ele>
        <time>2021-08-20T11:38:48Z</time>
      </trkpt>
      <trkpt lat="43.29584" lon="-0.92781">
        <ele>169.33</ele>
        <time>2021-08-20T11:38:58Z</time>
      </trkpt>
      <trkpt lat="43.29576" lon="-0.92788">
        <ele>171.25</ele>
        <time>2021-08-20T11:39:08Z</time>
      </trkpt>
      <trkpt lat="43.29568" lon="-0.92793">
        <ele>171.73</ele>
        <time>2021-08-20T11:39:17Z</time>
      </trkpt>
      <trkpt lat="43.29562" lon="-0.92798">
        <ele>173.17</ele>
        <time>2021-08-20T11:39:26Z</time>
      </trkpt>
      <trkpt lat="43.29554" lon="-0.92804">
        <ele>174.14</ele>
        <time>2021-08-20T11:39:35Z</time>
      </trkpt>
      <trkpt lat="43.29543" lon="-0.92813">
        <ele>175.58</ele>
        <time>2021-08-20T11:39:47Z</time>
      </trkpt>
      <trkpt lat="43.29534" lon="-0.9282">
        <ele>176.54</ele>
        <time>2021-08-20T11:39:56Z</time>
      </trkpt>
      <trkpt lat="43.29523" lon="-0.92828">
        <ele>178.46</ele>
        <time>2021-08-20T11:40:07Z</time>
      </trkpt>
      <trkpt lat="43.29513" lon="-0.92835">
        <ele>179.9</ele>
        <time>2021-08-20T11:40:18Z</time>
      </trkpt>
      <trkpt lat="43.29503" lon="-0.92842">
        <ele>181.83</ele>
        <time>2021-08-20T11:40:28Z</time>
      </trkpt>
      <trkpt lat="43.29492" lon="-0.92848">
        <ele>183.27</ele>
        <time>2021-08-20T11:40:38Z</time>
      </trkpt>
      <trkpt lat="43.29481" lon="-0.92855">
        <ele>184.23</ele>
        <time>2021-08-20T11:40:48Z</time>
      </trkpt>
      <trkpt lat="43.29475" lon="-0.92861">
        <ele>185.19</ele>
        <time>2021-08-20T11:40:57Z</time>
      </trkpt>
      <trkpt lat="43.29472" lon="-0.92865">
        <ele>185.19</ele>
        <time>2021-08-20T11:41:02Z</time>
      </trkpt>
      <trkpt lat="43.29463" lon="-0.92889">
        <ele>186.63</ele>
        <time>2021-08-20T11:41:11Z</time>
      </trkpt>
      <trkpt lat="43.2945" lon="-0.92926">
        <ele>187.11</ele>
        <time>2021-08-20T11:41:22Z</time>
      </trkpt>
      <trkpt lat="43.29437" lon="-0.92963">
        <ele>188.08</ele>
        <time>2021-08-20T11:41:32Z</time>
      </trkpt>
      <trkpt lat="43.29425" lon="-0.93003">
        <ele>193.36</ele>
        <time>2021-08-20T11:41:43Z</time>
      </trkpt>
      <trkpt lat="43.29425" lon="-0.93005">
        <ele>189.52</ele>
        <time>2021-08-20T11:41:44Z</time>
      </trkpt>
      <trkpt lat="43.29423" lon="-0.93009">
        <ele>189.52</ele>
        <time>2021-08-20T11:41:46Z</time>
      </trkpt>
      <trkpt lat="43.29421" lon="-0.9301">
        <ele>189.52</ele>
        <time>2021-08-20T11:41:47Z</time>
      </trkpt>
      <trkpt lat="43.2942" lon="-0.93012">
        <ele>189.52</ele>
        <time>2021-08-20T11:41:48Z</time>
      </trkpt>
      <trkpt lat="43.2942" lon="-0.93014">
        <ele>189.52</ele>
        <time>2021-08-20T11:41:49Z</time>
      </trkpt>
      <trkpt lat="43.2942" lon="-0.93016">
        <ele>190.48</ele>
        <time>2021-08-20T11:41:50Z</time>
      </trkpt>
      <trkpt lat="43.29419" lon="-0.93019">
        <ele>190.48</ele>
        <time>2021-08-20T11:41:51Z</time>
      </trkpt>
      <trkpt lat="43.29419" lon="-0.93021">
        <ele>190.48</ele>
        <time>2021-08-20T11:41:52Z</time>
      </trkpt>
      <trkpt lat="43.2942" lon="-0.93023">
        <ele>190.96</ele>
        <time>2021-08-20T11:41:58Z</time>
      </trkpt>
      <trkpt lat="43.29419" lon="-0.93024">
        <ele>190.96</ele>
        <time>2021-08-20T11:42:04Z</time>
      </trkpt>
      <trkpt lat="43.29419" lon="-0.93026">
        <ele>190.96</ele>
        <time>2021-08-20T11:42:05Z</time>
      </trkpt>
      <trkpt lat="43.29419" lon="-0.93028">
        <ele>190.96</ele>
        <time>2021-08-20T11:42:06Z</time>
      </trkpt>
      <trkpt lat="43.29417" lon="-0.93039">
        <ele>192.4</ele>
        <time>2021-08-20T11:42:14Z</time>
      </trkpt>
      <trkpt lat="43.29415" lon="-0.93051">
        <ele>193.36</ele>
        <time>2021-08-20T11:42:23Z</time>
      </trkpt>
      <trkpt lat="43.29415" lon="-0.93061">
        <ele>194.32</ele>
        <time>2021-08-20T11:42:33Z</time>
      </trkpt>
      <trkpt lat="43.29415" lon="-0.93066">
        <ele>194.8</ele>
        <time>2021-08-20T11:42:44Z</time>
      </trkpt>
      <trkpt lat="43.29415" lon="-0.93081">
        <ele>196.73</ele>
        <time>2021-08-20T11:42:55Z</time>
      </trkpt>
      <trkpt lat="43.29417" lon="-0.93091">
        <ele>197.69</ele>
        <time>2021-08-20T11:43:02Z</time>
      </trkpt>
      <trkpt lat="43.2942" lon="-0.93098">
        <ele>198.17</ele>
        <time>2021-08-20T11:43:08Z</time>
      </trkpt>
      <trkpt lat="43.29421" lon="-0.93099">
        <ele>198.65</ele>
        <time>2021-08-20T11:43:09Z</time>
      </trkpt>
      <trkpt lat="43.29426" lon="-0.93114">
        <ele>200.09</ele>
        <time>2021-08-20T11:43:22Z</time>
      </trkpt>
      <trkpt lat="43.2943" lon="-0.93125">
        <ele>202.49</ele>
        <time>2021-08-20T11:43:34Z</time>
      </trkpt>
      <trkpt lat="43.29433" lon="-0.93132">
        <ele>203.46</ele>
        <time>2021-08-20T11:43:43Z</time>
      </trkpt>
      <trkpt lat="43.29436" lon="-0.93138">
        <ele>204.9</ele>
        <time>2021-08-20T11:43:51Z</time>
      </trkpt>
      <trkpt lat="43.29439" lon="-0.93146">
        <ele>205.86</ele>
        <time>2021-08-20T11:44:00Z</time>
      </trkpt>
      <trkpt lat="43.29441" lon="-0.93154">
        <ele>207.3</ele>
        <time>2021-08-20T11:44:10Z</time>
      </trkpt>
      <trkpt lat="43.29444" lon="-0.93161">
        <ele>209.22</ele>
        <time>2021-08-20T11:44:19Z</time>
      </trkpt>
      <trkpt lat="43.29446" lon="-0.93167">
        <ele>210.67</ele>
        <time>2021-08-20T11:44:27Z</time>
      </trkpt>
      <trkpt lat="43.29449" lon="-0.93175">
        <ele>211.63</ele>
        <time>2021-08-20T11:44:36Z</time>
      </trkpt>
      <trkpt lat="43.29452" lon="-0.93183">
        <ele>212.59</ele>
        <time>2021-08-20T11:44:44Z</time>
      </trkpt>
      <trkpt lat="43.29456" lon="-0.93194">
        <ele>213.55</ele>
        <time>2021-08-20T11:44:53Z</time>
      </trkpt>
      <trkpt lat="43.29461" lon="-0.93208">
        <ele>214.51</ele>
        <time>2021-08-20T11:45:02Z</time>
      </trkpt>
      <trkpt lat="43.29463" lon="-0.93213">
        <ele>214.99</ele>
        <time>2021-08-20T11:45:10Z</time>
      </trkpt>
      <trkpt lat="43.29463" lon="-0.93214">
        <ele>214.99</ele>
        <time>2021-08-20T11:45:26Z</time>
      </trkpt>
      <trkpt lat="43.29466" lon="-0.9322">
        <ele>214.99</ele>
        <time>2021-08-20T11:45:33Z</time>
      </trkpt>
      <trkpt lat="43.2947" lon="-0.9323">
        <ele>215.47</ele>
        <time>2021-08-20T11:45:38Z</time>
      </trkpt>
      <trkpt lat="43.29478" lon="-0.93253">
        <ele>215.47</ele>
        <time>2021-08-20T11:45:46Z</time>
      </trkpt>
      <trkpt lat="43.29483" lon="-0.93268">
        <ele>213.55</ele>
        <time>2021-08-20T11:45:49Z</time>
      </trkpt>
      <trkpt lat="43.29497" lon="-0.93308">
        <ele>210.67</ele>
        <time>2021-08-20T11:45:54Z</time>
      </trkpt>
      <trkpt lat="43.29507" lon="-0.93339">
        <ele>206.82</ele>
        <time>2021-08-20T11:45:57Z</time>
      </trkpt>
      <trkpt lat="43.29511" lon="-0.93351">
        <ele>206.82</ele>
        <time>2021-08-20T11:45:58Z</time>
      </trkpt>
      <trkpt lat="43.29532" lon="-0.93411">
        <ele>205.86</ele>
        <time>2021-08-20T11:46:04Z</time>
      </trkpt>
      <trkpt lat="43.29535" lon="-0.93419">
        <ele>207.3</ele>
        <time>2021-08-20T11:46:05Z</time>
      </trkpt>
      <trkpt lat="43.29536" lon="-0.93427">
        <ele>207.3</ele>
        <time>2021-08-20T11:46:06Z</time>
      </trkpt>
      <trkpt lat="43.29542" lon="-0.93465">
        <ele>208.26</ele>
        <time>2021-08-20T11:46:12Z</time>
      </trkpt>
      <trkpt lat="43.29545" lon="-0.93496">
        <ele>210.67</ele>
        <time>2021-08-20T11:46:20Z</time>
      </trkpt>
      <trkpt lat="43.29545" lon="-0.9351">
        <ele>211.63</ele>
        <time>2021-08-20T11:46:26Z</time>
      </trkpt>
      <trkpt lat="43.29544" lon="-0.93512">
        <ele>212.11</ele>
        <time>2021-08-20T11:46:27Z</time>
      </trkpt>
      <trkpt lat="43.29544" lon="-0.93514">
        <ele>212.11</ele>
        <time>2021-08-20T11:46:28Z</time>
      </trkpt>
      <trkpt lat="43.29544" lon="-0.93517">
        <ele>212.11</ele>
        <time>2021-08-20T11:46:29Z</time>
      </trkpt>
      <trkpt lat="43.29544" lon="-0.93519">
        <ele>212.59</ele>
        <time>2021-08-20T11:46:30Z</time>
      </trkpt>
      <trkpt lat="43.29545" lon="-0.93522">
        <ele>212.59</ele>
        <time>2021-08-20T11:46:31Z</time>
      </trkpt>
      <trkpt lat="43.29544" lon="-0.93549">
        <ele>214.99</ele>
        <time>2021-08-20T11:46:40Z</time>
      </trkpt>
      <trkpt lat="43.2954" lon="-0.93582">
        <ele>213.07</ele>
        <time>2021-08-20T11:46:49Z</time>
      </trkpt>
      <trkpt lat="43.2954" lon="-0.93586">
        <ele>221.72</ele>
        <time>2021-08-20T11:46:50Z</time>
      </trkpt>
      <trkpt lat="43.29539" lon="-0.9359">
        <ele>215.95</ele>
        <time>2021-08-20T11:46:51Z</time>
      </trkpt>
      <trkpt lat="43.29529" lon="-0.93616">
        <ele>214.99</ele>
        <time>2021-08-20T11:46:57Z</time>
      </trkpt>
      <trkpt lat="43.29527" lon="-0.93622">
        <ele>214.51</ele>
        <time>2021-08-20T11:46:58Z</time>
      </trkpt>
      <trkpt lat="43.29522" lon="-0.93635">
        <ele>213.07</ele>
        <time>2021-08-20T11:47:00Z</time>
      </trkpt>
      <trkpt lat="43.29505" lon="-0.93668">
        <ele>210.19</ele>
        <time>2021-08-20T11:47:04Z</time>
      </trkpt>
      <trkpt lat="43.29491" lon="-0.93696">
        <ele>206.82</ele>
        <time>2021-08-20T11:47:07Z</time>
      </trkpt>
      <trkpt lat="43.29477" lon="-0.93727">
        <ele>203.46</ele>
        <time>2021-08-20T11:47:10Z</time>
      </trkpt>
      <trkpt lat="43.29455" lon="-0.93771">
        <ele>200.57</ele>
        <time>2021-08-20T11:47:14Z</time>
      </trkpt>
      <trkpt lat="43.29438" lon="-0.93804">
        <ele>199.13</ele>
        <time>2021-08-20T11:47:17Z</time>
      </trkpt>
      <trkpt lat="43.29415" lon="-0.93853">
        <ele>198.17</ele>
        <time>2021-08-20T11:47:22Z</time>
      </trkpt>
      <trkpt lat="43.29413" lon="-0.93862">
        <ele>198.17</ele>
        <time>2021-08-20T11:47:23Z</time>
      </trkpt>
      <trkpt lat="43.29414" lon="-0.93872">
        <ele>198.17</ele>
        <time>2021-08-20T11:47:24Z</time>
      </trkpt>
      <trkpt lat="43.29416" lon="-0.93881">
        <ele>197.69</ele>
        <time>2021-08-20T11:47:25Z</time>
      </trkpt>
      <trkpt lat="43.29418" lon="-0.93889">
        <ele>197.69</ele>
        <time>2021-08-20T11:47:26Z</time>
      </trkpt>
      <trkpt lat="43.2943" lon="-0.93945">
        <ele>198.17</ele>
        <time>2021-08-20T11:47:34Z</time>
      </trkpt>
      <trkpt lat="43.29439" lon="-0.93988">
        <ele>194.8</ele>
        <time>2021-08-20T11:47:39Z</time>
      </trkpt>
      <trkpt lat="43.29448" lon="-0.94026">
        <ele>192.4</ele>
        <time>2021-08-20T11:47:43Z</time>
      </trkpt>
      <trkpt lat="43.29451" lon="-0.94032">
        <ele>192.4</ele>
        <time>2021-08-20T11:47:44Z</time>
      </trkpt>
      <trkpt lat="43.29455" lon="-0.94037">
        <ele>192.4</ele>
        <time>2021-08-20T11:47:45Z</time>
      </trkpt>
      <trkpt lat="43.29459" lon="-0.94041">
        <ele>191.92</ele>
        <time>2021-08-20T11:47:46Z</time>
      </trkpt>
      <trkpt lat="43.29464" lon="-0.94045">
        <ele>191.92</ele>
        <time>2021-08-20T11:47:47Z</time>
      </trkpt>
      <trkpt lat="43.2947" lon="-0.94048">
        <ele>191.44</ele>
        <time>2021-08-20T11:47:48Z</time>
      </trkpt>
      <trkpt lat="43.29482" lon="-0.94054">
        <ele>190</ele>
        <time>2021-08-20T11:47:50Z</time>
      </trkpt>
      <trkpt lat="43.295" lon="-0.94063">
        <ele>187.11</ele>
        <time>2021-08-20T11:47:53Z</time>
      </trkpt>
      <trkpt lat="43.29507" lon="-0.94067">
        <ele>185.67</ele>
        <time>2021-08-20T11:47:54Z</time>
      </trkpt>
      <trkpt lat="43.29515" lon="-0.9407">
        <ele>185.19</ele>
        <time>2021-08-20T11:47:55Z</time>
      </trkpt>
      <trkpt lat="43.2953" lon="-0.94079">
        <ele>182.31</ele>
        <time>2021-08-20T11:47:57Z</time>
      </trkpt>
      <trkpt lat="43.29537" lon="-0.94085">
        <ele>182.31</ele>
        <time>2021-08-20T11:47:58Z</time>
      </trkpt>
      <trkpt lat="43.29544" lon="-0.94093">
        <ele>181.83</ele>
        <time>2021-08-20T11:47:59Z</time>
      </trkpt>
      <trkpt lat="43.29558" lon="-0.94107">
        <ele>181.83</ele>
        <time>2021-08-20T11:48:01Z</time>
      </trkpt>
      <trkpt lat="43.29565" lon="-0.94111">
        <ele>181.83</ele>
        <time>2021-08-20T11:48:02Z</time>
      </trkpt>
      <trkpt lat="43.29573" lon="-0.94114">
        <ele>181.83</ele>
        <time>2021-08-20T11:48:03Z</time>
      </trkpt>
      <trkpt lat="43.29581" lon="-0.94115">
        <ele>181.35</ele>
        <time>2021-08-20T11:48:04Z</time>
      </trkpt>
      <trkpt lat="43.29588" lon="-0.94113">
        <ele>181.35</ele>
        <time>2021-08-20T11:48:05Z</time>
      </trkpt>
      <trkpt lat="43.29595" lon="-0.94111">
        <ele>181.35</ele>
        <time>2021-08-20T11:48:06Z</time>
      </trkpt>
      <trkpt lat="43.29601" lon="-0.94107">
        <ele>181.35</ele>
        <time>2021-08-20T11:48:07Z</time>
      </trkpt>
      <trkpt lat="43.29636" lon="-0.94087">
        <ele>181.83</ele>
        <time>2021-08-20T11:48:14Z</time>
      </trkpt>
      <trkpt lat="43.29665" lon="-0.94069">
        <ele>181.83</ele>
        <time>2021-08-20T11:48:21Z</time>
      </trkpt>
      <trkpt lat="43.29707" lon="-0.94043">
        <ele>181.35</ele>
        <time>2021-08-20T11:48:30Z</time>
      </trkpt>
      <trkpt lat="43.2973" lon="-0.94028">
        <ele>180.87</ele>
        <time>2021-08-20T11:48:35Z</time>
      </trkpt>
      <trkpt lat="43.29764" lon="-0.93995">
        <ele>180.38</ele>
        <time>2021-08-20T11:48:43Z</time>
      </trkpt>
      <trkpt lat="43.29799" lon="-0.9397">
        <ele>179.9</ele>
        <time>2021-08-20T11:48:51Z</time>
      </trkpt>
      <trkpt lat="43.29817" lon="-0.93952">
        <ele>179.9</ele>
        <time>2021-08-20T11:48:57Z</time>
      </trkpt>
      <trkpt lat="43.29832" lon="-0.9394">
        <ele>176.54</ele>
        <time>2021-08-20T11:49:00Z</time>
      </trkpt>
      <trkpt lat="43.29851" lon="-0.93928">
        <ele>175.58</ele>
        <time>2021-08-20T11:49:03Z</time>
      </trkpt>
      <trkpt lat="43.29858" lon="-0.93927">
        <ele>174.62</ele>
        <time>2021-08-20T11:49:04Z</time>
      </trkpt>
      <trkpt lat="43.29865" lon="-0.93929">
        <ele>174.62</ele>
        <time>2021-08-20T11:49:05Z</time>
      </trkpt>
      <trkpt lat="43.29873" lon="-0.93933">
        <ele>174.14</ele>
        <time>2021-08-20T11:49:06Z</time>
      </trkpt>
      <trkpt lat="43.29879" lon="-0.93938">
        <ele>173.17</ele>
        <time>2021-08-20T11:49:07Z</time>
      </trkpt>
      <trkpt lat="43.29887" lon="-0.93943">
        <ele>173.17</ele>
        <time>2021-08-20T11:49:08Z</time>
      </trkpt>
      <trkpt lat="43.29894" lon="-0.93947">
        <ele>172.21</ele>
        <time>2021-08-20T11:49:09Z</time>
      </trkpt>
      <trkpt lat="43.29902" lon="-0.93949">
        <ele>171.73</ele>
        <time>2021-08-20T11:49:10Z</time>
      </trkpt>
      <trkpt lat="43.2991" lon="-0.93948">
        <ele>170.77</ele>
        <time>2021-08-20T11:49:11Z</time>
      </trkpt>
      <trkpt lat="43.29918" lon="-0.93947">
        <ele>170.77</ele>
        <time>2021-08-20T11:49:12Z</time>
      </trkpt>
      <trkpt lat="43.29962" lon="-0.93936">
        <ele>172.69</ele>
        <time>2021-08-20T11:49:19Z</time>
      </trkpt>
      <trkpt lat="43.29987" lon="-0.93921">
        <ele>173.66</ele>
        <time>2021-08-20T11:49:26Z</time>
      </trkpt>
      <trkpt lat="43.30011" lon="-0.93904">
        <ele>175.1</ele>
        <time>2021-08-20T11:49:35Z</time>
      </trkpt>
      <trkpt lat="43.30021" lon="-0.93887">
        <ele>175.1</ele>
        <time>2021-08-20T11:49:40Z</time>
      </trkpt>
      <trkpt lat="43.30028" lon="-0.93871">
        <ele>176.54</ele>
        <time>2021-08-20T11:49:47Z</time>
      </trkpt>
      <trkpt lat="43.3003" lon="-0.93868">
        <ele>177.02</ele>
        <time>2021-08-20T11:49:49Z</time>
      </trkpt>
      <trkpt lat="43.3003" lon="-0.93866">
        <ele>177.02</ele>
        <time>2021-08-20T11:49:50Z</time>
      </trkpt>
      <trkpt lat="43.30034" lon="-0.93861">
        <ele>177.98</ele>
        <time>2021-08-20T11:49:56Z</time>
      </trkpt>
      <trkpt lat="43.30039" lon="-0.93855">
        <ele>178.46</ele>
        <time>2021-08-20T11:50:06Z</time>
      </trkpt>
      <trkpt lat="43.30044" lon="-0.93847">
        <ele>179.9</ele>
        <time>2021-08-20T11:50:16Z</time>
      </trkpt>
      <trkpt lat="43.30047" lon="-0.93838">
        <ele>181.35</ele>
        <time>2021-08-20T11:50:23Z</time>
      </trkpt>
      <trkpt lat="43.30048" lon="-0.93822">
        <ele>182.79</ele>
        <time>2021-08-20T11:50:34Z</time>
      </trkpt>
      <trkpt lat="43.30049" lon="-0.93819">
        <ele>182.79</ele>
        <time>2021-08-20T11:50:36Z</time>
      </trkpt>
      <trkpt lat="43.30049" lon="-0.93817">
        <ele>182.79</ele>
        <time>2021-08-20T11:50:37Z</time>
      </trkpt>
      <trkpt lat="43.30049" lon="-0.93815">
        <ele>182.79</ele>
        <time>2021-08-20T11:50:38Z</time>
      </trkpt>
      <trkpt lat="43.30049" lon="-0.93797">
        <ele>183.75</ele>
        <time>2021-08-20T11:50:49Z</time>
      </trkpt>
      <trkpt lat="43.3005" lon="-0.93782">
        <ele>184.71</ele>
        <time>2021-08-20T11:50:58Z</time>
      </trkpt>
      <trkpt lat="43.30052" lon="-0.93766">
        <ele>186.15</ele>
        <time>2021-08-20T11:51:07Z</time>
      </trkpt>
      <trkpt lat="43.30056" lon="-0.93753">
        <ele>188.08</ele>
        <time>2021-08-20T11:51:17Z</time>
      </trkpt>
      <trkpt lat="43.30062" lon="-0.93745">
        <ele>189.04</ele>
        <time>2021-08-20T11:51:25Z</time>
      </trkpt>
      <trkpt lat="43.30068" lon="-0.93739">
        <ele>189.52</ele>
        <time>2021-08-20T11:51:33Z</time>
      </trkpt>
      <trkpt lat="43.3007" lon="-0.93738">
        <ele>190</ele>
        <time>2021-08-20T11:51:39Z</time>
      </trkpt>
      <trkpt lat="43.3007" lon="-0.93739">
        <ele>190</ele>
        <time>2021-08-20T11:51:49Z</time>
      </trkpt>
      <trkpt lat="43.30072" lon="-0.93736">
        <ele>190</ele>
        <time>2021-08-20T11:52:13Z</time>
      </trkpt>
      <trkpt lat="43.3007" lon="-0.9373">
        <ele>190</ele>
        <time>2021-08-20T11:52:31Z</time>
      </trkpt>
      <trkpt lat="43.30071" lon="-0.9373">
        <ele>190.48</ele>
        <time>2021-08-20T11:52:50Z</time>
      </trkpt>
      <trkpt lat="43.30075" lon="-0.93733">
        <ele>190.48</ele>
        <time>2021-08-20T11:53:10Z</time>
      </trkpt>
      <trkpt lat="43.30074" lon="-0.93736">
        <ele>190.48</ele>
        <time>2021-08-20T11:53:31Z</time>
      </trkpt>
      <trkpt lat="43.30072" lon="-0.93734">
        <ele>189.04</ele>
        <time>2021-08-20T11:53:40Z</time>
      </trkpt>
      <trkpt lat="43.3007" lon="-0.93732">
        <ele>189.04</ele>
        <time>2021-08-20T11:53:54Z</time>
      </trkpt>
      <trkpt lat="43.30072" lon="-0.93734">
        <ele>190.48</ele>
        <time>2021-08-20T11:54:03Z</time>
      </trkpt>
      <trkpt lat="43.30073" lon="-0.93734">
        <ele>190.48</ele>
        <time>2021-08-20T11:54:12Z</time>
      </trkpt>
      <trkpt lat="43.30078" lon="-0.93733">
        <ele>190.96</ele>
        <time>2021-08-20T11:54:19Z</time>
      </trkpt>
      <trkpt lat="43.30082" lon="-0.93732">
        <ele>190.96</ele>
        <time>2021-08-20T11:54:23Z</time>
      </trkpt>
      <trkpt lat="43.30084" lon="-0.93732">
        <ele>190.96</ele>
        <time>2021-08-20T11:54:24Z</time>
      </trkpt>
      <trkpt lat="43.30102" lon="-0.93732">
        <ele>188.56</ele>
        <time>2021-08-20T11:54:31Z</time>
      </trkpt>
      <trkpt lat="43.30112" lon="-0.93734">
        <ele>188.08</ele>
        <time>2021-08-20T11:54:33Z</time>
      </trkpt>
      <trkpt lat="43.30118" lon="-0.93736">
        <ele>187.11</ele>
        <time>2021-08-20T11:54:34Z</time>
      </trkpt>
      <trkpt lat="43.3013" lon="-0.93741">
        <ele>186.15</ele>
        <time>2021-08-20T11:54:36Z</time>
      </trkpt>
      <trkpt lat="43.30136" lon="-0.93742">
        <ele>186.15</ele>
        <time>2021-08-20T11:54:37Z</time>
      </trkpt>
      <trkpt lat="43.30142" lon="-0.93743">
        <ele>185.67</ele>
        <time>2021-08-20T11:54:38Z</time>
      </trkpt>
      <trkpt lat="43.30148" lon="-0.93742">
        <ele>185.19</ele>
        <time>2021-08-20T11:54:39Z</time>
      </trkpt>
      <trkpt lat="43.30154" lon="-0.9374">
        <ele>184.71</ele>
        <time>2021-08-20T11:54:40Z</time>
      </trkpt>
      <trkpt lat="43.3016" lon="-0.93738">
        <ele>184.71</ele>
        <time>2021-08-20T11:54:41Z</time>
      </trkpt>
      <trkpt lat="43.30165" lon="-0.93735">
        <ele>184.23</ele>
        <time>2021-08-20T11:54:42Z</time>
      </trkpt>
      <trkpt lat="43.3017" lon="-0.9373">
        <ele>183.27</ele>
        <time>2021-08-20T11:54:43Z</time>
      </trkpt>
      <trkpt lat="43.30175" lon="-0.93724">
        <ele>182.31</ele>
        <time>2021-08-20T11:54:44Z</time>
      </trkpt>
      <trkpt lat="43.30179" lon="-0.93718">
        <ele>181.35</ele>
        <time>2021-08-20T11:54:45Z</time>
      </trkpt>
      <trkpt lat="43.30201" lon="-0.93686">
        <ele>178.46</ele>
        <time>2021-08-20T11:54:49Z</time>
      </trkpt>
      <trkpt lat="43.30216" lon="-0.93664">
        <ele>177.02</ele>
        <time>2021-08-20T11:54:52Z</time>
      </trkpt>
      <trkpt lat="43.30219" lon="-0.93657">
        <ele>177.02</ele>
        <time>2021-08-20T11:54:53Z</time>
      </trkpt>
      <trkpt lat="43.30221" lon="-0.93649">
        <ele>176.54</ele>
        <time>2021-08-20T11:54:54Z</time>
      </trkpt>
      <trkpt lat="43.30222" lon="-0.93642">
        <ele>176.54</ele>
        <time>2021-08-20T11:54:55Z</time>
      </trkpt>
      <trkpt lat="43.30224" lon="-0.93636">
        <ele>176.54</ele>
        <time>2021-08-20T11:54:56Z</time>
      </trkpt>
      <trkpt lat="43.30226" lon="-0.9363">
        <ele>176.06</ele>
        <time>2021-08-20T11:54:57Z</time>
      </trkpt>
      <trkpt lat="43.30229" lon="-0.93626">
        <ele>175.1</ele>
        <time>2021-08-20T11:54:58Z</time>
      </trkpt>
      <trkpt lat="43.30233" lon="-0.93622">
        <ele>174.62</ele>
        <time>2021-08-20T11:54:59Z</time>
      </trkpt>
      <trkpt lat="43.30238" lon="-0.9362">
        <ele>173.66</ele>
        <time>2021-08-20T11:55:00Z</time>
      </trkpt>
      <trkpt lat="43.30244" lon="-0.93618">
        <ele>171.73</ele>
        <time>2021-08-20T11:55:01Z</time>
      </trkpt>
      <trkpt lat="43.30251" lon="-0.93616">
        <ele>170.77</ele>
        <time>2021-08-20T11:55:02Z</time>
      </trkpt>
      <trkpt lat="43.30274" lon="-0.93613">
        <ele>166.45</ele>
        <time>2021-08-20T11:55:05Z</time>
      </trkpt>
      <trkpt lat="43.30281" lon="-0.9361">
        <ele>165.96</ele>
        <time>2021-08-20T11:55:06Z</time>
      </trkpt>
      <trkpt lat="43.30288" lon="-0.93605">
        <ele>165.48</ele>
        <time>2021-08-20T11:55:07Z</time>
      </trkpt>
      <trkpt lat="43.30295" lon="-0.936">
        <ele>165.48</ele>
        <time>2021-08-20T11:55:08Z</time>
      </trkpt>
      <trkpt lat="43.3032" lon="-0.93578">
        <ele>164.04</ele>
        <time>2021-08-20T11:55:12Z</time>
      </trkpt>
      <trkpt lat="43.30325" lon="-0.93572">
        <ele>164.04</ele>
        <time>2021-08-20T11:55:13Z</time>
      </trkpt>
      <trkpt lat="43.30329" lon="-0.93567">
        <ele>164.04</ele>
        <time>2021-08-20T11:55:14Z</time>
      </trkpt>
      <trkpt lat="43.30334" lon="-0.93564">
        <ele>164.04</ele>
        <time>2021-08-20T11:55:15Z</time>
      </trkpt>
      <trkpt lat="43.30337" lon="-0.93565">
        <ele>164.04</ele>
        <time>2021-08-20T11:55:16Z</time>
      </trkpt>
      <trkpt lat="43.30339" lon="-0.93569">
        <ele>164.04</ele>
        <time>2021-08-20T11:55:17Z</time>
      </trkpt>
      <trkpt lat="43.30338" lon="-0.93575">
        <ele>164.04</ele>
        <time>2021-08-20T11:55:18Z</time>
      </trkpt>
      <trkpt lat="43.30335" lon="-0.9358">
        <ele>163.08</ele>
        <time>2021-08-20T11:55:19Z</time>
      </trkpt>
      <trkpt lat="43.30331" lon="-0.93585">
        <ele>162.6</ele>
        <time>2021-08-20T11:55:20Z</time>
      </trkpt>
      <trkpt lat="43.30326" lon="-0.93591">
        <ele>161.16</ele>
        <time>2021-08-20T11:55:21Z</time>
      </trkpt>
      <trkpt lat="43.30316" lon="-0.93607">
        <ele>159.72</ele>
        <time>2021-08-20T11:55:23Z</time>
      </trkpt>
      <trkpt lat="43.30298" lon="-0.93642">
        <ele>156.83</ele>
        <time>2021-08-20T11:55:27Z</time>
      </trkpt>
      <trkpt lat="43.30296" lon="-0.9365">
        <ele>156.83</ele>
        <time>2021-08-20T11:55:28Z</time>
      </trkpt>
      <trkpt lat="43.30298" lon="-0.93657">
        <ele>156.83</ele>
        <time>2021-08-20T11:55:29Z</time>
      </trkpt>
      <trkpt lat="43.303" lon="-0.93665">
        <ele>155.87</ele>
        <time>2021-08-20T11:55:30Z</time>
      </trkpt>
      <trkpt lat="43.30304" lon="-0.93672">
        <ele>154.91</ele>
        <time>2021-08-20T11:55:31Z</time>
      </trkpt>
      <trkpt lat="43.30308" lon="-0.93682">
        <ele>153.95</ele>
        <time>2021-08-20T11:55:32Z</time>
      </trkpt>
      <trkpt lat="43.30311" lon="-0.93691">
        <ele>152.51</ele>
        <time>2021-08-20T11:55:33Z</time>
      </trkpt>
      <trkpt lat="43.30316" lon="-0.93714">
        <ele>149.14</ele>
        <time>2021-08-20T11:55:35Z</time>
      </trkpt>
      <trkpt lat="43.30322" lon="-0.93737">
        <ele>146.74</ele>
        <time>2021-08-20T11:55:37Z</time>
      </trkpt>
      <trkpt lat="43.30327" lon="-0.93746">
        <ele>145.3</ele>
        <time>2021-08-20T11:55:38Z</time>
      </trkpt>
      <trkpt lat="43.3034" lon="-0.93769">
        <ele>140.49</ele>
        <time>2021-08-20T11:55:40Z</time>
      </trkpt>
      <trkpt lat="43.30353" lon="-0.93795">
        <ele>137.13</ele>
        <time>2021-08-20T11:55:42Z</time>
      </trkpt>
      <trkpt lat="43.30374" lon="-0.93837">
        <ele>133.76</ele>
        <time>2021-08-20T11:55:45Z</time>
      </trkpt>
      <trkpt lat="43.30393" lon="-0.93875">
        <ele>131.36</ele>
        <time>2021-08-20T11:55:48Z</time>
      </trkpt>
      <trkpt lat="43.30397" lon="-0.93887">
        <ele>129.92</ele>
        <time>2021-08-20T11:55:49Z</time>
      </trkpt>
      <trkpt lat="43.304" lon="-0.93898">
        <ele>129.43</ele>
        <time>2021-08-20T11:55:50Z</time>
      </trkpt>
      <trkpt lat="43.30404" lon="-0.93906">
        <ele>129.43</ele>
        <time>2021-08-20T11:55:51Z</time>
      </trkpt>
      <trkpt lat="43.30409" lon="-0.93913">
        <ele>128.95</ele>
        <time>2021-08-20T11:55:52Z</time>
      </trkpt>
      <trkpt lat="43.30415" lon="-0.9392">
        <ele>127.99</ele>
        <time>2021-08-20T11:55:53Z</time>
      </trkpt>
      <trkpt lat="43.30422" lon="-0.93927">
        <ele>126.07</ele>
        <time>2021-08-20T11:55:54Z</time>
      </trkpt>
      <trkpt lat="43.30437" lon="-0.93943">
        <ele>123.19</ele>
        <time>2021-08-20T11:55:56Z</time>
      </trkpt>
      <trkpt lat="43.30451" lon="-0.93964">
        <ele>121.26</ele>
        <time>2021-08-20T11:55:58Z</time>
      </trkpt>
      <trkpt lat="43.30456" lon="-0.93974">
        <ele>120.3</ele>
        <time>2021-08-20T11:55:59Z</time>
      </trkpt>
      <trkpt lat="43.30466" lon="-0.93996">
        <ele>119.34</ele>
        <time>2021-08-20T11:56:01Z</time>
      </trkpt>
      <trkpt lat="43.30481" lon="-0.94026">
        <ele>116.94</ele>
        <time>2021-08-20T11:56:04Z</time>
      </trkpt>
      <trkpt lat="43.30483" lon="-0.94037">
        <ele>116.46</ele>
        <time>2021-08-20T11:56:05Z</time>
      </trkpt>
      <trkpt lat="43.30484" lon="-0.94049">
        <ele>115.98</ele>
        <time>2021-08-20T11:56:06Z</time>
      </trkpt>
      <trkpt lat="43.30484" lon="-0.94061">
        <ele>115.01</ele>
        <time>2021-08-20T11:56:07Z</time>
      </trkpt>
      <trkpt lat="43.30483" lon="-0.94073">
        <ele>115.01</ele>
        <time>2021-08-20T11:56:08Z</time>
      </trkpt>
      <trkpt lat="43.30482" lon="-0.94085">
        <ele>114.53</ele>
        <time>2021-08-20T11:56:09Z</time>
      </trkpt>
      <trkpt lat="43.30479" lon="-0.94096">
        <ele>113.57</ele>
        <time>2021-08-20T11:56:10Z</time>
      </trkpt>
      <trkpt lat="43.30475" lon="-0.94107">
        <ele>113.57</ele>
        <time>2021-08-20T11:56:11Z</time>
      </trkpt>
      <trkpt lat="43.30471" lon="-0.94119">
        <ele>113.09</ele>
        <time>2021-08-20T11:56:12Z</time>
      </trkpt>
      <trkpt lat="43.3047" lon="-0.9413">
        <ele>113.09</ele>
        <time>2021-08-20T11:56:13Z</time>
      </trkpt>
      <trkpt lat="43.3047" lon="-0.94151">
        <ele>113.09</ele>
        <time>2021-08-20T11:56:15Z</time>
      </trkpt>
      <trkpt lat="43.30468" lon="-0.94181">
        <ele>111.17</ele>
        <time>2021-08-20T11:56:18Z</time>
      </trkpt>
      <trkpt lat="43.30468" lon="-0.94189">
        <ele>110.69</ele>
        <time>2021-08-20T11:56:19Z</time>
      </trkpt>
      <trkpt lat="43.30469" lon="-0.94195">
        <ele>110.69</ele>
        <time>2021-08-20T11:56:20Z</time>
      </trkpt>
      <trkpt lat="43.30472" lon="-0.94199">
        <ele>110.69</ele>
        <time>2021-08-20T11:56:21Z</time>
      </trkpt>
      <trkpt lat="43.30475" lon="-0.94202">
        <ele>110.69</ele>
        <time>2021-08-20T11:56:22Z</time>
      </trkpt>
      <trkpt lat="43.30479" lon="-0.94206">
        <ele>110.69</ele>
        <time>2021-08-20T11:56:23Z</time>
      </trkpt>
      <trkpt lat="43.30482" lon="-0.9421">
        <ele>110.69</ele>
        <time>2021-08-20T11:56:24Z</time>
      </trkpt>
      <trkpt lat="43.30508" lon="-0.94242">
        <ele>108.29</ele>
        <time>2021-08-20T11:56:30Z</time>
      </trkpt>
      <trkpt lat="43.3052" lon="-0.94253">
        <ele>107.32</ele>
        <time>2021-08-20T11:56:32Z</time>
      </trkpt>
      <trkpt lat="43.30538" lon="-0.94269">
        <ele>106.84</ele>
        <time>2021-08-20T11:56:35Z</time>
      </trkpt>
      <trkpt lat="43.3057" lon="-0.94292">
        <ele>106.36</ele>
        <time>2021-08-20T11:56:40Z</time>
      </trkpt>
      <trkpt lat="43.30576" lon="-0.94294">
        <ele>106.36</ele>
        <time>2021-08-20T11:56:41Z</time>
      </trkpt>
      <trkpt lat="43.30582" lon="-0.94298">
        <ele>105.88</ele>
        <time>2021-08-20T11:56:42Z</time>
      </trkpt>
      <trkpt lat="43.30623" lon="-0.94332">
        <ele>103.48</ele>
        <time>2021-08-20T11:56:48Z</time>
      </trkpt>
      <trkpt lat="43.30629" lon="-0.94339">
        <ele>103.48</ele>
        <time>2021-08-20T11:56:49Z</time>
      </trkpt>
      <trkpt lat="43.30635" lon="-0.94346">
        <ele>103.48</ele>
        <time>2021-08-20T11:56:50Z</time>
      </trkpt>
      <trkpt lat="43.30639" lon="-0.94354">
        <ele>103.48</ele>
        <time>2021-08-20T11:56:51Z</time>
      </trkpt>
      <trkpt lat="43.30656" lon="-0.94393">
        <ele>105.4</ele>
        <time>2021-08-20T11:56:57Z</time>
      </trkpt>
      <trkpt lat="43.30664" lon="-0.94411">
        <ele>107.81</ele>
        <time>2021-08-20T11:57:02Z</time>
      </trkpt>
      <trkpt lat="43.30678" lon="-0.94431">
        <ele>108.29</ele>
        <time>2021-08-20T11:57:09Z</time>
      </trkpt>
      <trkpt lat="43.3069" lon="-0.94445">
        <ele>107.81</ele>
        <time>2021-08-20T11:57:13Z</time>
      </trkpt>
      <trkpt lat="43.30694" lon="-0.94448">
        <ele>106.36</ele>
        <time>2021-08-20T11:57:14Z</time>
      </trkpt>
      <trkpt lat="43.307" lon="-0.94451">
        <ele>106.36</ele>
        <time>2021-08-20T11:57:15Z</time>
      </trkpt>
      <trkpt lat="43.30706" lon="-0.94453">
        <ele>105.4</ele>
        <time>2021-08-20T11:57:16Z</time>
      </trkpt>
      <trkpt lat="43.30713" lon="-0.94452">
        <ele>104.92</ele>
        <time>2021-08-20T11:57:17Z</time>
      </trkpt>
      <trkpt lat="43.3072" lon="-0.94451">
        <ele>103.96</ele>
        <time>2021-08-20T11:57:18Z</time>
      </trkpt>
      <trkpt lat="43.30727" lon="-0.94449">
        <ele>103.96</ele>
        <time>2021-08-20T11:57:19Z</time>
      </trkpt>
      <trkpt lat="43.30734" lon="-0.94448">
        <ele>103</ele>
        <time>2021-08-20T11:57:20Z</time>
      </trkpt>
      <trkpt lat="43.30741" lon="-0.94448">
        <ele>103</ele>
        <time>2021-08-20T11:57:21Z</time>
      </trkpt>
      <trkpt lat="43.30748" lon="-0.94448">
        <ele>103</ele>
        <time>2021-08-20T11:57:22Z</time>
      </trkpt>
      <trkpt lat="43.30787" lon="-0.9445">
        <ele>100.6</ele>
        <time>2021-08-20T11:57:27Z</time>
      </trkpt>
      <trkpt lat="43.30803" lon="-0.94456">
        <ele>99.63</ele>
        <time>2021-08-20T11:57:29Z</time>
      </trkpt>
      <trkpt lat="43.3081" lon="-0.9446">
        <ele>99.63</ele>
        <time>2021-08-20T11:57:30Z</time>
      </trkpt>
      <trkpt lat="43.30817" lon="-0.94466">
        <ele>99.63</ele>
        <time>2021-08-20T11:57:31Z</time>
      </trkpt>
      <trkpt lat="43.30823" lon="-0.94473">
        <ele>99.63</ele>
        <time>2021-08-20T11:57:32Z</time>
      </trkpt>
      <trkpt lat="43.30827" lon="-0.94481">
        <ele>99.63</ele>
        <time>2021-08-20T11:57:33Z</time>
      </trkpt>
      <trkpt lat="43.30831" lon="-0.9449">
        <ele>99.63</ele>
        <time>2021-08-20T11:57:34Z</time>
      </trkpt>
      <trkpt lat="43.30835" lon="-0.94499">
        <ele>99.15</ele>
        <time>2021-08-20T11:57:35Z</time>
      </trkpt>
      <trkpt lat="43.30848" lon="-0.94522">
        <ele>99.15</ele>
        <time>2021-08-20T11:57:38Z</time>
      </trkpt>
      <trkpt lat="43.30856" lon="-0.94535">
        <ele>100.6</ele>
        <time>2021-08-20T11:57:40Z</time>
      </trkpt>
      <trkpt lat="43.30859" lon="-0.94541">
        <ele>101.08</ele>
        <time>2021-08-20T11:57:41Z</time>
      </trkpt>
      <trkpt lat="43.3086" lon="-0.94546">
        <ele>101.56</ele>
        <time>2021-08-20T11:57:42Z</time>
      </trkpt>
      <trkpt lat="43.30866" lon="-0.94568">
        <ele>103</ele>
        <time>2021-08-20T11:57:48Z</time>
      </trkpt>
      <trkpt lat="43.30873" lon="-0.94597">
        <ele>104.92</ele>
        <time>2021-08-20T11:57:58Z</time>
      </trkpt>
      <trkpt lat="43.30881" lon="-0.94622">
        <ele>105.88</ele>
        <time>2021-08-20T11:58:07Z</time>
      </trkpt>
      <trkpt lat="43.30899" lon="-0.94629">
        <ele>105.88</ele>
        <time>2021-08-20T11:58:13Z</time>
      </trkpt>
      <trkpt lat="43.30907" lon="-0.94627">
        <ele>105.88</ele>
        <time>2021-08-20T11:58:15Z</time>
      </trkpt>
      <trkpt lat="43.30911" lon="-0.94625">
        <ele>105.88</ele>
        <time>2021-08-20T11:58:16Z</time>
      </trkpt>
      <trkpt lat="43.30928" lon="-0.94615">
        <ele>104.44</ele>
        <time>2021-08-20T11:58:20Z</time>
      </trkpt>
      <trkpt lat="43.30932" lon="-0.94612">
        <ele>103.96</ele>
        <time>2021-08-20T11:58:21Z</time>
      </trkpt>
      <trkpt lat="43.30953" lon="-0.94602">
        <ele>103.96</ele>
        <time>2021-08-20T11:58:26Z</time>
      </trkpt>
      <trkpt lat="43.30956" lon="-0.94604">
        <ele>103.96</ele>
        <time>2021-08-20T11:58:27Z</time>
      </trkpt>
      <trkpt lat="43.30959" lon="-0.94608">
        <ele>103.96</ele>
        <time>2021-08-20T11:58:28Z</time>
      </trkpt>
      <trkpt lat="43.3096" lon="-0.94612">
        <ele>103.96</ele>
        <time>2021-08-20T11:58:29Z</time>
      </trkpt>
      <trkpt lat="43.3096" lon="-0.94616">
        <ele>105.4</ele>
        <time>2021-08-20T11:58:30Z</time>
      </trkpt>
      <trkpt lat="43.3096" lon="-0.94621">
        <ele>105.4</ele>
        <time>2021-08-20T11:58:31Z</time>
      </trkpt>
      <trkpt lat="43.3096" lon="-0.94626">
        <ele>105.4</ele>
        <time>2021-08-20T11:58:32Z</time>
      </trkpt>
      <trkpt lat="43.3096" lon="-0.94631">
        <ele>105.4</ele>
        <time>2021-08-20T11:58:33Z</time>
      </trkpt>
      <trkpt lat="43.30957" lon="-0.94678">
        <ele>105.88</ele>
        <time>2021-08-20T11:58:42Z</time>
      </trkpt>
      <trkpt lat="43.30947" lon="-0.94716">
        <ele>107.81</ele>
        <time>2021-08-20T11:58:50Z</time>
      </trkpt>
      <trkpt lat="43.30944" lon="-0.94749">
        <ele>109.25</ele>
        <time>2021-08-20T11:58:58Z</time>
      </trkpt>
      <trkpt lat="43.3095" lon="-0.94791">
        <ele>109.73</ele>
        <time>2021-08-20T11:59:07Z</time>
      </trkpt>
      <trkpt lat="43.30955" lon="-0.94834">
        <ele>111.17</ele>
        <time>2021-08-20T11:59:17Z</time>
      </trkpt>
      <trkpt lat="43.30953" lon="-0.94864">
        <ele>112.13</ele>
        <time>2021-08-20T11:59:24Z</time>
      </trkpt>
      <trkpt lat="43.3094" lon="-0.9491">
        <ele>114.05</ele>
        <time>2021-08-20T11:59:35Z</time>
      </trkpt>
      <trkpt lat="43.30924" lon="-0.94938">
        <ele>114.53</ele>
        <time>2021-08-20T11:59:43Z</time>
      </trkpt>
      <trkpt lat="43.30904" lon="-0.94962">
        <ele>115.01</ele>
        <time>2021-08-20T11:59:50Z</time>
      </trkpt>
      <trkpt lat="43.30891" lon="-0.94978">
        <ele>115.01</ele>
        <time>2021-08-20T11:59:54Z</time>
      </trkpt>
      <trkpt lat="43.30888" lon="-0.94981">
        <ele>115.5</ele>
        <time>2021-08-20T11:59:55Z</time>
      </trkpt>
      <trkpt lat="43.30863" lon="-0.95006">
        <ele>115.98</ele>
        <time>2021-08-20T12:00:02Z</time>
      </trkpt>
      <trkpt lat="43.30839" lon="-0.95035">
        <ele>116.46</ele>
        <time>2021-08-20T12:00:09Z</time>
      </trkpt>
      <trkpt lat="43.30831" lon="-0.95043">
        <ele>116.46</ele>
        <time>2021-08-20T12:00:11Z</time>
      </trkpt>
      <trkpt lat="43.30828" lon="-0.95048">
        <ele>116.46</ele>
        <time>2021-08-20T12:00:12Z</time>
      </trkpt>
      <trkpt lat="43.30824" lon="-0.95053">
        <ele>116.46</ele>
        <time>2021-08-20T12:00:13Z</time>
      </trkpt>
      <trkpt lat="43.30789" lon="-0.95107">
        <ele>116.46</ele>
        <time>2021-08-20T12:00:23Z</time>
      </trkpt>
      <trkpt lat="43.30786" lon="-0.95113">
        <ele>116.46</ele>
        <time>2021-08-20T12:00:24Z</time>
      </trkpt>
      <trkpt lat="43.30769" lon="-0.95164">
        <ele>116.94</ele>
        <time>2021-08-20T12:00:32Z</time>
      </trkpt>
      <trkpt lat="43.30764" lon="-0.95189">
        <ele>117.42</ele>
        <time>2021-08-20T12:00:36Z</time>
      </trkpt>
      <trkpt lat="43.30764" lon="-0.95195">
        <ele>117.9</ele>
        <time>2021-08-20T12:00:37Z</time>
      </trkpt>
      <trkpt lat="43.30763" lon="-0.952">
        <ele>117.9</ele>
        <time>2021-08-20T12:00:38Z</time>
      </trkpt>
      <trkpt lat="43.30757" lon="-0.95246">
        <ele>119.34</ele>
        <time>2021-08-20T12:00:47Z</time>
      </trkpt>
      <trkpt lat="43.30752" lon="-0.95286">
        <ele>120.78</ele>
        <time>2021-08-20T12:00:56Z</time>
      </trkpt>
      <trkpt lat="43.30746" lon="-0.95327">
        <ele>122.22</ele>
        <time>2021-08-20T12:01:06Z</time>
      </trkpt>
      <trkpt lat="43.30739" lon="-0.95352">
        <ele>123.19</ele>
        <time>2021-08-20T12:01:13Z</time>
      </trkpt>
      <trkpt lat="43.30727" lon="-0.95379">
        <ele>124.63</ele>
        <time>2021-08-20T12:01:22Z</time>
      </trkpt>
      <trkpt lat="43.30712" lon="-0.95409">
        <ele>126.55</ele>
        <time>2021-08-20T12:01:32Z</time>
      </trkpt>
      <trkpt lat="43.307" lon="-0.95435">
        <ele>127.03</ele>
        <time>2021-08-20T12:01:40Z</time>
      </trkpt>
      <trkpt lat="43.30684" lon="-0.95463">
        <ele>126.07</ele>
        <time>2021-08-20T12:01:46Z</time>
      </trkpt>
      <trkpt lat="43.30674" lon="-0.95485">
        <ele>125.59</ele>
        <time>2021-08-20T12:01:50Z</time>
      </trkpt>
      <trkpt lat="43.30659" lon="-0.95516">
        <ele>125.59</ele>
        <time>2021-08-20T12:01:56Z</time>
      </trkpt>
      <trkpt lat="43.30655" lon="-0.95526">
        <ele>125.59</ele>
        <time>2021-08-20T12:01:58Z</time>
      </trkpt>
      <trkpt lat="43.3065" lon="-0.95536">
        <ele>125.59</ele>
        <time>2021-08-20T12:02:00Z</time>
      </trkpt>
      <trkpt lat="43.30647" lon="-0.95541">
        <ele>124.63</ele>
        <time>2021-08-20T12:02:01Z</time>
      </trkpt>
      <trkpt lat="43.30642" lon="-0.95546">
        <ele>124.63</ele>
        <time>2021-08-20T12:02:02Z</time>
      </trkpt>
      <trkpt lat="43.30637" lon="-0.95549">
        <ele>123.67</ele>
        <time>2021-08-20T12:02:03Z</time>
      </trkpt>
      <trkpt lat="43.30631" lon="-0.95551">
        <ele>122.71</ele>
        <time>2021-08-20T12:02:04Z</time>
      </trkpt>
      <trkpt lat="43.30625" lon="-0.95552">
        <ele>122.71</ele>
        <time>2021-08-20T12:02:05Z</time>
      </trkpt>
      <trkpt lat="43.30599" lon="-0.9556">
        <ele>120.78</ele>
        <time>2021-08-20T12:02:11Z</time>
      </trkpt>
      <trkpt lat="43.30596" lon="-0.95562">
        <ele>120.3</ele>
        <time>2021-08-20T12:02:16Z</time>
      </trkpt>
      <trkpt lat="43.30597" lon="-0.95562">
        <ele>120.3</ele>
        <time>2021-08-20T12:02:26Z</time>
      </trkpt>
      <trkpt lat="43.30598" lon="-0.95563">
        <ele>120.3</ele>
        <time>2021-08-20T12:02:48Z</time>
      </trkpt>
      <trkpt lat="43.30597" lon="-0.95564">
        <ele>119.82</ele>
        <time>2021-08-20T12:03:06Z</time>
      </trkpt>
      <trkpt lat="43.30597" lon="-0.95562">
        <ele>119.82</ele>
        <time>2021-08-20T12:03:29Z</time>
      </trkpt>
      <trkpt lat="43.30596" lon="-0.95562">
        <ele>119.82</ele>
        <time>2021-08-20T12:03:51Z</time>
      </trkpt>
      <trkpt lat="43.30581" lon="-0.9557">
        <ele>117.9</ele>
        <time>2021-08-20T12:03:56Z</time>
      </trkpt>
      <trkpt lat="43.30577" lon="-0.95574">
        <ele>117.9</ele>
        <time>2021-08-20T12:03:57Z</time>
      </trkpt>
      <trkpt lat="43.30573" lon="-0.95578">
        <ele>117.42</ele>
        <time>2021-08-20T12:03:58Z</time>
      </trkpt>
      <trkpt lat="43.30571" lon="-0.95584">
        <ele>117.42</ele>
        <time>2021-08-20T12:03:59Z</time>
      </trkpt>
      <trkpt lat="43.30571" lon="-0.95591">
        <ele>117.42</ele>
        <time>2021-08-20T12:04:00Z</time>
      </trkpt>
      <trkpt lat="43.30572" lon="-0.95595">
        <ele>117.42</ele>
        <time>2021-08-20T12:04:01Z</time>
      </trkpt>
      <trkpt lat="43.30573" lon="-0.95599">
        <ele>117.42</ele>
        <time>2021-08-20T12:04:02Z</time>
      </trkpt>
      <trkpt lat="43.30574" lon="-0.95602">
        <ele>117.42</ele>
        <time>2021-08-20T12:04:03Z</time>
      </trkpt>
      <trkpt lat="43.30575" lon="-0.95605">
        <ele>117.42</ele>
        <time>2021-08-20T12:04:04Z</time>
      </trkpt>
      <trkpt lat="43.30575" lon="-0.95609">
        <ele>117.42</ele>
        <time>2021-08-20T12:04:05Z</time>
      </trkpt>
      <trkpt lat="43.30576" lon="-0.95613">
        <ele>118.86</ele>
        <time>2021-08-20T12:04:06Z</time>
      </trkpt>
      <trkpt lat="43.30576" lon="-0.95615">
        <ele>119.34</ele>
        <time>2021-08-20T12:04:07Z</time>
      </trkpt>
      <trkpt lat="43.30577" lon="-0.95618">
        <ele>119.34</ele>
        <time>2021-08-20T12:04:08Z</time>
      </trkpt>
      <trkpt lat="43.30578" lon="-0.9562">
        <ele>119.34</ele>
        <time>2021-08-20T12:04:09Z</time>
      </trkpt>
      <trkpt lat="43.30582" lon="-0.95633">
        <ele>120.3</ele>
        <time>2021-08-20T12:04:17Z</time>
      </trkpt>
      <trkpt lat="43.30589" lon="-0.95651">
        <ele>122.22</ele>
        <time>2021-08-20T12:04:26Z</time>
      </trkpt>
      <trkpt lat="43.3059" lon="-0.95656">
        <ele>122.22</ele>
        <time>2021-08-20T12:04:28Z</time>
      </trkpt>
      <trkpt lat="43.30597" lon="-0.95677">
        <ele>122.71</ele>
        <time>2021-08-20T12:04:36Z</time>
      </trkpt>
      <trkpt lat="43.30605" lon="-0.95703">
        <ele>124.15</ele>
        <time>2021-08-20T12:04:46Z</time>
      </trkpt>
      <trkpt lat="43.30611" lon="-0.95728">
        <ele>125.59</ele>
        <time>2021-08-20T12:04:55Z</time>
      </trkpt>
      <trkpt lat="43.30616" lon="-0.95756">
        <ele>127.03</ele>
        <time>2021-08-20T12:05:05Z</time>
      </trkpt>
      <trkpt lat="43.3062" lon="-0.95782">
        <ele>127.99</ele>
        <time>2021-08-20T12:05:14Z</time>
      </trkpt>
      <trkpt lat="43.30627" lon="-0.958">
        <ele>129.43</ele>
        <time>2021-08-20T12:05:21Z</time>
      </trkpt>
      <trkpt lat="43.30634" lon="-0.95824">
        <ele>130.88</ele>
        <time>2021-08-20T12:05:30Z</time>
      </trkpt>
      <trkpt lat="43.30632" lon="-0.95847">
        <ele>131.84</ele>
        <time>2021-08-20T12:05:38Z</time>
      </trkpt>
      <trkpt lat="43.30619" lon="-0.95864">
        <ele>132.8</ele>
        <time>2021-08-20T12:05:47Z</time>
      </trkpt>
      <trkpt lat="43.30608" lon="-0.95873">
        <ele>134.24</ele>
        <time>2021-08-20T12:05:56Z</time>
      </trkpt>
      <trkpt lat="43.30597" lon="-0.95883">
        <ele>136.64</ele>
        <time>2021-08-20T12:06:06Z</time>
      </trkpt>
      <trkpt lat="43.30588" lon="-0.95891">
        <ele>138.09</ele>
        <time>2021-08-20T12:06:13Z</time>
      </trkpt>
      <trkpt lat="43.30587" lon="-0.95893">
        <ele>138.09</ele>
        <time>2021-08-20T12:06:14Z</time>
      </trkpt>
      <trkpt lat="43.30586" lon="-0.95894">
        <ele>138.09</ele>
        <time>2021-08-20T12:06:15Z</time>
      </trkpt>
      <trkpt lat="43.30585" lon="-0.95895">
        <ele>138.09</ele>
        <time>2021-08-20T12:06:16Z</time>
      </trkpt>
      <trkpt lat="43.30584" lon="-0.95896">
        <ele>138.57</ele>
        <time>2021-08-20T12:06:17Z</time>
      </trkpt>
      <trkpt lat="43.30583" lon="-0.95897">
        <ele>139.05</ele>
        <time>2021-08-20T12:06:18Z</time>
      </trkpt>
      <trkpt lat="43.30582" lon="-0.95898">
        <ele>139.05</ele>
        <time>2021-08-20T12:06:19Z</time>
      </trkpt>
      <trkpt lat="43.3058" lon="-0.95899">
        <ele>139.05</ele>
        <time>2021-08-20T12:06:20Z</time>
      </trkpt>
      <trkpt lat="43.30579" lon="-0.959">
        <ele>139.53</ele>
        <time>2021-08-20T12:06:21Z</time>
      </trkpt>
      <trkpt lat="43.30579" lon="-0.95902">
        <ele>140.01</ele>
        <time>2021-08-20T12:06:22Z</time>
      </trkpt>
      <trkpt lat="43.30578" lon="-0.95903">
        <ele>140.01</ele>
        <time>2021-08-20T12:06:23Z</time>
      </trkpt>
      <trkpt lat="43.30577" lon="-0.95905">
        <ele>140.01</ele>
        <time>2021-08-20T12:06:24Z</time>
      </trkpt>
      <trkpt lat="43.30578" lon="-0.95908">
        <ele>140.49</ele>
        <time>2021-08-20T12:06:25Z</time>
      </trkpt>
      <trkpt lat="43.30578" lon="-0.9591">
        <ele>140.49</ele>
        <time>2021-08-20T12:06:26Z</time>
      </trkpt>
      <trkpt lat="43.30579" lon="-0.95913">
        <ele>140.49</ele>
        <time>2021-08-20T12:06:27Z</time>
      </trkpt>
      <trkpt lat="43.3058" lon="-0.95915">
        <ele>140.49</ele>
        <time>2021-08-20T12:06:28Z</time>
      </trkpt>
      <trkpt lat="43.30581" lon="-0.95917">
        <ele>140.49</ele>
        <time>2021-08-20T12:06:29Z</time>
      </trkpt>
      <trkpt lat="43.30583" lon="-0.9592">
        <ele>140.49</ele>
        <time>2021-08-20T12:06:30Z</time>
      </trkpt>
      <trkpt lat="43.30585" lon="-0.95923">
        <ele>140.49</ele>
        <time>2021-08-20T12:06:31Z</time>
      </trkpt>
      <trkpt lat="43.30587" lon="-0.95926">
        <ele>140.49</ele>
        <time>2021-08-20T12:06:32Z</time>
      </trkpt>
      <trkpt lat="43.306" lon="-0.95944">
        <ele>140.49</ele>
        <time>2021-08-20T12:06:36Z</time>
      </trkpt>
      <trkpt lat="43.30605" lon="-0.9595">
        <ele>139.05</ele>
        <time>2021-08-20T12:06:37Z</time>
      </trkpt>
      <trkpt lat="43.30608" lon="-0.95956">
        <ele>139.05</ele>
        <time>2021-08-20T12:06:38Z</time>
      </trkpt>
      <trkpt lat="43.30637" lon="-0.96005">
        <ele>140.01</ele>
        <time>2021-08-20T12:06:46Z</time>
      </trkpt>
      <trkpt lat="43.30648" lon="-0.96024">
        <ele>141.45</ele>
        <time>2021-08-20T12:06:52Z</time>
      </trkpt>
      <trkpt lat="43.30663" lon="-0.9605">
        <ele>141.93</ele>
        <time>2021-08-20T12:06:59Z</time>
      </trkpt>
      <trkpt lat="43.30682" lon="-0.96084">
        <ele>139.05</ele>
        <time>2021-08-20T12:07:05Z</time>
      </trkpt>
      <trkpt lat="43.30706" lon="-0.96122">
        <ele>136.16</ele>
        <time>2021-08-20T12:07:10Z</time>
      </trkpt>
      <trkpt lat="43.30711" lon="-0.96131">
        <ele>136.16</ele>
        <time>2021-08-20T12:07:11Z</time>
      </trkpt>
      <trkpt lat="43.30726" lon="-0.96153">
        <ele>139.53</ele>
        <time>2021-08-20T12:07:15Z</time>
      </trkpt>
      <trkpt lat="43.30734" lon="-0.96164">
        <ele>140.97</ele>
        <time>2021-08-20T12:07:20Z</time>
      </trkpt>
      <trkpt lat="43.30741" lon="-0.96174">
        <ele>141.93</ele>
        <time>2021-08-20T12:07:27Z</time>
      </trkpt>
      <trkpt lat="43.30745" lon="-0.96182">
        <ele>142.89</ele>
        <time>2021-08-20T12:07:31Z</time>
      </trkpt>
      <trkpt lat="43.30756" lon="-0.96201">
        <ele>143.85</ele>
        <time>2021-08-20T12:07:41Z</time>
      </trkpt>
      <trkpt lat="43.30762" lon="-0.96216">
        <ele>144.82</ele>
        <time>2021-08-20T12:07:48Z</time>
      </trkpt>
      <trkpt lat="43.30768" lon="-0.96232">
        <ele>146.74</ele>
        <time>2021-08-20T12:07:56Z</time>
      </trkpt>
      <trkpt lat="43.30771" lon="-0.96242">
        <ele>147.7</ele>
        <time>2021-08-20T12:08:01Z</time>
      </trkpt>
      <trkpt lat="43.30777" lon="-0.96257">
        <ele>148.66</ele>
        <time>2021-08-20T12:08:08Z</time>
      </trkpt>
      <trkpt lat="43.30784" lon="-0.96276">
        <ele>150.58</ele>
        <time>2021-08-20T12:08:16Z</time>
      </trkpt>
      <trkpt lat="43.30792" lon="-0.96301">
        <ele>151.54</ele>
        <time>2021-08-20T12:08:24Z</time>
      </trkpt>
      <trkpt lat="43.30806" lon="-0.96342">
        <ele>151.54</ele>
        <time>2021-08-20T12:08:33Z</time>
      </trkpt>
      <trkpt lat="43.3081" lon="-0.96356">
        <ele>150.1</ele>
        <time>2021-08-20T12:08:35Z</time>
      </trkpt>
      <trkpt lat="43.30825" lon="-0.96399">
        <ele>145.3</ele>
        <time>2021-08-20T12:08:41Z</time>
      </trkpt>
      <trkpt lat="43.30834" lon="-0.96423">
        <ele>142.41</ele>
        <time>2021-08-20T12:08:44Z</time>
      </trkpt>
      <trkpt lat="43.30844" lon="-0.96449">
        <ele>138.57</ele>
        <time>2021-08-20T12:08:47Z</time>
      </trkpt>
      <trkpt lat="43.30847" lon="-0.96459">
        <ele>137.13</ele>
        <time>2021-08-20T12:08:48Z</time>
      </trkpt>
      <trkpt lat="43.30849" lon="-0.96469">
        <ele>135.68</ele>
        <time>2021-08-20T12:08:49Z</time>
      </trkpt>
      <trkpt lat="43.30849" lon="-0.96481">
        <ele>134.72</ele>
        <time>2021-08-20T12:08:50Z</time>
      </trkpt>
      <trkpt lat="43.30848" lon="-0.96494">
        <ele>133.28</ele>
        <time>2021-08-20T12:08:51Z</time>
      </trkpt>
      <trkpt lat="43.30847" lon="-0.96507">
        <ele>132.32</ele>
        <time>2021-08-20T12:08:52Z</time>
      </trkpt>
      <trkpt lat="43.30845" lon="-0.96519">
        <ele>131.36</ele>
        <time>2021-08-20T12:08:53Z</time>
      </trkpt>
      <trkpt lat="43.30844" lon="-0.96531">
        <ele>130.4</ele>
        <time>2021-08-20T12:08:54Z</time>
      </trkpt>
      <trkpt lat="43.30845" lon="-0.96542">
        <ele>129.92</ele>
        <time>2021-08-20T12:08:55Z</time>
      </trkpt>
      <trkpt lat="43.30848" lon="-0.96552">
        <ele>129.43</ele>
        <time>2021-08-20T12:08:56Z</time>
      </trkpt>
      <trkpt lat="43.30852" lon="-0.9656">
        <ele>128.95</ele>
        <time>2021-08-20T12:08:57Z</time>
      </trkpt>
      <trkpt lat="43.30859" lon="-0.96564">
        <ele>127.99</ele>
        <time>2021-08-20T12:08:58Z</time>
      </trkpt>
      <trkpt lat="43.30865" lon="-0.96565">
        <ele>127.99</ele>
        <time>2021-08-20T12:08:59Z</time>
      </trkpt>
      <trkpt lat="43.3087" lon="-0.96564">
        <ele>127.99</ele>
        <time>2021-08-20T12:09:00Z</time>
      </trkpt>
      <trkpt lat="43.30875" lon="-0.96562">
        <ele>129.92</ele>
        <time>2021-08-20T12:09:01Z</time>
      </trkpt>
      <trkpt lat="43.30878" lon="-0.9656">
        <ele>130.88</ele>
        <time>2021-08-20T12:09:02Z</time>
      </trkpt>
      <trkpt lat="43.30882" lon="-0.96558">
        <ele>132.32</ele>
        <time>2021-08-20T12:09:04Z</time>
      </trkpt>
      <trkpt lat="43.30883" lon="-0.96559">
        <ele>132.32</ele>
        <time>2021-08-20T12:09:05Z</time>
      </trkpt>
      <trkpt lat="43.30885" lon="-0.9656">
        <ele>133.28</ele>
        <time>2021-08-20T12:09:06Z</time>
      </trkpt>
      <trkpt lat="43.30885" lon="-0.96563">
        <ele>133.28</ele>
        <time>2021-08-20T12:09:07Z</time>
      </trkpt>
      <trkpt lat="43.30886" lon="-0.96565">
        <ele>133.76</ele>
        <time>2021-08-20T12:09:08Z</time>
      </trkpt>
      <trkpt lat="43.30885" lon="-0.96568">
        <ele>133.76</ele>
        <time>2021-08-20T12:09:09Z</time>
      </trkpt>
      <trkpt lat="43.30884" lon="-0.9657">
        <ele>133.76</ele>
        <time>2021-08-20T12:09:10Z</time>
      </trkpt>
      <trkpt lat="43.30872" lon="-0.96585">
        <ele>134.72</ele>
        <time>2021-08-20T12:09:18Z</time>
      </trkpt>
      <trkpt lat="43.30855" lon="-0.96596">
        <ele>136.16</ele>
        <time>2021-08-20T12:09:26Z</time>
      </trkpt>
      <trkpt lat="43.30841" lon="-0.96607">
        <ele>137.13</ele>
        <time>2021-08-20T12:09:34Z</time>
      </trkpt>
      <trkpt lat="43.30826" lon="-0.96621">
        <ele>138.09</ele>
        <time>2021-08-20T12:09:42Z</time>
      </trkpt>
      <trkpt lat="43.30815" lon="-0.96639">
        <ele>138.57</ele>
        <time>2021-08-20T12:09:49Z</time>
      </trkpt>
      <trkpt lat="43.30793" lon="-0.96669">
        <ele>138.57</ele>
        <time>2021-08-20T12:09:57Z</time>
      </trkpt>
      <trkpt lat="43.30774" lon="-0.96687">
        <ele>139.05</ele>
        <time>2021-08-20T12:10:04Z</time>
      </trkpt>
      <trkpt lat="43.30757" lon="-0.96702">
        <ele>139.53</ele>
        <time>2021-08-20T12:10:10Z</time>
      </trkpt>
      <trkpt lat="43.30739" lon="-0.96716">
        <ele>141.45</ele>
        <time>2021-08-20T12:10:18Z</time>
      </trkpt>
      <trkpt lat="43.30723" lon="-0.96727">
        <ele>142.41</ele>
        <time>2021-08-20T12:10:27Z</time>
      </trkpt>
      <trkpt lat="43.30706" lon="-0.96736">
        <ele>144.34</ele>
        <time>2021-08-20T12:10:37Z</time>
      </trkpt>
      <trkpt lat="43.3069" lon="-0.96742">
        <ele>145.3</ele>
        <time>2021-08-20T12:10:45Z</time>
      </trkpt>
      <trkpt lat="43.30669" lon="-0.96751">
        <ele>146.26</ele>
        <time>2021-08-20T12:10:55Z</time>
      </trkpt>
      <trkpt lat="43.30646" lon="-0.96759">
        <ele>146.74</ele>
        <time>2021-08-20T12:11:05Z</time>
      </trkpt>
      <trkpt lat="43.3062" lon="-0.96768">
        <ele>148.18</ele>
        <time>2021-08-20T12:11:15Z</time>
      </trkpt>
      <trkpt lat="43.30599" lon="-0.96775">
        <ele>149.62</ele>
        <time>2021-08-20T12:11:25Z</time>
      </trkpt>
      <trkpt lat="43.30596" lon="-0.96777">
        <ele>149.62</ele>
        <time>2021-08-20T12:11:27Z</time>
      </trkpt>
      <trkpt lat="43.30594" lon="-0.96781">
        <ele>150.1</ele>
        <time>2021-08-20T12:11:29Z</time>
      </trkpt>
      <trkpt lat="43.30593" lon="-0.96782">
        <ele>150.1</ele>
        <time>2021-08-20T12:11:30Z</time>
      </trkpt>
      <trkpt lat="43.30579" lon="-0.96784">
        <ele>151.54</ele>
        <time>2021-08-20T12:11:38Z</time>
      </trkpt>
      <trkpt lat="43.30564" lon="-0.96789">
        <ele>152.51</ele>
        <time>2021-08-20T12:11:47Z</time>
      </trkpt>
      <trkpt lat="43.30548" lon="-0.96799">
        <ele>154.43</ele>
        <time>2021-08-20T12:11:58Z</time>
      </trkpt>
      <trkpt lat="43.30534" lon="-0.96808">
        <ele>155.39</ele>
        <time>2021-08-20T12:12:07Z</time>
      </trkpt>
      <trkpt lat="43.30518" lon="-0.96823">
        <ele>156.83</ele>
        <time>2021-08-20T12:12:17Z</time>
      </trkpt>
      <trkpt lat="43.30499" lon="-0.96838">
        <ele>157.79</ele>
        <time>2021-08-20T12:12:26Z</time>
      </trkpt>
      <trkpt lat="43.30481" lon="-0.96848">
        <ele>159.24</ele>
        <time>2021-08-20T12:12:33Z</time>
      </trkpt>
      <trkpt lat="43.30455" lon="-0.9685">
        <ele>159.72</ele>
        <time>2021-08-20T12:12:40Z</time>
      </trkpt>
      <trkpt lat="43.30431" lon="-0.96837">
        <ele>160.2</ele>
        <time>2021-08-20T12:12:47Z</time>
      </trkpt>
      <trkpt lat="43.30413" lon="-0.96818">
        <ele>161.64</ele>
        <time>2021-08-20T12:12:55Z</time>
      </trkpt>
      <trkpt lat="43.30399" lon="-0.96794">
        <ele>162.12</ele>
        <time>2021-08-20T12:13:03Z</time>
      </trkpt>
      <trkpt lat="43.30381" lon="-0.96766">
        <ele>162.12</ele>
        <time>2021-08-20T12:13:10Z</time>
      </trkpt>
      <trkpt lat="43.30357" lon="-0.96741">
        <ele>163.08</ele>
        <time>2021-08-20T12:13:18Z</time>
      </trkpt>
      <trkpt lat="43.30335" lon="-0.96734">
        <ele>163.56</ele>
        <time>2021-08-20T12:13:24Z</time>
      </trkpt>
      <trkpt lat="43.30317" lon="-0.96734">
        <ele>165</ele>
        <time>2021-08-20T12:13:31Z</time>
      </trkpt>
      <trkpt lat="43.30309" lon="-0.96734">
        <ele>165.96</ele>
        <time>2021-08-20T12:13:40Z</time>
      </trkpt>
      <trkpt lat="43.30301" lon="-0.96732">
        <ele>166.45</ele>
        <time>2021-08-20T12:13:49Z</time>
      </trkpt>
      <trkpt lat="43.30295" lon="-0.9673">
        <ele>167.89</ele>
        <time>2021-08-20T12:13:57Z</time>
      </trkpt>
      <trkpt lat="43.30293" lon="-0.96729">
        <ele>167.89</ele>
        <time>2021-08-20T12:14:01Z</time>
      </trkpt>
      <trkpt lat="43.30291" lon="-0.96728">
        <ele>167.89</ele>
        <time>2021-08-20T12:14:02Z</time>
      </trkpt>
      <trkpt lat="43.3029" lon="-0.96728">
        <ele>167.89</ele>
        <time>2021-08-20T12:14:03Z</time>
      </trkpt>
      <trkpt lat="43.30288" lon="-0.96727">
        <ele>168.37</ele>
        <time>2021-08-20T12:14:04Z</time>
      </trkpt>
      <trkpt lat="43.30287" lon="-0.96727">
        <ele>168.37</ele>
        <time>2021-08-20T12:14:05Z</time>
      </trkpt>
      <trkpt lat="43.30285" lon="-0.96725">
        <ele>168.37</ele>
        <time>2021-08-20T12:14:06Z</time>
      </trkpt>
      <trkpt lat="43.30283" lon="-0.96724">
        <ele>168.37</ele>
        <time>2021-08-20T12:14:07Z</time>
      </trkpt>
      <trkpt lat="43.30267" lon="-0.96714">
        <ele>168.85</ele>
        <time>2021-08-20T12:14:14Z</time>
      </trkpt>
      <trkpt lat="43.30256" lon="-0.96704">
        <ele>168.85</ele>
        <time>2021-08-20T12:14:18Z</time>
      </trkpt>
      <trkpt lat="43.30252" lon="-0.967">
        <ele>167.41</ele>
        <time>2021-08-20T12:14:19Z</time>
      </trkpt>
      <trkpt lat="43.30248" lon="-0.96697">
        <ele>167.41</ele>
        <time>2021-08-20T12:14:20Z</time>
      </trkpt>
      <trkpt lat="43.30232" lon="-0.96684">
        <ele>164.52</ele>
        <time>2021-08-20T12:14:23Z</time>
      </trkpt>
      <trkpt lat="43.30227" lon="-0.96679">
        <ele>164.52</ele>
        <time>2021-08-20T12:14:24Z</time>
      </trkpt>
      <trkpt lat="43.3021" lon="-0.96662">
        <ele>162.12</ele>
        <time>2021-08-20T12:14:27Z</time>
      </trkpt>
      <trkpt lat="43.30164" lon="-0.9663">
        <ele>160.68</ele>
        <time>2021-08-20T12:14:34Z</time>
      </trkpt>
      <trkpt lat="43.30151" lon="-0.96625">
        <ele>160.2</ele>
        <time>2021-08-20T12:14:36Z</time>
      </trkpt>
      <trkpt lat="43.3011" lon="-0.96615">
        <ele>160.2</ele>
        <time>2021-08-20T12:14:42Z</time>
      </trkpt>
      <trkpt lat="43.30062" lon="-0.96605">
        <ele>159.72</ele>
        <time>2021-08-20T12:14:50Z</time>
      </trkpt>
      <trkpt lat="43.30038" lon="-0.96601">
        <ele>159.72</ele>
        <time>2021-08-20T12:14:55Z</time>
      </trkpt>
      <trkpt lat="43.30029" lon="-0.966">
        <ele>159.72</ele>
        <time>2021-08-20T12:14:57Z</time>
      </trkpt>
      <trkpt lat="43.30025" lon="-0.96599">
        <ele>159.72</ele>
        <time>2021-08-20T12:14:58Z</time>
      </trkpt>
      <trkpt lat="43.3002" lon="-0.96599">
        <ele>159.72</ele>
        <time>2021-08-20T12:14:59Z</time>
      </trkpt>
      <trkpt lat="43.30006" lon="-0.966">
        <ele>161.16</ele>
        <time>2021-08-20T12:15:02Z</time>
      </trkpt>
      <trkpt lat="43.29998" lon="-0.96602">
        <ele>161.16</ele>
        <time>2021-08-20T12:15:04Z</time>
      </trkpt>
      <trkpt lat="43.29975" lon="-0.96608">
        <ele>162.6</ele>
        <time>2021-08-20T12:15:11Z</time>
      </trkpt>
      <trkpt lat="43.29963" lon="-0.9661">
        <ele>163.56</ele>
        <time>2021-08-20T12:15:18Z</time>
      </trkpt>
      <trkpt lat="43.29958" lon="-0.96612">
        <ele>164.52</ele>
        <time>2021-08-20T12:15:22Z</time>
      </trkpt>
      <trkpt lat="43.29957" lon="-0.96612">
        <ele>164.52</ele>
        <time>2021-08-20T12:15:23Z</time>
      </trkpt>
      <trkpt lat="43.29956" lon="-0.96613">
        <ele>164.52</ele>
        <time>2021-08-20T12:15:24Z</time>
      </trkpt>
      <trkpt lat="43.29955" lon="-0.96613">
        <ele>165</ele>
        <time>2021-08-20T12:15:25Z</time>
      </trkpt>
      <trkpt lat="43.29953" lon="-0.96613">
        <ele>165</ele>
        <time>2021-08-20T12:15:26Z</time>
      </trkpt>
      <trkpt lat="43.29949" lon="-0.96615">
        <ele>165.96</ele>
        <time>2021-08-20T12:15:30Z</time>
      </trkpt>
      <trkpt lat="43.29948" lon="-0.96615">
        <ele>165.96</ele>
        <time>2021-08-20T12:15:31Z</time>
      </trkpt>
      <trkpt lat="43.2994" lon="-0.96616">
        <ele>167.41</ele>
        <time>2021-08-20T12:15:37Z</time>
      </trkpt>
      <trkpt lat="43.29938" lon="-0.96617">
        <ele>167.41</ele>
        <time>2021-08-20T12:15:38Z</time>
      </trkpt>
      <trkpt lat="43.29937" lon="-0.96618">
        <ele>167.89</ele>
        <time>2021-08-20T12:15:39Z</time>
      </trkpt>
      <trkpt lat="43.29928" lon="-0.96622">
        <ele>168.85</ele>
        <time>2021-08-20T12:15:47Z</time>
      </trkpt>
      <trkpt lat="43.29919" lon="-0.96625">
        <ele>170.29</ele>
        <time>2021-08-20T12:15:57Z</time>
      </trkpt>
      <trkpt lat="43.2991" lon="-0.96627">
        <ele>171.25</ele>
        <time>2021-08-20T12:16:07Z</time>
      </trkpt>
      <trkpt lat="43.29902" lon="-0.9663">
        <ele>172.69</ele>
        <time>2021-08-20T12:16:16Z</time>
      </trkpt>
      <trkpt lat="43.29899" lon="-0.96631">
        <ele>173.17</ele>
        <time>2021-08-20T12:16:19Z</time>
      </trkpt>
      <trkpt lat="43.29898" lon="-0.96632">
        <ele>173.66</ele>
        <time>2021-08-20T12:16:20Z</time>
      </trkpt>
      <trkpt lat="43.29896" lon="-0.96633">
        <ele>173.66</ele>
        <time>2021-08-20T12:16:21Z</time>
      </trkpt>
      <trkpt lat="43.29892" lon="-0.96636">
        <ele>174.14</ele>
        <time>2021-08-20T12:16:25Z</time>
      </trkpt>
      <trkpt lat="43.29891" lon="-0.96637">
        <ele>174.14</ele>
        <time>2021-08-20T12:16:26Z</time>
      </trkpt>
      <trkpt lat="43.29889" lon="-0.96639">
        <ele>174.14</ele>
        <time>2021-08-20T12:16:31Z</time>
      </trkpt>
      <trkpt lat="43.29887" lon="-0.96642">
        <ele>174.14</ele>
        <time>2021-08-20T12:16:35Z</time>
      </trkpt>
      <trkpt lat="43.29876" lon="-0.96662">
        <ele>175.58</ele>
        <time>2021-08-20T12:16:42Z</time>
      </trkpt>
      <trkpt lat="43.29863" lon="-0.96692">
        <ele>175.58</ele>
        <time>2021-08-20T12:16:51Z</time>
      </trkpt>
      <trkpt lat="43.29852" lon="-0.9672">
        <ele>177.02</ele>
        <time>2021-08-20T12:17:00Z</time>
      </trkpt>
      <trkpt lat="43.29838" lon="-0.96745">
        <ele>178.94</ele>
        <time>2021-08-20T12:17:09Z</time>
      </trkpt>
      <trkpt lat="43.29823" lon="-0.96767">
        <ele>180.38</ele>
        <time>2021-08-20T12:17:17Z</time>
      </trkpt>
      <trkpt lat="43.298" lon="-0.96801">
        <ele>181.35</ele>
        <time>2021-08-20T12:17:27Z</time>
      </trkpt>
      <trkpt lat="43.29784" lon="-0.96826">
        <ele>182.79</ele>
        <time>2021-08-20T12:17:35Z</time>
      </trkpt>
      <trkpt lat="43.29767" lon="-0.96864">
        <ele>184.23</ele>
        <time>2021-08-20T12:17:45Z</time>
      </trkpt>
      <trkpt lat="43.29752" lon="-0.969">
        <ele>184.71</ele>
        <time>2021-08-20T12:17:53Z</time>
      </trkpt>
      <trkpt lat="43.2973" lon="-0.96949">
        <ele>182.31</ele>
        <time>2021-08-20T12:18:01Z</time>
      </trkpt>
      <trkpt lat="43.29726" lon="-0.96954">
        <ele>182.31</ele>
        <time>2021-08-20T12:18:02Z</time>
      </trkpt>
      <trkpt lat="43.29721" lon="-0.9696">
        <ele>181.83</ele>
        <time>2021-08-20T12:18:03Z</time>
      </trkpt>
      <trkpt lat="43.29716" lon="-0.96963">
        <ele>181.83</ele>
        <time>2021-08-20T12:18:04Z</time>
      </trkpt>
      <trkpt lat="43.29709" lon="-0.96965">
        <ele>181.83</ele>
        <time>2021-08-20T12:18:05Z</time>
      </trkpt>
      <trkpt lat="43.29705" lon="-0.96966">
        <ele>181.83</ele>
        <time>2021-08-20T12:18:06Z</time>
      </trkpt>
      <trkpt lat="43.29699" lon="-0.96966">
        <ele>181.83</ele>
        <time>2021-08-20T12:18:07Z</time>
      </trkpt>
      <trkpt lat="43.29692" lon="-0.96966">
        <ele>181.83</ele>
        <time>2021-08-20T12:18:08Z</time>
      </trkpt>
      <trkpt lat="43.29655" lon="-0.96975">
        <ele>179.9</ele>
        <time>2021-08-20T12:18:15Z</time>
      </trkpt>
      <trkpt lat="43.29614" lon="-0.97002">
        <ele>178.94</ele>
        <time>2021-08-20T12:18:22Z</time>
      </trkpt>
      <trkpt lat="43.29576" lon="-0.97023">
        <ele>178.46</ele>
        <time>2021-08-20T12:18:29Z</time>
      </trkpt>
      <trkpt lat="43.29553" lon="-0.97037">
        <ele>178.46</ele>
        <time>2021-08-20T12:18:34Z</time>
      </trkpt>
      <trkpt lat="43.2952" lon="-0.97056">
        <ele>178.46</ele>
        <time>2021-08-20T12:18:41Z</time>
      </trkpt>
      <trkpt lat="43.29516" lon="-0.97058">
        <ele>178.46</ele>
        <time>2021-08-20T12:18:42Z</time>
      </trkpt>
      <trkpt lat="43.29512" lon="-0.97061">
        <ele>178.46</ele>
        <time>2021-08-20T12:18:43Z</time>
      </trkpt>
      <trkpt lat="43.29499" lon="-0.97069">
        <ele>178.46</ele>
        <time>2021-08-20T12:18:46Z</time>
      </trkpt>
      <trkpt lat="43.29495" lon="-0.97071">
        <ele>178.46</ele>
        <time>2021-08-20T12:18:47Z</time>
      </trkpt>
      <trkpt lat="43.29492" lon="-0.97074">
        <ele>178.46</ele>
        <time>2021-08-20T12:18:48Z</time>
      </trkpt>
      <trkpt lat="43.29488" lon="-0.97076">
        <ele>178.46</ele>
        <time>2021-08-20T12:18:49Z</time>
      </trkpt>
      <trkpt lat="43.29485" lon="-0.97079">
        <ele>178.46</ele>
        <time>2021-08-20T12:18:50Z</time>
      </trkpt>
      <trkpt lat="43.29483" lon="-0.97081">
        <ele>178.46</ele>
        <time>2021-08-20T12:18:51Z</time>
      </trkpt>
      <trkpt lat="43.2948" lon="-0.97085">
        <ele>178.46</ele>
        <time>2021-08-20T12:18:52Z</time>
      </trkpt>
      <trkpt lat="43.2947" lon="-0.97105">
        <ele>178.46</ele>
        <time>2021-08-20T12:18:57Z</time>
      </trkpt>
      <trkpt lat="43.29465" lon="-0.97119">
        <ele>179.42</ele>
        <time>2021-08-20T12:19:00Z</time>
      </trkpt>
      <trkpt lat="43.29461" lon="-0.97149">
        <ele>181.35</ele>
        <time>2021-08-20T12:19:07Z</time>
      </trkpt>
      <trkpt lat="43.2946" lon="-0.97161">
        <ele>182.31</ele>
        <time>2021-08-20T12:19:13Z</time>
      </trkpt>
      <trkpt lat="43.29458" lon="-0.97172">
        <ele>183.75</ele>
        <time>2021-08-20T12:19:21Z</time>
      </trkpt>
      <trkpt lat="43.29457" lon="-0.97173">
        <ele>183.27</ele>
        <time>2021-08-20T12:19:29Z</time>
      </trkpt>
      <trkpt lat="43.29455" lon="-0.97175">
        <ele>183.75</ele>
        <time>2021-08-20T12:19:45Z</time>
      </trkpt>
      <trkpt lat="43.29456" lon="-0.97185">
        <ele>184.71</ele>
        <time>2021-08-20T12:19:54Z</time>
      </trkpt>
      <trkpt lat="43.29455" lon="-0.97196">
        <ele>186.15</ele>
        <time>2021-08-20T12:20:02Z</time>
      </trkpt>
      <trkpt lat="43.29454" lon="-0.97207">
        <ele>187.11</ele>
        <time>2021-08-20T12:20:10Z</time>
      </trkpt>
      <trkpt lat="43.29453" lon="-0.97212">
        <ele>187.11</ele>
        <time>2021-08-20T12:20:14Z</time>
      </trkpt>
      <trkpt lat="43.29451" lon="-0.97213">
        <ele>187.11</ele>
        <time>2021-08-20T12:20:15Z</time>
      </trkpt>
      <trkpt lat="43.2945" lon="-0.97215">
        <ele>187.11</ele>
        <time>2021-08-20T12:20:16Z</time>
      </trkpt>
      <trkpt lat="43.29438" lon="-0.97231">
        <ele>187.11</ele>
        <time>2021-08-20T12:20:21Z</time>
      </trkpt>
      <trkpt lat="43.29434" lon="-0.97234">
        <ele>187.11</ele>
        <time>2021-08-20T12:20:22Z</time>
      </trkpt>
      <trkpt lat="43.2943" lon="-0.97235">
        <ele>187.11</ele>
        <time>2021-08-20T12:20:23Z</time>
      </trkpt>
      <trkpt lat="43.29424" lon="-0.97237">
        <ele>185.19</ele>
        <time>2021-08-20T12:20:24Z</time>
      </trkpt>
      <trkpt lat="43.29419" lon="-0.97238">
        <ele>185.19</ele>
        <time>2021-08-20T12:20:25Z</time>
      </trkpt>
      <trkpt lat="43.29397" lon="-0.97241">
        <ele>184.23</ele>
        <time>2021-08-20T12:20:29Z</time>
      </trkpt>
      <trkpt lat="43.29392" lon="-0.97243">
        <ele>184.23</ele>
        <time>2021-08-20T12:20:30Z</time>
      </trkpt>
      <trkpt lat="43.29369" lon="-0.97257">
        <ele>184.23</ele>
        <time>2021-08-20T12:20:35Z</time>
      </trkpt>
      <trkpt lat="43.2935" lon="-0.97276">
        <ele>184.23</ele>
        <time>2021-08-20T12:20:40Z</time>
      </trkpt>
      <trkpt lat="43.29339" lon="-0.97294">
        <ele>184.23</ele>
        <time>2021-08-20T12:20:44Z</time>
      </trkpt>
      <trkpt lat="43.29334" lon="-0.97304">
        <ele>185.67</ele>
        <time>2021-08-20T12:20:46Z</time>
      </trkpt>
      <trkpt lat="43.29332" lon="-0.97309">
        <ele>185.67</ele>
        <time>2021-08-20T12:20:47Z</time>
      </trkpt>
      <trkpt lat="43.29312" lon="-0.97359">
        <ele>186.15</ele>
        <time>2021-08-20T12:20:57Z</time>
      </trkpt>
      <trkpt lat="43.29311" lon="-0.97364">
        <ele>186.15</ele>
        <time>2021-08-20T12:20:58Z</time>
      </trkpt>
      <trkpt lat="43.29308" lon="-0.97375">
        <ele>186.15</ele>
        <time>2021-08-20T12:21:00Z</time>
      </trkpt>
      <trkpt lat="43.29293" lon="-0.97421">
        <ele>186.63</ele>
        <time>2021-08-20T12:21:09Z</time>
      </trkpt>
      <trkpt lat="43.29278" lon="-0.97458">
        <ele>188.08</ele>
        <time>2021-08-20T12:21:18Z</time>
      </trkpt>
      <trkpt lat="43.29271" lon="-0.97482">
        <ele>189.52</ele>
        <time>2021-08-20T12:21:26Z</time>
      </trkpt>
      <trkpt lat="43.29266" lon="-0.97512">
        <ele>191.44</ele>
        <time>2021-08-20T12:21:36Z</time>
      </trkpt>
      <trkpt lat="43.29259" lon="-0.97546">
        <ele>193.36</ele>
        <time>2021-08-20T12:21:47Z</time>
      </trkpt>
      <trkpt lat="43.29253" lon="-0.97574">
        <ele>195.28</ele>
        <time>2021-08-20T12:21:55Z</time>
      </trkpt>
      <trkpt lat="43.29243" lon="-0.97607">
        <ele>195.28</ele>
        <time>2021-08-20T12:22:04Z</time>
      </trkpt>
      <trkpt lat="43.29233" lon="-0.97638">
        <ele>195.28</ele>
        <time>2021-08-20T12:22:11Z</time>
      </trkpt>
      <trkpt lat="43.29231" lon="-0.97642">
        <ele>195.28</ele>
        <time>2021-08-20T12:22:12Z</time>
      </trkpt>
      <trkpt lat="43.29229" lon="-0.97647">
        <ele>195.28</ele>
        <time>2021-08-20T12:22:13Z</time>
      </trkpt>
      <trkpt lat="43.29226" lon="-0.97652">
        <ele>195.28</ele>
        <time>2021-08-20T12:22:14Z</time>
      </trkpt>
      <trkpt lat="43.29222" lon="-0.97656">
        <ele>194.32</ele>
        <time>2021-08-20T12:22:15Z</time>
      </trkpt>
      <trkpt lat="43.29218" lon="-0.9766">
        <ele>194.32</ele>
        <time>2021-08-20T12:22:16Z</time>
      </trkpt>
      <trkpt lat="43.29205" lon="-0.97671">
        <ele>191.44</ele>
        <time>2021-08-20T12:22:19Z</time>
      </trkpt>
      <trkpt lat="43.29201" lon="-0.97674">
        <ele>190.96</ele>
        <time>2021-08-20T12:22:20Z</time>
      </trkpt>
      <trkpt lat="43.29197" lon="-0.97678">
        <ele>190</ele>
        <time>2021-08-20T12:22:21Z</time>
      </trkpt>
      <trkpt lat="43.29195" lon="-0.97683">
        <ele>189.52</ele>
        <time>2021-08-20T12:22:22Z</time>
      </trkpt>
      <trkpt lat="43.29196" lon="-0.97688">
        <ele>188.56</ele>
        <time>2021-08-20T12:22:23Z</time>
      </trkpt>
      <trkpt lat="43.29197" lon="-0.97695">
        <ele>187.59</ele>
        <time>2021-08-20T12:22:24Z</time>
      </trkpt>
      <trkpt lat="43.29201" lon="-0.977">
        <ele>187.11</ele>
        <time>2021-08-20T12:22:25Z</time>
      </trkpt>
      <trkpt lat="43.29205" lon="-0.97705">
        <ele>186.63</ele>
        <time>2021-08-20T12:22:26Z</time>
      </trkpt>
      <trkpt lat="43.2921" lon="-0.9771">
        <ele>186.15</ele>
        <time>2021-08-20T12:22:27Z</time>
      </trkpt>
      <trkpt lat="43.2922" lon="-0.97722">
        <ele>185.19</ele>
        <time>2021-08-20T12:22:29Z</time>
      </trkpt>
      <trkpt lat="43.29229" lon="-0.97736">
        <ele>184.23</ele>
        <time>2021-08-20T12:22:31Z</time>
      </trkpt>
      <trkpt lat="43.29252" lon="-0.97779">
        <ele>180.87</ele>
        <time>2021-08-20T12:22:36Z</time>
      </trkpt>
      <trkpt lat="43.29261" lon="-0.97795">
        <ele>180.38</ele>
        <time>2021-08-20T12:22:38Z</time>
      </trkpt>
      <trkpt lat="43.29268" lon="-0.97809">
        <ele>180.38</ele>
        <time>2021-08-20T12:22:40Z</time>
      </trkpt>
      <trkpt lat="43.29269" lon="-0.97816">
        <ele>179.9</ele>
        <time>2021-08-20T12:22:41Z</time>
      </trkpt>
      <trkpt lat="43.29269" lon="-0.97822">
        <ele>179.9</ele>
        <time>2021-08-20T12:22:42Z</time>
      </trkpt>
      <trkpt lat="43.29267" lon="-0.97827">
        <ele>179.9</ele>
        <time>2021-08-20T12:22:43Z</time>
      </trkpt>
      <trkpt lat="43.29264" lon="-0.97831">
        <ele>180.38</ele>
        <time>2021-08-20T12:22:44Z</time>
      </trkpt>
      <trkpt lat="43.29255" lon="-0.97851">
        <ele>177.98</ele>
        <time>2021-08-20T12:22:47Z</time>
      </trkpt>
      <trkpt lat="43.29252" lon="-0.97861">
        <ele>175.1</ele>
        <time>2021-08-20T12:22:48Z</time>
      </trkpt>
      <trkpt lat="43.29245" lon="-0.97883">
        <ele>171.73</ele>
        <time>2021-08-20T12:22:50Z</time>
      </trkpt>
      <trkpt lat="43.2924" lon="-0.97893">
        <ele>170.29</ele>
        <time>2021-08-20T12:22:51Z</time>
      </trkpt>
      <trkpt lat="43.29234" lon="-0.97901">
        <ele>168.85</ele>
        <time>2021-08-20T12:22:52Z</time>
      </trkpt>
      <trkpt lat="43.29202" lon="-0.9793">
        <ele>165.96</ele>
        <time>2021-08-20T12:22:56Z</time>
      </trkpt>
      <trkpt lat="43.29193" lon="-0.97934">
        <ele>164.52</ele>
        <time>2021-08-20T12:22:57Z</time>
      </trkpt>
      <trkpt lat="43.29184" lon="-0.97936">
        <ele>163.08</ele>
        <time>2021-08-20T12:22:58Z</time>
      </trkpt>
      <trkpt lat="43.29164" lon="-0.9794">
        <ele>159.24</ele>
        <time>2021-08-20T12:23:00Z</time>
      </trkpt>
      <trkpt lat="43.29141" lon="-0.97943">
        <ele>155.87</ele>
        <time>2021-08-20T12:23:02Z</time>
      </trkpt>
      <trkpt lat="43.29111" lon="-0.97947">
        <ele>151.54</ele>
        <time>2021-08-20T12:23:05Z</time>
      </trkpt>
      <trkpt lat="43.29101" lon="-0.9795">
        <ele>150.1</ele>
        <time>2021-08-20T12:23:06Z</time>
      </trkpt>
      <trkpt lat="43.2908" lon="-0.97959">
        <ele>145.78</ele>
        <time>2021-08-20T12:23:08Z</time>
      </trkpt>
      <trkpt lat="43.29058" lon="-0.97968">
        <ele>141.93</ele>
        <time>2021-08-20T12:23:10Z</time>
      </trkpt>
      <trkpt lat="43.29039" lon="-0.97977">
        <ele>140.49</ele>
        <time>2021-08-20T12:23:12Z</time>
      </trkpt>
      <trkpt lat="43.2903" lon="-0.97983">
        <ele>139.53</ele>
        <time>2021-08-20T12:23:13Z</time>
      </trkpt>
      <trkpt lat="43.29023" lon="-0.97991">
        <ele>140.01</ele>
        <time>2021-08-20T12:23:14Z</time>
      </trkpt>
      <trkpt lat="43.28995" lon="-0.98032">
        <ele>136.16</ele>
        <time>2021-08-20T12:23:18Z</time>
      </trkpt>
      <trkpt lat="43.2899" lon="-0.98043">
        <ele>135.68</ele>
        <time>2021-08-20T12:23:19Z</time>
      </trkpt>
      <trkpt lat="43.28981" lon="-0.9807">
        <ele>131.36</ele>
        <time>2021-08-20T12:23:21Z</time>
      </trkpt>
      <trkpt lat="43.28975" lon="-0.98084">
        <ele>131.36</ele>
        <time>2021-08-20T12:23:22Z</time>
      </trkpt>
      <trkpt lat="43.2897" lon="-0.98095">
        <ele>130.4</ele>
        <time>2021-08-20T12:23:23Z</time>
      </trkpt>
      <trkpt lat="43.28957" lon="-0.98118">
        <ele>129.43</ele>
        <time>2021-08-20T12:23:25Z</time>
      </trkpt>
      <trkpt lat="43.28911" lon="-0.98179">
        <ele>127.03</ele>
        <time>2021-08-20T12:23:31Z</time>
      </trkpt>
      <trkpt lat="43.28851" lon="-0.98238">
        <ele>123.67</ele>
        <time>2021-08-20T12:23:38Z</time>
      </trkpt>
      <trkpt lat="43.28816" lon="-0.9827">
        <ele>121.74</ele>
        <time>2021-08-20T12:23:42Z</time>
      </trkpt>
      <trkpt lat="43.28773" lon="-0.98303">
        <ele>119.82</ele>
        <time>2021-08-20T12:23:47Z</time>
      </trkpt>
      <trkpt lat="43.28766" lon="-0.98312">
        <ele>119.34</ele>
        <time>2021-08-20T12:23:48Z</time>
      </trkpt>
      <trkpt lat="43.28752" lon="-0.98332">
        <ele>118.86</ele>
        <time>2021-08-20T12:23:50Z</time>
      </trkpt>
      <trkpt lat="43.28747" lon="-0.98344">
        <ele>118.86</ele>
        <time>2021-08-20T12:23:51Z</time>
      </trkpt>
      <trkpt lat="43.28743" lon="-0.98356">
        <ele>117.9</ele>
        <time>2021-08-20T12:23:52Z</time>
      </trkpt>
      <trkpt lat="43.28739" lon="-0.98367">
        <ele>117.9</ele>
        <time>2021-08-20T12:23:53Z</time>
      </trkpt>
      <trkpt lat="43.28737" lon="-0.98379">
        <ele>117.9</ele>
        <time>2021-08-20T12:23:54Z</time>
      </trkpt>
      <trkpt lat="43.28735" lon="-0.9839">
        <ele>117.42</ele>
        <time>2021-08-20T12:23:55Z</time>
      </trkpt>
      <trkpt lat="43.28734" lon="-0.98401">
        <ele>117.9</ele>
        <time>2021-08-20T12:23:56Z</time>
      </trkpt>
      <trkpt lat="43.28728" lon="-0.98435">
        <ele>115.98</ele>
        <time>2021-08-20T12:23:59Z</time>
      </trkpt>
      <trkpt lat="43.28724" lon="-0.98446">
        <ele>115.01</ele>
        <time>2021-08-20T12:24:00Z</time>
      </trkpt>
      <trkpt lat="43.28709" lon="-0.98507">
        <ele>112.13</ele>
        <time>2021-08-20T12:24:05Z</time>
      </trkpt>
      <trkpt lat="43.28692" lon="-0.98572">
        <ele>112.13</ele>
        <time>2021-08-20T12:24:11Z</time>
      </trkpt>
      <trkpt lat="43.28691" lon="-0.98581">
        <ele>113.57</ele>
        <time>2021-08-20T12:24:12Z</time>
      </trkpt>
      <trkpt lat="43.28691" lon="-0.98589">
        <ele>114.05</ele>
        <time>2021-08-20T12:24:13Z</time>
      </trkpt>
      <trkpt lat="43.28692" lon="-0.98596">
        <ele>114.53</ele>
        <time>2021-08-20T12:24:14Z</time>
      </trkpt>
      <trkpt lat="43.28694" lon="-0.98603">
        <ele>114.53</ele>
        <time>2021-08-20T12:24:15Z</time>
      </trkpt>
      <trkpt lat="43.28695" lon="-0.9861">
        <ele>115.01</ele>
        <time>2021-08-20T12:24:16Z</time>
      </trkpt>
      <trkpt lat="43.287" lon="-0.98657">
        <ele>115.5</ele>
        <time>2021-08-20T12:24:24Z</time>
      </trkpt>
      <trkpt lat="43.28701" lon="-0.98718">
        <ele>113.09</ele>
        <time>2021-08-20T12:24:32Z</time>
      </trkpt>
      <trkpt lat="43.28704" lon="-0.9876">
        <ele>111.17</ele>
        <time>2021-08-20T12:24:36Z</time>
      </trkpt>
      <trkpt lat="43.28705" lon="-0.98782">
        <ele>109.73</ele>
        <time>2021-08-20T12:24:38Z</time>
      </trkpt>
      <trkpt lat="43.28704" lon="-0.98793">
        <ele>109.73</ele>
        <time>2021-08-20T12:24:39Z</time>
      </trkpt>
      <trkpt lat="43.28702" lon="-0.98803">
        <ele>109.25</ele>
        <time>2021-08-20T12:24:40Z</time>
      </trkpt>
      <trkpt lat="43.28696" lon="-0.98838">
        <ele>105.88</ele>
        <time>2021-08-20T12:24:43Z</time>
      </trkpt>
      <trkpt lat="43.2869" lon="-0.98867">
        <ele>102.52</ele>
        <time>2021-08-20T12:24:45Z</time>
      </trkpt>
      <trkpt lat="43.28685" lon="-0.98897">
        <ele>99.15</ele>
        <time>2021-08-20T12:24:47Z</time>
      </trkpt>
      <trkpt lat="43.28678" lon="-0.98939">
        <ele>97.23</ele>
        <time>2021-08-20T12:24:50Z</time>
      </trkpt>
      <trkpt lat="43.28671" lon="-0.98978">
        <ele>97.71</ele>
        <time>2021-08-20T12:24:54Z</time>
      </trkpt>
      <trkpt lat="43.2867" lon="-0.98985">
        <ele>97.23</ele>
        <time>2021-08-20T12:24:55Z</time>
      </trkpt>
      <trkpt lat="43.28671" lon="-0.9899">
        <ele>97.23</ele>
        <time>2021-08-20T12:24:56Z</time>
      </trkpt>
      <trkpt lat="43.28673" lon="-0.98995">
        <ele>97.23</ele>
        <time>2021-08-20T12:24:57Z</time>
      </trkpt>
      <trkpt lat="43.28676" lon="-0.98998">
        <ele>97.23</ele>
        <time>2021-08-20T12:24:58Z</time>
      </trkpt>
      <trkpt lat="43.28678" lon="-0.98999">
        <ele>97.23</ele>
        <time>2021-08-20T12:24:59Z</time>
      </trkpt>
      <trkpt lat="43.28682" lon="-0.99001">
        <ele>97.23</ele>
        <time>2021-08-20T12:25:00Z</time>
      </trkpt>
      <trkpt lat="43.28698" lon="-0.99009">
        <ele>96.75</ele>
        <time>2021-08-20T12:25:04Z</time>
      </trkpt>
      <trkpt lat="43.28701" lon="-0.99013">
        <ele>96.75</ele>
        <time>2021-08-20T12:25:05Z</time>
      </trkpt>
      <trkpt lat="43.28705" lon="-0.99017">
        <ele>96.75</ele>
        <time>2021-08-20T12:25:06Z</time>
      </trkpt>
      <trkpt lat="43.28708" lon="-0.99021">
        <ele>96.75</ele>
        <time>2021-08-20T12:25:07Z</time>
      </trkpt>
      <trkpt lat="43.28711" lon="-0.99025">
        <ele>96.75</ele>
        <time>2021-08-20T12:25:08Z</time>
      </trkpt>
      <trkpt lat="43.28713" lon="-0.9903">
        <ele>96.75</ele>
        <time>2021-08-20T12:25:09Z</time>
      </trkpt>
      <trkpt lat="43.28715" lon="-0.99035">
        <ele>96.75</ele>
        <time>2021-08-20T12:25:10Z</time>
      </trkpt>
      <trkpt lat="43.28741" lon="-0.99084">
        <ele>96.75</ele>
        <time>2021-08-20T12:25:19Z</time>
      </trkpt>
      <trkpt lat="43.28745" lon="-0.99089">
        <ele>96.75</ele>
        <time>2021-08-20T12:25:20Z</time>
      </trkpt>
      <trkpt lat="43.28749" lon="-0.99095">
        <ele>96.75</ele>
        <time>2021-08-20T12:25:21Z</time>
      </trkpt>
      <trkpt lat="43.28753" lon="-0.99101">
        <ele>96.75</ele>
        <time>2021-08-20T12:25:22Z</time>
      </trkpt>
      <trkpt lat="43.28756" lon="-0.99107">
        <ele>96.75</ele>
        <time>2021-08-20T12:25:23Z</time>
      </trkpt>
      <trkpt lat="43.28771" lon="-0.99135">
        <ele>98.19</ele>
        <time>2021-08-20T12:25:28Z</time>
      </trkpt>
      <trkpt lat="43.28773" lon="-0.99141">
        <ele>98.19</ele>
        <time>2021-08-20T12:25:29Z</time>
      </trkpt>
      <trkpt lat="43.28776" lon="-0.99146">
        <ele>98.19</ele>
        <time>2021-08-20T12:25:30Z</time>
      </trkpt>
      <trkpt lat="43.28815" lon="-0.99214">
        <ele>98.19</ele>
        <time>2021-08-20T12:25:42Z</time>
      </trkpt>
      <trkpt lat="43.28818" lon="-0.9922">
        <ele>98.19</ele>
        <time>2021-08-20T12:25:43Z</time>
      </trkpt>
      <trkpt lat="43.28821" lon="-0.99225">
        <ele>98.19</ele>
        <time>2021-08-20T12:25:44Z</time>
      </trkpt>
      <trkpt lat="43.28834" lon="-0.99248">
        <ele>98.19</ele>
        <time>2021-08-20T12:25:48Z</time>
      </trkpt>
      <trkpt lat="43.28837" lon="-0.99255">
        <ele>98.19</ele>
        <time>2021-08-20T12:25:49Z</time>
      </trkpt>
      <trkpt lat="43.28845" lon="-0.99275">
        <ele>98.19</ele>
        <time>2021-08-20T12:25:52Z</time>
      </trkpt>
      <trkpt lat="43.28852" lon="-0.99298">
        <ele>97.23</ele>
        <time>2021-08-20T12:25:55Z</time>
      </trkpt>
      <trkpt lat="43.28875" lon="-0.99364">
        <ele>95.31</ele>
        <time>2021-08-20T12:26:03Z</time>
      </trkpt>
      <trkpt lat="43.28902" lon="-0.99445">
        <ele>93.87</ele>
        <time>2021-08-20T12:26:12Z</time>
      </trkpt>
      <trkpt lat="43.28921" lon="-0.99501">
        <ele>92.9</ele>
        <time>2021-08-20T12:26:18Z</time>
      </trkpt>
      <trkpt lat="43.28944" lon="-0.99568">
        <ele>92.9</ele>
        <time>2021-08-20T12:26:26Z</time>
      </trkpt>
      <trkpt lat="43.28946" lon="-0.99576">
        <ele>92.9</ele>
        <time>2021-08-20T12:26:27Z</time>
      </trkpt>
      <trkpt lat="43.28948" lon="-0.99585">
        <ele>92.9</ele>
        <time>2021-08-20T12:26:28Z</time>
      </trkpt>
      <trkpt lat="43.28967" lon="-0.9964">
        <ele>92.9</ele>
        <time>2021-08-20T12:26:36Z</time>
      </trkpt>
      <trkpt lat="43.28987" lon="-0.99699">
        <ele>92.9</ele>
        <time>2021-08-20T12:26:44Z</time>
      </trkpt>
      <trkpt lat="43.29003" lon="-0.99741">
        <ele>91.46</ele>
        <time>2021-08-20T12:26:49Z</time>
      </trkpt>
      <trkpt lat="43.29008" lon="-0.99749">
        <ele>90.98</ele>
        <time>2021-08-20T12:26:50Z</time>
      </trkpt>
      <trkpt lat="43.29023" lon="-0.99773">
        <ele>89.54</ele>
        <time>2021-08-20T12:26:53Z</time>
      </trkpt>
      <trkpt lat="43.29062" lon="-0.99813">
        <ele>90.02</ele>
        <time>2021-08-20T12:27:00Z</time>
      </trkpt>
      <trkpt lat="43.29087" lon="-0.99839">
        <ele>90.02</ele>
        <time>2021-08-20T12:27:05Z</time>
      </trkpt>
      <trkpt lat="43.29092" lon="-0.99844">
        <ele>90.02</ele>
        <time>2021-08-20T12:27:06Z</time>
      </trkpt>
      <trkpt lat="43.29102" lon="-0.99854">
        <ele>90.02</ele>
        <time>2021-08-20T12:27:08Z</time>
      </trkpt>
      <trkpt lat="43.29112" lon="-0.99862">
        <ele>90.02</ele>
        <time>2021-08-20T12:27:10Z</time>
      </trkpt>
      <trkpt lat="43.29142" lon="-0.9989">
        <ele>90.02</ele>
        <time>2021-08-20T12:27:17Z</time>
      </trkpt>
      <trkpt lat="43.29174" lon="-0.99922">
        <ele>90.02</ele>
        <time>2021-08-20T12:27:25Z</time>
      </trkpt>
      <trkpt lat="43.29205" lon="-0.99949">
        <ele>90.02</ele>
        <time>2021-08-20T12:27:32Z</time>
      </trkpt>
      <trkpt lat="43.2922" lon="-0.99959">
        <ele>89.06</ele>
        <time>2021-08-20T12:27:35Z</time>
      </trkpt>
      <trkpt lat="43.29224" lon="-0.99964">
        <ele>89.06</ele>
        <time>2021-08-20T12:27:36Z</time>
      </trkpt>
      <trkpt lat="43.29228" lon="-0.9997">
        <ele>89.06</ele>
        <time>2021-08-20T12:27:37Z</time>
      </trkpt>
      <trkpt lat="43.2923" lon="-0.99974">
        <ele>89.06</ele>
        <time>2021-08-20T12:27:38Z</time>
      </trkpt>
      <trkpt lat="43.29233" lon="-0.99979">
        <ele>89.06</ele>
        <time>2021-08-20T12:27:39Z</time>
      </trkpt>
      <trkpt lat="43.29235" lon="-0.99984">
        <ele>89.06</ele>
        <time>2021-08-20T12:27:40Z</time>
      </trkpt>
      <trkpt lat="43.29237" lon="-0.99989">
        <ele>89.06</ele>
        <time>2021-08-20T12:27:41Z</time>
      </trkpt>
      <trkpt lat="43.29239" lon="-0.99993">
        <ele>89.06</ele>
        <time>2021-08-20T12:27:42Z</time>
      </trkpt>
      <trkpt lat="43.29242" lon="-1">
        <ele>90.5</ele>
        <time>2021-08-20T12:27:44Z</time>
      </trkpt>
      <trkpt lat="43.29246" lon="-1.00011">
        <ele>91.46</ele>
        <time>2021-08-20T12:27:48Z</time>
      </trkpt>
      <trkpt lat="43.29246" lon="-1.00013">
        <ele>91.46</ele>
        <time>2021-08-20T12:27:49Z</time>
      </trkpt>
      <trkpt lat="43.29246" lon="-1.00016">
        <ele>91.46</ele>
        <time>2021-08-20T12:27:50Z</time>
      </trkpt>
      <trkpt lat="43.2925" lon="-1.00036">
        <ele>92.9</ele>
        <time>2021-08-20T12:27:59Z</time>
      </trkpt>
      <trkpt lat="43.29251" lon="-1.00037">
        <ele>92.9</ele>
        <time>2021-08-20T12:28:06Z</time>
      </trkpt>
      <trkpt lat="43.2925" lon="-1.00036">
        <ele>92.9</ele>
        <time>2021-08-20T12:28:16Z</time>
      </trkpt>
      <trkpt lat="43.2925" lon="-1.00035">
        <ele>92.9</ele>
        <time>2021-08-20T12:28:24Z</time>
      </trkpt>
      <trkpt lat="43.2925" lon="-1.00035">
        <ele>92.9</ele>
        <time>2021-08-20T12:28:50Z</time>
      </trkpt>
      <trkpt lat="43.29249" lon="-1.00034">
        <ele>92.9</ele>
        <time>2021-08-20T12:29:19Z</time>
      </trkpt>
      <trkpt lat="43.29249" lon="-1.00032">
        <ele>92.9</ele>
        <time>2021-08-20T12:29:47Z</time>
      </trkpt>
      <trkpt lat="43.29247" lon="-1.00034">
        <ele>92.9</ele>
        <time>2021-08-20T12:30:18Z</time>
      </trkpt>
      <trkpt lat="43.29248" lon="-1.00035">
        <ele>92.9</ele>
        <time>2021-08-20T12:30:45Z</time>
      </trkpt>
      <trkpt lat="43.29248" lon="-1.00035">
        <ele>92.9</ele>
        <time>2021-08-20T12:31:09Z</time>
      </trkpt>
      <trkpt lat="43.29249" lon="-1.00034">
        <ele>92.9</ele>
        <time>2021-08-20T12:31:25Z</time>
      </trkpt>
      <trkpt lat="43.29249" lon="-1.00033">
        <ele>92.9</ele>
        <time>2021-08-20T12:31:35Z</time>
      </trkpt>
      <trkpt lat="43.2925" lon="-1.00035">
        <ele>92.42</ele>
        <time>2021-08-20T12:32:01Z</time>
      </trkpt>
      <trkpt lat="43.2925" lon="-1.00036">
        <ele>92.42</ele>
        <time>2021-08-20T12:32:24Z</time>
      </trkpt>
      <trkpt lat="43.29251" lon="-1.00036">
        <ele>92.42</ele>
        <time>2021-08-20T12:32:47Z</time>
      </trkpt>
      <trkpt lat="43.29252" lon="-1.00036">
        <ele>92.42</ele>
        <time>2021-08-20T12:33:12Z</time>
      </trkpt>
      <trkpt lat="43.2925" lon="-1.00037">
        <ele>92.42</ele>
        <time>2021-08-20T12:33:39Z</time>
      </trkpt>
      <trkpt lat="43.29249" lon="-1.00037">
        <ele>92.42</ele>
        <time>2021-08-20T12:34:09Z</time>
      </trkpt>
      <trkpt lat="43.2925" lon="-1.0004">
        <ele>91.94</ele>
        <time>2021-08-20T12:34:37Z</time>
      </trkpt>
      <trkpt lat="43.29249" lon="-1.0004">
        <ele>91.94</ele>
        <time>2021-08-20T12:35:07Z</time>
      </trkpt>
      <trkpt lat="43.29249" lon="-1.00037">
        <ele>91.94</ele>
        <time>2021-08-20T12:35:33Z</time>
      </trkpt>
      <trkpt lat="43.29249" lon="-1.00035">
        <ele>91.94</ele>
        <time>2021-08-20T12:36:04Z</time>
      </trkpt>
      <trkpt lat="43.29249" lon="-1.00033">
        <ele>91.94</ele>
        <time>2021-08-20T12:36:21Z</time>
      </trkpt>
      <trkpt lat="43.29249" lon="-1.00033">
        <ele>91.94</ele>
        <time>2021-08-20T12:36:29Z</time>
      </trkpt>
      <trkpt lat="43.29251" lon="-1.00038">
        <ele>91.94</ele>
        <time>2021-08-20T12:36:55Z</time>
      </trkpt>
      <trkpt lat="43.2925" lon="-1.00037">
        <ele>92.42</ele>
        <time>2021-08-20T12:37:23Z</time>
      </trkpt>
      <trkpt lat="43.29251" lon="-1.00036">
        <ele>91.94</ele>
        <time>2021-08-20T12:37:52Z</time>
      </trkpt>
      <trkpt lat="43.29251" lon="-1.00038">
        <ele>91.94</ele>
        <time>2021-08-20T12:38:18Z</time>
      </trkpt>
      <trkpt lat="43.2925" lon="-1.00037">
        <ele>91.94</ele>
        <time>2021-08-20T12:38:49Z</time>
      </trkpt>
      <trkpt lat="43.2925" lon="-1.00038">
        <ele>91.94</ele>
        <time>2021-08-20T12:39:16Z</time>
      </trkpt>
      <trkpt lat="43.2925" lon="-1.00038">
        <ele>91.94</ele>
        <time>2021-08-20T12:39:32Z</time>
      </trkpt>
      <trkpt lat="43.29251" lon="-1.00037">
        <ele>91.94</ele>
        <time>2021-08-20T12:39:57Z</time>
      </trkpt>
      <trkpt lat="43.2925" lon="-1.00038">
        <ele>91.94</ele>
        <time>2021-08-20T12:40:20Z</time>
      </trkpt>
      <trkpt lat="43.29249" lon="-1.00037">
        <ele>91.94</ele>
        <time>2021-08-20T12:40:42Z</time>
      </trkpt>
      <trkpt lat="43.29248" lon="-1.00037">
        <ele>91.94</ele>
        <time>2021-08-20T12:41:00Z</time>
      </trkpt>
      <trkpt lat="43.29249" lon="-1.00038">
        <ele>91.94</ele>
        <time>2021-08-20T12:41:19Z</time>
      </trkpt>
      <trkpt lat="43.29248" lon="-1.00039">
        <ele>91.46</ele>
        <time>2021-08-20T12:41:24Z</time>
      </trkpt>
      <trkpt lat="43.29249" lon="-1.00037">
        <ele>91.94</ele>
        <time>2021-08-20T12:41:44Z</time>
      </trkpt>
      <trkpt lat="43.29249" lon="-1.00037">
        <ele>91.94</ele>
        <time>2021-08-20T12:42:09Z</time>
      </trkpt>
      <trkpt lat="43.29249" lon="-1.00036">
        <ele>91.94</ele>
        <time>2021-08-20T12:42:35Z</time>
      </trkpt>
      <trkpt lat="43.29249" lon="-1.00036">
        <ele>91.94</ele>
        <time>2021-08-20T12:42:55Z</time>
      </trkpt>
      <trkpt lat="43.29249" lon="-1.00036">
        <ele>91.94</ele>
        <time>2021-08-20T12:43:15Z</time>
      </trkpt>
      <trkpt lat="43.29249" lon="-1.00037">
        <ele>91.94</ele>
        <time>2021-08-20T12:43:29Z</time>
      </trkpt>
      <trkpt lat="43.2925" lon="-1.00037">
        <ele>91.94</ele>
        <time>2021-08-20T12:43:54Z</time>
      </trkpt>
      <trkpt lat="43.29251" lon="-1.00036">
        <ele>91.94</ele>
        <time>2021-08-20T12:44:19Z</time>
      </trkpt>
      <trkpt lat="43.2925" lon="-1.00036">
        <ele>91.94</ele>
        <time>2021-08-20T12:44:48Z</time>
      </trkpt>
      <trkpt lat="43.29249" lon="-1.00037">
        <ele>91.94</ele>
        <time>2021-08-20T12:45:05Z</time>
      </trkpt>
      <trkpt lat="43.2925" lon="-1.00037">
        <ele>91.94</ele>
        <time>2021-08-20T12:45:30Z</time>
      </trkpt>
      <trkpt lat="43.29249" lon="-1.00037">
        <ele>91.94</ele>
        <time>2021-08-20T12:45:49Z</time>
      </trkpt>
      <trkpt lat="43.2925" lon="-1.00038">
        <ele>91.94</ele>
        <time>2021-08-20T12:46:13Z</time>
      </trkpt>
      <trkpt lat="43.2925" lon="-1.00038">
        <ele>91.94</ele>
        <time>2021-08-20T12:46:32Z</time>
      </trkpt>
      <trkpt lat="43.29249" lon="-1.00035">
        <ele>91.94</ele>
        <time>2021-08-20T12:46:57Z</time>
      </trkpt>
      <trkpt lat="43.2925" lon="-1.00034">
        <ele>92.42</ele>
        <time>2021-08-20T12:47:18Z</time>
      </trkpt>
      <trkpt lat="43.29251" lon="-1.00038">
        <ele>92.9</ele>
        <time>2021-08-20T12:47:31Z</time>
      </trkpt>
      <trkpt lat="43.29251" lon="-1.00041">
        <ele>92.9</ele>
        <time>2021-08-20T12:47:39Z</time>
      </trkpt>
      <trkpt lat="43.29251" lon="-1.00041">
        <ele>93.39</ele>
        <time>2021-08-20T12:47:52Z</time>
      </trkpt>
      <trkpt lat="43.29251" lon="-1.00042">
        <ele>93.39</ele>
        <time>2021-08-20T12:48:03Z</time>
      </trkpt>
      <trkpt lat="43.29255" lon="-1.00053">
        <ele>93.87</ele>
        <time>2021-08-20T12:48:11Z</time>
      </trkpt>
      <trkpt lat="43.29255" lon="-1.00069">
        <ele>95.31</ele>
        <time>2021-08-20T12:48:21Z</time>
      </trkpt>
      <trkpt lat="43.29254" lon="-1.00077">
        <ele>95.31</ele>
        <time>2021-08-20T12:48:29Z</time>
      </trkpt>
      <trkpt lat="43.29253" lon="-1.00078">
        <ele>95.31</ele>
        <time>2021-08-20T12:48:34Z</time>
      </trkpt>
      <trkpt lat="43.29249" lon="-1.00085">
        <ele>95.79</ele>
        <time>2021-08-20T12:48:38Z</time>
      </trkpt>
      <trkpt lat="43.29248" lon="-1.00086">
        <ele>95.79</ele>
        <time>2021-08-20T12:48:39Z</time>
      </trkpt>
      <trkpt lat="43.29247" lon="-1.00088">
        <ele>95.79</ele>
        <time>2021-08-20T12:48:40Z</time>
      </trkpt>
      <trkpt lat="43.29246" lon="-1.0009">
        <ele>96.27</ele>
        <time>2021-08-20T12:48:41Z</time>
      </trkpt>
      <trkpt lat="43.29245" lon="-1.00092">
        <ele>96.27</ele>
        <time>2021-08-20T12:48:42Z</time>
      </trkpt>
      <trkpt lat="43.29233" lon="-1.0011">
        <ele>97.71</ele>
        <time>2021-08-20T12:48:52Z</time>
      </trkpt>
      <trkpt lat="43.29221" lon="-1.00128">
        <ele>99.15</ele>
        <time>2021-08-20T12:49:01Z</time>
      </trkpt>
      <trkpt lat="43.29211" lon="-1.00146">
        <ele>100.11</ele>
        <time>2021-08-20T12:49:09Z</time>
      </trkpt>
      <trkpt lat="43.29199" lon="-1.00162">
        <ele>101.08</ele>
        <time>2021-08-20T12:49:17Z</time>
      </trkpt>
      <trkpt lat="43.29188" lon="-1.0018">
        <ele>102.04</ele>
        <time>2021-08-20T12:49:25Z</time>
      </trkpt>
      <trkpt lat="43.29177" lon="-1.00196">
        <ele>103</ele>
        <time>2021-08-20T12:49:33Z</time>
      </trkpt>
      <trkpt lat="43.29166" lon="-1.00213">
        <ele>104.44</ele>
        <time>2021-08-20T12:49:41Z</time>
      </trkpt>
      <trkpt lat="43.29152" lon="-1.00234">
        <ele>105.88</ele>
        <time>2021-08-20T12:49:51Z</time>
      </trkpt>
      <trkpt lat="43.29141" lon="-1.00254">
        <ele>107.32</ele>
        <time>2021-08-20T12:50:00Z</time>
      </trkpt>
      <trkpt lat="43.29134" lon="-1.00261">
        <ele>107.81</ele>
        <time>2021-08-20T12:50:04Z</time>
      </trkpt>
      <trkpt lat="43.29132" lon="-1.00263">
        <ele>108.29</ele>
        <time>2021-08-20T12:50:05Z</time>
      </trkpt>
      <trkpt lat="43.29131" lon="-1.00265">
        <ele>108.29</ele>
        <time>2021-08-20T12:50:06Z</time>
      </trkpt>
      <trkpt lat="43.2913" lon="-1.00268">
        <ele>108.29</ele>
        <time>2021-08-20T12:50:07Z</time>
      </trkpt>
      <trkpt lat="43.2913" lon="-1.0027">
        <ele>108.29</ele>
        <time>2021-08-20T12:50:08Z</time>
      </trkpt>
      <trkpt lat="43.29128" lon="-1.00272">
        <ele>108.77</ele>
        <time>2021-08-20T12:50:09Z</time>
      </trkpt>
      <trkpt lat="43.29127" lon="-1.00274">
        <ele>109.25</ele>
        <time>2021-08-20T12:50:10Z</time>
      </trkpt>
      <trkpt lat="43.29125" lon="-1.00276">
        <ele>109.25</ele>
        <time>2021-08-20T12:50:11Z</time>
      </trkpt>
      <trkpt lat="43.2911" lon="-1.00302">
        <ele>110.21</ele>
        <time>2021-08-20T12:50:22Z</time>
      </trkpt>
      <trkpt lat="43.29099" lon="-1.00322">
        <ele>111.65</ele>
        <time>2021-08-20T12:50:30Z</time>
      </trkpt>
      <trkpt lat="43.29088" lon="-1.00345">
        <ele>112.61</ele>
        <time>2021-08-20T12:50:38Z</time>
      </trkpt>
      <trkpt lat="43.29074" lon="-1.00371">
        <ele>113.57</ele>
        <time>2021-08-20T12:50:47Z</time>
      </trkpt>
      <trkpt lat="43.29056" lon="-1.00405">
        <ele>114.05</ele>
        <time>2021-08-20T12:50:57Z</time>
      </trkpt>
      <trkpt lat="43.29046" lon="-1.00436">
        <ele>115.01</ele>
        <time>2021-08-20T12:51:05Z</time>
      </trkpt>
      <trkpt lat="43.29044" lon="-1.00464">
        <ele>116.46</ele>
        <time>2021-08-20T12:51:14Z</time>
      </trkpt>
      <trkpt lat="43.29043" lon="-1.00491">
        <ele>117.9</ele>
        <time>2021-08-20T12:51:23Z</time>
      </trkpt>
      <trkpt lat="43.29043" lon="-1.00521">
        <ele>119.34</ele>
        <time>2021-08-20T12:51:33Z</time>
      </trkpt>
      <trkpt lat="43.29043" lon="-1.0055">
        <ele>120.78</ele>
        <time>2021-08-20T12:51:43Z</time>
      </trkpt>
      <trkpt lat="43.29045" lon="-1.00579">
        <ele>122.71</ele>
        <time>2021-08-20T12:51:53Z</time>
      </trkpt>
      <trkpt lat="43.29048" lon="-1.00605">
        <ele>124.15</ele>
        <time>2021-08-20T12:52:02Z</time>
      </trkpt>
      <trkpt lat="43.29053" lon="-1.00637">
        <ele>126.07</ele>
        <time>2021-08-20T12:52:13Z</time>
      </trkpt>
      <trkpt lat="43.29058" lon="-1.0067">
        <ele>127.51</ele>
        <time>2021-08-20T12:52:24Z</time>
      </trkpt>
      <trkpt lat="43.29064" lon="-1.00693">
        <ele>128.95</ele>
        <time>2021-08-20T12:52:32Z</time>
      </trkpt>
      <trkpt lat="43.29072" lon="-1.0072">
        <ele>130.4</ele>
        <time>2021-08-20T12:52:41Z</time>
      </trkpt>
      <trkpt lat="43.29077" lon="-1.00737">
        <ele>131.84</ele>
        <time>2021-08-20T12:52:47Z</time>
      </trkpt>
      <trkpt lat="43.29088" lon="-1.00759">
        <ele>133.28</ele>
        <time>2021-08-20T12:52:55Z</time>
      </trkpt>
      <trkpt lat="43.29096" lon="-1.00774">
        <ele>134.72</ele>
        <time>2021-08-20T12:53:01Z</time>
      </trkpt>
      <trkpt lat="43.29104" lon="-1.00796">
        <ele>135.2</ele>
        <time>2021-08-20T12:53:08Z</time>
      </trkpt>
      <trkpt lat="43.29104" lon="-1.00822">
        <ele>136.64</ele>
        <time>2021-08-20T12:53:17Z</time>
      </trkpt>
      <trkpt lat="43.29102" lon="-1.00844">
        <ele>138.09</ele>
        <time>2021-08-20T12:53:24Z</time>
      </trkpt>
      <trkpt lat="43.291" lon="-1.00878">
        <ele>140.01</ele>
        <time>2021-08-20T12:53:34Z</time>
      </trkpt>
      <trkpt lat="43.29103" lon="-1.0091">
        <ele>140.49</ele>
        <time>2021-08-20T12:53:42Z</time>
      </trkpt>
      <trkpt lat="43.2911" lon="-1.00955">
        <ele>140.49</ele>
        <time>2021-08-20T12:53:51Z</time>
      </trkpt>
      <trkpt lat="43.29111" lon="-1.00961">
        <ele>140.49</ele>
        <time>2021-08-20T12:53:52Z</time>
      </trkpt>
      <trkpt lat="43.29113" lon="-1.00977">
        <ele>140.01</ele>
        <time>2021-08-20T12:53:55Z</time>
      </trkpt>
      <trkpt lat="43.29114" lon="-1.00983">
        <ele>140.01</ele>
        <time>2021-08-20T12:53:56Z</time>
      </trkpt>
      <trkpt lat="43.29115" lon="-1.00988">
        <ele>140.01</ele>
        <time>2021-08-20T12:53:57Z</time>
      </trkpt>
      <trkpt lat="43.29122" lon="-1.01036">
        <ele>140.01</ele>
        <time>2021-08-20T12:54:05Z</time>
      </trkpt>
      <trkpt lat="43.29124" lon="-1.0105">
        <ele>139.05</ele>
        <time>2021-08-20T12:54:07Z</time>
      </trkpt>
      <trkpt lat="43.29125" lon="-1.01057">
        <ele>139.05</ele>
        <time>2021-08-20T12:54:08Z</time>
      </trkpt>
      <trkpt lat="43.29126" lon="-1.01065">
        <ele>138.57</ele>
        <time>2021-08-20T12:54:09Z</time>
      </trkpt>
      <trkpt lat="43.29127" lon="-1.01072">
        <ele>138.57</ele>
        <time>2021-08-20T12:54:10Z</time>
      </trkpt>
      <trkpt lat="43.29135" lon="-1.01141">
        <ele>135.68</ele>
        <time>2021-08-20T12:54:18Z</time>
      </trkpt>
      <trkpt lat="43.29143" lon="-1.01178">
        <ele>134.24</ele>
        <time>2021-08-20T12:54:22Z</time>
      </trkpt>
      <trkpt lat="43.29147" lon="-1.01185">
        <ele>134.24</ele>
        <time>2021-08-20T12:54:23Z</time>
      </trkpt>
      <trkpt lat="43.29151" lon="-1.01191">
        <ele>134.24</ele>
        <time>2021-08-20T12:54:24Z</time>
      </trkpt>
      <trkpt lat="43.29169" lon="-1.01208">
        <ele>133.76</ele>
        <time>2021-08-20T12:54:29Z</time>
      </trkpt>
      <trkpt lat="43.29173" lon="-1.0121">
        <ele>133.28</ele>
        <time>2021-08-20T12:54:30Z</time>
      </trkpt>
      <trkpt lat="43.29215" lon="-1.01224">
        <ele>130.4</ele>
        <time>2021-08-20T12:54:39Z</time>
      </trkpt>
      <trkpt lat="43.29231" lon="-1.01231">
        <ele>128.95</ele>
        <time>2021-08-20T12:54:44Z</time>
      </trkpt>
      <trkpt lat="43.29232" lon="-1.01233">
        <ele>128.95</ele>
        <time>2021-08-20T12:54:45Z</time>
      </trkpt>
      <trkpt lat="43.29232" lon="-1.01239">
        <ele>128.95</ele>
        <time>2021-08-20T12:54:47Z</time>
      </trkpt>
      <trkpt lat="43.29231" lon="-1.0125">
        <ele>128.95</ele>
        <time>2021-08-20T12:54:54Z</time>
      </trkpt>
      <trkpt lat="43.29232" lon="-1.01252">
        <ele>128.95</ele>
        <time>2021-08-20T12:55:01Z</time>
      </trkpt>
      <trkpt lat="43.29233" lon="-1.01252">
        <ele>128.95</ele>
        <time>2021-08-20T12:55:23Z</time>
      </trkpt>
      <trkpt lat="43.29233" lon="-1.01253">
        <ele>128.95</ele>
        <time>2021-08-20T12:55:46Z</time>
      </trkpt>
      <trkpt lat="43.29235" lon="-1.0125">
        <ele>128.95</ele>
        <time>2021-08-20T12:56:13Z</time>
      </trkpt>
      <trkpt lat="43.29234" lon="-1.01251">
        <ele>128.95</ele>
        <time>2021-08-20T12:56:50Z</time>
      </trkpt>
      <trkpt lat="43.29232" lon="-1.01251">
        <ele>128.95</ele>
        <time>2021-08-20T12:57:16Z</time>
      </trkpt>
      <trkpt lat="43.29233" lon="-1.01251">
        <ele>128.95</ele>
        <time>2021-08-20T12:57:52Z</time>
      </trkpt>
      <trkpt lat="43.29232" lon="-1.01251">
        <ele>128.95</ele>
        <time>2021-08-20T12:58:21Z</time>
      </trkpt>
      <trkpt lat="43.29232" lon="-1.01251">
        <ele>128.95</ele>
        <time>2021-08-20T12:58:46Z</time>
      </trkpt>
      <trkpt lat="43.29233" lon="-1.01252">
        <ele>128.95</ele>
        <time>2021-08-20T12:59:20Z</time>
      </trkpt>
      <trkpt lat="43.29233" lon="-1.01249">
        <ele>128.95</ele>
        <time>2021-08-20T12:59:53Z</time>
      </trkpt>
      <trkpt lat="43.29233" lon="-1.0125">
        <ele>128.95</ele>
        <time>2021-08-20T13:00:21Z</time>
      </trkpt>
      <trkpt lat="43.29231" lon="-1.0125">
        <ele>128.95</ele>
        <time>2021-08-20T13:00:39Z</time>
      </trkpt>
      <trkpt lat="43.29233" lon="-1.01249">
        <ele>128.95</ele>
        <time>2021-08-20T13:00:47Z</time>
      </trkpt>
      <trkpt lat="43.29233" lon="-1.01252">
        <ele>129.43</ele>
        <time>2021-08-20T13:01:18Z</time>
      </trkpt>
      <trkpt lat="43.29233" lon="-1.01251">
        <ele>129.43</ele>
        <time>2021-08-20T13:01:34Z</time>
      </trkpt>
      <trkpt lat="43.29233" lon="-1.01251">
        <ele>129.43</ele>
        <time>2021-08-20T13:01:48Z</time>
      </trkpt>
      <trkpt lat="43.29235" lon="-1.0125">
        <ele>129.43</ele>
        <time>2021-08-20T13:01:53Z</time>
      </trkpt>
      <trkpt lat="43.29241" lon="-1.01247">
        <ele>129.43</ele>
        <time>2021-08-20T13:01:57Z</time>
      </trkpt>
      <trkpt lat="43.29243" lon="-1.01245">
        <ele>129.43</ele>
        <time>2021-08-20T13:01:58Z</time>
      </trkpt>
      <trkpt lat="43.29246" lon="-1.01243">
        <ele>129.43</ele>
        <time>2021-08-20T13:01:59Z</time>
      </trkpt>
      <trkpt lat="43.29248" lon="-1.0124">
        <ele>128.95</ele>
        <time>2021-08-20T13:02:00Z</time>
      </trkpt>
      <trkpt lat="43.2925" lon="-1.01238">
        <ele>128.47</ele>
        <time>2021-08-20T13:02:01Z</time>
      </trkpt>
      <trkpt lat="43.29254" lon="-1.01236">
        <ele>128.47</ele>
        <time>2021-08-20T13:02:02Z</time>
      </trkpt>
      <trkpt lat="43.29258" lon="-1.01235">
        <ele>127.99</ele>
        <time>2021-08-20T13:02:03Z</time>
      </trkpt>
      <trkpt lat="43.29261" lon="-1.01236">
        <ele>127.99</ele>
        <time>2021-08-20T13:02:04Z</time>
      </trkpt>
      <trkpt lat="43.29264" lon="-1.01238">
        <ele>127.99</ele>
        <time>2021-08-20T13:02:05Z</time>
      </trkpt>
      <trkpt lat="43.29267" lon="-1.0124">
        <ele>127.51</ele>
        <time>2021-08-20T13:02:06Z</time>
      </trkpt>
      <trkpt lat="43.29269" lon="-1.01244">
        <ele>127.03</ele>
        <time>2021-08-20T13:02:07Z</time>
      </trkpt>
      <trkpt lat="43.29271" lon="-1.01249">
        <ele>127.03</ele>
        <time>2021-08-20T13:02:08Z</time>
      </trkpt>
      <trkpt lat="43.29271" lon="-1.01254">
        <ele>126.55</ele>
        <time>2021-08-20T13:02:09Z</time>
      </trkpt>
      <trkpt lat="43.2927" lon="-1.0126">
        <ele>126.55</ele>
        <time>2021-08-20T13:02:10Z</time>
      </trkpt>
      <trkpt lat="43.29269" lon="-1.01266">
        <ele>126.55</ele>
        <time>2021-08-20T13:02:11Z</time>
      </trkpt>
      <trkpt lat="43.29267" lon="-1.01272">
        <ele>126.55</ele>
        <time>2021-08-20T13:02:12Z</time>
      </trkpt>
      <trkpt lat="43.29265" lon="-1.01279">
        <ele>126.07</ele>
        <time>2021-08-20T13:02:13Z</time>
      </trkpt>
      <trkpt lat="43.29261" lon="-1.01293">
        <ele>125.59</ele>
        <time>2021-08-20T13:02:15Z</time>
      </trkpt>
      <trkpt lat="43.29253" lon="-1.01328">
        <ele>122.71</ele>
        <time>2021-08-20T13:02:19Z</time>
      </trkpt>
      <trkpt lat="43.29252" lon="-1.01337">
        <ele>122.71</ele>
        <time>2021-08-20T13:02:20Z</time>
      </trkpt>
      <trkpt lat="43.29253" lon="-1.01347">
        <ele>122.71</ele>
        <time>2021-08-20T13:02:21Z</time>
      </trkpt>
      <trkpt lat="43.29254" lon="-1.01357">
        <ele>121.74</ele>
        <time>2021-08-20T13:02:22Z</time>
      </trkpt>
      <trkpt lat="43.29256" lon="-1.01367">
        <ele>121.26</ele>
        <time>2021-08-20T13:02:23Z</time>
      </trkpt>
      <trkpt lat="43.29261" lon="-1.01387">
        <ele>119.82</ele>
        <time>2021-08-20T13:02:25Z</time>
      </trkpt>
      <trkpt lat="43.29262" lon="-1.01397">
        <ele>119.34</ele>
        <time>2021-08-20T13:02:26Z</time>
      </trkpt>
      <trkpt lat="43.29262" lon="-1.01407">
        <ele>118.38</ele>
        <time>2021-08-20T13:02:27Z</time>
      </trkpt>
      <trkpt lat="43.29261" lon="-1.01438">
        <ele>116.94</ele>
        <time>2021-08-20T13:02:30Z</time>
      </trkpt>
      <trkpt lat="43.29262" lon="-1.01448">
        <ele>116.46</ele>
        <time>2021-08-20T13:02:31Z</time>
      </trkpt>
      <trkpt lat="43.29264" lon="-1.01458">
        <ele>115.5</ele>
        <time>2021-08-20T13:02:32Z</time>
      </trkpt>
      <trkpt lat="43.29283" lon="-1.01512">
        <ele>113.09</ele>
        <time>2021-08-20T13:02:38Z</time>
      </trkpt>
      <trkpt lat="43.29289" lon="-1.0152">
        <ele>111.65</ele>
        <time>2021-08-20T13:02:39Z</time>
      </trkpt>
      <trkpt lat="43.29315" lon="-1.0155">
        <ele>107.32</ele>
        <time>2021-08-20T13:02:43Z</time>
      </trkpt>
      <trkpt lat="43.29336" lon="-1.0158">
        <ele>103</ele>
        <time>2021-08-20T13:02:46Z</time>
      </trkpt>
      <trkpt lat="43.29361" lon="-1.01629">
        <ele>99.15</ele>
        <time>2021-08-20T13:02:50Z</time>
      </trkpt>
      <trkpt lat="43.29378" lon="-1.01694">
        <ele>98.19</ele>
        <time>2021-08-20T13:02:55Z</time>
      </trkpt>
      <trkpt lat="43.29381" lon="-1.01706">
        <ele>97.71</ele>
        <time>2021-08-20T13:02:56Z</time>
      </trkpt>
      <trkpt lat="43.29384" lon="-1.01718">
        <ele>97.71</ele>
        <time>2021-08-20T13:02:57Z</time>
      </trkpt>
      <trkpt lat="43.29402" lon="-1.01764">
        <ele>96.75</ele>
        <time>2021-08-20T13:03:01Z</time>
      </trkpt>
      <trkpt lat="43.29408" lon="-1.01774">
        <ele>96.27</ele>
        <time>2021-08-20T13:03:02Z</time>
      </trkpt>
      <trkpt lat="43.29415" lon="-1.01783">
        <ele>95.31</ele>
        <time>2021-08-20T13:03:03Z</time>
      </trkpt>
      <trkpt lat="43.29421" lon="-1.01792">
        <ele>95.31</ele>
        <time>2021-08-20T13:03:04Z</time>
      </trkpt>
      <trkpt lat="43.29462" lon="-1.01844">
        <ele>92.9</ele>
        <time>2021-08-20T13:03:11Z</time>
      </trkpt>
      <trkpt lat="43.29466" lon="-1.01849">
        <ele>92.9</ele>
        <time>2021-08-20T13:03:12Z</time>
      </trkpt>
      <trkpt lat="43.29468" lon="-1.01852">
        <ele>92.9</ele>
        <time>2021-08-20T13:03:13Z</time>
      </trkpt>
      <trkpt lat="43.2947" lon="-1.01854">
        <ele>92.9</ele>
        <time>2021-08-20T13:03:14Z</time>
      </trkpt>
      <trkpt lat="43.29475" lon="-1.01859">
        <ele>92.9</ele>
        <time>2021-08-20T13:03:17Z</time>
      </trkpt>
      <trkpt lat="43.29477" lon="-1.0186">
        <ele>92.9</ele>
        <time>2021-08-20T13:03:18Z</time>
      </trkpt>
      <trkpt lat="43.29496" lon="-1.0187">
        <ele>94.35</ele>
        <time>2021-08-20T13:03:25Z</time>
      </trkpt>
      <trkpt lat="43.29499" lon="-1.01874">
        <ele>94.83</ele>
        <time>2021-08-20T13:03:29Z</time>
      </trkpt>
      <trkpt lat="43.29498" lon="-1.01874">
        <ele>94.83</ele>
        <time>2021-08-20T13:03:35Z</time>
      </trkpt>
      <trkpt lat="43.29499" lon="-1.01874">
        <ele>94.83</ele>
        <time>2021-08-20T13:03:50Z</time>
      </trkpt>
      <trkpt lat="43.295" lon="-1.01874">
        <ele>94.83</ele>
        <time>2021-08-20T13:04:04Z</time>
      </trkpt>
      <trkpt lat="43.295" lon="-1.01874">
        <ele>94.83</ele>
        <time>2021-08-20T13:04:14Z</time>
      </trkpt>
      <trkpt lat="43.295" lon="-1.01873">
        <ele>94.83</ele>
        <time>2021-08-20T13:04:24Z</time>
      </trkpt>
      <trkpt lat="43.295" lon="-1.01871">
        <ele>94.83</ele>
        <time>2021-08-20T13:04:36Z</time>
      </trkpt>
      <trkpt lat="43.295" lon="-1.01871">
        <ele>94.83</ele>
        <time>2021-08-20T13:04:46Z</time>
      </trkpt>
      <trkpt lat="43.295" lon="-1.01872">
        <ele>94.35</ele>
        <time>2021-08-20T13:05:00Z</time>
      </trkpt>
      <trkpt lat="43.29501" lon="-1.01872">
        <ele>94.35</ele>
        <time>2021-08-20T13:05:12Z</time>
      </trkpt>
      <trkpt lat="43.29501" lon="-1.01873">
        <ele>94.35</ele>
        <time>2021-08-20T13:05:25Z</time>
      </trkpt>
      <trkpt lat="43.29499" lon="-1.01871">
        <ele>94.35</ele>
        <time>2021-08-20T13:05:36Z</time>
      </trkpt>
      <trkpt lat="43.29499" lon="-1.01871">
        <ele>94.35</ele>
        <time>2021-08-20T13:05:40Z</time>
      </trkpt>
      <trkpt lat="43.29497" lon="-1.01871">
        <ele>94.35</ele>
        <time>2021-08-20T13:05:45Z</time>
      </trkpt>
      <trkpt lat="43.29498" lon="-1.01871">
        <ele>94.35</ele>
        <time>2021-08-20T13:05:58Z</time>
      </trkpt>
      <trkpt lat="43.295" lon="-1.01871">
        <ele>94.35</ele>
        <time>2021-08-20T13:06:11Z</time>
      </trkpt>
      <trkpt lat="43.295" lon="-1.01871">
        <ele>94.35</ele>
        <time>2021-08-20T13:06:28Z</time>
      </trkpt>
      <trkpt lat="43.29501" lon="-1.0187">
        <ele>94.35</ele>
        <time>2021-08-20T13:06:42Z</time>
      </trkpt>
      <trkpt lat="43.29501" lon="-1.0187">
        <ele>94.35</ele>
        <time>2021-08-20T13:06:56Z</time>
      </trkpt>
      <trkpt lat="43.29501" lon="-1.01871">
        <ele>94.35</ele>
        <time>2021-08-20T13:07:12Z</time>
      </trkpt>
      <trkpt lat="43.295" lon="-1.01869">
        <ele>94.35</ele>
        <time>2021-08-20T13:07:27Z</time>
      </trkpt>
      <trkpt lat="43.295" lon="-1.01871">
        <ele>94.35</ele>
        <time>2021-08-20T13:07:40Z</time>
      </trkpt>
      <trkpt lat="43.295" lon="-1.01872">
        <ele>94.35</ele>
        <time>2021-08-20T13:07:56Z</time>
      </trkpt>
      <trkpt lat="43.295" lon="-1.01873">
        <ele>94.35</ele>
        <time>2021-08-20T13:08:08Z</time>
      </trkpt>
      <trkpt lat="43.295" lon="-1.01873">
        <ele>94.35</ele>
        <time>2021-08-20T13:08:20Z</time>
      </trkpt>
      <trkpt lat="43.295" lon="-1.01874">
        <ele>94.35</ele>
        <time>2021-08-20T13:08:39Z</time>
      </trkpt>
      <trkpt lat="43.295" lon="-1.01872">
        <ele>94.35</ele>
        <time>2021-08-20T13:08:56Z</time>
      </trkpt>
      <trkpt lat="43.29499" lon="-1.01871">
        <ele>94.35</ele>
        <time>2021-08-20T13:09:08Z</time>
      </trkpt>
      <trkpt lat="43.29499" lon="-1.01872">
        <ele>94.35</ele>
        <time>2021-08-20T13:09:24Z</time>
      </trkpt>
      <trkpt lat="43.295" lon="-1.01872">
        <ele>94.35</ele>
        <time>2021-08-20T13:09:39Z</time>
      </trkpt>
      <trkpt lat="43.295" lon="-1.01873">
        <ele>94.35</ele>
        <time>2021-08-20T13:09:50Z</time>
      </trkpt>
      <trkpt lat="43.295" lon="-1.01873">
        <ele>94.35</ele>
        <time>2021-08-20T13:10:00Z</time>
      </trkpt>
      <trkpt lat="43.295" lon="-1.01872">
        <ele>94.35</ele>
        <time>2021-08-20T13:10:13Z</time>
      </trkpt>
      <trkpt lat="43.295" lon="-1.01873">
        <ele>94.35</ele>
        <time>2021-08-20T13:10:30Z</time>
      </trkpt>
      <trkpt lat="43.29501" lon="-1.01873">
        <ele>94.35</ele>
        <time>2021-08-20T13:10:39Z</time>
      </trkpt>
      <trkpt lat="43.29502" lon="-1.01873">
        <ele>94.35</ele>
        <time>2021-08-20T13:10:45Z</time>
      </trkpt>
      <trkpt lat="43.29501" lon="-1.01873">
        <ele>94.35</ele>
        <time>2021-08-20T13:11:06Z</time>
      </trkpt>
      <trkpt lat="43.295" lon="-1.01873">
        <ele>94.35</ele>
        <time>2021-08-20T13:11:20Z</time>
      </trkpt>
      <trkpt lat="43.295" lon="-1.01873">
        <ele>93.87</ele>
        <time>2021-08-20T13:11:37Z</time>
      </trkpt>
      <trkpt lat="43.29499" lon="-1.01873">
        <ele>93.87</ele>
        <time>2021-08-20T13:11:56Z</time>
      </trkpt>
      <trkpt lat="43.295" lon="-1.01873">
        <ele>93.87</ele>
        <time>2021-08-20T13:12:09Z</time>
      </trkpt>
      <trkpt lat="43.29499" lon="-1.01872">
        <ele>93.87</ele>
        <time>2021-08-20T13:12:24Z</time>
      </trkpt>
      <trkpt lat="43.29499" lon="-1.01872">
        <ele>93.87</ele>
        <time>2021-08-20T13:12:41Z</time>
      </trkpt>
      <trkpt lat="43.29499" lon="-1.01871">
        <ele>93.87</ele>
        <time>2021-08-20T13:12:59Z</time>
      </trkpt>
      <trkpt lat="43.29499" lon="-1.01872">
        <ele>93.39</ele>
        <time>2021-08-20T13:13:18Z</time>
      </trkpt>
      <trkpt lat="43.29498" lon="-1.01871">
        <ele>93.39</ele>
        <time>2021-08-20T13:13:23Z</time>
      </trkpt>
      <trkpt lat="43.29497" lon="-1.01871">
        <ele>93.39</ele>
        <time>2021-08-20T13:13:31Z</time>
      </trkpt>
      <trkpt lat="43.29498" lon="-1.0187">
        <ele>93.39</ele>
        <time>2021-08-20T13:13:50Z</time>
      </trkpt>
      <trkpt lat="43.29496" lon="-1.0187">
        <ele>93.39</ele>
        <time>2021-08-20T13:13:54Z</time>
      </trkpt>
      <trkpt lat="43.29495" lon="-1.0187">
        <ele>93.39</ele>
        <time>2021-08-20T13:13:55Z</time>
      </trkpt>
      <trkpt lat="43.29494" lon="-1.01871">
        <ele>93.39</ele>
        <time>2021-08-20T13:13:56Z</time>
      </trkpt>
      <trkpt lat="43.29492" lon="-1.01873">
        <ele>93.39</ele>
        <time>2021-08-20T13:13:57Z</time>
      </trkpt>
      <trkpt lat="43.29492" lon="-1.01874">
        <ele>93.39</ele>
        <time>2021-08-20T13:13:58Z</time>
      </trkpt>
      <trkpt lat="43.29491" lon="-1.01877">
        <ele>93.39</ele>
        <time>2021-08-20T13:13:59Z</time>
      </trkpt>
      <trkpt lat="43.29492" lon="-1.01879">
        <ele>93.39</ele>
        <time>2021-08-20T13:14:00Z</time>
      </trkpt>
      <trkpt lat="43.29493" lon="-1.01882">
        <ele>92.9</ele>
        <time>2021-08-20T13:14:01Z</time>
      </trkpt>
      <trkpt lat="43.29495" lon="-1.01886">
        <ele>92.9</ele>
        <time>2021-08-20T13:14:02Z</time>
      </trkpt>
      <trkpt lat="43.29511" lon="-1.01914">
        <ele>91.94</ele>
        <time>2021-08-20T13:14:09Z</time>
      </trkpt>
      <trkpt lat="43.29519" lon="-1.01932">
        <ele>91.94</ele>
        <time>2021-08-20T13:14:13Z</time>
      </trkpt>
      <trkpt lat="43.29522" lon="-1.01937">
        <ele>91.94</ele>
        <time>2021-08-20T13:14:14Z</time>
      </trkpt>
      <trkpt lat="43.29525" lon="-1.01941">
        <ele>91.94</ele>
        <time>2021-08-20T13:14:15Z</time>
      </trkpt>
      <trkpt lat="43.29527" lon="-1.01945">
        <ele>91.46</ele>
        <time>2021-08-20T13:14:16Z</time>
      </trkpt>
      <trkpt lat="43.2953" lon="-1.0195">
        <ele>91.46</ele>
        <time>2021-08-20T13:14:17Z</time>
      </trkpt>
      <trkpt lat="43.29532" lon="-1.01955">
        <ele>91.46</ele>
        <time>2021-08-20T13:14:18Z</time>
      </trkpt>
      <trkpt lat="43.29534" lon="-1.0196">
        <ele>90.98</ele>
        <time>2021-08-20T13:14:19Z</time>
      </trkpt>
      <trkpt lat="43.29547" lon="-1.01982">
        <ele>90.98</ele>
        <time>2021-08-20T13:14:25Z</time>
      </trkpt>
      <trkpt lat="43.29556" lon="-1.02006">
        <ele>90.5</ele>
        <time>2021-08-20T13:14:30Z</time>
      </trkpt>
      <trkpt lat="43.29563" lon="-1.02026">
        <ele>89.06</ele>
        <time>2021-08-20T13:14:33Z</time>
      </trkpt>
      <trkpt lat="43.29577" lon="-1.02074">
        <ele>87.14</ele>
        <time>2021-08-20T13:14:39Z</time>
      </trkpt>
      <trkpt lat="43.29588" lon="-1.02127">
        <ele>86.18</ele>
        <time>2021-08-20T13:14:46Z</time>
      </trkpt>
      <trkpt lat="43.29595" lon="-1.02152">
        <ele>86.66</ele>
        <time>2021-08-20T13:14:51Z</time>
      </trkpt>
      <trkpt lat="43.29606" lon="-1.02163">
        <ele>87.62</ele>
        <time>2021-08-20T13:14:56Z</time>
      </trkpt>
      <trkpt lat="43.29611" lon="-1.02165">
        <ele>87.62</ele>
        <time>2021-08-20T13:14:58Z</time>
      </trkpt>
      <trkpt lat="43.29613" lon="-1.02165">
        <ele>87.62</ele>
        <time>2021-08-20T13:14:59Z</time>
      </trkpt>
      <trkpt lat="43.29624" lon="-1.02162">
        <ele>87.62</ele>
        <time>2021-08-20T13:15:02Z</time>
      </trkpt>
      <trkpt lat="43.29629" lon="-1.02163">
        <ele>86.66</ele>
        <time>2021-08-20T13:15:03Z</time>
      </trkpt>
      <trkpt lat="43.29634" lon="-1.02165">
        <ele>85.69</ele>
        <time>2021-08-20T13:15:04Z</time>
      </trkpt>
      <trkpt lat="43.29639" lon="-1.02169">
        <ele>85.69</ele>
        <time>2021-08-20T13:15:05Z</time>
      </trkpt>
      <trkpt lat="43.29643" lon="-1.02173">
        <ele>85.69</ele>
        <time>2021-08-20T13:15:06Z</time>
      </trkpt>
      <trkpt lat="43.29647" lon="-1.02177">
        <ele>85.69</ele>
        <time>2021-08-20T13:15:07Z</time>
      </trkpt>
      <trkpt lat="43.2965" lon="-1.02181">
        <ele>85.69</ele>
        <time>2021-08-20T13:15:08Z</time>
      </trkpt>
      <trkpt lat="43.29655" lon="-1.02183">
        <ele>84.73</ele>
        <time>2021-08-20T13:15:09Z</time>
      </trkpt>
      <trkpt lat="43.2966" lon="-1.02183">
        <ele>84.73</ele>
        <time>2021-08-20T13:15:10Z</time>
      </trkpt>
      <trkpt lat="43.29665" lon="-1.02181">
        <ele>84.73</ele>
        <time>2021-08-20T13:15:11Z</time>
      </trkpt>
      <trkpt lat="43.29669" lon="-1.02178">
        <ele>83.77</ele>
        <time>2021-08-20T13:15:12Z</time>
      </trkpt>
      <trkpt lat="43.29674" lon="-1.02173">
        <ele>82.81</ele>
        <time>2021-08-20T13:15:13Z</time>
      </trkpt>
      <trkpt lat="43.2968" lon="-1.02169">
        <ele>81.85</ele>
        <time>2021-08-20T13:15:14Z</time>
      </trkpt>
      <trkpt lat="43.29687" lon="-1.02167">
        <ele>80.41</ele>
        <time>2021-08-20T13:15:15Z</time>
      </trkpt>
      <trkpt lat="43.29695" lon="-1.02167">
        <ele>79.45</ele>
        <time>2021-08-20T13:15:16Z</time>
      </trkpt>
      <trkpt lat="43.29717" lon="-1.0217">
        <ele>76.08</ele>
        <time>2021-08-20T13:15:19Z</time>
      </trkpt>
      <trkpt lat="43.29725" lon="-1.02168">
        <ele>75.12</ele>
        <time>2021-08-20T13:15:20Z</time>
      </trkpt>
      <trkpt lat="43.29732" lon="-1.02164">
        <ele>74.16</ele>
        <time>2021-08-20T13:15:21Z</time>
      </trkpt>
      <trkpt lat="43.29738" lon="-1.02161">
        <ele>72.72</ele>
        <time>2021-08-20T13:15:22Z</time>
      </trkpt>
      <trkpt lat="43.29745" lon="-1.02158">
        <ele>72.24</ele>
        <time>2021-08-20T13:15:23Z</time>
      </trkpt>
      <trkpt lat="43.29753" lon="-1.02158">
        <ele>71.76</ele>
        <time>2021-08-20T13:15:24Z</time>
      </trkpt>
      <trkpt lat="43.29759" lon="-1.0216">
        <ele>70.79</ele>
        <time>2021-08-20T13:15:25Z</time>
      </trkpt>
      <trkpt lat="43.29765" lon="-1.02163">
        <ele>70.79</ele>
        <time>2021-08-20T13:15:26Z</time>
      </trkpt>
      <trkpt lat="43.2977" lon="-1.02167">
        <ele>70.31</ele>
        <time>2021-08-20T13:15:27Z</time>
      </trkpt>
      <trkpt lat="43.29775" lon="-1.02171">
        <ele>69.83</ele>
        <time>2021-08-20T13:15:28Z</time>
      </trkpt>
      <trkpt lat="43.29792" lon="-1.02186">
        <ele>68.87</ele>
        <time>2021-08-20T13:15:33Z</time>
      </trkpt>
      <trkpt lat="43.29798" lon="-1.02192">
        <ele>68.39</ele>
        <time>2021-08-20T13:15:36Z</time>
      </trkpt>
      <trkpt lat="43.29798" lon="-1.02194">
        <ele>68.39</ele>
        <time>2021-08-20T13:15:37Z</time>
      </trkpt>
      <trkpt lat="43.29799" lon="-1.02196">
        <ele>68.39</ele>
        <time>2021-08-20T13:15:38Z</time>
      </trkpt>
      <trkpt lat="43.298" lon="-1.02198">
        <ele>68.39</ele>
        <time>2021-08-20T13:15:39Z</time>
      </trkpt>
      <trkpt lat="43.29802" lon="-1.02199">
        <ele>68.39</ele>
        <time>2021-08-20T13:15:40Z</time>
      </trkpt>
      <trkpt lat="43.29803" lon="-1.022">
        <ele>68.39</ele>
        <time>2021-08-20T13:15:46Z</time>
      </trkpt>
      <trkpt lat="43.29803" lon="-1.022">
        <ele>68.39</ele>
        <time>2021-08-20T13:16:06Z</time>
      </trkpt>
      <trkpt lat="43.29804" lon="-1.02203">
        <ele>68.39</ele>
        <time>2021-08-20T13:16:25Z</time>
      </trkpt>
      <trkpt lat="43.29804" lon="-1.02204">
        <ele>68.39</ele>
        <time>2021-08-20T13:16:26Z</time>
      </trkpt>
      <trkpt lat="43.29805" lon="-1.02206">
        <ele>68.39</ele>
        <time>2021-08-20T13:16:27Z</time>
      </trkpt>
      <trkpt lat="43.29805" lon="-1.02208">
        <ele>68.39</ele>
        <time>2021-08-20T13:16:28Z</time>
      </trkpt>
      <trkpt lat="43.29806" lon="-1.02211">
        <ele>68.39</ele>
        <time>2021-08-20T13:16:29Z</time>
      </trkpt>
      <trkpt lat="43.29806" lon="-1.02214">
        <ele>68.39</ele>
        <time>2021-08-20T13:16:30Z</time>
      </trkpt>
      <trkpt lat="43.29806" lon="-1.02245">
        <ele>68.39</ele>
        <time>2021-08-20T13:16:37Z</time>
      </trkpt>
      <trkpt lat="43.29803" lon="-1.02287">
        <ele>68.39</ele>
        <time>2021-08-20T13:16:45Z</time>
      </trkpt>
      <trkpt lat="43.29806" lon="-1.02295">
        <ele>68.39</ele>
        <time>2021-08-20T13:16:47Z</time>
      </trkpt>
      <trkpt lat="43.29809" lon="-1.02297">
        <ele>68.39</ele>
        <time>2021-08-20T13:16:48Z</time>
      </trkpt>
      <trkpt lat="43.29816" lon="-1.023">
        <ele>69.83</ele>
        <time>2021-08-20T13:16:51Z</time>
      </trkpt>
      <trkpt lat="43.29841" lon="-1.02311">
        <ele>70.31</ele>
        <time>2021-08-20T13:16:59Z</time>
      </trkpt>
      <trkpt lat="43.29856" lon="-1.02319">
        <ele>68.39</ele>
        <time>2021-08-20T13:17:02Z</time>
      </trkpt>
      <trkpt lat="43.2986" lon="-1.02323">
        <ele>68.39</ele>
        <time>2021-08-20T13:17:03Z</time>
      </trkpt>
      <trkpt lat="43.29864" lon="-1.02328">
        <ele>68.39</ele>
        <time>2021-08-20T13:17:04Z</time>
      </trkpt>
      <trkpt lat="43.29866" lon="-1.02333">
        <ele>68.39</ele>
        <time>2021-08-20T13:17:05Z</time>
      </trkpt>
      <trkpt lat="43.29868" lon="-1.02338">
        <ele>68.39</ele>
        <time>2021-08-20T13:17:06Z</time>
      </trkpt>
      <trkpt lat="43.29869" lon="-1.02344">
        <ele>68.39</ele>
        <time>2021-08-20T13:17:07Z</time>
      </trkpt>
      <trkpt lat="43.29869" lon="-1.02349">
        <ele>68.39</ele>
        <time>2021-08-20T13:17:08Z</time>
      </trkpt>
      <trkpt lat="43.2987" lon="-1.02363">
        <ele>69.35</ele>
        <time>2021-08-20T13:17:11Z</time>
      </trkpt>
      <trkpt lat="43.2987" lon="-1.02383">
        <ele>70.31</ele>
        <time>2021-08-20T13:17:18Z</time>
      </trkpt>
      <trkpt lat="43.29872" lon="-1.02401">
        <ele>72.24</ele>
        <time>2021-08-20T13:17:27Z</time>
      </trkpt>
      <trkpt lat="43.29873" lon="-1.02413">
        <ele>73.68</ele>
        <time>2021-08-20T13:17:34Z</time>
      </trkpt>
      <trkpt lat="43.29874" lon="-1.02417">
        <ele>74.16</ele>
        <time>2021-08-20T13:17:36Z</time>
      </trkpt>
      <trkpt lat="43.29875" lon="-1.02419">
        <ele>74.16</ele>
        <time>2021-08-20T13:17:37Z</time>
      </trkpt>
      <trkpt lat="43.29875" lon="-1.02421">
        <ele>75.12</ele>
        <time>2021-08-20T13:17:38Z</time>
      </trkpt>
      <trkpt lat="43.29875" lon="-1.02422">
        <ele>75.12</ele>
        <time>2021-08-20T13:17:39Z</time>
      </trkpt>
      <trkpt lat="43.29875" lon="-1.02424">
        <ele>75.12</ele>
        <time>2021-08-20T13:17:40Z</time>
      </trkpt>
      <trkpt lat="43.29874" lon="-1.02439">
        <ele>76.56</ele>
        <time>2021-08-20T13:17:48Z</time>
      </trkpt>
      <trkpt lat="43.29875" lon="-1.02457">
        <ele>78</ele>
        <time>2021-08-20T13:17:57Z</time>
      </trkpt>
      <trkpt lat="43.29876" lon="-1.02476">
        <ele>79.45</ele>
        <time>2021-08-20T13:18:05Z</time>
      </trkpt>
      <trkpt lat="43.29881" lon="-1.02497">
        <ele>80.41</ele>
        <time>2021-08-20T13:18:14Z</time>
      </trkpt>
      <trkpt lat="43.29885" lon="-1.02507">
        <ele>81.37</ele>
        <time>2021-08-20T13:18:20Z</time>
      </trkpt>
      <trkpt lat="43.29886" lon="-1.0251">
        <ele>81.85</ele>
        <time>2021-08-20T13:18:23Z</time>
      </trkpt>
      <trkpt lat="43.29891" lon="-1.02525">
        <ele>83.29</ele>
        <time>2021-08-20T13:18:32Z</time>
      </trkpt>
      <trkpt lat="43.29893" lon="-1.02536">
        <ele>84.73</ele>
        <time>2021-08-20T13:18:40Z</time>
      </trkpt>
      <trkpt lat="43.29897" lon="-1.02553">
        <ele>85.69</ele>
        <time>2021-08-20T13:18:50Z</time>
      </trkpt>
      <trkpt lat="43.29902" lon="-1.02567">
        <ele>87.14</ele>
        <time>2021-08-20T13:18:59Z</time>
      </trkpt>
      <trkpt lat="43.29907" lon="-1.02582">
        <ele>88.58</ele>
        <time>2021-08-20T13:19:10Z</time>
      </trkpt>
      <trkpt lat="43.29906" lon="-1.0259">
        <ele>89.54</ele>
        <time>2021-08-20T13:19:17Z</time>
      </trkpt>
      <trkpt lat="43.29902" lon="-1.026">
        <ele>90.5</ele>
        <time>2021-08-20T13:19:26Z</time>
      </trkpt>
      <trkpt lat="43.29901" lon="-1.02601">
        <ele>90.5</ele>
        <time>2021-08-20T13:19:27Z</time>
      </trkpt>
      <trkpt lat="43.299" lon="-1.02603">
        <ele>90.98</ele>
        <time>2021-08-20T13:19:29Z</time>
      </trkpt>
      <trkpt lat="43.29899" lon="-1.02612">
        <ele>92.42</ele>
        <time>2021-08-20T13:19:37Z</time>
      </trkpt>
      <trkpt lat="43.29897" lon="-1.02624">
        <ele>93.39</ele>
        <time>2021-08-20T13:19:46Z</time>
      </trkpt>
      <trkpt lat="43.29894" lon="-1.02636">
        <ele>93.87</ele>
        <time>2021-08-20T13:19:55Z</time>
      </trkpt>
      <trkpt lat="43.29894" lon="-1.02649">
        <ele>94.35</ele>
        <time>2021-08-20T13:20:03Z</time>
      </trkpt>
      <trkpt lat="43.29897" lon="-1.02662">
        <ele>95.31</ele>
        <time>2021-08-20T13:20:12Z</time>
      </trkpt>
      <trkpt lat="43.29901" lon="-1.02669">
        <ele>95.79</ele>
        <time>2021-08-20T13:20:18Z</time>
      </trkpt>
      <trkpt lat="43.29903" lon="-1.0267">
        <ele>95.79</ele>
        <time>2021-08-20T13:20:19Z</time>
      </trkpt>
      <trkpt lat="43.2991" lon="-1.0268">
        <ele>97.23</ele>
        <time>2021-08-20T13:20:29Z</time>
      </trkpt>
      <trkpt lat="43.29916" lon="-1.02688">
        <ele>97.71</ele>
        <time>2021-08-20T13:20:37Z</time>
      </trkpt>
      <trkpt lat="43.29921" lon="-1.02694">
        <ele>98.19</ele>
        <time>2021-08-20T13:20:43Z</time>
      </trkpt>
      <trkpt lat="43.29924" lon="-1.02701">
        <ele>99.15</ele>
        <time>2021-08-20T13:20:49Z</time>
      </trkpt>
      <trkpt lat="43.2993" lon="-1.02709">
        <ele>100.6</ele>
        <time>2021-08-20T13:20:59Z</time>
      </trkpt>
      <trkpt lat="43.29935" lon="-1.02715">
        <ele>102.04</ele>
        <time>2021-08-20T13:21:07Z</time>
      </trkpt>
      <trkpt lat="43.29939" lon="-1.02722">
        <ele>102.52</ele>
        <time>2021-08-20T13:21:14Z</time>
      </trkpt>
      <trkpt lat="43.29941" lon="-1.02729">
        <ele>103.48</ele>
        <time>2021-08-20T13:21:21Z</time>
      </trkpt>
      <trkpt lat="43.2994" lon="-1.02731">
        <ele>103.48</ele>
        <time>2021-08-20T13:21:23Z</time>
      </trkpt>
      <trkpt lat="43.2994" lon="-1.02736">
        <ele>103.96</ele>
        <time>2021-08-20T13:21:26Z</time>
      </trkpt>
      <trkpt lat="43.29938" lon="-1.02744">
        <ele>104.92</ele>
        <time>2021-08-20T13:21:34Z</time>
      </trkpt>
      <trkpt lat="43.29937" lon="-1.02752">
        <ele>105.88</ele>
        <time>2021-08-20T13:21:42Z</time>
      </trkpt>
      <trkpt lat="43.29934" lon="-1.02758">
        <ele>106.84</ele>
        <time>2021-08-20T13:21:48Z</time>
      </trkpt>
      <trkpt lat="43.29933" lon="-1.0276">
        <ele>106.84</ele>
        <time>2021-08-20T13:21:49Z</time>
      </trkpt>
      <trkpt lat="43.29929" lon="-1.02767">
        <ele>107.32</ele>
        <time>2021-08-20T13:21:55Z</time>
      </trkpt>
      <trkpt lat="43.29927" lon="-1.02771">
        <ele>107.32</ele>
        <time>2021-08-20T13:22:01Z</time>
      </trkpt>
      <trkpt lat="43.29917" lon="-1.02785">
        <ele>107.81</ele>
        <time>2021-08-20T13:22:08Z</time>
      </trkpt>
      <trkpt lat="43.29908" lon="-1.02797">
        <ele>108.77</ele>
        <time>2021-08-20T13:22:15Z</time>
      </trkpt>
      <trkpt lat="43.29902" lon="-1.02805">
        <ele>109.25</ele>
        <time>2021-08-20T13:22:20Z</time>
      </trkpt>
      <trkpt lat="43.29898" lon="-1.02811">
        <ele>110.21</ele>
        <time>2021-08-20T13:22:26Z</time>
      </trkpt>
      <trkpt lat="43.29894" lon="-1.02816">
        <ele>111.65</ele>
        <time>2021-08-20T13:22:34Z</time>
      </trkpt>
      <trkpt lat="43.29892" lon="-1.0282">
        <ele>112.61</ele>
        <time>2021-08-20T13:22:41Z</time>
      </trkpt>
      <trkpt lat="43.2989" lon="-1.02825">
        <ele>113.57</ele>
        <time>2021-08-20T13:22:48Z</time>
      </trkpt>
      <trkpt lat="43.29888" lon="-1.02832">
        <ele>115.01</ele>
        <time>2021-08-20T13:22:56Z</time>
      </trkpt>
      <trkpt lat="43.29888" lon="-1.02838">
        <ele>115.98</ele>
        <time>2021-08-20T13:23:03Z</time>
      </trkpt>
      <trkpt lat="43.29886" lon="-1.02848">
        <ele>116.94</ele>
        <time>2021-08-20T13:23:11Z</time>
      </trkpt>
      <trkpt lat="43.29884" lon="-1.02854">
        <ele>118.38</ele>
        <time>2021-08-20T13:23:19Z</time>
      </trkpt>
      <trkpt lat="43.29884" lon="-1.02866">
        <ele>118.86</ele>
        <time>2021-08-20T13:23:28Z</time>
      </trkpt>
      <trkpt lat="43.29886" lon="-1.02872">
        <ele>119.82</ele>
        <time>2021-08-20T13:23:35Z</time>
      </trkpt>
      <trkpt lat="43.29886" lon="-1.02877">
        <ele>120.78</ele>
        <time>2021-08-20T13:23:41Z</time>
      </trkpt>
      <trkpt lat="43.29886" lon="-1.0288">
        <ele>120.78</ele>
        <time>2021-08-20T13:23:43Z</time>
      </trkpt>
      <trkpt lat="43.29886" lon="-1.02886">
        <ele>122.22</ele>
        <time>2021-08-20T13:23:49Z</time>
      </trkpt>
      <trkpt lat="43.29887" lon="-1.02898">
        <ele>122.71</ele>
        <time>2021-08-20T13:23:58Z</time>
      </trkpt>
      <trkpt lat="43.29887" lon="-1.02905">
        <ele>123.67</ele>
        <time>2021-08-20T13:24:06Z</time>
      </trkpt>
      <trkpt lat="43.29887" lon="-1.02909">
        <ele>124.15</ele>
        <time>2021-08-20T13:24:10Z</time>
      </trkpt>
      <trkpt lat="43.29885" lon="-1.02914">
        <ele>124.63</ele>
        <time>2021-08-20T13:24:17Z</time>
      </trkpt>
      <trkpt lat="43.29884" lon="-1.02917">
        <ele>125.11</ele>
        <time>2021-08-20T13:24:25Z</time>
      </trkpt>
      <trkpt lat="43.29884" lon="-1.02927">
        <ele>126.55</ele>
        <time>2021-08-20T13:24:36Z</time>
      </trkpt>
      <trkpt lat="43.29884" lon="-1.02936">
        <ele>127.03</ele>
        <time>2021-08-20T13:24:43Z</time>
      </trkpt>
      <trkpt lat="43.29885" lon="-1.02947">
        <ele>127.99</ele>
        <time>2021-08-20T13:24:52Z</time>
      </trkpt>
      <trkpt lat="43.29886" lon="-1.02955">
        <ele>128.47</ele>
        <time>2021-08-20T13:24:59Z</time>
      </trkpt>
      <trkpt lat="43.29886" lon="-1.02963">
        <ele>129.92</ele>
        <time>2021-08-20T13:25:08Z</time>
      </trkpt>
      <trkpt lat="43.29887" lon="-1.0297">
        <ele>130.88</ele>
        <time>2021-08-20T13:25:15Z</time>
      </trkpt>
      <trkpt lat="43.29888" lon="-1.02979">
        <ele>131.36</ele>
        <time>2021-08-20T13:25:24Z</time>
      </trkpt>
      <trkpt lat="43.29886" lon="-1.02987">
        <ele>132.8</ele>
        <time>2021-08-20T13:25:32Z</time>
      </trkpt>
      <trkpt lat="43.29885" lon="-1.02996">
        <ele>133.28</ele>
        <time>2021-08-20T13:25:39Z</time>
      </trkpt>
      <trkpt lat="43.29884" lon="-1.03003">
        <ele>134.24</ele>
        <time>2021-08-20T13:25:46Z</time>
      </trkpt>
      <trkpt lat="43.29883" lon="-1.03012">
        <ele>135.2</ele>
        <time>2021-08-20T13:25:53Z</time>
      </trkpt>
      <trkpt lat="43.29881" lon="-1.03017">
        <ele>135.2</ele>
        <time>2021-08-20T13:25:58Z</time>
      </trkpt>
      <trkpt lat="43.29874" lon="-1.03028">
        <ele>136.16</ele>
        <time>2021-08-20T13:26:06Z</time>
      </trkpt>
      <trkpt lat="43.29872" lon="-1.03035">
        <ele>137.61</ele>
        <time>2021-08-20T13:26:15Z</time>
      </trkpt>
      <trkpt lat="43.29866" lon="-1.03043">
        <ele>138.09</ele>
        <time>2021-08-20T13:26:23Z</time>
      </trkpt>
      <trkpt lat="43.29861" lon="-1.03049">
        <ele>139.53</ele>
        <time>2021-08-20T13:26:31Z</time>
      </trkpt>
      <trkpt lat="43.2986" lon="-1.03052">
        <ele>139.53</ele>
        <time>2021-08-20T13:26:34Z</time>
      </trkpt>
      <trkpt lat="43.29861" lon="-1.03063">
        <ele>140.97</ele>
        <time>2021-08-20T13:26:43Z</time>
      </trkpt>
      <trkpt lat="43.29862" lon="-1.03072">
        <ele>142.41</ele>
        <time>2021-08-20T13:26:52Z</time>
      </trkpt>
      <trkpt lat="43.29863" lon="-1.03081">
        <ele>142.89</ele>
        <time>2021-08-20T13:27:00Z</time>
      </trkpt>
      <trkpt lat="43.29862" lon="-1.0309">
        <ele>142.89</ele>
        <time>2021-08-20T13:27:07Z</time>
      </trkpt>
      <trkpt lat="43.29862" lon="-1.03109">
        <ele>142.89</ele>
        <time>2021-08-20T13:27:14Z</time>
      </trkpt>
      <trkpt lat="43.29866" lon="-1.03143">
        <ele>143.37</ele>
        <time>2021-08-20T13:27:24Z</time>
      </trkpt>
      <trkpt lat="43.29867" lon="-1.03165">
        <ele>143.37</ele>
        <time>2021-08-20T13:27:31Z</time>
      </trkpt>
      <trkpt lat="43.2987" lon="-1.03186">
        <ele>143.37</ele>
        <time>2021-08-20T13:27:38Z</time>
      </trkpt>
      <trkpt lat="43.29872" lon="-1.03208">
        <ele>143.85</ele>
        <time>2021-08-20T13:27:45Z</time>
      </trkpt>
      <trkpt lat="43.29874" lon="-1.0323">
        <ele>144.34</ele>
        <time>2021-08-20T13:27:53Z</time>
      </trkpt>
      <trkpt lat="43.29876" lon="-1.03253">
        <ele>144.82</ele>
        <time>2021-08-20T13:28:00Z</time>
      </trkpt>
      <trkpt lat="43.29876" lon="-1.03255">
        <ele>144.82</ele>
        <time>2021-08-20T13:28:01Z</time>
      </trkpt>
      <trkpt lat="43.29876" lon="-1.03258">
        <ele>144.82</ele>
        <time>2021-08-20T13:28:02Z</time>
      </trkpt>
      <trkpt lat="43.29879" lon="-1.03282">
        <ele>145.78</ele>
        <time>2021-08-20T13:28:10Z</time>
      </trkpt>
      <trkpt lat="43.29881" lon="-1.033">
        <ele>146.26</ele>
        <time>2021-08-20T13:28:16Z</time>
      </trkpt>
      <trkpt lat="43.2988" lon="-1.03322">
        <ele>146.74</ele>
        <time>2021-08-20T13:28:23Z</time>
      </trkpt>
      <trkpt lat="43.29879" lon="-1.03353">
        <ele>146.74</ele>
        <time>2021-08-20T13:28:31Z</time>
      </trkpt>
      <trkpt lat="43.2988" lon="-1.03387">
        <ele>145.78</ele>
        <time>2021-08-20T13:28:39Z</time>
      </trkpt>
      <trkpt lat="43.29879" lon="-1.03409">
        <ele>147.22</ele>
        <time>2021-08-20T13:28:46Z</time>
      </trkpt>
      <trkpt lat="43.29878" lon="-1.03428">
        <ele>149.62</ele>
        <time>2021-08-20T13:28:53Z</time>
      </trkpt>
      <trkpt lat="43.29882" lon="-1.03446">
        <ele>151.06</ele>
        <time>2021-08-20T13:29:00Z</time>
      </trkpt>
      <trkpt lat="43.2989" lon="-1.03463">
        <ele>152.51</ele>
        <time>2021-08-20T13:29:08Z</time>
      </trkpt>
      <trkpt lat="43.29896" lon="-1.03483">
        <ele>153.95</ele>
        <time>2021-08-20T13:29:16Z</time>
      </trkpt>
      <trkpt lat="43.299" lon="-1.03505">
        <ele>154.43</ele>
        <time>2021-08-20T13:29:23Z</time>
      </trkpt>
      <trkpt lat="43.29915" lon="-1.0354">
        <ele>154.43</ele>
        <time>2021-08-20T13:29:32Z</time>
      </trkpt>
      <trkpt lat="43.29917" lon="-1.03564">
        <ele>154.43</ele>
        <time>2021-08-20T13:29:38Z</time>
      </trkpt>
      <trkpt lat="43.29915" lon="-1.03567">
        <ele>154.43</ele>
        <time>2021-08-20T13:29:39Z</time>
      </trkpt>
      <trkpt lat="43.29913" lon="-1.0357">
        <ele>154.43</ele>
        <time>2021-08-20T13:29:40Z</time>
      </trkpt>
      <trkpt lat="43.2991" lon="-1.03573">
        <ele>154.43</ele>
        <time>2021-08-20T13:29:41Z</time>
      </trkpt>
      <trkpt lat="43.29907" lon="-1.03574">
        <ele>154.43</ele>
        <time>2021-08-20T13:29:42Z</time>
      </trkpt>
      <trkpt lat="43.29903" lon="-1.03576">
        <ele>154.43</ele>
        <time>2021-08-20T13:29:43Z</time>
      </trkpt>
      <trkpt lat="43.29871" lon="-1.03597">
        <ele>154.43</ele>
        <time>2021-08-20T13:29:53Z</time>
      </trkpt>
      <trkpt lat="43.29836" lon="-1.03626">
        <ele>154.91</ele>
        <time>2021-08-20T13:30:04Z</time>
      </trkpt>
      <trkpt lat="43.29803" lon="-1.03646">
        <ele>155.39</ele>
        <time>2021-08-20T13:30:14Z</time>
      </trkpt>
      <trkpt lat="43.29782" lon="-1.03663">
        <ele>156.83</ele>
        <time>2021-08-20T13:30:22Z</time>
      </trkpt>
      <trkpt lat="43.29763" lon="-1.03676">
        <ele>157.79</ele>
        <time>2021-08-20T13:30:30Z</time>
      </trkpt>
      <trkpt lat="43.29752" lon="-1.03684">
        <ele>159.72</ele>
        <time>2021-08-20T13:30:37Z</time>
      </trkpt>
      <trkpt lat="43.29739" lon="-1.03695">
        <ele>161.64</ele>
        <time>2021-08-20T13:30:47Z</time>
      </trkpt>
      <trkpt lat="43.29728" lon="-1.03706">
        <ele>163.08</ele>
        <time>2021-08-20T13:30:56Z</time>
      </trkpt>
      <trkpt lat="43.29714" lon="-1.03716">
        <ele>165</ele>
        <time>2021-08-20T13:31:06Z</time>
      </trkpt>
      <trkpt lat="43.29711" lon="-1.03718">
        <ele>165.48</ele>
        <time>2021-08-20T13:31:11Z</time>
      </trkpt>
      <trkpt lat="43.29705" lon="-1.03722">
        <ele>165.96</ele>
        <time>2021-08-20T13:31:19Z</time>
      </trkpt>
      <trkpt lat="43.29695" lon="-1.03729">
        <ele>168.37</ele>
        <time>2021-08-20T13:31:31Z</time>
      </trkpt>
      <trkpt lat="43.29689" lon="-1.03733">
        <ele>168.37</ele>
        <time>2021-08-20T13:31:39Z</time>
      </trkpt>
      <trkpt lat="43.29681" lon="-1.03738">
        <ele>170.29</ele>
        <time>2021-08-20T13:31:49Z</time>
      </trkpt>
      <trkpt lat="43.29673" lon="-1.03744">
        <ele>171.73</ele>
        <time>2021-08-20T13:32:00Z</time>
      </trkpt>
      <trkpt lat="43.29666" lon="-1.03749">
        <ele>173.17</ele>
        <time>2021-08-20T13:32:10Z</time>
      </trkpt>
      <trkpt lat="43.29658" lon="-1.03755">
        <ele>174.62</ele>
        <time>2021-08-20T13:32:20Z</time>
      </trkpt>
      <trkpt lat="43.29651" lon="-1.03758">
        <ele>175.58</ele>
        <time>2021-08-20T13:32:29Z</time>
      </trkpt>
      <trkpt lat="43.29644" lon="-1.03762">
        <ele>176.54</ele>
        <time>2021-08-20T13:32:38Z</time>
      </trkpt>
      <trkpt lat="43.29638" lon="-1.03766">
        <ele>178.46</ele>
        <time>2021-08-20T13:32:47Z</time>
      </trkpt>
      <trkpt lat="43.29633" lon="-1.03768">
        <ele>178.94</ele>
        <time>2021-08-20T13:32:55Z</time>
      </trkpt>
      <trkpt lat="43.29623" lon="-1.03771">
        <ele>180.87</ele>
        <time>2021-08-20T13:33:07Z</time>
      </trkpt>
      <trkpt lat="43.29617" lon="-1.03774">
        <ele>182.31</ele>
        <time>2021-08-20T13:33:15Z</time>
      </trkpt>
      <trkpt lat="43.29612" lon="-1.03776">
        <ele>182.31</ele>
        <time>2021-08-20T13:33:23Z</time>
      </trkpt>
      <trkpt lat="43.29606" lon="-1.03778">
        <ele>183.75</ele>
        <time>2021-08-20T13:33:31Z</time>
      </trkpt>
      <trkpt lat="43.29599" lon="-1.03782">
        <ele>185.19</ele>
        <time>2021-08-20T13:33:41Z</time>
      </trkpt>
      <trkpt lat="43.29591" lon="-1.03786">
        <ele>186.63</ele>
        <time>2021-08-20T13:33:53Z</time>
      </trkpt>
      <trkpt lat="43.29582" lon="-1.03791">
        <ele>188.56</ele>
        <time>2021-08-20T13:34:04Z</time>
      </trkpt>
      <trkpt lat="43.29576" lon="-1.03795">
        <ele>189.04</ele>
        <time>2021-08-20T13:34:12Z</time>
      </trkpt>
      <trkpt lat="43.2957" lon="-1.038">
        <ele>190.48</ele>
        <time>2021-08-20T13:34:22Z</time>
      </trkpt>
      <trkpt lat="43.29564" lon="-1.03802">
        <ele>191.44</ele>
        <time>2021-08-20T13:34:29Z</time>
      </trkpt>
      <trkpt lat="43.29557" lon="-1.03804">
        <ele>192.88</ele>
        <time>2021-08-20T13:34:38Z</time>
      </trkpt>
      <trkpt lat="43.29556" lon="-1.03804">
        <ele>192.88</ele>
        <time>2021-08-20T13:34:47Z</time>
      </trkpt>
      <trkpt lat="43.2955" lon="-1.03807">
        <ele>193.84</ele>
        <time>2021-08-20T13:34:57Z</time>
      </trkpt>
      <trkpt lat="43.29546" lon="-1.03811">
        <ele>194.32</ele>
        <time>2021-08-20T13:35:05Z</time>
      </trkpt>
      <trkpt lat="43.2954" lon="-1.03818">
        <ele>195.77</ele>
        <time>2021-08-20T13:35:14Z</time>
      </trkpt>
      <trkpt lat="43.29534" lon="-1.03822">
        <ele>196.73</ele>
        <time>2021-08-20T13:35:22Z</time>
      </trkpt>
      <trkpt lat="43.29526" lon="-1.03829">
        <ele>197.69</ele>
        <time>2021-08-20T13:35:30Z</time>
      </trkpt>
      <trkpt lat="43.2952" lon="-1.03835">
        <ele>198.17</ele>
        <time>2021-08-20T13:35:37Z</time>
      </trkpt>
      <trkpt lat="43.29518" lon="-1.03836">
        <ele>198.65</ele>
        <time>2021-08-20T13:35:39Z</time>
      </trkpt>
      <trkpt lat="43.29516" lon="-1.0384">
        <ele>199.13</ele>
        <time>2021-08-20T13:35:43Z</time>
      </trkpt>
      <trkpt lat="43.2951" lon="-1.03845">
        <ele>200.57</ele>
        <time>2021-08-20T13:35:51Z</time>
      </trkpt>
      <trkpt lat="43.29503" lon="-1.0385">
        <ele>201.05</ele>
        <time>2021-08-20T13:35:59Z</time>
      </trkpt>
      <trkpt lat="43.29494" lon="-1.03858">
        <ele>202.49</ele>
        <time>2021-08-20T13:36:10Z</time>
      </trkpt>
      <trkpt lat="43.29485" lon="-1.03868">
        <ele>203.46</ele>
        <time>2021-08-20T13:36:20Z</time>
      </trkpt>
      <trkpt lat="43.29484" lon="-1.03869">
        <ele>203.46</ele>
        <time>2021-08-20T13:36:21Z</time>
      </trkpt>
      <trkpt lat="43.29483" lon="-1.03869">
        <ele>203.94</ele>
        <time>2021-08-20T13:36:22Z</time>
      </trkpt>
      <trkpt lat="43.29482" lon="-1.0387">
        <ele>203.94</ele>
        <time>2021-08-20T13:36:23Z</time>
      </trkpt>
      <trkpt lat="43.29481" lon="-1.03871">
        <ele>203.94</ele>
        <time>2021-08-20T13:36:24Z</time>
      </trkpt>
      <trkpt lat="43.29475" lon="-1.03874">
        <ele>205.86</ele>
        <time>2021-08-20T13:36:31Z</time>
      </trkpt>
      <trkpt lat="43.29469" lon="-1.0388">
        <ele>206.82</ele>
        <time>2021-08-20T13:36:39Z</time>
      </trkpt>
      <trkpt lat="43.29463" lon="-1.03885">
        <ele>207.78</ele>
        <time>2021-08-20T13:36:47Z</time>
      </trkpt>
      <trkpt lat="43.29455" lon="-1.03891">
        <ele>208.74</ele>
        <time>2021-08-20T13:36:57Z</time>
      </trkpt>
      <trkpt lat="43.29448" lon="-1.03896">
        <ele>209.22</ele>
        <time>2021-08-20T13:37:05Z</time>
      </trkpt>
      <trkpt lat="43.29442" lon="-1.03902">
        <ele>211.15</ele>
        <time>2021-08-20T13:37:14Z</time>
      </trkpt>
      <trkpt lat="43.29436" lon="-1.03909">
        <ele>212.11</ele>
        <time>2021-08-20T13:37:23Z</time>
      </trkpt>
      <trkpt lat="43.29429" lon="-1.03915">
        <ele>213.55</ele>
        <time>2021-08-20T13:37:32Z</time>
      </trkpt>
      <trkpt lat="43.29422" lon="-1.0392">
        <ele>214.51</ele>
        <time>2021-08-20T13:37:41Z</time>
      </trkpt>
      <trkpt lat="43.29417" lon="-1.03925">
        <ele>215.47</ele>
        <time>2021-08-20T13:37:48Z</time>
      </trkpt>
      <trkpt lat="43.29411" lon="-1.0393">
        <ele>215.95</ele>
        <time>2021-08-20T13:37:56Z</time>
      </trkpt>
      <trkpt lat="43.29404" lon="-1.03935">
        <ele>217.4</ele>
        <time>2021-08-20T13:38:05Z</time>
      </trkpt>
      <trkpt lat="43.29398" lon="-1.03942">
        <ele>218.36</ele>
        <time>2021-08-20T13:38:14Z</time>
      </trkpt>
      <trkpt lat="43.29391" lon="-1.03949">
        <ele>219.8</ele>
        <time>2021-08-20T13:38:24Z</time>
      </trkpt>
      <trkpt lat="43.29384" lon="-1.03955">
        <ele>221.24</ele>
        <time>2021-08-20T13:38:33Z</time>
      </trkpt>
      <trkpt lat="43.29377" lon="-1.0396">
        <ele>222.68</ele>
        <time>2021-08-20T13:38:42Z</time>
      </trkpt>
      <trkpt lat="43.29371" lon="-1.03964">
        <ele>223.64</ele>
        <time>2021-08-20T13:38:49Z</time>
      </trkpt>
      <trkpt lat="43.29363" lon="-1.03969">
        <ele>224.61</ele>
        <time>2021-08-20T13:38:58Z</time>
      </trkpt>
      <trkpt lat="43.29355" lon="-1.03974">
        <ele>226.05</ele>
        <time>2021-08-20T13:39:08Z</time>
      </trkpt>
      <trkpt lat="43.29349" lon="-1.03977">
        <ele>227.01</ele>
        <time>2021-08-20T13:39:16Z</time>
      </trkpt>
      <trkpt lat="43.29342" lon="-1.03981">
        <ele>227.97</ele>
        <time>2021-08-20T13:39:24Z</time>
      </trkpt>
      <trkpt lat="43.29335" lon="-1.03985">
        <ele>229.41</ele>
        <time>2021-08-20T13:39:33Z</time>
      </trkpt>
      <trkpt lat="43.29327" lon="-1.0399">
        <ele>230.37</ele>
        <time>2021-08-20T13:39:43Z</time>
      </trkpt>
      <trkpt lat="43.2932" lon="-1.03995">
        <ele>231.81</ele>
        <time>2021-08-20T13:39:52Z</time>
      </trkpt>
      <trkpt lat="43.29314" lon="-1.04">
        <ele>232.78</ele>
        <time>2021-08-20T13:40:00Z</time>
      </trkpt>
      <trkpt lat="43.29308" lon="-1.04006">
        <ele>234.7</ele>
        <time>2021-08-20T13:40:10Z</time>
      </trkpt>
      <trkpt lat="43.29301" lon="-1.0401">
        <ele>235.66</ele>
        <time>2021-08-20T13:40:18Z</time>
      </trkpt>
      <trkpt lat="43.29299" lon="-1.04012">
        <ele>236.14</ele>
        <time>2021-08-20T13:40:21Z</time>
      </trkpt>
      <trkpt lat="43.29298" lon="-1.04014">
        <ele>236.14</ele>
        <time>2021-08-20T13:40:22Z</time>
      </trkpt>
      <trkpt lat="43.29294" lon="-1.04016">
        <ele>236.62</ele>
        <time>2021-08-20T13:40:27Z</time>
      </trkpt>
      <trkpt lat="43.29293" lon="-1.04015">
        <ele>237.1</ele>
        <time>2021-08-20T13:40:28Z</time>
      </trkpt>
      <trkpt lat="43.29289" lon="-1.04018">
        <ele>237.58</ele>
        <time>2021-08-20T13:40:34Z</time>
      </trkpt>
      <trkpt lat="43.29284" lon="-1.04022">
        <ele>238.54</ele>
        <time>2021-08-20T13:40:40Z</time>
      </trkpt>
      <trkpt lat="43.29279" lon="-1.04027">
        <ele>239.99</ele>
        <time>2021-08-20T13:40:48Z</time>
      </trkpt>
      <trkpt lat="43.29272" lon="-1.04034">
        <ele>240.95</ele>
        <time>2021-08-20T13:40:57Z</time>
      </trkpt>
      <trkpt lat="43.29265" lon="-1.0404">
        <ele>242.39</ele>
        <time>2021-08-20T13:41:07Z</time>
      </trkpt>
      <trkpt lat="43.29258" lon="-1.04045">
        <ele>244.31</ele>
        <time>2021-08-20T13:41:17Z</time>
      </trkpt>
      <trkpt lat="43.29251" lon="-1.04049">
        <ele>245.27</ele>
        <time>2021-08-20T13:41:25Z</time>
      </trkpt>
      <trkpt lat="43.29243" lon="-1.04053">
        <ele>246.72</ele>
        <time>2021-08-20T13:41:36Z</time>
      </trkpt>
      <trkpt lat="43.29236" lon="-1.04059">
        <ele>247.68</ele>
        <time>2021-08-20T13:41:45Z</time>
      </trkpt>
      <trkpt lat="43.2923" lon="-1.04065">
        <ele>249.6</ele>
        <time>2021-08-20T13:41:55Z</time>
      </trkpt>
      <trkpt lat="43.29224" lon="-1.04071">
        <ele>251.04</ele>
        <time>2021-08-20T13:42:05Z</time>
      </trkpt>
      <trkpt lat="43.29218" lon="-1.04076">
        <ele>252</ele>
        <time>2021-08-20T13:42:14Z</time>
      </trkpt>
      <trkpt lat="43.29212" lon="-1.04082">
        <ele>253.93</ele>
        <time>2021-08-20T13:42:23Z</time>
      </trkpt>
      <trkpt lat="43.29206" lon="-1.04086">
        <ele>254.89</ele>
        <time>2021-08-20T13:42:31Z</time>
      </trkpt>
      <trkpt lat="43.29199" lon="-1.04091">
        <ele>255.85</ele>
        <time>2021-08-20T13:42:39Z</time>
      </trkpt>
      <trkpt lat="43.2919" lon="-1.04096">
        <ele>256.81</ele>
        <time>2021-08-20T13:42:49Z</time>
      </trkpt>
      <trkpt lat="43.29182" lon="-1.04099">
        <ele>257.77</ele>
        <time>2021-08-20T13:42:57Z</time>
      </trkpt>
      <trkpt lat="43.29172" lon="-1.04102">
        <ele>258.73</ele>
        <time>2021-08-20T13:43:07Z</time>
      </trkpt>
      <trkpt lat="43.29159" lon="-1.04103">
        <ele>260.17</ele>
        <time>2021-08-20T13:43:18Z</time>
      </trkpt>
      <trkpt lat="43.2915" lon="-1.04104">
        <ele>260.17</ele>
        <time>2021-08-20T13:43:27Z</time>
      </trkpt>
      <trkpt lat="43.29137" lon="-1.04105">
        <ele>262.1</ele>
        <time>2021-08-20T13:43:38Z</time>
      </trkpt>
      <trkpt lat="43.2913" lon="-1.04106">
        <ele>262.1</ele>
        <time>2021-08-20T13:43:47Z</time>
      </trkpt>
      <trkpt lat="43.29129" lon="-1.04106">
        <ele>262.1</ele>
        <time>2021-08-20T13:43:49Z</time>
      </trkpt>
      <trkpt lat="43.29128" lon="-1.04105">
        <ele>262.1</ele>
        <time>2021-08-20T13:43:50Z</time>
      </trkpt>
      <trkpt lat="43.29127" lon="-1.04105">
        <ele>262.1</ele>
        <time>2021-08-20T13:43:51Z</time>
      </trkpt>
      <trkpt lat="43.29125" lon="-1.04105">
        <ele>262.1</ele>
        <time>2021-08-20T13:43:52Z</time>
      </trkpt>
      <trkpt lat="43.29123" lon="-1.04105">
        <ele>262.1</ele>
        <time>2021-08-20T13:43:53Z</time>
      </trkpt>
      <trkpt lat="43.29108" lon="-1.04107">
        <ele>263.06</ele>
        <time>2021-08-20T13:44:00Z</time>
      </trkpt>
      <trkpt lat="43.29091" lon="-1.04107">
        <ele>264.5</ele>
        <time>2021-08-20T13:44:08Z</time>
      </trkpt>
      <trkpt lat="43.29076" lon="-1.0411">
        <ele>265.46</ele>
        <time>2021-08-20T13:44:15Z</time>
      </trkpt>
      <trkpt lat="43.29061" lon="-1.04114">
        <ele>266.42</ele>
        <time>2021-08-20T13:44:23Z</time>
      </trkpt>
      <trkpt lat="43.29048" lon="-1.04117">
        <ele>267.86</ele>
        <time>2021-08-20T13:44:30Z</time>
      </trkpt>
      <trkpt lat="43.29035" lon="-1.04124">
        <ele>268.83</ele>
        <time>2021-08-20T13:44:38Z</time>
      </trkpt>
      <trkpt lat="43.29022" lon="-1.0413">
        <ele>270.27</ele>
        <time>2021-08-20T13:44:47Z</time>
      </trkpt>
      <trkpt lat="43.29011" lon="-1.04135">
        <ele>271.23</ele>
        <time>2021-08-20T13:44:53Z</time>
      </trkpt>
      <trkpt lat="43.29006" lon="-1.04137">
        <ele>271.71</ele>
        <time>2021-08-20T13:44:56Z</time>
      </trkpt>
      <trkpt lat="43.29004" lon="-1.04137">
        <ele>271.71</ele>
        <time>2021-08-20T13:44:57Z</time>
      </trkpt>
      <trkpt lat="43.29002" lon="-1.04137">
        <ele>271.71</ele>
        <time>2021-08-20T13:44:58Z</time>
      </trkpt>
      <trkpt lat="43.29" lon="-1.04138">
        <ele>272.19</ele>
        <time>2021-08-20T13:44:59Z</time>
      </trkpt>
      <trkpt lat="43.28999" lon="-1.04138">
        <ele>272.19</ele>
        <time>2021-08-20T13:45:00Z</time>
      </trkpt>
      <trkpt lat="43.28997" lon="-1.04139">
        <ele>272.67</ele>
        <time>2021-08-20T13:45:01Z</time>
      </trkpt>
      <trkpt lat="43.2898" lon="-1.04144">
        <ele>274.11</ele>
        <time>2021-08-20T13:45:10Z</time>
      </trkpt>
      <trkpt lat="43.28963" lon="-1.0415">
        <ele>275.07</ele>
        <time>2021-08-20T13:45:19Z</time>
      </trkpt>
      <trkpt lat="43.28949" lon="-1.04156">
        <ele>276.04</ele>
        <time>2021-08-20T13:45:26Z</time>
      </trkpt>
      <trkpt lat="43.28941" lon="-1.0416">
        <ele>276.52</ele>
        <time>2021-08-20T13:45:31Z</time>
      </trkpt>
      <trkpt lat="43.28928" lon="-1.04166">
        <ele>277.48</ele>
        <time>2021-08-20T13:45:38Z</time>
      </trkpt>
      <trkpt lat="43.28914" lon="-1.04172">
        <ele>277.96</ele>
        <time>2021-08-20T13:45:45Z</time>
      </trkpt>
      <trkpt lat="43.28893" lon="-1.04183">
        <ele>279.4</ele>
        <time>2021-08-20T13:45:55Z</time>
      </trkpt>
      <trkpt lat="43.28877" lon="-1.0419">
        <ele>280.84</ele>
        <time>2021-08-20T13:46:03Z</time>
      </trkpt>
      <trkpt lat="43.2886" lon="-1.04197">
        <ele>281.8</ele>
        <time>2021-08-20T13:46:11Z</time>
      </trkpt>
      <trkpt lat="43.2884" lon="-1.04198">
        <ele>282.28</ele>
        <time>2021-08-20T13:46:19Z</time>
      </trkpt>
      <trkpt lat="43.28823" lon="-1.04198">
        <ele>282.77</ele>
        <time>2021-08-20T13:46:25Z</time>
      </trkpt>
      <trkpt lat="43.28806" lon="-1.04192">
        <ele>283.25</ele>
        <time>2021-08-20T13:46:31Z</time>
      </trkpt>
      <trkpt lat="43.28782" lon="-1.04197">
        <ele>283.25</ele>
        <time>2021-08-20T13:46:39Z</time>
      </trkpt>
      <trkpt lat="43.28754" lon="-1.04202">
        <ele>281.8</ele>
        <time>2021-08-20T13:46:47Z</time>
      </trkpt>
      <trkpt lat="43.28745" lon="-1.04203">
        <ele>281.32</ele>
        <time>2021-08-20T13:46:49Z</time>
      </trkpt>
      <trkpt lat="43.28721" lon="-1.04204">
        <ele>279.88</ele>
        <time>2021-08-20T13:46:54Z</time>
      </trkpt>
      <trkpt lat="43.28678" lon="-1.04209">
        <ele>277.48</ele>
        <time>2021-08-20T13:47:01Z</time>
      </trkpt>
      <trkpt lat="43.28644" lon="-1.04212">
        <ele>274.59</ele>
        <time>2021-08-20T13:47:06Z</time>
      </trkpt>
      <trkpt lat="43.28617" lon="-1.04217">
        <ele>274.11</ele>
        <time>2021-08-20T13:47:10Z</time>
      </trkpt>
      <trkpt lat="43.2861" lon="-1.04219">
        <ele>274.11</ele>
        <time>2021-08-20T13:47:11Z</time>
      </trkpt>
      <trkpt lat="43.28605" lon="-1.04223">
        <ele>274.11</ele>
        <time>2021-08-20T13:47:12Z</time>
      </trkpt>
      <trkpt lat="43.28599" lon="-1.04226">
        <ele>274.11</ele>
        <time>2021-08-20T13:47:13Z</time>
      </trkpt>
      <trkpt lat="43.28593" lon="-1.04228">
        <ele>274.11</ele>
        <time>2021-08-20T13:47:14Z</time>
      </trkpt>
      <trkpt lat="43.28588" lon="-1.0423">
        <ele>274.11</ele>
        <time>2021-08-20T13:47:15Z</time>
      </trkpt>
      <trkpt lat="43.28583" lon="-1.04232">
        <ele>274.11</ele>
        <time>2021-08-20T13:47:16Z</time>
      </trkpt>
      <trkpt lat="43.28578" lon="-1.04235">
        <ele>274.11</ele>
        <time>2021-08-20T13:47:17Z</time>
      </trkpt>
      <trkpt lat="43.28574" lon="-1.04238">
        <ele>274.11</ele>
        <time>2021-08-20T13:47:18Z</time>
      </trkpt>
      <trkpt lat="43.2857" lon="-1.04241">
        <ele>274.11</ele>
        <time>2021-08-20T13:47:19Z</time>
      </trkpt>
      <trkpt lat="43.2855" lon="-1.04257">
        <ele>275.56</ele>
        <time>2021-08-20T13:47:25Z</time>
      </trkpt>
      <trkpt lat="43.28532" lon="-1.04268">
        <ele>277</ele>
        <time>2021-08-20T13:47:32Z</time>
      </trkpt>
      <trkpt lat="43.28518" lon="-1.0428">
        <ele>277.96</ele>
        <time>2021-08-20T13:47:39Z</time>
      </trkpt>
      <trkpt lat="43.28506" lon="-1.0429">
        <ele>278.92</ele>
        <time>2021-08-20T13:47:46Z</time>
      </trkpt>
      <trkpt lat="43.28493" lon="-1.04303">
        <ele>280.84</ele>
        <time>2021-08-20T13:47:54Z</time>
      </trkpt>
      <trkpt lat="43.28479" lon="-1.04313">
        <ele>281.8</ele>
        <time>2021-08-20T13:48:02Z</time>
      </trkpt>
      <trkpt lat="43.28468" lon="-1.04323">
        <ele>283.25</ele>
        <time>2021-08-20T13:48:09Z</time>
      </trkpt>
      <trkpt lat="43.2846" lon="-1.04329">
        <ele>284.21</ele>
        <time>2021-08-20T13:48:15Z</time>
      </trkpt>
      <trkpt lat="43.28458" lon="-1.04329">
        <ele>284.21</ele>
        <time>2021-08-20T13:48:16Z</time>
      </trkpt>
      <trkpt lat="43.28457" lon="-1.0433">
        <ele>284.21</ele>
        <time>2021-08-20T13:48:17Z</time>
      </trkpt>
      <trkpt lat="43.28455" lon="-1.04332">
        <ele>284.69</ele>
        <time>2021-08-20T13:48:20Z</time>
      </trkpt>
      <trkpt lat="43.2845" lon="-1.04336">
        <ele>285.65</ele>
        <time>2021-08-20T13:48:27Z</time>
      </trkpt>
      <trkpt lat="43.28445" lon="-1.0434">
        <ele>286.13</ele>
        <time>2021-08-20T13:48:32Z</time>
      </trkpt>
      <trkpt lat="43.28436" lon="-1.04345">
        <ele>287.09</ele>
        <time>2021-08-20T13:48:42Z</time>
      </trkpt>
      <trkpt lat="43.28425" lon="-1.04353">
        <ele>288.05</ele>
        <time>2021-08-20T13:48:53Z</time>
      </trkpt>
      <trkpt lat="43.28416" lon="-1.0436">
        <ele>289.01</ele>
        <time>2021-08-20T13:49:03Z</time>
      </trkpt>
      <trkpt lat="43.28413" lon="-1.04363">
        <ele>289.01</ele>
        <time>2021-08-20T13:49:08Z</time>
      </trkpt>
      <trkpt lat="43.28412" lon="-1.04364">
        <ele>289.01</ele>
        <time>2021-08-20T13:49:09Z</time>
      </trkpt>
      <trkpt lat="43.284" lon="-1.04379">
        <ele>289.97</ele>
        <time>2021-08-20T13:49:17Z</time>
      </trkpt>
      <trkpt lat="43.28387" lon="-1.04399">
        <ele>290.46</ele>
        <time>2021-08-20T13:49:26Z</time>
      </trkpt>
      <trkpt lat="43.28375" lon="-1.04424">
        <ele>291.42</ele>
        <time>2021-08-20T13:49:35Z</time>
      </trkpt>
      <trkpt lat="43.28367" lon="-1.04442">
        <ele>292.38</ele>
        <time>2021-08-20T13:49:42Z</time>
      </trkpt>
      <trkpt lat="43.2836" lon="-1.04461">
        <ele>293.34</ele>
        <time>2021-08-20T13:49:50Z</time>
      </trkpt>
      <trkpt lat="43.28358" lon="-1.04466">
        <ele>294.3</ele>
        <time>2021-08-20T13:49:52Z</time>
      </trkpt>
      <trkpt lat="43.28358" lon="-1.04468">
        <ele>294.3</ele>
        <time>2021-08-20T13:49:53Z</time>
      </trkpt>
      <trkpt lat="43.28357" lon="-1.0447">
        <ele>294.78</ele>
        <time>2021-08-20T13:49:54Z</time>
      </trkpt>
      <trkpt lat="43.28352" lon="-1.04487">
        <ele>295.26</ele>
        <time>2021-08-20T13:50:01Z</time>
      </trkpt>
      <trkpt lat="43.28347" lon="-1.04508">
        <ele>296.7</ele>
        <time>2021-08-20T13:50:09Z</time>
      </trkpt>
      <trkpt lat="43.28343" lon="-1.04526">
        <ele>297.67</ele>
        <time>2021-08-20T13:50:16Z</time>
      </trkpt>
      <trkpt lat="43.28341" lon="-1.04551">
        <ele>298.63</ele>
        <time>2021-08-20T13:50:25Z</time>
      </trkpt>
      <trkpt lat="43.28335" lon="-1.04572">
        <ele>298.63</ele>
        <time>2021-08-20T13:50:32Z</time>
      </trkpt>
      <trkpt lat="43.28332" lon="-1.04596">
        <ele>299.59</ele>
        <time>2021-08-20T13:50:40Z</time>
      </trkpt>
      <trkpt lat="43.28332" lon="-1.04615">
        <ele>299.59</ele>
        <time>2021-08-20T13:50:46Z</time>
      </trkpt>
      <trkpt lat="43.2833" lon="-1.04631">
        <ele>299.59</ele>
        <time>2021-08-20T13:50:50Z</time>
      </trkpt>
      <trkpt lat="43.28329" lon="-1.04635">
        <ele>299.59</ele>
        <time>2021-08-20T13:50:51Z</time>
      </trkpt>
      <trkpt lat="43.28329" lon="-1.04666">
        <ele>299.59</ele>
        <time>2021-08-20T13:50:56Z</time>
      </trkpt>
      <trkpt lat="43.2833" lon="-1.04673">
        <ele>299.59</ele>
        <time>2021-08-20T13:50:57Z</time>
      </trkpt>
      <trkpt lat="43.28333" lon="-1.04686">
        <ele>299.59</ele>
        <time>2021-08-20T13:50:59Z</time>
      </trkpt>
      <trkpt lat="43.28345" lon="-1.04723">
        <ele>299.59</ele>
        <time>2021-08-20T13:51:06Z</time>
      </trkpt>
      <trkpt lat="43.28357" lon="-1.04759">
        <ele>299.59</ele>
        <time>2021-08-20T13:51:13Z</time>
      </trkpt>
      <trkpt lat="43.28353" lon="-1.04783">
        <ele>300.07</ele>
        <time>2021-08-20T13:51:18Z</time>
      </trkpt>
      <trkpt lat="43.28351" lon="-1.04788">
        <ele>300.55</ele>
        <time>2021-08-20T13:51:19Z</time>
      </trkpt>
      <trkpt lat="43.28331" lon="-1.04819">
        <ele>301.51</ele>
        <time>2021-08-20T13:51:27Z</time>
      </trkpt>
      <trkpt lat="43.28322" lon="-1.04833">
        <ele>300.07</ele>
        <time>2021-08-20T13:51:30Z</time>
      </trkpt>
      <trkpt lat="43.28319" lon="-1.04838">
        <ele>300.07</ele>
        <time>2021-08-20T13:51:31Z</time>
      </trkpt>
      <trkpt lat="43.28317" lon="-1.04842">
        <ele>299.11</ele>
        <time>2021-08-20T13:51:32Z</time>
      </trkpt>
      <trkpt lat="43.28306" lon="-1.04863">
        <ele>297.67</ele>
        <time>2021-08-20T13:51:37Z</time>
      </trkpt>
      <trkpt lat="43.28304" lon="-1.04868">
        <ele>297.18</ele>
        <time>2021-08-20T13:51:38Z</time>
      </trkpt>
      <trkpt lat="43.28302" lon="-1.04875">
        <ele>297.18</ele>
        <time>2021-08-20T13:51:39Z</time>
      </trkpt>
      <trkpt lat="43.28296" lon="-1.04922">
        <ele>297.18</ele>
        <time>2021-08-20T13:51:47Z</time>
      </trkpt>
      <trkpt lat="43.28295" lon="-1.04927">
        <ele>297.18</ele>
        <time>2021-08-20T13:51:48Z</time>
      </trkpt>
      <trkpt lat="43.28294" lon="-1.04933">
        <ele>297.18</ele>
        <time>2021-08-20T13:51:49Z</time>
      </trkpt>
      <trkpt lat="43.28293" lon="-1.04946">
        <ele>297.18</ele>
        <time>2021-08-20T13:51:51Z</time>
      </trkpt>
      <trkpt lat="43.28293" lon="-1.04952">
        <ele>297.18</ele>
        <time>2021-08-20T13:51:52Z</time>
      </trkpt>
      <trkpt lat="43.2829" lon="-1.04972">
        <ele>296.22</ele>
        <time>2021-08-20T13:51:55Z</time>
      </trkpt>
      <trkpt lat="43.28289" lon="-1.04978">
        <ele>296.22</ele>
        <time>2021-08-20T13:51:56Z</time>
      </trkpt>
      <trkpt lat="43.28288" lon="-1.04985">
        <ele>295.74</ele>
        <time>2021-08-20T13:51:57Z</time>
      </trkpt>
      <trkpt lat="43.28287" lon="-1.04992">
        <ele>295.26</ele>
        <time>2021-08-20T13:51:58Z</time>
      </trkpt>
      <trkpt lat="43.28288" lon="-1.05001">
        <ele>294.3</ele>
        <time>2021-08-20T13:51:59Z</time>
      </trkpt>
      <trkpt lat="43.28287" lon="-1.05008">
        <ele>294.3</ele>
        <time>2021-08-20T13:52:00Z</time>
      </trkpt>
      <trkpt lat="43.28287" lon="-1.05014">
        <ele>294.3</ele>
        <time>2021-08-20T13:52:01Z</time>
      </trkpt>
      <trkpt lat="43.28283" lon="-1.05046">
        <ele>292.86</ele>
        <time>2021-08-20T13:52:07Z</time>
      </trkpt>
      <trkpt lat="43.2828" lon="-1.05063">
        <ele>291.42</ele>
        <time>2021-08-20T13:52:15Z</time>
      </trkpt>
      <trkpt lat="43.2828" lon="-1.05063">
        <ele>291.42</ele>
        <time>2021-08-20T13:52:25Z</time>
      </trkpt>
      <trkpt lat="43.28279" lon="-1.05062">
        <ele>291.42</ele>
        <time>2021-08-20T13:52:31Z</time>
      </trkpt>
      <trkpt lat="43.28275" lon="-1.05062">
        <ele>291.42</ele>
        <time>2021-08-20T13:52:39Z</time>
      </trkpt>
      <trkpt lat="43.28274" lon="-1.05062">
        <ele>291.42</ele>
        <time>2021-08-20T13:52:42Z</time>
      </trkpt>
      <trkpt lat="43.28272" lon="-1.05064">
        <ele>290.94</ele>
        <time>2021-08-20T13:52:44Z</time>
      </trkpt>
      <trkpt lat="43.2827" lon="-1.05084">
        <ele>289.97</ele>
        <time>2021-08-20T13:52:50Z</time>
      </trkpt>
      <trkpt lat="43.28268" lon="-1.05123">
        <ele>286.13</ele>
        <time>2021-08-20T13:52:55Z</time>
      </trkpt>
      <trkpt lat="43.28265" lon="-1.05158">
        <ele>282.28</ele>
        <time>2021-08-20T13:52:59Z</time>
      </trkpt>
      <trkpt lat="43.28262" lon="-1.05187">
        <ele>278.44</ele>
        <time>2021-08-20T13:53:03Z</time>
      </trkpt>
      <trkpt lat="43.28258" lon="-1.05214">
        <ele>275.07</ele>
        <time>2021-08-20T13:53:08Z</time>
      </trkpt>
      <trkpt lat="43.28256" lon="-1.05231">
        <ele>272.67</ele>
        <time>2021-08-20T13:53:11Z</time>
      </trkpt>
      <trkpt lat="43.28254" lon="-1.05256">
        <ele>268.83</ele>
        <time>2021-08-20T13:53:15Z</time>
      </trkpt>
      <trkpt lat="43.28252" lon="-1.05279">
        <ele>264.5</ele>
        <time>2021-08-20T13:53:19Z</time>
      </trkpt>
      <trkpt lat="43.28248" lon="-1.05305">
        <ele>263.06</ele>
        <time>2021-08-20T13:53:23Z</time>
      </trkpt>
      <trkpt lat="43.28246" lon="-1.05331">
        <ele>261.14</ele>
        <time>2021-08-20T13:53:26Z</time>
      </trkpt>
      <trkpt lat="43.28243" lon="-1.05356">
        <ele>260.65</ele>
        <time>2021-08-20T13:53:29Z</time>
      </trkpt>
      <trkpt lat="43.28241" lon="-1.05362">
        <ele>261.14</ele>
        <time>2021-08-20T13:53:30Z</time>
      </trkpt>
      <trkpt lat="43.28237" lon="-1.05373">
        <ele>262.58</ele>
        <time>2021-08-20T13:53:32Z</time>
      </trkpt>
      <trkpt lat="43.28231" lon="-1.05391">
        <ele>263.54</ele>
        <time>2021-08-20T13:53:37Z</time>
      </trkpt>
      <trkpt lat="43.2822" lon="-1.05426">
        <ele>264.02</ele>
        <time>2021-08-20T13:53:45Z</time>
      </trkpt>
      <trkpt lat="43.28212" lon="-1.05449">
        <ele>264.5</ele>
        <time>2021-08-20T13:53:51Z</time>
      </trkpt>
      <trkpt lat="43.28203" lon="-1.05476">
        <ele>264.5</ele>
        <time>2021-08-20T13:53:57Z</time>
      </trkpt>
      <trkpt lat="43.28192" lon="-1.05521">
        <ele>261.62</ele>
        <time>2021-08-20T13:54:03Z</time>
      </trkpt>
      <trkpt lat="43.2819" lon="-1.05529">
        <ele>260.17</ele>
        <time>2021-08-20T13:54:04Z</time>
      </trkpt>
      <trkpt lat="43.2819" lon="-1.0554">
        <ele>259.21</ele>
        <time>2021-08-20T13:54:05Z</time>
      </trkpt>
      <trkpt lat="43.28191" lon="-1.05551">
        <ele>258.25</ele>
        <time>2021-08-20T13:54:06Z</time>
      </trkpt>
      <trkpt lat="43.28192" lon="-1.05562">
        <ele>258.25</ele>
        <time>2021-08-20T13:54:07Z</time>
      </trkpt>
      <trkpt lat="43.28194" lon="-1.05573">
        <ele>257.29</ele>
        <time>2021-08-20T13:54:08Z</time>
      </trkpt>
      <trkpt lat="43.28205" lon="-1.05628">
        <ele>254.41</ele>
        <time>2021-08-20T13:54:13Z</time>
      </trkpt>
      <trkpt lat="43.28214" lon="-1.05663">
        <ele>250.08</ele>
        <time>2021-08-20T13:54:16Z</time>
      </trkpt>
      <trkpt lat="43.2822" lon="-1.05687">
        <ele>246.72</ele>
        <time>2021-08-20T13:54:18Z</time>
      </trkpt>
      <trkpt lat="43.2823" lon="-1.05733">
        <ele>242.87</ele>
        <time>2021-08-20T13:54:22Z</time>
      </trkpt>
      <trkpt lat="43.28235" lon="-1.05755">
        <ele>239.51</ele>
        <time>2021-08-20T13:54:24Z</time>
      </trkpt>
      <trkpt lat="43.28244" lon="-1.058">
        <ele>235.66</ele>
        <time>2021-08-20T13:54:28Z</time>
      </trkpt>
      <trkpt lat="43.28247" lon="-1.05812">
        <ele>235.66</ele>
        <time>2021-08-20T13:54:29Z</time>
      </trkpt>
      <trkpt lat="43.28248" lon="-1.05823">
        <ele>234.7</ele>
        <time>2021-08-20T13:54:30Z</time>
      </trkpt>
      <trkpt lat="43.28247" lon="-1.05834">
        <ele>234.7</ele>
        <time>2021-08-20T13:54:31Z</time>
      </trkpt>
      <trkpt lat="43.28246" lon="-1.05844">
        <ele>236.62</ele>
        <time>2021-08-20T13:54:32Z</time>
      </trkpt>
      <trkpt lat="43.28245" lon="-1.05853">
        <ele>236.62</ele>
        <time>2021-08-20T13:54:33Z</time>
      </trkpt>
      <trkpt lat="43.28243" lon="-1.05861">
        <ele>237.1</ele>
        <time>2021-08-20T13:54:34Z</time>
      </trkpt>
      <trkpt lat="43.28242" lon="-1.05868">
        <ele>237.1</ele>
        <time>2021-08-20T13:54:35Z</time>
      </trkpt>
      <trkpt lat="43.2824" lon="-1.05874">
        <ele>237.1</ele>
        <time>2021-08-20T13:54:36Z</time>
      </trkpt>
      <trkpt lat="43.28236" lon="-1.05893">
        <ele>237.1</ele>
        <time>2021-08-20T13:54:39Z</time>
      </trkpt>
      <trkpt lat="43.28234" lon="-1.05899">
        <ele>238.06</ele>
        <time>2021-08-20T13:54:40Z</time>
      </trkpt>
      <trkpt lat="43.2823" lon="-1.05916">
        <ele>238.06</ele>
        <time>2021-08-20T13:54:43Z</time>
      </trkpt>
      <trkpt lat="43.28229" lon="-1.05922">
        <ele>238.06</ele>
        <time>2021-08-20T13:54:44Z</time>
      </trkpt>
      <trkpt lat="43.28227" lon="-1.05927">
        <ele>238.06</ele>
        <time>2021-08-20T13:54:45Z</time>
      </trkpt>
      <trkpt lat="43.28225" lon="-1.05932">
        <ele>238.06</ele>
        <time>2021-08-20T13:54:46Z</time>
      </trkpt>
      <trkpt lat="43.28224" lon="-1.05937">
        <ele>238.06</ele>
        <time>2021-08-20T13:54:47Z</time>
      </trkpt>
      <trkpt lat="43.28222" lon="-1.05943">
        <ele>238.06</ele>
        <time>2021-08-20T13:54:48Z</time>
      </trkpt>
      <trkpt lat="43.2822" lon="-1.05949">
        <ele>238.06</ele>
        <time>2021-08-20T13:54:49Z</time>
      </trkpt>
      <trkpt lat="43.28218" lon="-1.05956">
        <ele>236.62</ele>
        <time>2021-08-20T13:54:50Z</time>
      </trkpt>
      <trkpt lat="43.28212" lon="-1.05979">
        <ele>233.26</ele>
        <time>2021-08-20T13:54:53Z</time>
      </trkpt>
      <trkpt lat="43.28207" lon="-1.05995">
        <ele>231.33</ele>
        <time>2021-08-20T13:54:55Z</time>
      </trkpt>
      <trkpt lat="43.28201" lon="-1.0601">
        <ele>228.93</ele>
        <time>2021-08-20T13:54:57Z</time>
      </trkpt>
      <trkpt lat="43.28192" lon="-1.06035">
        <ele>224.61</ele>
        <time>2021-08-20T13:55:00Z</time>
      </trkpt>
      <trkpt lat="43.28187" lon="-1.06052">
        <ele>221.72</ele>
        <time>2021-08-20T13:55:02Z</time>
      </trkpt>
      <trkpt lat="43.2818" lon="-1.06074">
        <ele>217.4</ele>
        <time>2021-08-20T13:55:05Z</time>
      </trkpt>
      <trkpt lat="43.28175" lon="-1.0609">
        <ele>214.99</ele>
        <time>2021-08-20T13:55:07Z</time>
      </trkpt>
      <trkpt lat="43.2817" lon="-1.06114">
        <ele>211.63</ele>
        <time>2021-08-20T13:55:10Z</time>
      </trkpt>
      <trkpt lat="43.28168" lon="-1.06122">
        <ele>209.7</ele>
        <time>2021-08-20T13:55:11Z</time>
      </trkpt>
      <trkpt lat="43.28159" lon="-1.06151">
        <ele>205.86</ele>
        <time>2021-08-20T13:55:15Z</time>
      </trkpt>
      <trkpt lat="43.28152" lon="-1.0617">
        <ele>202.49</ele>
        <time>2021-08-20T13:55:18Z</time>
      </trkpt>
      <trkpt lat="43.28147" lon="-1.06185">
        <ele>200.09</ele>
        <time>2021-08-20T13:55:20Z</time>
      </trkpt>
      <trkpt lat="43.28141" lon="-1.06206">
        <ele>197.21</ele>
        <time>2021-08-20T13:55:23Z</time>
      </trkpt>
      <trkpt lat="43.28133" lon="-1.06227">
        <ele>193.84</ele>
        <time>2021-08-20T13:55:26Z</time>
      </trkpt>
      <trkpt lat="43.28122" lon="-1.0625">
        <ele>190</ele>
        <time>2021-08-20T13:55:29Z</time>
      </trkpt>
      <trkpt lat="43.28108" lon="-1.06275">
        <ele>186.15</ele>
        <time>2021-08-20T13:55:32Z</time>
      </trkpt>
      <trkpt lat="43.28089" lon="-1.06305">
        <ele>182.31</ele>
        <time>2021-08-20T13:55:36Z</time>
      </trkpt>
      <trkpt lat="43.28084" lon="-1.06312">
        <ele>181.83</ele>
        <time>2021-08-20T13:55:37Z</time>
      </trkpt>
      <trkpt lat="43.28077" lon="-1.06317">
        <ele>180.87</ele>
        <time>2021-08-20T13:55:38Z</time>
      </trkpt>
      <trkpt lat="43.2807" lon="-1.06319">
        <ele>180.38</ele>
        <time>2021-08-20T13:55:39Z</time>
      </trkpt>
      <trkpt lat="43.28062" lon="-1.06321">
        <ele>178.94</ele>
        <time>2021-08-20T13:55:40Z</time>
      </trkpt>
      <trkpt lat="43.28053" lon="-1.06322">
        <ele>178.94</ele>
        <time>2021-08-20T13:55:41Z</time>
      </trkpt>
      <trkpt lat="43.28003" lon="-1.06326">
        <ele>178.46</ele>
        <time>2021-08-20T13:55:48Z</time>
      </trkpt>
      <trkpt lat="43.27998" lon="-1.06327">
        <ele>179.42</ele>
        <time>2021-08-20T13:55:49Z</time>
      </trkpt>
      <trkpt lat="43.27987" lon="-1.06332">
        <ele>180.87</ele>
        <time>2021-08-20T13:55:52Z</time>
      </trkpt>
      <trkpt lat="43.27975" lon="-1.06338">
        <ele>182.79</ele>
        <time>2021-08-20T13:55:58Z</time>
      </trkpt>
      <trkpt lat="43.27963" lon="-1.06339">
        <ele>184.23</ele>
        <time>2021-08-20T13:56:06Z</time>
      </trkpt>
      <trkpt lat="43.27957" lon="-1.06341">
        <ele>186.63</ele>
        <time>2021-08-20T13:56:15Z</time>
      </trkpt>
      <trkpt lat="43.27945" lon="-1.0635">
        <ele>188.56</ele>
        <time>2021-08-20T13:56:26Z</time>
      </trkpt>
      <trkpt lat="43.27938" lon="-1.06354">
        <ele>189.52</ele>
        <time>2021-08-20T13:56:34Z</time>
      </trkpt>
      <trkpt lat="43.2793" lon="-1.06358">
        <ele>190.96</ele>
        <time>2021-08-20T13:56:43Z</time>
      </trkpt>
      <trkpt lat="43.27927" lon="-1.06359">
        <ele>191.44</ele>
        <time>2021-08-20T13:56:50Z</time>
      </trkpt>
      <trkpt lat="43.27921" lon="-1.06363">
        <ele>191.92</ele>
        <time>2021-08-20T13:57:00Z</time>
      </trkpt>
      <trkpt lat="43.27919" lon="-1.06363">
        <ele>192.4</ele>
        <time>2021-08-20T13:57:02Z</time>
      </trkpt>
      <trkpt lat="43.27918" lon="-1.06364">
        <ele>192.4</ele>
        <time>2021-08-20T13:57:03Z</time>
      </trkpt>
      <trkpt lat="43.27913" lon="-1.06372">
        <ele>192.88</ele>
        <time>2021-08-20T13:57:11Z</time>
      </trkpt>
      <trkpt lat="43.27908" lon="-1.06382">
        <ele>193.84</ele>
        <time>2021-08-20T13:57:20Z</time>
      </trkpt>
      <trkpt lat="43.27901" lon="-1.0639">
        <ele>194.8</ele>
        <time>2021-08-20T13:57:28Z</time>
      </trkpt>
      <trkpt lat="43.27901" lon="-1.06392">
        <ele>194.8</ele>
        <time>2021-08-20T13:57:29Z</time>
      </trkpt>
      <trkpt lat="43.279" lon="-1.06394">
        <ele>195.28</ele>
        <time>2021-08-20T13:57:30Z</time>
      </trkpt>
      <trkpt lat="43.27896" lon="-1.06401">
        <ele>195.77</ele>
        <time>2021-08-20T13:57:38Z</time>
      </trkpt>
      <trkpt lat="43.27894" lon="-1.06404">
        <ele>196.25</ele>
        <time>2021-08-20T13:57:56Z</time>
      </trkpt>
      <trkpt lat="43.27892" lon="-1.06403">
        <ele>196.25</ele>
        <time>2021-08-20T13:58:07Z</time>
      </trkpt>
      <trkpt lat="43.2789" lon="-1.06405">
        <ele>196.25</ele>
        <time>2021-08-20T13:58:16Z</time>
      </trkpt>
      <trkpt lat="43.2789" lon="-1.06407">
        <ele>196.25</ele>
        <time>2021-08-20T13:58:17Z</time>
      </trkpt>
      <trkpt lat="43.27889" lon="-1.06409">
        <ele>196.25</ele>
        <time>2021-08-20T13:58:18Z</time>
      </trkpt>
      <trkpt lat="43.2788" lon="-1.06427">
        <ele>196.25</ele>
        <time>2021-08-20T13:58:24Z</time>
      </trkpt>
      <trkpt lat="43.2787" lon="-1.06434">
        <ele>196.25</ele>
        <time>2021-08-20T13:58:27Z</time>
      </trkpt>
      <trkpt lat="43.27866" lon="-1.06436">
        <ele>196.25</ele>
        <time>2021-08-20T13:58:28Z</time>
      </trkpt>
      <trkpt lat="43.27862" lon="-1.06436">
        <ele>196.25</ele>
        <time>2021-08-20T13:58:29Z</time>
      </trkpt>
      <trkpt lat="43.27854" lon="-1.06435">
        <ele>196.73</ele>
        <time>2021-08-20T13:58:31Z</time>
      </trkpt>
      <trkpt lat="43.27839" lon="-1.06428">
        <ele>197.21</ele>
        <time>2021-08-20T13:58:36Z</time>
      </trkpt>
      <trkpt lat="43.27824" lon="-1.0641">
        <ele>195.28</ele>
        <time>2021-08-20T13:58:41Z</time>
      </trkpt>
      <trkpt lat="43.2781" lon="-1.06396">
        <ele>194.8</ele>
        <time>2021-08-20T13:58:44Z</time>
      </trkpt>
      <trkpt lat="43.27804" lon="-1.06392">
        <ele>193.84</ele>
        <time>2021-08-20T13:58:45Z</time>
      </trkpt>
      <trkpt lat="43.27792" lon="-1.06385">
        <ele>193.84</ele>
        <time>2021-08-20T13:58:47Z</time>
      </trkpt>
      <trkpt lat="43.27785" lon="-1.06384">
        <ele>193.36</ele>
        <time>2021-08-20T13:58:48Z</time>
      </trkpt>
      <trkpt lat="43.2778" lon="-1.06385">
        <ele>193.36</ele>
        <time>2021-08-20T13:58:49Z</time>
      </trkpt>
      <trkpt lat="43.27776" lon="-1.06389">
        <ele>193.36</ele>
        <time>2021-08-20T13:58:50Z</time>
      </trkpt>
      <trkpt lat="43.27773" lon="-1.06393">
        <ele>193.36</ele>
        <time>2021-08-20T13:58:51Z</time>
      </trkpt>
      <trkpt lat="43.27758" lon="-1.06415">
        <ele>193.36</ele>
        <time>2021-08-20T13:58:56Z</time>
      </trkpt>
      <trkpt lat="43.27757" lon="-1.06421">
        <ele>193.36</ele>
        <time>2021-08-20T13:58:57Z</time>
      </trkpt>
      <trkpt lat="43.27756" lon="-1.06428">
        <ele>193.36</ele>
        <time>2021-08-20T13:58:58Z</time>
      </trkpt>
      <trkpt lat="43.27759" lon="-1.06461">
        <ele>193.36</ele>
        <time>2021-08-20T13:59:03Z</time>
      </trkpt>
      <trkpt lat="43.2776" lon="-1.06466">
        <ele>193.36</ele>
        <time>2021-08-20T13:59:04Z</time>
      </trkpt>
      <trkpt lat="43.27764" lon="-1.06503">
        <ele>193.84</ele>
        <time>2021-08-20T13:59:10Z</time>
      </trkpt>
      <trkpt lat="43.27764" lon="-1.06534">
        <ele>193.36</ele>
        <time>2021-08-20T13:59:15Z</time>
      </trkpt>
      <trkpt lat="43.27765" lon="-1.06562">
        <ele>192.4</ele>
        <time>2021-08-20T13:59:19Z</time>
      </trkpt>
      <trkpt lat="43.27766" lon="-1.06576">
        <ele>192.4</ele>
        <time>2021-08-20T13:59:21Z</time>
      </trkpt>
      <trkpt lat="43.27767" lon="-1.06584">
        <ele>191.92</ele>
        <time>2021-08-20T13:59:22Z</time>
      </trkpt>
      <trkpt lat="43.27768" lon="-1.06592">
        <ele>191.44</ele>
        <time>2021-08-20T13:59:23Z</time>
      </trkpt>
      <trkpt lat="43.2777" lon="-1.06634">
        <ele>192.4</ele>
        <time>2021-08-20T13:59:29Z</time>
      </trkpt>
      <trkpt lat="43.2777" lon="-1.06639">
        <ele>192.4</ele>
        <time>2021-08-20T13:59:30Z</time>
      </trkpt>
      <trkpt lat="43.27767" lon="-1.06671">
        <ele>193.36</ele>
        <time>2021-08-20T13:59:36Z</time>
      </trkpt>
      <trkpt lat="43.2776" lon="-1.06714">
        <ele>193.36</ele>
        <time>2021-08-20T13:59:44Z</time>
      </trkpt>
      <trkpt lat="43.27755" lon="-1.06737">
        <ele>193.36</ele>
        <time>2021-08-20T13:59:50Z</time>
      </trkpt>
      <trkpt lat="43.27752" lon="-1.06763">
        <ele>194.8</ele>
        <time>2021-08-20T13:59:57Z</time>
      </trkpt>
      <trkpt lat="43.27749" lon="-1.06782">
        <ele>195.28</ele>
        <time>2021-08-20T14:00:03Z</time>
      </trkpt>
      <trkpt lat="43.27744" lon="-1.06807">
        <ele>195.28</ele>
        <time>2021-08-20T14:00:10Z</time>
      </trkpt>
      <trkpt lat="43.27741" lon="-1.06825">
        <ele>195.28</ele>
        <time>2021-08-20T14:00:16Z</time>
      </trkpt>
      <trkpt lat="43.27735" lon="-1.06852">
        <ele>196.25</ele>
        <time>2021-08-20T14:00:23Z</time>
      </trkpt>
      <trkpt lat="43.27731" lon="-1.06874">
        <ele>197.21</ele>
        <time>2021-08-20T14:00:29Z</time>
      </trkpt>
      <trkpt lat="43.27723" lon="-1.06895">
        <ele>197.69</ele>
        <time>2021-08-20T14:00:36Z</time>
      </trkpt>
      <trkpt lat="43.27712" lon="-1.06917">
        <ele>198.17</ele>
        <time>2021-08-20T14:00:43Z</time>
      </trkpt>
      <trkpt lat="43.27698" lon="-1.06932">
        <ele>198.17</ele>
        <time>2021-08-20T14:00:50Z</time>
      </trkpt>
      <trkpt lat="43.27678" lon="-1.06949">
        <ele>198.17</ele>
        <time>2021-08-20T14:00:56Z</time>
      </trkpt>
      <trkpt lat="43.27661" lon="-1.06958">
        <ele>198.17</ele>
        <time>2021-08-20T14:01:02Z</time>
      </trkpt>
      <trkpt lat="43.27652" lon="-1.06965">
        <ele>198.65</ele>
        <time>2021-08-20T14:01:08Z</time>
      </trkpt>
      <trkpt lat="43.27643" lon="-1.06972">
        <ele>200.09</ele>
        <time>2021-08-20T14:01:14Z</time>
      </trkpt>
      <trkpt lat="43.27637" lon="-1.06973">
        <ele>199.61</ele>
        <time>2021-08-20T14:01:17Z</time>
      </trkpt>
      <trkpt lat="43.27635" lon="-1.06971">
        <ele>199.61</ele>
        <time>2021-08-20T14:01:18Z</time>
      </trkpt>
      <trkpt lat="43.27633" lon="-1.06967">
        <ele>198.65</ele>
        <time>2021-08-20T14:01:19Z</time>
      </trkpt>
      <trkpt lat="43.27632" lon="-1.06964">
        <ele>198.65</ele>
        <time>2021-08-20T14:01:20Z</time>
      </trkpt>
      <trkpt lat="43.27631" lon="-1.0696">
        <ele>198.65</ele>
        <time>2021-08-20T14:01:21Z</time>
      </trkpt>
      <trkpt lat="43.27631" lon="-1.06957">
        <ele>198.65</ele>
        <time>2021-08-20T14:01:22Z</time>
      </trkpt>
      <trkpt lat="43.2763" lon="-1.06955">
        <ele>198.65</ele>
        <time>2021-08-20T14:01:23Z</time>
      </trkpt>
      <trkpt lat="43.27629" lon="-1.06953">
        <ele>200.09</ele>
        <time>2021-08-20T14:01:25Z</time>
      </trkpt>
      <trkpt lat="43.27629" lon="-1.06952">
        <ele>200.09</ele>
        <time>2021-08-20T14:01:26Z</time>
      </trkpt>
      <trkpt lat="43.27626" lon="-1.06941">
        <ele>201.53</ele>
        <time>2021-08-20T14:01:32Z</time>
      </trkpt>
      <trkpt lat="43.27625" lon="-1.0694">
        <ele>201.53</ele>
        <time>2021-08-20T14:01:33Z</time>
      </trkpt>
      <trkpt lat="43.27624" lon="-1.06939">
        <ele>202.49</ele>
        <time>2021-08-20T14:01:39Z</time>
      </trkpt>
      <trkpt lat="43.27622" lon="-1.06935">
        <ele>202.49</ele>
        <time>2021-08-20T14:01:46Z</time>
      </trkpt>
      <trkpt lat="43.27616" lon="-1.0693">
        <ele>203.94</ele>
        <time>2021-08-20T14:01:56Z</time>
      </trkpt>
      <trkpt lat="43.27613" lon="-1.06928">
        <ele>204.9</ele>
        <time>2021-08-20T14:02:06Z</time>
      </trkpt>
      <trkpt lat="43.27606" lon="-1.06923">
        <ele>206.34</ele>
        <time>2021-08-20T14:02:14Z</time>
      </trkpt>
      <trkpt lat="43.27599" lon="-1.0692">
        <ele>207.3</ele>
        <time>2021-08-20T14:02:22Z</time>
      </trkpt>
      <trkpt lat="43.27591" lon="-1.06915">
        <ele>207.78</ele>
        <time>2021-08-20T14:02:30Z</time>
      </trkpt>
      <trkpt lat="43.27588" lon="-1.06911">
        <ele>208.26</ele>
        <time>2021-08-20T14:02:33Z</time>
      </trkpt>
      <trkpt lat="43.27587" lon="-1.0691">
        <ele>208.74</ele>
        <time>2021-08-20T14:02:34Z</time>
      </trkpt>
      <trkpt lat="43.27579" lon="-1.06906">
        <ele>209.7</ele>
        <time>2021-08-20T14:02:42Z</time>
      </trkpt>
      <trkpt lat="43.27568" lon="-1.06906">
        <ele>211.15</ele>
        <time>2021-08-20T14:02:51Z</time>
      </trkpt>
      <trkpt lat="43.2756" lon="-1.06906">
        <ele>212.59</ele>
        <time>2021-08-20T14:03:00Z</time>
      </trkpt>
      <trkpt lat="43.27554" lon="-1.06905">
        <ele>213.55</ele>
        <time>2021-08-20T14:03:07Z</time>
      </trkpt>
      <trkpt lat="43.27544" lon="-1.06905">
        <ele>214.99</ele>
        <time>2021-08-20T14:03:18Z</time>
      </trkpt>
      <trkpt lat="43.27543" lon="-1.06904">
        <ele>215.47</ele>
        <time>2021-08-20T14:03:25Z</time>
      </trkpt>
      <trkpt lat="43.27538" lon="-1.06903">
        <ele>215.95</ele>
        <time>2021-08-20T14:03:32Z</time>
      </trkpt>
      <trkpt lat="43.27528" lon="-1.06903">
        <ele>216.91</ele>
        <time>2021-08-20T14:03:41Z</time>
      </trkpt>
      <trkpt lat="43.2752" lon="-1.06903">
        <ele>218.36</ele>
        <time>2021-08-20T14:03:51Z</time>
      </trkpt>
      <trkpt lat="43.27513" lon="-1.06901">
        <ele>219.32</ele>
        <time>2021-08-20T14:03:59Z</time>
      </trkpt>
      <trkpt lat="43.27506" lon="-1.06899">
        <ele>221.24</ele>
        <time>2021-08-20T14:04:09Z</time>
      </trkpt>
      <trkpt lat="43.27502" lon="-1.06896">
        <ele>222.2</ele>
        <time>2021-08-20T14:04:18Z</time>
      </trkpt>
      <trkpt lat="43.27497" lon="-1.06894">
        <ele>224.12</ele>
        <time>2021-08-20T14:04:27Z</time>
      </trkpt>
      <trkpt lat="43.27489" lon="-1.06894">
        <ele>225.09</ele>
        <time>2021-08-20T14:04:36Z</time>
      </trkpt>
      <trkpt lat="43.27481" lon="-1.06893">
        <ele>226.53</ele>
        <time>2021-08-20T14:04:44Z</time>
      </trkpt>
      <trkpt lat="43.27471" lon="-1.06895">
        <ele>227.97</ele>
        <time>2021-08-20T14:04:55Z</time>
      </trkpt>
      <trkpt lat="43.27464" lon="-1.06896">
        <ele>228.93</ele>
        <time>2021-08-20T14:05:02Z</time>
      </trkpt>
      <trkpt lat="43.27462" lon="-1.06897">
        <ele>228.93</ele>
        <time>2021-08-20T14:05:03Z</time>
      </trkpt>
      <trkpt lat="43.27453" lon="-1.06902">
        <ele>229.41</ele>
        <time>2021-08-20T14:05:10Z</time>
      </trkpt>
      <trkpt lat="43.27449" lon="-1.06905">
        <ele>229.41</ele>
        <time>2021-08-20T14:05:13Z</time>
      </trkpt>
      <trkpt lat="43.27447" lon="-1.06905">
        <ele>229.41</ele>
        <time>2021-08-20T14:05:14Z</time>
      </trkpt>
      <trkpt lat="43.27444" lon="-1.06907">
        <ele>229.41</ele>
        <time>2021-08-20T14:05:15Z</time>
      </trkpt>
      <trkpt lat="43.27429" lon="-1.0692">
        <ele>229.41</ele>
        <time>2021-08-20T14:05:21Z</time>
      </trkpt>
      <trkpt lat="43.27426" lon="-1.0692">
        <ele>229.41</ele>
        <time>2021-08-20T14:05:22Z</time>
      </trkpt>
      <trkpt lat="43.27424" lon="-1.06919">
        <ele>229.41</ele>
        <time>2021-08-20T14:05:23Z</time>
      </trkpt>
      <trkpt lat="43.27422" lon="-1.06918">
        <ele>229.41</ele>
        <time>2021-08-20T14:05:24Z</time>
      </trkpt>
      <trkpt lat="43.27419" lon="-1.06916">
        <ele>229.41</ele>
        <time>2021-08-20T14:05:25Z</time>
      </trkpt>
      <trkpt lat="43.27399" lon="-1.06914">
        <ele>229.41</ele>
        <time>2021-08-20T14:05:30Z</time>
      </trkpt>
      <trkpt lat="43.27391" lon="-1.06916">
        <ele>229.41</ele>
        <time>2021-08-20T14:05:32Z</time>
      </trkpt>
      <trkpt lat="43.27386" lon="-1.06916">
        <ele>229.41</ele>
        <time>2021-08-20T14:05:33Z</time>
      </trkpt>
      <trkpt lat="43.27381" lon="-1.06916">
        <ele>229.41</ele>
        <time>2021-08-20T14:05:34Z</time>
      </trkpt>
      <trkpt lat="43.27377" lon="-1.06917">
        <ele>229.41</ele>
        <time>2021-08-20T14:05:35Z</time>
      </trkpt>
      <trkpt lat="43.27372" lon="-1.06916">
        <ele>228.45</ele>
        <time>2021-08-20T14:05:36Z</time>
      </trkpt>
      <trkpt lat="43.27368" lon="-1.06913">
        <ele>228.45</ele>
        <time>2021-08-20T14:05:37Z</time>
      </trkpt>
      <trkpt lat="43.27366" lon="-1.06908">
        <ele>228.45</ele>
        <time>2021-08-20T14:05:38Z</time>
      </trkpt>
      <trkpt lat="43.27365" lon="-1.06903">
        <ele>228.45</ele>
        <time>2021-08-20T14:05:39Z</time>
      </trkpt>
      <trkpt lat="43.27364" lon="-1.06898">
        <ele>228.45</ele>
        <time>2021-08-20T14:05:40Z</time>
      </trkpt>
      <trkpt lat="43.27363" lon="-1.06895">
        <ele>228.45</ele>
        <time>2021-08-20T14:05:41Z</time>
      </trkpt>
      <trkpt lat="43.2736" lon="-1.06879">
        <ele>228.45</ele>
        <time>2021-08-20T14:05:44Z</time>
      </trkpt>
      <trkpt lat="43.27355" lon="-1.06854">
        <ele>228.45</ele>
        <time>2021-08-20T14:05:48Z</time>
      </trkpt>
      <trkpt lat="43.2735" lon="-1.06835">
        <ele>227.97</ele>
        <time>2021-08-20T14:05:51Z</time>
      </trkpt>
      <trkpt lat="43.2734" lon="-1.06814">
        <ele>227.97</ele>
        <time>2021-08-20T14:05:55Z</time>
      </trkpt>
      <trkpt lat="43.27337" lon="-1.06809">
        <ele>227.97</ele>
        <time>2021-08-20T14:05:56Z</time>
      </trkpt>
      <trkpt lat="43.27334" lon="-1.06804">
        <ele>227.97</ele>
        <time>2021-08-20T14:05:57Z</time>
      </trkpt>
      <trkpt lat="43.27315" lon="-1.06786">
        <ele>227.97</ele>
        <time>2021-08-20T14:06:03Z</time>
      </trkpt>
      <trkpt lat="43.27311" lon="-1.06784">
        <ele>227.97</ele>
        <time>2021-08-20T14:06:04Z</time>
      </trkpt>
      <trkpt lat="43.27277" lon="-1.06773">
        <ele>227.49</ele>
        <time>2021-08-20T14:06:14Z</time>
      </trkpt>
      <trkpt lat="43.27265" lon="-1.06754">
        <ele>227.49</ele>
        <time>2021-08-20T14:06:20Z</time>
      </trkpt>
      <trkpt lat="43.27255" lon="-1.0673">
        <ele>227.49</ele>
        <time>2021-08-20T14:06:25Z</time>
      </trkpt>
      <trkpt lat="43.27237" lon="-1.06696">
        <ele>227.01</ele>
        <time>2021-08-20T14:06:33Z</time>
      </trkpt>
      <trkpt lat="43.27221" lon="-1.06658">
        <ele>226.53</ele>
        <time>2021-08-20T14:06:41Z</time>
      </trkpt>
      <trkpt lat="43.2721" lon="-1.06629">
        <ele>226.53</ele>
        <time>2021-08-20T14:06:47Z</time>
      </trkpt>
      <trkpt lat="43.27201" lon="-1.06604">
        <ele>226.53</ele>
        <time>2021-08-20T14:06:53Z</time>
      </trkpt>
      <trkpt lat="43.27189" lon="-1.06575">
        <ele>226.05</ele>
        <time>2021-08-20T14:07:00Z</time>
      </trkpt>
      <trkpt lat="43.27175" lon="-1.06547">
        <ele>225.57</ele>
        <time>2021-08-20T14:07:07Z</time>
      </trkpt>
      <trkpt lat="43.27168" lon="-1.06529">
        <ele>224.61</ele>
        <time>2021-08-20T14:07:14Z</time>
      </trkpt>
      <trkpt lat="43.27161" lon="-1.06499">
        <ele>223.16</ele>
        <time>2021-08-20T14:07:20Z</time>
      </trkpt>
      <trkpt lat="43.27151" lon="-1.06459">
        <ele>220.28</ele>
        <time>2021-08-20T14:07:26Z</time>
      </trkpt>
      <trkpt lat="43.27143" lon="-1.06442">
        <ele>218.84</ele>
        <time>2021-08-20T14:07:28Z</time>
      </trkpt>
      <trkpt lat="43.27133" lon="-1.06427">
        <ele>217.4</ele>
        <time>2021-08-20T14:07:30Z</time>
      </trkpt>
      <trkpt lat="43.27128" lon="-1.0642">
        <ele>216.91</ele>
        <time>2021-08-20T14:07:31Z</time>
      </trkpt>
      <trkpt lat="43.27124" lon="-1.06413">
        <ele>215.95</ele>
        <time>2021-08-20T14:07:32Z</time>
      </trkpt>
      <trkpt lat="43.27121" lon="-1.06406">
        <ele>215.47</ele>
        <time>2021-08-20T14:07:33Z</time>
      </trkpt>
      <trkpt lat="43.27118" lon="-1.06399">
        <ele>214.99</ele>
        <time>2021-08-20T14:07:34Z</time>
      </trkpt>
      <trkpt lat="43.27116" lon="-1.06391">
        <ele>214.51</ele>
        <time>2021-08-20T14:07:35Z</time>
      </trkpt>
      <trkpt lat="43.27115" lon="-1.06382">
        <ele>213.07</ele>
        <time>2021-08-20T14:07:36Z</time>
      </trkpt>
      <trkpt lat="43.27115" lon="-1.06373">
        <ele>211.63</ele>
        <time>2021-08-20T14:07:37Z</time>
      </trkpt>
      <trkpt lat="43.27116" lon="-1.06364">
        <ele>210.67</ele>
        <time>2021-08-20T14:07:38Z</time>
      </trkpt>
      <trkpt lat="43.27118" lon="-1.06355">
        <ele>209.22</ele>
        <time>2021-08-20T14:07:39Z</time>
      </trkpt>
      <trkpt lat="43.2712" lon="-1.06345">
        <ele>207.78</ele>
        <time>2021-08-20T14:07:40Z</time>
      </trkpt>
      <trkpt lat="43.27126" lon="-1.06315">
        <ele>203.46</ele>
        <time>2021-08-20T14:07:43Z</time>
      </trkpt>
      <trkpt lat="43.27132" lon="-1.06294">
        <ele>200.57</ele>
        <time>2021-08-20T14:07:45Z</time>
      </trkpt>
      <trkpt lat="43.27137" lon="-1.06274">
        <ele>199.61</ele>
        <time>2021-08-20T14:07:47Z</time>
      </trkpt>
      <trkpt lat="43.27144" lon="-1.06243">
        <ele>197.69</ele>
        <time>2021-08-20T14:07:51Z</time>
      </trkpt>
      <trkpt lat="43.27144" lon="-1.0624">
        <ele>198.65</ele>
        <time>2021-08-20T14:07:52Z</time>
      </trkpt>
      <trkpt lat="43.27143" lon="-1.0624">
        <ele>198.65</ele>
        <time>2021-08-20T14:07:56Z</time>
      </trkpt>
      <trkpt lat="43.27143" lon="-1.06241">
        <ele>198.65</ele>
        <time>2021-08-20T14:07:57Z</time>
      </trkpt>
      <trkpt lat="43.27138" lon="-1.06262">
        <ele>199.61</ele>
        <time>2021-08-20T14:08:05Z</time>
      </trkpt>
      <trkpt lat="43.27134" lon="-1.06273">
        <ele>200.57</ele>
        <time>2021-08-20T14:08:11Z</time>
      </trkpt>
      <trkpt lat="43.27134" lon="-1.06271">
        <ele>200.57</ele>
        <time>2021-08-20T14:08:22Z</time>
      </trkpt>
      <trkpt lat="43.27134" lon="-1.06272">
        <ele>200.57</ele>
        <time>2021-08-20T14:08:33Z</time>
      </trkpt>
      <trkpt lat="43.27136" lon="-1.06269">
        <ele>200.57</ele>
        <time>2021-08-20T14:08:46Z</time>
      </trkpt>
      <trkpt lat="43.27136" lon="-1.06266">
        <ele>200.57</ele>
        <time>2021-08-20T14:08:47Z</time>
      </trkpt>
      <trkpt lat="43.27136" lon="-1.06263">
        <ele>200.57</ele>
        <time>2021-08-20T14:08:48Z</time>
      </trkpt>
      <trkpt lat="43.2714" lon="-1.06245">
        <ele>198.65</ele>
        <time>2021-08-20T14:08:52Z</time>
      </trkpt>
      <trkpt lat="43.27144" lon="-1.06225">
        <ele>198.17</ele>
        <time>2021-08-20T14:08:55Z</time>
      </trkpt>
      <trkpt lat="43.27144" lon="-1.06218">
        <ele>197.69</ele>
        <time>2021-08-20T14:08:56Z</time>
      </trkpt>
      <trkpt lat="43.27143" lon="-1.0621">
        <ele>197.69</ele>
        <time>2021-08-20T14:08:57Z</time>
      </trkpt>
      <trkpt lat="43.27134" lon="-1.0615">
        <ele>197.21</ele>
        <time>2021-08-20T14:09:05Z</time>
      </trkpt>
      <trkpt lat="43.27132" lon="-1.06143">
        <ele>197.21</ele>
        <time>2021-08-20T14:09:06Z</time>
      </trkpt>
      <trkpt lat="43.2713" lon="-1.06135">
        <ele>197.21</ele>
        <time>2021-08-20T14:09:07Z</time>
      </trkpt>
      <trkpt lat="43.27128" lon="-1.0612">
        <ele>197.21</ele>
        <time>2021-08-20T14:09:09Z</time>
      </trkpt>
      <trkpt lat="43.27128" lon="-1.06112">
        <ele>197.21</ele>
        <time>2021-08-20T14:09:10Z</time>
      </trkpt>
      <trkpt lat="43.27132" lon="-1.06053">
        <ele>196.73</ele>
        <time>2021-08-20T14:09:18Z</time>
      </trkpt>
      <trkpt lat="43.27132" lon="-1.06016">
        <ele>196.73</ele>
        <time>2021-08-20T14:09:23Z</time>
      </trkpt>
      <trkpt lat="43.27131" lon="-1.06009">
        <ele>196.25</ele>
        <time>2021-08-20T14:09:24Z</time>
      </trkpt>
      <trkpt lat="43.2713" lon="-1.06001">
        <ele>196.25</ele>
        <time>2021-08-20T14:09:25Z</time>
      </trkpt>
      <trkpt lat="43.27127" lon="-1.05995">
        <ele>196.25</ele>
        <time>2021-08-20T14:09:26Z</time>
      </trkpt>
      <trkpt lat="43.27124" lon="-1.05988">
        <ele>195.77</ele>
        <time>2021-08-20T14:09:27Z</time>
      </trkpt>
      <trkpt lat="43.2712" lon="-1.05982">
        <ele>195.28</ele>
        <time>2021-08-20T14:09:28Z</time>
      </trkpt>
      <trkpt lat="43.27116" lon="-1.05977">
        <ele>195.28</ele>
        <time>2021-08-20T14:09:29Z</time>
      </trkpt>
      <trkpt lat="43.27112" lon="-1.05972">
        <ele>195.28</ele>
        <time>2021-08-20T14:09:30Z</time>
      </trkpt>
      <trkpt lat="43.27108" lon="-1.05968">
        <ele>195.28</ele>
        <time>2021-08-20T14:09:31Z</time>
      </trkpt>
      <trkpt lat="43.27103" lon="-1.05964">
        <ele>195.77</ele>
        <time>2021-08-20T14:09:32Z</time>
      </trkpt>
      <trkpt lat="43.27098" lon="-1.05961">
        <ele>195.77</ele>
        <time>2021-08-20T14:09:33Z</time>
      </trkpt>
      <trkpt lat="43.2707" lon="-1.05942">
        <ele>197.69</ele>
        <time>2021-08-20T14:09:40Z</time>
      </trkpt>
      <trkpt lat="43.27066" lon="-1.0594">
        <ele>197.69</ele>
        <time>2021-08-20T14:09:41Z</time>
      </trkpt>
      <trkpt lat="43.27063" lon="-1.05937">
        <ele>197.69</ele>
        <time>2021-08-20T14:09:42Z</time>
      </trkpt>
      <trkpt lat="43.27037" lon="-1.05918">
        <ele>198.65</ele>
        <time>2021-08-20T14:09:50Z</time>
      </trkpt>
      <trkpt lat="43.27031" lon="-1.0591">
        <ele>198.65</ele>
        <time>2021-08-20T14:09:52Z</time>
      </trkpt>
      <trkpt lat="43.27014" lon="-1.0588">
        <ele>199.13</ele>
        <time>2021-08-20T14:09:59Z</time>
      </trkpt>
      <trkpt lat="43.27012" lon="-1.05875">
        <ele>199.13</ele>
        <time>2021-08-20T14:10:00Z</time>
      </trkpt>
      <trkpt lat="43.27009" lon="-1.05864">
        <ele>199.13</ele>
        <time>2021-08-20T14:10:02Z</time>
      </trkpt>
      <trkpt lat="43.27008" lon="-1.05858">
        <ele>199.13</ele>
        <time>2021-08-20T14:10:03Z</time>
      </trkpt>
      <trkpt lat="43.27007" lon="-1.05852">
        <ele>199.13</ele>
        <time>2021-08-20T14:10:04Z</time>
      </trkpt>
      <trkpt lat="43.27007" lon="-1.05846">
        <ele>199.13</ele>
        <time>2021-08-20T14:10:05Z</time>
      </trkpt>
      <trkpt lat="43.27007" lon="-1.0584">
        <ele>198.65</ele>
        <time>2021-08-20T14:10:06Z</time>
      </trkpt>
      <trkpt lat="43.27006" lon="-1.05833">
        <ele>198.65</ele>
        <time>2021-08-20T14:10:07Z</time>
      </trkpt>
      <trkpt lat="43.27006" lon="-1.05811">
        <ele>196.73</ele>
        <time>2021-08-20T14:10:10Z</time>
      </trkpt>
      <trkpt lat="43.27006" lon="-1.05769">
        <ele>193.84</ele>
        <time>2021-08-20T14:10:15Z</time>
      </trkpt>
      <trkpt lat="43.27005" lon="-1.0576">
        <ele>193.36</ele>
        <time>2021-08-20T14:10:16Z</time>
      </trkpt>
      <trkpt lat="43.27004" lon="-1.05751">
        <ele>192.88</ele>
        <time>2021-08-20T14:10:17Z</time>
      </trkpt>
      <trkpt lat="43.27002" lon="-1.05742">
        <ele>192.4</ele>
        <time>2021-08-20T14:10:18Z</time>
      </trkpt>
      <trkpt lat="43.26999" lon="-1.05733">
        <ele>191.92</ele>
        <time>2021-08-20T14:10:19Z</time>
      </trkpt>
      <trkpt lat="43.26995" lon="-1.05725">
        <ele>190.96</ele>
        <time>2021-08-20T14:10:20Z</time>
      </trkpt>
      <trkpt lat="43.26991" lon="-1.05716">
        <ele>190.96</ele>
        <time>2021-08-20T14:10:21Z</time>
      </trkpt>
      <trkpt lat="43.26952" lon="-1.05651">
        <ele>189.52</ele>
        <time>2021-08-20T14:10:29Z</time>
      </trkpt>
      <trkpt lat="43.26934" lon="-1.05621">
        <ele>190.48</ele>
        <time>2021-08-20T14:10:34Z</time>
      </trkpt>
      <trkpt lat="43.26931" lon="-1.05616">
        <ele>190.48</ele>
        <time>2021-08-20T14:10:35Z</time>
      </trkpt>
      <trkpt lat="43.26928" lon="-1.05611">
        <ele>191.44</ele>
        <time>2021-08-20T14:10:36Z</time>
      </trkpt>
      <trkpt lat="43.26926" lon="-1.05607">
        <ele>191.44</ele>
        <time>2021-08-20T14:10:37Z</time>
      </trkpt>
      <trkpt lat="43.26924" lon="-1.05603">
        <ele>191.92</ele>
        <time>2021-08-20T14:10:38Z</time>
      </trkpt>
      <trkpt lat="43.26921" lon="-1.05599">
        <ele>191.92</ele>
        <time>2021-08-20T14:10:39Z</time>
      </trkpt>
      <trkpt lat="43.26905" lon="-1.05569">
        <ele>192.88</ele>
        <time>2021-08-20T14:10:46Z</time>
      </trkpt>
      <trkpt lat="43.26889" lon="-1.05546">
        <ele>192.88</ele>
        <time>2021-08-20T14:10:52Z</time>
      </trkpt>
      <trkpt lat="43.26886" lon="-1.05543">
        <ele>192.88</ele>
        <time>2021-08-20T14:10:53Z</time>
      </trkpt>
      <trkpt lat="43.26858" lon="-1.05519">
        <ele>192.4</ele>
        <time>2021-08-20T14:11:00Z</time>
      </trkpt>
      <trkpt lat="43.26842" lon="-1.05507">
        <ele>190.48</ele>
        <time>2021-08-20T14:11:03Z</time>
      </trkpt>
      <trkpt lat="43.26824" lon="-1.05494">
        <ele>189.04</ele>
        <time>2021-08-20T14:11:06Z</time>
      </trkpt>
      <trkpt lat="43.26817" lon="-1.05491">
        <ele>189.04</ele>
        <time>2021-08-20T14:11:07Z</time>
      </trkpt>
      <trkpt lat="43.26811" lon="-1.05489">
        <ele>188.56</ele>
        <time>2021-08-20T14:11:08Z</time>
      </trkpt>
      <trkpt lat="43.26799" lon="-1.05485">
        <ele>188.56</ele>
        <time>2021-08-20T14:11:10Z</time>
      </trkpt>
      <trkpt lat="43.26765" lon="-1.05479">
        <ele>188.56</ele>
        <time>2021-08-20T14:11:17Z</time>
      </trkpt>
      <trkpt lat="43.26733" lon="-1.05475">
        <ele>190</ele>
        <time>2021-08-20T14:11:25Z</time>
      </trkpt>
      <trkpt lat="43.26729" lon="-1.05474">
        <ele>190</ele>
        <time>2021-08-20T14:11:26Z</time>
      </trkpt>
      <trkpt lat="43.26725" lon="-1.05473">
        <ele>190</ele>
        <time>2021-08-20T14:11:27Z</time>
      </trkpt>
      <trkpt lat="43.2672" lon="-1.05472">
        <ele>190</ele>
        <time>2021-08-20T14:11:28Z</time>
      </trkpt>
      <trkpt lat="43.26716" lon="-1.05469">
        <ele>188.56</ele>
        <time>2021-08-20T14:11:29Z</time>
      </trkpt>
      <trkpt lat="43.26712" lon="-1.05466">
        <ele>188.56</ele>
        <time>2021-08-20T14:11:30Z</time>
      </trkpt>
      <trkpt lat="43.26708" lon="-1.05461">
        <ele>187.59</ele>
        <time>2021-08-20T14:11:31Z</time>
      </trkpt>
      <trkpt lat="43.26706" lon="-1.05455">
        <ele>186.63</ele>
        <time>2021-08-20T14:11:32Z</time>
      </trkpt>
      <trkpt lat="43.26704" lon="-1.05449">
        <ele>186.63</ele>
        <time>2021-08-20T14:11:33Z</time>
      </trkpt>
      <trkpt lat="43.26703" lon="-1.05442">
        <ele>185.19</ele>
        <time>2021-08-20T14:11:34Z</time>
      </trkpt>
      <trkpt lat="43.26704" lon="-1.05435">
        <ele>184.71</ele>
        <time>2021-08-20T14:11:35Z</time>
      </trkpt>
      <trkpt lat="43.26704" lon="-1.05428">
        <ele>183.75</ele>
        <time>2021-08-20T14:11:36Z</time>
      </trkpt>
      <trkpt lat="43.26705" lon="-1.05422">
        <ele>183.27</ele>
        <time>2021-08-20T14:11:37Z</time>
      </trkpt>
      <trkpt lat="43.26705" lon="-1.05415">
        <ele>182.31</ele>
        <time>2021-08-20T14:11:38Z</time>
      </trkpt>
      <trkpt lat="43.26704" lon="-1.05407">
        <ele>181.83</ele>
        <time>2021-08-20T14:11:39Z</time>
      </trkpt>
      <trkpt lat="43.26702" lon="-1.05399">
        <ele>180.87</ele>
        <time>2021-08-20T14:11:40Z</time>
      </trkpt>
      <trkpt lat="43.26699" lon="-1.05392">
        <ele>180.38</ele>
        <time>2021-08-20T14:11:41Z</time>
      </trkpt>
      <trkpt lat="43.26694" lon="-1.05385">
        <ele>179.9</ele>
        <time>2021-08-20T14:11:42Z</time>
      </trkpt>
      <trkpt lat="43.26689" lon="-1.05378">
        <ele>179.42</ele>
        <time>2021-08-20T14:11:43Z</time>
      </trkpt>
      <trkpt lat="43.26685" lon="-1.05372">
        <ele>178.94</ele>
        <time>2021-08-20T14:11:44Z</time>
      </trkpt>
      <trkpt lat="43.26659" lon="-1.05336">
        <ele>176.54</ele>
        <time>2021-08-20T14:11:49Z</time>
      </trkpt>
      <trkpt lat="43.26654" lon="-1.0533">
        <ele>176.06</ele>
        <time>2021-08-20T14:11:50Z</time>
      </trkpt>
      <trkpt lat="43.26649" lon="-1.05326">
        <ele>174.62</ele>
        <time>2021-08-20T14:11:51Z</time>
      </trkpt>
      <trkpt lat="43.26644" lon="-1.05323">
        <ele>174.62</ele>
        <time>2021-08-20T14:11:52Z</time>
      </trkpt>
      <trkpt lat="43.26639" lon="-1.05321">
        <ele>175.1</ele>
        <time>2021-08-20T14:11:53Z</time>
      </trkpt>
      <trkpt lat="43.26634" lon="-1.05321">
        <ele>174.14</ele>
        <time>2021-08-20T14:11:54Z</time>
      </trkpt>
      <trkpt lat="43.26628" lon="-1.05322">
        <ele>173.66</ele>
        <time>2021-08-20T14:11:55Z</time>
      </trkpt>
      <trkpt lat="43.26622" lon="-1.05326">
        <ele>173.66</ele>
        <time>2021-08-20T14:11:56Z</time>
      </trkpt>
      <trkpt lat="43.26616" lon="-1.05332">
        <ele>172.69</ele>
        <time>2021-08-20T14:11:57Z</time>
      </trkpt>
      <trkpt lat="43.26611" lon="-1.05339">
        <ele>172.69</ele>
        <time>2021-08-20T14:11:58Z</time>
      </trkpt>
      <trkpt lat="43.26605" lon="-1.05346">
        <ele>171.73</ele>
        <time>2021-08-20T14:11:59Z</time>
      </trkpt>
      <trkpt lat="43.26578" lon="-1.05384">
        <ele>169.33</ele>
        <time>2021-08-20T14:12:04Z</time>
      </trkpt>
      <trkpt lat="43.26552" lon="-1.0542">
        <ele>165.96</ele>
        <time>2021-08-20T14:12:09Z</time>
      </trkpt>
      <trkpt lat="43.26526" lon="-1.05457">
        <ele>162.6</ele>
        <time>2021-08-20T14:12:14Z</time>
      </trkpt>
      <trkpt lat="43.26521" lon="-1.05464">
        <ele>162.12</ele>
        <time>2021-08-20T14:12:15Z</time>
      </trkpt>
      <trkpt lat="43.26518" lon="-1.05472">
        <ele>161.64</ele>
        <time>2021-08-20T14:12:16Z</time>
      </trkpt>
      <trkpt lat="43.26515" lon="-1.05481">
        <ele>160.68</ele>
        <time>2021-08-20T14:12:17Z</time>
      </trkpt>
      <trkpt lat="43.26515" lon="-1.0549">
        <ele>159.72</ele>
        <time>2021-08-20T14:12:18Z</time>
      </trkpt>
      <trkpt lat="43.26515" lon="-1.05499">
        <ele>159.24</ele>
        <time>2021-08-20T14:12:19Z</time>
      </trkpt>
      <trkpt lat="43.26516" lon="-1.05507">
        <ele>159.24</ele>
        <time>2021-08-20T14:12:20Z</time>
      </trkpt>
      <trkpt lat="43.26516" lon="-1.05524">
        <ele>158.27</ele>
        <time>2021-08-20T14:12:22Z</time>
      </trkpt>
      <trkpt lat="43.26514" lon="-1.05531">
        <ele>157.31</ele>
        <time>2021-08-20T14:12:23Z</time>
      </trkpt>
      <trkpt lat="43.26511" lon="-1.05537">
        <ele>156.35</ele>
        <time>2021-08-20T14:12:24Z</time>
      </trkpt>
      <trkpt lat="43.26507" lon="-1.05542">
        <ele>155.39</ele>
        <time>2021-08-20T14:12:25Z</time>
      </trkpt>
      <trkpt lat="43.265" lon="-1.05545">
        <ele>154.91</ele>
        <time>2021-08-20T14:12:26Z</time>
      </trkpt>
      <trkpt lat="43.26494" lon="-1.05547">
        <ele>153.95</ele>
        <time>2021-08-20T14:12:27Z</time>
      </trkpt>
      <trkpt lat="43.26487" lon="-1.05548">
        <ele>153.47</ele>
        <time>2021-08-20T14:12:28Z</time>
      </trkpt>
      <trkpt lat="43.2648" lon="-1.05548">
        <ele>152.03</ele>
        <time>2021-08-20T14:12:29Z</time>
      </trkpt>
      <trkpt lat="43.26474" lon="-1.05547">
        <ele>151.54</ele>
        <time>2021-08-20T14:12:30Z</time>
      </trkpt>
      <trkpt lat="43.26458" lon="-1.05547">
        <ele>150.58</ele>
        <time>2021-08-20T14:12:33Z</time>
      </trkpt>
      <trkpt lat="43.26454" lon="-1.05549">
        <ele>150.1</ele>
        <time>2021-08-20T14:12:34Z</time>
      </trkpt>
      <trkpt lat="43.26445" lon="-1.05554">
        <ele>148.66</ele>
        <time>2021-08-20T14:12:36Z</time>
      </trkpt>
      <trkpt lat="43.2644" lon="-1.05558">
        <ele>148.66</ele>
        <time>2021-08-20T14:12:37Z</time>
      </trkpt>
      <trkpt lat="43.26435" lon="-1.05562">
        <ele>148.18</ele>
        <time>2021-08-20T14:12:38Z</time>
      </trkpt>
      <trkpt lat="43.26431" lon="-1.05567">
        <ele>147.7</ele>
        <time>2021-08-20T14:12:39Z</time>
      </trkpt>
      <trkpt lat="43.26426" lon="-1.05573">
        <ele>146.74</ele>
        <time>2021-08-20T14:12:40Z</time>
      </trkpt>
      <trkpt lat="43.26422" lon="-1.05578">
        <ele>146.74</ele>
        <time>2021-08-20T14:12:41Z</time>
      </trkpt>
      <trkpt lat="43.26403" lon="-1.05609">
        <ele>143.85</ele>
        <time>2021-08-20T14:12:46Z</time>
      </trkpt>
      <trkpt lat="43.26399" lon="-1.05615">
        <ele>143.85</ele>
        <time>2021-08-20T14:12:47Z</time>
      </trkpt>
      <trkpt lat="43.26381" lon="-1.05646">
        <ele>140.49</ele>
        <time>2021-08-20T14:12:52Z</time>
      </trkpt>
      <trkpt lat="43.26364" lon="-1.05679">
        <ele>138.57</ele>
        <time>2021-08-20T14:12:58Z</time>
      </trkpt>
      <trkpt lat="43.26357" lon="-1.05692">
        <ele>137.61</ele>
        <time>2021-08-20T14:13:01Z</time>
      </trkpt>
      <trkpt lat="43.26354" lon="-1.05695">
        <ele>137.13</ele>
        <time>2021-08-20T14:13:02Z</time>
      </trkpt>
      <trkpt lat="43.26349" lon="-1.05698">
        <ele>136.64</ele>
        <time>2021-08-20T14:13:03Z</time>
      </trkpt>
      <trkpt lat="43.26344" lon="-1.057">
        <ele>136.16</ele>
        <time>2021-08-20T14:13:04Z</time>
      </trkpt>
      <trkpt lat="43.26339" lon="-1.057">
        <ele>136.16</ele>
        <time>2021-08-20T14:13:05Z</time>
      </trkpt>
      <trkpt lat="43.26333" lon="-1.057">
        <ele>135.2</ele>
        <time>2021-08-20T14:13:06Z</time>
      </trkpt>
      <trkpt lat="43.26327" lon="-1.05699">
        <ele>135.2</ele>
        <time>2021-08-20T14:13:07Z</time>
      </trkpt>
      <trkpt lat="43.26308" lon="-1.05695">
        <ele>133.28</ele>
        <time>2021-08-20T14:13:10Z</time>
      </trkpt>
      <trkpt lat="43.26295" lon="-1.05691">
        <ele>133.28</ele>
        <time>2021-08-20T14:13:12Z</time>
      </trkpt>
      <trkpt lat="43.26289" lon="-1.05691">
        <ele>133.28</ele>
        <time>2021-08-20T14:13:13Z</time>
      </trkpt>
      <trkpt lat="43.26265" lon="-1.05693">
        <ele>133.28</ele>
        <time>2021-08-20T14:13:17Z</time>
      </trkpt>
      <trkpt lat="43.26259" lon="-1.05693">
        <ele>133.28</ele>
        <time>2021-08-20T14:13:18Z</time>
      </trkpt>
      <trkpt lat="43.26243" lon="-1.05689">
        <ele>133.28</ele>
        <time>2021-08-20T14:13:21Z</time>
      </trkpt>
      <trkpt lat="43.26239" lon="-1.05686">
        <ele>133.28</ele>
        <time>2021-08-20T14:13:22Z</time>
      </trkpt>
      <trkpt lat="43.26234" lon="-1.05683">
        <ele>133.28</ele>
        <time>2021-08-20T14:13:23Z</time>
      </trkpt>
      <trkpt lat="43.26231" lon="-1.0568">
        <ele>133.28</ele>
        <time>2021-08-20T14:13:24Z</time>
      </trkpt>
      <trkpt lat="43.26228" lon="-1.05677">
        <ele>134.72</ele>
        <time>2021-08-20T14:13:25Z</time>
      </trkpt>
      <trkpt lat="43.26225" lon="-1.05675">
        <ele>135.2</ele>
        <time>2021-08-20T14:13:26Z</time>
      </trkpt>
      <trkpt lat="43.26224" lon="-1.05673">
        <ele>135.2</ele>
        <time>2021-08-20T14:13:27Z</time>
      </trkpt>
      <trkpt lat="43.26222" lon="-1.05671">
        <ele>135.68</ele>
        <time>2021-08-20T14:13:28Z</time>
      </trkpt>
      <trkpt lat="43.26221" lon="-1.0567">
        <ele>135.68</ele>
        <time>2021-08-20T14:13:29Z</time>
      </trkpt>
      <trkpt lat="43.2622" lon="-1.05669">
        <ele>135.68</ele>
        <time>2021-08-20T14:13:30Z</time>
      </trkpt>
      <trkpt lat="43.26219" lon="-1.05668">
        <ele>136.16</ele>
        <time>2021-08-20T14:13:31Z</time>
      </trkpt>
      <trkpt lat="43.26219" lon="-1.05666">
        <ele>136.16</ele>
        <time>2021-08-20T14:13:32Z</time>
      </trkpt>
      <trkpt lat="43.26219" lon="-1.05665">
        <ele>136.16</ele>
        <time>2021-08-20T14:13:33Z</time>
      </trkpt>
      <trkpt lat="43.26218" lon="-1.05663">
        <ele>137.13</ele>
        <time>2021-08-20T14:13:34Z</time>
      </trkpt>
      <trkpt lat="43.26217" lon="-1.05662">
        <ele>137.13</ele>
        <time>2021-08-20T14:13:35Z</time>
      </trkpt>
      <trkpt lat="43.26216" lon="-1.0566">
        <ele>137.61</ele>
        <time>2021-08-20T14:13:36Z</time>
      </trkpt>
      <trkpt lat="43.26215" lon="-1.05659">
        <ele>137.61</ele>
        <time>2021-08-20T14:13:37Z</time>
      </trkpt>
      <trkpt lat="43.26214" lon="-1.05658">
        <ele>137.61</ele>
        <time>2021-08-20T14:13:38Z</time>
      </trkpt>
      <trkpt lat="43.26213" lon="-1.05657">
        <ele>138.09</ele>
        <time>2021-08-20T14:13:39Z</time>
      </trkpt>
      <trkpt lat="43.26203" lon="-1.05648">
        <ele>139.05</ele>
        <time>2021-08-20T14:13:48Z</time>
      </trkpt>
      <trkpt lat="43.26201" lon="-1.05647">
        <ele>139.53</ele>
        <time>2021-08-20T14:13:50Z</time>
      </trkpt>
      <trkpt lat="43.262" lon="-1.05646">
        <ele>139.53</ele>
        <time>2021-08-20T14:13:51Z</time>
      </trkpt>
      <trkpt lat="43.26196" lon="-1.05642">
        <ele>140.01</ele>
        <time>2021-08-20T14:13:56Z</time>
      </trkpt>
      <trkpt lat="43.26187" lon="-1.05638">
        <ele>140.97</ele>
        <time>2021-08-20T14:14:06Z</time>
      </trkpt>
      <trkpt lat="43.26177" lon="-1.05636">
        <ele>141.93</ele>
        <time>2021-08-20T14:14:15Z</time>
      </trkpt>
      <trkpt lat="43.26165" lon="-1.05635">
        <ele>143.37</ele>
        <time>2021-08-20T14:14:25Z</time>
      </trkpt>
      <trkpt lat="43.26154" lon="-1.05633">
        <ele>144.34</ele>
        <time>2021-08-20T14:14:34Z</time>
      </trkpt>
      <trkpt lat="43.26146" lon="-1.05633">
        <ele>145.3</ele>
        <time>2021-08-20T14:14:41Z</time>
      </trkpt>
      <trkpt lat="43.26142" lon="-1.05642">
        <ele>146.74</ele>
        <time>2021-08-20T14:14:49Z</time>
      </trkpt>
      <trkpt lat="43.26142" lon="-1.05647">
        <ele>147.22</ele>
        <time>2021-08-20T14:14:53Z</time>
      </trkpt>
      <trkpt lat="43.26143" lon="-1.0566">
        <ele>148.18</ele>
        <time>2021-08-20T14:15:02Z</time>
      </trkpt>
      <trkpt lat="43.26144" lon="-1.05669">
        <ele>149.14</ele>
        <time>2021-08-20T14:15:08Z</time>
      </trkpt>
      <trkpt lat="43.26143" lon="-1.0567">
        <ele>149.14</ele>
        <time>2021-08-20T14:15:09Z</time>
      </trkpt>
      <trkpt lat="43.26142" lon="-1.05672">
        <ele>149.14</ele>
        <time>2021-08-20T14:15:10Z</time>
      </trkpt>
      <trkpt lat="43.26143" lon="-1.05674">
        <ele>149.62</ele>
        <time>2021-08-20T14:15:11Z</time>
      </trkpt>
      <trkpt lat="43.26143" lon="-1.05675">
        <ele>149.62</ele>
        <time>2021-08-20T14:15:12Z</time>
      </trkpt>
      <trkpt lat="43.26144" lon="-1.05678">
        <ele>149.62</ele>
        <time>2021-08-20T14:15:17Z</time>
      </trkpt>
      <trkpt lat="43.26143" lon="-1.05681">
        <ele>150.1</ele>
        <time>2021-08-20T14:15:23Z</time>
      </trkpt>
      <trkpt lat="43.26143" lon="-1.05686">
        <ele>150.1</ele>
        <time>2021-08-20T14:15:30Z</time>
      </trkpt>
      <trkpt lat="43.26142" lon="-1.05688">
        <ele>150.1</ele>
        <time>2021-08-20T14:15:35Z</time>
      </trkpt>
      <trkpt lat="43.26141" lon="-1.05692">
        <ele>150.58</ele>
        <time>2021-08-20T14:15:37Z</time>
      </trkpt>
      <trkpt lat="43.2614" lon="-1.05695">
        <ele>150.58</ele>
        <time>2021-08-20T14:15:38Z</time>
      </trkpt>
      <trkpt lat="43.2614" lon="-1.05697">
        <ele>150.58</ele>
        <time>2021-08-20T14:15:39Z</time>
      </trkpt>
      <trkpt lat="43.2614" lon="-1.05718">
        <ele>152.51</ele>
        <time>2021-08-20T14:15:47Z</time>
      </trkpt>
      <trkpt lat="43.26139" lon="-1.05739">
        <ele>153.95</ele>
        <time>2021-08-20T14:15:56Z</time>
      </trkpt>
      <trkpt lat="43.26138" lon="-1.05753">
        <ele>154.43</ele>
        <time>2021-08-20T14:16:04Z</time>
      </trkpt>
      <trkpt lat="43.26136" lon="-1.05768">
        <ele>155.39</ele>
        <time>2021-08-20T14:16:13Z</time>
      </trkpt>
      <trkpt lat="43.26136" lon="-1.05788">
        <ele>156.83</ele>
        <time>2021-08-20T14:16:23Z</time>
      </trkpt>
      <trkpt lat="43.26136" lon="-1.05804">
        <ele>158.27</ele>
        <time>2021-08-20T14:16:31Z</time>
      </trkpt>
      <trkpt lat="43.26136" lon="-1.05808">
        <ele>158.27</ele>
        <time>2021-08-20T14:16:33Z</time>
      </trkpt>
      <trkpt lat="43.26136" lon="-1.05816">
        <ele>159.24</ele>
        <time>2021-08-20T14:16:37Z</time>
      </trkpt>
      <trkpt lat="43.26137" lon="-1.05818">
        <ele>159.24</ele>
        <time>2021-08-20T14:16:38Z</time>
      </trkpt>
      <trkpt lat="43.26137" lon="-1.0582">
        <ele>159.24</ele>
        <time>2021-08-20T14:16:39Z</time>
      </trkpt>
      <trkpt lat="43.26137" lon="-1.05823">
        <ele>159.24</ele>
        <time>2021-08-20T14:16:40Z</time>
      </trkpt>
      <trkpt lat="43.26137" lon="-1.05825">
        <ele>159.72</ele>
        <time>2021-08-20T14:16:41Z</time>
      </trkpt>
      <trkpt lat="43.26137" lon="-1.05827">
        <ele>159.72</ele>
        <time>2021-08-20T14:16:42Z</time>
      </trkpt>
      <trkpt lat="43.26137" lon="-1.0583">
        <ele>160.2</ele>
        <time>2021-08-20T14:16:43Z</time>
      </trkpt>
      <trkpt lat="43.26137" lon="-1.05833">
        <ele>160.2</ele>
        <time>2021-08-20T14:16:44Z</time>
      </trkpt>
      <trkpt lat="43.26137" lon="-1.05835">
        <ele>160.2</ele>
        <time>2021-08-20T14:16:45Z</time>
      </trkpt>
      <trkpt lat="43.26136" lon="-1.05838">
        <ele>160.68</ele>
        <time>2021-08-20T14:16:46Z</time>
      </trkpt>
      <trkpt lat="43.26128" lon="-1.05856">
        <ele>162.12</ele>
        <time>2021-08-20T14:16:55Z</time>
      </trkpt>
      <trkpt lat="43.26126" lon="-1.0586">
        <ele>162.6</ele>
        <time>2021-08-20T14:16:57Z</time>
      </trkpt>
      <trkpt lat="43.26125" lon="-1.05861">
        <ele>162.6</ele>
        <time>2021-08-20T14:16:58Z</time>
      </trkpt>
      <trkpt lat="43.26124" lon="-1.05863">
        <ele>162.6</ele>
        <time>2021-08-20T14:16:59Z</time>
      </trkpt>
      <trkpt lat="43.26123" lon="-1.05864">
        <ele>162.6</ele>
        <time>2021-08-20T14:17:00Z</time>
      </trkpt>
      <trkpt lat="43.26121" lon="-1.05865">
        <ele>162.6</ele>
        <time>2021-08-20T14:17:01Z</time>
      </trkpt>
      <trkpt lat="43.2612" lon="-1.05867">
        <ele>163.08</ele>
        <time>2021-08-20T14:17:02Z</time>
      </trkpt>
      <trkpt lat="43.26119" lon="-1.05869">
        <ele>163.08</ele>
        <time>2021-08-20T14:17:03Z</time>
      </trkpt>
      <trkpt lat="43.26117" lon="-1.0587">
        <ele>163.08</ele>
        <time>2021-08-20T14:17:04Z</time>
      </trkpt>
      <trkpt lat="43.26116" lon="-1.05872">
        <ele>163.08</ele>
        <time>2021-08-20T14:17:05Z</time>
      </trkpt>
      <trkpt lat="43.26115" lon="-1.05874">
        <ele>163.08</ele>
        <time>2021-08-20T14:17:06Z</time>
      </trkpt>
      <trkpt lat="43.26114" lon="-1.05876">
        <ele>163.56</ele>
        <time>2021-08-20T14:17:07Z</time>
      </trkpt>
      <trkpt lat="43.26113" lon="-1.05877">
        <ele>163.56</ele>
        <time>2021-08-20T14:17:08Z</time>
      </trkpt>
      <trkpt lat="43.26112" lon="-1.0588">
        <ele>164.04</ele>
        <time>2021-08-20T14:17:09Z</time>
      </trkpt>
      <trkpt lat="43.26111" lon="-1.05882">
        <ele>164.04</ele>
        <time>2021-08-20T14:17:10Z</time>
      </trkpt>
      <trkpt lat="43.26111" lon="-1.05884">
        <ele>164.52</ele>
        <time>2021-08-20T14:17:11Z</time>
      </trkpt>
      <trkpt lat="43.26103" lon="-1.05898">
        <ele>165</ele>
        <time>2021-08-20T14:17:18Z</time>
      </trkpt>
      <trkpt lat="43.26102" lon="-1.059">
        <ele>165</ele>
        <time>2021-08-20T14:17:19Z</time>
      </trkpt>
      <trkpt lat="43.26101" lon="-1.05903">
        <ele>165</ele>
        <time>2021-08-20T14:17:20Z</time>
      </trkpt>
      <trkpt lat="43.261" lon="-1.05905">
        <ele>165</ele>
        <time>2021-08-20T14:17:21Z</time>
      </trkpt>
      <trkpt lat="43.26099" lon="-1.05907">
        <ele>165</ele>
        <time>2021-08-20T14:17:22Z</time>
      </trkpt>
      <trkpt lat="43.26098" lon="-1.0591">
        <ele>165</ele>
        <time>2021-08-20T14:17:23Z</time>
      </trkpt>
      <trkpt lat="43.26088" lon="-1.0594">
        <ele>165</ele>
        <time>2021-08-20T14:17:32Z</time>
      </trkpt>
      <trkpt lat="43.2608" lon="-1.05965">
        <ele>165.48</ele>
        <time>2021-08-20T14:17:39Z</time>
      </trkpt>
      <trkpt lat="43.26068" lon="-1.05988">
        <ele>166.93</ele>
        <time>2021-08-20T14:17:47Z</time>
      </trkpt>
      <trkpt lat="43.26055" lon="-1.06011">
        <ele>167.89</ele>
        <time>2021-08-20T14:17:56Z</time>
      </trkpt>
      <trkpt lat="43.26041" lon="-1.06031">
        <ele>168.37</ele>
        <time>2021-08-20T14:18:04Z</time>
      </trkpt>
      <trkpt lat="43.26029" lon="-1.06056">
        <ele>169.81</ele>
        <time>2021-08-20T14:18:13Z</time>
      </trkpt>
      <trkpt lat="43.26022" lon="-1.06076">
        <ele>170.77</ele>
        <time>2021-08-20T14:18:21Z</time>
      </trkpt>
      <trkpt lat="43.26014" lon="-1.06096">
        <ele>172.21</ele>
        <time>2021-08-20T14:18:29Z</time>
      </trkpt>
      <trkpt lat="43.26009" lon="-1.06106">
        <ele>172.69</ele>
        <time>2021-08-20T14:18:33Z</time>
      </trkpt>
      <trkpt lat="43.26008" lon="-1.06108">
        <ele>172.69</ele>
        <time>2021-08-20T14:18:34Z</time>
      </trkpt>
      <trkpt lat="43.26004" lon="-1.06125">
        <ele>173.17</ele>
        <time>2021-08-20T14:18:40Z</time>
      </trkpt>
      <trkpt lat="43.25995" lon="-1.06151">
        <ele>173.66</ele>
        <time>2021-08-20T14:18:48Z</time>
      </trkpt>
      <trkpt lat="43.25985" lon="-1.06189">
        <ele>174.14</ele>
        <time>2021-08-20T14:18:57Z</time>
      </trkpt>
      <trkpt lat="43.25976" lon="-1.06224">
        <ele>174.62</ele>
        <time>2021-08-20T14:19:05Z</time>
      </trkpt>
      <trkpt lat="43.25969" lon="-1.06251">
        <ele>176.06</ele>
        <time>2021-08-20T14:19:13Z</time>
      </trkpt>
      <trkpt lat="43.25961" lon="-1.06281">
        <ele>177.02</ele>
        <time>2021-08-20T14:19:22Z</time>
      </trkpt>
      <trkpt lat="43.25951" lon="-1.06317">
        <ele>178.46</ele>
        <time>2021-08-20T14:19:32Z</time>
      </trkpt>
      <trkpt lat="43.25943" lon="-1.06353">
        <ele>178.94</ele>
        <time>2021-08-20T14:19:42Z</time>
      </trkpt>
      <trkpt lat="43.25938" lon="-1.06379">
        <ele>178.94</ele>
        <time>2021-08-20T14:19:49Z</time>
      </trkpt>
      <trkpt lat="43.25936" lon="-1.06413">
        <ele>178.46</ele>
        <time>2021-08-20T14:19:56Z</time>
      </trkpt>
      <trkpt lat="43.25935" lon="-1.06435">
        <ele>177.02</ele>
        <time>2021-08-20T14:20:00Z</time>
      </trkpt>
      <trkpt lat="43.25935" lon="-1.06461">
        <ele>176.06</ele>
        <time>2021-08-20T14:20:05Z</time>
      </trkpt>
      <trkpt lat="43.25934" lon="-1.0648">
        <ele>174.62</ele>
        <time>2021-08-20T14:20:10Z</time>
      </trkpt>
      <trkpt lat="43.25936" lon="-1.0651">
        <ele>173.66</ele>
        <time>2021-08-20T14:20:15Z</time>
      </trkpt>
      <trkpt lat="43.25937" lon="-1.06564">
        <ele>170.77</ele>
        <time>2021-08-20T14:20:21Z</time>
      </trkpt>
      <trkpt lat="43.25937" lon="-1.06573">
        <ele>169.81</ele>
        <time>2021-08-20T14:20:22Z</time>
      </trkpt>
      <trkpt lat="43.25936" lon="-1.06589">
        <ele>168.85</ele>
        <time>2021-08-20T14:20:24Z</time>
      </trkpt>
      <trkpt lat="43.25936" lon="-1.06605">
        <ele>167.41</ele>
        <time>2021-08-20T14:20:26Z</time>
      </trkpt>
      <trkpt lat="43.25938" lon="-1.06613">
        <ele>166.93</ele>
        <time>2021-08-20T14:20:27Z</time>
      </trkpt>
      <trkpt lat="43.2594" lon="-1.06621">
        <ele>165.96</ele>
        <time>2021-08-20T14:20:28Z</time>
      </trkpt>
      <trkpt lat="43.25953" lon="-1.06652">
        <ele>164.52</ele>
        <time>2021-08-20T14:20:32Z</time>
      </trkpt>
      <trkpt lat="43.25953" lon="-1.06657">
        <ele>163.56</ele>
        <time>2021-08-20T14:20:33Z</time>
      </trkpt>
      <trkpt lat="43.25953" lon="-1.0666">
        <ele>163.56</ele>
        <time>2021-08-20T14:20:34Z</time>
      </trkpt>
      <trkpt lat="43.25952" lon="-1.06661">
        <ele>163.08</ele>
        <time>2021-08-20T14:20:35Z</time>
      </trkpt>
      <trkpt lat="43.2595" lon="-1.06663">
        <ele>163.08</ele>
        <time>2021-08-20T14:20:36Z</time>
      </trkpt>
      <trkpt lat="43.25949" lon="-1.06665">
        <ele>163.08</ele>
        <time>2021-08-20T14:20:37Z</time>
      </trkpt>
      <trkpt lat="43.25947" lon="-1.06667">
        <ele>163.08</ele>
        <time>2021-08-20T14:20:38Z</time>
      </trkpt>
      <trkpt lat="43.25945" lon="-1.0667">
        <ele>162.6</ele>
        <time>2021-08-20T14:20:39Z</time>
      </trkpt>
      <trkpt lat="43.25943" lon="-1.06673">
        <ele>162.6</ele>
        <time>2021-08-20T14:20:40Z</time>
      </trkpt>
      <trkpt lat="43.25932" lon="-1.0669">
        <ele>158.75</ele>
        <time>2021-08-20T14:20:45Z</time>
      </trkpt>
      <trkpt lat="43.25929" lon="-1.06693">
        <ele>158.75</ele>
        <time>2021-08-20T14:20:46Z</time>
      </trkpt>
      <trkpt lat="43.25918" lon="-1.067">
        <ele>155.87</ele>
        <time>2021-08-20T14:20:49Z</time>
      </trkpt>
      <trkpt lat="43.25914" lon="-1.06701">
        <ele>155.39</ele>
        <time>2021-08-20T14:20:50Z</time>
      </trkpt>
      <trkpt lat="43.25909" lon="-1.06701">
        <ele>155.39</ele>
        <time>2021-08-20T14:20:51Z</time>
      </trkpt>
      <trkpt lat="43.25898" lon="-1.06703">
        <ele>153.95</ele>
        <time>2021-08-20T14:20:55Z</time>
      </trkpt>
      <trkpt lat="43.25896" lon="-1.06705">
        <ele>153.47</ele>
        <time>2021-08-20T14:20:56Z</time>
      </trkpt>
      <trkpt lat="43.25893" lon="-1.06708">
        <ele>152.51</ele>
        <time>2021-08-20T14:20:58Z</time>
      </trkpt>
      <trkpt lat="43.25891" lon="-1.0673">
        <ele>149.62</ele>
        <time>2021-08-20T14:21:05Z</time>
      </trkpt>
      <trkpt lat="43.25888" lon="-1.06739">
        <ele>148.66</ele>
        <time>2021-08-20T14:21:08Z</time>
      </trkpt>
      <trkpt lat="43.25884" lon="-1.06744">
        <ele>148.66</ele>
        <time>2021-08-20T14:21:13Z</time>
      </trkpt>
      <trkpt lat="43.25879" lon="-1.06748">
        <ele>148.18</ele>
        <time>2021-08-20T14:21:24Z</time>
      </trkpt>
      <trkpt lat="43.25875" lon="-1.06749">
        <ele>147.7</ele>
        <time>2021-08-20T14:21:26Z</time>
      </trkpt>
      <trkpt lat="43.25873" lon="-1.06749">
        <ele>147.22</ele>
        <time>2021-08-20T14:21:27Z</time>
      </trkpt>
      <trkpt lat="43.25871" lon="-1.06749">
        <ele>147.22</ele>
        <time>2021-08-20T14:21:28Z</time>
      </trkpt>
      <trkpt lat="43.25869" lon="-1.0675">
        <ele>147.22</ele>
        <time>2021-08-20T14:21:29Z</time>
      </trkpt>
      <trkpt lat="43.25867" lon="-1.06751">
        <ele>147.22</ele>
        <time>2021-08-20T14:21:30Z</time>
      </trkpt>
      <trkpt lat="43.25865" lon="-1.06752">
        <ele>146.74</ele>
        <time>2021-08-20T14:21:31Z</time>
      </trkpt>
      <trkpt lat="43.25849" lon="-1.06757">
        <ele>145.3</ele>
        <time>2021-08-20T14:21:36Z</time>
      </trkpt>
      <trkpt lat="43.25825" lon="-1.06768">
        <ele>143.37</ele>
        <time>2021-08-20T14:21:43Z</time>
      </trkpt>
      <trkpt lat="43.25806" lon="-1.06778">
        <ele>141.93</ele>
        <time>2021-08-20T14:21:50Z</time>
      </trkpt>
      <trkpt lat="43.2579" lon="-1.06788">
        <ele>141.45</ele>
        <time>2021-08-20T14:21:57Z</time>
      </trkpt>
      <trkpt lat="43.25771" lon="-1.06792">
        <ele>140.97</ele>
        <time>2021-08-20T14:22:03Z</time>
      </trkpt>
      <trkpt lat="43.25755" lon="-1.06792">
        <ele>139.53</ele>
        <time>2021-08-20T14:22:08Z</time>
      </trkpt>
      <trkpt lat="43.25732" lon="-1.06799">
        <ele>138.57</ele>
        <time>2021-08-20T14:22:15Z</time>
      </trkpt>
      <trkpt lat="43.25715" lon="-1.06806">
        <ele>136.64</ele>
        <time>2021-08-20T14:22:19Z</time>
      </trkpt>
      <trkpt lat="43.2571" lon="-1.06807">
        <ele>136.64</ele>
        <time>2021-08-20T14:22:20Z</time>
      </trkpt>
      <trkpt lat="43.25681" lon="-1.06822">
        <ele>135.68</ele>
        <time>2021-08-20T14:22:27Z</time>
      </trkpt>
      <trkpt lat="43.25678" lon="-1.06826">
        <ele>135.68</ele>
        <time>2021-08-20T14:22:28Z</time>
      </trkpt>
      <trkpt lat="43.25675" lon="-1.0683">
        <ele>135.68</ele>
        <time>2021-08-20T14:22:29Z</time>
      </trkpt>
      <trkpt lat="43.25674" lon="-1.06832">
        <ele>135.68</ele>
        <time>2021-08-20T14:22:30Z</time>
      </trkpt>
      <trkpt lat="43.25673" lon="-1.06834">
        <ele>135.68</ele>
        <time>2021-08-20T14:22:31Z</time>
      </trkpt>
      <trkpt lat="43.25672" lon="-1.06835">
        <ele>135.68</ele>
        <time>2021-08-20T14:22:32Z</time>
      </trkpt>
      <trkpt lat="43.25671" lon="-1.06836">
        <ele>135.68</ele>
        <time>2021-08-20T14:22:37Z</time>
      </trkpt>
      <trkpt lat="43.25671" lon="-1.06838">
        <ele>135.68</ele>
        <time>2021-08-20T14:22:40Z</time>
      </trkpt>
      <trkpt lat="43.2567" lon="-1.0684">
        <ele>135.68</ele>
        <time>2021-08-20T14:22:41Z</time>
      </trkpt>
      <trkpt lat="43.25668" lon="-1.06841">
        <ele>135.68</ele>
        <time>2021-08-20T14:22:42Z</time>
      </trkpt>
      <trkpt lat="43.25666" lon="-1.06843">
        <ele>135.68</ele>
        <time>2021-08-20T14:22:43Z</time>
      </trkpt>
      <trkpt lat="43.25664" lon="-1.06845">
        <ele>135.68</ele>
        <time>2021-08-20T14:22:44Z</time>
      </trkpt>
      <trkpt lat="43.25663" lon="-1.06846">
        <ele>135.68</ele>
        <time>2021-08-20T14:22:45Z</time>
      </trkpt>
      <trkpt lat="43.2566" lon="-1.06848">
        <ele>135.68</ele>
        <time>2021-08-20T14:22:46Z</time>
      </trkpt>
      <trkpt lat="43.25658" lon="-1.06849">
        <ele>135.68</ele>
        <time>2021-08-20T14:22:47Z</time>
      </trkpt>
      <trkpt lat="43.25654" lon="-1.0685">
        <ele>135.68</ele>
        <time>2021-08-20T14:22:48Z</time>
      </trkpt>
      <trkpt lat="43.2565" lon="-1.06851">
        <ele>135.68</ele>
        <time>2021-08-20T14:22:49Z</time>
      </trkpt>
      <trkpt lat="43.25642" lon="-1.06853">
        <ele>135.2</ele>
        <time>2021-08-20T14:22:51Z</time>
      </trkpt>
      <trkpt lat="43.25638" lon="-1.06852">
        <ele>135.2</ele>
        <time>2021-08-20T14:22:52Z</time>
      </trkpt>
      <trkpt lat="43.25635" lon="-1.06851">
        <ele>135.2</ele>
        <time>2021-08-20T14:22:53Z</time>
      </trkpt>
      <trkpt lat="43.25624" lon="-1.06848">
        <ele>135.2</ele>
        <time>2021-08-20T14:22:56Z</time>
      </trkpt>
      <trkpt lat="43.2562" lon="-1.06849">
        <ele>135.2</ele>
        <time>2021-08-20T14:22:57Z</time>
      </trkpt>
      <trkpt lat="43.25598" lon="-1.06858">
        <ele>134.72</ele>
        <time>2021-08-20T14:23:02Z</time>
      </trkpt>
      <trkpt lat="43.25564" lon="-1.06869">
        <ele>133.28</ele>
        <time>2021-08-20T14:23:09Z</time>
      </trkpt>
      <trkpt lat="43.2556" lon="-1.06871">
        <ele>133.28</ele>
        <time>2021-08-20T14:23:10Z</time>
      </trkpt>
      <trkpt lat="43.25542" lon="-1.06878">
        <ele>133.28</ele>
        <time>2021-08-20T14:23:16Z</time>
      </trkpt>
      <trkpt lat="43.25535" lon="-1.06879">
        <ele>134.24</ele>
        <time>2021-08-20T14:23:19Z</time>
      </trkpt>
      <trkpt lat="43.25528" lon="-1.06879">
        <ele>135.2</ele>
        <time>2021-08-20T14:23:25Z</time>
      </trkpt>
      <trkpt lat="43.25519" lon="-1.06882">
        <ele>137.13</ele>
        <time>2021-08-20T14:23:35Z</time>
      </trkpt>
      <trkpt lat="43.25511" lon="-1.06886">
        <ele>138.57</ele>
        <time>2021-08-20T14:23:44Z</time>
      </trkpt>
      <trkpt lat="43.25506" lon="-1.0689">
        <ele>139.05</ele>
        <time>2021-08-20T14:23:52Z</time>
      </trkpt>
      <trkpt lat="43.25501" lon="-1.06892">
        <ele>140.49</ele>
        <time>2021-08-20T14:24:00Z</time>
      </trkpt>
      <trkpt lat="43.25495" lon="-1.06896">
        <ele>141.93</ele>
        <time>2021-08-20T14:24:08Z</time>
      </trkpt>
      <trkpt lat="43.2549" lon="-1.069">
        <ele>142.89</ele>
        <time>2021-08-20T14:24:16Z</time>
      </trkpt>
      <trkpt lat="43.25487" lon="-1.06903">
        <ele>145.3</ele>
        <time>2021-08-20T14:24:25Z</time>
      </trkpt>
      <trkpt lat="43.25481" lon="-1.06905">
        <ele>143.37</ele>
        <time>2021-08-20T14:24:32Z</time>
      </trkpt>
      <trkpt lat="43.25463" lon="-1.06914">
        <ele>141.93</ele>
        <time>2021-08-20T14:24:37Z</time>
      </trkpt>
      <trkpt lat="43.25455" lon="-1.06921">
        <ele>141.45</ele>
        <time>2021-08-20T14:24:39Z</time>
      </trkpt>
      <trkpt lat="43.25452" lon="-1.06925">
        <ele>141.45</ele>
        <time>2021-08-20T14:24:40Z</time>
      </trkpt>
      <trkpt lat="43.25451" lon="-1.06929">
        <ele>142.89</ele>
        <time>2021-08-20T14:24:41Z</time>
      </trkpt>
      <trkpt lat="43.2545" lon="-1.06932">
        <ele>142.89</ele>
        <time>2021-08-20T14:24:42Z</time>
      </trkpt>
      <trkpt lat="43.2545" lon="-1.06934">
        <ele>143.37</ele>
        <time>2021-08-20T14:24:43Z</time>
      </trkpt>
      <trkpt lat="43.2545" lon="-1.06936">
        <ele>143.37</ele>
        <time>2021-08-20T14:24:44Z</time>
      </trkpt>
      <trkpt lat="43.2545" lon="-1.06938">
        <ele>144.34</ele>
        <time>2021-08-20T14:24:45Z</time>
      </trkpt>
      <trkpt lat="43.2545" lon="-1.0694">
        <ele>144.34</ele>
        <time>2021-08-20T14:24:46Z</time>
      </trkpt>
      <trkpt lat="43.2545" lon="-1.06942">
        <ele>144.34</ele>
        <time>2021-08-20T14:24:47Z</time>
      </trkpt>
      <trkpt lat="43.25451" lon="-1.06951">
        <ele>145.78</ele>
        <time>2021-08-20T14:24:54Z</time>
      </trkpt>
      <trkpt lat="43.25453" lon="-1.06964">
        <ele>146.26</ele>
        <time>2021-08-20T14:25:03Z</time>
      </trkpt>
      <trkpt lat="43.25454" lon="-1.06971">
        <ele>147.22</ele>
        <time>2021-08-20T14:25:09Z</time>
      </trkpt>
      <trkpt lat="43.25459" lon="-1.06983">
        <ele>148.66</ele>
        <time>2021-08-20T14:25:18Z</time>
      </trkpt>
      <trkpt lat="43.25466" lon="-1.06987">
        <ele>150.1</ele>
        <time>2021-08-20T14:25:28Z</time>
      </trkpt>
      <trkpt lat="43.25471" lon="-1.06982">
        <ele>151.06</ele>
        <time>2021-08-20T14:25:35Z</time>
      </trkpt>
      <trkpt lat="43.25473" lon="-1.06981">
        <ele>151.54</ele>
        <time>2021-08-20T14:25:39Z</time>
      </trkpt>
      <trkpt lat="43.25481" lon="-1.06978">
        <ele>152.99</ele>
        <time>2021-08-20T14:25:47Z</time>
      </trkpt>
      <trkpt lat="43.25495" lon="-1.06974">
        <ele>153.95</ele>
        <time>2021-08-20T14:25:58Z</time>
      </trkpt>
      <trkpt lat="43.25505" lon="-1.06978">
        <ele>154.91</ele>
        <time>2021-08-20T14:26:06Z</time>
      </trkpt>
      <trkpt lat="43.25506" lon="-1.0698">
        <ele>154.91</ele>
        <time>2021-08-20T14:26:07Z</time>
      </trkpt>
      <trkpt lat="43.25507" lon="-1.06981">
        <ele>154.91</ele>
        <time>2021-08-20T14:26:08Z</time>
      </trkpt>
      <trkpt lat="43.25507" lon="-1.06982">
        <ele>155.39</ele>
        <time>2021-08-20T14:26:09Z</time>
      </trkpt>
      <trkpt lat="43.25507" lon="-1.06984">
        <ele>155.39</ele>
        <time>2021-08-20T14:26:10Z</time>
      </trkpt>
      <trkpt lat="43.25508" lon="-1.06985">
        <ele>155.39</ele>
        <time>2021-08-20T14:26:11Z</time>
      </trkpt>
      <trkpt lat="43.25508" lon="-1.06987">
        <ele>155.87</ele>
        <time>2021-08-20T14:26:12Z</time>
      </trkpt>
      <trkpt lat="43.2551" lon="-1.06999">
        <ele>157.31</ele>
        <time>2021-08-20T14:26:21Z</time>
      </trkpt>
      <trkpt lat="43.25514" lon="-1.07012">
        <ele>158.27</ele>
        <time>2021-08-20T14:26:30Z</time>
      </trkpt>
      <trkpt lat="43.25517" lon="-1.07022">
        <ele>159.24</ele>
        <time>2021-08-20T14:26:39Z</time>
      </trkpt>
      <trkpt lat="43.2552" lon="-1.07027">
        <ele>159.24</ele>
        <time>2021-08-20T14:26:45Z</time>
      </trkpt>
      <trkpt lat="43.25522" lon="-1.07033">
        <ele>159.72</ele>
        <time>2021-08-20T14:26:54Z</time>
      </trkpt>
      <trkpt lat="43.25523" lon="-1.07041">
        <ele>159.72</ele>
        <time>2021-08-20T14:27:01Z</time>
      </trkpt>
      <trkpt lat="43.25524" lon="-1.07042">
        <ele>159.72</ele>
        <time>2021-08-20T14:27:02Z</time>
      </trkpt>
      <trkpt lat="43.25524" lon="-1.07044">
        <ele>160.2</ele>
        <time>2021-08-20T14:27:03Z</time>
      </trkpt>
      <trkpt lat="43.25525" lon="-1.07045">
        <ele>160.2</ele>
        <time>2021-08-20T14:27:04Z</time>
      </trkpt>
      <trkpt lat="43.25526" lon="-1.07047">
        <ele>160.2</ele>
        <time>2021-08-20T14:27:05Z</time>
      </trkpt>
      <trkpt lat="43.25527" lon="-1.07047">
        <ele>160.2</ele>
        <time>2021-08-20T14:27:06Z</time>
      </trkpt>
      <trkpt lat="43.25529" lon="-1.07051">
        <ele>160.68</ele>
        <time>2021-08-20T14:27:12Z</time>
      </trkpt>
      <trkpt lat="43.25529" lon="-1.07055">
        <ele>161.16</ele>
        <time>2021-08-20T14:27:26Z</time>
      </trkpt>
      <trkpt lat="43.25535" lon="-1.07073">
        <ele>161.64</ele>
        <time>2021-08-20T14:27:33Z</time>
      </trkpt>
      <trkpt lat="43.25541" lon="-1.07091">
        <ele>162.6</ele>
        <time>2021-08-20T14:27:41Z</time>
      </trkpt>
      <trkpt lat="43.25542" lon="-1.07091">
        <ele>163.08</ele>
        <time>2021-08-20T14:27:44Z</time>
      </trkpt>
      <trkpt lat="43.25543" lon="-1.07088">
        <ele>163.08</ele>
        <time>2021-08-20T14:27:45Z</time>
      </trkpt>
      <trkpt lat="43.25544" lon="-1.07087">
        <ele>163.08</ele>
        <time>2021-08-20T14:27:46Z</time>
      </trkpt>
      <trkpt lat="43.25546" lon="-1.07085">
        <ele>163.08</ele>
        <time>2021-08-20T14:27:47Z</time>
      </trkpt>
      <trkpt lat="43.25548" lon="-1.07085">
        <ele>163.08</ele>
        <time>2021-08-20T14:27:48Z</time>
      </trkpt>
      <trkpt lat="43.25551" lon="-1.07082">
        <ele>163.56</ele>
        <time>2021-08-20T14:27:53Z</time>
      </trkpt>
      <trkpt lat="43.25552" lon="-1.07083">
        <ele>163.56</ele>
        <time>2021-08-20T14:28:03Z</time>
      </trkpt>
      <trkpt lat="43.25551" lon="-1.07083">
        <ele>163.56</ele>
        <time>2021-08-20T14:28:14Z</time>
      </trkpt>
      <trkpt lat="43.25549" lon="-1.07083">
        <ele>163.56</ele>
        <time>2021-08-20T14:28:23Z</time>
      </trkpt>
      <trkpt lat="43.25548" lon="-1.07082">
        <ele>163.56</ele>
        <time>2021-08-20T14:28:38Z</time>
      </trkpt>
      <trkpt lat="43.25549" lon="-1.07082">
        <ele>163.56</ele>
        <time>2021-08-20T14:28:48Z</time>
      </trkpt>
      <trkpt lat="43.2555" lon="-1.07082">
        <ele>163.56</ele>
        <time>2021-08-20T14:28:59Z</time>
      </trkpt>
      <trkpt lat="43.25551" lon="-1.07082">
        <ele>163.56</ele>
        <time>2021-08-20T14:29:06Z</time>
      </trkpt>
      <trkpt lat="43.25551" lon="-1.07083">
        <ele>163.56</ele>
        <time>2021-08-20T14:29:16Z</time>
      </trkpt>
      <trkpt lat="43.25553" lon="-1.07084">
        <ele>163.56</ele>
        <time>2021-08-20T14:29:28Z</time>
      </trkpt>
      <trkpt lat="43.25553" lon="-1.07083">
        <ele>163.56</ele>
        <time>2021-08-20T14:29:40Z</time>
      </trkpt>
      <trkpt lat="43.25553" lon="-1.07082">
        <ele>163.08</ele>
        <time>2021-08-20T14:29:53Z</time>
      </trkpt>
      <trkpt lat="43.25553" lon="-1.07081">
        <ele>163.08</ele>
        <time>2021-08-20T14:30:00Z</time>
      </trkpt>
      <trkpt lat="43.25551" lon="-1.07078">
        <ele>163.08</ele>
        <time>2021-08-20T14:30:04Z</time>
      </trkpt>
      <trkpt lat="43.25552" lon="-1.07079">
        <ele>163.08</ele>
        <time>2021-08-20T14:30:10Z</time>
      </trkpt>
      <trkpt lat="43.25551" lon="-1.0708">
        <ele>163.08</ele>
        <time>2021-08-20T14:30:18Z</time>
      </trkpt>
      <trkpt lat="43.25551" lon="-1.07078">
        <ele>163.08</ele>
        <time>2021-08-20T14:30:24Z</time>
      </trkpt>
      <trkpt lat="43.2555" lon="-1.0708">
        <ele>163.08</ele>
        <time>2021-08-20T14:30:29Z</time>
      </trkpt>
      <trkpt lat="43.25548" lon="-1.07084">
        <ele>163.08</ele>
        <time>2021-08-20T14:30:37Z</time>
      </trkpt>
      <trkpt lat="43.25548" lon="-1.07084">
        <ele>163.08</ele>
        <time>2021-08-20T14:30:41Z</time>
      </trkpt>
      <trkpt lat="43.25543" lon="-1.07094">
        <ele>163.08</ele>
        <time>2021-08-20T14:30:47Z</time>
      </trkpt>
      <trkpt lat="43.25544" lon="-1.07097">
        <ele>163.08</ele>
        <time>2021-08-20T14:30:48Z</time>
      </trkpt>
      <trkpt lat="43.25545" lon="-1.071">
        <ele>163.08</ele>
        <time>2021-08-20T14:30:49Z</time>
      </trkpt>
      <trkpt lat="43.25547" lon="-1.07104">
        <ele>163.08</ele>
        <time>2021-08-20T14:30:50Z</time>
      </trkpt>
      <trkpt lat="43.25548" lon="-1.07108">
        <ele>163.08</ele>
        <time>2021-08-20T14:30:51Z</time>
      </trkpt>
      <trkpt lat="43.2556" lon="-1.07134">
        <ele>164.04</ele>
        <time>2021-08-20T14:30:59Z</time>
      </trkpt>
      <trkpt lat="43.25567" lon="-1.07144">
        <ele>164.52</ele>
        <time>2021-08-20T14:31:05Z</time>
      </trkpt>
      <trkpt lat="43.25571" lon="-1.07146">
        <ele>165</ele>
        <time>2021-08-20T14:31:10Z</time>
      </trkpt>
      <trkpt lat="43.25578" lon="-1.07145">
        <ele>165.96</ele>
        <time>2021-08-20T14:31:18Z</time>
      </trkpt>
      <trkpt lat="43.2558" lon="-1.07145">
        <ele>167.41</ele>
        <time>2021-08-20T14:31:25Z</time>
      </trkpt>
      <trkpt lat="43.25579" lon="-1.07144">
        <ele>167.41</ele>
        <time>2021-08-20T14:31:33Z</time>
      </trkpt>
      <trkpt lat="43.25575" lon="-1.07143">
        <ele>166.93</ele>
        <time>2021-08-20T14:31:48Z</time>
      </trkpt>
      <trkpt lat="43.25574" lon="-1.07144">
        <ele>166.93</ele>
        <time>2021-08-20T14:32:05Z</time>
      </trkpt>
      <trkpt lat="43.25574" lon="-1.07145">
        <ele>166.93</ele>
        <time>2021-08-20T14:32:15Z</time>
      </trkpt>
      <trkpt lat="43.25573" lon="-1.07146">
        <ele>166.93</ele>
        <time>2021-08-20T14:32:25Z</time>
      </trkpt>
      <trkpt lat="43.25573" lon="-1.07147">
        <ele>166.93</ele>
        <time>2021-08-20T14:32:33Z</time>
      </trkpt>
      <trkpt lat="43.25574" lon="-1.07146">
        <ele>166.93</ele>
        <time>2021-08-20T14:32:39Z</time>
      </trkpt>
      <trkpt lat="43.25576" lon="-1.07146">
        <ele>166.93</ele>
        <time>2021-08-20T14:32:41Z</time>
      </trkpt>
      <trkpt lat="43.25575" lon="-1.07148">
        <ele>165.48</ele>
        <time>2021-08-20T14:32:46Z</time>
      </trkpt>
      <trkpt lat="43.25573" lon="-1.0715">
        <ele>165.48</ele>
        <time>2021-08-20T14:32:55Z</time>
      </trkpt>
      <trkpt lat="43.25569" lon="-1.07145">
        <ele>165.48</ele>
        <time>2021-08-20T14:33:15Z</time>
      </trkpt>
      <trkpt lat="43.2557" lon="-1.07146">
        <ele>165.48</ele>
        <time>2021-08-20T14:33:34Z</time>
      </trkpt>
      <trkpt lat="43.25569" lon="-1.07145">
        <ele>165.48</ele>
        <time>2021-08-20T14:33:50Z</time>
      </trkpt>
      <trkpt lat="43.25569" lon="-1.07144">
        <ele>165.48</ele>
        <time>2021-08-20T14:34:06Z</time>
      </trkpt>
      <trkpt lat="43.25567" lon="-1.07142">
        <ele>165.48</ele>
        <time>2021-08-20T14:34:17Z</time>
      </trkpt>
      <trkpt lat="43.25568" lon="-1.07142">
        <ele>165.48</ele>
        <time>2021-08-20T14:34:36Z</time>
      </trkpt>
      <trkpt lat="43.25567" lon="-1.07135">
        <ele>165</ele>
        <time>2021-08-20T14:34:46Z</time>
      </trkpt>
      <trkpt lat="43.25565" lon="-1.07132">
        <ele>165.48</ele>
        <time>2021-08-20T14:35:03Z</time>
      </trkpt>
      <trkpt lat="43.25563" lon="-1.07133">
        <ele>165.48</ele>
        <time>2021-08-20T14:35:05Z</time>
      </trkpt>
      <trkpt lat="43.25559" lon="-1.07135">
        <ele>165.48</ele>
        <time>2021-08-20T14:35:07Z</time>
      </trkpt>
      <trkpt lat="43.25558" lon="-1.07134">
        <ele>164.52</ele>
        <time>2021-08-20T14:35:08Z</time>
      </trkpt>
      <trkpt lat="43.25559" lon="-1.07142">
        <ele>164.52</ele>
        <time>2021-08-20T14:35:11Z</time>
      </trkpt>
      <trkpt lat="43.25559" lon="-1.07147">
        <ele>164.52</ele>
        <time>2021-08-20T14:35:13Z</time>
      </trkpt>
      <trkpt lat="43.2556" lon="-1.07151">
        <ele>164.52</ele>
        <time>2021-08-20T14:35:14Z</time>
      </trkpt>
      <trkpt lat="43.25564" lon="-1.07175">
        <ele>163.56</ele>
        <time>2021-08-20T14:35:18Z</time>
      </trkpt>
      <trkpt lat="43.25563" lon="-1.07181">
        <ele>163.56</ele>
        <time>2021-08-20T14:35:19Z</time>
      </trkpt>
      <trkpt lat="43.25559" lon="-1.07212">
        <ele>162.12</ele>
        <time>2021-08-20T14:35:23Z</time>
      </trkpt>
      <trkpt lat="43.25557" lon="-1.07219">
        <ele>161.64</ele>
        <time>2021-08-20T14:35:24Z</time>
      </trkpt>
      <trkpt lat="43.25553" lon="-1.07226">
        <ele>161.16</ele>
        <time>2021-08-20T14:35:25Z</time>
      </trkpt>
      <trkpt lat="43.25549" lon="-1.07232">
        <ele>160.68</ele>
        <time>2021-08-20T14:35:26Z</time>
      </trkpt>
      <trkpt lat="43.25543" lon="-1.07237">
        <ele>160.2</ele>
        <time>2021-08-20T14:35:27Z</time>
      </trkpt>
      <trkpt lat="43.25537" lon="-1.07242">
        <ele>159.24</ele>
        <time>2021-08-20T14:35:28Z</time>
      </trkpt>
      <trkpt lat="43.25523" lon="-1.07255">
        <ele>158.75</ele>
        <time>2021-08-20T14:35:30Z</time>
      </trkpt>
      <trkpt lat="43.25514" lon="-1.07265">
        <ele>158.27</ele>
        <time>2021-08-20T14:35:32Z</time>
      </trkpt>
      <trkpt lat="43.25509" lon="-1.07272">
        <ele>159.72</ele>
        <time>2021-08-20T14:35:33Z</time>
      </trkpt>
      <trkpt lat="43.25505" lon="-1.0728">
        <ele>159.72</ele>
        <time>2021-08-20T14:35:34Z</time>
      </trkpt>
      <trkpt lat="43.25501" lon="-1.07288">
        <ele>158.27</ele>
        <time>2021-08-20T14:35:35Z</time>
      </trkpt>
      <trkpt lat="43.25498" lon="-1.07297">
        <ele>158.27</ele>
        <time>2021-08-20T14:35:36Z</time>
      </trkpt>
      <trkpt lat="43.25496" lon="-1.07306">
        <ele>158.27</ele>
        <time>2021-08-20T14:35:37Z</time>
      </trkpt>
      <trkpt lat="43.25494" lon="-1.07315">
        <ele>158.27</ele>
        <time>2021-08-20T14:35:38Z</time>
      </trkpt>
      <trkpt lat="43.25492" lon="-1.07324">
        <ele>157.79</ele>
        <time>2021-08-20T14:35:39Z</time>
      </trkpt>
      <trkpt lat="43.25488" lon="-1.07344">
        <ele>157.31</ele>
        <time>2021-08-20T14:35:41Z</time>
      </trkpt>
      <trkpt lat="43.25483" lon="-1.07406">
        <ele>157.31</ele>
        <time>2021-08-20T14:35:48Z</time>
      </trkpt>
      <trkpt lat="43.25481" lon="-1.07412">
        <ele>157.31</ele>
        <time>2021-08-20T14:35:49Z</time>
      </trkpt>
      <trkpt lat="43.25479" lon="-1.07416">
        <ele>158.27</ele>
        <time>2021-08-20T14:35:50Z</time>
      </trkpt>
      <trkpt lat="43.25476" lon="-1.07419">
        <ele>158.27</ele>
        <time>2021-08-20T14:35:51Z</time>
      </trkpt>
      <trkpt lat="43.25473" lon="-1.07423">
        <ele>159.24</ele>
        <time>2021-08-20T14:35:52Z</time>
      </trkpt>
      <trkpt lat="43.2547" lon="-1.07427">
        <ele>159.24</ele>
        <time>2021-08-20T14:35:53Z</time>
      </trkpt>
      <trkpt lat="43.25463" lon="-1.07434">
        <ele>159.24</ele>
        <time>2021-08-20T14:35:55Z</time>
      </trkpt>
      <trkpt lat="43.25417" lon="-1.07471">
        <ele>159.24</ele>
        <time>2021-08-20T14:36:07Z</time>
      </trkpt>
      <trkpt lat="43.25404" lon="-1.07484">
        <ele>159.24</ele>
        <time>2021-08-20T14:36:11Z</time>
      </trkpt>
      <trkpt lat="43.25388" lon="-1.07501">
        <ele>159.24</ele>
        <time>2021-08-20T14:36:16Z</time>
      </trkpt>
      <trkpt lat="43.25385" lon="-1.07506">
        <ele>159.24</ele>
        <time>2021-08-20T14:36:17Z</time>
      </trkpt>
      <trkpt lat="43.25384" lon="-1.07512">
        <ele>159.24</ele>
        <time>2021-08-20T14:36:18Z</time>
      </trkpt>
      <trkpt lat="43.25382" lon="-1.07516">
        <ele>159.24</ele>
        <time>2021-08-20T14:36:19Z</time>
      </trkpt>
      <trkpt lat="43.2538" lon="-1.0752">
        <ele>159.24</ele>
        <time>2021-08-20T14:36:20Z</time>
      </trkpt>
      <trkpt lat="43.25378" lon="-1.07524">
        <ele>159.24</ele>
        <time>2021-08-20T14:36:21Z</time>
      </trkpt>
      <trkpt lat="43.25375" lon="-1.07527">
        <ele>159.24</ele>
        <time>2021-08-20T14:36:22Z</time>
      </trkpt>
      <trkpt lat="43.25372" lon="-1.0753">
        <ele>159.24</ele>
        <time>2021-08-20T14:36:23Z</time>
      </trkpt>
      <trkpt lat="43.25353" lon="-1.0755">
        <ele>159.72</ele>
        <time>2021-08-20T14:36:29Z</time>
      </trkpt>
      <trkpt lat="43.25341" lon="-1.07564">
        <ele>158.27</ele>
        <time>2021-08-20T14:36:32Z</time>
      </trkpt>
      <trkpt lat="43.25337" lon="-1.07569">
        <ele>158.27</ele>
        <time>2021-08-20T14:36:33Z</time>
      </trkpt>
      <trkpt lat="43.25303" lon="-1.07604">
        <ele>155.87</ele>
        <time>2021-08-20T14:36:40Z</time>
      </trkpt>
      <trkpt lat="43.25282" lon="-1.07619">
        <ele>153.95</ele>
        <time>2021-08-20T14:36:43Z</time>
      </trkpt>
      <trkpt lat="43.25275" lon="-1.07626">
        <ele>153.47</ele>
        <time>2021-08-20T14:36:44Z</time>
      </trkpt>
      <trkpt lat="43.25252" lon="-1.07652">
        <ele>150.1</ele>
        <time>2021-08-20T14:36:47Z</time>
      </trkpt>
      <trkpt lat="43.25234" lon="-1.07674">
        <ele>145.3</ele>
        <time>2021-08-20T14:36:49Z</time>
      </trkpt>
      <trkpt lat="43.25189" lon="-1.07729">
        <ele>143.37</ele>
        <time>2021-08-20T14:36:54Z</time>
      </trkpt>
      <trkpt lat="43.25151" lon="-1.0778">
        <ele>143.85</ele>
        <time>2021-08-20T14:36:59Z</time>
      </trkpt>
      <trkpt lat="43.25119" lon="-1.07814">
        <ele>145.78</ele>
        <time>2021-08-20T14:37:04Z</time>
      </trkpt>
      <trkpt lat="43.25109" lon="-1.07823">
        <ele>146.74</ele>
        <time>2021-08-20T14:37:06Z</time>
      </trkpt>
      <trkpt lat="43.25094" lon="-1.07832">
        <ele>147.22</ele>
        <time>2021-08-20T14:37:09Z</time>
      </trkpt>
      <trkpt lat="43.25061" lon="-1.07843">
        <ele>148.66</ele>
        <time>2021-08-20T14:37:17Z</time>
      </trkpt>
      <trkpt lat="43.25037" lon="-1.07847">
        <ele>149.62</ele>
        <time>2021-08-20T14:37:24Z</time>
      </trkpt>
      <trkpt lat="43.25016" lon="-1.07855">
        <ele>150.58</ele>
        <time>2021-08-20T14:37:32Z</time>
      </trkpt>
      <trkpt lat="43.24992" lon="-1.07866">
        <ele>152.51</ele>
        <time>2021-08-20T14:37:42Z</time>
      </trkpt>
      <trkpt lat="43.24974" lon="-1.07878">
        <ele>153.95</ele>
        <time>2021-08-20T14:37:51Z</time>
      </trkpt>
      <trkpt lat="43.24958" lon="-1.07888">
        <ele>155.87</ele>
        <time>2021-08-20T14:38:00Z</time>
      </trkpt>
      <trkpt lat="43.24953" lon="-1.07891">
        <ele>156.35</ele>
        <time>2021-08-20T14:38:05Z</time>
      </trkpt>
      <trkpt lat="43.24943" lon="-1.07897">
        <ele>157.79</ele>
        <time>2021-08-20T14:38:15Z</time>
      </trkpt>
      <trkpt lat="43.24934" lon="-1.07903">
        <ele>158.75</ele>
        <time>2021-08-20T14:38:24Z</time>
      </trkpt>
      <trkpt lat="43.24923" lon="-1.07909">
        <ele>161.16</ele>
        <time>2021-08-20T14:38:36Z</time>
      </trkpt>
      <trkpt lat="43.24916" lon="-1.07912">
        <ele>162.6</ele>
        <time>2021-08-20T14:38:43Z</time>
      </trkpt>
      <trkpt lat="43.24909" lon="-1.07913">
        <ele>163.56</ele>
        <time>2021-08-20T14:38:52Z</time>
      </trkpt>
      <trkpt lat="43.24901" lon="-1.07916">
        <ele>165</ele>
        <time>2021-08-20T14:39:02Z</time>
      </trkpt>
      <trkpt lat="43.24888" lon="-1.07915">
        <ele>167.41</ele>
        <time>2021-08-20T14:39:13Z</time>
      </trkpt>
      <trkpt lat="43.24877" lon="-1.07917">
        <ele>168.37</ele>
        <time>2021-08-20T14:39:23Z</time>
      </trkpt>
      <trkpt lat="43.24865" lon="-1.0792">
        <ele>168.85</ele>
        <time>2021-08-20T14:39:33Z</time>
      </trkpt>
      <trkpt lat="43.24863" lon="-1.07921">
        <ele>169.33</ele>
        <time>2021-08-20T14:39:38Z</time>
      </trkpt>
      <trkpt lat="43.24848" lon="-1.07925">
        <ele>170.29</ele>
        <time>2021-08-20T14:39:45Z</time>
      </trkpt>
      <trkpt lat="43.24827" lon="-1.07932">
        <ele>171.25</ele>
        <time>2021-08-20T14:39:53Z</time>
      </trkpt>
      <trkpt lat="43.24813" lon="-1.07941">
        <ele>171.73</ele>
        <time>2021-08-20T14:40:00Z</time>
      </trkpt>
      <trkpt lat="43.24812" lon="-1.07944">
        <ele>171.73</ele>
        <time>2021-08-20T14:40:01Z</time>
      </trkpt>
      <trkpt lat="43.2481" lon="-1.07946">
        <ele>171.73</ele>
        <time>2021-08-20T14:40:02Z</time>
      </trkpt>
      <trkpt lat="43.24807" lon="-1.07947">
        <ele>172.21</ele>
        <time>2021-08-20T14:40:03Z</time>
      </trkpt>
      <trkpt lat="43.24805" lon="-1.07949">
        <ele>172.21</ele>
        <time>2021-08-20T14:40:04Z</time>
      </trkpt>
      <trkpt lat="43.24781" lon="-1.07967">
        <ele>171.73</ele>
        <time>2021-08-20T14:40:12Z</time>
      </trkpt>
      <trkpt lat="43.24755" lon="-1.07991">
        <ele>170.77</ele>
        <time>2021-08-20T14:40:20Z</time>
      </trkpt>
      <trkpt lat="43.24742" lon="-1.08005">
        <ele>170.29</ele>
        <time>2021-08-20T14:40:24Z</time>
      </trkpt>
      <trkpt lat="43.24739" lon="-1.08008">
        <ele>170.29</ele>
        <time>2021-08-20T14:40:25Z</time>
      </trkpt>
      <trkpt lat="43.24735" lon="-1.08011">
        <ele>169.81</ele>
        <time>2021-08-20T14:40:26Z</time>
      </trkpt>
      <trkpt lat="43.24732" lon="-1.08014">
        <ele>169.81</ele>
        <time>2021-08-20T14:40:27Z</time>
      </trkpt>
      <trkpt lat="43.2473" lon="-1.08017">
        <ele>169.33</ele>
        <time>2021-08-20T14:40:28Z</time>
      </trkpt>
      <trkpt lat="43.24727" lon="-1.0802">
        <ele>169.33</ele>
        <time>2021-08-20T14:40:29Z</time>
      </trkpt>
      <trkpt lat="43.24709" lon="-1.08046">
        <ele>169.81</ele>
        <time>2021-08-20T14:40:36Z</time>
      </trkpt>
      <trkpt lat="43.24687" lon="-1.08079">
        <ele>169.81</ele>
        <time>2021-08-20T14:40:45Z</time>
      </trkpt>
      <trkpt lat="43.24672" lon="-1.08112">
        <ele>169.81</ele>
        <time>2021-08-20T14:40:53Z</time>
      </trkpt>
      <trkpt lat="43.24667" lon="-1.08121">
        <ele>170.77</ele>
        <time>2021-08-20T14:40:55Z</time>
      </trkpt>
      <trkpt lat="43.24654" lon="-1.0815">
        <ele>169.81</ele>
        <time>2021-08-20T14:41:01Z</time>
      </trkpt>
      <trkpt lat="43.24653" lon="-1.08154">
        <ele>168.85</ele>
        <time>2021-08-20T14:41:02Z</time>
      </trkpt>
      <trkpt lat="43.24651" lon="-1.0816">
        <ele>168.85</ele>
        <time>2021-08-20T14:41:03Z</time>
      </trkpt>
      <trkpt lat="43.24649" lon="-1.08165">
        <ele>168.85</ele>
        <time>2021-08-20T14:41:04Z</time>
      </trkpt>
      <trkpt lat="43.24645" lon="-1.08193">
        <ele>168.37</ele>
        <time>2021-08-20T14:41:08Z</time>
      </trkpt>
      <trkpt lat="43.24645" lon="-1.0822">
        <ele>168.37</ele>
        <time>2021-08-20T14:41:13Z</time>
      </trkpt>
      <trkpt lat="43.24644" lon="-1.08226">
        <ele>167.89</ele>
        <time>2021-08-20T14:41:14Z</time>
      </trkpt>
      <trkpt lat="43.24638" lon="-1.08255">
        <ele>165.48</ele>
        <time>2021-08-20T14:41:19Z</time>
      </trkpt>
      <trkpt lat="43.24636" lon="-1.08261">
        <ele>165.48</ele>
        <time>2021-08-20T14:41:20Z</time>
      </trkpt>
      <trkpt lat="43.2463" lon="-1.08282">
        <ele>162.6</ele>
        <time>2021-08-20T14:41:23Z</time>
      </trkpt>
      <trkpt lat="43.24627" lon="-1.08289">
        <ele>162.6</ele>
        <time>2021-08-20T14:41:24Z</time>
      </trkpt>
      <trkpt lat="43.24625" lon="-1.08296">
        <ele>161.64</ele>
        <time>2021-08-20T14:41:25Z</time>
      </trkpt>
      <trkpt lat="43.24617" lon="-1.08323">
        <ele>159.72</ele>
        <time>2021-08-20T14:41:29Z</time>
      </trkpt>
      <trkpt lat="43.24615" lon="-1.08329">
        <ele>159.72</ele>
        <time>2021-08-20T14:41:30Z</time>
      </trkpt>
      <trkpt lat="43.24612" lon="-1.08343">
        <ele>158.75</ele>
        <time>2021-08-20T14:41:32Z</time>
      </trkpt>
      <trkpt lat="43.24607" lon="-1.08381">
        <ele>156.35</ele>
        <time>2021-08-20T14:41:36Z</time>
      </trkpt>
      <trkpt lat="43.24605" lon="-1.08403">
        <ele>154.91</ele>
        <time>2021-08-20T14:41:38Z</time>
      </trkpt>
      <trkpt lat="43.24603" lon="-1.08414">
        <ele>154.43</ele>
        <time>2021-08-20T14:41:39Z</time>
      </trkpt>
      <trkpt lat="43.24599" lon="-1.08423">
        <ele>153.47</ele>
        <time>2021-08-20T14:41:40Z</time>
      </trkpt>
      <trkpt lat="43.24594" lon="-1.08432">
        <ele>153.47</ele>
        <time>2021-08-20T14:41:41Z</time>
      </trkpt>
      <trkpt lat="43.24562" lon="-1.08487">
        <ele>152.51</ele>
        <time>2021-08-20T14:41:48Z</time>
      </trkpt>
      <trkpt lat="43.24557" lon="-1.08493">
        <ele>152.51</ele>
        <time>2021-08-20T14:41:49Z</time>
      </trkpt>
      <trkpt lat="43.2453" lon="-1.08516">
        <ele>152.51</ele>
        <time>2021-08-20T14:41:55Z</time>
      </trkpt>
      <trkpt lat="43.2452" lon="-1.08523">
        <ele>153.95</ele>
        <time>2021-08-20T14:41:58Z</time>
      </trkpt>
      <trkpt lat="43.24508" lon="-1.08533">
        <ele>155.87</ele>
        <time>2021-08-20T14:42:04Z</time>
      </trkpt>
      <trkpt lat="43.24493" lon="-1.08543">
        <ele>156.83</ele>
        <time>2021-08-20T14:42:11Z</time>
      </trkpt>
      <trkpt lat="43.2448" lon="-1.08554">
        <ele>158.27</ele>
        <time>2021-08-20T14:42:19Z</time>
      </trkpt>
      <trkpt lat="43.24465" lon="-1.08565">
        <ele>159.24</ele>
        <time>2021-08-20T14:42:27Z</time>
      </trkpt>
      <trkpt lat="43.24451" lon="-1.08572">
        <ele>159.72</ele>
        <time>2021-08-20T14:42:34Z</time>
      </trkpt>
      <trkpt lat="43.24437" lon="-1.08591">
        <ele>159.72</ele>
        <time>2021-08-20T14:42:40Z</time>
      </trkpt>
      <trkpt lat="43.24418" lon="-1.08619">
        <ele>156.83</ele>
        <time>2021-08-20T14:42:46Z</time>
      </trkpt>
      <trkpt lat="43.24385" lon="-1.08668">
        <ele>153.95</ele>
        <time>2021-08-20T14:42:54Z</time>
      </trkpt>
      <trkpt lat="43.24349" lon="-1.08719">
        <ele>151.06</ele>
        <time>2021-08-20T14:43:02Z</time>
      </trkpt>
      <trkpt lat="43.24318" lon="-1.08752">
        <ele>151.06</ele>
        <time>2021-08-20T14:43:09Z</time>
      </trkpt>
      <trkpt lat="43.24311" lon="-1.08759">
        <ele>151.06</ele>
        <time>2021-08-20T14:43:11Z</time>
      </trkpt>
      <trkpt lat="43.24308" lon="-1.08763">
        <ele>151.06</ele>
        <time>2021-08-20T14:43:12Z</time>
      </trkpt>
      <trkpt lat="43.24285" lon="-1.08787">
        <ele>152.51</ele>
        <time>2021-08-20T14:43:20Z</time>
      </trkpt>
      <trkpt lat="43.24265" lon="-1.08802">
        <ele>152.51</ele>
        <time>2021-08-20T14:43:26Z</time>
      </trkpt>
      <trkpt lat="43.2423" lon="-1.08823">
        <ele>152.51</ele>
        <time>2021-08-20T14:43:35Z</time>
      </trkpt>
      <trkpt lat="43.24201" lon="-1.08837">
        <ele>152.51</ele>
        <time>2021-08-20T14:43:43Z</time>
      </trkpt>
      <trkpt lat="43.24181" lon="-1.0886">
        <ele>153.47</ele>
        <time>2021-08-20T14:43:51Z</time>
      </trkpt>
      <trkpt lat="43.24162" lon="-1.08879">
        <ele>153.95</ele>
        <time>2021-08-20T14:43:59Z</time>
      </trkpt>
      <trkpt lat="43.24145" lon="-1.08894">
        <ele>154.91</ele>
        <time>2021-08-20T14:44:06Z</time>
      </trkpt>
      <trkpt lat="43.2412" lon="-1.08912">
        <ele>155.39</ele>
        <time>2021-08-20T14:44:15Z</time>
      </trkpt>
      <trkpt lat="43.24096" lon="-1.08927">
        <ele>155.39</ele>
        <time>2021-08-20T14:44:22Z</time>
      </trkpt>
      <trkpt lat="43.24055" lon="-1.08944">
        <ele>155.87</ele>
        <time>2021-08-20T14:44:32Z</time>
      </trkpt>
      <trkpt lat="43.2403" lon="-1.08949">
        <ele>155.87</ele>
        <time>2021-08-20T14:44:38Z</time>
      </trkpt>
      <trkpt lat="43.24026" lon="-1.08949">
        <ele>156.35</ele>
        <time>2021-08-20T14:44:39Z</time>
      </trkpt>
      <trkpt lat="43.24022" lon="-1.08949">
        <ele>156.35</ele>
        <time>2021-08-20T14:44:40Z</time>
      </trkpt>
      <trkpt lat="43.23985" lon="-1.08945">
        <ele>157.31</ele>
        <time>2021-08-20T14:44:50Z</time>
      </trkpt>
      <trkpt lat="43.23956" lon="-1.08948">
        <ele>158.27</ele>
        <time>2021-08-20T14:44:58Z</time>
      </trkpt>
      <trkpt lat="43.23932" lon="-1.08955">
        <ele>159.24</ele>
        <time>2021-08-20T14:45:05Z</time>
      </trkpt>
      <trkpt lat="43.23908" lon="-1.08968">
        <ele>160.2</ele>
        <time>2021-08-20T14:45:12Z</time>
      </trkpt>
      <trkpt lat="43.2389" lon="-1.0897">
        <ele>160.2</ele>
        <time>2021-08-20T14:45:18Z</time>
      </trkpt>
      <trkpt lat="43.23888" lon="-1.08967">
        <ele>160.2</ele>
        <time>2021-08-20T14:45:19Z</time>
      </trkpt>
      <trkpt lat="43.23886" lon="-1.08963">
        <ele>160.2</ele>
        <time>2021-08-20T14:45:20Z</time>
      </trkpt>
      <trkpt lat="43.23877" lon="-1.0894">
        <ele>158.75</ele>
        <time>2021-08-20T14:45:24Z</time>
      </trkpt>
      <trkpt lat="43.23857" lon="-1.08896">
        <ele>156.83</ele>
        <time>2021-08-20T14:45:31Z</time>
      </trkpt>
      <trkpt lat="43.2383" lon="-1.08835">
        <ele>156.35</ele>
        <time>2021-08-20T14:45:40Z</time>
      </trkpt>
      <trkpt lat="43.23804" lon="-1.0878">
        <ele>155.87</ele>
        <time>2021-08-20T14:45:49Z</time>
      </trkpt>
      <trkpt lat="43.23794" lon="-1.08761">
        <ele>155.87</ele>
        <time>2021-08-20T14:45:53Z</time>
      </trkpt>
      <trkpt lat="43.23791" lon="-1.08758">
        <ele>155.87</ele>
        <time>2021-08-20T14:45:54Z</time>
      </trkpt>
      <trkpt lat="43.23788" lon="-1.08755">
        <ele>155.87</ele>
        <time>2021-08-20T14:45:55Z</time>
      </trkpt>
      <trkpt lat="43.23785" lon="-1.08754">
        <ele>155.87</ele>
        <time>2021-08-20T14:45:56Z</time>
      </trkpt>
      <trkpt lat="43.23782" lon="-1.08755">
        <ele>155.87</ele>
        <time>2021-08-20T14:45:57Z</time>
      </trkpt>
      <trkpt lat="43.23779" lon="-1.08759">
        <ele>155.87</ele>
        <time>2021-08-20T14:45:58Z</time>
      </trkpt>
      <trkpt lat="43.23777" lon="-1.08764">
        <ele>155.87</ele>
        <time>2021-08-20T14:45:59Z</time>
      </trkpt>
      <trkpt lat="43.23752" lon="-1.08811">
        <ele>154.91</ele>
        <time>2021-08-20T14:46:08Z</time>
      </trkpt>
      <trkpt lat="43.23722" lon="-1.08864">
        <ele>152.99</ele>
        <time>2021-08-20T14:46:15Z</time>
      </trkpt>
      <trkpt lat="43.23681" lon="-1.0894">
        <ele>151.06</ele>
        <time>2021-08-20T14:46:24Z</time>
      </trkpt>
      <trkpt lat="43.2365" lon="-1.08999">
        <ele>152.51</ele>
        <time>2021-08-20T14:46:32Z</time>
      </trkpt>
      <trkpt lat="43.23646" lon="-1.09005">
        <ele>152.51</ele>
        <time>2021-08-20T14:46:33Z</time>
      </trkpt>
      <trkpt lat="43.23617" lon="-1.09059">
        <ele>154.43</ele>
        <time>2021-08-20T14:46:42Z</time>
      </trkpt>
      <trkpt lat="43.23596" lon="-1.09098">
        <ele>156.35</ele>
        <time>2021-08-20T14:46:51Z</time>
      </trkpt>
      <trkpt lat="43.23578" lon="-1.09133">
        <ele>158.27</ele>
        <time>2021-08-20T14:47:01Z</time>
      </trkpt>
      <trkpt lat="43.23565" lon="-1.09159">
        <ele>159.24</ele>
        <time>2021-08-20T14:47:11Z</time>
      </trkpt>
      <trkpt lat="43.23553" lon="-1.09179">
        <ele>160.2</ele>
        <time>2021-08-20T14:47:19Z</time>
      </trkpt>
      <trkpt lat="43.23551" lon="-1.09185">
        <ele>160.68</ele>
        <time>2021-08-20T14:47:21Z</time>
      </trkpt>
      <trkpt lat="43.23552" lon="-1.09187">
        <ele>160.68</ele>
        <time>2021-08-20T14:47:22Z</time>
      </trkpt>
      <trkpt lat="43.23553" lon="-1.0919">
        <ele>160.68</ele>
        <time>2021-08-20T14:47:23Z</time>
      </trkpt>
      <trkpt lat="43.23554" lon="-1.09193">
        <ele>161.16</ele>
        <time>2021-08-20T14:47:24Z</time>
      </trkpt>
      <trkpt lat="43.23555" lon="-1.09196">
        <ele>161.16</ele>
        <time>2021-08-20T14:47:25Z</time>
      </trkpt>
      <trkpt lat="43.23555" lon="-1.09198">
        <ele>161.64</ele>
        <time>2021-08-20T14:47:26Z</time>
      </trkpt>
      <trkpt lat="43.23556" lon="-1.09201">
        <ele>161.64</ele>
        <time>2021-08-20T14:47:27Z</time>
      </trkpt>
      <trkpt lat="43.23563" lon="-1.09223">
        <ele>162.6</ele>
        <time>2021-08-20T14:47:36Z</time>
      </trkpt>
      <trkpt lat="43.2357" lon="-1.09244">
        <ele>163.56</ele>
        <time>2021-08-20T14:47:44Z</time>
      </trkpt>
      <trkpt lat="43.23577" lon="-1.09263">
        <ele>164.52</ele>
        <time>2021-08-20T14:47:51Z</time>
      </trkpt>
      <trkpt lat="43.23584" lon="-1.09291">
        <ele>166.45</ele>
        <time>2021-08-20T14:48:01Z</time>
      </trkpt>
      <trkpt lat="43.23576" lon="-1.09308">
        <ele>166.93</ele>
        <time>2021-08-20T14:48:07Z</time>
      </trkpt>
      <trkpt lat="43.23563" lon="-1.09333">
        <ele>166.93</ele>
        <time>2021-08-20T14:48:14Z</time>
      </trkpt>
      <trkpt lat="43.23543" lon="-1.09372">
        <ele>166.93</ele>
        <time>2021-08-20T14:48:23Z</time>
      </trkpt>
      <trkpt lat="43.23538" lon="-1.09381">
        <ele>166.93</ele>
        <time>2021-08-20T14:48:25Z</time>
      </trkpt>
      <trkpt lat="43.23523" lon="-1.09408">
        <ele>165.48</ele>
        <time>2021-08-20T14:48:30Z</time>
      </trkpt>
      <trkpt lat="43.2352" lon="-1.09412">
        <ele>165.48</ele>
        <time>2021-08-20T14:48:31Z</time>
      </trkpt>
      <trkpt lat="43.2351" lon="-1.09425">
        <ele>165.48</ele>
        <time>2021-08-20T14:48:34Z</time>
      </trkpt>
      <trkpt lat="43.23503" lon="-1.09436">
        <ele>166.93</ele>
        <time>2021-08-20T14:48:37Z</time>
      </trkpt>
      <trkpt lat="43.23494" lon="-1.09453">
        <ele>169.33</ele>
        <time>2021-08-20T14:48:44Z</time>
      </trkpt>
      <trkpt lat="43.23483" lon="-1.09472">
        <ele>169.81</ele>
        <time>2021-08-20T14:48:51Z</time>
      </trkpt>
      <trkpt lat="43.2347" lon="-1.09499">
        <ele>169.81</ele>
        <time>2021-08-20T14:48:59Z</time>
      </trkpt>
      <trkpt lat="43.23463" lon="-1.09532">
        <ele>170.29</ele>
        <time>2021-08-20T14:49:07Z</time>
      </trkpt>
      <trkpt lat="43.23454" lon="-1.09571">
        <ele>170.29</ele>
        <time>2021-08-20T14:49:15Z</time>
      </trkpt>
      <trkpt lat="43.23444" lon="-1.0959">
        <ele>170.77</ele>
        <time>2021-08-20T14:49:21Z</time>
      </trkpt>
      <trkpt lat="43.23437" lon="-1.096">
        <ele>172.69</ele>
        <time>2021-08-20T14:49:27Z</time>
      </trkpt>
      <trkpt lat="43.23436" lon="-1.09602">
        <ele>172.69</ele>
        <time>2021-08-20T14:49:28Z</time>
      </trkpt>
      <trkpt lat="43.23437" lon="-1.09609">
        <ele>173.17</ele>
        <time>2021-08-20T14:49:32Z</time>
      </trkpt>
      <trkpt lat="43.23442" lon="-1.09618">
        <ele>174.62</ele>
        <time>2021-08-20T14:49:40Z</time>
      </trkpt>
      <trkpt lat="43.23445" lon="-1.09629">
        <ele>175.58</ele>
        <time>2021-08-20T14:49:49Z</time>
      </trkpt>
      <trkpt lat="43.23448" lon="-1.09642">
        <ele>176.54</ele>
        <time>2021-08-20T14:49:58Z</time>
      </trkpt>
      <trkpt lat="43.23448" lon="-1.09643">
        <ele>177.02</ele>
        <time>2021-08-20T14:49:59Z</time>
      </trkpt>
      <trkpt lat="43.23448" lon="-1.09645">
        <ele>177.5</ele>
        <time>2021-08-20T14:50:00Z</time>
      </trkpt>
      <trkpt lat="43.23448" lon="-1.09647">
        <ele>177.5</ele>
        <time>2021-08-20T14:50:01Z</time>
      </trkpt>
      <trkpt lat="43.23448" lon="-1.09648">
        <ele>177.5</ele>
        <time>2021-08-20T14:50:02Z</time>
      </trkpt>
      <trkpt lat="43.23448" lon="-1.09656">
        <ele>177.5</ele>
        <time>2021-08-20T14:50:10Z</time>
      </trkpt>
      <trkpt lat="43.23448" lon="-1.09673">
        <ele>178.46</ele>
        <time>2021-08-20T14:50:17Z</time>
      </trkpt>
      <trkpt lat="43.23449" lon="-1.09708">
        <ele>179.9</ele>
        <time>2021-08-20T14:50:26Z</time>
      </trkpt>
      <trkpt lat="43.23456" lon="-1.09749">
        <ele>180.38</ele>
        <time>2021-08-20T14:50:37Z</time>
      </trkpt>
      <trkpt lat="43.23461" lon="-1.09776">
        <ele>181.35</ele>
        <time>2021-08-20T14:50:44Z</time>
      </trkpt>
      <trkpt lat="43.23463" lon="-1.0981">
        <ele>182.31</ele>
        <time>2021-08-20T14:50:53Z</time>
      </trkpt>
      <trkpt lat="43.23466" lon="-1.09848">
        <ele>182.79</ele>
        <time>2021-08-20T14:51:02Z</time>
      </trkpt>
      <trkpt lat="43.2347" lon="-1.09877">
        <ele>184.23</ele>
        <time>2021-08-20T14:51:10Z</time>
      </trkpt>
      <trkpt lat="43.23467" lon="-1.09915">
        <ele>184.71</ele>
        <time>2021-08-20T14:51:19Z</time>
      </trkpt>
      <trkpt lat="43.23454" lon="-1.09948">
        <ele>184.71</ele>
        <time>2021-08-20T14:51:26Z</time>
      </trkpt>
      <trkpt lat="43.23441" lon="-1.09968">
        <ele>184.71</ele>
        <time>2021-08-20T14:51:31Z</time>
      </trkpt>
      <trkpt lat="43.23438" lon="-1.09972">
        <ele>184.71</ele>
        <time>2021-08-20T14:51:32Z</time>
      </trkpt>
      <trkpt lat="43.23404" lon="-1.10017">
        <ele>185.19</ele>
        <time>2021-08-20T14:51:43Z</time>
      </trkpt>
      <trkpt lat="43.23366" lon="-1.1006">
        <ele>185.19</ele>
        <time>2021-08-20T14:51:54Z</time>
      </trkpt>
      <trkpt lat="43.23333" lon="-1.10092">
        <ele>185.67</ele>
        <time>2021-08-20T14:52:03Z</time>
      </trkpt>
      <trkpt lat="43.23311" lon="-1.1011">
        <ele>186.15</ele>
        <time>2021-08-20T14:52:09Z</time>
      </trkpt>
      <trkpt lat="43.23275" lon="-1.1013">
        <ele>186.63</ele>
        <time>2021-08-20T14:52:18Z</time>
      </trkpt>
      <trkpt lat="43.23242" lon="-1.10146">
        <ele>185.19</ele>
        <time>2021-08-20T14:52:25Z</time>
      </trkpt>
      <trkpt lat="43.23237" lon="-1.10149">
        <ele>185.19</ele>
        <time>2021-08-20T14:52:26Z</time>
      </trkpt>
      <trkpt lat="43.23189" lon="-1.1017">
        <ele>183.75</ele>
        <time>2021-08-20T14:52:35Z</time>
      </trkpt>
      <trkpt lat="43.23156" lon="-1.10192">
        <ele>180.38</ele>
        <time>2021-08-20T14:52:41Z</time>
      </trkpt>
      <trkpt lat="43.23136" lon="-1.10214">
        <ele>176.54</ele>
        <time>2021-08-20T14:52:45Z</time>
      </trkpt>
      <trkpt lat="43.23128" lon="-1.10224">
        <ele>175.58</ele>
        <time>2021-08-20T14:52:47Z</time>
      </trkpt>
      <trkpt lat="43.23121" lon="-1.10232">
        <ele>175.58</ele>
        <time>2021-08-20T14:52:49Z</time>
      </trkpt>
      <trkpt lat="43.23117" lon="-1.10235">
        <ele>175.58</ele>
        <time>2021-08-20T14:52:50Z</time>
      </trkpt>
      <trkpt lat="43.23112" lon="-1.10237">
        <ele>175.58</ele>
        <time>2021-08-20T14:52:51Z</time>
      </trkpt>
      <trkpt lat="43.23103" lon="-1.1024">
        <ele>175.58</ele>
        <time>2021-08-20T14:52:53Z</time>
      </trkpt>
      <trkpt lat="43.231" lon="-1.10245">
        <ele>175.58</ele>
        <time>2021-08-20T14:52:54Z</time>
      </trkpt>
      <trkpt lat="43.23099" lon="-1.10252">
        <ele>174.62</ele>
        <time>2021-08-20T14:52:55Z</time>
      </trkpt>
      <trkpt lat="43.23099" lon="-1.10257">
        <ele>174.62</ele>
        <time>2021-08-20T14:52:56Z</time>
      </trkpt>
      <trkpt lat="43.231" lon="-1.10263">
        <ele>174.14</ele>
        <time>2021-08-20T14:52:57Z</time>
      </trkpt>
      <trkpt lat="43.23101" lon="-1.10267">
        <ele>174.14</ele>
        <time>2021-08-20T14:52:58Z</time>
      </trkpt>
      <trkpt lat="43.23102" lon="-1.1027">
        <ele>174.14</ele>
        <time>2021-08-20T14:52:59Z</time>
      </trkpt>
      <trkpt lat="43.23103" lon="-1.10273">
        <ele>174.14</ele>
        <time>2021-08-20T14:53:00Z</time>
      </trkpt>
      <trkpt lat="43.23105" lon="-1.10274">
        <ele>174.14</ele>
        <time>2021-08-20T14:53:01Z</time>
      </trkpt>
      <trkpt lat="43.23106" lon="-1.10276">
        <ele>174.14</ele>
        <time>2021-08-20T14:53:02Z</time>
      </trkpt>
      <trkpt lat="43.23106" lon="-1.10271">
        <ele>174.14</ele>
        <time>2021-08-20T14:53:06Z</time>
      </trkpt>
      <trkpt lat="43.23104" lon="-1.1027">
        <ele>174.14</ele>
        <time>2021-08-20T14:53:07Z</time>
      </trkpt>
      <trkpt lat="43.23098" lon="-1.10271">
        <ele>174.14</ele>
        <time>2021-08-20T14:53:09Z</time>
      </trkpt>
      <trkpt lat="43.23095" lon="-1.10273">
        <ele>173.66</ele>
        <time>2021-08-20T14:53:10Z</time>
      </trkpt>
      <trkpt lat="43.23092" lon="-1.10278">
        <ele>173.17</ele>
        <time>2021-08-20T14:53:11Z</time>
      </trkpt>
      <trkpt lat="43.23089" lon="-1.10284">
        <ele>173.17</ele>
        <time>2021-08-20T14:53:12Z</time>
      </trkpt>
      <trkpt lat="43.23086" lon="-1.10291">
        <ele>172.21</ele>
        <time>2021-08-20T14:53:13Z</time>
      </trkpt>
      <trkpt lat="43.23084" lon="-1.10297">
        <ele>172.21</ele>
        <time>2021-08-20T14:53:14Z</time>
      </trkpt>
      <trkpt lat="43.23062" lon="-1.10355">
        <ele>168.85</ele>
        <time>2021-08-20T14:53:21Z</time>
      </trkpt>
      <trkpt lat="43.23057" lon="-1.1037">
        <ele>168.85</ele>
        <time>2021-08-20T14:53:24Z</time>
      </trkpt>
      <trkpt lat="43.23057" lon="-1.10373">
        <ele>168.85</ele>
        <time>2021-08-20T14:53:25Z</time>
      </trkpt>
      <trkpt lat="43.23058" lon="-1.10389">
        <ele>168.85</ele>
        <time>2021-08-20T14:53:30Z</time>
      </trkpt>
      <trkpt lat="43.23058" lon="-1.10399">
        <ele>168.37</ele>
        <time>2021-08-20T14:53:32Z</time>
      </trkpt>
      <trkpt lat="43.2306" lon="-1.10413">
        <ele>168.37</ele>
        <time>2021-08-20T14:53:34Z</time>
      </trkpt>
      <trkpt lat="43.23065" lon="-1.10435">
        <ele>166.93</ele>
        <time>2021-08-20T14:53:39Z</time>
      </trkpt>
      <trkpt lat="43.23064" lon="-1.10435">
        <ele>166.93</ele>
        <time>2021-08-20T14:53:42Z</time>
      </trkpt>
      <trkpt lat="43.23059" lon="-1.10428">
        <ele>166.93</ele>
        <time>2021-08-20T14:53:48Z</time>
      </trkpt>
      <trkpt lat="43.23057" lon="-1.10404">
        <ele>166.93</ele>
        <time>2021-08-20T14:53:55Z</time>
      </trkpt>
      <trkpt lat="43.23055" lon="-1.10395">
        <ele>168.37</ele>
        <time>2021-08-20T14:53:58Z</time>
      </trkpt>
      <trkpt lat="43.2305" lon="-1.10392">
        <ele>168.37</ele>
        <time>2021-08-20T14:54:00Z</time>
      </trkpt>
      <trkpt lat="43.23048" lon="-1.10393">
        <ele>168.37</ele>
        <time>2021-08-20T14:54:01Z</time>
      </trkpt>
      <trkpt lat="43.23047" lon="-1.10395">
        <ele>168.37</ele>
        <time>2021-08-20T14:54:02Z</time>
      </trkpt>
      <trkpt lat="43.23046" lon="-1.10398">
        <ele>168.37</ele>
        <time>2021-08-20T14:54:03Z</time>
      </trkpt>
      <trkpt lat="43.23046" lon="-1.104">
        <ele>168.37</ele>
        <time>2021-08-20T14:54:04Z</time>
      </trkpt>
      <trkpt lat="43.23046" lon="-1.10403">
        <ele>168.37</ele>
        <time>2021-08-20T14:54:05Z</time>
      </trkpt>
      <trkpt lat="43.23047" lon="-1.10406">
        <ele>168.37</ele>
        <time>2021-08-20T14:54:06Z</time>
      </trkpt>
      <trkpt lat="43.23048" lon="-1.10418">
        <ele>166.93</ele>
        <time>2021-08-20T14:54:09Z</time>
      </trkpt>
      <trkpt lat="43.23039" lon="-1.10443">
        <ele>166.45</ele>
        <time>2021-08-20T14:54:15Z</time>
      </trkpt>
      <trkpt lat="43.23031" lon="-1.10477">
        <ele>164.04</ele>
        <time>2021-08-20T14:54:21Z</time>
      </trkpt>
      <trkpt lat="43.2303" lon="-1.10483">
        <ele>163.56</ele>
        <time>2021-08-20T14:54:22Z</time>
      </trkpt>
      <trkpt lat="43.2303" lon="-1.10489">
        <ele>163.08</ele>
        <time>2021-08-20T14:54:23Z</time>
      </trkpt>
      <trkpt lat="43.23029" lon="-1.10503">
        <ele>162.6</ele>
        <time>2021-08-20T14:54:25Z</time>
      </trkpt>
      <trkpt lat="43.23017" lon="-1.10561">
        <ele>159.24</ele>
        <time>2021-08-20T14:54:32Z</time>
      </trkpt>
      <trkpt lat="43.23015" lon="-1.10569">
        <ele>159.24</ele>
        <time>2021-08-20T14:54:33Z</time>
      </trkpt>
      <trkpt lat="43.23012" lon="-1.10592">
        <ele>159.24</ele>
        <time>2021-08-20T14:54:37Z</time>
      </trkpt>
      <trkpt lat="43.23012" lon="-1.10605">
        <ele>159.24</ele>
        <time>2021-08-20T14:54:41Z</time>
      </trkpt>
      <trkpt lat="43.23001" lon="-1.10626">
        <ele>159.24</ele>
        <time>2021-08-20T14:54:48Z</time>
      </trkpt>
      <trkpt lat="43.22995" lon="-1.10644">
        <ele>160.2</ele>
        <time>2021-08-20T14:54:53Z</time>
      </trkpt>
      <trkpt lat="43.22985" lon="-1.10668">
        <ele>162.12</ele>
        <time>2021-08-20T14:55:02Z</time>
      </trkpt>
      <trkpt lat="43.22982" lon="-1.1067">
        <ele>162.6</ele>
        <time>2021-08-20T14:55:04Z</time>
      </trkpt>
      <trkpt lat="43.2297" lon="-1.1069">
        <ele>164.04</ele>
        <time>2021-08-20T14:55:14Z</time>
      </trkpt>
      <trkpt lat="43.22958" lon="-1.10708">
        <ele>165.48</ele>
        <time>2021-08-20T14:55:23Z</time>
      </trkpt>
      <trkpt lat="43.22949" lon="-1.10727">
        <ele>166.93</ele>
        <time>2021-08-20T14:55:32Z</time>
      </trkpt>
      <trkpt lat="43.22939" lon="-1.10745">
        <ele>167.89</ele>
        <time>2021-08-20T14:55:40Z</time>
      </trkpt>
      <trkpt lat="43.22927" lon="-1.10769">
        <ele>168.37</ele>
        <time>2021-08-20T14:55:50Z</time>
      </trkpt>
      <trkpt lat="43.22918" lon="-1.10791">
        <ele>169.81</ele>
        <time>2021-08-20T14:55:59Z</time>
      </trkpt>
      <trkpt lat="43.22907" lon="-1.10812">
        <ele>170.77</ele>
        <time>2021-08-20T14:56:08Z</time>
      </trkpt>
      <trkpt lat="43.22896" lon="-1.10835">
        <ele>171.73</ele>
        <time>2021-08-20T14:56:17Z</time>
      </trkpt>
      <trkpt lat="43.22888" lon="-1.10852">
        <ele>172.69</ele>
        <time>2021-08-20T14:56:24Z</time>
      </trkpt>
      <trkpt lat="43.22881" lon="-1.10874">
        <ele>173.66</ele>
        <time>2021-08-20T14:56:33Z</time>
      </trkpt>
      <trkpt lat="43.22877" lon="-1.10895">
        <ele>175.58</ele>
        <time>2021-08-20T14:56:42Z</time>
      </trkpt>
      <trkpt lat="43.22874" lon="-1.10902">
        <ele>175.58</ele>
        <time>2021-08-20T14:56:48Z</time>
      </trkpt>
      <trkpt lat="43.22869" lon="-1.10912">
        <ele>176.54</ele>
        <time>2021-08-20T14:56:56Z</time>
      </trkpt>
      <trkpt lat="43.22864" lon="-1.10921">
        <ele>177.5</ele>
        <time>2021-08-20T14:57:06Z</time>
      </trkpt>
      <trkpt lat="43.22863" lon="-1.10921">
        <ele>177.5</ele>
        <time>2021-08-20T14:57:07Z</time>
      </trkpt>
      <trkpt lat="43.22862" lon="-1.10922">
        <ele>177.5</ele>
        <time>2021-08-20T14:57:08Z</time>
      </trkpt>
      <trkpt lat="43.22859" lon="-1.10923">
        <ele>177.5</ele>
        <time>2021-08-20T14:57:09Z</time>
      </trkpt>
      <trkpt lat="43.22857" lon="-1.10924">
        <ele>177.5</ele>
        <time>2021-08-20T14:57:10Z</time>
      </trkpt>
      <trkpt lat="43.22854" lon="-1.10926">
        <ele>177.5</ele>
        <time>2021-08-20T14:57:11Z</time>
      </trkpt>
      <trkpt lat="43.2285" lon="-1.10928">
        <ele>177.5</ele>
        <time>2021-08-20T14:57:12Z</time>
      </trkpt>
      <trkpt lat="43.22847" lon="-1.10929">
        <ele>176.06</ele>
        <time>2021-08-20T14:57:13Z</time>
      </trkpt>
      <trkpt lat="43.22843" lon="-1.1093">
        <ele>176.06</ele>
        <time>2021-08-20T14:57:14Z</time>
      </trkpt>
      <trkpt lat="43.22835" lon="-1.10931">
        <ele>175.1</ele>
        <time>2021-08-20T14:57:18Z</time>
      </trkpt>
      <trkpt lat="43.22828" lon="-1.1093">
        <ele>175.1</ele>
        <time>2021-08-20T14:57:22Z</time>
      </trkpt>
      <trkpt lat="43.22818" lon="-1.1093">
        <ele>173.66</ele>
        <time>2021-08-20T14:57:25Z</time>
      </trkpt>
      <trkpt lat="43.22815" lon="-1.10934">
        <ele>173.66</ele>
        <time>2021-08-20T14:57:26Z</time>
      </trkpt>
      <trkpt lat="43.22816" lon="-1.10937">
        <ele>173.66</ele>
        <time>2021-08-20T14:57:27Z</time>
      </trkpt>
      <trkpt lat="43.22819" lon="-1.10949">
        <ele>175.1</ele>
        <time>2021-08-20T14:57:33Z</time>
      </trkpt>
      <trkpt lat="43.22819" lon="-1.10965">
        <ele>176.54</ele>
        <time>2021-08-20T14:57:41Z</time>
      </trkpt>
      <trkpt lat="43.22817" lon="-1.10972">
        <ele>177.02</ele>
        <time>2021-08-20T14:57:45Z</time>
      </trkpt>
      <trkpt lat="43.22816" lon="-1.10973">
        <ele>177.02</ele>
        <time>2021-08-20T14:57:46Z</time>
      </trkpt>
      <trkpt lat="43.22815" lon="-1.10975">
        <ele>177.02</ele>
        <time>2021-08-20T14:57:47Z</time>
      </trkpt>
      <trkpt lat="43.22814" lon="-1.10976">
        <ele>177.02</ele>
        <time>2021-08-20T14:57:48Z</time>
      </trkpt>
      <trkpt lat="43.22813" lon="-1.10977">
        <ele>177.02</ele>
        <time>2021-08-20T14:57:49Z</time>
      </trkpt>
      <trkpt lat="43.22812" lon="-1.10978">
        <ele>177.02</ele>
        <time>2021-08-20T14:57:50Z</time>
      </trkpt>
      <trkpt lat="43.22812" lon="-1.10979">
        <ele>177.02</ele>
        <time>2021-08-20T14:57:51Z</time>
      </trkpt>
      <trkpt lat="43.22808" lon="-1.1099">
        <ele>177.98</ele>
        <time>2021-08-20T14:57:59Z</time>
      </trkpt>
      <trkpt lat="43.22807" lon="-1.10993">
        <ele>177.98</ele>
        <time>2021-08-20T14:58:01Z</time>
      </trkpt>
      <trkpt lat="43.22805" lon="-1.11">
        <ele>177.98</ele>
        <time>2021-08-20T14:58:06Z</time>
      </trkpt>
      <trkpt lat="43.228" lon="-1.11009">
        <ele>177.98</ele>
        <time>2021-08-20T14:58:12Z</time>
      </trkpt>
      <trkpt lat="43.22791" lon="-1.11024">
        <ele>177.98</ele>
        <time>2021-08-20T14:58:18Z</time>
      </trkpt>
      <trkpt lat="43.22779" lon="-1.11051">
        <ele>177.98</ele>
        <time>2021-08-20T14:58:26Z</time>
      </trkpt>
      <trkpt lat="43.22772" lon="-1.11077">
        <ele>177.98</ele>
        <time>2021-08-20T14:58:32Z</time>
      </trkpt>
      <trkpt lat="43.22757" lon="-1.1111">
        <ele>177.98</ele>
        <time>2021-08-20T14:58:40Z</time>
      </trkpt>
      <trkpt lat="43.22746" lon="-1.11132">
        <ele>177.98</ele>
        <time>2021-08-20T14:58:46Z</time>
      </trkpt>
      <trkpt lat="43.22737" lon="-1.1116">
        <ele>177.98</ele>
        <time>2021-08-20T14:58:52Z</time>
      </trkpt>
      <trkpt lat="43.22732" lon="-1.1121">
        <ele>177.98</ele>
        <time>2021-08-20T14:59:02Z</time>
      </trkpt>
      <trkpt lat="43.22732" lon="-1.11223">
        <ele>176.54</ele>
        <time>2021-08-20T14:59:04Z</time>
      </trkpt>
      <trkpt lat="43.22732" lon="-1.11228">
        <ele>176.54</ele>
        <time>2021-08-20T14:59:05Z</time>
      </trkpt>
      <trkpt lat="43.22731" lon="-1.11236">
        <ele>176.06</ele>
        <time>2021-08-20T14:59:06Z</time>
      </trkpt>
      <trkpt lat="43.22732" lon="-1.1124">
        <ele>176.06</ele>
        <time>2021-08-20T14:59:07Z</time>
      </trkpt>
      <trkpt lat="43.22732" lon="-1.11247">
        <ele>176.06</ele>
        <time>2021-08-20T14:59:08Z</time>
      </trkpt>
      <trkpt lat="43.22733" lon="-1.11253">
        <ele>176.06</ele>
        <time>2021-08-20T14:59:09Z</time>
      </trkpt>
      <trkpt lat="43.22735" lon="-1.1126">
        <ele>176.06</ele>
        <time>2021-08-20T14:59:10Z</time>
      </trkpt>
      <trkpt lat="43.22735" lon="-1.11265">
        <ele>176.06</ele>
        <time>2021-08-20T14:59:11Z</time>
      </trkpt>
      <trkpt lat="43.22735" lon="-1.11271">
        <ele>176.06</ele>
        <time>2021-08-20T14:59:12Z</time>
      </trkpt>
      <trkpt lat="43.22734" lon="-1.11278">
        <ele>176.06</ele>
        <time>2021-08-20T14:59:13Z</time>
      </trkpt>
      <trkpt lat="43.22732" lon="-1.11283">
        <ele>176.06</ele>
        <time>2021-08-20T14:59:14Z</time>
      </trkpt>
      <trkpt lat="43.22729" lon="-1.11288">
        <ele>176.06</ele>
        <time>2021-08-20T14:59:15Z</time>
      </trkpt>
      <trkpt lat="43.22726" lon="-1.1129">
        <ele>176.06</ele>
        <time>2021-08-20T14:59:16Z</time>
      </trkpt>
      <trkpt lat="43.22724" lon="-1.11292">
        <ele>176.06</ele>
        <time>2021-08-20T14:59:17Z</time>
      </trkpt>
      <trkpt lat="43.22722" lon="-1.11293">
        <ele>177.5</ele>
        <time>2021-08-20T14:59:18Z</time>
      </trkpt>
      <trkpt lat="43.2272" lon="-1.11294">
        <ele>177.5</ele>
        <time>2021-08-20T14:59:19Z</time>
      </trkpt>
      <trkpt lat="43.22707" lon="-1.11304">
        <ele>178.94</ele>
        <time>2021-08-20T14:59:27Z</time>
      </trkpt>
      <trkpt lat="43.22699" lon="-1.11319">
        <ele>180.38</ele>
        <time>2021-08-20T14:59:34Z</time>
      </trkpt>
      <trkpt lat="43.22696" lon="-1.11326">
        <ele>180.87</ele>
        <time>2021-08-20T14:59:37Z</time>
      </trkpt>
      <trkpt lat="43.22694" lon="-1.11328">
        <ele>180.87</ele>
        <time>2021-08-20T14:59:38Z</time>
      </trkpt>
      <trkpt lat="43.22687" lon="-1.11344">
        <ele>181.83</ele>
        <time>2021-08-20T14:59:45Z</time>
      </trkpt>
      <trkpt lat="43.22679" lon="-1.11355">
        <ele>182.79</ele>
        <time>2021-08-20T14:59:52Z</time>
      </trkpt>
      <trkpt lat="43.22671" lon="-1.11368">
        <ele>183.75</ele>
        <time>2021-08-20T14:59:59Z</time>
      </trkpt>
      <trkpt lat="43.2267" lon="-1.11371">
        <ele>183.75</ele>
        <time>2021-08-20T15:00:00Z</time>
      </trkpt>
      <trkpt lat="43.22669" lon="-1.11373">
        <ele>184.23</ele>
        <time>2021-08-20T15:00:01Z</time>
      </trkpt>
      <trkpt lat="43.22667" lon="-1.11375">
        <ele>184.23</ele>
        <time>2021-08-20T15:00:02Z</time>
      </trkpt>
      <trkpt lat="43.22666" lon="-1.11377">
        <ele>184.23</ele>
        <time>2021-08-20T15:00:03Z</time>
      </trkpt>
      <trkpt lat="43.22657" lon="-1.11389">
        <ele>185.19</ele>
        <time>2021-08-20T15:00:11Z</time>
      </trkpt>
      <trkpt lat="43.22655" lon="-1.11395">
        <ele>185.19</ele>
        <time>2021-08-20T15:00:14Z</time>
      </trkpt>
      <trkpt lat="43.22654" lon="-1.11397">
        <ele>185.67</ele>
        <time>2021-08-20T15:00:15Z</time>
      </trkpt>
      <trkpt lat="43.22647" lon="-1.11413">
        <ele>186.63</ele>
        <time>2021-08-20T15:00:24Z</time>
      </trkpt>
      <trkpt lat="43.22643" lon="-1.11421">
        <ele>188.56</ele>
        <time>2021-08-20T15:00:34Z</time>
      </trkpt>
      <trkpt lat="43.22635" lon="-1.1143">
        <ele>189.52</ele>
        <time>2021-08-20T15:00:43Z</time>
      </trkpt>
      <trkpt lat="43.22634" lon="-1.11437">
        <ele>189.52</ele>
        <time>2021-08-20T15:00:49Z</time>
      </trkpt>
      <trkpt lat="43.22626" lon="-1.11447">
        <ele>189.52</ele>
        <time>2021-08-20T15:00:54Z</time>
      </trkpt>
      <trkpt lat="43.22615" lon="-1.11466">
        <ele>189.52</ele>
        <time>2021-08-20T15:01:01Z</time>
      </trkpt>
      <trkpt lat="43.22604" lon="-1.11491">
        <ele>189.52</ele>
        <time>2021-08-20T15:01:07Z</time>
      </trkpt>
      <trkpt lat="43.22596" lon="-1.11536">
        <ele>189.52</ele>
        <time>2021-08-20T15:01:16Z</time>
      </trkpt>
      <trkpt lat="43.22591" lon="-1.11584">
        <ele>189.52</ele>
        <time>2021-08-20T15:01:25Z</time>
      </trkpt>
      <trkpt lat="43.22588" lon="-1.11592">
        <ele>189.52</ele>
        <time>2021-08-20T15:01:27Z</time>
      </trkpt>
      <trkpt lat="43.22587" lon="-1.11595">
        <ele>189.52</ele>
        <time>2021-08-20T15:01:28Z</time>
      </trkpt>
      <trkpt lat="43.22585" lon="-1.116">
        <ele>189.52</ele>
        <time>2021-08-20T15:01:29Z</time>
      </trkpt>
      <trkpt lat="43.22581" lon="-1.11612">
        <ele>187.59</ele>
        <time>2021-08-20T15:01:31Z</time>
      </trkpt>
      <trkpt lat="43.22575" lon="-1.11625">
        <ele>186.63</ele>
        <time>2021-08-20T15:01:33Z</time>
      </trkpt>
      <trkpt lat="43.22571" lon="-1.11629">
        <ele>186.63</ele>
        <time>2021-08-20T15:01:34Z</time>
      </trkpt>
      <trkpt lat="43.22558" lon="-1.11638">
        <ele>185.67</ele>
        <time>2021-08-20T15:01:36Z</time>
      </trkpt>
      <trkpt lat="43.22535" lon="-1.11652">
        <ele>181.83</ele>
        <time>2021-08-20T15:01:39Z</time>
      </trkpt>
      <trkpt lat="43.22527" lon="-1.11658">
        <ele>180.87</ele>
        <time>2021-08-20T15:01:40Z</time>
      </trkpt>
      <trkpt lat="43.22519" lon="-1.11665">
        <ele>180.87</ele>
        <time>2021-08-20T15:01:41Z</time>
      </trkpt>
      <trkpt lat="43.22513" lon="-1.11673">
        <ele>180.87</ele>
        <time>2021-08-20T15:01:42Z</time>
      </trkpt>
      <trkpt lat="43.22504" lon="-1.11691">
        <ele>180.87</ele>
        <time>2021-08-20T15:01:44Z</time>
      </trkpt>
      <trkpt lat="43.22502" lon="-1.11701">
        <ele>180.87</ele>
        <time>2021-08-20T15:01:45Z</time>
      </trkpt>
      <trkpt lat="43.225" lon="-1.11712">
        <ele>180.87</ele>
        <time>2021-08-20T15:01:46Z</time>
      </trkpt>
      <trkpt lat="43.22498" lon="-1.11763">
        <ele>180.87</ele>
        <time>2021-08-20T15:01:52Z</time>
      </trkpt>
      <trkpt lat="43.22497" lon="-1.11817">
        <ele>181.83</ele>
        <time>2021-08-20T15:02:00Z</time>
      </trkpt>
      <trkpt lat="43.22497" lon="-1.11859">
        <ele>181.83</ele>
        <time>2021-08-20T15:02:06Z</time>
      </trkpt>
      <trkpt lat="43.22497" lon="-1.11866">
        <ele>181.83</ele>
        <time>2021-08-20T15:02:07Z</time>
      </trkpt>
      <trkpt lat="43.22497" lon="-1.11873">
        <ele>181.83</ele>
        <time>2021-08-20T15:02:08Z</time>
      </trkpt>
      <trkpt lat="43.22492" lon="-1.11925">
        <ele>180.87</ele>
        <time>2021-08-20T15:02:15Z</time>
      </trkpt>
      <trkpt lat="43.22491" lon="-1.11932">
        <ele>180.87</ele>
        <time>2021-08-20T15:02:16Z</time>
      </trkpt>
      <trkpt lat="43.2249" lon="-1.11939">
        <ele>180.87</ele>
        <time>2021-08-20T15:02:17Z</time>
      </trkpt>
      <trkpt lat="43.22488" lon="-1.11946">
        <ele>180.87</ele>
        <time>2021-08-20T15:02:18Z</time>
      </trkpt>
      <trkpt lat="43.22486" lon="-1.11952">
        <ele>180.38</ele>
        <time>2021-08-20T15:02:19Z</time>
      </trkpt>
      <trkpt lat="43.22481" lon="-1.11957">
        <ele>179.9</ele>
        <time>2021-08-20T15:02:20Z</time>
      </trkpt>
      <trkpt lat="43.22477" lon="-1.11962">
        <ele>179.9</ele>
        <time>2021-08-20T15:02:21Z</time>
      </trkpt>
      <trkpt lat="43.22473" lon="-1.11966">
        <ele>178.94</ele>
        <time>2021-08-20T15:02:22Z</time>
      </trkpt>
      <trkpt lat="43.22468" lon="-1.1197">
        <ele>178.94</ele>
        <time>2021-08-20T15:02:23Z</time>
      </trkpt>
      <trkpt lat="43.22463" lon="-1.11972">
        <ele>178.46</ele>
        <time>2021-08-20T15:02:24Z</time>
      </trkpt>
      <trkpt lat="43.22458" lon="-1.11973">
        <ele>178.46</ele>
        <time>2021-08-20T15:02:25Z</time>
      </trkpt>
      <trkpt lat="43.22454" lon="-1.11974">
        <ele>177.98</ele>
        <time>2021-08-20T15:02:26Z</time>
      </trkpt>
      <trkpt lat="43.22451" lon="-1.11974">
        <ele>177.98</ele>
        <time>2021-08-20T15:02:27Z</time>
      </trkpt>
      <trkpt lat="43.2245" lon="-1.11974">
        <ele>178.46</ele>
        <time>2021-08-20T15:02:31Z</time>
      </trkpt>
      <trkpt lat="43.22448" lon="-1.11974">
        <ele>178.46</ele>
        <time>2021-08-20T15:02:38Z</time>
      </trkpt>
      <trkpt lat="43.22446" lon="-1.11975">
        <ele>178.46</ele>
        <time>2021-08-20T15:02:41Z</time>
      </trkpt>
      <trkpt lat="43.22441" lon="-1.11974">
        <ele>177.98</ele>
        <time>2021-08-20T15:02:47Z</time>
      </trkpt>
      <trkpt lat="43.22426" lon="-1.11972">
        <ele>177.5</ele>
        <time>2021-08-20T15:02:53Z</time>
      </trkpt>
      <trkpt lat="43.22398" lon="-1.11963">
        <ele>176.06</ele>
        <time>2021-08-20T15:03:01Z</time>
      </trkpt>
      <trkpt lat="43.22372" lon="-1.11949">
        <ele>175.1</ele>
        <time>2021-08-20T15:03:07Z</time>
      </trkpt>
      <trkpt lat="43.22345" lon="-1.11935">
        <ele>175.1</ele>
        <time>2021-08-20T15:03:13Z</time>
      </trkpt>
      <trkpt lat="43.2234" lon="-1.11933">
        <ele>175.1</ele>
        <time>2021-08-20T15:03:14Z</time>
      </trkpt>
      <trkpt lat="43.22337" lon="-1.11931">
        <ele>175.1</ele>
        <time>2021-08-20T15:03:15Z</time>
      </trkpt>
      <trkpt lat="43.22334" lon="-1.11929">
        <ele>175.1</ele>
        <time>2021-08-20T15:03:16Z</time>
      </trkpt>
      <trkpt lat="43.2233" lon="-1.11927">
        <ele>175.1</ele>
        <time>2021-08-20T15:03:17Z</time>
      </trkpt>
      <trkpt lat="43.22327" lon="-1.11925">
        <ele>176.54</ele>
        <time>2021-08-20T15:03:18Z</time>
      </trkpt>
      <trkpt lat="43.22324" lon="-1.11923">
        <ele>176.54</ele>
        <time>2021-08-20T15:03:19Z</time>
      </trkpt>
      <trkpt lat="43.22307" lon="-1.11911">
        <ele>177.02</ele>
        <time>2021-08-20T15:03:26Z</time>
      </trkpt>
      <trkpt lat="43.22305" lon="-1.11909">
        <ele>177.5</ele>
        <time>2021-08-20T15:03:27Z</time>
      </trkpt>
      <trkpt lat="43.22303" lon="-1.11906">
        <ele>177.5</ele>
        <time>2021-08-20T15:03:28Z</time>
      </trkpt>
      <trkpt lat="43.22301" lon="-1.11903">
        <ele>177.98</ele>
        <time>2021-08-20T15:03:29Z</time>
      </trkpt>
      <trkpt lat="43.223" lon="-1.11901">
        <ele>177.98</ele>
        <time>2021-08-20T15:03:30Z</time>
      </trkpt>
      <trkpt lat="43.22298" lon="-1.11899">
        <ele>178.46</ele>
        <time>2021-08-20T15:03:31Z</time>
      </trkpt>
      <trkpt lat="43.22295" lon="-1.11898">
        <ele>178.46</ele>
        <time>2021-08-20T15:03:32Z</time>
      </trkpt>
      <trkpt lat="43.22293" lon="-1.11896">
        <ele>178.94</ele>
        <time>2021-08-20T15:03:33Z</time>
      </trkpt>
      <trkpt lat="43.22291" lon="-1.11895">
        <ele>178.94</ele>
        <time>2021-08-20T15:03:34Z</time>
      </trkpt>
      <trkpt lat="43.22272" lon="-1.11885">
        <ele>179.9</ele>
        <time>2021-08-20T15:03:43Z</time>
      </trkpt>
      <trkpt lat="43.22253" lon="-1.11878">
        <ele>180.38</ele>
        <time>2021-08-20T15:03:51Z</time>
      </trkpt>
      <trkpt lat="43.22234" lon="-1.11871">
        <ele>181.83</ele>
        <time>2021-08-20T15:03:58Z</time>
      </trkpt>
      <trkpt lat="43.22215" lon="-1.11866">
        <ele>180.87</ele>
        <time>2021-08-20T15:04:04Z</time>
      </trkpt>
      <trkpt lat="43.22212" lon="-1.11866">
        <ele>180.87</ele>
        <time>2021-08-20T15:04:05Z</time>
      </trkpt>
      <trkpt lat="43.22183" lon="-1.11872">
        <ele>180.87</ele>
        <time>2021-08-20T15:04:11Z</time>
      </trkpt>
      <trkpt lat="43.22161" lon="-1.11885">
        <ele>180.38</ele>
        <time>2021-08-20T15:04:16Z</time>
      </trkpt>
      <trkpt lat="43.22156" lon="-1.11887">
        <ele>179.42</ele>
        <time>2021-08-20T15:04:17Z</time>
      </trkpt>
      <trkpt lat="43.22142" lon="-1.11893">
        <ele>177.98</ele>
        <time>2021-08-20T15:04:20Z</time>
      </trkpt>
      <trkpt lat="43.22137" lon="-1.11894">
        <ele>177.98</ele>
        <time>2021-08-20T15:04:21Z</time>
      </trkpt>
      <trkpt lat="43.22134" lon="-1.11896">
        <ele>177.98</ele>
        <time>2021-08-20T15:04:22Z</time>
      </trkpt>
      <trkpt lat="43.22129" lon="-1.11899">
        <ele>177.98</ele>
        <time>2021-08-20T15:04:24Z</time>
      </trkpt>
      <trkpt lat="43.22128" lon="-1.11901">
        <ele>177.5</ele>
        <time>2021-08-20T15:04:29Z</time>
      </trkpt>
      <trkpt lat="43.22124" lon="-1.11903">
        <ele>177.5</ele>
        <time>2021-08-20T15:04:35Z</time>
      </trkpt>
      <trkpt lat="43.22123" lon="-1.11905">
        <ele>176.54</ele>
        <time>2021-08-20T15:04:36Z</time>
      </trkpt>
      <trkpt lat="43.22108" lon="-1.11925">
        <ele>176.06</ele>
        <time>2021-08-20T15:04:42Z</time>
      </trkpt>
      <trkpt lat="43.22098" lon="-1.11941">
        <ele>176.06</ele>
        <time>2021-08-20T15:04:49Z</time>
      </trkpt>
      <trkpt lat="43.22092" lon="-1.1195">
        <ele>177.5</ele>
        <time>2021-08-20T15:04:56Z</time>
      </trkpt>
      <trkpt lat="43.22089" lon="-1.11947">
        <ele>177.5</ele>
        <time>2021-08-20T15:05:00Z</time>
      </trkpt>
      <trkpt lat="43.2209" lon="-1.11946">
        <ele>177.5</ele>
        <time>2021-08-20T15:05:05Z</time>
      </trkpt>
      <trkpt lat="43.22094" lon="-1.11948">
        <ele>177.5</ele>
        <time>2021-08-20T15:05:27Z</time>
      </trkpt>
      <trkpt lat="43.22094" lon="-1.11951">
        <ele>177.5</ele>
        <time>2021-08-20T15:05:46Z</time>
      </trkpt>
      <trkpt lat="43.22093" lon="-1.1195">
        <ele>177.5</ele>
        <time>2021-08-20T15:05:50Z</time>
      </trkpt>
      <trkpt lat="43.22087" lon="-1.1196">
        <ele>177.98</ele>
        <time>2021-08-20T15:05:56Z</time>
      </trkpt>
      <trkpt lat="43.22072" lon="-1.11984">
        <ele>177.98</ele>
        <time>2021-08-20T15:06:03Z</time>
      </trkpt>
      <trkpt lat="43.22052" lon="-1.12014">
        <ele>177.98</ele>
        <time>2021-08-20T15:06:11Z</time>
      </trkpt>
      <trkpt lat="43.22023" lon="-1.12054">
        <ele>176.54</ele>
        <time>2021-08-20T15:06:19Z</time>
      </trkpt>
      <trkpt lat="43.22018" lon="-1.12059">
        <ele>176.54</ele>
        <time>2021-08-20T15:06:20Z</time>
      </trkpt>
      <trkpt lat="43.21977" lon="-1.12104">
        <ele>175.58</ele>
        <time>2021-08-20T15:06:29Z</time>
      </trkpt>
      <trkpt lat="43.21942" lon="-1.12145">
        <ele>175.58</ele>
        <time>2021-08-20T15:06:38Z</time>
      </trkpt>
      <trkpt lat="43.21926" lon="-1.12164">
        <ele>177.02</ele>
        <time>2021-08-20T15:06:43Z</time>
      </trkpt>
      <trkpt lat="43.21894" lon="-1.122">
        <ele>177.98</ele>
        <time>2021-08-20T15:06:53Z</time>
      </trkpt>
      <trkpt lat="43.21878" lon="-1.12218">
        <ele>178.46</ele>
        <time>2021-08-20T15:06:58Z</time>
      </trkpt>
      <trkpt lat="43.21854" lon="-1.12242">
        <ele>181.35</ele>
        <time>2021-08-20T15:07:07Z</time>
      </trkpt>
      <trkpt lat="43.21838" lon="-1.12259">
        <ele>181.83</ele>
        <time>2021-08-20T15:07:15Z</time>
      </trkpt>
      <trkpt lat="43.21825" lon="-1.12274">
        <ele>182.79</ele>
        <time>2021-08-20T15:07:23Z</time>
      </trkpt>
      <trkpt lat="43.21823" lon="-1.12276">
        <ele>182.79</ele>
        <time>2021-08-20T15:07:24Z</time>
      </trkpt>
      <trkpt lat="43.21823" lon="-1.1228">
        <ele>182.79</ele>
        <time>2021-08-20T15:07:25Z</time>
      </trkpt>
      <trkpt lat="43.21822" lon="-1.12283">
        <ele>183.27</ele>
        <time>2021-08-20T15:07:26Z</time>
      </trkpt>
      <trkpt lat="43.21822" lon="-1.12286">
        <ele>183.27</ele>
        <time>2021-08-20T15:07:27Z</time>
      </trkpt>
      <trkpt lat="43.21823" lon="-1.12289">
        <ele>183.27</ele>
        <time>2021-08-20T15:07:28Z</time>
      </trkpt>
      <trkpt lat="43.21823" lon="-1.12292">
        <ele>183.27</ele>
        <time>2021-08-20T15:07:29Z</time>
      </trkpt>
      <trkpt lat="43.21824" lon="-1.12295">
        <ele>183.75</ele>
        <time>2021-08-20T15:07:30Z</time>
      </trkpt>
      <trkpt lat="43.21825" lon="-1.12298">
        <ele>183.75</ele>
        <time>2021-08-20T15:07:31Z</time>
      </trkpt>
      <trkpt lat="43.21826" lon="-1.12301">
        <ele>183.75</ele>
        <time>2021-08-20T15:07:32Z</time>
      </trkpt>
      <trkpt lat="43.21827" lon="-1.12303">
        <ele>184.23</ele>
        <time>2021-08-20T15:07:33Z</time>
      </trkpt>
      <trkpt lat="43.21829" lon="-1.12306">
        <ele>184.23</ele>
        <time>2021-08-20T15:07:34Z</time>
      </trkpt>
      <trkpt lat="43.21842" lon="-1.12331">
        <ele>186.63</ele>
        <time>2021-08-20T15:07:46Z</time>
      </trkpt>
      <trkpt lat="43.21843" lon="-1.12337">
        <ele>187.59</ele>
        <time>2021-08-20T15:07:49Z</time>
      </trkpt>
      <trkpt lat="43.2184" lon="-1.12342">
        <ele>188.08</ele>
        <time>2021-08-20T15:07:57Z</time>
      </trkpt>
      <trkpt lat="43.21837" lon="-1.12341">
        <ele>188.08</ele>
        <time>2021-08-20T15:08:06Z</time>
      </trkpt>
      <trkpt lat="43.21832" lon="-1.12345">
        <ele>189.52</ele>
        <time>2021-08-20T15:08:16Z</time>
      </trkpt>
      <trkpt lat="43.21827" lon="-1.12347">
        <ele>190.48</ele>
        <time>2021-08-20T15:08:25Z</time>
      </trkpt>
      <trkpt lat="43.21819" lon="-1.1235">
        <ele>191.92</ele>
        <time>2021-08-20T15:08:35Z</time>
      </trkpt>
      <trkpt lat="43.21811" lon="-1.12349">
        <ele>193.36</ele>
        <time>2021-08-20T15:08:45Z</time>
      </trkpt>
      <trkpt lat="43.21809" lon="-1.1235">
        <ele>193.36</ele>
        <time>2021-08-20T15:08:47Z</time>
      </trkpt>
      <trkpt lat="43.21808" lon="-1.1235">
        <ele>193.36</ele>
        <time>2021-08-20T15:08:48Z</time>
      </trkpt>
      <trkpt lat="43.21801" lon="-1.12354">
        <ele>194.32</ele>
        <time>2021-08-20T15:08:57Z</time>
      </trkpt>
      <trkpt lat="43.21796" lon="-1.12355">
        <ele>194.8</ele>
        <time>2021-08-20T15:09:05Z</time>
      </trkpt>
      <trkpt lat="43.21795" lon="-1.12355">
        <ele>194.8</ele>
        <time>2021-08-20T15:09:07Z</time>
      </trkpt>
      <trkpt lat="43.21788" lon="-1.12356">
        <ele>195.28</ele>
        <time>2021-08-20T15:09:13Z</time>
      </trkpt>
      <trkpt lat="43.21775" lon="-1.12359">
        <ele>196.25</ele>
        <time>2021-08-20T15:09:22Z</time>
      </trkpt>
      <trkpt lat="43.21765" lon="-1.12365">
        <ele>197.21</ele>
        <time>2021-08-20T15:09:29Z</time>
      </trkpt>
      <trkpt lat="43.21764" lon="-1.12366">
        <ele>197.21</ele>
        <time>2021-08-20T15:09:30Z</time>
      </trkpt>
      <trkpt lat="43.21763" lon="-1.12367">
        <ele>197.21</ele>
        <time>2021-08-20T15:09:31Z</time>
      </trkpt>
      <trkpt lat="43.21761" lon="-1.12369">
        <ele>197.21</ele>
        <time>2021-08-20T15:09:32Z</time>
      </trkpt>
      <trkpt lat="43.2176" lon="-1.1237">
        <ele>197.21</ele>
        <time>2021-08-20T15:09:33Z</time>
      </trkpt>
      <trkpt lat="43.21758" lon="-1.12372">
        <ele>197.21</ele>
        <time>2021-08-20T15:09:34Z</time>
      </trkpt>
      <trkpt lat="43.21756" lon="-1.12373">
        <ele>197.21</ele>
        <time>2021-08-20T15:09:35Z</time>
      </trkpt>
      <trkpt lat="43.21754" lon="-1.12374">
        <ele>197.69</ele>
        <time>2021-08-20T15:09:36Z</time>
      </trkpt>
      <trkpt lat="43.21752" lon="-1.12376">
        <ele>197.69</ele>
        <time>2021-08-20T15:09:37Z</time>
      </trkpt>
      <trkpt lat="43.2175" lon="-1.12378">
        <ele>197.69</ele>
        <time>2021-08-20T15:09:38Z</time>
      </trkpt>
      <trkpt lat="43.21742" lon="-1.12386">
        <ele>198.17</ele>
        <time>2021-08-20T15:09:44Z</time>
      </trkpt>
      <trkpt lat="43.21725" lon="-1.12404">
        <ele>198.17</ele>
        <time>2021-08-20T15:09:53Z</time>
      </trkpt>
      <trkpt lat="43.21712" lon="-1.12418">
        <ele>198.65</ele>
        <time>2021-08-20T15:10:01Z</time>
      </trkpt>
      <trkpt lat="43.21698" lon="-1.12434">
        <ele>199.13</ele>
        <time>2021-08-20T15:10:08Z</time>
      </trkpt>
      <trkpt lat="43.21685" lon="-1.12451">
        <ele>200.09</ele>
        <time>2021-08-20T15:10:16Z</time>
      </trkpt>
      <trkpt lat="43.21671" lon="-1.12467">
        <ele>200.09</ele>
        <time>2021-08-20T15:10:23Z</time>
      </trkpt>
      <trkpt lat="43.21658" lon="-1.12492">
        <ele>200.57</ele>
        <time>2021-08-20T15:10:31Z</time>
      </trkpt>
      <trkpt lat="43.2165" lon="-1.12509">
        <ele>202.01</ele>
        <time>2021-08-20T15:10:38Z</time>
      </trkpt>
      <trkpt lat="43.21641" lon="-1.1253">
        <ele>202.49</ele>
        <time>2021-08-20T15:10:46Z</time>
      </trkpt>
      <trkpt lat="43.21629" lon="-1.12547">
        <ele>202.49</ele>
        <time>2021-08-20T15:10:53Z</time>
      </trkpt>
      <trkpt lat="43.21616" lon="-1.12555">
        <ele>203.46</ele>
        <time>2021-08-20T15:11:00Z</time>
      </trkpt>
      <trkpt lat="43.21604" lon="-1.12566">
        <ele>205.38</ele>
        <time>2021-08-20T15:11:07Z</time>
      </trkpt>
      <trkpt lat="43.21591" lon="-1.1258">
        <ele>206.34</ele>
        <time>2021-08-20T15:11:15Z</time>
      </trkpt>
      <trkpt lat="43.21578" lon="-1.12591">
        <ele>206.34</ele>
        <time>2021-08-20T15:11:21Z</time>
      </trkpt>
      <trkpt lat="43.21566" lon="-1.12604">
        <ele>207.3</ele>
        <time>2021-08-20T15:11:28Z</time>
      </trkpt>
      <trkpt lat="43.21558" lon="-1.12616">
        <ele>208.26</ele>
        <time>2021-08-20T15:11:35Z</time>
      </trkpt>
      <trkpt lat="43.21554" lon="-1.12624">
        <ele>209.22</ele>
        <time>2021-08-20T15:11:41Z</time>
      </trkpt>
      <trkpt lat="43.21554" lon="-1.12625">
        <ele>209.7</ele>
        <time>2021-08-20T15:11:42Z</time>
      </trkpt>
      <trkpt lat="43.21548" lon="-1.12639">
        <ele>210.67</ele>
        <time>2021-08-20T15:11:51Z</time>
      </trkpt>
      <trkpt lat="43.21543" lon="-1.12648">
        <ele>211.15</ele>
        <time>2021-08-20T15:11:57Z</time>
      </trkpt>
      <trkpt lat="43.21536" lon="-1.12662">
        <ele>212.11</ele>
        <time>2021-08-20T15:12:05Z</time>
      </trkpt>
      <trkpt lat="43.2153" lon="-1.12676">
        <ele>213.55</ele>
        <time>2021-08-20T15:12:13Z</time>
      </trkpt>
      <trkpt lat="43.21528" lon="-1.12681">
        <ele>213.55</ele>
        <time>2021-08-20T15:12:16Z</time>
      </trkpt>
      <trkpt lat="43.21528" lon="-1.12683">
        <ele>213.55</ele>
        <time>2021-08-20T15:12:17Z</time>
      </trkpt>
      <trkpt lat="43.21526" lon="-1.12691">
        <ele>213.55</ele>
        <time>2021-08-20T15:12:20Z</time>
      </trkpt>
      <trkpt lat="43.21526" lon="-1.12693">
        <ele>214.03</ele>
        <time>2021-08-20T15:12:21Z</time>
      </trkpt>
      <trkpt lat="43.21523" lon="-1.12711">
        <ele>214.99</ele>
        <time>2021-08-20T15:12:30Z</time>
      </trkpt>
      <trkpt lat="43.21525" lon="-1.12721">
        <ele>216.43</ele>
        <time>2021-08-20T15:12:40Z</time>
      </trkpt>
      <trkpt lat="43.21528" lon="-1.12726">
        <ele>217.4</ele>
        <time>2021-08-20T15:12:47Z</time>
      </trkpt>
      <trkpt lat="43.21528" lon="-1.12728">
        <ele>217.88</ele>
        <time>2021-08-20T15:12:52Z</time>
      </trkpt>
      <trkpt lat="43.21527" lon="-1.12731">
        <ele>217.4</ele>
        <time>2021-08-20T15:12:56Z</time>
      </trkpt>
      <trkpt lat="43.21525" lon="-1.12735">
        <ele>217.4</ele>
        <time>2021-08-20T15:13:02Z</time>
      </trkpt>
      <trkpt lat="43.21524" lon="-1.12738">
        <ele>216.43</ele>
        <time>2021-08-20T15:13:05Z</time>
      </trkpt>
      <trkpt lat="43.21524" lon="-1.1274">
        <ele>216.43</ele>
        <time>2021-08-20T15:13:06Z</time>
      </trkpt>
      <trkpt lat="43.21524" lon="-1.12742">
        <ele>216.43</ele>
        <time>2021-08-20T15:13:07Z</time>
      </trkpt>
      <trkpt lat="43.21524" lon="-1.12745">
        <ele>216.43</ele>
        <time>2021-08-20T15:13:08Z</time>
      </trkpt>
      <trkpt lat="43.21524" lon="-1.12748">
        <ele>216.43</ele>
        <time>2021-08-20T15:13:09Z</time>
      </trkpt>
      <trkpt lat="43.21524" lon="-1.12751">
        <ele>216.43</ele>
        <time>2021-08-20T15:13:10Z</time>
      </trkpt>
      <trkpt lat="43.21524" lon="-1.12754">
        <ele>215.95</ele>
        <time>2021-08-20T15:13:11Z</time>
      </trkpt>
      <trkpt lat="43.21525" lon="-1.12756">
        <ele>215.95</ele>
        <time>2021-08-20T15:13:12Z</time>
      </trkpt>
      <trkpt lat="43.21524" lon="-1.12758">
        <ele>215.95</ele>
        <time>2021-08-20T15:13:13Z</time>
      </trkpt>
      <trkpt lat="43.21523" lon="-1.12761">
        <ele>215.95</ele>
        <time>2021-08-20T15:13:14Z</time>
      </trkpt>
      <trkpt lat="43.21523" lon="-1.12764">
        <ele>215.47</ele>
        <time>2021-08-20T15:13:15Z</time>
      </trkpt>
      <trkpt lat="43.21524" lon="-1.12767">
        <ele>215.47</ele>
        <time>2021-08-20T15:13:16Z</time>
      </trkpt>
      <trkpt lat="43.21527" lon="-1.12784">
        <ele>214.99</ele>
        <time>2021-08-20T15:13:21Z</time>
      </trkpt>
      <trkpt lat="43.21527" lon="-1.12787">
        <ele>214.99</ele>
        <time>2021-08-20T15:13:22Z</time>
      </trkpt>
      <trkpt lat="43.21527" lon="-1.1279">
        <ele>214.51</ele>
        <time>2021-08-20T15:13:23Z</time>
      </trkpt>
      <trkpt lat="43.21527" lon="-1.12801">
        <ele>213.55</ele>
        <time>2021-08-20T15:13:26Z</time>
      </trkpt>
      <trkpt lat="43.21526" lon="-1.12805">
        <ele>213.55</ele>
        <time>2021-08-20T15:13:27Z</time>
      </trkpt>
      <trkpt lat="43.21526" lon="-1.1281">
        <ele>212.59</ele>
        <time>2021-08-20T15:13:28Z</time>
      </trkpt>
      <trkpt lat="43.21525" lon="-1.12814">
        <ele>212.59</ele>
        <time>2021-08-20T15:13:29Z</time>
      </trkpt>
      <trkpt lat="43.21526" lon="-1.12818">
        <ele>211.63</ele>
        <time>2021-08-20T15:13:30Z</time>
      </trkpt>
      <trkpt lat="43.21526" lon="-1.12823">
        <ele>211.63</ele>
        <time>2021-08-20T15:13:31Z</time>
      </trkpt>
      <trkpt lat="43.21527" lon="-1.12826">
        <ele>211.63</ele>
        <time>2021-08-20T15:13:32Z</time>
      </trkpt>
      <trkpt lat="43.21528" lon="-1.12829">
        <ele>211.15</ele>
        <time>2021-08-20T15:13:33Z</time>
      </trkpt>
      <trkpt lat="43.21528" lon="-1.12831">
        <ele>211.15</ele>
        <time>2021-08-20T15:13:34Z</time>
      </trkpt>
      <trkpt lat="43.21528" lon="-1.12834">
        <ele>210.67</ele>
        <time>2021-08-20T15:13:39Z</time>
      </trkpt>
      <trkpt lat="43.21527" lon="-1.12839">
        <ele>210.67</ele>
        <time>2021-08-20T15:13:49Z</time>
      </trkpt>
      <trkpt lat="43.21526" lon="-1.12839">
        <ele>210.67</ele>
        <time>2021-08-20T15:13:56Z</time>
      </trkpt>
      <trkpt lat="43.21521" lon="-1.12842">
        <ele>210.67</ele>
        <time>2021-08-20T15:14:01Z</time>
      </trkpt>
      <trkpt lat="43.21517" lon="-1.1284">
        <ele>210.67</ele>
        <time>2021-08-20T15:14:07Z</time>
      </trkpt>
      <trkpt lat="43.21506" lon="-1.12834">
        <ele>213.55</ele>
        <time>2021-08-20T15:14:15Z</time>
      </trkpt>
      <trkpt lat="43.21493" lon="-1.12832">
        <ele>214.99</ele>
        <time>2021-08-20T15:14:24Z</time>
      </trkpt>
      <trkpt lat="43.21489" lon="-1.12831">
        <ele>215.47</ele>
        <time>2021-08-20T15:14:32Z</time>
      </trkpt>
      <trkpt lat="43.21483" lon="-1.12837">
        <ele>216.91</ele>
        <time>2021-08-20T15:14:42Z</time>
      </trkpt>
      <trkpt lat="43.21478" lon="-1.12845">
        <ele>218.84</ele>
        <time>2021-08-20T15:14:54Z</time>
      </trkpt>
      <trkpt lat="43.21473" lon="-1.12848">
        <ele>219.32</ele>
        <time>2021-08-20T15:15:00Z</time>
      </trkpt>
      <trkpt lat="43.21472" lon="-1.12849">
        <ele>219.32</ele>
        <time>2021-08-20T15:15:02Z</time>
      </trkpt>
      <trkpt lat="43.21466" lon="-1.12854">
        <ele>220.28</ele>
        <time>2021-08-20T15:15:10Z</time>
      </trkpt>
      <trkpt lat="43.21458" lon="-1.12863">
        <ele>222.2</ele>
        <time>2021-08-20T15:15:22Z</time>
      </trkpt>
      <trkpt lat="43.21454" lon="-1.1287">
        <ele>223.16</ele>
        <time>2021-08-20T15:15:31Z</time>
      </trkpt>
      <trkpt lat="43.2145" lon="-1.12876">
        <ele>224.61</ele>
        <time>2021-08-20T15:15:39Z</time>
      </trkpt>
      <trkpt lat="43.21447" lon="-1.12882">
        <ele>225.09</ele>
        <time>2021-08-20T15:15:47Z</time>
      </trkpt>
      <trkpt lat="43.21445" lon="-1.12887">
        <ele>225.09</ele>
        <time>2021-08-20T15:15:52Z</time>
      </trkpt>
      <trkpt lat="43.21443" lon="-1.12889">
        <ele>225.57</ele>
        <time>2021-08-20T15:15:54Z</time>
      </trkpt>
      <trkpt lat="43.21439" lon="-1.12896">
        <ele>225.57</ele>
        <time>2021-08-20T15:15:59Z</time>
      </trkpt>
      <trkpt lat="43.21438" lon="-1.12897">
        <ele>226.05</ele>
        <time>2021-08-20T15:16:00Z</time>
      </trkpt>
      <trkpt lat="43.21437" lon="-1.12898">
        <ele>226.05</ele>
        <time>2021-08-20T15:16:01Z</time>
      </trkpt>
      <trkpt lat="43.2143" lon="-1.12911">
        <ele>227.49</ele>
        <time>2021-08-20T15:16:09Z</time>
      </trkpt>
      <trkpt lat="43.2142" lon="-1.12932">
        <ele>227.97</ele>
        <time>2021-08-20T15:16:20Z</time>
      </trkpt>
      <trkpt lat="43.21411" lon="-1.1295">
        <ele>228.93</ele>
        <time>2021-08-20T15:16:30Z</time>
      </trkpt>
      <trkpt lat="43.21405" lon="-1.12961">
        <ele>229.41</ele>
        <time>2021-08-20T15:16:36Z</time>
      </trkpt>
      <trkpt lat="43.21404" lon="-1.12963">
        <ele>229.41</ele>
        <time>2021-08-20T15:16:37Z</time>
      </trkpt>
      <trkpt lat="43.21396" lon="-1.1298">
        <ele>229.89</ele>
        <time>2021-08-20T15:16:46Z</time>
      </trkpt>
      <trkpt lat="43.21389" lon="-1.12996">
        <ele>230.85</ele>
        <time>2021-08-20T15:16:54Z</time>
      </trkpt>
      <trkpt lat="43.21384" lon="-1.13018">
        <ele>231.33</ele>
        <time>2021-08-20T15:17:04Z</time>
      </trkpt>
      <trkpt lat="43.2138" lon="-1.13038">
        <ele>232.3</ele>
        <time>2021-08-20T15:17:13Z</time>
      </trkpt>
      <trkpt lat="43.21378" lon="-1.13058">
        <ele>233.26</ele>
        <time>2021-08-20T15:17:22Z</time>
      </trkpt>
      <trkpt lat="43.21377" lon="-1.13071">
        <ele>233.74</ele>
        <time>2021-08-20T15:17:28Z</time>
      </trkpt>
      <trkpt lat="43.21377" lon="-1.13073">
        <ele>234.22</ele>
        <time>2021-08-20T15:17:29Z</time>
      </trkpt>
      <trkpt lat="43.21377" lon="-1.13075">
        <ele>234.22</ele>
        <time>2021-08-20T15:17:30Z</time>
      </trkpt>
      <trkpt lat="43.21377" lon="-1.13077">
        <ele>234.22</ele>
        <time>2021-08-20T15:17:31Z</time>
      </trkpt>
      <trkpt lat="43.21377" lon="-1.13079">
        <ele>234.22</ele>
        <time>2021-08-20T15:17:32Z</time>
      </trkpt>
      <trkpt lat="43.21377" lon="-1.13081">
        <ele>234.7</ele>
        <time>2021-08-20T15:17:33Z</time>
      </trkpt>
      <trkpt lat="43.21376" lon="-1.13098">
        <ele>235.66</ele>
        <time>2021-08-20T15:17:41Z</time>
      </trkpt>
      <trkpt lat="43.21373" lon="-1.13119">
        <ele>235.66</ele>
        <time>2021-08-20T15:17:48Z</time>
      </trkpt>
      <trkpt lat="43.21373" lon="-1.13141">
        <ele>236.14</ele>
        <time>2021-08-20T15:17:56Z</time>
      </trkpt>
      <trkpt lat="43.2137" lon="-1.1317">
        <ele>236.14</ele>
        <time>2021-08-20T15:18:05Z</time>
      </trkpt>
      <trkpt lat="43.21369" lon="-1.13202">
        <ele>235.18</ele>
        <time>2021-08-20T15:18:12Z</time>
      </trkpt>
      <trkpt lat="43.21365" lon="-1.13249">
        <ele>233.26</ele>
        <time>2021-08-20T15:18:21Z</time>
      </trkpt>
      <trkpt lat="43.21362" lon="-1.13269">
        <ele>233.26</ele>
        <time>2021-08-20T15:18:27Z</time>
      </trkpt>
      <trkpt lat="43.21362" lon="-1.13273">
        <ele>233.26</ele>
        <time>2021-08-20T15:18:29Z</time>
      </trkpt>
      <trkpt lat="43.21361" lon="-1.13274">
        <ele>233.26</ele>
        <time>2021-08-20T15:18:35Z</time>
      </trkpt>
      <trkpt lat="43.21356" lon="-1.13275">
        <ele>233.26</ele>
        <time>2021-08-20T15:18:50Z</time>
      </trkpt>
      <trkpt lat="43.21356" lon="-1.1328">
        <ele>234.7</ele>
        <time>2021-08-20T15:19:01Z</time>
      </trkpt>
      <trkpt lat="43.21355" lon="-1.13301">
        <ele>235.18</ele>
        <time>2021-08-20T15:19:08Z</time>
      </trkpt>
      <trkpt lat="43.2135" lon="-1.13327">
        <ele>236.14</ele>
        <time>2021-08-20T15:19:16Z</time>
      </trkpt>
      <trkpt lat="43.21345" lon="-1.13354">
        <ele>237.58</ele>
        <time>2021-08-20T15:19:24Z</time>
      </trkpt>
      <trkpt lat="43.21339" lon="-1.1338">
        <ele>239.02</ele>
        <time>2021-08-20T15:19:33Z</time>
      </trkpt>
      <trkpt lat="43.21339" lon="-1.13383">
        <ele>239.51</ele>
        <time>2021-08-20T15:19:34Z</time>
      </trkpt>
      <trkpt lat="43.21338" lon="-1.13386">
        <ele>239.51</ele>
        <time>2021-08-20T15:19:35Z</time>
      </trkpt>
      <trkpt lat="43.21331" lon="-1.13408">
        <ele>240.95</ele>
        <time>2021-08-20T15:19:43Z</time>
      </trkpt>
      <trkpt lat="43.21319" lon="-1.1343">
        <ele>242.87</ele>
        <time>2021-08-20T15:19:53Z</time>
      </trkpt>
      <trkpt lat="43.21309" lon="-1.13446">
        <ele>243.35</ele>
        <time>2021-08-20T15:20:00Z</time>
      </trkpt>
      <trkpt lat="43.213" lon="-1.13461">
        <ele>245.27</ele>
        <time>2021-08-20T15:20:08Z</time>
      </trkpt>
      <trkpt lat="43.21292" lon="-1.13472">
        <ele>245.75</ele>
        <time>2021-08-20T15:20:15Z</time>
      </trkpt>
      <trkpt lat="43.21291" lon="-1.13473">
        <ele>245.75</ele>
        <time>2021-08-20T15:20:16Z</time>
      </trkpt>
      <trkpt lat="43.21289" lon="-1.13475">
        <ele>245.75</ele>
        <time>2021-08-20T15:20:17Z</time>
      </trkpt>
      <trkpt lat="43.21287" lon="-1.13478">
        <ele>246.23</ele>
        <time>2021-08-20T15:20:18Z</time>
      </trkpt>
      <trkpt lat="43.21286" lon="-1.1348">
        <ele>246.23</ele>
        <time>2021-08-20T15:20:19Z</time>
      </trkpt>
      <trkpt lat="43.21284" lon="-1.13482">
        <ele>246.23</ele>
        <time>2021-08-20T15:20:20Z</time>
      </trkpt>
      <trkpt lat="43.21268" lon="-1.1351">
        <ele>248.64</ele>
        <time>2021-08-20T15:20:33Z</time>
      </trkpt>
      <trkpt lat="43.21259" lon="-1.13528">
        <ele>249.12</ele>
        <time>2021-08-20T15:20:42Z</time>
      </trkpt>
      <trkpt lat="43.21251" lon="-1.13542">
        <ele>250.56</ele>
        <time>2021-08-20T15:20:49Z</time>
      </trkpt>
      <trkpt lat="43.21238" lon="-1.1356">
        <ele>252</ele>
        <time>2021-08-20T15:20:59Z</time>
      </trkpt>
      <trkpt lat="43.21226" lon="-1.13575">
        <ele>252.96</ele>
        <time>2021-08-20T15:21:08Z</time>
      </trkpt>
      <trkpt lat="43.21212" lon="-1.13591">
        <ele>254.41</ele>
        <time>2021-08-20T15:21:18Z</time>
      </trkpt>
      <trkpt lat="43.21198" lon="-1.13605">
        <ele>255.85</ele>
        <time>2021-08-20T15:21:28Z</time>
      </trkpt>
      <trkpt lat="43.21182" lon="-1.13619">
        <ele>257.77</ele>
        <time>2021-08-20T15:21:39Z</time>
      </trkpt>
      <trkpt lat="43.21168" lon="-1.13629">
        <ele>258.73</ele>
        <time>2021-08-20T15:21:47Z</time>
      </trkpt>
      <trkpt lat="43.21151" lon="-1.13643">
        <ele>260.17</ele>
        <time>2021-08-20T15:21:57Z</time>
      </trkpt>
      <trkpt lat="43.21144" lon="-1.13649">
        <ele>260.65</ele>
        <time>2021-08-20T15:22:01Z</time>
      </trkpt>
      <trkpt lat="43.21142" lon="-1.13651">
        <ele>260.65</ele>
        <time>2021-08-20T15:22:02Z</time>
      </trkpt>
      <trkpt lat="43.21127" lon="-1.13664">
        <ele>262.1</ele>
        <time>2021-08-20T15:22:11Z</time>
      </trkpt>
      <trkpt lat="43.21117" lon="-1.13676">
        <ele>263.54</ele>
        <time>2021-08-20T15:22:18Z</time>
      </trkpt>
      <trkpt lat="43.21104" lon="-1.13692">
        <ele>264.5</ele>
        <time>2021-08-20T15:22:27Z</time>
      </trkpt>
      <trkpt lat="43.21091" lon="-1.13706">
        <ele>265.46</ele>
        <time>2021-08-20T15:22:35Z</time>
      </trkpt>
      <trkpt lat="43.21081" lon="-1.13711">
        <ele>266.42</ele>
        <time>2021-08-20T15:22:39Z</time>
      </trkpt>
      <trkpt lat="43.21079" lon="-1.13713">
        <ele>266.42</ele>
        <time>2021-08-20T15:22:40Z</time>
      </trkpt>
      <trkpt lat="43.2106" lon="-1.13735">
        <ele>265.94</ele>
        <time>2021-08-20T15:22:49Z</time>
      </trkpt>
      <trkpt lat="43.21043" lon="-1.1376">
        <ele>264.98</ele>
        <time>2021-08-20T15:22:56Z</time>
      </trkpt>
      <trkpt lat="43.2104" lon="-1.13762">
        <ele>264.98</ele>
        <time>2021-08-20T15:22:57Z</time>
      </trkpt>
      <trkpt lat="43.2102" lon="-1.13767">
        <ele>264.02</ele>
        <time>2021-08-20T15:23:02Z</time>
      </trkpt>
      <trkpt lat="43.2101" lon="-1.13769">
        <ele>264.02</ele>
        <time>2021-08-20T15:23:04Z</time>
      </trkpt>
      <trkpt lat="43.20975" lon="-1.1378">
        <ele>263.06</ele>
        <time>2021-08-20T15:23:11Z</time>
      </trkpt>
      <trkpt lat="43.20933" lon="-1.13798">
        <ele>264.02</ele>
        <time>2021-08-20T15:23:21Z</time>
      </trkpt>
      <trkpt lat="43.20894" lon="-1.13812">
        <ele>264.98</ele>
        <time>2021-08-20T15:23:31Z</time>
      </trkpt>
      <trkpt lat="43.20863" lon="-1.13823">
        <ele>265.46</ele>
        <time>2021-08-20T15:23:39Z</time>
      </trkpt>
      <trkpt lat="43.20843" lon="-1.13833">
        <ele>265.46</ele>
        <time>2021-08-20T15:23:44Z</time>
      </trkpt>
      <trkpt lat="43.20839" lon="-1.13836">
        <ele>265.46</ele>
        <time>2021-08-20T15:23:45Z</time>
      </trkpt>
      <trkpt lat="43.20803" lon="-1.13866">
        <ele>265.46</ele>
        <time>2021-08-20T15:23:54Z</time>
      </trkpt>
      <trkpt lat="43.2076" lon="-1.13899">
        <ele>265.94</ele>
        <time>2021-08-20T15:24:04Z</time>
      </trkpt>
      <trkpt lat="43.20733" lon="-1.13917">
        <ele>267.86</ele>
        <time>2021-08-20T15:24:12Z</time>
      </trkpt>
      <trkpt lat="43.20713" lon="-1.13929">
        <ele>269.79</ele>
        <time>2021-08-20T15:24:20Z</time>
      </trkpt>
      <trkpt lat="43.20696" lon="-1.13935">
        <ele>271.71</ele>
        <time>2021-08-20T15:24:27Z</time>
      </trkpt>
      <trkpt lat="43.2067" lon="-1.13941">
        <ele>272.19</ele>
        <time>2021-08-20T15:24:36Z</time>
      </trkpt>
      <trkpt lat="43.20644" lon="-1.13946">
        <ele>270.75</ele>
        <time>2021-08-20T15:24:43Z</time>
      </trkpt>
      <trkpt lat="43.20615" lon="-1.13946">
        <ele>268.35</ele>
        <time>2021-08-20T15:24:48Z</time>
      </trkpt>
      <trkpt lat="43.20602" lon="-1.13947">
        <ele>268.35</ele>
        <time>2021-08-20T15:24:50Z</time>
      </trkpt>
      <trkpt lat="43.20551" lon="-1.1396">
        <ele>267.38</ele>
        <time>2021-08-20T15:24:58Z</time>
      </trkpt>
      <trkpt lat="43.20541" lon="-1.13964">
        <ele>268.35</ele>
        <time>2021-08-20T15:25:00Z</time>
      </trkpt>
      <trkpt lat="43.20521" lon="-1.13972">
        <ele>268.83</ele>
        <time>2021-08-20T15:25:04Z</time>
      </trkpt>
      <trkpt lat="43.20492" lon="-1.13982">
        <ele>267.38</ele>
        <time>2021-08-20T15:25:09Z</time>
      </trkpt>
      <trkpt lat="43.20442" lon="-1.14">
        <ele>264.02</ele>
        <time>2021-08-20T15:25:16Z</time>
      </trkpt>
      <trkpt lat="43.20433" lon="-1.14006">
        <ele>263.54</ele>
        <time>2021-08-20T15:25:17Z</time>
      </trkpt>
      <trkpt lat="43.20426" lon="-1.14013">
        <ele>262.58</ele>
        <time>2021-08-20T15:25:18Z</time>
      </trkpt>
      <trkpt lat="43.20419" lon="-1.14022">
        <ele>261.62</ele>
        <time>2021-08-20T15:25:19Z</time>
      </trkpt>
      <trkpt lat="43.20412" lon="-1.14031">
        <ele>260.65</ele>
        <time>2021-08-20T15:25:20Z</time>
      </trkpt>
      <trkpt lat="43.20406" lon="-1.14042">
        <ele>259.21</ele>
        <time>2021-08-20T15:25:21Z</time>
      </trkpt>
      <trkpt lat="43.20384" lon="-1.14078">
        <ele>255.37</ele>
        <time>2021-08-20T15:25:24Z</time>
      </trkpt>
      <trkpt lat="43.20377" lon="-1.14089">
        <ele>254.41</ele>
        <time>2021-08-20T15:25:25Z</time>
      </trkpt>
      <trkpt lat="43.20369" lon="-1.14097">
        <ele>253.44</ele>
        <time>2021-08-20T15:25:26Z</time>
      </trkpt>
      <trkpt lat="43.20361" lon="-1.14104">
        <ele>252.96</ele>
        <time>2021-08-20T15:25:27Z</time>
      </trkpt>
      <trkpt lat="43.20352" lon="-1.1411">
        <ele>252</ele>
        <time>2021-08-20T15:25:28Z</time>
      </trkpt>
      <trkpt lat="43.20344" lon="-1.14114">
        <ele>252</ele>
        <time>2021-08-20T15:25:29Z</time>
      </trkpt>
      <trkpt lat="43.20337" lon="-1.14119">
        <ele>251.52</ele>
        <time>2021-08-20T15:25:30Z</time>
      </trkpt>
      <trkpt lat="43.20331" lon="-1.14124">
        <ele>251.04</ele>
        <time>2021-08-20T15:25:31Z</time>
      </trkpt>
      <trkpt lat="43.20327" lon="-1.1413">
        <ele>250.56</ele>
        <time>2021-08-20T15:25:32Z</time>
      </trkpt>
      <trkpt lat="43.20324" lon="-1.14137">
        <ele>250.56</ele>
        <time>2021-08-20T15:25:33Z</time>
      </trkpt>
      <trkpt lat="43.20321" lon="-1.14142">
        <ele>249.6</ele>
        <time>2021-08-20T15:25:34Z</time>
      </trkpt>
      <trkpt lat="43.2032" lon="-1.14148">
        <ele>249.12</ele>
        <time>2021-08-20T15:25:35Z</time>
      </trkpt>
      <trkpt lat="43.20319" lon="-1.14151">
        <ele>249.12</ele>
        <time>2021-08-20T15:25:36Z</time>
      </trkpt>
      <trkpt lat="43.20316" lon="-1.14158">
        <ele>248.16</ele>
        <time>2021-08-20T15:25:39Z</time>
      </trkpt>
      <trkpt lat="43.20314" lon="-1.14157">
        <ele>248.16</ele>
        <time>2021-08-20T15:25:40Z</time>
      </trkpt>
      <trkpt lat="43.20312" lon="-1.14154">
        <ele>247.68</ele>
        <time>2021-08-20T15:25:41Z</time>
      </trkpt>
      <trkpt lat="43.20312" lon="-1.14152">
        <ele>247.68</ele>
        <time>2021-08-20T15:25:42Z</time>
      </trkpt>
      <trkpt lat="43.20312" lon="-1.14148">
        <ele>247.68</ele>
        <time>2021-08-20T15:25:43Z</time>
      </trkpt>
      <trkpt lat="43.20312" lon="-1.14146">
        <ele>247.68</ele>
        <time>2021-08-20T15:25:44Z</time>
      </trkpt>
      <trkpt lat="43.20314" lon="-1.14129">
        <ele>247.68</ele>
        <time>2021-08-20T15:25:48Z</time>
      </trkpt>
      <trkpt lat="43.20315" lon="-1.14123">
        <ele>246.72</ele>
        <time>2021-08-20T15:25:49Z</time>
      </trkpt>
      <trkpt lat="43.20315" lon="-1.14115">
        <ele>246.23</ele>
        <time>2021-08-20T15:25:50Z</time>
      </trkpt>
      <trkpt lat="43.20315" lon="-1.14107">
        <ele>245.27</ele>
        <time>2021-08-20T15:25:51Z</time>
      </trkpt>
      <trkpt lat="43.20314" lon="-1.141">
        <ele>244.31</ele>
        <time>2021-08-20T15:25:52Z</time>
      </trkpt>
      <trkpt lat="43.20312" lon="-1.14093">
        <ele>243.83</ele>
        <time>2021-08-20T15:25:53Z</time>
      </trkpt>
      <trkpt lat="43.20309" lon="-1.14088">
        <ele>243.35</ele>
        <time>2021-08-20T15:25:54Z</time>
      </trkpt>
      <trkpt lat="43.20304" lon="-1.14086">
        <ele>241.91</ele>
        <time>2021-08-20T15:25:55Z</time>
      </trkpt>
      <trkpt lat="43.20298" lon="-1.14087">
        <ele>240.47</ele>
        <time>2021-08-20T15:25:56Z</time>
      </trkpt>
      <trkpt lat="43.20293" lon="-1.14091">
        <ele>239.51</ele>
        <time>2021-08-20T15:25:57Z</time>
      </trkpt>
      <trkpt lat="43.20289" lon="-1.14096">
        <ele>238.54</ele>
        <time>2021-08-20T15:25:58Z</time>
      </trkpt>
      <trkpt lat="43.20284" lon="-1.14105">
        <ele>237.58</ele>
        <time>2021-08-20T15:25:59Z</time>
      </trkpt>
      <trkpt lat="43.2028" lon="-1.14114">
        <ele>236.14</ele>
        <time>2021-08-20T15:26:00Z</time>
      </trkpt>
      <trkpt lat="43.20276" lon="-1.14124">
        <ele>235.66</ele>
        <time>2021-08-20T15:26:01Z</time>
      </trkpt>
      <trkpt lat="43.20267" lon="-1.14144">
        <ele>234.7</ele>
        <time>2021-08-20T15:26:03Z</time>
      </trkpt>
      <trkpt lat="43.20261" lon="-1.14153">
        <ele>234.7</ele>
        <time>2021-08-20T15:26:04Z</time>
      </trkpt>
      <trkpt lat="43.20256" lon="-1.1416">
        <ele>234.7</ele>
        <time>2021-08-20T15:26:05Z</time>
      </trkpt>
      <trkpt lat="43.2024" lon="-1.14176">
        <ele>234.22</ele>
        <time>2021-08-20T15:26:08Z</time>
      </trkpt>
      <trkpt lat="43.20197" lon="-1.14213">
        <ele>232.3</ele>
        <time>2021-08-20T15:26:15Z</time>
      </trkpt>
      <trkpt lat="43.20184" lon="-1.14222">
        <ele>231.81</ele>
        <time>2021-08-20T15:26:17Z</time>
      </trkpt>
      <trkpt lat="43.20172" lon="-1.14229">
        <ele>230.37</ele>
        <time>2021-08-20T15:26:19Z</time>
      </trkpt>
      <trkpt lat="43.20168" lon="-1.14233">
        <ele>230.37</ele>
        <time>2021-08-20T15:26:20Z</time>
      </trkpt>
      <trkpt lat="43.20165" lon="-1.14239">
        <ele>229.89</ele>
        <time>2021-08-20T15:26:21Z</time>
      </trkpt>
      <trkpt lat="43.20164" lon="-1.14244">
        <ele>230.37</ele>
        <time>2021-08-20T15:26:22Z</time>
      </trkpt>
      <trkpt lat="43.20164" lon="-1.14249">
        <ele>230.37</ele>
        <time>2021-08-20T15:26:23Z</time>
      </trkpt>
      <trkpt lat="43.20165" lon="-1.14254">
        <ele>230.37</ele>
        <time>2021-08-20T15:26:24Z</time>
      </trkpt>
      <trkpt lat="43.20166" lon="-1.14259">
        <ele>230.37</ele>
        <time>2021-08-20T15:26:25Z</time>
      </trkpt>
      <trkpt lat="43.20177" lon="-1.14284">
        <ele>233.26</ele>
        <time>2021-08-20T15:26:33Z</time>
      </trkpt>
      <trkpt lat="43.20192" lon="-1.14306">
        <ele>235.18</ele>
        <time>2021-08-20T15:26:44Z</time>
      </trkpt>
      <trkpt lat="43.20196" lon="-1.1432">
        <ele>236.14</ele>
        <time>2021-08-20T15:26:50Z</time>
      </trkpt>
      <trkpt lat="43.20195" lon="-1.14323">
        <ele>236.14</ele>
        <time>2021-08-20T15:26:51Z</time>
      </trkpt>
      <trkpt lat="43.20187" lon="-1.1434">
        <ele>236.62</ele>
        <time>2021-08-20T15:26:58Z</time>
      </trkpt>
      <trkpt lat="43.20164" lon="-1.14368">
        <ele>237.58</ele>
        <time>2021-08-20T15:27:08Z</time>
      </trkpt>
      <trkpt lat="43.20149" lon="-1.1438">
        <ele>238.06</ele>
        <time>2021-08-20T15:27:15Z</time>
      </trkpt>
      <trkpt lat="43.20122" lon="-1.14389">
        <ele>239.02</ele>
        <time>2021-08-20T15:27:26Z</time>
      </trkpt>
      <trkpt lat="43.20103" lon="-1.14396">
        <ele>239.99</ele>
        <time>2021-08-20T15:27:33Z</time>
      </trkpt>
      <trkpt lat="43.20077" lon="-1.14415">
        <ele>240.95</ele>
        <time>2021-08-20T15:27:43Z</time>
      </trkpt>
      <trkpt lat="43.2006" lon="-1.14435">
        <ele>240.95</ele>
        <time>2021-08-20T15:27:48Z</time>
      </trkpt>
      <trkpt lat="43.20053" lon="-1.14446">
        <ele>239.02</ele>
        <time>2021-08-20T15:27:50Z</time>
      </trkpt>
      <trkpt lat="43.20019" lon="-1.14489">
        <ele>237.1</ele>
        <time>2021-08-20T15:27:57Z</time>
      </trkpt>
      <trkpt lat="43.20011" lon="-1.14502">
        <ele>237.1</ele>
        <time>2021-08-20T15:27:59Z</time>
      </trkpt>
      <trkpt lat="43.20008" lon="-1.14508">
        <ele>237.1</ele>
        <time>2021-08-20T15:28:00Z</time>
      </trkpt>
      <trkpt lat="43.19998" lon="-1.14534">
        <ele>239.51</ele>
        <time>2021-08-20T15:28:05Z</time>
      </trkpt>
      <trkpt lat="43.19993" lon="-1.14566">
        <ele>240.47</ele>
        <time>2021-08-20T15:28:12Z</time>
      </trkpt>
      <trkpt lat="43.19986" lon="-1.14604">
        <ele>241.91</ele>
        <time>2021-08-20T15:28:20Z</time>
      </trkpt>
      <trkpt lat="43.19977" lon="-1.14638">
        <ele>242.87</ele>
        <time>2021-08-20T15:28:28Z</time>
      </trkpt>
      <trkpt lat="43.19961" lon="-1.14669">
        <ele>243.35</ele>
        <time>2021-08-20T15:28:35Z</time>
      </trkpt>
      <trkpt lat="43.19952" lon="-1.14688">
        <ele>243.83</ele>
        <time>2021-08-20T15:28:39Z</time>
      </trkpt>
      <trkpt lat="43.19924" lon="-1.14736">
        <ele>244.31</ele>
        <time>2021-08-20T15:28:50Z</time>
      </trkpt>
      <trkpt lat="43.19916" lon="-1.1475">
        <ele>244.31</ele>
        <time>2021-08-20T15:28:53Z</time>
      </trkpt>
      <trkpt lat="43.19914" lon="-1.14756">
        <ele>244.31</ele>
        <time>2021-08-20T15:28:54Z</time>
      </trkpt>
      <trkpt lat="43.19904" lon="-1.14782">
        <ele>242.87</ele>
        <time>2021-08-20T15:28:58Z</time>
      </trkpt>
      <trkpt lat="43.19888" lon="-1.14844">
        <ele>241.43</ele>
        <time>2021-08-20T15:29:05Z</time>
      </trkpt>
      <trkpt lat="43.19881" lon="-1.14894">
        <ele>239.99</ele>
        <time>2021-08-20T15:29:10Z</time>
      </trkpt>
      <trkpt lat="43.19879" lon="-1.14904">
        <ele>239.99</ele>
        <time>2021-08-20T15:29:11Z</time>
      </trkpt>
      <trkpt lat="43.1985" lon="-1.14983">
        <ele>239.51</ele>
        <time>2021-08-20T15:29:20Z</time>
      </trkpt>
      <trkpt lat="43.19847" lon="-1.14993">
        <ele>238.54</ele>
        <time>2021-08-20T15:29:21Z</time>
      </trkpt>
      <trkpt lat="43.19846" lon="-1.15002">
        <ele>238.54</ele>
        <time>2021-08-20T15:29:22Z</time>
      </trkpt>
      <trkpt lat="43.19845" lon="-1.15011">
        <ele>238.54</ele>
        <time>2021-08-20T15:29:23Z</time>
      </trkpt>
      <trkpt lat="43.19845" lon="-1.15022">
        <ele>238.54</ele>
        <time>2021-08-20T15:29:24Z</time>
      </trkpt>
      <trkpt lat="43.19845" lon="-1.15031">
        <ele>237.58</ele>
        <time>2021-08-20T15:29:25Z</time>
      </trkpt>
      <trkpt lat="43.19845" lon="-1.15041">
        <ele>237.58</ele>
        <time>2021-08-20T15:29:26Z</time>
      </trkpt>
      <trkpt lat="43.19846" lon="-1.1506">
        <ele>237.1</ele>
        <time>2021-08-20T15:29:28Z</time>
      </trkpt>
      <trkpt lat="43.19848" lon="-1.15069">
        <ele>237.1</ele>
        <time>2021-08-20T15:29:29Z</time>
      </trkpt>
      <trkpt lat="43.19856" lon="-1.15096">
        <ele>237.1</ele>
        <time>2021-08-20T15:29:32Z</time>
      </trkpt>
      <trkpt lat="43.19867" lon="-1.15126">
        <ele>237.1</ele>
        <time>2021-08-20T15:29:37Z</time>
      </trkpt>
      <trkpt lat="43.19869" lon="-1.15129">
        <ele>237.1</ele>
        <time>2021-08-20T15:29:41Z</time>
      </trkpt>
      <trkpt lat="43.19869" lon="-1.15129">
        <ele>237.1</ele>
        <time>2021-08-20T15:29:53Z</time>
      </trkpt>
      <trkpt lat="43.1987" lon="-1.15129">
        <ele>237.1</ele>
        <time>2021-08-20T15:29:58Z</time>
      </trkpt>
      <trkpt lat="43.1987" lon="-1.15131">
        <ele>237.1</ele>
        <time>2021-08-20T15:29:59Z</time>
      </trkpt>
      <trkpt lat="43.19871" lon="-1.15134">
        <ele>237.1</ele>
        <time>2021-08-20T15:30:00Z</time>
      </trkpt>
      <trkpt lat="43.19872" lon="-1.15138">
        <ele>237.1</ele>
        <time>2021-08-20T15:30:01Z</time>
      </trkpt>
      <trkpt lat="43.19872" lon="-1.15143">
        <ele>237.1</ele>
        <time>2021-08-20T15:30:02Z</time>
      </trkpt>
      <trkpt lat="43.1987" lon="-1.15148">
        <ele>237.58</ele>
        <time>2021-08-20T15:30:03Z</time>
      </trkpt>
      <trkpt lat="43.19869" lon="-1.15151">
        <ele>237.1</ele>
        <time>2021-08-20T15:30:04Z</time>
      </trkpt>
      <trkpt lat="43.19866" lon="-1.15155">
        <ele>237.1</ele>
        <time>2021-08-20T15:30:05Z</time>
      </trkpt>
      <trkpt lat="43.19855" lon="-1.15173">
        <ele>237.58</ele>
        <time>2021-08-20T15:30:09Z</time>
      </trkpt>
      <trkpt lat="43.19832" lon="-1.15219">
        <ele>237.1</ele>
        <time>2021-08-20T15:30:17Z</time>
      </trkpt>
      <trkpt lat="43.19819" lon="-1.15261">
        <ele>236.62</ele>
        <time>2021-08-20T15:30:25Z</time>
      </trkpt>
      <trkpt lat="43.19807" lon="-1.15289">
        <ele>236.14</ele>
        <time>2021-08-20T15:30:32Z</time>
      </trkpt>
      <trkpt lat="43.19805" lon="-1.15295">
        <ele>236.14</ele>
        <time>2021-08-20T15:30:33Z</time>
      </trkpt>
      <trkpt lat="43.19804" lon="-1.15301">
        <ele>236.14</ele>
        <time>2021-08-20T15:30:34Z</time>
      </trkpt>
      <trkpt lat="43.19793" lon="-1.15361">
        <ele>235.18</ele>
        <time>2021-08-20T15:30:42Z</time>
      </trkpt>
      <trkpt lat="43.19789" lon="-1.15374">
        <ele>235.18</ele>
        <time>2021-08-20T15:30:44Z</time>
      </trkpt>
      <trkpt lat="43.19785" lon="-1.15378">
        <ele>234.7</ele>
        <time>2021-08-20T15:30:45Z</time>
      </trkpt>
      <trkpt lat="43.19781" lon="-1.15379">
        <ele>234.7</ele>
        <time>2021-08-20T15:30:46Z</time>
      </trkpt>
      <trkpt lat="43.19777" lon="-1.15378">
        <ele>234.22</ele>
        <time>2021-08-20T15:30:47Z</time>
      </trkpt>
      <trkpt lat="43.19772" lon="-1.15377">
        <ele>234.22</ele>
        <time>2021-08-20T15:30:48Z</time>
      </trkpt>
      <trkpt lat="43.19767" lon="-1.15375">
        <ele>233.74</ele>
        <time>2021-08-20T15:30:49Z</time>
      </trkpt>
      <trkpt lat="43.19762" lon="-1.15372">
        <ele>233.26</ele>
        <time>2021-08-20T15:30:50Z</time>
      </trkpt>
      <trkpt lat="43.1975" lon="-1.15366">
        <ele>231.81</ele>
        <time>2021-08-20T15:30:52Z</time>
      </trkpt>
      <trkpt lat="43.19735" lon="-1.15357">
        <ele>229.41</ele>
        <time>2021-08-20T15:30:54Z</time>
      </trkpt>
      <trkpt lat="43.19728" lon="-1.15351">
        <ele>228.45</ele>
        <time>2021-08-20T15:30:55Z</time>
      </trkpt>
      <trkpt lat="43.19721" lon="-1.15342">
        <ele>227.97</ele>
        <time>2021-08-20T15:30:56Z</time>
      </trkpt>
      <trkpt lat="43.19715" lon="-1.15332">
        <ele>226.53</ele>
        <time>2021-08-20T15:30:57Z</time>
      </trkpt>
      <trkpt lat="43.1971" lon="-1.15322">
        <ele>226.53</ele>
        <time>2021-08-20T15:30:58Z</time>
      </trkpt>
      <trkpt lat="43.19692" lon="-1.15275">
        <ele>224.12</ele>
        <time>2021-08-20T15:31:02Z</time>
      </trkpt>
      <trkpt lat="43.19675" lon="-1.15239">
        <ele>222.2</ele>
        <time>2021-08-20T15:31:05Z</time>
      </trkpt>
      <trkpt lat="43.19668" lon="-1.15229">
        <ele>221.72</ele>
        <time>2021-08-20T15:31:06Z</time>
      </trkpt>
      <trkpt lat="43.19659" lon="-1.15222">
        <ele>220.76</ele>
        <time>2021-08-20T15:31:07Z</time>
      </trkpt>
      <trkpt lat="43.19651" lon="-1.15215">
        <ele>221.24</ele>
        <time>2021-08-20T15:31:08Z</time>
      </trkpt>
      <trkpt lat="43.19642" lon="-1.15207">
        <ele>220.76</ele>
        <time>2021-08-20T15:31:09Z</time>
      </trkpt>
      <trkpt lat="43.19636" lon="-1.15199">
        <ele>220.76</ele>
        <time>2021-08-20T15:31:10Z</time>
      </trkpt>
      <trkpt lat="43.19629" lon="-1.15189">
        <ele>220.76</ele>
        <time>2021-08-20T15:31:11Z</time>
      </trkpt>
      <trkpt lat="43.19624" lon="-1.1518">
        <ele>220.76</ele>
        <time>2021-08-20T15:31:12Z</time>
      </trkpt>
      <trkpt lat="43.19597" lon="-1.15124">
        <ele>221.24</ele>
        <time>2021-08-20T15:31:18Z</time>
      </trkpt>
      <trkpt lat="43.1958" lon="-1.15093">
        <ele>220.76</ele>
        <time>2021-08-20T15:31:22Z</time>
      </trkpt>
      <trkpt lat="43.19574" lon="-1.15087">
        <ele>220.28</ele>
        <time>2021-08-20T15:31:23Z</time>
      </trkpt>
      <trkpt lat="43.19567" lon="-1.15081">
        <ele>220.28</ele>
        <time>2021-08-20T15:31:24Z</time>
      </trkpt>
      <trkpt lat="43.19561" lon="-1.15077">
        <ele>220.28</ele>
        <time>2021-08-20T15:31:25Z</time>
      </trkpt>
      <trkpt lat="43.19553" lon="-1.15074">
        <ele>220.28</ele>
        <time>2021-08-20T15:31:26Z</time>
      </trkpt>
      <trkpt lat="43.19546" lon="-1.15072">
        <ele>220.28</ele>
        <time>2021-08-20T15:31:27Z</time>
      </trkpt>
      <trkpt lat="43.19511" lon="-1.15062">
        <ele>221.72</ele>
        <time>2021-08-20T15:31:33Z</time>
      </trkpt>
      <trkpt lat="43.19498" lon="-1.1506">
        <ele>222.68</ele>
        <time>2021-08-20T15:31:36Z</time>
      </trkpt>
      <trkpt lat="43.19482" lon="-1.15055">
        <ele>223.64</ele>
        <time>2021-08-20T15:31:40Z</time>
      </trkpt>
      <trkpt lat="43.19466" lon="-1.15041">
        <ele>225.09</ele>
        <time>2021-08-20T15:31:46Z</time>
      </trkpt>
      <trkpt lat="43.19456" lon="-1.15027">
        <ele>226.05</ele>
        <time>2021-08-20T15:31:52Z</time>
      </trkpt>
      <trkpt lat="43.19445" lon="-1.15012">
        <ele>227.97</ele>
        <time>2021-08-20T15:32:00Z</time>
      </trkpt>
      <trkpt lat="43.1943" lon="-1.14996">
        <ele>229.41</ele>
        <time>2021-08-20T15:32:10Z</time>
      </trkpt>
      <trkpt lat="43.19418" lon="-1.14982">
        <ele>230.37</ele>
        <time>2021-08-20T15:32:19Z</time>
      </trkpt>
      <trkpt lat="43.19403" lon="-1.1497">
        <ele>232.3</ele>
        <time>2021-08-20T15:32:27Z</time>
      </trkpt>
      <trkpt lat="43.19387" lon="-1.14956">
        <ele>232.78</ele>
        <time>2021-08-20T15:32:35Z</time>
      </trkpt>
      <trkpt lat="43.19367" lon="-1.14941">
        <ele>233.26</ele>
        <time>2021-08-20T15:32:43Z</time>
      </trkpt>
      <trkpt lat="43.19358" lon="-1.14941">
        <ele>233.26</ele>
        <time>2021-08-20T15:32:46Z</time>
      </trkpt>
      <trkpt lat="43.19355" lon="-1.14944">
        <ele>233.26</ele>
        <time>2021-08-20T15:32:47Z</time>
      </trkpt>
      <trkpt lat="43.19335" lon="-1.14979">
        <ele>233.26</ele>
        <time>2021-08-20T15:32:55Z</time>
      </trkpt>
      <trkpt lat="43.19311" lon="-1.15027">
        <ele>233.26</ele>
        <time>2021-08-20T15:33:03Z</time>
      </trkpt>
      <trkpt lat="43.19282" lon="-1.15086">
        <ele>233.26</ele>
        <time>2021-08-20T15:33:13Z</time>
      </trkpt>
      <trkpt lat="43.19256" lon="-1.15136">
        <ele>231.33</ele>
        <time>2021-08-20T15:33:21Z</time>
      </trkpt>
      <trkpt lat="43.19225" lon="-1.15195">
        <ele>228.45</ele>
        <time>2021-08-20T15:33:28Z</time>
      </trkpt>
      <trkpt lat="43.19221" lon="-1.15205">
        <ele>227.97</ele>
        <time>2021-08-20T15:33:29Z</time>
      </trkpt>
      <trkpt lat="43.19219" lon="-1.15216">
        <ele>227.97</ele>
        <time>2021-08-20T15:33:30Z</time>
      </trkpt>
      <trkpt lat="43.19216" lon="-1.15227">
        <ele>227.97</ele>
        <time>2021-08-20T15:33:31Z</time>
      </trkpt>
      <trkpt lat="43.19212" lon="-1.15236">
        <ele>227.97</ele>
        <time>2021-08-20T15:33:32Z</time>
      </trkpt>
      <trkpt lat="43.19207" lon="-1.15244">
        <ele>227.97</ele>
        <time>2021-08-20T15:33:33Z</time>
      </trkpt>
      <trkpt lat="43.19201" lon="-1.15251">
        <ele>227.97</ele>
        <time>2021-08-20T15:33:34Z</time>
      </trkpt>
      <trkpt lat="43.19195" lon="-1.15257">
        <ele>227.49</ele>
        <time>2021-08-20T15:33:35Z</time>
      </trkpt>
      <trkpt lat="43.19166" lon="-1.15284">
        <ele>223.64</ele>
        <time>2021-08-20T15:33:39Z</time>
      </trkpt>
      <trkpt lat="43.19157" lon="-1.15288">
        <ele>222.68</ele>
        <time>2021-08-20T15:33:40Z</time>
      </trkpt>
      <trkpt lat="43.19146" lon="-1.15291">
        <ele>221.72</ele>
        <time>2021-08-20T15:33:41Z</time>
      </trkpt>
      <trkpt lat="43.19136" lon="-1.15292">
        <ele>220.76</ele>
        <time>2021-08-20T15:33:42Z</time>
      </trkpt>
      <trkpt lat="43.19126" lon="-1.15292">
        <ele>220.28</ele>
        <time>2021-08-20T15:33:43Z</time>
      </trkpt>
      <trkpt lat="43.19118" lon="-1.15293">
        <ele>220.28</ele>
        <time>2021-08-20T15:33:44Z</time>
      </trkpt>
      <trkpt lat="43.19111" lon="-1.15298">
        <ele>220.28</ele>
        <time>2021-08-20T15:33:45Z</time>
      </trkpt>
      <trkpt lat="43.19105" lon="-1.15305">
        <ele>220.28</ele>
        <time>2021-08-20T15:33:46Z</time>
      </trkpt>
      <trkpt lat="43.19101" lon="-1.15312">
        <ele>221.24</ele>
        <time>2021-08-20T15:33:47Z</time>
      </trkpt>
      <trkpt lat="43.19098" lon="-1.15319">
        <ele>222.2</ele>
        <time>2021-08-20T15:33:48Z</time>
      </trkpt>
      <trkpt lat="43.19096" lon="-1.15326">
        <ele>222.68</ele>
        <time>2021-08-20T15:33:49Z</time>
      </trkpt>
      <trkpt lat="43.19094" lon="-1.15331">
        <ele>224.12</ele>
        <time>2021-08-20T15:33:50Z</time>
      </trkpt>
      <trkpt lat="43.19092" lon="-1.15336">
        <ele>224.61</ele>
        <time>2021-08-20T15:33:51Z</time>
      </trkpt>
      <trkpt lat="43.19091" lon="-1.15341">
        <ele>224.61</ele>
        <time>2021-08-20T15:33:52Z</time>
      </trkpt>
      <trkpt lat="43.19088" lon="-1.15366">
        <ele>226.53</ele>
        <time>2021-08-20T15:33:58Z</time>
      </trkpt>
      <trkpt lat="43.19082" lon="-1.15396">
        <ele>227.49</ele>
        <time>2021-08-20T15:34:06Z</time>
      </trkpt>
      <trkpt lat="43.1907" lon="-1.15427">
        <ele>228.45</ele>
        <time>2021-08-20T15:34:14Z</time>
      </trkpt>
      <trkpt lat="43.19057" lon="-1.15448">
        <ele>229.41</ele>
        <time>2021-08-20T15:34:22Z</time>
      </trkpt>
      <trkpt lat="43.19057" lon="-1.15446">
        <ele>229.89</ele>
        <time>2021-08-20T15:34:29Z</time>
      </trkpt>
      <trkpt lat="43.19057" lon="-1.15444">
        <ele>229.89</ele>
        <time>2021-08-20T15:34:50Z</time>
      </trkpt>
      <trkpt lat="43.19051" lon="-1.15451">
        <ele>229.89</ele>
        <time>2021-08-20T15:34:59Z</time>
      </trkpt>
      <trkpt lat="43.19028" lon="-1.15466">
        <ele>231.33</ele>
        <time>2021-08-20T15:35:07Z</time>
      </trkpt>
      <trkpt lat="43.19002" lon="-1.15493">
        <ele>229.89</ele>
        <time>2021-08-20T15:35:16Z</time>
      </trkpt>
      <trkpt lat="43.18998" lon="-1.15498">
        <ele>229.41</ele>
        <time>2021-08-20T15:35:17Z</time>
      </trkpt>
      <trkpt lat="43.18978" lon="-1.15521">
        <ele>225.57</ele>
        <time>2021-08-20T15:35:21Z</time>
      </trkpt>
      <trkpt lat="43.18958" lon="-1.15544">
        <ele>222.2</ele>
        <time>2021-08-20T15:35:24Z</time>
      </trkpt>
      <trkpt lat="43.18941" lon="-1.15558">
        <ele>221.72</ele>
        <time>2021-08-20T15:35:26Z</time>
      </trkpt>
      <trkpt lat="43.18932" lon="-1.15563">
        <ele>221.24</ele>
        <time>2021-08-20T15:35:27Z</time>
      </trkpt>
      <trkpt lat="43.18923" lon="-1.15565">
        <ele>220.76</ele>
        <time>2021-08-20T15:35:28Z</time>
      </trkpt>
      <trkpt lat="43.18914" lon="-1.15563">
        <ele>221.24</ele>
        <time>2021-08-20T15:35:29Z</time>
      </trkpt>
      <trkpt lat="43.18906" lon="-1.1556">
        <ele>220.76</ele>
        <time>2021-08-20T15:35:30Z</time>
      </trkpt>
      <trkpt lat="43.18899" lon="-1.15554">
        <ele>220.76</ele>
        <time>2021-08-20T15:35:31Z</time>
      </trkpt>
      <trkpt lat="43.18893" lon="-1.15548">
        <ele>219.8</ele>
        <time>2021-08-20T15:35:32Z</time>
      </trkpt>
      <trkpt lat="43.18886" lon="-1.15545">
        <ele>218.84</ele>
        <time>2021-08-20T15:35:33Z</time>
      </trkpt>
      <trkpt lat="43.18878" lon="-1.15545">
        <ele>218.84</ele>
        <time>2021-08-20T15:35:34Z</time>
      </trkpt>
      <trkpt lat="43.18873" lon="-1.15549">
        <ele>218.84</ele>
        <time>2021-08-20T15:35:35Z</time>
      </trkpt>
      <trkpt lat="43.18869" lon="-1.15554">
        <ele>218.84</ele>
        <time>2021-08-20T15:35:36Z</time>
      </trkpt>
      <trkpt lat="43.18867" lon="-1.15558">
        <ele>220.28</ele>
        <time>2021-08-20T15:35:37Z</time>
      </trkpt>
      <trkpt lat="43.18865" lon="-1.15563">
        <ele>220.76</ele>
        <time>2021-08-20T15:35:38Z</time>
      </trkpt>
      <trkpt lat="43.18864" lon="-1.15566">
        <ele>220.76</ele>
        <time>2021-08-20T15:35:39Z</time>
      </trkpt>
      <trkpt lat="43.18854" lon="-1.15595">
        <ele>222.68</ele>
        <time>2021-08-20T15:35:48Z</time>
      </trkpt>
      <trkpt lat="43.18846" lon="-1.15608">
        <ele>224.12</ele>
        <time>2021-08-20T15:35:53Z</time>
      </trkpt>
      <trkpt lat="43.1884" lon="-1.15627">
        <ele>225.57</ele>
        <time>2021-08-20T15:35:59Z</time>
      </trkpt>
      <trkpt lat="43.18829" lon="-1.15653">
        <ele>225.57</ele>
        <time>2021-08-20T15:36:07Z</time>
      </trkpt>
      <trkpt lat="43.18817" lon="-1.15683">
        <ele>224.12</ele>
        <time>2021-08-20T15:36:14Z</time>
      </trkpt>
      <trkpt lat="43.18802" lon="-1.15717">
        <ele>222.68</ele>
        <time>2021-08-20T15:36:21Z</time>
      </trkpt>
      <trkpt lat="43.18788" lon="-1.1576">
        <ele>221.24</ele>
        <time>2021-08-20T15:36:27Z</time>
      </trkpt>
      <trkpt lat="43.18754" lon="-1.1582">
        <ele>219.32</ele>
        <time>2021-08-20T15:36:35Z</time>
      </trkpt>
      <trkpt lat="43.18751" lon="-1.15828">
        <ele>218.84</ele>
        <time>2021-08-20T15:36:36Z</time>
      </trkpt>
      <trkpt lat="43.18748" lon="-1.15838">
        <ele>217.88</ele>
        <time>2021-08-20T15:36:37Z</time>
      </trkpt>
      <trkpt lat="43.18746" lon="-1.15849">
        <ele>217.88</ele>
        <time>2021-08-20T15:36:38Z</time>
      </trkpt>
      <trkpt lat="43.18743" lon="-1.15859">
        <ele>216.91</ele>
        <time>2021-08-20T15:36:39Z</time>
      </trkpt>
      <trkpt lat="43.1874" lon="-1.1588">
        <ele>216.43</ele>
        <time>2021-08-20T15:36:41Z</time>
      </trkpt>
      <trkpt lat="43.18734" lon="-1.15905">
        <ele>215.95</ele>
        <time>2021-08-20T15:36:44Z</time>
      </trkpt>
      <trkpt lat="43.18731" lon="-1.1591">
        <ele>215.47</ele>
        <time>2021-08-20T15:36:45Z</time>
      </trkpt>
      <trkpt lat="43.18727" lon="-1.15912">
        <ele>215.47</ele>
        <time>2021-08-20T15:36:46Z</time>
      </trkpt>
      <trkpt lat="43.18722" lon="-1.15913">
        <ele>215.47</ele>
        <time>2021-08-20T15:36:47Z</time>
      </trkpt>
      <trkpt lat="43.18719" lon="-1.15912">
        <ele>215.47</ele>
        <time>2021-08-20T15:36:48Z</time>
      </trkpt>
      <trkpt lat="43.18717" lon="-1.15912">
        <ele>215.47</ele>
        <time>2021-08-20T15:36:49Z</time>
      </trkpt>
      <trkpt lat="43.18715" lon="-1.15911">
        <ele>215.47</ele>
        <time>2021-08-20T15:36:50Z</time>
      </trkpt>
      <trkpt lat="43.18693" lon="-1.15903">
        <ele>216.43</ele>
        <time>2021-08-20T15:36:57Z</time>
      </trkpt>
      <trkpt lat="43.18681" lon="-1.15898">
        <ele>216.43</ele>
        <time>2021-08-20T15:37:00Z</time>
      </trkpt>
      <trkpt lat="43.18677" lon="-1.15897">
        <ele>216.43</ele>
        <time>2021-08-20T15:37:01Z</time>
      </trkpt>
      <trkpt lat="43.18668" lon="-1.15895">
        <ele>216.43</ele>
        <time>2021-08-20T15:37:03Z</time>
      </trkpt>
      <trkpt lat="43.18663" lon="-1.15895">
        <ele>216.43</ele>
        <time>2021-08-20T15:37:04Z</time>
      </trkpt>
      <trkpt lat="43.18659" lon="-1.15897">
        <ele>216.43</ele>
        <time>2021-08-20T15:37:05Z</time>
      </trkpt>
      <trkpt lat="43.1865" lon="-1.159">
        <ele>216.43</ele>
        <time>2021-08-20T15:37:07Z</time>
      </trkpt>
      <trkpt lat="43.18646" lon="-1.15904">
        <ele>216.43</ele>
        <time>2021-08-20T15:37:08Z</time>
      </trkpt>
      <trkpt lat="43.18642" lon="-1.15907">
        <ele>216.43</ele>
        <time>2021-08-20T15:37:09Z</time>
      </trkpt>
      <trkpt lat="43.18635" lon="-1.15915">
        <ele>216.43</ele>
        <time>2021-08-20T15:37:11Z</time>
      </trkpt>
      <trkpt lat="43.18632" lon="-1.15919">
        <ele>216.43</ele>
        <time>2021-08-20T15:37:12Z</time>
      </trkpt>
      <trkpt lat="43.18629" lon="-1.15924">
        <ele>216.43</ele>
        <time>2021-08-20T15:37:13Z</time>
      </trkpt>
      <trkpt lat="43.18621" lon="-1.15939">
        <ele>216.43</ele>
        <time>2021-08-20T15:37:16Z</time>
      </trkpt>
      <trkpt lat="43.1861" lon="-1.15968">
        <ele>217.88</ele>
        <time>2021-08-20T15:37:22Z</time>
      </trkpt>
      <trkpt lat="43.18607" lon="-1.15971">
        <ele>218.36</ele>
        <time>2021-08-20T15:37:23Z</time>
      </trkpt>
      <trkpt lat="43.18604" lon="-1.15972">
        <ele>218.36</ele>
        <time>2021-08-20T15:37:24Z</time>
      </trkpt>
      <trkpt lat="43.18601" lon="-1.15971">
        <ele>218.36</ele>
        <time>2021-08-20T15:37:25Z</time>
      </trkpt>
      <trkpt lat="43.18598" lon="-1.15971">
        <ele>218.84</ele>
        <time>2021-08-20T15:37:26Z</time>
      </trkpt>
      <trkpt lat="43.18579" lon="-1.15965">
        <ele>220.28</ele>
        <time>2021-08-20T15:37:35Z</time>
      </trkpt>
      <trkpt lat="43.18566" lon="-1.15959">
        <ele>222.2</ele>
        <time>2021-08-20T15:37:43Z</time>
      </trkpt>
      <trkpt lat="43.18549" lon="-1.1595">
        <ele>223.64</ele>
        <time>2021-08-20T15:37:54Z</time>
      </trkpt>
      <trkpt lat="43.18537" lon="-1.15946">
        <ele>225.57</ele>
        <time>2021-08-20T15:38:02Z</time>
      </trkpt>
      <trkpt lat="43.18521" lon="-1.15951">
        <ele>227.01</ele>
        <time>2021-08-20T15:38:12Z</time>
      </trkpt>
      <trkpt lat="43.1852" lon="-1.15952">
        <ele>227.49</ele>
        <time>2021-08-20T15:38:13Z</time>
      </trkpt>
      <trkpt lat="43.18506" lon="-1.1596">
        <ele>227.97</ele>
        <time>2021-08-20T15:38:21Z</time>
      </trkpt>
      <trkpt lat="43.18488" lon="-1.15971">
        <ele>228.45</ele>
        <time>2021-08-20T15:38:29Z</time>
      </trkpt>
      <trkpt lat="43.18475" lon="-1.15991">
        <ele>228.93</ele>
        <time>2021-08-20T15:38:37Z</time>
      </trkpt>
      <trkpt lat="43.18476" lon="-1.16006">
        <ele>229.89</ele>
        <time>2021-08-20T15:38:43Z</time>
      </trkpt>
      <trkpt lat="43.1848" lon="-1.16017">
        <ele>231.33</ele>
        <time>2021-08-20T15:38:51Z</time>
      </trkpt>
      <trkpt lat="43.18483" lon="-1.16032">
        <ele>232.78</ele>
        <time>2021-08-20T15:39:01Z</time>
      </trkpt>
      <trkpt lat="43.18483" lon="-1.16037">
        <ele>232.78</ele>
        <time>2021-08-20T15:39:05Z</time>
      </trkpt>
      <trkpt lat="43.18481" lon="-1.16056">
        <ele>233.26</ele>
        <time>2021-08-20T15:39:13Z</time>
      </trkpt>
      <trkpt lat="43.18477" lon="-1.16072">
        <ele>233.26</ele>
        <time>2021-08-20T15:39:20Z</time>
      </trkpt>
      <trkpt lat="43.18471" lon="-1.16096">
        <ele>233.26</ele>
        <time>2021-08-20T15:39:27Z</time>
      </trkpt>
      <trkpt lat="43.18465" lon="-1.16127">
        <ele>233.26</ele>
        <time>2021-08-20T15:39:34Z</time>
      </trkpt>
      <trkpt lat="43.18456" lon="-1.16154">
        <ele>233.26</ele>
        <time>2021-08-20T15:39:41Z</time>
      </trkpt>
      <trkpt lat="43.18446" lon="-1.16177">
        <ele>234.22</ele>
        <time>2021-08-20T15:39:48Z</time>
      </trkpt>
      <trkpt lat="43.1844" lon="-1.16201">
        <ele>235.66</ele>
        <time>2021-08-20T15:39:56Z</time>
      </trkpt>
      <trkpt lat="43.18433" lon="-1.1622">
        <ele>236.62</ele>
        <time>2021-08-20T15:40:02Z</time>
      </trkpt>
      <trkpt lat="43.18415" lon="-1.16252">
        <ele>238.06</ele>
        <time>2021-08-20T15:40:13Z</time>
      </trkpt>
      <trkpt lat="43.18398" lon="-1.16269">
        <ele>239.51</ele>
        <time>2021-08-20T15:40:21Z</time>
      </trkpt>
      <trkpt lat="43.18384" lon="-1.1629">
        <ele>239.99</ele>
        <time>2021-08-20T15:40:28Z</time>
      </trkpt>
      <trkpt lat="43.18374" lon="-1.16304">
        <ele>238.06</ele>
        <time>2021-08-20T15:40:31Z</time>
      </trkpt>
      <trkpt lat="43.18368" lon="-1.16315">
        <ele>237.58</ele>
        <time>2021-08-20T15:40:33Z</time>
      </trkpt>
      <trkpt lat="43.18366" lon="-1.16321">
        <ele>237.58</ele>
        <time>2021-08-20T15:40:34Z</time>
      </trkpt>
      <trkpt lat="43.18366" lon="-1.16327">
        <ele>237.58</ele>
        <time>2021-08-20T15:40:35Z</time>
      </trkpt>
      <trkpt lat="43.18365" lon="-1.16333">
        <ele>237.58</ele>
        <time>2021-08-20T15:40:36Z</time>
      </trkpt>
      <trkpt lat="43.18365" lon="-1.16337">
        <ele>237.58</ele>
        <time>2021-08-20T15:40:37Z</time>
      </trkpt>
      <trkpt lat="43.18366" lon="-1.16342">
        <ele>237.58</ele>
        <time>2021-08-20T15:40:38Z</time>
      </trkpt>
      <trkpt lat="43.18366" lon="-1.16346">
        <ele>237.58</ele>
        <time>2021-08-20T15:40:39Z</time>
      </trkpt>
      <trkpt lat="43.18367" lon="-1.16377">
        <ele>237.1</ele>
        <time>2021-08-20T15:40:46Z</time>
      </trkpt>
      <trkpt lat="43.18365" lon="-1.164">
        <ele>236.14</ele>
        <time>2021-08-20T15:40:50Z</time>
      </trkpt>
      <trkpt lat="43.18357" lon="-1.1645">
        <ele>232.78</ele>
        <time>2021-08-20T15:40:56Z</time>
      </trkpt>
      <trkpt lat="43.18344" lon="-1.16516">
        <ele>229.89</ele>
        <time>2021-08-20T15:41:02Z</time>
      </trkpt>
      <trkpt lat="43.18344" lon="-1.16528">
        <ele>229.41</ele>
        <time>2021-08-20T15:41:03Z</time>
      </trkpt>
      <trkpt lat="43.18344" lon="-1.16541">
        <ele>229.41</ele>
        <time>2021-08-20T15:41:04Z</time>
      </trkpt>
      <trkpt lat="43.18343" lon="-1.16579">
        <ele>227.49</ele>
        <time>2021-08-20T15:41:07Z</time>
      </trkpt>
      <trkpt lat="43.18341" lon="-1.16591">
        <ele>226.05</ele>
        <time>2021-08-20T15:41:08Z</time>
      </trkpt>
      <trkpt lat="43.18336" lon="-1.16604">
        <ele>225.57</ele>
        <time>2021-08-20T15:41:09Z</time>
      </trkpt>
      <trkpt lat="43.18321" lon="-1.16642">
        <ele>223.64</ele>
        <time>2021-08-20T15:41:12Z</time>
      </trkpt>
      <trkpt lat="43.18313" lon="-1.16669">
        <ele>222.2</ele>
        <time>2021-08-20T15:41:14Z</time>
      </trkpt>
      <trkpt lat="43.18312" lon="-1.16683">
        <ele>222.2</ele>
        <time>2021-08-20T15:41:15Z</time>
      </trkpt>
      <trkpt lat="43.18311" lon="-1.16696">
        <ele>222.2</ele>
        <time>2021-08-20T15:41:16Z</time>
      </trkpt>
      <trkpt lat="43.18309" lon="-1.16733">
        <ele>221.72</ele>
        <time>2021-08-20T15:41:19Z</time>
      </trkpt>
      <trkpt lat="43.18306" lon="-1.16745">
        <ele>221.24</ele>
        <time>2021-08-20T15:41:20Z</time>
      </trkpt>
      <trkpt lat="43.18303" lon="-1.16756">
        <ele>221.24</ele>
        <time>2021-08-20T15:41:21Z</time>
      </trkpt>
      <trkpt lat="43.183" lon="-1.16766">
        <ele>220.28</ele>
        <time>2021-08-20T15:41:22Z</time>
      </trkpt>
      <trkpt lat="43.18298" lon="-1.16775">
        <ele>220.28</ele>
        <time>2021-08-20T15:41:23Z</time>
      </trkpt>
      <trkpt lat="43.183" lon="-1.16783">
        <ele>219.8</ele>
        <time>2021-08-20T15:41:24Z</time>
      </trkpt>
      <trkpt lat="43.18303" lon="-1.16789">
        <ele>218.84</ele>
        <time>2021-08-20T15:41:25Z</time>
      </trkpt>
      <trkpt lat="43.18306" lon="-1.16796">
        <ele>218.36</ele>
        <time>2021-08-20T15:41:26Z</time>
      </trkpt>
      <trkpt lat="43.18315" lon="-1.16812">
        <ele>217.4</ele>
        <time>2021-08-20T15:41:28Z</time>
      </trkpt>
      <trkpt lat="43.18318" lon="-1.16821">
        <ele>216.43</ele>
        <time>2021-08-20T15:41:29Z</time>
      </trkpt>
      <trkpt lat="43.1832" lon="-1.16831">
        <ele>216.43</ele>
        <time>2021-08-20T15:41:30Z</time>
      </trkpt>
      <trkpt lat="43.1832" lon="-1.16841">
        <ele>216.43</ele>
        <time>2021-08-20T15:41:31Z</time>
      </trkpt>
      <trkpt lat="43.18318" lon="-1.16849">
        <ele>216.43</ele>
        <time>2021-08-20T15:41:32Z</time>
      </trkpt>
      <trkpt lat="43.18315" lon="-1.16857">
        <ele>216.43</ele>
        <time>2021-08-20T15:41:33Z</time>
      </trkpt>
      <trkpt lat="43.18311" lon="-1.16864">
        <ele>216.43</ele>
        <time>2021-08-20T15:41:34Z</time>
      </trkpt>
      <trkpt lat="43.18306" lon="-1.1687">
        <ele>216.43</ele>
        <time>2021-08-20T15:41:35Z</time>
      </trkpt>
      <trkpt lat="43.18292" lon="-1.16896">
        <ele>214.03</ele>
        <time>2021-08-20T15:41:39Z</time>
      </trkpt>
      <trkpt lat="43.18291" lon="-1.16903">
        <ele>213.07</ele>
        <time>2021-08-20T15:41:40Z</time>
      </trkpt>
      <trkpt lat="43.18291" lon="-1.16911">
        <ele>212.11</ele>
        <time>2021-08-20T15:41:41Z</time>
      </trkpt>
      <trkpt lat="43.18293" lon="-1.16919">
        <ele>211.15</ele>
        <time>2021-08-20T15:41:42Z</time>
      </trkpt>
      <trkpt lat="43.18296" lon="-1.16927">
        <ele>210.19</ele>
        <time>2021-08-20T15:41:43Z</time>
      </trkpt>
      <trkpt lat="43.18299" lon="-1.16934">
        <ele>209.7</ele>
        <time>2021-08-20T15:41:44Z</time>
      </trkpt>
      <trkpt lat="43.18303" lon="-1.16942">
        <ele>208.26</ele>
        <time>2021-08-20T15:41:45Z</time>
      </trkpt>
      <trkpt lat="43.18309" lon="-1.1695">
        <ele>207.78</ele>
        <time>2021-08-20T15:41:46Z</time>
      </trkpt>
      <trkpt lat="43.18314" lon="-1.16957">
        <ele>207.3</ele>
        <time>2021-08-20T15:41:47Z</time>
      </trkpt>
      <trkpt lat="43.18321" lon="-1.16963">
        <ele>207.3</ele>
        <time>2021-08-20T15:41:48Z</time>
      </trkpt>
      <trkpt lat="43.18327" lon="-1.16968">
        <ele>206.82</ele>
        <time>2021-08-20T15:41:49Z</time>
      </trkpt>
      <trkpt lat="43.1834" lon="-1.16984">
        <ele>205.38</ele>
        <time>2021-08-20T15:41:52Z</time>
      </trkpt>
      <trkpt lat="43.18341" lon="-1.16989">
        <ele>205.38</ele>
        <time>2021-08-20T15:41:53Z</time>
      </trkpt>
      <trkpt lat="43.18339" lon="-1.16992">
        <ele>205.38</ele>
        <time>2021-08-20T15:41:54Z</time>
      </trkpt>
      <trkpt lat="43.18336" lon="-1.16993">
        <ele>205.38</ele>
        <time>2021-08-20T15:41:55Z</time>
      </trkpt>
      <trkpt lat="43.18333" lon="-1.16992">
        <ele>205.38</ele>
        <time>2021-08-20T15:41:56Z</time>
      </trkpt>
      <trkpt lat="43.18331" lon="-1.16991">
        <ele>205.38</ele>
        <time>2021-08-20T15:41:57Z</time>
      </trkpt>
      <trkpt lat="43.18328" lon="-1.16989">
        <ele>205.38</ele>
        <time>2021-08-20T15:41:58Z</time>
      </trkpt>
      <trkpt lat="43.18308" lon="-1.16982">
        <ele>205.38</ele>
        <time>2021-08-20T15:42:06Z</time>
      </trkpt>
      <trkpt lat="43.18291" lon="-1.16972">
        <ele>207.3</ele>
        <time>2021-08-20T15:42:15Z</time>
      </trkpt>
      <trkpt lat="43.18286" lon="-1.16968">
        <ele>207.78</ele>
        <time>2021-08-20T15:42:19Z</time>
      </trkpt>
      <trkpt lat="43.18283" lon="-1.16968">
        <ele>207.78</ele>
        <time>2021-08-20T15:42:22Z</time>
      </trkpt>
      <trkpt lat="43.18282" lon="-1.16967">
        <ele>208.74</ele>
        <time>2021-08-20T15:42:23Z</time>
      </trkpt>
      <trkpt lat="43.18281" lon="-1.16966">
        <ele>208.74</ele>
        <time>2021-08-20T15:42:24Z</time>
      </trkpt>
      <trkpt lat="43.18279" lon="-1.16965">
        <ele>208.74</ele>
        <time>2021-08-20T15:42:25Z</time>
      </trkpt>
      <trkpt lat="43.18278" lon="-1.16965">
        <ele>209.22</ele>
        <time>2021-08-20T15:42:26Z</time>
      </trkpt>
      <trkpt lat="43.18277" lon="-1.16964">
        <ele>209.22</ele>
        <time>2021-08-20T15:42:27Z</time>
      </trkpt>
      <trkpt lat="43.18276" lon="-1.16964">
        <ele>209.22</ele>
        <time>2021-08-20T15:42:28Z</time>
      </trkpt>
      <trkpt lat="43.18268" lon="-1.16962">
        <ele>210.67</ele>
        <time>2021-08-20T15:42:35Z</time>
      </trkpt>
      <trkpt lat="43.18261" lon="-1.16963">
        <ele>211.15</ele>
        <time>2021-08-20T15:42:40Z</time>
      </trkpt>
      <trkpt lat="43.1826" lon="-1.16964">
        <ele>211.63</ele>
        <time>2021-08-20T15:42:41Z</time>
      </trkpt>
      <trkpt lat="43.18259" lon="-1.16966">
        <ele>211.63</ele>
        <time>2021-08-20T15:42:42Z</time>
      </trkpt>
      <trkpt lat="43.18257" lon="-1.16968">
        <ele>211.63</ele>
        <time>2021-08-20T15:42:44Z</time>
      </trkpt>
      <trkpt lat="43.18256" lon="-1.16969">
        <ele>211.63</ele>
        <time>2021-08-20T15:42:45Z</time>
      </trkpt>
      <trkpt lat="43.18254" lon="-1.16971">
        <ele>211.63</ele>
        <time>2021-08-20T15:42:47Z</time>
      </trkpt>
      <trkpt lat="43.18253" lon="-1.16972">
        <ele>211.63</ele>
        <time>2021-08-20T15:42:48Z</time>
      </trkpt>
      <trkpt lat="43.18252" lon="-1.16973">
        <ele>212.11</ele>
        <time>2021-08-20T15:42:49Z</time>
      </trkpt>
      <trkpt lat="43.1825" lon="-1.16974">
        <ele>212.11</ele>
        <time>2021-08-20T15:42:50Z</time>
      </trkpt>
      <trkpt lat="43.18249" lon="-1.16975">
        <ele>212.11</ele>
        <time>2021-08-20T15:42:51Z</time>
      </trkpt>
      <trkpt lat="43.18248" lon="-1.16976">
        <ele>212.11</ele>
        <time>2021-08-20T15:42:52Z</time>
      </trkpt>
      <trkpt lat="43.18247" lon="-1.16977">
        <ele>212.11</ele>
        <time>2021-08-20T15:42:53Z</time>
      </trkpt>
      <trkpt lat="43.18246" lon="-1.16979">
        <ele>213.07</ele>
        <time>2021-08-20T15:42:54Z</time>
      </trkpt>
      <trkpt lat="43.18245" lon="-1.1698">
        <ele>213.07</ele>
        <time>2021-08-20T15:42:55Z</time>
      </trkpt>
      <trkpt lat="43.18244" lon="-1.16981">
        <ele>213.55</ele>
        <time>2021-08-20T15:42:56Z</time>
      </trkpt>
      <trkpt lat="43.18242" lon="-1.16982">
        <ele>213.55</ele>
        <time>2021-08-20T15:42:57Z</time>
      </trkpt>
      <trkpt lat="43.18241" lon="-1.16983">
        <ele>213.55</ele>
        <time>2021-08-20T15:42:58Z</time>
      </trkpt>
      <trkpt lat="43.1824" lon="-1.16984">
        <ele>213.07</ele>
        <time>2021-08-20T15:42:59Z</time>
      </trkpt>
      <trkpt lat="43.18238" lon="-1.16986">
        <ele>214.03</ele>
        <time>2021-08-20T15:43:00Z</time>
      </trkpt>
      <trkpt lat="43.18237" lon="-1.16987">
        <ele>214.03</ele>
        <time>2021-08-20T15:43:01Z</time>
      </trkpt>
      <trkpt lat="43.18236" lon="-1.16988">
        <ele>214.03</ele>
        <time>2021-08-20T15:43:02Z</time>
      </trkpt>
      <trkpt lat="43.18234" lon="-1.16989">
        <ele>214.03</ele>
        <time>2021-08-20T15:43:03Z</time>
      </trkpt>
      <trkpt lat="43.18233" lon="-1.1699">
        <ele>214.51</ele>
        <time>2021-08-20T15:43:04Z</time>
      </trkpt>
      <trkpt lat="43.18232" lon="-1.16991">
        <ele>214.51</ele>
        <time>2021-08-20T15:43:05Z</time>
      </trkpt>
      <trkpt lat="43.18231" lon="-1.16992">
        <ele>214.51</ele>
        <time>2021-08-20T15:43:06Z</time>
      </trkpt>
      <trkpt lat="43.18229" lon="-1.16994">
        <ele>214.51</ele>
        <time>2021-08-20T15:43:07Z</time>
      </trkpt>
      <trkpt lat="43.18218" lon="-1.17002">
        <ele>215.47</ele>
        <time>2021-08-20T15:43:16Z</time>
      </trkpt>
      <trkpt lat="43.1821" lon="-1.17006">
        <ele>215.95</ele>
        <time>2021-08-20T15:43:22Z</time>
      </trkpt>
      <trkpt lat="43.18208" lon="-1.17007">
        <ele>215.95</ele>
        <time>2021-08-20T15:43:23Z</time>
      </trkpt>
      <trkpt lat="43.18208" lon="-1.17008">
        <ele>216.43</ele>
        <time>2021-08-20T15:43:24Z</time>
      </trkpt>
      <trkpt lat="43.18206" lon="-1.17008">
        <ele>216.43</ele>
        <time>2021-08-20T15:43:25Z</time>
      </trkpt>
      <trkpt lat="43.18205" lon="-1.17009">
        <ele>216.43</ele>
        <time>2021-08-20T15:43:26Z</time>
      </trkpt>
      <trkpt lat="43.18204" lon="-1.17009">
        <ele>216.43</ele>
        <time>2021-08-20T15:43:27Z</time>
      </trkpt>
      <trkpt lat="43.18203" lon="-1.17009">
        <ele>216.91</ele>
        <time>2021-08-20T15:43:28Z</time>
      </trkpt>
      <trkpt lat="43.18201" lon="-1.1701">
        <ele>216.91</ele>
        <time>2021-08-20T15:43:29Z</time>
      </trkpt>
      <trkpt lat="43.182" lon="-1.1701">
        <ele>216.91</ele>
        <time>2021-08-20T15:43:30Z</time>
      </trkpt>
      <trkpt lat="43.18199" lon="-1.17011">
        <ele>216.91</ele>
        <time>2021-08-20T15:43:31Z</time>
      </trkpt>
      <trkpt lat="43.18191" lon="-1.17012">
        <ele>217.88</ele>
        <time>2021-08-20T15:43:38Z</time>
      </trkpt>
      <trkpt lat="43.18179" lon="-1.17014">
        <ele>218.84</ele>
        <time>2021-08-20T15:43:48Z</time>
      </trkpt>
      <trkpt lat="43.1817" lon="-1.17018">
        <ele>220.28</ele>
        <time>2021-08-20T15:43:58Z</time>
      </trkpt>
      <trkpt lat="43.1816" lon="-1.17019">
        <ele>221.72</ele>
        <time>2021-08-20T15:44:08Z</time>
      </trkpt>
      <trkpt lat="43.18152" lon="-1.17021">
        <ele>223.16</ele>
        <time>2021-08-20T15:44:16Z</time>
      </trkpt>
      <trkpt lat="43.1814" lon="-1.17024">
        <ele>225.09</ele>
        <time>2021-08-20T15:44:28Z</time>
      </trkpt>
      <trkpt lat="43.18127" lon="-1.17024">
        <ele>226.05</ele>
        <time>2021-08-20T15:44:41Z</time>
      </trkpt>
      <trkpt lat="43.18122" lon="-1.17023">
        <ele>227.49</ele>
        <time>2021-08-20T15:44:50Z</time>
      </trkpt>
      <trkpt lat="43.18123" lon="-1.17022">
        <ele>227.49</ele>
        <time>2021-08-20T15:45:01Z</time>
      </trkpt>
      <trkpt lat="43.1812" lon="-1.17021">
        <ele>227.49</ele>
        <time>2021-08-20T15:45:11Z</time>
      </trkpt>
      <trkpt lat="43.18111" lon="-1.17021">
        <ele>228.45</ele>
        <time>2021-08-20T15:45:18Z</time>
      </trkpt>
      <trkpt lat="43.18098" lon="-1.17022">
        <ele>229.41</ele>
        <time>2021-08-20T15:45:28Z</time>
      </trkpt>
      <trkpt lat="43.18085" lon="-1.17024">
        <ele>230.37</ele>
        <time>2021-08-20T15:45:37Z</time>
      </trkpt>
      <trkpt lat="43.18081" lon="-1.17023">
        <ele>230.85</ele>
        <time>2021-08-20T15:45:40Z</time>
      </trkpt>
      <trkpt lat="43.18079" lon="-1.17023">
        <ele>230.85</ele>
        <time>2021-08-20T15:45:41Z</time>
      </trkpt>
      <trkpt lat="43.18078" lon="-1.17023">
        <ele>231.81</ele>
        <time>2021-08-20T15:45:42Z</time>
      </trkpt>
      <trkpt lat="43.18077" lon="-1.17023">
        <ele>231.81</ele>
        <time>2021-08-20T15:45:43Z</time>
      </trkpt>
      <trkpt lat="43.18076" lon="-1.17023">
        <ele>231.81</ele>
        <time>2021-08-20T15:45:44Z</time>
      </trkpt>
      <trkpt lat="43.18074" lon="-1.17024">
        <ele>231.81</ele>
        <time>2021-08-20T15:45:45Z</time>
      </trkpt>
      <trkpt lat="43.18064" lon="-1.17026">
        <ele>233.26</ele>
        <time>2021-08-20T15:45:53Z</time>
      </trkpt>
      <trkpt lat="43.18051" lon="-1.17028">
        <ele>234.7</ele>
        <time>2021-08-20T15:46:03Z</time>
      </trkpt>
      <trkpt lat="43.18046" lon="-1.17028">
        <ele>235.18</ele>
        <time>2021-08-20T15:46:07Z</time>
      </trkpt>
      <trkpt lat="43.18045" lon="-1.17029">
        <ele>235.66</ele>
        <time>2021-08-20T15:46:08Z</time>
      </trkpt>
      <trkpt lat="43.18043" lon="-1.1703">
        <ele>235.66</ele>
        <time>2021-08-20T15:46:09Z</time>
      </trkpt>
      <trkpt lat="43.18042" lon="-1.1703">
        <ele>235.66</ele>
        <time>2021-08-20T15:46:10Z</time>
      </trkpt>
      <trkpt lat="43.1804" lon="-1.1703">
        <ele>235.66</ele>
        <time>2021-08-20T15:46:11Z</time>
      </trkpt>
      <trkpt lat="43.18039" lon="-1.1703">
        <ele>236.14</ele>
        <time>2021-08-20T15:46:12Z</time>
      </trkpt>
      <trkpt lat="43.18033" lon="-1.17031">
        <ele>237.1</ele>
        <time>2021-08-20T15:46:18Z</time>
      </trkpt>
      <trkpt lat="43.18023" lon="-1.17033">
        <ele>238.06</ele>
        <time>2021-08-20T15:46:27Z</time>
      </trkpt>
      <trkpt lat="43.18018" lon="-1.17039">
        <ele>239.02</ele>
        <time>2021-08-20T15:46:35Z</time>
      </trkpt>
      <trkpt lat="43.1802" lon="-1.17039">
        <ele>239.51</ele>
        <time>2021-08-20T15:46:43Z</time>
      </trkpt>
      <trkpt lat="43.18019" lon="-1.17042">
        <ele>239.51</ele>
        <time>2021-08-20T15:46:51Z</time>
      </trkpt>
      <trkpt lat="43.18019" lon="-1.17054">
        <ele>240.47</ele>
        <time>2021-08-20T15:46:59Z</time>
      </trkpt>
      <trkpt lat="43.18018" lon="-1.17067">
        <ele>241.91</ele>
        <time>2021-08-20T15:47:08Z</time>
      </trkpt>
      <trkpt lat="43.18013" lon="-1.17076">
        <ele>242.87</ele>
        <time>2021-08-20T15:47:14Z</time>
      </trkpt>
      <trkpt lat="43.18012" lon="-1.17077">
        <ele>243.35</ele>
        <time>2021-08-20T15:47:15Z</time>
      </trkpt>
      <trkpt lat="43.18012" lon="-1.17078">
        <ele>243.35</ele>
        <time>2021-08-20T15:47:16Z</time>
      </trkpt>
      <trkpt lat="43.18011" lon="-1.1708">
        <ele>243.35</ele>
        <time>2021-08-20T15:47:17Z</time>
      </trkpt>
      <trkpt lat="43.1801" lon="-1.17081">
        <ele>243.35</ele>
        <time>2021-08-20T15:47:18Z</time>
      </trkpt>
      <trkpt lat="43.1801" lon="-1.17082">
        <ele>243.83</ele>
        <time>2021-08-20T15:47:19Z</time>
      </trkpt>
      <trkpt lat="43.18009" lon="-1.17083">
        <ele>243.83</ele>
        <time>2021-08-20T15:47:20Z</time>
      </trkpt>
      <trkpt lat="43.17999" lon="-1.17092">
        <ele>245.27</ele>
        <time>2021-08-20T15:47:30Z</time>
      </trkpt>
      <trkpt lat="43.17986" lon="-1.17098">
        <ele>246.23</ele>
        <time>2021-08-20T15:47:42Z</time>
      </trkpt>
      <trkpt lat="43.1798" lon="-1.171">
        <ele>246.23</ele>
        <time>2021-08-20T15:47:49Z</time>
      </trkpt>
      <trkpt lat="43.17969" lon="-1.17102">
        <ele>246.23</ele>
        <time>2021-08-20T15:47:55Z</time>
      </trkpt>
      <trkpt lat="43.1795" lon="-1.1711">
        <ele>246.23</ele>
        <time>2021-08-20T15:48:02Z</time>
      </trkpt>
      <trkpt lat="43.17934" lon="-1.17113">
        <ele>246.23</ele>
        <time>2021-08-20T15:48:09Z</time>
      </trkpt>
      <trkpt lat="43.17921" lon="-1.17114">
        <ele>247.2</ele>
        <time>2021-08-20T15:48:15Z</time>
      </trkpt>
      <trkpt lat="43.17901" lon="-1.17119">
        <ele>246.72</ele>
        <time>2021-08-20T15:48:22Z</time>
      </trkpt>
      <trkpt lat="43.17893" lon="-1.17131">
        <ele>246.72</ele>
        <time>2021-08-20T15:48:26Z</time>
      </trkpt>
      <trkpt lat="43.17889" lon="-1.17147">
        <ele>249.12</ele>
        <time>2021-08-20T15:48:33Z</time>
      </trkpt>
      <trkpt lat="43.17887" lon="-1.17151">
        <ele>249.6</ele>
        <time>2021-08-20T15:48:36Z</time>
      </trkpt>
      <trkpt lat="43.17886" lon="-1.17154">
        <ele>249.6</ele>
        <time>2021-08-20T15:48:38Z</time>
      </trkpt>
      <trkpt lat="43.17885" lon="-1.17155">
        <ele>250.08</ele>
        <time>2021-08-20T15:48:39Z</time>
      </trkpt>
      <trkpt lat="43.17884" lon="-1.17157">
        <ele>250.08</ele>
        <time>2021-08-20T15:48:40Z</time>
      </trkpt>
      <trkpt lat="43.17884" lon="-1.17159">
        <ele>250.08</ele>
        <time>2021-08-20T15:48:41Z</time>
      </trkpt>
      <trkpt lat="43.17883" lon="-1.17161">
        <ele>250.08</ele>
        <time>2021-08-20T15:48:42Z</time>
      </trkpt>
      <trkpt lat="43.17876" lon="-1.17182">
        <ele>251.52</ele>
        <time>2021-08-20T15:48:53Z</time>
      </trkpt>
      <trkpt lat="43.17869" lon="-1.17195">
        <ele>252.48</ele>
        <time>2021-08-20T15:49:01Z</time>
      </trkpt>
      <trkpt lat="43.17865" lon="-1.17204">
        <ele>253.93</ele>
        <time>2021-08-20T15:49:09Z</time>
      </trkpt>
      <trkpt lat="43.17859" lon="-1.17221">
        <ele>254.41</ele>
        <time>2021-08-20T15:49:16Z</time>
      </trkpt>
      <trkpt lat="43.17853" lon="-1.17243">
        <ele>254.41</ele>
        <time>2021-08-20T15:49:21Z</time>
      </trkpt>
      <trkpt lat="43.17844" lon="-1.17263">
        <ele>252.96</ele>
        <time>2021-08-20T15:49:25Z</time>
      </trkpt>
      <trkpt lat="43.1784" lon="-1.17268">
        <ele>252.96</ele>
        <time>2021-08-20T15:49:26Z</time>
      </trkpt>
      <trkpt lat="43.17837" lon="-1.17272">
        <ele>252.96</ele>
        <time>2021-08-20T15:49:27Z</time>
      </trkpt>
      <trkpt lat="43.17833" lon="-1.17275">
        <ele>252.96</ele>
        <time>2021-08-20T15:49:28Z</time>
      </trkpt>
      <trkpt lat="43.17828" lon="-1.17278">
        <ele>252.96</ele>
        <time>2021-08-20T15:49:29Z</time>
      </trkpt>
      <trkpt lat="43.17823" lon="-1.17279">
        <ele>252.96</ele>
        <time>2021-08-20T15:49:30Z</time>
      </trkpt>
      <trkpt lat="43.17819" lon="-1.1728">
        <ele>252.96</ele>
        <time>2021-08-20T15:49:31Z</time>
      </trkpt>
      <trkpt lat="43.17814" lon="-1.1728">
        <ele>252.96</ele>
        <time>2021-08-20T15:49:32Z</time>
      </trkpt>
      <trkpt lat="43.1781" lon="-1.1728">
        <ele>252.96</ele>
        <time>2021-08-20T15:49:33Z</time>
      </trkpt>
      <trkpt lat="43.17806" lon="-1.17279">
        <ele>254.89</ele>
        <time>2021-08-20T15:49:34Z</time>
      </trkpt>
      <trkpt lat="43.17802" lon="-1.17278">
        <ele>254.89</ele>
        <time>2021-08-20T15:49:35Z</time>
      </trkpt>
      <trkpt lat="43.17777" lon="-1.17272">
        <ele>256.33</ele>
        <time>2021-08-20T15:49:43Z</time>
      </trkpt>
      <trkpt lat="43.17751" lon="-1.17268">
        <ele>256.81</ele>
        <time>2021-08-20T15:49:52Z</time>
      </trkpt>
      <trkpt lat="43.17728" lon="-1.17264">
        <ele>257.29</ele>
        <time>2021-08-20T15:50:01Z</time>
      </trkpt>
      <trkpt lat="43.17724" lon="-1.17264">
        <ele>258.25</ele>
        <time>2021-08-20T15:50:05Z</time>
      </trkpt>
      <trkpt lat="43.1772" lon="-1.17262">
        <ele>258.73</ele>
        <time>2021-08-20T15:50:09Z</time>
      </trkpt>
      <trkpt lat="43.17719" lon="-1.17262">
        <ele>259.21</ele>
        <time>2021-08-20T15:50:10Z</time>
      </trkpt>
      <trkpt lat="43.17717" lon="-1.17261">
        <ele>259.21</ele>
        <time>2021-08-20T15:50:11Z</time>
      </trkpt>
      <trkpt lat="43.17713" lon="-1.17262">
        <ele>260.17</ele>
        <time>2021-08-20T15:50:17Z</time>
      </trkpt>
      <trkpt lat="43.17707" lon="-1.1726">
        <ele>261.14</ele>
        <time>2021-08-20T15:50:26Z</time>
      </trkpt>
      <trkpt lat="43.17701" lon="-1.17262">
        <ele>262.58</ele>
        <time>2021-08-20T15:50:33Z</time>
      </trkpt>
      <trkpt lat="43.17691" lon="-1.17264">
        <ele>264.5</ele>
        <time>2021-08-20T15:50:43Z</time>
      </trkpt>
      <trkpt lat="43.17685" lon="-1.17269">
        <ele>265.94</ele>
        <time>2021-08-20T15:50:52Z</time>
      </trkpt>
      <trkpt lat="43.17681" lon="-1.17271">
        <ele>266.9</ele>
        <time>2021-08-20T15:50:57Z</time>
      </trkpt>
      <trkpt lat="43.17667" lon="-1.17273">
        <ele>268.83</ele>
        <time>2021-08-20T15:51:07Z</time>
      </trkpt>
      <trkpt lat="43.17656" lon="-1.17276">
        <ele>269.79</ele>
        <time>2021-08-20T15:51:17Z</time>
      </trkpt>
      <trkpt lat="43.17652" lon="-1.17277">
        <ele>269.79</ele>
        <time>2021-08-20T15:51:20Z</time>
      </trkpt>
      <trkpt lat="43.1765" lon="-1.17278">
        <ele>269.79</ele>
        <time>2021-08-20T15:51:21Z</time>
      </trkpt>
      <trkpt lat="43.17648" lon="-1.17278">
        <ele>270.27</ele>
        <time>2021-08-20T15:51:22Z</time>
      </trkpt>
      <trkpt lat="43.17646" lon="-1.17279">
        <ele>270.27</ele>
        <time>2021-08-20T15:51:23Z</time>
      </trkpt>
      <trkpt lat="43.17645" lon="-1.1728">
        <ele>270.27</ele>
        <time>2021-08-20T15:51:24Z</time>
      </trkpt>
      <trkpt lat="43.17643" lon="-1.1728">
        <ele>270.75</ele>
        <time>2021-08-20T15:51:25Z</time>
      </trkpt>
      <trkpt lat="43.17641" lon="-1.17281">
        <ele>270.75</ele>
        <time>2021-08-20T15:51:26Z</time>
      </trkpt>
      <trkpt lat="43.1764" lon="-1.17281">
        <ele>270.75</ele>
        <time>2021-08-20T15:51:27Z</time>
      </trkpt>
      <trkpt lat="43.17638" lon="-1.17281">
        <ele>270.75</ele>
        <time>2021-08-20T15:51:28Z</time>
      </trkpt>
      <trkpt lat="43.17636" lon="-1.17281">
        <ele>270.75</ele>
        <time>2021-08-20T15:51:29Z</time>
      </trkpt>
      <trkpt lat="43.17634" lon="-1.17282">
        <ele>271.71</ele>
        <time>2021-08-20T15:51:30Z</time>
      </trkpt>
      <trkpt lat="43.17632" lon="-1.17282">
        <ele>271.71</ele>
        <time>2021-08-20T15:51:31Z</time>
      </trkpt>
      <trkpt lat="43.17631" lon="-1.17283">
        <ele>271.71</ele>
        <time>2021-08-20T15:51:32Z</time>
      </trkpt>
      <trkpt lat="43.17629" lon="-1.17283">
        <ele>271.71</ele>
        <time>2021-08-20T15:51:33Z</time>
      </trkpt>
      <trkpt lat="43.17627" lon="-1.17284">
        <ele>271.71</ele>
        <time>2021-08-20T15:51:34Z</time>
      </trkpt>
      <trkpt lat="43.17624" lon="-1.17285">
        <ele>272.19</ele>
        <time>2021-08-20T15:51:36Z</time>
      </trkpt>
      <trkpt lat="43.17622" lon="-1.17285">
        <ele>272.19</ele>
        <time>2021-08-20T15:51:37Z</time>
      </trkpt>
      <trkpt lat="43.1762" lon="-1.17286">
        <ele>272.19</ele>
        <time>2021-08-20T15:51:38Z</time>
      </trkpt>
      <trkpt lat="43.17606" lon="-1.17292">
        <ele>273.63</ele>
        <time>2021-08-20T15:51:46Z</time>
      </trkpt>
      <trkpt lat="43.17587" lon="-1.17294">
        <ele>274.59</ele>
        <time>2021-08-20T15:51:56Z</time>
      </trkpt>
      <trkpt lat="43.17567" lon="-1.17298">
        <ele>273.15</ele>
        <time>2021-08-20T15:52:04Z</time>
      </trkpt>
      <trkpt lat="43.17565" lon="-1.17298">
        <ele>273.15</ele>
        <time>2021-08-20T15:52:05Z</time>
      </trkpt>
      <trkpt lat="43.17561" lon="-1.17298">
        <ele>273.15</ele>
        <time>2021-08-20T15:52:10Z</time>
      </trkpt>
      <trkpt lat="43.17561" lon="-1.17299">
        <ele>273.15</ele>
        <time>2021-08-20T15:52:25Z</time>
      </trkpt>
      <trkpt lat="43.17561" lon="-1.17299">
        <ele>272.67</ele>
        <time>2021-08-20T15:52:43Z</time>
      </trkpt>
      <trkpt lat="43.17561" lon="-1.17298">
        <ele>272.67</ele>
        <time>2021-08-20T15:53:02Z</time>
      </trkpt>
      <trkpt lat="43.17562" lon="-1.17297">
        <ele>272.67</ele>
        <time>2021-08-20T15:53:25Z</time>
      </trkpt>
      <trkpt lat="43.17562" lon="-1.17299">
        <ele>272.67</ele>
        <time>2021-08-20T15:53:35Z</time>
      </trkpt>
      <trkpt lat="43.17563" lon="-1.17299">
        <ele>272.67</ele>
        <time>2021-08-20T15:53:41Z</time>
      </trkpt>
      <trkpt lat="43.17562" lon="-1.17299">
        <ele>272.67</ele>
        <time>2021-08-20T15:53:55Z</time>
      </trkpt>
      <trkpt lat="43.17564" lon="-1.17299">
        <ele>272.67</ele>
        <time>2021-08-20T15:54:24Z</time>
      </trkpt>
      <trkpt lat="43.17563" lon="-1.17301">
        <ele>272.67</ele>
        <time>2021-08-20T15:54:49Z</time>
      </trkpt>
      <trkpt lat="43.17562" lon="-1.17299">
        <ele>272.67</ele>
        <time>2021-08-20T15:55:07Z</time>
      </trkpt>
      <trkpt lat="43.17562" lon="-1.17297">
        <ele>272.67</ele>
        <time>2021-08-20T15:55:28Z</time>
      </trkpt>
      <trkpt lat="43.17561" lon="-1.17297">
        <ele>272.67</ele>
        <time>2021-08-20T15:55:52Z</time>
      </trkpt>
      <trkpt lat="43.17561" lon="-1.17297">
        <ele>272.67</ele>
        <time>2021-08-20T15:55:53Z</time>
      </trkpt>
      <trkpt lat="43.17559" lon="-1.17296">
        <ele>272.67</ele>
        <time>2021-08-20T15:55:54Z</time>
      </trkpt>
      <trkpt lat="43.17557" lon="-1.17296">
        <ele>272.67</ele>
        <time>2021-08-20T15:55:55Z</time>
      </trkpt>
      <trkpt lat="43.17554" lon="-1.17295">
        <ele>272.19</ele>
        <time>2021-08-20T15:55:56Z</time>
      </trkpt>
      <trkpt lat="43.17551" lon="-1.17294">
        <ele>271.71</ele>
        <time>2021-08-20T15:55:57Z</time>
      </trkpt>
      <trkpt lat="43.17548" lon="-1.17293">
        <ele>271.71</ele>
        <time>2021-08-20T15:55:58Z</time>
      </trkpt>
      <trkpt lat="43.17544" lon="-1.17291">
        <ele>271.23</ele>
        <time>2021-08-20T15:55:59Z</time>
      </trkpt>
      <trkpt lat="43.17509" lon="-1.17273">
        <ele>268.35</ele>
        <time>2021-08-20T15:56:05Z</time>
      </trkpt>
      <trkpt lat="43.17484" lon="-1.17264">
        <ele>264.98</ele>
        <time>2021-08-20T15:56:08Z</time>
      </trkpt>
      <trkpt lat="43.17455" lon="-1.17251">
        <ele>259.69</ele>
        <time>2021-08-20T15:56:11Z</time>
      </trkpt>
      <trkpt lat="43.17429" lon="-1.17242">
        <ele>256.33</ele>
        <time>2021-08-20T15:56:14Z</time>
      </trkpt>
      <trkpt lat="43.17422" lon="-1.17237">
        <ele>254.89</ele>
        <time>2021-08-20T15:56:15Z</time>
      </trkpt>
      <trkpt lat="43.17415" lon="-1.17229">
        <ele>253.93</ele>
        <time>2021-08-20T15:56:16Z</time>
      </trkpt>
      <trkpt lat="43.17411" lon="-1.17219">
        <ele>252.96</ele>
        <time>2021-08-20T15:56:17Z</time>
      </trkpt>
      <trkpt lat="43.17407" lon="-1.17211">
        <ele>252</ele>
        <time>2021-08-20T15:56:18Z</time>
      </trkpt>
      <trkpt lat="43.17402" lon="-1.17203">
        <ele>251.52</ele>
        <time>2021-08-20T15:56:19Z</time>
      </trkpt>
      <trkpt lat="43.17396" lon="-1.17198">
        <ele>250.08</ele>
        <time>2021-08-20T15:56:20Z</time>
      </trkpt>
      <trkpt lat="43.17389" lon="-1.17196">
        <ele>249.12</ele>
        <time>2021-08-20T15:56:21Z</time>
      </trkpt>
      <trkpt lat="43.17382" lon="-1.17199">
        <ele>248.16</ele>
        <time>2021-08-20T15:56:22Z</time>
      </trkpt>
      <trkpt lat="43.17377" lon="-1.17205">
        <ele>246.72</ele>
        <time>2021-08-20T15:56:23Z</time>
      </trkpt>
      <trkpt lat="43.17374" lon="-1.17214">
        <ele>246.72</ele>
        <time>2021-08-20T15:56:24Z</time>
      </trkpt>
      <trkpt lat="43.17373" lon="-1.17224">
        <ele>246.23</ele>
        <time>2021-08-20T15:56:25Z</time>
      </trkpt>
      <trkpt lat="43.17371" lon="-1.17235">
        <ele>245.75</ele>
        <time>2021-08-20T15:56:26Z</time>
      </trkpt>
      <trkpt lat="43.17367" lon="-1.17243">
        <ele>245.27</ele>
        <time>2021-08-20T15:56:27Z</time>
      </trkpt>
      <trkpt lat="43.17362" lon="-1.1725">
        <ele>244.31</ele>
        <time>2021-08-20T15:56:28Z</time>
      </trkpt>
      <trkpt lat="43.17355" lon="-1.17254">
        <ele>242.87</ele>
        <time>2021-08-20T15:56:29Z</time>
      </trkpt>
      <trkpt lat="43.17346" lon="-1.17255">
        <ele>240.47</ele>
        <time>2021-08-20T15:56:30Z</time>
      </trkpt>
      <trkpt lat="43.17337" lon="-1.17254">
        <ele>238.54</ele>
        <time>2021-08-20T15:56:31Z</time>
      </trkpt>
      <trkpt lat="43.17326" lon="-1.17252">
        <ele>236.62</ele>
        <time>2021-08-20T15:56:32Z</time>
      </trkpt>
      <trkpt lat="43.17314" lon="-1.17248">
        <ele>234.22</ele>
        <time>2021-08-20T15:56:33Z</time>
      </trkpt>
      <trkpt lat="43.17302" lon="-1.17243">
        <ele>232.78</ele>
        <time>2021-08-20T15:56:34Z</time>
      </trkpt>
      <trkpt lat="43.1729" lon="-1.17236">
        <ele>231.81</ele>
        <time>2021-08-20T15:56:35Z</time>
      </trkpt>
      <trkpt lat="43.17279" lon="-1.17229">
        <ele>230.37</ele>
        <time>2021-08-20T15:56:36Z</time>
      </trkpt>
      <trkpt lat="43.17257" lon="-1.17212">
        <ele>229.41</ele>
        <time>2021-08-20T15:56:38Z</time>
      </trkpt>
      <trkpt lat="43.17246" lon="-1.17202">
        <ele>228.45</ele>
        <time>2021-08-20T15:56:39Z</time>
      </trkpt>
      <trkpt lat="43.17204" lon="-1.17162">
        <ele>225.57</ele>
        <time>2021-08-20T15:56:43Z</time>
      </trkpt>
      <trkpt lat="43.17158" lon="-1.17131">
        <ele>221.72</ele>
        <time>2021-08-20T15:56:47Z</time>
      </trkpt>
      <trkpt lat="43.17148" lon="-1.17121">
        <ele>220.28</ele>
        <time>2021-08-20T15:56:48Z</time>
      </trkpt>
      <trkpt lat="43.17139" lon="-1.1711">
        <ele>220.28</ele>
        <time>2021-08-20T15:56:49Z</time>
      </trkpt>
      <trkpt lat="43.17112" lon="-1.17079">
        <ele>219.32</ele>
        <time>2021-08-20T15:56:52Z</time>
      </trkpt>
      <trkpt lat="43.17103" lon="-1.17072">
        <ele>219.32</ele>
        <time>2021-08-20T15:56:53Z</time>
      </trkpt>
      <trkpt lat="43.17093" lon="-1.17067">
        <ele>219.32</ele>
        <time>2021-08-20T15:56:54Z</time>
      </trkpt>
      <trkpt lat="43.17082" lon="-1.17063">
        <ele>219.32</ele>
        <time>2021-08-20T15:56:55Z</time>
      </trkpt>
      <trkpt lat="43.17072" lon="-1.17062">
        <ele>219.32</ele>
        <time>2021-08-20T15:56:56Z</time>
      </trkpt>
      <trkpt lat="43.17062" lon="-1.17062">
        <ele>219.32</ele>
        <time>2021-08-20T15:56:57Z</time>
      </trkpt>
      <trkpt lat="43.17052" lon="-1.17063">
        <ele>219.32</ele>
        <time>2021-08-20T15:56:58Z</time>
      </trkpt>
      <trkpt lat="43.17043" lon="-1.17064">
        <ele>219.32</ele>
        <time>2021-08-20T15:56:59Z</time>
      </trkpt>
      <trkpt lat="43.16993" lon="-1.17076">
        <ele>219.8</ele>
        <time>2021-08-20T15:57:05Z</time>
      </trkpt>
      <trkpt lat="43.16974" lon="-1.17086">
        <ele>220.76</ele>
        <time>2021-08-20T15:57:08Z</time>
      </trkpt>
      <trkpt lat="43.16927" lon="-1.17105">
        <ele>223.16</ele>
        <time>2021-08-20T15:57:16Z</time>
      </trkpt>
      <trkpt lat="43.16891" lon="-1.17113">
        <ele>224.12</ele>
        <time>2021-08-20T15:57:23Z</time>
      </trkpt>
      <trkpt lat="43.16857" lon="-1.17116">
        <ele>225.09</ele>
        <time>2021-08-20T15:57:30Z</time>
      </trkpt>
      <trkpt lat="43.16823" lon="-1.17111">
        <ele>226.05</ele>
        <time>2021-08-20T15:57:38Z</time>
      </trkpt>
      <trkpt lat="43.16819" lon="-1.17112">
        <ele>226.53</ele>
        <time>2021-08-20T15:57:39Z</time>
      </trkpt>
      <trkpt lat="43.16815" lon="-1.17114">
        <ele>226.53</ele>
        <time>2021-08-20T15:57:40Z</time>
      </trkpt>
      <trkpt lat="43.1679" lon="-1.17131">
        <ele>227.01</ele>
        <time>2021-08-20T15:57:46Z</time>
      </trkpt>
      <trkpt lat="43.16753" lon="-1.17151">
        <ele>225.09</ele>
        <time>2021-08-20T15:57:53Z</time>
      </trkpt>
      <trkpt lat="43.1672" lon="-1.17166">
        <ele>224.61</ele>
        <time>2021-08-20T15:57:59Z</time>
      </trkpt>
      <trkpt lat="43.16715" lon="-1.17169">
        <ele>224.12</ele>
        <time>2021-08-20T15:58:00Z</time>
      </trkpt>
      <trkpt lat="43.16704" lon="-1.17175">
        <ele>224.12</ele>
        <time>2021-08-20T15:58:02Z</time>
      </trkpt>
      <trkpt lat="43.16689" lon="-1.17191">
        <ele>223.16</ele>
        <time>2021-08-20T15:58:05Z</time>
      </trkpt>
      <trkpt lat="43.16684" lon="-1.17197">
        <ele>223.16</ele>
        <time>2021-08-20T15:58:06Z</time>
      </trkpt>
      <trkpt lat="43.16673" lon="-1.17207">
        <ele>222.2</ele>
        <time>2021-08-20T15:58:08Z</time>
      </trkpt>
      <trkpt lat="43.16667" lon="-1.1721">
        <ele>221.72</ele>
        <time>2021-08-20T15:58:09Z</time>
      </trkpt>
      <trkpt lat="43.1666" lon="-1.17211">
        <ele>221.72</ele>
        <time>2021-08-20T15:58:10Z</time>
      </trkpt>
      <trkpt lat="43.16653" lon="-1.17212">
        <ele>221.24</ele>
        <time>2021-08-20T15:58:11Z</time>
      </trkpt>
      <trkpt lat="43.16646" lon="-1.17214">
        <ele>220.28</ele>
        <time>2021-08-20T15:58:12Z</time>
      </trkpt>
      <trkpt lat="43.16639" lon="-1.17217">
        <ele>220.28</ele>
        <time>2021-08-20T15:58:13Z</time>
      </trkpt>
      <trkpt lat="43.16632" lon="-1.1722">
        <ele>219.8</ele>
        <time>2021-08-20T15:58:14Z</time>
      </trkpt>
      <trkpt lat="43.16625" lon="-1.17224">
        <ele>219.8</ele>
        <time>2021-08-20T15:58:15Z</time>
      </trkpt>
      <trkpt lat="43.16566" lon="-1.1726">
        <ele>218.84</ele>
        <time>2021-08-20T15:58:24Z</time>
      </trkpt>
      <trkpt lat="43.16536" lon="-1.17272">
        <ele>220.28</ele>
        <time>2021-08-20T15:58:30Z</time>
      </trkpt>
      <trkpt lat="43.16507" lon="-1.17287">
        <ele>217.88</ele>
        <time>2021-08-20T15:58:35Z</time>
      </trkpt>
      <trkpt lat="43.165" lon="-1.17293">
        <ele>216.91</ele>
        <time>2021-08-20T15:58:36Z</time>
      </trkpt>
      <trkpt lat="43.16494" lon="-1.173">
        <ele>216.43</ele>
        <time>2021-08-20T15:58:37Z</time>
      </trkpt>
      <trkpt lat="43.16488" lon="-1.17307">
        <ele>215.47</ele>
        <time>2021-08-20T15:58:38Z</time>
      </trkpt>
      <trkpt lat="43.16482" lon="-1.17315">
        <ele>215.47</ele>
        <time>2021-08-20T15:58:39Z</time>
      </trkpt>
      <trkpt lat="43.16442" lon="-1.17355">
        <ele>214.51</ele>
        <time>2021-08-20T15:58:45Z</time>
      </trkpt>
      <trkpt lat="43.16398" lon="-1.17384">
        <ele>212.59</ele>
        <time>2021-08-20T15:58:51Z</time>
      </trkpt>
      <trkpt lat="43.1639" lon="-1.17387">
        <ele>212.59</ele>
        <time>2021-08-20T15:58:52Z</time>
      </trkpt>
      <trkpt lat="43.1636" lon="-1.17402">
        <ele>212.11</ele>
        <time>2021-08-20T15:58:56Z</time>
      </trkpt>
      <trkpt lat="43.16353" lon="-1.17408">
        <ele>211.63</ele>
        <time>2021-08-20T15:58:57Z</time>
      </trkpt>
      <trkpt lat="43.16348" lon="-1.17416">
        <ele>211.63</ele>
        <time>2021-08-20T15:58:58Z</time>
      </trkpt>
      <trkpt lat="43.163" lon="-1.17498">
        <ele>210.67</ele>
        <time>2021-08-20T15:59:08Z</time>
      </trkpt>
      <trkpt lat="43.16265" lon="-1.17565">
        <ele>210.67</ele>
        <time>2021-08-20T15:59:17Z</time>
      </trkpt>
      <trkpt lat="43.16223" lon="-1.17643">
        <ele>210.67</ele>
        <time>2021-08-20T15:59:28Z</time>
      </trkpt>
      <trkpt lat="43.16218" lon="-1.1765">
        <ele>210.67</ele>
        <time>2021-08-20T15:59:29Z</time>
      </trkpt>
      <trkpt lat="43.16214" lon="-1.17657">
        <ele>210.67</ele>
        <time>2021-08-20T15:59:30Z</time>
      </trkpt>
      <trkpt lat="43.16211" lon="-1.17664">
        <ele>210.19</ele>
        <time>2021-08-20T15:59:31Z</time>
      </trkpt>
      <trkpt lat="43.16184" lon="-1.17717">
        <ele>207.3</ele>
        <time>2021-08-20T15:59:37Z</time>
      </trkpt>
      <trkpt lat="43.16144" lon="-1.17799">
        <ele>204.9</ele>
        <time>2021-08-20T15:59:46Z</time>
      </trkpt>
      <trkpt lat="43.16113" lon="-1.17861">
        <ele>205.38</ele>
        <time>2021-08-20T15:59:54Z</time>
      </trkpt>
      <trkpt lat="43.16085" lon="-1.17915">
        <ele>205.38</ele>
        <time>2021-08-20T16:00:02Z</time>
      </trkpt>
      <trkpt lat="43.16061" lon="-1.17967">
        <ele>204.9</ele>
        <time>2021-08-20T16:00:09Z</time>
      </trkpt>
      <trkpt lat="43.16051" lon="-1.17996">
        <ele>206.34</ele>
        <time>2021-08-20T16:00:13Z</time>
      </trkpt>
      <trkpt lat="43.1605" lon="-1.18003">
        <ele>206.82</ele>
        <time>2021-08-20T16:00:14Z</time>
      </trkpt>
      <trkpt lat="43.16052" lon="-1.18033">
        <ele>208.26</ele>
        <time>2021-08-20T16:00:20Z</time>
      </trkpt>
      <trkpt lat="43.16055" lon="-1.18057">
        <ele>208.74</ele>
        <time>2021-08-20T16:00:26Z</time>
      </trkpt>
      <trkpt lat="43.16064" lon="-1.18094">
        <ele>209.7</ele>
        <time>2021-08-20T16:00:34Z</time>
      </trkpt>
      <trkpt lat="43.1607" lon="-1.18123">
        <ele>210.67</ele>
        <time>2021-08-20T16:00:40Z</time>
      </trkpt>
      <trkpt lat="43.16077" lon="-1.18149">
        <ele>211.15</ele>
        <time>2021-08-20T16:00:46Z</time>
      </trkpt>
      <trkpt lat="43.16087" lon="-1.18182">
        <ele>211.15</ele>
        <time>2021-08-20T16:00:53Z</time>
      </trkpt>
      <trkpt lat="43.16102" lon="-1.182">
        <ele>213.07</ele>
        <time>2021-08-20T16:01:00Z</time>
      </trkpt>
      <trkpt lat="43.16121" lon="-1.18209">
        <ele>214.99</ele>
        <time>2021-08-20T16:01:09Z</time>
      </trkpt>
      <trkpt lat="43.1614" lon="-1.18225">
        <ele>216.91</ele>
        <time>2021-08-20T16:01:19Z</time>
      </trkpt>
      <trkpt lat="43.16153" lon="-1.18241">
        <ele>217.88</ele>
        <time>2021-08-20T16:01:27Z</time>
      </trkpt>
      <trkpt lat="43.16164" lon="-1.18264">
        <ele>218.36</ele>
        <time>2021-08-20T16:01:35Z</time>
      </trkpt>
      <trkpt lat="43.16176" lon="-1.18296">
        <ele>218.36</ele>
        <time>2021-08-20T16:01:43Z</time>
      </trkpt>
      <trkpt lat="43.16189" lon="-1.18327">
        <ele>219.8</ele>
        <time>2021-08-20T16:01:52Z</time>
      </trkpt>
      <trkpt lat="43.162" lon="-1.1836">
        <ele>220.76</ele>
        <time>2021-08-20T16:02:02Z</time>
      </trkpt>
      <trkpt lat="43.16207" lon="-1.18394">
        <ele>223.16</ele>
        <time>2021-08-20T16:02:12Z</time>
      </trkpt>
      <trkpt lat="43.16214" lon="-1.18424">
        <ele>225.09</ele>
        <time>2021-08-20T16:02:22Z</time>
      </trkpt>
      <trkpt lat="43.16222" lon="-1.18453">
        <ele>226.05</ele>
        <time>2021-08-20T16:02:32Z</time>
      </trkpt>
      <trkpt lat="43.16233" lon="-1.1848">
        <ele>226.53</ele>
        <time>2021-08-20T16:02:40Z</time>
      </trkpt>
      <trkpt lat="43.16239" lon="-1.18511">
        <ele>226.53</ele>
        <time>2021-08-20T16:02:48Z</time>
      </trkpt>
      <trkpt lat="43.16248" lon="-1.18536">
        <ele>226.53</ele>
        <time>2021-08-20T16:02:55Z</time>
      </trkpt>
      <trkpt lat="43.16249" lon="-1.1854">
        <ele>226.53</ele>
        <time>2021-08-20T16:02:56Z</time>
      </trkpt>
      <trkpt lat="43.16251" lon="-1.18543">
        <ele>226.53</ele>
        <time>2021-08-20T16:02:57Z</time>
      </trkpt>
      <trkpt lat="43.16267" lon="-1.18569">
        <ele>225.09</ele>
        <time>2021-08-20T16:03:04Z</time>
      </trkpt>
      <trkpt lat="43.1627" lon="-1.18573">
        <ele>225.09</ele>
        <time>2021-08-20T16:03:05Z</time>
      </trkpt>
      <trkpt lat="43.16297" lon="-1.18613">
        <ele>223.64</ele>
        <time>2021-08-20T16:03:13Z</time>
      </trkpt>
      <trkpt lat="43.16317" lon="-1.18647">
        <ele>222.2</ele>
        <time>2021-08-20T16:03:19Z</time>
      </trkpt>
      <trkpt lat="43.16341" lon="-1.18706">
        <ele>219.32</ele>
        <time>2021-08-20T16:03:28Z</time>
      </trkpt>
      <trkpt lat="43.16362" lon="-1.1876">
        <ele>216.43</ele>
        <time>2021-08-20T16:03:34Z</time>
      </trkpt>
      <trkpt lat="43.16396" lon="-1.18844">
        <ele>214.51</ele>
        <time>2021-08-20T16:03:43Z</time>
      </trkpt>
      <trkpt lat="43.16418" lon="-1.18898">
        <ele>214.51</ele>
        <time>2021-08-20T16:03:50Z</time>
      </trkpt>
      <trkpt lat="43.16437" lon="-1.18977">
        <ele>213.07</ele>
        <time>2021-08-20T16:04:00Z</time>
      </trkpt>
      <trkpt lat="43.1644" lon="-1.19023">
        <ele>209.7</ele>
        <time>2021-08-20T16:04:05Z</time>
      </trkpt>
      <trkpt lat="43.16443" lon="-1.19043">
        <ele>208.74</ele>
        <time>2021-08-20T16:04:07Z</time>
      </trkpt>
      <trkpt lat="43.16445" lon="-1.19052">
        <ele>208.26</ele>
        <time>2021-08-20T16:04:08Z</time>
      </trkpt>
      <trkpt lat="43.16461" lon="-1.19108">
        <ele>208.26</ele>
        <time>2021-08-20T16:04:15Z</time>
      </trkpt>
      <trkpt lat="43.16463" lon="-1.19113">
        <ele>208.26</ele>
        <time>2021-08-20T16:04:16Z</time>
      </trkpt>
      <trkpt lat="43.16463" lon="-1.19119">
        <ele>208.26</ele>
        <time>2021-08-20T16:04:17Z</time>
      </trkpt>
      <trkpt lat="43.16461" lon="-1.19125">
        <ele>208.26</ele>
        <time>2021-08-20T16:04:18Z</time>
      </trkpt>
      <trkpt lat="43.16458" lon="-1.1913">
        <ele>208.26</ele>
        <time>2021-08-20T16:04:19Z</time>
      </trkpt>
      <trkpt lat="43.16455" lon="-1.19135">
        <ele>207.78</ele>
        <time>2021-08-20T16:04:20Z</time>
      </trkpt>
      <trkpt lat="43.16436" lon="-1.19173">
        <ele>205.86</ele>
        <time>2021-08-20T16:04:26Z</time>
      </trkpt>
      <trkpt lat="43.16434" lon="-1.19181">
        <ele>205.86</ele>
        <time>2021-08-20T16:04:27Z</time>
      </trkpt>
      <trkpt lat="43.16433" lon="-1.19189">
        <ele>205.86</ele>
        <time>2021-08-20T16:04:28Z</time>
      </trkpt>
      <trkpt lat="43.16433" lon="-1.19196">
        <ele>205.86</ele>
        <time>2021-08-20T16:04:29Z</time>
      </trkpt>
      <trkpt lat="43.16433" lon="-1.19204">
        <ele>206.34</ele>
        <time>2021-08-20T16:04:30Z</time>
      </trkpt>
      <trkpt lat="43.16433" lon="-1.19211">
        <ele>206.34</ele>
        <time>2021-08-20T16:04:31Z</time>
      </trkpt>
      <trkpt lat="43.16438" lon="-1.19278">
        <ele>205.86</ele>
        <time>2021-08-20T16:04:40Z</time>
      </trkpt>
      <trkpt lat="43.16437" lon="-1.193">
        <ele>205.86</ele>
        <time>2021-08-20T16:04:43Z</time>
      </trkpt>
      <trkpt lat="43.16438" lon="-1.19306">
        <ele>205.86</ele>
        <time>2021-08-20T16:04:44Z</time>
      </trkpt>
      <trkpt lat="43.16444" lon="-1.19332">
        <ele>205.86</ele>
        <time>2021-08-20T16:04:49Z</time>
      </trkpt>
      <trkpt lat="43.16458" lon="-1.19342">
        <ele>205.86</ele>
        <time>2021-08-20T16:04:54Z</time>
      </trkpt>
      <trkpt lat="43.16474" lon="-1.19352">
        <ele>207.3</ele>
        <time>2021-08-20T16:05:00Z</time>
      </trkpt>
      <trkpt lat="43.16477" lon="-1.19353">
        <ele>207.3</ele>
        <time>2021-08-20T16:05:01Z</time>
      </trkpt>
      <trkpt lat="43.16493" lon="-1.19361">
        <ele>207.78</ele>
        <time>2021-08-20T16:05:08Z</time>
      </trkpt>
      <trkpt lat="43.16512" lon="-1.19369">
        <ele>208.74</ele>
        <time>2021-08-20T16:05:17Z</time>
      </trkpt>
      <trkpt lat="43.16529" lon="-1.19376">
        <ele>209.7</ele>
        <time>2021-08-20T16:05:25Z</time>
      </trkpt>
      <trkpt lat="43.1654" lon="-1.19384">
        <ele>210.19</ele>
        <time>2021-08-20T16:05:32Z</time>
      </trkpt>
      <trkpt lat="43.16544" lon="-1.19387">
        <ele>210.19</ele>
        <time>2021-08-20T16:05:35Z</time>
      </trkpt>
      <trkpt lat="43.16546" lon="-1.19387">
        <ele>210.19</ele>
        <time>2021-08-20T16:05:36Z</time>
      </trkpt>
      <trkpt lat="43.16548" lon="-1.19386">
        <ele>210.19</ele>
        <time>2021-08-20T16:05:37Z</time>
      </trkpt>
      <trkpt lat="43.1655" lon="-1.19385">
        <ele>210.19</ele>
        <time>2021-08-20T16:05:38Z</time>
      </trkpt>
      <trkpt lat="43.16551" lon="-1.19383">
        <ele>210.19</ele>
        <time>2021-08-20T16:05:39Z</time>
      </trkpt>
      <trkpt lat="43.16554" lon="-1.19382">
        <ele>210.19</ele>
        <time>2021-08-20T16:05:40Z</time>
      </trkpt>
      <trkpt lat="43.16556" lon="-1.19381">
        <ele>210.19</ele>
        <time>2021-08-20T16:05:41Z</time>
      </trkpt>
      <trkpt lat="43.16558" lon="-1.19381">
        <ele>210.19</ele>
        <time>2021-08-20T16:05:42Z</time>
      </trkpt>
      <trkpt lat="43.16567" lon="-1.1938">
        <ele>210.19</ele>
        <time>2021-08-20T16:05:46Z</time>
      </trkpt>
      <trkpt lat="43.16569" lon="-1.19382">
        <ele>210.19</ele>
        <time>2021-08-20T16:05:47Z</time>
      </trkpt>
      <trkpt lat="43.1657" lon="-1.19385">
        <ele>210.19</ele>
        <time>2021-08-20T16:05:48Z</time>
      </trkpt>
      <trkpt lat="43.16577" lon="-1.19401">
        <ele>210.19</ele>
        <time>2021-08-20T16:05:55Z</time>
      </trkpt>
      <trkpt lat="43.16577" lon="-1.19401">
        <ele>210.19</ele>
        <time>2021-08-20T16:06:03Z</time>
      </trkpt>
      <trkpt lat="43.16576" lon="-1.19402">
        <ele>210.19</ele>
        <time>2021-08-20T16:06:08Z</time>
      </trkpt>
      <trkpt lat="43.16575" lon="-1.19403">
        <ele>210.19</ele>
        <time>2021-08-20T16:06:09Z</time>
      </trkpt>
      <trkpt lat="43.16574" lon="-1.19403">
        <ele>210.19</ele>
        <time>2021-08-20T16:06:10Z</time>
      </trkpt>
      <trkpt lat="43.16572" lon="-1.19403">
        <ele>210.19</ele>
        <time>2021-08-20T16:06:11Z</time>
      </trkpt>
      <trkpt lat="43.16571" lon="-1.19403">
        <ele>210.19</ele>
        <time>2021-08-20T16:06:12Z</time>
      </trkpt>
      <trkpt lat="43.1657" lon="-1.19402">
        <ele>210.19</ele>
        <time>2021-08-20T16:06:13Z</time>
      </trkpt>
      <trkpt lat="43.1657" lon="-1.194">
        <ele>210.19</ele>
        <time>2021-08-20T16:06:14Z</time>
      </trkpt>
      <trkpt lat="43.16571" lon="-1.19398">
        <ele>210.19</ele>
        <time>2021-08-20T16:06:15Z</time>
      </trkpt>
      <trkpt lat="43.16572" lon="-1.19397">
        <ele>210.19</ele>
        <time>2021-08-20T16:06:16Z</time>
      </trkpt>
      <trkpt lat="43.16574" lon="-1.19395">
        <ele>210.19</ele>
        <time>2021-08-20T16:06:17Z</time>
      </trkpt>
      <trkpt lat="43.16577" lon="-1.19394">
        <ele>210.19</ele>
        <time>2021-08-20T16:06:18Z</time>
      </trkpt>
      <trkpt lat="43.16579" lon="-1.19395">
        <ele>210.19</ele>
        <time>2021-08-20T16:06:19Z</time>
      </trkpt>
      <trkpt lat="43.1658" lon="-1.19398">
        <ele>210.19</ele>
        <time>2021-08-20T16:06:20Z</time>
      </trkpt>
      <trkpt lat="43.16581" lon="-1.19404">
        <ele>210.19</ele>
        <time>2021-08-20T16:06:25Z</time>
      </trkpt>
      <trkpt lat="43.16582" lon="-1.19409">
        <ele>210.19</ele>
        <time>2021-08-20T16:06:32Z</time>
      </trkpt>
      <trkpt lat="43.16583" lon="-1.1941">
        <ele>210.19</ele>
        <time>2021-08-20T16:06:39Z</time>
      </trkpt>
      <trkpt lat="43.16585" lon="-1.19416">
        <ele>210.19</ele>
        <time>2021-08-20T16:06:49Z</time>
      </trkpt>
      <trkpt lat="43.16596" lon="-1.19433">
        <ele>210.19</ele>
        <time>2021-08-20T16:06:54Z</time>
      </trkpt>
      <trkpt lat="43.16622" lon="-1.19461">
        <ele>209.22</ele>
        <time>2021-08-20T16:07:02Z</time>
      </trkpt>
      <trkpt lat="43.16647" lon="-1.19499">
        <ele>207.78</ele>
        <time>2021-08-20T16:07:10Z</time>
      </trkpt>
      <trkpt lat="43.16649" lon="-1.19505">
        <ele>207.78</ele>
        <time>2021-08-20T16:07:11Z</time>
      </trkpt>
      <trkpt lat="43.16651" lon="-1.19511">
        <ele>207.78</ele>
        <time>2021-08-20T16:07:12Z</time>
      </trkpt>
      <trkpt lat="43.16653" lon="-1.19516">
        <ele>207.78</ele>
        <time>2021-08-20T16:07:13Z</time>
      </trkpt>
      <trkpt lat="43.16653" lon="-1.19522">
        <ele>207.78</ele>
        <time>2021-08-20T16:07:14Z</time>
      </trkpt>
      <trkpt lat="43.16654" lon="-1.19528">
        <ele>207.78</ele>
        <time>2021-08-20T16:07:15Z</time>
      </trkpt>
      <trkpt lat="43.16655" lon="-1.19534">
        <ele>207.78</ele>
        <time>2021-08-20T16:07:16Z</time>
      </trkpt>
      <trkpt lat="43.16656" lon="-1.19539">
        <ele>207.78</ele>
        <time>2021-08-20T16:07:17Z</time>
      </trkpt>
      <trkpt lat="43.16663" lon="-1.1957">
        <ele>207.3</ele>
        <time>2021-08-20T16:07:22Z</time>
      </trkpt>
      <trkpt lat="43.16671" lon="-1.19636">
        <ele>207.3</ele>
        <time>2021-08-20T16:07:31Z</time>
      </trkpt>
      <trkpt lat="43.1668" lon="-1.19683">
        <ele>206.82</ele>
        <time>2021-08-20T16:07:38Z</time>
      </trkpt>
      <trkpt lat="43.16684" lon="-1.19688">
        <ele>206.82</ele>
        <time>2021-08-20T16:07:39Z</time>
      </trkpt>
      <trkpt lat="43.16689" lon="-1.19691">
        <ele>206.82</ele>
        <time>2021-08-20T16:07:40Z</time>
      </trkpt>
      <trkpt lat="43.16698" lon="-1.19696">
        <ele>206.82</ele>
        <time>2021-08-20T16:07:42Z</time>
      </trkpt>
      <trkpt lat="43.16703" lon="-1.197">
        <ele>206.82</ele>
        <time>2021-08-20T16:07:43Z</time>
      </trkpt>
      <trkpt lat="43.16707" lon="-1.19706">
        <ele>206.82</ele>
        <time>2021-08-20T16:07:44Z</time>
      </trkpt>
      <trkpt lat="43.1671" lon="-1.19712">
        <ele>206.82</ele>
        <time>2021-08-20T16:07:45Z</time>
      </trkpt>
      <trkpt lat="43.16712" lon="-1.19719">
        <ele>206.82</ele>
        <time>2021-08-20T16:07:46Z</time>
      </trkpt>
      <trkpt lat="43.16713" lon="-1.19726">
        <ele>206.34</ele>
        <time>2021-08-20T16:07:47Z</time>
      </trkpt>
      <trkpt lat="43.16714" lon="-1.19734">
        <ele>206.34</ele>
        <time>2021-08-20T16:07:48Z</time>
      </trkpt>
      <trkpt lat="43.16716" lon="-1.19798">
        <ele>205.86</ele>
        <time>2021-08-20T16:07:55Z</time>
      </trkpt>
      <trkpt lat="43.16719" lon="-1.19869">
        <ele>204.9</ele>
        <time>2021-08-20T16:08:02Z</time>
      </trkpt>
      <trkpt lat="43.16728" lon="-1.19939">
        <ele>204.9</ele>
        <time>2021-08-20T16:08:10Z</time>
      </trkpt>
      <trkpt lat="43.16746" lon="-1.20015">
        <ele>201.53</ele>
        <time>2021-08-20T16:08:19Z</time>
      </trkpt>
      <trkpt lat="43.16749" lon="-1.20024">
        <ele>201.53</ele>
        <time>2021-08-20T16:08:20Z</time>
      </trkpt>
      <trkpt lat="43.16754" lon="-1.20031">
        <ele>201.05</ele>
        <time>2021-08-20T16:08:21Z</time>
      </trkpt>
      <trkpt lat="43.16759" lon="-1.20037">
        <ele>201.05</ele>
        <time>2021-08-20T16:08:22Z</time>
      </trkpt>
      <trkpt lat="43.16775" lon="-1.2005">
        <ele>201.05</ele>
        <time>2021-08-20T16:08:25Z</time>
      </trkpt>
      <trkpt lat="43.16777" lon="-1.20057">
        <ele>201.05</ele>
        <time>2021-08-20T16:08:26Z</time>
      </trkpt>
      <trkpt lat="43.16777" lon="-1.20063">
        <ele>201.05</ele>
        <time>2021-08-20T16:08:27Z</time>
      </trkpt>
      <trkpt lat="43.16775" lon="-1.20068">
        <ele>201.05</ele>
        <time>2021-08-20T16:08:28Z</time>
      </trkpt>
      <trkpt lat="43.16773" lon="-1.20072">
        <ele>201.05</ele>
        <time>2021-08-20T16:08:29Z</time>
      </trkpt>
      <trkpt lat="43.16772" lon="-1.20077">
        <ele>202.49</ele>
        <time>2021-08-20T16:08:30Z</time>
      </trkpt>
      <trkpt lat="43.1677" lon="-1.20082">
        <ele>202.49</ele>
        <time>2021-08-20T16:08:31Z</time>
      </trkpt>
      <trkpt lat="43.16767" lon="-1.20115">
        <ele>203.46</ele>
        <time>2021-08-20T16:08:38Z</time>
      </trkpt>
      <trkpt lat="43.16773" lon="-1.20142">
        <ele>203.46</ele>
        <time>2021-08-20T16:08:44Z</time>
      </trkpt>
      <trkpt lat="43.1678" lon="-1.20186">
        <ele>203.46</ele>
        <time>2021-08-20T16:08:54Z</time>
      </trkpt>
      <trkpt lat="43.16792" lon="-1.20233">
        <ele>203.46</ele>
        <time>2021-08-20T16:09:03Z</time>
      </trkpt>
      <trkpt lat="43.16807" lon="-1.20293">
        <ele>202.01</ele>
        <time>2021-08-20T16:09:13Z</time>
      </trkpt>
      <trkpt lat="43.16823" lon="-1.20345">
        <ele>200.57</ele>
        <time>2021-08-20T16:09:21Z</time>
      </trkpt>
      <trkpt lat="43.16843" lon="-1.20396">
        <ele>200.09</ele>
        <time>2021-08-20T16:09:29Z</time>
      </trkpt>
      <trkpt lat="43.16871" lon="-1.20449">
        <ele>199.61</ele>
        <time>2021-08-20T16:09:38Z</time>
      </trkpt>
      <trkpt lat="43.16881" lon="-1.20465">
        <ele>199.13</ele>
        <time>2021-08-20T16:09:41Z</time>
      </trkpt>
      <trkpt lat="43.16892" lon="-1.20488">
        <ele>199.13</ele>
        <time>2021-08-20T16:09:45Z</time>
      </trkpt>
      <trkpt lat="43.16894" lon="-1.20494">
        <ele>199.13</ele>
        <time>2021-08-20T16:09:46Z</time>
      </trkpt>
      <trkpt lat="43.16893" lon="-1.20501">
        <ele>199.13</ele>
        <time>2021-08-20T16:09:47Z</time>
      </trkpt>
      <trkpt lat="43.16891" lon="-1.20505">
        <ele>199.13</ele>
        <time>2021-08-20T16:09:48Z</time>
      </trkpt>
      <trkpt lat="43.16889" lon="-1.2051">
        <ele>199.13</ele>
        <time>2021-08-20T16:09:49Z</time>
      </trkpt>
      <trkpt lat="43.16886" lon="-1.20515">
        <ele>199.13</ele>
        <time>2021-08-20T16:09:50Z</time>
      </trkpt>
      <trkpt lat="43.16883" lon="-1.20519">
        <ele>199.13</ele>
        <time>2021-08-20T16:09:51Z</time>
      </trkpt>
      <trkpt lat="43.16857" lon="-1.20566">
        <ele>199.13</ele>
        <time>2021-08-20T16:10:01Z</time>
      </trkpt>
      <trkpt lat="43.16837" lon="-1.20606">
        <ele>198.17</ele>
        <time>2021-08-20T16:10:08Z</time>
      </trkpt>
      <trkpt lat="43.16811" lon="-1.20658">
        <ele>197.21</ele>
        <time>2021-08-20T16:10:16Z</time>
      </trkpt>
      <trkpt lat="43.16809" lon="-1.20666">
        <ele>196.73</ele>
        <time>2021-08-20T16:10:17Z</time>
      </trkpt>
      <trkpt lat="43.16791" lon="-1.20739">
        <ele>195.28</ele>
        <time>2021-08-20T16:10:26Z</time>
      </trkpt>
      <trkpt lat="43.16784" lon="-1.20767">
        <ele>193.36</ele>
        <time>2021-08-20T16:10:29Z</time>
      </trkpt>
      <trkpt lat="43.16772" lon="-1.20837">
        <ele>192.4</ele>
        <time>2021-08-20T16:10:37Z</time>
      </trkpt>
      <trkpt lat="43.1677" lon="-1.20851">
        <ele>192.4</ele>
        <time>2021-08-20T16:10:39Z</time>
      </trkpt>
      <trkpt lat="43.16768" lon="-1.20856">
        <ele>192.4</ele>
        <time>2021-08-20T16:10:40Z</time>
      </trkpt>
      <trkpt lat="43.16767" lon="-1.20861">
        <ele>192.4</ele>
        <time>2021-08-20T16:10:41Z</time>
      </trkpt>
      <trkpt lat="43.16766" lon="-1.20866">
        <ele>192.4</ele>
        <time>2021-08-20T16:10:42Z</time>
      </trkpt>
      <trkpt lat="43.16766" lon="-1.20871">
        <ele>192.4</ele>
        <time>2021-08-20T16:10:43Z</time>
      </trkpt>
      <trkpt lat="43.16765" lon="-1.20883">
        <ele>192.4</ele>
        <time>2021-08-20T16:10:45Z</time>
      </trkpt>
      <trkpt lat="43.16762" lon="-1.20915">
        <ele>190.96</ele>
        <time>2021-08-20T16:10:49Z</time>
      </trkpt>
      <trkpt lat="43.16752" lon="-1.20975">
        <ele>190</ele>
        <time>2021-08-20T16:10:56Z</time>
      </trkpt>
      <trkpt lat="43.16751" lon="-1.20981">
        <ele>190</ele>
        <time>2021-08-20T16:10:57Z</time>
      </trkpt>
      <trkpt lat="43.1675" lon="-1.20988">
        <ele>190</ele>
        <time>2021-08-20T16:10:58Z</time>
      </trkpt>
      <trkpt lat="43.16748" lon="-1.20995">
        <ele>190</ele>
        <time>2021-08-20T16:10:59Z</time>
      </trkpt>
      <trkpt lat="43.16746" lon="-1.21001">
        <ele>190</ele>
        <time>2021-08-20T16:11:00Z</time>
      </trkpt>
      <trkpt lat="43.16742" lon="-1.21007">
        <ele>190</ele>
        <time>2021-08-20T16:11:01Z</time>
      </trkpt>
      <trkpt lat="43.16738" lon="-1.21013">
        <ele>189.52</ele>
        <time>2021-08-20T16:11:02Z</time>
      </trkpt>
      <trkpt lat="43.16734" lon="-1.21017">
        <ele>189.52</ele>
        <time>2021-08-20T16:11:03Z</time>
      </trkpt>
      <trkpt lat="43.16729" lon="-1.21021">
        <ele>189.52</ele>
        <time>2021-08-20T16:11:04Z</time>
      </trkpt>
      <trkpt lat="43.16725" lon="-1.21025">
        <ele>189.04</ele>
        <time>2021-08-20T16:11:05Z</time>
      </trkpt>
      <trkpt lat="43.16721" lon="-1.21031">
        <ele>189.04</ele>
        <time>2021-08-20T16:11:06Z</time>
      </trkpt>
      <trkpt lat="43.1672" lon="-1.21037">
        <ele>189.04</ele>
        <time>2021-08-20T16:11:07Z</time>
      </trkpt>
      <trkpt lat="43.1672" lon="-1.21044">
        <ele>189.04</ele>
        <time>2021-08-20T16:11:08Z</time>
      </trkpt>
      <trkpt lat="43.16719" lon="-1.2105">
        <ele>189.04</ele>
        <time>2021-08-20T16:11:09Z</time>
      </trkpt>
      <trkpt lat="43.16719" lon="-1.21057">
        <ele>189.04</ele>
        <time>2021-08-20T16:11:10Z</time>
      </trkpt>
      <trkpt lat="43.16719" lon="-1.21062">
        <ele>189.04</ele>
        <time>2021-08-20T16:11:11Z</time>
      </trkpt>
      <trkpt lat="43.16718" lon="-1.21066">
        <ele>189.04</ele>
        <time>2021-08-20T16:11:12Z</time>
      </trkpt>
      <trkpt lat="43.16715" lon="-1.21069">
        <ele>189.04</ele>
        <time>2021-08-20T16:11:13Z</time>
      </trkpt>
      <trkpt lat="43.16711" lon="-1.21069">
        <ele>189.04</ele>
        <time>2021-08-20T16:11:14Z</time>
      </trkpt>
      <trkpt lat="43.16707" lon="-1.2107">
        <ele>188.56</ele>
        <time>2021-08-20T16:11:15Z</time>
      </trkpt>
      <trkpt lat="43.16703" lon="-1.2107">
        <ele>188.08</ele>
        <time>2021-08-20T16:11:16Z</time>
      </trkpt>
      <trkpt lat="43.16681" lon="-1.21072">
        <ele>186.63</ele>
        <time>2021-08-20T16:11:20Z</time>
      </trkpt>
      <trkpt lat="43.16668" lon="-1.21071">
        <ele>186.63</ele>
        <time>2021-08-20T16:11:23Z</time>
      </trkpt>
      <trkpt lat="43.16667" lon="-1.21068">
        <ele>186.63</ele>
        <time>2021-08-20T16:11:24Z</time>
      </trkpt>
      <trkpt lat="43.16666" lon="-1.21065">
        <ele>186.63</ele>
        <time>2021-08-20T16:11:25Z</time>
      </trkpt>
      <trkpt lat="43.16666" lon="-1.21063">
        <ele>186.63</ele>
        <time>2021-08-20T16:11:26Z</time>
      </trkpt>
      <trkpt lat="43.16666" lon="-1.21061">
        <ele>187.59</ele>
        <time>2021-08-20T16:11:27Z</time>
      </trkpt>
      <trkpt lat="43.16666" lon="-1.21058">
        <ele>187.59</ele>
        <time>2021-08-20T16:11:28Z</time>
      </trkpt>
      <trkpt lat="43.16665" lon="-1.21036">
        <ele>189.04</ele>
        <time>2021-08-20T16:11:36Z</time>
      </trkpt>
      <trkpt lat="43.16664" lon="-1.21031">
        <ele>189.52</ele>
        <time>2021-08-20T16:11:38Z</time>
      </trkpt>
      <trkpt lat="43.16662" lon="-1.21029">
        <ele>189.52</ele>
        <time>2021-08-20T16:11:39Z</time>
      </trkpt>
      <trkpt lat="43.16659" lon="-1.21029">
        <ele>189.52</ele>
        <time>2021-08-20T16:11:40Z</time>
      </trkpt>
      <trkpt lat="43.16655" lon="-1.21029">
        <ele>189.52</ele>
        <time>2021-08-20T16:11:41Z</time>
      </trkpt>
      <trkpt lat="43.16652" lon="-1.21031">
        <ele>189.52</ele>
        <time>2021-08-20T16:11:42Z</time>
      </trkpt>
      <trkpt lat="43.16648" lon="-1.21033">
        <ele>189.52</ele>
        <time>2021-08-20T16:11:43Z</time>
      </trkpt>
      <trkpt lat="43.16623" lon="-1.2104">
        <ele>189.52</ele>
        <time>2021-08-20T16:11:50Z</time>
      </trkpt>
      <trkpt lat="43.16608" lon="-1.2104">
        <ele>189.52</ele>
        <time>2021-08-20T16:11:55Z</time>
      </trkpt>
      <trkpt lat="43.16574" lon="-1.21059">
        <ele>189.52</ele>
        <time>2021-08-20T16:12:04Z</time>
      </trkpt>
      <trkpt lat="43.16543" lon="-1.21074">
        <ele>189.52</ele>
        <time>2021-08-20T16:12:13Z</time>
      </trkpt>
      <trkpt lat="43.16539" lon="-1.21082">
        <ele>189.52</ele>
        <time>2021-08-20T16:12:15Z</time>
      </trkpt>
      <trkpt lat="43.16538" lon="-1.21087">
        <ele>189.52</ele>
        <time>2021-08-20T16:12:16Z</time>
      </trkpt>
      <trkpt lat="43.16539" lon="-1.21092">
        <ele>189.52</ele>
        <time>2021-08-20T16:12:17Z</time>
      </trkpt>
      <trkpt lat="43.1654" lon="-1.21098">
        <ele>189.52</ele>
        <time>2021-08-20T16:12:18Z</time>
      </trkpt>
      <trkpt lat="43.16541" lon="-1.21104">
        <ele>189.52</ele>
        <time>2021-08-20T16:12:19Z</time>
      </trkpt>
      <trkpt lat="43.16542" lon="-1.21111">
        <ele>188.08</ele>
        <time>2021-08-20T16:12:20Z</time>
      </trkpt>
      <trkpt lat="43.16543" lon="-1.21118">
        <ele>187.11</ele>
        <time>2021-08-20T16:12:21Z</time>
      </trkpt>
      <trkpt lat="43.16544" lon="-1.21126">
        <ele>187.11</ele>
        <time>2021-08-20T16:12:22Z</time>
      </trkpt>
      <trkpt lat="43.16554" lon="-1.21214">
        <ele>185.67</ele>
        <time>2021-08-20T16:12:33Z</time>
      </trkpt>
      <trkpt lat="43.16562" lon="-1.2128">
        <ele>184.23</ele>
        <time>2021-08-20T16:12:41Z</time>
      </trkpt>
      <trkpt lat="43.16574" lon="-1.21364">
        <ele>183.27</ele>
        <time>2021-08-20T16:12:51Z</time>
      </trkpt>
      <trkpt lat="43.16582" lon="-1.21412">
        <ele>182.79</ele>
        <time>2021-08-20T16:12:57Z</time>
      </trkpt>
      <trkpt lat="43.16598" lon="-1.21482">
        <ele>181.83</ele>
        <time>2021-08-20T16:13:06Z</time>
      </trkpt>
      <trkpt lat="43.16615" lon="-1.21547">
        <ele>181.35</ele>
        <time>2021-08-20T16:13:15Z</time>
      </trkpt>
      <trkpt lat="43.16615" lon="-1.21553">
        <ele>181.35</ele>
        <time>2021-08-20T16:13:16Z</time>
      </trkpt>
      <trkpt lat="43.16622" lon="-1.21619">
        <ele>181.35</ele>
        <time>2021-08-20T16:13:26Z</time>
      </trkpt>
      <trkpt lat="43.16622" lon="-1.21673">
        <ele>181.35</ele>
        <time>2021-08-20T16:13:34Z</time>
      </trkpt>
      <trkpt lat="43.16621" lon="-1.21686">
        <ele>181.35</ele>
        <time>2021-08-20T16:13:36Z</time>
      </trkpt>
      <trkpt lat="43.1662" lon="-1.21714">
        <ele>181.35</ele>
        <time>2021-08-20T16:13:40Z</time>
      </trkpt>
      <trkpt lat="43.16622" lon="-1.21739">
        <ele>180.87</ele>
        <time>2021-08-20T16:13:44Z</time>
      </trkpt>
      <trkpt lat="43.16622" lon="-1.21745">
        <ele>180.87</ele>
        <time>2021-08-20T16:13:45Z</time>
      </trkpt>
      <trkpt lat="43.1662" lon="-1.2175">
        <ele>180.87</ele>
        <time>2021-08-20T16:13:46Z</time>
      </trkpt>
      <trkpt lat="43.16618" lon="-1.21756">
        <ele>180.87</ele>
        <time>2021-08-20T16:13:47Z</time>
      </trkpt>
      <trkpt lat="43.16617" lon="-1.2176">
        <ele>180.87</ele>
        <time>2021-08-20T16:13:48Z</time>
      </trkpt>
      <trkpt lat="43.16614" lon="-1.21764">
        <ele>180.87</ele>
        <time>2021-08-20T16:13:49Z</time>
      </trkpt>
      <trkpt lat="43.16611" lon="-1.21766">
        <ele>180.87</ele>
        <time>2021-08-20T16:13:50Z</time>
      </trkpt>
      <trkpt lat="43.16608" lon="-1.21768">
        <ele>180.87</ele>
        <time>2021-08-20T16:13:51Z</time>
      </trkpt>
      <trkpt lat="43.16595" lon="-1.21776">
        <ele>180.38</ele>
        <time>2021-08-20T16:13:54Z</time>
      </trkpt>
      <trkpt lat="43.16563" lon="-1.21807">
        <ele>178.94</ele>
        <time>2021-08-20T16:14:01Z</time>
      </trkpt>
      <trkpt lat="43.16558" lon="-1.21813">
        <ele>177.98</ele>
        <time>2021-08-20T16:14:02Z</time>
      </trkpt>
      <trkpt lat="43.16554" lon="-1.2182">
        <ele>177.98</ele>
        <time>2021-08-20T16:14:03Z</time>
      </trkpt>
      <trkpt lat="43.16534" lon="-1.21855">
        <ele>177.98</ele>
        <time>2021-08-20T16:14:09Z</time>
      </trkpt>
      <trkpt lat="43.16531" lon="-1.2186">
        <ele>177.98</ele>
        <time>2021-08-20T16:14:10Z</time>
      </trkpt>
      <trkpt lat="43.16528" lon="-1.21864">
        <ele>177.98</ele>
        <time>2021-08-20T16:14:11Z</time>
      </trkpt>
      <trkpt lat="43.16514" lon="-1.21876">
        <ele>177.5</ele>
        <time>2021-08-20T16:14:14Z</time>
      </trkpt>
      <trkpt lat="43.1651" lon="-1.21881">
        <ele>177.5</ele>
        <time>2021-08-20T16:14:15Z</time>
      </trkpt>
      <trkpt lat="43.16506" lon="-1.21887">
        <ele>177.5</ele>
        <time>2021-08-20T16:14:16Z</time>
      </trkpt>
      <trkpt lat="43.16502" lon="-1.21894">
        <ele>177.5</ele>
        <time>2021-08-20T16:14:17Z</time>
      </trkpt>
      <trkpt lat="43.16499" lon="-1.21902">
        <ele>176.54</ele>
        <time>2021-08-20T16:14:18Z</time>
      </trkpt>
      <trkpt lat="43.16479" lon="-1.21963">
        <ele>176.06</ele>
        <time>2021-08-20T16:14:26Z</time>
      </trkpt>
      <trkpt lat="43.16477" lon="-1.2197">
        <ele>176.06</ele>
        <time>2021-08-20T16:14:27Z</time>
      </trkpt>
      <trkpt lat="43.16477" lon="-1.21978">
        <ele>176.06</ele>
        <time>2021-08-20T16:14:28Z</time>
      </trkpt>
      <trkpt lat="43.16477" lon="-1.21986">
        <ele>176.06</ele>
        <time>2021-08-20T16:14:29Z</time>
      </trkpt>
      <trkpt lat="43.16479" lon="-1.22007">
        <ele>176.06</ele>
        <time>2021-08-20T16:14:32Z</time>
      </trkpt>
      <trkpt lat="43.1648" lon="-1.22014">
        <ele>176.06</ele>
        <time>2021-08-20T16:14:33Z</time>
      </trkpt>
      <trkpt lat="43.16479" lon="-1.22022">
        <ele>176.06</ele>
        <time>2021-08-20T16:14:34Z</time>
      </trkpt>
      <trkpt lat="43.16479" lon="-1.2203">
        <ele>175.58</ele>
        <time>2021-08-20T16:14:35Z</time>
      </trkpt>
      <trkpt lat="43.16477" lon="-1.22038">
        <ele>175.58</ele>
        <time>2021-08-20T16:14:36Z</time>
      </trkpt>
      <trkpt lat="43.1646" lon="-1.22104">
        <ele>174.62</ele>
        <time>2021-08-20T16:14:44Z</time>
      </trkpt>
      <trkpt lat="43.16445" lon="-1.22156">
        <ele>174.62</ele>
        <time>2021-08-20T16:14:51Z</time>
      </trkpt>
      <trkpt lat="43.16444" lon="-1.22164">
        <ele>174.62</ele>
        <time>2021-08-20T16:14:52Z</time>
      </trkpt>
      <trkpt lat="43.16436" lon="-1.22201">
        <ele>174.62</ele>
        <time>2021-08-20T16:14:57Z</time>
      </trkpt>
      <trkpt lat="43.16428" lon="-1.22254">
        <ele>174.62</ele>
        <time>2021-08-20T16:15:04Z</time>
      </trkpt>
      <trkpt lat="43.16425" lon="-1.22287">
        <ele>174.62</ele>
        <time>2021-08-20T16:15:09Z</time>
      </trkpt>
      <trkpt lat="43.16425" lon="-1.22293">
        <ele>174.62</ele>
        <time>2021-08-20T16:15:10Z</time>
      </trkpt>
      <trkpt lat="43.16426" lon="-1.22299">
        <ele>174.62</ele>
        <time>2021-08-20T16:15:11Z</time>
      </trkpt>
      <trkpt lat="43.16427" lon="-1.22305">
        <ele>174.62</ele>
        <time>2021-08-20T16:15:12Z</time>
      </trkpt>
      <trkpt lat="43.16426" lon="-1.22311">
        <ele>174.62</ele>
        <time>2021-08-20T16:15:13Z</time>
      </trkpt>
      <trkpt lat="43.16426" lon="-1.22318">
        <ele>174.62</ele>
        <time>2021-08-20T16:15:14Z</time>
      </trkpt>
      <trkpt lat="43.16425" lon="-1.22324">
        <ele>174.62</ele>
        <time>2021-08-20T16:15:15Z</time>
      </trkpt>
      <trkpt lat="43.16423" lon="-1.2233">
        <ele>174.62</ele>
        <time>2021-08-20T16:15:16Z</time>
      </trkpt>
      <trkpt lat="43.16421" lon="-1.22336">
        <ele>174.62</ele>
        <time>2021-08-20T16:15:17Z</time>
      </trkpt>
      <trkpt lat="43.16419" lon="-1.22342">
        <ele>174.62</ele>
        <time>2021-08-20T16:15:18Z</time>
      </trkpt>
      <trkpt lat="43.16417" lon="-1.22349">
        <ele>174.62</ele>
        <time>2021-08-20T16:15:19Z</time>
      </trkpt>
      <trkpt lat="43.16416" lon="-1.22355">
        <ele>174.62</ele>
        <time>2021-08-20T16:15:20Z</time>
      </trkpt>
      <trkpt lat="43.16415" lon="-1.22362">
        <ele>174.62</ele>
        <time>2021-08-20T16:15:21Z</time>
      </trkpt>
      <trkpt lat="43.16414" lon="-1.22389">
        <ele>174.62</ele>
        <time>2021-08-20T16:15:25Z</time>
      </trkpt>
      <trkpt lat="43.16413" lon="-1.22395">
        <ele>174.62</ele>
        <time>2021-08-20T16:15:26Z</time>
      </trkpt>
      <trkpt lat="43.16409" lon="-1.22407">
        <ele>174.62</ele>
        <time>2021-08-20T16:15:28Z</time>
      </trkpt>
      <trkpt lat="43.16406" lon="-1.22413">
        <ele>174.62</ele>
        <time>2021-08-20T16:15:29Z</time>
      </trkpt>
      <trkpt lat="43.16404" lon="-1.22418">
        <ele>174.62</ele>
        <time>2021-08-20T16:15:30Z</time>
      </trkpt>
      <trkpt lat="43.16402" lon="-1.22424">
        <ele>174.62</ele>
        <time>2021-08-20T16:15:31Z</time>
      </trkpt>
      <trkpt lat="43.16401" lon="-1.22429">
        <ele>174.62</ele>
        <time>2021-08-20T16:15:32Z</time>
      </trkpt>
      <trkpt lat="43.164" lon="-1.22435">
        <ele>174.62</ele>
        <time>2021-08-20T16:15:33Z</time>
      </trkpt>
      <trkpt lat="43.16399" lon="-1.2244">
        <ele>174.62</ele>
        <time>2021-08-20T16:15:34Z</time>
      </trkpt>
      <trkpt lat="43.16398" lon="-1.22445">
        <ele>174.62</ele>
        <time>2021-08-20T16:15:35Z</time>
      </trkpt>
      <trkpt lat="43.16397" lon="-1.2245">
        <ele>174.62</ele>
        <time>2021-08-20T16:15:36Z</time>
      </trkpt>
      <trkpt lat="43.16395" lon="-1.22454">
        <ele>174.62</ele>
        <time>2021-08-20T16:15:37Z</time>
      </trkpt>
      <trkpt lat="43.16394" lon="-1.22459">
        <ele>174.62</ele>
        <time>2021-08-20T16:15:38Z</time>
      </trkpt>
      <trkpt lat="43.16393" lon="-1.22464">
        <ele>174.62</ele>
        <time>2021-08-20T16:15:39Z</time>
      </trkpt>
      <trkpt lat="43.16387" lon="-1.22501">
        <ele>177.02</ele>
        <time>2021-08-20T16:15:47Z</time>
      </trkpt>
      <trkpt lat="43.16379" lon="-1.22539">
        <ele>177.98</ele>
        <time>2021-08-20T16:15:56Z</time>
      </trkpt>
      <trkpt lat="43.1637" lon="-1.22576">
        <ele>178.46</ele>
        <time>2021-08-20T16:16:05Z</time>
      </trkpt>
      <trkpt lat="43.16362" lon="-1.22615">
        <ele>178.46</ele>
        <time>2021-08-20T16:16:14Z</time>
      </trkpt>
      <trkpt lat="43.16354" lon="-1.22655">
        <ele>178.94</ele>
        <time>2021-08-20T16:16:22Z</time>
      </trkpt>
      <trkpt lat="43.16346" lon="-1.22698">
        <ele>179.9</ele>
        <time>2021-08-20T16:16:32Z</time>
      </trkpt>
      <trkpt lat="43.16342" lon="-1.22733">
        <ele>179.9</ele>
        <time>2021-08-20T16:16:39Z</time>
      </trkpt>
      <trkpt lat="43.16337" lon="-1.22765">
        <ele>180.38</ele>
        <time>2021-08-20T16:16:45Z</time>
      </trkpt>
      <trkpt lat="43.16336" lon="-1.2277">
        <ele>180.38</ele>
        <time>2021-08-20T16:16:46Z</time>
      </trkpt>
      <trkpt lat="43.16322" lon="-1.22815">
        <ele>181.35</ele>
        <time>2021-08-20T16:16:55Z</time>
      </trkpt>
      <trkpt lat="43.16301" lon="-1.22854">
        <ele>181.35</ele>
        <time>2021-08-20T16:17:03Z</time>
      </trkpt>
      <trkpt lat="43.16281" lon="-1.22895">
        <ele>181.35</ele>
        <time>2021-08-20T16:17:11Z</time>
      </trkpt>
      <trkpt lat="43.16276" lon="-1.2291">
        <ele>182.31</ele>
        <time>2021-08-20T16:17:17Z</time>
      </trkpt>
      <trkpt lat="43.16274" lon="-1.22916">
        <ele>183.27</ele>
        <time>2021-08-20T16:17:20Z</time>
      </trkpt>
      <trkpt lat="43.16274" lon="-1.22918">
        <ele>183.27</ele>
        <time>2021-08-20T16:17:21Z</time>
      </trkpt>
      <trkpt lat="43.16273" lon="-1.22919">
        <ele>183.27</ele>
        <time>2021-08-20T16:17:22Z</time>
      </trkpt>
      <trkpt lat="43.16271" lon="-1.22925">
        <ele>184.23</ele>
        <time>2021-08-20T16:17:28Z</time>
      </trkpt>
      <trkpt lat="43.16269" lon="-1.22937">
        <ele>185.67</ele>
        <time>2021-08-20T16:17:38Z</time>
      </trkpt>
      <trkpt lat="43.16266" lon="-1.22948">
        <ele>186.63</ele>
        <time>2021-08-20T16:17:47Z</time>
      </trkpt>
      <trkpt lat="43.16264" lon="-1.22958">
        <ele>187.59</ele>
        <time>2021-08-20T16:17:55Z</time>
      </trkpt>
      <trkpt lat="43.16263" lon="-1.22963">
        <ele>188.08</ele>
        <time>2021-08-20T16:17:58Z</time>
      </trkpt>
      <trkpt lat="43.16258" lon="-1.22974">
        <ele>189.04</ele>
        <time>2021-08-20T16:18:07Z</time>
      </trkpt>
      <trkpt lat="43.16255" lon="-1.2299">
        <ele>190.48</ele>
        <time>2021-08-20T16:18:19Z</time>
      </trkpt>
      <trkpt lat="43.16254" lon="-1.22999">
        <ele>191.44</ele>
        <time>2021-08-20T16:18:27Z</time>
      </trkpt>
      <trkpt lat="43.16254" lon="-1.23007">
        <ele>192.4</ele>
        <time>2021-08-20T16:18:34Z</time>
      </trkpt>
      <trkpt lat="43.16253" lon="-1.23013">
        <ele>192.88</ele>
        <time>2021-08-20T16:18:39Z</time>
      </trkpt>
      <trkpt lat="43.16253" lon="-1.23015">
        <ele>193.36</ele>
        <time>2021-08-20T16:18:40Z</time>
      </trkpt>
      <trkpt lat="43.16253" lon="-1.23016">
        <ele>193.36</ele>
        <time>2021-08-20T16:18:41Z</time>
      </trkpt>
      <trkpt lat="43.16252" lon="-1.23018">
        <ele>193.36</ele>
        <time>2021-08-20T16:18:42Z</time>
      </trkpt>
      <trkpt lat="43.16252" lon="-1.23019">
        <ele>193.84</ele>
        <time>2021-08-20T16:18:43Z</time>
      </trkpt>
      <trkpt lat="43.16251" lon="-1.23021">
        <ele>193.84</ele>
        <time>2021-08-20T16:18:44Z</time>
      </trkpt>
      <trkpt lat="43.16248" lon="-1.23033">
        <ele>195.77</ele>
        <time>2021-08-20T16:18:54Z</time>
      </trkpt>
      <trkpt lat="43.16245" lon="-1.23044">
        <ele>197.21</ele>
        <time>2021-08-20T16:19:03Z</time>
      </trkpt>
      <trkpt lat="43.16243" lon="-1.23056">
        <ele>198.17</ele>
        <time>2021-08-20T16:19:11Z</time>
      </trkpt>
      <trkpt lat="43.1624" lon="-1.2307">
        <ele>199.61</ele>
        <time>2021-08-20T16:19:22Z</time>
      </trkpt>
      <trkpt lat="43.1624" lon="-1.23074">
        <ele>200.09</ele>
        <time>2021-08-20T16:19:25Z</time>
      </trkpt>
      <trkpt lat="43.16242" lon="-1.23079">
        <ele>200.09</ele>
        <time>2021-08-20T16:19:31Z</time>
      </trkpt>
      <trkpt lat="43.16244" lon="-1.23087">
        <ele>200.57</ele>
        <time>2021-08-20T16:19:36Z</time>
      </trkpt>
      <trkpt lat="43.16244" lon="-1.23088">
        <ele>200.57</ele>
        <time>2021-08-20T16:19:37Z</time>
      </trkpt>
      <trkpt lat="43.16243" lon="-1.2309">
        <ele>200.57</ele>
        <time>2021-08-20T16:19:38Z</time>
      </trkpt>
      <trkpt lat="43.16243" lon="-1.23092">
        <ele>200.57</ele>
        <time>2021-08-20T16:19:39Z</time>
      </trkpt>
      <trkpt lat="43.16242" lon="-1.23094">
        <ele>200.57</ele>
        <time>2021-08-20T16:19:40Z</time>
      </trkpt>
      <trkpt lat="43.16241" lon="-1.23096">
        <ele>200.57</ele>
        <time>2021-08-20T16:19:41Z</time>
      </trkpt>
      <trkpt lat="43.16238" lon="-1.23105">
        <ele>201.05</ele>
        <time>2021-08-20T16:19:46Z</time>
      </trkpt>
      <trkpt lat="43.16237" lon="-1.23107">
        <ele>201.53</ele>
        <time>2021-08-20T16:19:47Z</time>
      </trkpt>
      <trkpt lat="43.16237" lon="-1.23109">
        <ele>202.01</ele>
        <time>2021-08-20T16:19:48Z</time>
      </trkpt>
      <trkpt lat="43.16238" lon="-1.23115">
        <ele>202.49</ele>
        <time>2021-08-20T16:19:52Z</time>
      </trkpt>
      <trkpt lat="43.16238" lon="-1.23117">
        <ele>202.49</ele>
        <time>2021-08-20T16:19:53Z</time>
      </trkpt>
      <trkpt lat="43.16241" lon="-1.23132">
        <ele>203.46</ele>
        <time>2021-08-20T16:20:03Z</time>
      </trkpt>
      <trkpt lat="43.16244" lon="-1.23143">
        <ele>204.9</ele>
        <time>2021-08-20T16:20:13Z</time>
      </trkpt>
      <trkpt lat="43.16248" lon="-1.23157">
        <ele>205.86</ele>
        <time>2021-08-20T16:20:23Z</time>
      </trkpt>
      <trkpt lat="43.16253" lon="-1.23173">
        <ele>207.3</ele>
        <time>2021-08-20T16:20:35Z</time>
      </trkpt>
      <trkpt lat="43.16258" lon="-1.23186">
        <ele>208.26</ele>
        <time>2021-08-20T16:20:44Z</time>
      </trkpt>
      <trkpt lat="43.16265" lon="-1.23202">
        <ele>209.22</ele>
        <time>2021-08-20T16:20:56Z</time>
      </trkpt>
      <trkpt lat="43.16267" lon="-1.23208">
        <ele>209.7</ele>
        <time>2021-08-20T16:21:05Z</time>
      </trkpt>
      <trkpt lat="43.16272" lon="-1.23216">
        <ele>209.7</ele>
        <time>2021-08-20T16:21:10Z</time>
      </trkpt>
      <trkpt lat="43.16283" lon="-1.2324">
        <ele>207.78</ele>
        <time>2021-08-20T16:21:16Z</time>
      </trkpt>
      <trkpt lat="43.16294" lon="-1.23271">
        <ele>207.3</ele>
        <time>2021-08-20T16:21:23Z</time>
      </trkpt>
      <trkpt lat="43.16316" lon="-1.23315">
        <ele>205.38</ele>
        <time>2021-08-20T16:21:33Z</time>
      </trkpt>
      <trkpt lat="43.16322" lon="-1.2333">
        <ele>203.94</ele>
        <time>2021-08-20T16:21:36Z</time>
      </trkpt>
      <trkpt lat="43.16332" lon="-1.23351">
        <ele>201.53</ele>
        <time>2021-08-20T16:21:40Z</time>
      </trkpt>
      <trkpt lat="43.16348" lon="-1.23381">
        <ele>198.17</ele>
        <time>2021-08-20T16:21:46Z</time>
      </trkpt>
      <trkpt lat="43.1635" lon="-1.23385">
        <ele>198.17</ele>
        <time>2021-08-20T16:21:47Z</time>
      </trkpt>
      <trkpt lat="43.16357" lon="-1.23409">
        <ele>196.73</ele>
        <time>2021-08-20T16:21:54Z</time>
      </trkpt>
      <trkpt lat="43.1636" lon="-1.23418">
        <ele>196.73</ele>
        <time>2021-08-20T16:22:00Z</time>
      </trkpt>
      <trkpt lat="43.16361" lon="-1.23421">
        <ele>196.73</ele>
        <time>2021-08-20T16:22:12Z</time>
      </trkpt>
      <trkpt lat="43.16366" lon="-1.23436">
        <ele>196.73</ele>
        <time>2021-08-20T16:22:21Z</time>
      </trkpt>
      <trkpt lat="43.16367" lon="-1.23441">
        <ele>196.73</ele>
        <time>2021-08-20T16:22:24Z</time>
      </trkpt>
      <trkpt lat="43.16367" lon="-1.23443">
        <ele>196.73</ele>
        <time>2021-08-20T16:22:25Z</time>
      </trkpt>
      <trkpt lat="43.16367" lon="-1.23445">
        <ele>196.73</ele>
        <time>2021-08-20T16:22:26Z</time>
      </trkpt>
      <trkpt lat="43.16367" lon="-1.2346">
        <ele>196.73</ele>
        <time>2021-08-20T16:22:33Z</time>
      </trkpt>
      <trkpt lat="43.16366" lon="-1.23485">
        <ele>196.73</ele>
        <time>2021-08-20T16:22:44Z</time>
      </trkpt>
      <trkpt lat="43.16364" lon="-1.23507">
        <ele>196.25</ele>
        <time>2021-08-20T16:22:54Z</time>
      </trkpt>
      <trkpt lat="43.16363" lon="-1.23512">
        <ele>196.25</ele>
        <time>2021-08-20T16:22:58Z</time>
      </trkpt>
      <trkpt lat="43.1636" lon="-1.23525">
        <ele>195.77</ele>
        <time>2021-08-20T16:23:05Z</time>
      </trkpt>
      <trkpt lat="43.16355" lon="-1.23545">
        <ele>194.8</ele>
        <time>2021-08-20T16:23:16Z</time>
      </trkpt>
      <trkpt lat="43.16351" lon="-1.23562">
        <ele>193.84</ele>
        <time>2021-08-20T16:23:25Z</time>
      </trkpt>
      <trkpt lat="43.16344" lon="-1.23573">
        <ele>192.88</ele>
        <time>2021-08-20T16:23:34Z</time>
      </trkpt>
      <trkpt lat="43.16339" lon="-1.23581">
        <ele>191.92</ele>
        <time>2021-08-20T16:23:41Z</time>
      </trkpt>
      <trkpt lat="43.16335" lon="-1.23587">
        <ele>191.44</ele>
        <time>2021-08-20T16:23:47Z</time>
      </trkpt>
      <trkpt lat="43.16333" lon="-1.23588">
        <ele>191.44</ele>
        <time>2021-08-20T16:23:48Z</time>
      </trkpt>
      <trkpt lat="43.16332" lon="-1.23589">
        <ele>190.96</ele>
        <time>2021-08-20T16:23:49Z</time>
      </trkpt>
      <trkpt lat="43.16332" lon="-1.23591">
        <ele>190.96</ele>
        <time>2021-08-20T16:23:50Z</time>
      </trkpt>
      <trkpt lat="43.16331" lon="-1.23592">
        <ele>190.96</ele>
        <time>2021-08-20T16:23:51Z</time>
      </trkpt>
      <trkpt lat="43.1633" lon="-1.23593">
        <ele>190.48</ele>
        <time>2021-08-20T16:23:52Z</time>
      </trkpt>
      <trkpt lat="43.16329" lon="-1.23594">
        <ele>190.48</ele>
        <time>2021-08-20T16:23:53Z</time>
      </trkpt>
      <trkpt lat="43.16324" lon="-1.23609">
        <ele>189.04</ele>
        <time>2021-08-20T16:24:03Z</time>
      </trkpt>
      <trkpt lat="43.1632" lon="-1.23623">
        <ele>188.08</ele>
        <time>2021-08-20T16:24:13Z</time>
      </trkpt>
      <trkpt lat="43.16314" lon="-1.23636">
        <ele>186.63</ele>
        <time>2021-08-20T16:24:23Z</time>
      </trkpt>
      <trkpt lat="43.16307" lon="-1.23646">
        <ele>185.19</ele>
        <time>2021-08-20T16:24:32Z</time>
      </trkpt>
      <trkpt lat="43.163" lon="-1.23657">
        <ele>183.27</ele>
        <time>2021-08-20T16:24:41Z</time>
      </trkpt>
      <trkpt lat="43.16296" lon="-1.23668">
        <ele>181.83</ele>
        <time>2021-08-20T16:24:49Z</time>
      </trkpt>
      <trkpt lat="43.1629" lon="-1.23681">
        <ele>180.38</ele>
        <time>2021-08-20T16:24:59Z</time>
      </trkpt>
      <trkpt lat="43.16286" lon="-1.23692">
        <ele>178.94</ele>
        <time>2021-08-20T16:25:09Z</time>
      </trkpt>
      <trkpt lat="43.16278" lon="-1.237">
        <ele>177.02</ele>
        <time>2021-08-20T16:25:20Z</time>
      </trkpt>
      <trkpt lat="43.16276" lon="-1.237">
        <ele>176.54</ele>
        <time>2021-08-20T16:25:21Z</time>
      </trkpt>
      <trkpt lat="43.16275" lon="-1.23701">
        <ele>176.54</ele>
        <time>2021-08-20T16:25:22Z</time>
      </trkpt>
      <trkpt lat="43.1627" lon="-1.23704">
        <ele>175.58</ele>
        <time>2021-08-20T16:25:27Z</time>
      </trkpt>
      <trkpt lat="43.16269" lon="-1.23704">
        <ele>175.58</ele>
        <time>2021-08-20T16:25:28Z</time>
      </trkpt>
      <trkpt lat="43.16266" lon="-1.23707">
        <ele>174.62</ele>
        <time>2021-08-20T16:25:32Z</time>
      </trkpt>
      <trkpt lat="43.16265" lon="-1.23709">
        <ele>174.62</ele>
        <time>2021-08-20T16:25:33Z</time>
      </trkpt>
      <trkpt lat="43.16262" lon="-1.23711">
        <ele>174.14</ele>
        <time>2021-08-20T16:25:36Z</time>
      </trkpt>
      <trkpt lat="43.16254" lon="-1.23719">
        <ele>172.69</ele>
        <time>2021-08-20T16:25:45Z</time>
      </trkpt>
      <trkpt lat="43.16242" lon="-1.23723">
        <ele>172.21</ele>
        <time>2021-08-20T16:25:54Z</time>
      </trkpt>
      <trkpt lat="43.1623" lon="-1.23726">
        <ele>172.21</ele>
        <time>2021-08-20T16:26:02Z</time>
      </trkpt>
      <trkpt lat="43.16229" lon="-1.23724">
        <ele>172.21</ele>
        <time>2021-08-20T16:26:11Z</time>
      </trkpt>
      <trkpt lat="43.16228" lon="-1.23722">
        <ele>172.21</ele>
        <time>2021-08-20T16:26:18Z</time>
      </trkpt>
      <trkpt lat="43.16229" lon="-1.23724">
        <ele>172.21</ele>
        <time>2021-08-20T16:26:34Z</time>
      </trkpt>
      <trkpt lat="43.16226" lon="-1.23724">
        <ele>172.21</ele>
        <time>2021-08-20T16:26:48Z</time>
      </trkpt>
      <trkpt lat="43.16222" lon="-1.23728">
        <ele>172.21</ele>
        <time>2021-08-20T16:27:06Z</time>
      </trkpt>
      <trkpt lat="43.16222" lon="-1.23726">
        <ele>172.21</ele>
        <time>2021-08-20T16:27:13Z</time>
      </trkpt>
      <trkpt lat="43.16223" lon="-1.23719">
        <ele>172.21</ele>
        <time>2021-08-20T16:27:18Z</time>
      </trkpt>
      <trkpt lat="43.16223" lon="-1.23716">
        <ele>171.73</ele>
        <time>2021-08-20T16:27:19Z</time>
      </trkpt>
      <trkpt lat="43.16221" lon="-1.23713">
        <ele>171.25</ele>
        <time>2021-08-20T16:27:20Z</time>
      </trkpt>
      <trkpt lat="43.16212" lon="-1.23689">
        <ele>170.29</ele>
        <time>2021-08-20T16:27:24Z</time>
      </trkpt>
      <trkpt lat="43.1621" lon="-1.23683">
        <ele>170.29</ele>
        <time>2021-08-20T16:27:25Z</time>
      </trkpt>
      <trkpt lat="43.16203" lon="-1.23659">
        <ele>170.29</ele>
        <time>2021-08-20T16:27:29Z</time>
      </trkpt>
      <trkpt lat="43.16201" lon="-1.23653">
        <ele>170.29</ele>
        <time>2021-08-20T16:27:30Z</time>
      </trkpt>
      <trkpt lat="43.16198" lon="-1.23642">
        <ele>170.29</ele>
        <time>2021-08-20T16:27:32Z</time>
      </trkpt>
      <trkpt lat="43.16191" lon="-1.23618">
        <ele>170.29</ele>
        <time>2021-08-20T16:27:38Z</time>
      </trkpt>
      <trkpt lat="43.16188" lon="-1.23607">
        <ele>171.73</ele>
        <time>2021-08-20T16:27:41Z</time>
      </trkpt>
      <trkpt lat="43.16184" lon="-1.23587">
        <ele>172.69</ele>
        <time>2021-08-20T16:27:46Z</time>
      </trkpt>
      <trkpt lat="43.1618" lon="-1.23573">
        <ele>173.17</ele>
        <time>2021-08-20T16:27:50Z</time>
      </trkpt>
      <trkpt lat="43.16177" lon="-1.2357">
        <ele>173.17</ele>
        <time>2021-08-20T16:27:51Z</time>
      </trkpt>
      <trkpt lat="43.16175" lon="-1.23567">
        <ele>173.17</ele>
        <time>2021-08-20T16:27:52Z</time>
      </trkpt>
      <trkpt lat="43.16174" lon="-1.23565">
        <ele>173.17</ele>
        <time>2021-08-20T16:27:53Z</time>
      </trkpt>
      <trkpt lat="43.16173" lon="-1.23561">
        <ele>173.66</ele>
        <time>2021-08-20T16:27:54Z</time>
      </trkpt>
      <trkpt lat="43.16173" lon="-1.23558">
        <ele>173.66</ele>
        <time>2021-08-20T16:27:55Z</time>
      </trkpt>
      <trkpt lat="43.16172" lon="-1.23555">
        <ele>174.14</ele>
        <time>2021-08-20T16:27:56Z</time>
      </trkpt>
      <trkpt lat="43.16171" lon="-1.23552">
        <ele>174.62</ele>
        <time>2021-08-20T16:27:57Z</time>
      </trkpt>
      <trkpt lat="43.1617" lon="-1.2355">
        <ele>174.62</ele>
        <time>2021-08-20T16:27:58Z</time>
      </trkpt>
      <trkpt lat="43.16161" lon="-1.23532">
        <ele>175.1</ele>
        <time>2021-08-20T16:28:05Z</time>
      </trkpt>
      <trkpt lat="43.16145" lon="-1.2351">
        <ele>175.1</ele>
        <time>2021-08-20T16:28:12Z</time>
      </trkpt>
      <trkpt lat="43.16142" lon="-1.23507">
        <ele>174.14</ele>
        <time>2021-08-20T16:28:13Z</time>
      </trkpt>
      <trkpt lat="43.16138" lon="-1.23504">
        <ele>174.14</ele>
        <time>2021-08-20T16:28:14Z</time>
      </trkpt>
      <trkpt lat="43.16118" lon="-1.23493">
        <ele>173.66</ele>
        <time>2021-08-20T16:28:19Z</time>
      </trkpt>
      <trkpt lat="43.16092" lon="-1.23487">
        <ele>173.66</ele>
        <time>2021-08-20T16:28:26Z</time>
      </trkpt>
      <trkpt lat="43.16072" lon="-1.23483">
        <ele>173.17</ele>
        <time>2021-08-20T16:28:31Z</time>
      </trkpt>
      <trkpt lat="43.16067" lon="-1.23482">
        <ele>173.17</ele>
        <time>2021-08-20T16:28:32Z</time>
      </trkpt>
      <trkpt lat="43.16029" lon="-1.23483">
        <ele>173.17</ele>
        <time>2021-08-20T16:28:41Z</time>
      </trkpt>
      <trkpt lat="43.15997" lon="-1.23482">
        <ele>173.17</ele>
        <time>2021-08-20T16:28:49Z</time>
      </trkpt>
      <trkpt lat="43.15988" lon="-1.23482">
        <ele>173.17</ele>
        <time>2021-08-20T16:28:51Z</time>
      </trkpt>
      <trkpt lat="43.15984" lon="-1.23484">
        <ele>173.17</ele>
        <time>2021-08-20T16:28:52Z</time>
      </trkpt>
      <trkpt lat="43.15951" lon="-1.23494">
        <ele>173.17</ele>
        <time>2021-08-20T16:29:00Z</time>
      </trkpt>
      <trkpt lat="43.15947" lon="-1.23498">
        <ele>173.17</ele>
        <time>2021-08-20T16:29:01Z</time>
      </trkpt>
      <trkpt lat="43.15945" lon="-1.23501">
        <ele>173.17</ele>
        <time>2021-08-20T16:29:02Z</time>
      </trkpt>
      <trkpt lat="43.15937" lon="-1.23515">
        <ele>173.17</ele>
        <time>2021-08-20T16:29:06Z</time>
      </trkpt>
      <trkpt lat="43.15933" lon="-1.23518">
        <ele>172.21</ele>
        <time>2021-08-20T16:29:07Z</time>
      </trkpt>
      <trkpt lat="43.15929" lon="-1.23521">
        <ele>171.25</ele>
        <time>2021-08-20T16:29:08Z</time>
      </trkpt>
      <trkpt lat="43.15925" lon="-1.23522">
        <ele>171.25</ele>
        <time>2021-08-20T16:29:09Z</time>
      </trkpt>
      <trkpt lat="43.15921" lon="-1.23521">
        <ele>171.25</ele>
        <time>2021-08-20T16:29:10Z</time>
      </trkpt>
      <trkpt lat="43.15918" lon="-1.23522">
        <ele>171.25</ele>
        <time>2021-08-20T16:29:11Z</time>
      </trkpt>
      <trkpt lat="43.15915" lon="-1.23522">
        <ele>171.25</ele>
        <time>2021-08-20T16:29:12Z</time>
      </trkpt>
      <trkpt lat="43.15913" lon="-1.23523">
        <ele>172.69</ele>
        <time>2021-08-20T16:29:13Z</time>
      </trkpt>
      <trkpt lat="43.15911" lon="-1.23525">
        <ele>172.69</ele>
        <time>2021-08-20T16:29:14Z</time>
      </trkpt>
      <trkpt lat="43.15909" lon="-1.23526">
        <ele>172.69</ele>
        <time>2021-08-20T16:29:15Z</time>
      </trkpt>
      <trkpt lat="43.15907" lon="-1.23528">
        <ele>173.17</ele>
        <time>2021-08-20T16:29:16Z</time>
      </trkpt>
      <trkpt lat="43.15905" lon="-1.2353">
        <ele>173.17</ele>
        <time>2021-08-20T16:29:17Z</time>
      </trkpt>
      <trkpt lat="43.15904" lon="-1.23533">
        <ele>173.17</ele>
        <time>2021-08-20T16:29:18Z</time>
      </trkpt>
      <trkpt lat="43.15903" lon="-1.23537">
        <ele>173.66</ele>
        <time>2021-08-20T16:29:19Z</time>
      </trkpt>
      <trkpt lat="43.15902" lon="-1.23541">
        <ele>173.66</ele>
        <time>2021-08-20T16:29:20Z</time>
      </trkpt>
      <trkpt lat="43.15902" lon="-1.23546">
        <ele>173.66</ele>
        <time>2021-08-20T16:29:21Z</time>
      </trkpt>
      <trkpt lat="43.15901" lon="-1.23551">
        <ele>173.66</ele>
        <time>2021-08-20T16:29:22Z</time>
      </trkpt>
      <trkpt lat="43.15902" lon="-1.23555">
        <ele>173.66</ele>
        <time>2021-08-20T16:29:23Z</time>
      </trkpt>
      <trkpt lat="43.15902" lon="-1.2356">
        <ele>173.66</ele>
        <time>2021-08-20T16:29:24Z</time>
      </trkpt>
      <trkpt lat="43.15903" lon="-1.23564">
        <ele>174.14</ele>
        <time>2021-08-20T16:29:25Z</time>
      </trkpt>
      <trkpt lat="43.15903" lon="-1.23568">
        <ele>174.14</ele>
        <time>2021-08-20T16:29:26Z</time>
      </trkpt>
      <trkpt lat="43.15903" lon="-1.23603">
        <ele>175.58</ele>
        <time>2021-08-20T16:29:36Z</time>
      </trkpt>
      <trkpt lat="43.15901" lon="-1.23634">
        <ele>176.54</ele>
        <time>2021-08-20T16:29:45Z</time>
      </trkpt>
      <trkpt lat="43.15895" lon="-1.23666">
        <ele>178.46</ele>
        <time>2021-08-20T16:29:56Z</time>
      </trkpt>
      <trkpt lat="43.15893" lon="-1.23688">
        <ele>179.9</ele>
        <time>2021-08-20T16:30:04Z</time>
      </trkpt>
      <trkpt lat="43.15893" lon="-1.2371">
        <ele>181.35</ele>
        <time>2021-08-20T16:30:11Z</time>
      </trkpt>
      <trkpt lat="43.15892" lon="-1.23735">
        <ele>182.79</ele>
        <time>2021-08-20T16:30:19Z</time>
      </trkpt>
      <trkpt lat="43.15891" lon="-1.2376">
        <ele>184.23</ele>
        <time>2021-08-20T16:30:27Z</time>
      </trkpt>
      <trkpt lat="43.15892" lon="-1.23785">
        <ele>185.67</ele>
        <time>2021-08-20T16:30:35Z</time>
      </trkpt>
      <trkpt lat="43.15894" lon="-1.23809">
        <ele>187.11</ele>
        <time>2021-08-20T16:30:44Z</time>
      </trkpt>
      <trkpt lat="43.15893" lon="-1.23829">
        <ele>188.56</ele>
        <time>2021-08-20T16:30:51Z</time>
      </trkpt>
      <trkpt lat="43.15887" lon="-1.23851">
        <ele>190.48</ele>
        <time>2021-08-20T16:31:00Z</time>
      </trkpt>
      <trkpt lat="43.15888" lon="-1.23863">
        <ele>190.96</ele>
        <time>2021-08-20T16:31:04Z</time>
      </trkpt>
      <trkpt lat="43.15889" lon="-1.23865">
        <ele>191.44</ele>
        <time>2021-08-20T16:31:05Z</time>
      </trkpt>
      <trkpt lat="43.15891" lon="-1.23867">
        <ele>191.44</ele>
        <time>2021-08-20T16:31:06Z</time>
      </trkpt>
      <trkpt lat="43.15893" lon="-1.23869">
        <ele>191.44</ele>
        <time>2021-08-20T16:31:07Z</time>
      </trkpt>
      <trkpt lat="43.15895" lon="-1.23871">
        <ele>191.44</ele>
        <time>2021-08-20T16:31:08Z</time>
      </trkpt>
      <trkpt lat="43.15897" lon="-1.23873">
        <ele>191.44</ele>
        <time>2021-08-20T16:31:09Z</time>
      </trkpt>
      <trkpt lat="43.15915" lon="-1.23881">
        <ele>191.92</ele>
        <time>2021-08-20T16:31:17Z</time>
      </trkpt>
      <trkpt lat="43.15944" lon="-1.23885">
        <ele>189.52</ele>
        <time>2021-08-20T16:31:26Z</time>
      </trkpt>
      <trkpt lat="43.1596" lon="-1.23882">
        <ele>188.08</ele>
        <time>2021-08-20T16:31:33Z</time>
      </trkpt>
      <trkpt lat="43.15961" lon="-1.2388">
        <ele>187.59</ele>
        <time>2021-08-20T16:31:40Z</time>
      </trkpt>
      <trkpt lat="43.15962" lon="-1.23879">
        <ele>187.59</ele>
        <time>2021-08-20T16:31:49Z</time>
      </trkpt>
      <trkpt lat="43.15963" lon="-1.2388">
        <ele>187.59</ele>
        <time>2021-08-20T16:32:00Z</time>
      </trkpt>
      <trkpt lat="43.15966" lon="-1.23881">
        <ele>187.59</ele>
        <time>2021-08-20T16:32:01Z</time>
      </trkpt>
      <trkpt lat="43.15967" lon="-1.23884">
        <ele>187.11</ele>
        <time>2021-08-20T16:32:02Z</time>
      </trkpt>
      <trkpt lat="43.15967" lon="-1.23886">
        <ele>187.11</ele>
        <time>2021-08-20T16:32:03Z</time>
      </trkpt>
      <trkpt lat="43.15965" lon="-1.23888">
        <ele>187.11</ele>
        <time>2021-08-20T16:32:04Z</time>
      </trkpt>
      <trkpt lat="43.15963" lon="-1.2389">
        <ele>187.11</ele>
        <time>2021-08-20T16:32:05Z</time>
      </trkpt>
      <trkpt lat="43.15962" lon="-1.23892">
        <ele>187.11</ele>
        <time>2021-08-20T16:32:06Z</time>
      </trkpt>
      <trkpt lat="43.1596" lon="-1.23893">
        <ele>188.08</ele>
        <time>2021-08-20T16:32:07Z</time>
      </trkpt>
      <trkpt lat="43.15959" lon="-1.23893">
        <ele>188.08</ele>
        <time>2021-08-20T16:32:08Z</time>
      </trkpt>
      <trkpt lat="43.15957" lon="-1.23891">
        <ele>188.56</ele>
        <time>2021-08-20T16:32:14Z</time>
      </trkpt>
      <trkpt lat="43.15956" lon="-1.2389">
        <ele>188.56</ele>
        <time>2021-08-20T16:32:16Z</time>
      </trkpt>
      <trkpt lat="43.15957" lon="-1.23888">
        <ele>188.56</ele>
        <time>2021-08-20T16:32:17Z</time>
      </trkpt>
      <trkpt lat="43.15958" lon="-1.23884">
        <ele>188.56</ele>
        <time>2021-08-20T16:32:18Z</time>
      </trkpt>
      <trkpt lat="43.1596" lon="-1.23882">
        <ele>188.56</ele>
        <time>2021-08-20T16:32:19Z</time>
      </trkpt>
      <trkpt lat="43.15964" lon="-1.2388">
        <ele>187.59</ele>
        <time>2021-08-20T16:32:20Z</time>
      </trkpt>
      <trkpt lat="43.15968" lon="-1.23877">
        <ele>186.63</ele>
        <time>2021-08-20T16:32:21Z</time>
      </trkpt>
      <trkpt lat="43.15973" lon="-1.23874">
        <ele>186.63</ele>
        <time>2021-08-20T16:32:22Z</time>
      </trkpt>
      <trkpt lat="43.15996" lon="-1.2386">
        <ele>183.75</ele>
        <time>2021-08-20T16:32:26Z</time>
      </trkpt>
      <trkpt lat="43.1603" lon="-1.23836">
        <ele>181.83</ele>
        <time>2021-08-20T16:32:33Z</time>
      </trkpt>
      <trkpt lat="43.16047" lon="-1.2383">
        <ele>181.83</ele>
        <time>2021-08-20T16:32:39Z</time>
      </trkpt>
      <trkpt lat="43.16051" lon="-1.23828">
        <ele>181.83</ele>
        <time>2021-08-20T16:32:42Z</time>
      </trkpt>
      <trkpt lat="43.16057" lon="-1.23823">
        <ele>181.83</ele>
        <time>2021-08-20T16:32:48Z</time>
      </trkpt>
      <trkpt lat="43.16061" lon="-1.2382">
        <ele>181.35</ele>
        <time>2021-08-20T16:32:53Z</time>
      </trkpt>
      <trkpt lat="43.16067" lon="-1.23815">
        <ele>180.38</ele>
        <time>2021-08-20T16:33:01Z</time>
      </trkpt>
      <trkpt lat="43.16076" lon="-1.23813">
        <ele>179.9</ele>
        <time>2021-08-20T16:33:10Z</time>
      </trkpt>
      <trkpt lat="43.16081" lon="-1.2381">
        <ele>178.94</ele>
        <time>2021-08-20T16:33:18Z</time>
      </trkpt>
      <trkpt lat="43.16081" lon="-1.23809">
        <ele>178.94</ele>
        <time>2021-08-20T16:33:26Z</time>
      </trkpt>
      <trkpt lat="43.16081" lon="-1.2381">
        <ele>178.94</ele>
        <time>2021-08-20T16:33:40Z</time>
      </trkpt>
      <trkpt lat="43.16077" lon="-1.23812">
        <ele>178.94</ele>
        <time>2021-08-20T16:33:49Z</time>
      </trkpt>
      <trkpt lat="43.16077" lon="-1.23811">
        <ele>178.94</ele>
        <time>2021-08-20T16:34:04Z</time>
      </trkpt>
      <trkpt lat="43.16079" lon="-1.23806">
        <ele>178.94</ele>
        <time>2021-08-20T16:34:22Z</time>
      </trkpt>
      <trkpt lat="43.16078" lon="-1.23809">
        <ele>178.94</ele>
        <time>2021-08-20T16:34:44Z</time>
      </trkpt>
      <trkpt lat="43.16076" lon="-1.2381">
        <ele>178.94</ele>
        <time>2021-08-20T16:35:03Z</time>
      </trkpt>
      <trkpt lat="43.16076" lon="-1.23809">
        <ele>178.94</ele>
        <time>2021-08-20T16:35:20Z</time>
      </trkpt>
      <trkpt lat="43.16078" lon="-1.23804">
        <ele>178.94</ele>
        <time>2021-08-20T16:35:42Z</time>
      </trkpt>
      <trkpt lat="43.16077" lon="-1.23807">
        <ele>179.42</ele>
        <time>2021-08-20T16:36:02Z</time>
      </trkpt>
      <trkpt lat="43.16076" lon="-1.23807">
        <ele>179.42</ele>
        <time>2021-08-20T16:36:23Z</time>
      </trkpt>
      <trkpt lat="43.16075" lon="-1.23811">
        <ele>179.42</ele>
        <time>2021-08-20T16:36:47Z</time>
      </trkpt>
      <trkpt lat="43.16076" lon="-1.23813">
        <ele>179.9</ele>
        <time>2021-08-20T16:37:08Z</time>
      </trkpt>
      <trkpt lat="43.16073" lon="-1.23813">
        <ele>179.9</ele>
        <time>2021-08-20T16:37:31Z</time>
      </trkpt>
      <trkpt lat="43.16074" lon="-1.23814">
        <ele>179.9</ele>
        <time>2021-08-20T16:37:48Z</time>
      </trkpt>
      <trkpt lat="43.16079" lon="-1.23817">
        <ele>179.9</ele>
        <time>2021-08-20T16:38:12Z</time>
      </trkpt>
      <trkpt lat="43.16078" lon="-1.23818">
        <ele>180.38</ele>
        <time>2021-08-20T16:38:32Z</time>
      </trkpt>
      <trkpt lat="43.16076" lon="-1.23815">
        <ele>180.38</ele>
        <time>2021-08-20T16:38:55Z</time>
      </trkpt>
      <trkpt lat="43.16078" lon="-1.23812">
        <ele>180.38</ele>
        <time>2021-08-20T16:39:16Z</time>
      </trkpt>
      <trkpt lat="43.16079" lon="-1.23812">
        <ele>180.38</ele>
        <time>2021-08-20T16:39:31Z</time>
      </trkpt>
      <trkpt lat="43.16077" lon="-1.23813">
        <ele>180.38</ele>
        <time>2021-08-20T16:39:53Z</time>
      </trkpt>
      <trkpt lat="43.16077" lon="-1.23814">
        <ele>180.38</ele>
        <time>2021-08-20T16:40:11Z</time>
      </trkpt>
      <trkpt lat="43.16077" lon="-1.23816">
        <ele>180.87</ele>
        <time>2021-08-20T16:40:35Z</time>
      </trkpt>
      <trkpt lat="43.16075" lon="-1.2382">
        <ele>180.87</ele>
        <time>2021-08-20T16:40:52Z</time>
      </trkpt>
      <trkpt lat="43.16076" lon="-1.23821">
        <ele>180.87</ele>
        <time>2021-08-20T16:41:07Z</time>
      </trkpt>
      <trkpt lat="43.16075" lon="-1.23824">
        <ele>180.87</ele>
        <time>2021-08-20T16:41:20Z</time>
      </trkpt>
      <trkpt lat="43.16073" lon="-1.23828">
        <ele>180.87</ele>
        <time>2021-08-20T16:41:41Z</time>
      </trkpt>
      <trkpt lat="43.16071" lon="-1.23829">
        <ele>181.35</ele>
        <time>2021-08-20T16:41:56Z</time>
      </trkpt>
      <trkpt lat="43.16069" lon="-1.23832">
        <ele>181.35</ele>
        <time>2021-08-20T16:42:12Z</time>
      </trkpt>
      <trkpt lat="43.16071" lon="-1.23828">
        <ele>181.35</ele>
        <time>2021-08-20T16:42:30Z</time>
      </trkpt>
      <trkpt lat="43.1607" lon="-1.2383">
        <ele>181.35</ele>
        <time>2021-08-20T16:42:40Z</time>
      </trkpt>
      <trkpt lat="43.16072" lon="-1.2383">
        <ele>181.83</ele>
        <time>2021-08-20T16:42:53Z</time>
      </trkpt>
      <trkpt lat="43.16072" lon="-1.23827">
        <ele>181.83</ele>
        <time>2021-08-20T16:43:14Z</time>
      </trkpt>
      <trkpt lat="43.16069" lon="-1.23824">
        <ele>181.83</ele>
        <time>2021-08-20T16:43:29Z</time>
      </trkpt>
      <trkpt lat="43.1607" lon="-1.23825">
        <ele>181.83</ele>
        <time>2021-08-20T16:43:44Z</time>
      </trkpt>
      <trkpt lat="43.16072" lon="-1.23822">
        <ele>182.31</ele>
        <time>2021-08-20T16:44:07Z</time>
      </trkpt>
      <trkpt lat="43.16073" lon="-1.2382">
        <ele>182.31</ele>
        <time>2021-08-20T16:44:18Z</time>
      </trkpt>
      <trkpt lat="43.16074" lon="-1.2382">
        <ele>182.31</ele>
        <time>2021-08-20T16:44:36Z</time>
      </trkpt>
      <trkpt lat="43.16073" lon="-1.23822">
        <ele>182.31</ele>
        <time>2021-08-20T16:44:52Z</time>
      </trkpt>
      <trkpt lat="43.16074" lon="-1.23821">
        <ele>182.79</ele>
        <time>2021-08-20T16:45:11Z</time>
      </trkpt>
      <trkpt lat="43.16075" lon="-1.23822">
        <ele>182.79</ele>
        <time>2021-08-20T16:45:33Z</time>
      </trkpt>
      <trkpt lat="43.16075" lon="-1.23822">
        <ele>182.79</ele>
        <time>2021-08-20T16:45:52Z</time>
      </trkpt>
      <trkpt lat="43.16075" lon="-1.23821">
        <ele>183.27</ele>
        <time>2021-08-20T16:46:13Z</time>
      </trkpt>
      <trkpt lat="43.16075" lon="-1.23821">
        <ele>183.27</ele>
        <time>2021-08-20T16:46:30Z</time>
      </trkpt>
      <trkpt lat="43.16075" lon="-1.23821">
        <ele>183.27</ele>
        <time>2021-08-20T16:46:45Z</time>
      </trkpt>
      <trkpt lat="43.16075" lon="-1.23821">
        <ele>183.27</ele>
        <time>2021-08-20T16:47:04Z</time>
      </trkpt>
      <trkpt lat="43.16074" lon="-1.23821">
        <ele>183.27</ele>
        <time>2021-08-20T16:47:25Z</time>
      </trkpt>
      <trkpt lat="43.16073" lon="-1.2382">
        <ele>183.75</ele>
        <time>2021-08-20T16:47:40Z</time>
      </trkpt>
      <trkpt lat="43.16073" lon="-1.23819">
        <ele>183.75</ele>
        <time>2021-08-20T16:47:50Z</time>
      </trkpt>
      <trkpt lat="43.16073" lon="-1.2382">
        <ele>183.75</ele>
        <time>2021-08-20T16:48:07Z</time>
      </trkpt>
      <trkpt lat="43.16074" lon="-1.23821">
        <ele>183.75</ele>
        <time>2021-08-20T16:48:26Z</time>
      </trkpt>
      <trkpt lat="43.16074" lon="-1.2382">
        <ele>183.75</ele>
        <time>2021-08-20T16:48:46Z</time>
      </trkpt>
      <trkpt lat="43.16077" lon="-1.23821">
        <ele>184.23</ele>
        <time>2021-08-20T16:49:11Z</time>
      </trkpt>
      <trkpt lat="43.16075" lon="-1.2382">
        <ele>184.23</ele>
        <time>2021-08-20T16:49:25Z</time>
      </trkpt>
      <trkpt lat="43.16076" lon="-1.2382">
        <ele>184.23</ele>
        <time>2021-08-20T16:49:44Z</time>
      </trkpt>
      <trkpt lat="43.16076" lon="-1.2382">
        <ele>185.67</ele>
        <time>2021-08-20T16:50:04Z</time>
      </trkpt>
      <trkpt lat="43.16075" lon="-1.23821">
        <ele>185.67</ele>
        <time>2021-08-20T16:50:18Z</time>
      </trkpt>
      <trkpt lat="43.16072" lon="-1.23822">
        <ele>185.67</ele>
        <time>2021-08-20T16:50:31Z</time>
      </trkpt>
      <trkpt lat="43.16072" lon="-1.23824">
        <ele>185.67</ele>
        <time>2021-08-20T16:50:49Z</time>
      </trkpt>
      <trkpt lat="43.16072" lon="-1.23823">
        <ele>185.67</ele>
        <time>2021-08-20T16:51:01Z</time>
      </trkpt>
      <trkpt lat="43.16073" lon="-1.23821">
        <ele>186.15</ele>
        <time>2021-08-20T16:51:16Z</time>
      </trkpt>
      <trkpt lat="43.16076" lon="-1.23818">
        <ele>186.15</ele>
        <time>2021-08-20T16:51:34Z</time>
      </trkpt>
      <trkpt lat="43.16078" lon="-1.23816">
        <ele>186.15</ele>
        <time>2021-08-20T16:51:49Z</time>
      </trkpt>
      <trkpt lat="43.16078" lon="-1.23816">
        <ele>186.15</ele>
        <time>2021-08-20T16:52:05Z</time>
      </trkpt>
      <trkpt lat="43.16079" lon="-1.23817">
        <ele>186.15</ele>
        <time>2021-08-20T16:52:23Z</time>
      </trkpt>
      <trkpt lat="43.16079" lon="-1.23815">
        <ele>186.15</ele>
        <time>2021-08-20T16:52:39Z</time>
      </trkpt>
      <trkpt lat="43.16078" lon="-1.23815">
        <ele>186.63</ele>
        <time>2021-08-20T16:52:54Z</time>
      </trkpt>
      <trkpt lat="43.16079" lon="-1.23816">
        <ele>186.63</ele>
        <time>2021-08-20T16:53:12Z</time>
      </trkpt>
      <trkpt lat="43.16079" lon="-1.23818">
        <ele>186.63</ele>
        <time>2021-08-20T16:53:31Z</time>
      </trkpt>
      <trkpt lat="43.16077" lon="-1.23819">
        <ele>186.63</ele>
        <time>2021-08-20T16:53:46Z</time>
      </trkpt>
      <trkpt lat="43.16077" lon="-1.23819">
        <ele>186.63</ele>
        <time>2021-08-20T16:54:04Z</time>
      </trkpt>
      <trkpt lat="43.16077" lon="-1.23819">
        <ele>186.63</ele>
        <time>2021-08-20T16:54:19Z</time>
      </trkpt>
      <trkpt lat="43.16078" lon="-1.23819">
        <ele>187.11</ele>
        <time>2021-08-20T16:54:37Z</time>
      </trkpt>
      <trkpt lat="43.16078" lon="-1.23819">
        <ele>187.11</ele>
        <time>2021-08-20T16:54:54Z</time>
      </trkpt>
      <trkpt lat="43.16076" lon="-1.23819">
        <ele>187.11</ele>
        <time>2021-08-20T16:55:19Z</time>
      </trkpt>
      <trkpt lat="43.16073" lon="-1.23819">
        <ele>187.11</ele>
        <time>2021-08-20T16:55:43Z</time>
      </trkpt>
      <trkpt lat="43.16075" lon="-1.23818">
        <ele>187.11</ele>
        <time>2021-08-20T16:55:58Z</time>
      </trkpt>
      <trkpt lat="43.16075" lon="-1.23817">
        <ele>187.59</ele>
        <time>2021-08-20T16:56:18Z</time>
      </trkpt>
      <trkpt lat="43.16074" lon="-1.2382">
        <ele>187.59</ele>
        <time>2021-08-20T16:56:40Z</time>
      </trkpt>
      <trkpt lat="43.16074" lon="-1.2382">
        <ele>187.59</ele>
        <time>2021-08-20T16:56:58Z</time>
      </trkpt>
      <trkpt lat="43.16073" lon="-1.23819">
        <ele>187.59</ele>
        <time>2021-08-20T16:57:18Z</time>
      </trkpt>
      <trkpt lat="43.16073" lon="-1.2382">
        <ele>187.59</ele>
        <time>2021-08-20T16:57:34Z</time>
      </trkpt>
      <trkpt lat="43.16073" lon="-1.2382">
        <ele>187.59</ele>
        <time>2021-08-20T16:57:50Z</time>
      </trkpt>
      <trkpt lat="43.16073" lon="-1.23821">
        <ele>187.59</ele>
        <time>2021-08-20T16:58:10Z</time>
      </trkpt>
      <trkpt lat="43.16074" lon="-1.2382">
        <ele>188.08</ele>
        <time>2021-08-20T16:58:26Z</time>
      </trkpt>
      <trkpt lat="43.16074" lon="-1.2382">
        <ele>188.08</ele>
        <time>2021-08-20T16:58:45Z</time>
      </trkpt>
      <trkpt lat="43.16075" lon="-1.2382">
        <ele>188.08</ele>
        <time>2021-08-20T16:58:59Z</time>
      </trkpt>
      <trkpt lat="43.16076" lon="-1.2382">
        <ele>188.08</ele>
        <time>2021-08-20T16:59:13Z</time>
      </trkpt>
      <trkpt lat="43.16075" lon="-1.23821">
        <ele>188.08</ele>
        <time>2021-08-20T16:59:25Z</time>
      </trkpt>
      <trkpt lat="43.16075" lon="-1.23821">
        <ele>188.08</ele>
        <time>2021-08-20T16:59:43Z</time>
      </trkpt>
      <trkpt lat="43.16075" lon="-1.2382">
        <ele>188.08</ele>
        <time>2021-08-20T17:00:04Z</time>
      </trkpt>
      <trkpt lat="43.16074" lon="-1.2382">
        <ele>188.56</ele>
        <time>2021-08-20T17:00:22Z</time>
      </trkpt>
      <trkpt lat="43.16075" lon="-1.23819">
        <ele>188.56</ele>
        <time>2021-08-20T17:00:36Z</time>
      </trkpt>
      <trkpt lat="43.16074" lon="-1.23818">
        <ele>188.56</ele>
        <time>2021-08-20T17:00:52Z</time>
      </trkpt>
      <trkpt lat="43.16074" lon="-1.23817">
        <ele>188.56</ele>
        <time>2021-08-20T17:01:07Z</time>
      </trkpt>
      <trkpt lat="43.16074" lon="-1.23816">
        <ele>188.56</ele>
        <time>2021-08-20T17:01:21Z</time>
      </trkpt>
      <trkpt lat="43.16074" lon="-1.23819">
        <ele>188.56</ele>
        <time>2021-08-20T17:01:38Z</time>
      </trkpt>
      <trkpt lat="43.16073" lon="-1.23823">
        <ele>188.56</ele>
        <time>2021-08-20T17:01:58Z</time>
      </trkpt>
      <trkpt lat="43.16075" lon="-1.23822">
        <ele>188.56</ele>
        <time>2021-08-20T17:02:19Z</time>
      </trkpt>
      <trkpt lat="43.16073" lon="-1.23821">
        <ele>188.56</ele>
        <time>2021-08-20T17:02:44Z</time>
      </trkpt>
      <trkpt lat="43.16075" lon="-1.2382">
        <ele>188.56</ele>
        <time>2021-08-20T17:02:57Z</time>
      </trkpt>
      <trkpt lat="43.16074" lon="-1.2382">
        <ele>188.56</ele>
        <time>2021-08-20T17:03:19Z</time>
      </trkpt>
      <trkpt lat="43.16072" lon="-1.23821">
        <ele>188.56</ele>
        <time>2021-08-20T17:03:37Z</time>
      </trkpt>
      <trkpt lat="43.16073" lon="-1.23821">
        <ele>188.56</ele>
        <time>2021-08-20T17:03:53Z</time>
      </trkpt>
      <trkpt lat="43.16074" lon="-1.23818">
        <ele>188.56</ele>
        <time>2021-08-20T17:04:10Z</time>
      </trkpt>
      <trkpt lat="43.16074" lon="-1.23818">
        <ele>188.56</ele>
        <time>2021-08-20T17:04:25Z</time>
      </trkpt>
      <trkpt lat="43.16073" lon="-1.23816">
        <ele>188.56</ele>
        <time>2021-08-20T17:04:44Z</time>
      </trkpt>
      <trkpt lat="43.16075" lon="-1.23816">
        <ele>189.04</ele>
        <time>2021-08-20T17:04:56Z</time>
      </trkpt>
      <trkpt lat="43.16075" lon="-1.23809">
        <ele>189.04</ele>
        <time>2021-08-20T17:05:16Z</time>
      </trkpt>
      <trkpt lat="43.16074" lon="-1.23811">
        <ele>189.04</ele>
        <time>2021-08-20T17:05:31Z</time>
      </trkpt>
      <trkpt lat="43.1607" lon="-1.23818">
        <ele>189.04</ele>
        <time>2021-08-20T17:05:50Z</time>
      </trkpt>
      <trkpt lat="43.16071" lon="-1.23818">
        <ele>189.04</ele>
        <time>2021-08-20T17:06:05Z</time>
      </trkpt>
      <trkpt lat="43.16075" lon="-1.23817">
        <ele>190.96</ele>
        <time>2021-08-20T17:06:17Z</time>
      </trkpt>
      <trkpt lat="43.16075" lon="-1.23817">
        <ele>187.59</ele>
        <time>2021-08-20T17:06:18Z</time>
      </trkpt>
      <trkpt lat="43.16072" lon="-1.23814">
        <ele>189.52</ele>
        <time>2021-08-20T17:06:24Z</time>
      </trkpt>
      <trkpt lat="43.16069" lon="-1.23818">
        <ele>189.52</ele>
        <time>2021-08-20T17:06:28Z</time>
      </trkpt>
      <trkpt lat="43.16068" lon="-1.23818">
        <ele>189.52</ele>
        <time>2021-08-20T17:06:29Z</time>
      </trkpt>
      <trkpt lat="43.16061" lon="-1.23817">
        <ele>190</ele>
        <time>2021-08-20T17:06:37Z</time>
      </trkpt>
      <trkpt lat="43.16053" lon="-1.23822">
        <ele>190.96</ele>
        <time>2021-08-20T17:06:46Z</time>
      </trkpt>
      <trkpt lat="43.16047" lon="-1.23827">
        <ele>190.96</ele>
        <time>2021-08-20T17:06:57Z</time>
      </trkpt>
      <trkpt lat="43.16046" lon="-1.2383">
        <ele>190.96</ele>
        <time>2021-08-20T17:07:09Z</time>
      </trkpt>
      <trkpt lat="43.16044" lon="-1.23831">
        <ele>190.96</ele>
        <time>2021-08-20T17:07:11Z</time>
      </trkpt>
      <trkpt lat="43.16035" lon="-1.2384">
        <ele>190.96</ele>
        <time>2021-08-20T17:07:17Z</time>
      </trkpt>
      <trkpt lat="43.16019" lon="-1.23847">
        <ele>191.92</ele>
        <time>2021-08-20T17:07:24Z</time>
      </trkpt>
      <trkpt lat="43.15999" lon="-1.23858">
        <ele>192.88</ele>
        <time>2021-08-20T17:07:34Z</time>
      </trkpt>
      <trkpt lat="43.15997" lon="-1.23858">
        <ele>192.88</ele>
        <time>2021-08-20T17:07:35Z</time>
      </trkpt>
      <trkpt lat="43.15995" lon="-1.23859">
        <ele>192.88</ele>
        <time>2021-08-20T17:07:36Z</time>
      </trkpt>
      <trkpt lat="43.15994" lon="-1.23861">
        <ele>192.88</ele>
        <time>2021-08-20T17:07:37Z</time>
      </trkpt>
      <trkpt lat="43.15992" lon="-1.23862">
        <ele>193.36</ele>
        <time>2021-08-20T17:07:38Z</time>
      </trkpt>
      <trkpt lat="43.1599" lon="-1.23863">
        <ele>193.36</ele>
        <time>2021-08-20T17:07:39Z</time>
      </trkpt>
      <trkpt lat="43.15988" lon="-1.23864">
        <ele>193.36</ele>
        <time>2021-08-20T17:07:40Z</time>
      </trkpt>
      <trkpt lat="43.15977" lon="-1.23871">
        <ele>194.32</ele>
        <time>2021-08-20T17:07:46Z</time>
      </trkpt>
      <trkpt lat="43.15967" lon="-1.23882">
        <ele>195.77</ele>
        <time>2021-08-20T17:07:54Z</time>
      </trkpt>
      <trkpt lat="43.15965" lon="-1.239">
        <ele>197.69</ele>
        <time>2021-08-20T17:08:02Z</time>
      </trkpt>
      <trkpt lat="43.15966" lon="-1.2392">
        <ele>198.17</ele>
        <time>2021-08-20T17:08:11Z</time>
      </trkpt>
      <trkpt lat="43.15967" lon="-1.23922">
        <ele>198.65</ele>
        <time>2021-08-20T17:08:12Z</time>
      </trkpt>
      <trkpt lat="43.15967" lon="-1.23925">
        <ele>198.65</ele>
        <time>2021-08-20T17:08:13Z</time>
      </trkpt>
      <trkpt lat="43.15968" lon="-1.23927">
        <ele>198.65</ele>
        <time>2021-08-20T17:08:14Z</time>
      </trkpt>
      <trkpt lat="43.15968" lon="-1.2393">
        <ele>198.65</ele>
        <time>2021-08-20T17:08:15Z</time>
      </trkpt>
      <trkpt lat="43.15968" lon="-1.23933">
        <ele>198.65</ele>
        <time>2021-08-20T17:08:16Z</time>
      </trkpt>
      <trkpt lat="43.15969" lon="-1.23936">
        <ele>198.65</ele>
        <time>2021-08-20T17:08:17Z</time>
      </trkpt>
      <trkpt lat="43.15969" lon="-1.23939">
        <ele>199.13</ele>
        <time>2021-08-20T17:08:18Z</time>
      </trkpt>
      <trkpt lat="43.15969" lon="-1.23942">
        <ele>199.13</ele>
        <time>2021-08-20T17:08:19Z</time>
      </trkpt>
      <trkpt lat="43.15969" lon="-1.23944">
        <ele>199.13</ele>
        <time>2021-08-20T17:08:20Z</time>
      </trkpt>
      <trkpt lat="43.1597" lon="-1.23947">
        <ele>199.13</ele>
        <time>2021-08-20T17:08:21Z</time>
      </trkpt>
      <trkpt lat="43.15975" lon="-1.23963">
        <ele>200.09</ele>
        <time>2021-08-20T17:08:28Z</time>
      </trkpt>
      <trkpt lat="43.15976" lon="-1.23966">
        <ele>200.09</ele>
        <time>2021-08-20T17:08:29Z</time>
      </trkpt>
      <trkpt lat="43.15977" lon="-1.23968">
        <ele>200.09</ele>
        <time>2021-08-20T17:08:30Z</time>
      </trkpt>
      <trkpt lat="43.15984" lon="-1.2399">
        <ele>201.05</ele>
        <time>2021-08-20T17:08:40Z</time>
      </trkpt>
      <trkpt lat="43.15998" lon="-1.24016">
        <ele>201.05</ele>
        <time>2021-08-20T17:08:50Z</time>
      </trkpt>
      <trkpt lat="43.16014" lon="-1.24042">
        <ele>201.53</ele>
        <time>2021-08-20T17:08:59Z</time>
      </trkpt>
      <trkpt lat="43.16027" lon="-1.24067">
        <ele>202.01</ele>
        <time>2021-08-20T17:09:08Z</time>
      </trkpt>
      <trkpt lat="43.16039" lon="-1.24095">
        <ele>202.98</ele>
        <time>2021-08-20T17:09:18Z</time>
      </trkpt>
      <trkpt lat="43.16045" lon="-1.24114">
        <ele>203.46</ele>
        <time>2021-08-20T17:09:25Z</time>
      </trkpt>
      <trkpt lat="43.1605" lon="-1.24137">
        <ele>204.42</ele>
        <time>2021-08-20T17:09:33Z</time>
      </trkpt>
      <trkpt lat="43.16053" lon="-1.24162">
        <ele>205.86</ele>
        <time>2021-08-20T17:09:42Z</time>
      </trkpt>
      <trkpt lat="43.16053" lon="-1.24173">
        <ele>206.34</ele>
        <time>2021-08-20T17:09:46Z</time>
      </trkpt>
      <trkpt lat="43.16053" lon="-1.24176">
        <ele>206.34</ele>
        <time>2021-08-20T17:09:47Z</time>
      </trkpt>
      <trkpt lat="43.16052" lon="-1.24178">
        <ele>206.34</ele>
        <time>2021-08-20T17:09:48Z</time>
      </trkpt>
      <trkpt lat="43.16051" lon="-1.24181">
        <ele>206.34</ele>
        <time>2021-08-20T17:09:49Z</time>
      </trkpt>
      <trkpt lat="43.1605" lon="-1.24183">
        <ele>206.82</ele>
        <time>2021-08-20T17:09:50Z</time>
      </trkpt>
      <trkpt lat="43.16049" lon="-1.24185">
        <ele>206.82</ele>
        <time>2021-08-20T17:09:51Z</time>
      </trkpt>
      <trkpt lat="43.16048" lon="-1.24187">
        <ele>206.82</ele>
        <time>2021-08-20T17:09:52Z</time>
      </trkpt>
      <trkpt lat="43.16047" lon="-1.24189">
        <ele>207.3</ele>
        <time>2021-08-20T17:09:53Z</time>
      </trkpt>
      <trkpt lat="43.16046" lon="-1.24191">
        <ele>207.3</ele>
        <time>2021-08-20T17:09:54Z</time>
      </trkpt>
      <trkpt lat="43.16046" lon="-1.24194">
        <ele>207.3</ele>
        <time>2021-08-20T17:09:55Z</time>
      </trkpt>
      <trkpt lat="43.16045" lon="-1.24196">
        <ele>207.78</ele>
        <time>2021-08-20T17:09:56Z</time>
      </trkpt>
      <trkpt lat="43.16038" lon="-1.24215">
        <ele>208.26</ele>
        <time>2021-08-20T17:10:05Z</time>
      </trkpt>
      <trkpt lat="43.1603" lon="-1.24238">
        <ele>210.19</ele>
        <time>2021-08-20T17:10:15Z</time>
      </trkpt>
      <trkpt lat="43.16022" lon="-1.24258">
        <ele>211.63</ele>
        <time>2021-08-20T17:10:24Z</time>
      </trkpt>
      <trkpt lat="43.16019" lon="-1.24279">
        <ele>213.07</ele>
        <time>2021-08-20T17:10:33Z</time>
      </trkpt>
      <trkpt lat="43.16015" lon="-1.24298">
        <ele>214.03</ele>
        <time>2021-08-20T17:10:41Z</time>
      </trkpt>
      <trkpt lat="43.16015" lon="-1.24322">
        <ele>212.59</ele>
        <time>2021-08-20T17:10:47Z</time>
      </trkpt>
      <trkpt lat="43.16014" lon="-1.24328">
        <ele>212.59</ele>
        <time>2021-08-20T17:10:48Z</time>
      </trkpt>
      <trkpt lat="43.16007" lon="-1.24368">
        <ele>209.22</ele>
        <time>2021-08-20T17:10:53Z</time>
      </trkpt>
      <trkpt lat="43.15999" lon="-1.24399">
        <ele>206.82</ele>
        <time>2021-08-20T17:10:56Z</time>
      </trkpt>
      <trkpt lat="43.15988" lon="-1.24425">
        <ele>205.86</ele>
        <time>2021-08-20T17:10:59Z</time>
      </trkpt>
      <trkpt lat="43.15963" lon="-1.24466">
        <ele>204.9</ele>
        <time>2021-08-20T17:11:05Z</time>
      </trkpt>
      <trkpt lat="43.15956" lon="-1.24478">
        <ele>204.42</ele>
        <time>2021-08-20T17:11:07Z</time>
      </trkpt>
      <trkpt lat="43.15943" lon="-1.24499">
        <ele>204.9</ele>
        <time>2021-08-20T17:11:11Z</time>
      </trkpt>
      <trkpt lat="43.15918" lon="-1.24538">
        <ele>204.42</ele>
        <time>2021-08-20T17:11:19Z</time>
      </trkpt>
      <trkpt lat="43.15898" lon="-1.24583">
        <ele>203.94</ele>
        <time>2021-08-20T17:11:27Z</time>
      </trkpt>
      <trkpt lat="43.15873" lon="-1.2465">
        <ele>202.49</ele>
        <time>2021-08-20T17:11:38Z</time>
      </trkpt>
      <trkpt lat="43.15849" lon="-1.24712">
        <ele>202.49</ele>
        <time>2021-08-20T17:11:48Z</time>
      </trkpt>
      <trkpt lat="43.15838" lon="-1.24741">
        <ele>202.49</ele>
        <time>2021-08-20T17:11:53Z</time>
      </trkpt>
      <trkpt lat="43.15835" lon="-1.24754">
        <ele>202.49</ele>
        <time>2021-08-20T17:11:55Z</time>
      </trkpt>
      <trkpt lat="43.15832" lon="-1.24759">
        <ele>202.49</ele>
        <time>2021-08-20T17:11:56Z</time>
      </trkpt>
      <trkpt lat="43.1581" lon="-1.24792">
        <ele>201.53</ele>
        <time>2021-08-20T17:12:03Z</time>
      </trkpt>
      <trkpt lat="43.15806" lon="-1.24797">
        <ele>201.53</ele>
        <time>2021-08-20T17:12:04Z</time>
      </trkpt>
      <trkpt lat="43.15802" lon="-1.24802">
        <ele>201.05</ele>
        <time>2021-08-20T17:12:05Z</time>
      </trkpt>
      <trkpt lat="43.15798" lon="-1.24808">
        <ele>200.57</ele>
        <time>2021-08-20T17:12:06Z</time>
      </trkpt>
      <trkpt lat="43.1579" lon="-1.24823">
        <ele>199.13</ele>
        <time>2021-08-20T17:12:08Z</time>
      </trkpt>
      <trkpt lat="43.15765" lon="-1.24881">
        <ele>195.77</ele>
        <time>2021-08-20T17:12:14Z</time>
      </trkpt>
      <trkpt lat="43.1576" lon="-1.2489">
        <ele>195.28</ele>
        <time>2021-08-20T17:12:15Z</time>
      </trkpt>
      <trkpt lat="43.15754" lon="-1.24899">
        <ele>194.8</ele>
        <time>2021-08-20T17:12:16Z</time>
      </trkpt>
      <trkpt lat="43.15747" lon="-1.24907">
        <ele>194.8</ele>
        <time>2021-08-20T17:12:17Z</time>
      </trkpt>
      <trkpt lat="43.1574" lon="-1.24915">
        <ele>194.32</ele>
        <time>2021-08-20T17:12:18Z</time>
      </trkpt>
      <trkpt lat="43.15733" lon="-1.24921">
        <ele>194.32</ele>
        <time>2021-08-20T17:12:19Z</time>
      </trkpt>
      <trkpt lat="43.15725" lon="-1.24926">
        <ele>194.32</ele>
        <time>2021-08-20T17:12:20Z</time>
      </trkpt>
      <trkpt lat="43.15718" lon="-1.2493">
        <ele>194.32</ele>
        <time>2021-08-20T17:12:21Z</time>
      </trkpt>
      <trkpt lat="43.1571" lon="-1.24933">
        <ele>194.32</ele>
        <time>2021-08-20T17:12:22Z</time>
      </trkpt>
      <trkpt lat="43.15703" lon="-1.24935">
        <ele>194.32</ele>
        <time>2021-08-20T17:12:23Z</time>
      </trkpt>
      <trkpt lat="43.15681" lon="-1.24937">
        <ele>194.32</ele>
        <time>2021-08-20T17:12:26Z</time>
      </trkpt>
      <trkpt lat="43.15666" lon="-1.24935">
        <ele>193.36</ele>
        <time>2021-08-20T17:12:28Z</time>
      </trkpt>
      <trkpt lat="43.15612" lon="-1.24923">
        <ele>191.44</ele>
        <time>2021-08-20T17:12:35Z</time>
      </trkpt>
      <trkpt lat="43.1556" lon="-1.24922">
        <ele>189.04</ele>
        <time>2021-08-20T17:12:41Z</time>
      </trkpt>
      <trkpt lat="43.15513" lon="-1.24928">
        <ele>186.63</ele>
        <time>2021-08-20T17:12:47Z</time>
      </trkpt>
      <trkpt lat="43.15486" lon="-1.24939">
        <ele>183.27</ele>
        <time>2021-08-20T17:12:51Z</time>
      </trkpt>
      <trkpt lat="43.15482" lon="-1.24942">
        <ele>182.79</ele>
        <time>2021-08-20T17:12:52Z</time>
      </trkpt>
      <trkpt lat="43.15479" lon="-1.24949">
        <ele>182.31</ele>
        <time>2021-08-20T17:12:53Z</time>
      </trkpt>
      <trkpt lat="43.15478" lon="-1.24957">
        <ele>181.83</ele>
        <time>2021-08-20T17:12:54Z</time>
      </trkpt>
      <trkpt lat="43.15479" lon="-1.24965">
        <ele>181.83</ele>
        <time>2021-08-20T17:12:55Z</time>
      </trkpt>
      <trkpt lat="43.1548" lon="-1.24972">
        <ele>181.83</ele>
        <time>2021-08-20T17:12:56Z</time>
      </trkpt>
      <trkpt lat="43.15482" lon="-1.24979">
        <ele>181.83</ele>
        <time>2021-08-20T17:12:57Z</time>
      </trkpt>
      <trkpt lat="43.15484" lon="-1.24986">
        <ele>181.83</ele>
        <time>2021-08-20T17:12:58Z</time>
      </trkpt>
      <trkpt lat="43.15486" lon="-1.24991">
        <ele>181.83</ele>
        <time>2021-08-20T17:12:59Z</time>
      </trkpt>
      <trkpt lat="43.15489" lon="-1.25002">
        <ele>181.83</ele>
        <time>2021-08-20T17:13:01Z</time>
      </trkpt>
      <trkpt lat="43.15492" lon="-1.25029">
        <ele>184.23</ele>
        <time>2021-08-20T17:13:07Z</time>
      </trkpt>
      <trkpt lat="43.15489" lon="-1.25046">
        <ele>186.15</ele>
        <time>2021-08-20T17:13:13Z</time>
      </trkpt>
      <trkpt lat="43.15472" lon="-1.25065">
        <ele>187.11</ele>
        <time>2021-08-20T17:13:21Z</time>
      </trkpt>
      <trkpt lat="43.15455" lon="-1.25079">
        <ele>187.11</ele>
        <time>2021-08-20T17:13:29Z</time>
      </trkpt>
      <trkpt lat="43.15442" lon="-1.25098">
        <ele>187.11</ele>
        <time>2021-08-20T17:13:35Z</time>
      </trkpt>
      <trkpt lat="43.15441" lon="-1.25104">
        <ele>186.15</ele>
        <time>2021-08-20T17:13:36Z</time>
      </trkpt>
      <trkpt lat="43.15442" lon="-1.2511">
        <ele>186.15</ele>
        <time>2021-08-20T17:13:37Z</time>
      </trkpt>
      <trkpt lat="43.15442" lon="-1.25129">
        <ele>185.19</ele>
        <time>2021-08-20T17:13:40Z</time>
      </trkpt>
      <trkpt lat="43.15444" lon="-1.25169">
        <ele>185.19</ele>
        <time>2021-08-20T17:13:46Z</time>
      </trkpt>
      <trkpt lat="43.15445" lon="-1.25176">
        <ele>185.19</ele>
        <time>2021-08-20T17:13:47Z</time>
      </trkpt>
      <trkpt lat="43.15445" lon="-1.25229">
        <ele>185.19</ele>
        <time>2021-08-20T17:13:57Z</time>
      </trkpt>
      <trkpt lat="43.15446" lon="-1.25265">
        <ele>187.59</ele>
        <time>2021-08-20T17:14:05Z</time>
      </trkpt>
      <trkpt lat="43.15447" lon="-1.25299">
        <ele>188.08</ele>
        <time>2021-08-20T17:14:13Z</time>
      </trkpt>
      <trkpt lat="43.15445" lon="-1.25326">
        <ele>189.04</ele>
        <time>2021-08-20T17:14:21Z</time>
      </trkpt>
      <trkpt lat="43.15444" lon="-1.25342">
        <ele>190.48</ele>
        <time>2021-08-20T17:14:28Z</time>
      </trkpt>
      <trkpt lat="43.15441" lon="-1.25363">
        <ele>191.44</ele>
        <time>2021-08-20T17:14:36Z</time>
      </trkpt>
      <trkpt lat="43.1544" lon="-1.25373">
        <ele>191.92</ele>
        <time>2021-08-20T17:14:41Z</time>
      </trkpt>
      <trkpt lat="43.1544" lon="-1.25376">
        <ele>191.92</ele>
        <time>2021-08-20T17:14:42Z</time>
      </trkpt>
      <trkpt lat="43.1544" lon="-1.25378">
        <ele>191.44</ele>
        <time>2021-08-20T17:14:43Z</time>
      </trkpt>
      <trkpt lat="43.15439" lon="-1.2538">
        <ele>191.44</ele>
        <time>2021-08-20T17:14:44Z</time>
      </trkpt>
      <trkpt lat="43.15438" lon="-1.25382">
        <ele>191.92</ele>
        <time>2021-08-20T17:14:45Z</time>
      </trkpt>
      <trkpt lat="43.15437" lon="-1.25384">
        <ele>191.92</ele>
        <time>2021-08-20T17:14:46Z</time>
      </trkpt>
      <trkpt lat="43.15434" lon="-1.25399">
        <ele>193.36</ele>
        <time>2021-08-20T17:14:54Z</time>
      </trkpt>
      <trkpt lat="43.15434" lon="-1.254">
        <ele>193.36</ele>
        <time>2021-08-20T17:14:55Z</time>
      </trkpt>
      <trkpt lat="43.15433" lon="-1.25402">
        <ele>193.84</ele>
        <time>2021-08-20T17:14:56Z</time>
      </trkpt>
      <trkpt lat="43.15433" lon="-1.25403">
        <ele>193.84</ele>
        <time>2021-08-20T17:14:57Z</time>
      </trkpt>
      <trkpt lat="43.15432" lon="-1.25405">
        <ele>194.32</ele>
        <time>2021-08-20T17:14:58Z</time>
      </trkpt>
      <trkpt lat="43.15431" lon="-1.25406">
        <ele>194.32</ele>
        <time>2021-08-20T17:14:59Z</time>
      </trkpt>
      <trkpt lat="43.1543" lon="-1.25408">
        <ele>194.32</ele>
        <time>2021-08-20T17:15:00Z</time>
      </trkpt>
      <trkpt lat="43.15429" lon="-1.25409">
        <ele>194.32</ele>
        <time>2021-08-20T17:15:01Z</time>
      </trkpt>
      <trkpt lat="43.15428" lon="-1.2541">
        <ele>194.8</ele>
        <time>2021-08-20T17:15:02Z</time>
      </trkpt>
      <trkpt lat="43.15427" lon="-1.2541">
        <ele>194.8</ele>
        <time>2021-08-20T17:15:03Z</time>
      </trkpt>
      <trkpt lat="43.15426" lon="-1.25412">
        <ele>195.28</ele>
        <time>2021-08-20T17:15:04Z</time>
      </trkpt>
      <trkpt lat="43.15425" lon="-1.25413">
        <ele>195.28</ele>
        <time>2021-08-20T17:15:05Z</time>
      </trkpt>
      <trkpt lat="43.15419" lon="-1.25425">
        <ele>196.73</ele>
        <time>2021-08-20T17:15:13Z</time>
      </trkpt>
      <trkpt lat="43.15417" lon="-1.25428">
        <ele>196.73</ele>
        <time>2021-08-20T17:15:15Z</time>
      </trkpt>
      <trkpt lat="43.15416" lon="-1.25429">
        <ele>196.73</ele>
        <time>2021-08-20T17:15:16Z</time>
      </trkpt>
      <trkpt lat="43.15411" lon="-1.25435">
        <ele>198.17</ele>
        <time>2021-08-20T17:15:20Z</time>
      </trkpt>
      <trkpt lat="43.1541" lon="-1.25437">
        <ele>198.17</ele>
        <time>2021-08-20T17:15:21Z</time>
      </trkpt>
      <trkpt lat="43.15409" lon="-1.25439">
        <ele>198.17</ele>
        <time>2021-08-20T17:15:22Z</time>
      </trkpt>
      <trkpt lat="43.15397" lon="-1.25457">
        <ele>200.57</ele>
        <time>2021-08-20T17:15:32Z</time>
      </trkpt>
      <trkpt lat="43.15381" lon="-1.25475">
        <ele>201.53</ele>
        <time>2021-08-20T17:15:43Z</time>
      </trkpt>
      <trkpt lat="43.15363" lon="-1.25497">
        <ele>201.53</ele>
        <time>2021-08-20T17:15:53Z</time>
      </trkpt>
      <trkpt lat="43.15358" lon="-1.2551">
        <ele>201.53</ele>
        <time>2021-08-20T17:15:58Z</time>
      </trkpt>
      <trkpt lat="43.1536" lon="-1.25512">
        <ele>202.01</ele>
        <time>2021-08-20T17:15:59Z</time>
      </trkpt>
      <trkpt lat="43.15362" lon="-1.25514">
        <ele>202.01</ele>
        <time>2021-08-20T17:16:00Z</time>
      </trkpt>
      <trkpt lat="43.15363" lon="-1.25515">
        <ele>202.01</ele>
        <time>2021-08-20T17:16:01Z</time>
      </trkpt>
      <trkpt lat="43.15365" lon="-1.25516">
        <ele>202.01</ele>
        <time>2021-08-20T17:16:02Z</time>
      </trkpt>
      <trkpt lat="43.15368" lon="-1.25517">
        <ele>202.01</ele>
        <time>2021-08-20T17:16:03Z</time>
      </trkpt>
      <trkpt lat="43.1537" lon="-1.25518">
        <ele>202.01</ele>
        <time>2021-08-20T17:16:04Z</time>
      </trkpt>
      <trkpt lat="43.15373" lon="-1.25519">
        <ele>202.01</ele>
        <time>2021-08-20T17:16:05Z</time>
      </trkpt>
      <trkpt lat="43.15401" lon="-1.25533">
        <ele>202.01</ele>
        <time>2021-08-20T17:16:14Z</time>
      </trkpt>
      <trkpt lat="43.15429" lon="-1.25553">
        <ele>200.57</ele>
        <time>2021-08-20T17:16:22Z</time>
      </trkpt>
      <trkpt lat="43.15476" lon="-1.25589">
        <ele>198.65</ele>
        <time>2021-08-20T17:16:33Z</time>
      </trkpt>
      <trkpt lat="43.15493" lon="-1.256">
        <ele>197.21</ele>
        <time>2021-08-20T17:16:36Z</time>
      </trkpt>
      <trkpt lat="43.155" lon="-1.25602">
        <ele>197.21</ele>
        <time>2021-08-20T17:16:37Z</time>
      </trkpt>
      <trkpt lat="43.15507" lon="-1.25603">
        <ele>196.25</ele>
        <time>2021-08-20T17:16:38Z</time>
      </trkpt>
      <trkpt lat="43.1554" lon="-1.25607">
        <ele>192.88</ele>
        <time>2021-08-20T17:16:42Z</time>
      </trkpt>
      <trkpt lat="43.15584" lon="-1.25613">
        <ele>191.92</ele>
        <time>2021-08-20T17:16:47Z</time>
      </trkpt>
      <trkpt lat="43.15591" lon="-1.25616">
        <ele>191.92</ele>
        <time>2021-08-20T17:16:48Z</time>
      </trkpt>
      <trkpt lat="43.15598" lon="-1.25621">
        <ele>191.92</ele>
        <time>2021-08-20T17:16:49Z</time>
      </trkpt>
      <trkpt lat="43.15604" lon="-1.25626">
        <ele>191.92</ele>
        <time>2021-08-20T17:16:50Z</time>
      </trkpt>
      <trkpt lat="43.1561" lon="-1.25631">
        <ele>191.92</ele>
        <time>2021-08-20T17:16:51Z</time>
      </trkpt>
      <trkpt lat="43.15637" lon="-1.25653">
        <ele>192.88</ele>
        <time>2021-08-20T17:16:56Z</time>
      </trkpt>
      <trkpt lat="43.15641" lon="-1.25657">
        <ele>193.36</ele>
        <time>2021-08-20T17:16:57Z</time>
      </trkpt>
      <trkpt lat="43.15646" lon="-1.2566">
        <ele>193.84</ele>
        <time>2021-08-20T17:16:58Z</time>
      </trkpt>
      <trkpt lat="43.15651" lon="-1.25662">
        <ele>193.84</ele>
        <time>2021-08-20T17:16:59Z</time>
      </trkpt>
      <trkpt lat="43.15672" lon="-1.25676">
        <ele>195.77</ele>
        <time>2021-08-20T17:17:06Z</time>
      </trkpt>
      <trkpt lat="43.15692" lon="-1.25688">
        <ele>197.21</ele>
        <time>2021-08-20T17:17:15Z</time>
      </trkpt>
      <trkpt lat="43.15709" lon="-1.25702">
        <ele>198.17</ele>
        <time>2021-08-20T17:17:24Z</time>
      </trkpt>
      <trkpt lat="43.15715" lon="-1.25723">
        <ele>199.61</ele>
        <time>2021-08-20T17:17:31Z</time>
      </trkpt>
      <trkpt lat="43.15719" lon="-1.25749">
        <ele>200.57</ele>
        <time>2021-08-20T17:17:40Z</time>
      </trkpt>
      <trkpt lat="43.15727" lon="-1.25783">
        <ele>202.49</ele>
        <time>2021-08-20T17:17:52Z</time>
      </trkpt>
      <trkpt lat="43.15732" lon="-1.25811">
        <ele>203.94</ele>
        <time>2021-08-20T17:18:02Z</time>
      </trkpt>
      <trkpt lat="43.15738" lon="-1.2584">
        <ele>204.9</ele>
        <time>2021-08-20T17:18:12Z</time>
      </trkpt>
      <trkpt lat="43.15743" lon="-1.25875">
        <ele>205.86</ele>
        <time>2021-08-20T17:18:23Z</time>
      </trkpt>
      <trkpt lat="43.15741" lon="-1.25894">
        <ele>206.82</ele>
        <time>2021-08-20T17:18:30Z</time>
      </trkpt>
      <trkpt lat="43.15733" lon="-1.25908">
        <ele>207.3</ele>
        <time>2021-08-20T17:18:37Z</time>
      </trkpt>
      <trkpt lat="43.15726" lon="-1.25922">
        <ele>207.78</ele>
        <time>2021-08-20T17:18:43Z</time>
      </trkpt>
      <trkpt lat="43.15718" lon="-1.25938">
        <ele>208.74</ele>
        <time>2021-08-20T17:18:51Z</time>
      </trkpt>
      <trkpt lat="43.15712" lon="-1.25969">
        <ele>209.7</ele>
        <time>2021-08-20T17:19:02Z</time>
      </trkpt>
      <trkpt lat="43.15712" lon="-1.25989">
        <ele>211.15</ele>
        <time>2021-08-20T17:19:10Z</time>
      </trkpt>
      <trkpt lat="43.15715" lon="-1.26009">
        <ele>212.59</ele>
        <time>2021-08-20T17:19:18Z</time>
      </trkpt>
      <trkpt lat="43.15716" lon="-1.26012">
        <ele>212.59</ele>
        <time>2021-08-20T17:19:19Z</time>
      </trkpt>
      <trkpt lat="43.15717" lon="-1.26014">
        <ele>213.07</ele>
        <time>2021-08-20T17:19:20Z</time>
      </trkpt>
      <trkpt lat="43.15718" lon="-1.26017">
        <ele>213.07</ele>
        <time>2021-08-20T17:19:21Z</time>
      </trkpt>
      <trkpt lat="43.15718" lon="-1.26019">
        <ele>213.07</ele>
        <time>2021-08-20T17:19:22Z</time>
      </trkpt>
      <trkpt lat="43.15719" lon="-1.26021">
        <ele>213.07</ele>
        <time>2021-08-20T17:19:23Z</time>
      </trkpt>
      <trkpt lat="43.15719" lon="-1.26024">
        <ele>213.55</ele>
        <time>2021-08-20T17:19:25Z</time>
      </trkpt>
      <trkpt lat="43.15718" lon="-1.26025">
        <ele>213.55</ele>
        <time>2021-08-20T17:19:26Z</time>
      </trkpt>
      <trkpt lat="43.15717" lon="-1.26026">
        <ele>213.55</ele>
        <time>2021-08-20T17:19:27Z</time>
      </trkpt>
      <trkpt lat="43.15715" lon="-1.26026">
        <ele>213.55</ele>
        <time>2021-08-20T17:19:28Z</time>
      </trkpt>
      <trkpt lat="43.15713" lon="-1.26026">
        <ele>213.55</ele>
        <time>2021-08-20T17:19:29Z</time>
      </trkpt>
      <trkpt lat="43.15711" lon="-1.26027">
        <ele>213.55</ele>
        <time>2021-08-20T17:19:30Z</time>
      </trkpt>
      <trkpt lat="43.15709" lon="-1.26028">
        <ele>213.55</ele>
        <time>2021-08-20T17:19:31Z</time>
      </trkpt>
      <trkpt lat="43.15708" lon="-1.26031">
        <ele>213.07</ele>
        <time>2021-08-20T17:19:32Z</time>
      </trkpt>
      <trkpt lat="43.15708" lon="-1.26034">
        <ele>213.07</ele>
        <time>2021-08-20T17:19:33Z</time>
      </trkpt>
      <trkpt lat="43.15708" lon="-1.26036">
        <ele>213.07</ele>
        <time>2021-08-20T17:19:34Z</time>
      </trkpt>
      <trkpt lat="43.15708" lon="-1.26038">
        <ele>213.07</ele>
        <time>2021-08-20T17:19:35Z</time>
      </trkpt>
      <trkpt lat="43.15708" lon="-1.26047">
        <ele>214.03</ele>
        <time>2021-08-20T17:19:39Z</time>
      </trkpt>
      <trkpt lat="43.15707" lon="-1.26049">
        <ele>214.03</ele>
        <time>2021-08-20T17:19:40Z</time>
      </trkpt>
      <trkpt lat="43.15707" lon="-1.26051">
        <ele>214.51</ele>
        <time>2021-08-20T17:19:41Z</time>
      </trkpt>
      <trkpt lat="43.15707" lon="-1.26053">
        <ele>214.51</ele>
        <time>2021-08-20T17:19:42Z</time>
      </trkpt>
      <trkpt lat="43.15706" lon="-1.26055">
        <ele>214.51</ele>
        <time>2021-08-20T17:19:43Z</time>
      </trkpt>
      <trkpt lat="43.15706" lon="-1.26057">
        <ele>214.99</ele>
        <time>2021-08-20T17:19:44Z</time>
      </trkpt>
      <trkpt lat="43.15706" lon="-1.26059">
        <ele>214.99</ele>
        <time>2021-08-20T17:19:45Z</time>
      </trkpt>
      <trkpt lat="43.15706" lon="-1.26076">
        <ele>216.91</ele>
        <time>2021-08-20T17:19:53Z</time>
      </trkpt>
      <trkpt lat="43.15706" lon="-1.26082">
        <ele>217.4</ele>
        <time>2021-08-20T17:19:56Z</time>
      </trkpt>
      <trkpt lat="43.15705" lon="-1.26097">
        <ele>218.36</ele>
        <time>2021-08-20T17:20:02Z</time>
      </trkpt>
      <trkpt lat="43.15707" lon="-1.26118">
        <ele>218.84</ele>
        <time>2021-08-20T17:20:10Z</time>
      </trkpt>
      <trkpt lat="43.15712" lon="-1.26125">
        <ele>219.32</ele>
        <time>2021-08-20T17:20:14Z</time>
      </trkpt>
      <trkpt lat="43.15712" lon="-1.26128">
        <ele>219.32</ele>
        <time>2021-08-20T17:20:15Z</time>
      </trkpt>
      <trkpt lat="43.15712" lon="-1.26154">
        <ele>220.28</ele>
        <time>2021-08-20T17:20:25Z</time>
      </trkpt>
      <trkpt lat="43.15713" lon="-1.26174">
        <ele>220.28</ele>
        <time>2021-08-20T17:20:32Z</time>
      </trkpt>
      <trkpt lat="43.15715" lon="-1.26196">
        <ele>221.24</ele>
        <time>2021-08-20T17:20:40Z</time>
      </trkpt>
      <trkpt lat="43.15717" lon="-1.26215">
        <ele>221.72</ele>
        <time>2021-08-20T17:20:47Z</time>
      </trkpt>
      <trkpt lat="43.15719" lon="-1.26236">
        <ele>223.16</ele>
        <time>2021-08-20T17:20:55Z</time>
      </trkpt>
      <trkpt lat="43.15719" lon="-1.26238">
        <ele>223.16</ele>
        <time>2021-08-20T17:20:56Z</time>
      </trkpt>
      <trkpt lat="43.1572" lon="-1.2624">
        <ele>223.64</ele>
        <time>2021-08-20T17:20:57Z</time>
      </trkpt>
      <trkpt lat="43.1572" lon="-1.26243">
        <ele>223.64</ele>
        <time>2021-08-20T17:20:58Z</time>
      </trkpt>
      <trkpt lat="43.15721" lon="-1.26245">
        <ele>223.64</ele>
        <time>2021-08-20T17:20:59Z</time>
      </trkpt>
      <trkpt lat="43.15721" lon="-1.26248">
        <ele>224.12</ele>
        <time>2021-08-20T17:21:00Z</time>
      </trkpt>
      <trkpt lat="43.15723" lon="-1.2628">
        <ele>225.57</ele>
        <time>2021-08-20T17:21:12Z</time>
      </trkpt>
      <trkpt lat="43.15721" lon="-1.26304">
        <ele>226.53</ele>
        <time>2021-08-20T17:21:20Z</time>
      </trkpt>
      <trkpt lat="43.15718" lon="-1.26328">
        <ele>226.53</ele>
        <time>2021-08-20T17:21:28Z</time>
      </trkpt>
      <trkpt lat="43.15716" lon="-1.26351">
        <ele>227.97</ele>
        <time>2021-08-20T17:21:37Z</time>
      </trkpt>
      <trkpt lat="43.15714" lon="-1.26371">
        <ele>229.41</ele>
        <time>2021-08-20T17:21:45Z</time>
      </trkpt>
      <trkpt lat="43.15715" lon="-1.26389">
        <ele>230.85</ele>
        <time>2021-08-20T17:21:52Z</time>
      </trkpt>
      <trkpt lat="43.15715" lon="-1.26392">
        <ele>230.85</ele>
        <time>2021-08-20T17:21:53Z</time>
      </trkpt>
      <trkpt lat="43.15715" lon="-1.26395">
        <ele>231.33</ele>
        <time>2021-08-20T17:21:54Z</time>
      </trkpt>
      <trkpt lat="43.15715" lon="-1.26398">
        <ele>231.33</ele>
        <time>2021-08-20T17:21:55Z</time>
      </trkpt>
      <trkpt lat="43.15715" lon="-1.26401">
        <ele>231.33</ele>
        <time>2021-08-20T17:21:56Z</time>
      </trkpt>
      <trkpt lat="43.15715" lon="-1.26404">
        <ele>231.81</ele>
        <time>2021-08-20T17:21:57Z</time>
      </trkpt>
      <trkpt lat="43.15715" lon="-1.26407">
        <ele>231.81</ele>
        <time>2021-08-20T17:21:58Z</time>
      </trkpt>
      <trkpt lat="43.15711" lon="-1.26439">
        <ele>232.3</ele>
        <time>2021-08-20T17:22:08Z</time>
      </trkpt>
      <trkpt lat="43.15709" lon="-1.26466">
        <ele>232.78</ele>
        <time>2021-08-20T17:22:16Z</time>
      </trkpt>
      <trkpt lat="43.15706" lon="-1.26504">
        <ele>233.26</ele>
        <time>2021-08-20T17:22:27Z</time>
      </trkpt>
      <trkpt lat="43.15705" lon="-1.26532">
        <ele>233.74</ele>
        <time>2021-08-20T17:22:35Z</time>
      </trkpt>
      <trkpt lat="43.15705" lon="-1.26557">
        <ele>235.18</ele>
        <time>2021-08-20T17:22:44Z</time>
      </trkpt>
      <trkpt lat="43.15705" lon="-1.26559">
        <ele>235.18</ele>
        <time>2021-08-20T17:22:45Z</time>
      </trkpt>
      <trkpt lat="43.15705" lon="-1.26561">
        <ele>235.18</ele>
        <time>2021-08-20T17:22:46Z</time>
      </trkpt>
      <trkpt lat="43.15705" lon="-1.26563">
        <ele>235.18</ele>
        <time>2021-08-20T17:22:47Z</time>
      </trkpt>
      <trkpt lat="43.15705" lon="-1.26565">
        <ele>235.66</ele>
        <time>2021-08-20T17:22:48Z</time>
      </trkpt>
      <trkpt lat="43.15706" lon="-1.26568">
        <ele>235.66</ele>
        <time>2021-08-20T17:22:49Z</time>
      </trkpt>
      <trkpt lat="43.15709" lon="-1.26589">
        <ele>236.62</ele>
        <time>2021-08-20T17:22:57Z</time>
      </trkpt>
      <trkpt lat="43.1571" lon="-1.26618">
        <ele>236.62</ele>
        <time>2021-08-20T17:23:04Z</time>
      </trkpt>
      <trkpt lat="43.15711" lon="-1.2663">
        <ele>234.7</ele>
        <time>2021-08-20T17:23:06Z</time>
      </trkpt>
      <trkpt lat="43.15711" lon="-1.26637">
        <ele>234.7</ele>
        <time>2021-08-20T17:23:07Z</time>
      </trkpt>
      <trkpt lat="43.15715" lon="-1.26691">
        <ele>233.74</ele>
        <time>2021-08-20T17:23:15Z</time>
      </trkpt>
      <trkpt lat="43.15719" lon="-1.26712">
        <ele>235.18</ele>
        <time>2021-08-20T17:23:20Z</time>
      </trkpt>
      <trkpt lat="43.15719" lon="-1.26731">
        <ele>237.1</ele>
        <time>2021-08-20T17:23:28Z</time>
      </trkpt>
      <trkpt lat="43.15713" lon="-1.26749">
        <ele>237.58</ele>
        <time>2021-08-20T17:23:36Z</time>
      </trkpt>
      <trkpt lat="43.15701" lon="-1.26756">
        <ele>239.02</ele>
        <time>2021-08-20T17:23:44Z</time>
      </trkpt>
      <trkpt lat="43.15691" lon="-1.26763">
        <ele>240.95</ele>
        <time>2021-08-20T17:23:53Z</time>
      </trkpt>
      <trkpt lat="43.15685" lon="-1.26768">
        <ele>241.91</ele>
        <time>2021-08-20T17:23:58Z</time>
      </trkpt>
      <trkpt lat="43.15684" lon="-1.2677">
        <ele>241.91</ele>
        <time>2021-08-20T17:23:59Z</time>
      </trkpt>
      <trkpt lat="43.15684" lon="-1.26772">
        <ele>241.91</ele>
        <time>2021-08-20T17:24:00Z</time>
      </trkpt>
      <trkpt lat="43.15684" lon="-1.26774">
        <ele>242.39</ele>
        <time>2021-08-20T17:24:01Z</time>
      </trkpt>
      <trkpt lat="43.15684" lon="-1.26776">
        <ele>242.39</ele>
        <time>2021-08-20T17:24:02Z</time>
      </trkpt>
      <trkpt lat="43.15685" lon="-1.26778">
        <ele>242.87</ele>
        <time>2021-08-20T17:24:03Z</time>
      </trkpt>
      <trkpt lat="43.15685" lon="-1.26779">
        <ele>242.87</ele>
        <time>2021-08-20T17:24:04Z</time>
      </trkpt>
      <trkpt lat="43.15687" lon="-1.26784">
        <ele>242.87</ele>
        <time>2021-08-20T17:24:07Z</time>
      </trkpt>
      <trkpt lat="43.15689" lon="-1.26788">
        <ele>243.35</ele>
        <time>2021-08-20T17:24:12Z</time>
      </trkpt>
      <trkpt lat="43.1569" lon="-1.26792">
        <ele>243.83</ele>
        <time>2021-08-20T17:24:15Z</time>
      </trkpt>
      <trkpt lat="43.15694" lon="-1.26802">
        <ele>244.79</ele>
        <time>2021-08-20T17:24:23Z</time>
      </trkpt>
      <trkpt lat="43.15697" lon="-1.2682">
        <ele>245.75</ele>
        <time>2021-08-20T17:24:34Z</time>
      </trkpt>
      <trkpt lat="43.15698" lon="-1.26834">
        <ele>246.72</ele>
        <time>2021-08-20T17:24:44Z</time>
      </trkpt>
      <trkpt lat="43.15698" lon="-1.26847">
        <ele>248.16</ele>
        <time>2021-08-20T17:24:55Z</time>
      </trkpt>
      <trkpt lat="43.15697" lon="-1.26858">
        <ele>249.12</ele>
        <time>2021-08-20T17:25:02Z</time>
      </trkpt>
      <trkpt lat="43.15697" lon="-1.26859">
        <ele>249.12</ele>
        <time>2021-08-20T17:25:03Z</time>
      </trkpt>
      <trkpt lat="43.15695" lon="-1.2687">
        <ele>250.56</ele>
        <time>2021-08-20T17:25:12Z</time>
      </trkpt>
      <trkpt lat="43.15691" lon="-1.26881">
        <ele>252</ele>
        <time>2021-08-20T17:25:21Z</time>
      </trkpt>
      <trkpt lat="43.15689" lon="-1.26885">
        <ele>252</ele>
        <time>2021-08-20T17:25:24Z</time>
      </trkpt>
      <trkpt lat="43.15685" lon="-1.26897">
        <ele>253.44</ele>
        <time>2021-08-20T17:25:33Z</time>
      </trkpt>
      <trkpt lat="43.1568" lon="-1.26909">
        <ele>254.89</ele>
        <time>2021-08-20T17:25:44Z</time>
      </trkpt>
      <trkpt lat="43.15674" lon="-1.26923">
        <ele>255.85</ele>
        <time>2021-08-20T17:25:55Z</time>
      </trkpt>
      <trkpt lat="43.15673" lon="-1.26926">
        <ele>256.33</ele>
        <time>2021-08-20T17:26:00Z</time>
      </trkpt>
      <trkpt lat="43.15669" lon="-1.26936">
        <ele>256.81</ele>
        <time>2021-08-20T17:26:07Z</time>
      </trkpt>
      <trkpt lat="43.1566" lon="-1.26955">
        <ele>257.77</ele>
        <time>2021-08-20T17:26:16Z</time>
      </trkpt>
      <trkpt lat="43.15653" lon="-1.26976">
        <ele>258.73</ele>
        <time>2021-08-20T17:26:25Z</time>
      </trkpt>
      <trkpt lat="43.15652" lon="-1.26978">
        <ele>259.21</ele>
        <time>2021-08-20T17:26:27Z</time>
      </trkpt>
      <trkpt lat="43.15652" lon="-1.2698">
        <ele>259.21</ele>
        <time>2021-08-20T17:26:28Z</time>
      </trkpt>
      <trkpt lat="43.15652" lon="-1.26982">
        <ele>259.69</ele>
        <time>2021-08-20T17:26:29Z</time>
      </trkpt>
      <trkpt lat="43.15652" lon="-1.26983">
        <ele>259.69</ele>
        <time>2021-08-20T17:26:30Z</time>
      </trkpt>
      <trkpt lat="43.15652" lon="-1.26985">
        <ele>260.17</ele>
        <time>2021-08-20T17:26:31Z</time>
      </trkpt>
      <trkpt lat="43.15652" lon="-1.26986">
        <ele>260.17</ele>
        <time>2021-08-20T17:26:32Z</time>
      </trkpt>
      <trkpt lat="43.15651" lon="-1.26988">
        <ele>260.17</ele>
        <time>2021-08-20T17:26:33Z</time>
      </trkpt>
      <trkpt lat="43.1565" lon="-1.26989">
        <ele>261.14</ele>
        <time>2021-08-20T17:26:34Z</time>
      </trkpt>
      <trkpt lat="43.1565" lon="-1.26991">
        <ele>261.14</ele>
        <time>2021-08-20T17:26:35Z</time>
      </trkpt>
      <trkpt lat="43.15649" lon="-1.26993">
        <ele>261.14</ele>
        <time>2021-08-20T17:26:36Z</time>
      </trkpt>
      <trkpt lat="43.15649" lon="-1.26994">
        <ele>260.65</ele>
        <time>2021-08-20T17:26:37Z</time>
      </trkpt>
      <trkpt lat="43.15649" lon="-1.26996">
        <ele>261.14</ele>
        <time>2021-08-20T17:26:38Z</time>
      </trkpt>
      <trkpt lat="43.15649" lon="-1.26998">
        <ele>261.14</ele>
        <time>2021-08-20T17:26:39Z</time>
      </trkpt>
      <trkpt lat="43.15648" lon="-1.26999">
        <ele>261.14</ele>
        <time>2021-08-20T17:26:40Z</time>
      </trkpt>
      <trkpt lat="43.15647" lon="-1.27001">
        <ele>261.14</ele>
        <time>2021-08-20T17:26:41Z</time>
      </trkpt>
      <trkpt lat="43.15646" lon="-1.27002">
        <ele>261.14</ele>
        <time>2021-08-20T17:26:42Z</time>
      </trkpt>
      <trkpt lat="43.15645" lon="-1.27003">
        <ele>261.14</ele>
        <time>2021-08-20T17:26:43Z</time>
      </trkpt>
      <trkpt lat="43.15645" lon="-1.27005">
        <ele>261.62</ele>
        <time>2021-08-20T17:26:44Z</time>
      </trkpt>
      <trkpt lat="43.15644" lon="-1.27007">
        <ele>261.62</ele>
        <time>2021-08-20T17:26:45Z</time>
      </trkpt>
      <trkpt lat="43.15644" lon="-1.27009">
        <ele>261.62</ele>
        <time>2021-08-20T17:26:46Z</time>
      </trkpt>
      <trkpt lat="43.15643" lon="-1.27011">
        <ele>262.1</ele>
        <time>2021-08-20T17:26:47Z</time>
      </trkpt>
      <trkpt lat="43.15642" lon="-1.27013">
        <ele>262.1</ele>
        <time>2021-08-20T17:26:48Z</time>
      </trkpt>
      <trkpt lat="43.15641" lon="-1.27015">
        <ele>262.1</ele>
        <time>2021-08-20T17:26:49Z</time>
      </trkpt>
      <trkpt lat="43.15632" lon="-1.27029">
        <ele>262.58</ele>
        <time>2021-08-20T17:26:57Z</time>
      </trkpt>
      <trkpt lat="43.15619" lon="-1.27047">
        <ele>264.02</ele>
        <time>2021-08-20T17:27:07Z</time>
      </trkpt>
      <trkpt lat="43.1561" lon="-1.27056">
        <ele>264.5</ele>
        <time>2021-08-20T17:27:14Z</time>
      </trkpt>
      <trkpt lat="43.15597" lon="-1.27073">
        <ele>266.42</ele>
        <time>2021-08-20T17:27:24Z</time>
      </trkpt>
      <trkpt lat="43.15584" lon="-1.27094">
        <ele>266.9</ele>
        <time>2021-08-20T17:27:35Z</time>
      </trkpt>
      <trkpt lat="43.15577" lon="-1.27107">
        <ele>267.86</ele>
        <time>2021-08-20T17:27:42Z</time>
      </trkpt>
      <trkpt lat="43.15575" lon="-1.27111">
        <ele>268.35</ele>
        <time>2021-08-20T17:27:44Z</time>
      </trkpt>
      <trkpt lat="43.15574" lon="-1.27112">
        <ele>268.35</ele>
        <time>2021-08-20T17:27:45Z</time>
      </trkpt>
      <trkpt lat="43.15573" lon="-1.27114">
        <ele>268.35</ele>
        <time>2021-08-20T17:27:46Z</time>
      </trkpt>
      <trkpt lat="43.15572" lon="-1.27116">
        <ele>268.83</ele>
        <time>2021-08-20T17:27:47Z</time>
      </trkpt>
      <trkpt lat="43.15571" lon="-1.27118">
        <ele>268.83</ele>
        <time>2021-08-20T17:27:48Z</time>
      </trkpt>
      <trkpt lat="43.15567" lon="-1.27134">
        <ele>269.79</ele>
        <time>2021-08-20T17:27:56Z</time>
      </trkpt>
      <trkpt lat="43.15564" lon="-1.27146">
        <ele>271.23</ele>
        <time>2021-08-20T17:28:03Z</time>
      </trkpt>
      <trkpt lat="43.15559" lon="-1.2716">
        <ele>272.19</ele>
        <time>2021-08-20T17:28:13Z</time>
      </trkpt>
      <trkpt lat="43.15556" lon="-1.27176">
        <ele>273.63</ele>
        <time>2021-08-20T17:28:24Z</time>
      </trkpt>
      <trkpt lat="43.15554" lon="-1.2719">
        <ele>275.56</ele>
        <time>2021-08-20T17:28:34Z</time>
      </trkpt>
      <trkpt lat="43.15552" lon="-1.27204">
        <ele>276.04</ele>
        <time>2021-08-20T17:28:42Z</time>
      </trkpt>
      <trkpt lat="43.15552" lon="-1.27214">
        <ele>277</ele>
        <time>2021-08-20T17:28:49Z</time>
      </trkpt>
      <trkpt lat="43.15552" lon="-1.27227">
        <ele>277.96</ele>
        <time>2021-08-20T17:28:58Z</time>
      </trkpt>
      <trkpt lat="43.15549" lon="-1.27238">
        <ele>279.4</ele>
        <time>2021-08-20T17:29:09Z</time>
      </trkpt>
      <trkpt lat="43.15543" lon="-1.27246">
        <ele>281.32</ele>
        <time>2021-08-20T17:29:20Z</time>
      </trkpt>
      <trkpt lat="43.15537" lon="-1.27251">
        <ele>282.77</ele>
        <time>2021-08-20T17:29:30Z</time>
      </trkpt>
      <trkpt lat="43.15532" lon="-1.27256">
        <ele>284.21</ele>
        <time>2021-08-20T17:29:40Z</time>
      </trkpt>
      <trkpt lat="43.15526" lon="-1.2726">
        <ele>285.65</ele>
        <time>2021-08-20T17:29:49Z</time>
      </trkpt>
      <trkpt lat="43.15521" lon="-1.27265">
        <ele>287.09</ele>
        <time>2021-08-20T17:29:59Z</time>
      </trkpt>
      <trkpt lat="43.15513" lon="-1.27273">
        <ele>288.53</ele>
        <time>2021-08-20T17:30:08Z</time>
      </trkpt>
      <trkpt lat="43.15511" lon="-1.27276">
        <ele>289.01</ele>
        <time>2021-08-20T17:30:11Z</time>
      </trkpt>
      <trkpt lat="43.15504" lon="-1.27288">
        <ele>290.46</ele>
        <time>2021-08-20T17:30:21Z</time>
      </trkpt>
      <trkpt lat="43.15501" lon="-1.27294">
        <ele>290.94</ele>
        <time>2021-08-20T17:30:29Z</time>
      </trkpt>
      <trkpt lat="43.15497" lon="-1.27302">
        <ele>291.42</ele>
        <time>2021-08-20T17:30:35Z</time>
      </trkpt>
      <trkpt lat="43.15492" lon="-1.27317">
        <ele>292.38</ele>
        <time>2021-08-20T17:30:42Z</time>
      </trkpt>
      <trkpt lat="43.15491" lon="-1.27319">
        <ele>292.86</ele>
        <time>2021-08-20T17:30:43Z</time>
      </trkpt>
      <trkpt lat="43.15491" lon="-1.2732">
        <ele>292.86</ele>
        <time>2021-08-20T17:30:44Z</time>
      </trkpt>
      <trkpt lat="43.1549" lon="-1.27322">
        <ele>292.86</ele>
        <time>2021-08-20T17:30:45Z</time>
      </trkpt>
      <trkpt lat="43.15489" lon="-1.27324">
        <ele>292.86</ele>
        <time>2021-08-20T17:30:46Z</time>
      </trkpt>
      <trkpt lat="43.15488" lon="-1.27326">
        <ele>292.86</ele>
        <time>2021-08-20T17:30:47Z</time>
      </trkpt>
      <trkpt lat="43.15488" lon="-1.27328">
        <ele>292.86</ele>
        <time>2021-08-20T17:30:48Z</time>
      </trkpt>
      <trkpt lat="43.15487" lon="-1.2733">
        <ele>293.34</ele>
        <time>2021-08-20T17:30:49Z</time>
      </trkpt>
      <trkpt lat="43.15486" lon="-1.27332">
        <ele>293.34</ele>
        <time>2021-08-20T17:30:50Z</time>
      </trkpt>
      <trkpt lat="43.15485" lon="-1.27334">
        <ele>293.34</ele>
        <time>2021-08-20T17:30:51Z</time>
      </trkpt>
      <trkpt lat="43.1548" lon="-1.27349">
        <ele>294.3</ele>
        <time>2021-08-20T17:30:58Z</time>
      </trkpt>
      <trkpt lat="43.15476" lon="-1.27363">
        <ele>295.26</ele>
        <time>2021-08-20T17:31:05Z</time>
      </trkpt>
      <trkpt lat="43.1547" lon="-1.27381">
        <ele>296.7</ele>
        <time>2021-08-20T17:31:13Z</time>
      </trkpt>
      <trkpt lat="43.15466" lon="-1.27393">
        <ele>296.7</ele>
        <time>2021-08-20T17:31:19Z</time>
      </trkpt>
      <trkpt lat="43.15465" lon="-1.27396">
        <ele>296.7</ele>
        <time>2021-08-20T17:31:20Z</time>
      </trkpt>
      <trkpt lat="43.1546" lon="-1.2743">
        <ele>296.7</ele>
        <time>2021-08-20T17:31:30Z</time>
      </trkpt>
      <trkpt lat="43.15462" lon="-1.27464">
        <ele>296.22</ele>
        <time>2021-08-20T17:31:38Z</time>
      </trkpt>
      <trkpt lat="43.15466" lon="-1.27507">
        <ele>296.22</ele>
        <time>2021-08-20T17:31:47Z</time>
      </trkpt>
      <trkpt lat="43.15469" lon="-1.27542">
        <ele>296.7</ele>
        <time>2021-08-20T17:31:56Z</time>
      </trkpt>
      <trkpt lat="43.15468" lon="-1.27576">
        <ele>297.18</ele>
        <time>2021-08-20T17:32:04Z</time>
      </trkpt>
      <trkpt lat="43.15466" lon="-1.27605">
        <ele>298.15</ele>
        <time>2021-08-20T17:32:13Z</time>
      </trkpt>
      <trkpt lat="43.15465" lon="-1.27627">
        <ele>299.59</ele>
        <time>2021-08-20T17:32:21Z</time>
      </trkpt>
      <trkpt lat="43.15463" lon="-1.27642">
        <ele>300.07</ele>
        <time>2021-08-20T17:32:27Z</time>
      </trkpt>
      <trkpt lat="43.15463" lon="-1.27644">
        <ele>300.07</ele>
        <time>2021-08-20T17:32:28Z</time>
      </trkpt>
      <trkpt lat="43.15463" lon="-1.27646">
        <ele>300.55</ele>
        <time>2021-08-20T17:32:29Z</time>
      </trkpt>
      <trkpt lat="43.15463" lon="-1.27648">
        <ele>300.55</ele>
        <time>2021-08-20T17:32:30Z</time>
      </trkpt>
      <trkpt lat="43.15462" lon="-1.2765">
        <ele>300.55</ele>
        <time>2021-08-20T17:32:31Z</time>
      </trkpt>
      <trkpt lat="43.15461" lon="-1.27652">
        <ele>301.03</ele>
        <time>2021-08-20T17:32:32Z</time>
      </trkpt>
      <trkpt lat="43.15461" lon="-1.27655">
        <ele>301.03</ele>
        <time>2021-08-20T17:32:34Z</time>
      </trkpt>
      <trkpt lat="43.15459" lon="-1.27664">
        <ele>302.47</ele>
        <time>2021-08-20T17:32:41Z</time>
      </trkpt>
      <trkpt lat="43.15458" lon="-1.27676">
        <ele>303.91</ele>
        <time>2021-08-20T17:32:50Z</time>
      </trkpt>
      <trkpt lat="43.15459" lon="-1.27694">
        <ele>305.36</ele>
        <time>2021-08-20T17:33:01Z</time>
      </trkpt>
      <trkpt lat="43.15461" lon="-1.27709">
        <ele>307.28</ele>
        <time>2021-08-20T17:33:11Z</time>
      </trkpt>
      <trkpt lat="43.15463" lon="-1.27727">
        <ele>308.72</ele>
        <time>2021-08-20T17:33:23Z</time>
      </trkpt>
      <trkpt lat="43.15466" lon="-1.27749">
        <ele>310.16</ele>
        <time>2021-08-20T17:33:35Z</time>
      </trkpt>
      <trkpt lat="43.15466" lon="-1.27762">
        <ele>311.12</ele>
        <time>2021-08-20T17:33:43Z</time>
      </trkpt>
      <trkpt lat="43.15467" lon="-1.27774">
        <ele>311.6</ele>
        <time>2021-08-20T17:33:51Z</time>
      </trkpt>
      <trkpt lat="43.15468" lon="-1.27779">
        <ele>311.6</ele>
        <time>2021-08-20T17:33:57Z</time>
      </trkpt>
      <trkpt lat="43.15467" lon="-1.27781">
        <ele>312.09</ele>
        <time>2021-08-20T17:33:58Z</time>
      </trkpt>
      <trkpt lat="43.15467" lon="-1.27783">
        <ele>312.09</ele>
        <time>2021-08-20T17:33:59Z</time>
      </trkpt>
      <trkpt lat="43.15467" lon="-1.27804">
        <ele>313.05</ele>
        <time>2021-08-20T17:34:08Z</time>
      </trkpt>
      <trkpt lat="43.15467" lon="-1.2783">
        <ele>314.01</ele>
        <time>2021-08-20T17:34:18Z</time>
      </trkpt>
      <trkpt lat="43.15466" lon="-1.27852">
        <ele>315.93</ele>
        <time>2021-08-20T17:34:28Z</time>
      </trkpt>
      <trkpt lat="43.15466" lon="-1.27869">
        <ele>316.41</ele>
        <time>2021-08-20T17:34:35Z</time>
      </trkpt>
      <trkpt lat="43.15471" lon="-1.27898">
        <ele>317.85</ele>
        <time>2021-08-20T17:34:46Z</time>
      </trkpt>
      <trkpt lat="43.15479" lon="-1.27931">
        <ele>317.37</ele>
        <time>2021-08-20T17:34:54Z</time>
      </trkpt>
      <trkpt lat="43.15482" lon="-1.27938">
        <ele>315.45</ele>
        <time>2021-08-20T17:34:55Z</time>
      </trkpt>
      <trkpt lat="43.15501" lon="-1.27988">
        <ele>312.09</ele>
        <time>2021-08-20T17:35:01Z</time>
      </trkpt>
      <trkpt lat="43.15517" lon="-1.28027">
        <ele>310.64</ele>
        <time>2021-08-20T17:35:05Z</time>
      </trkpt>
      <trkpt lat="43.15534" lon="-1.28076">
        <ele>309.68</ele>
        <time>2021-08-20T17:35:10Z</time>
      </trkpt>
      <trkpt lat="43.15535" lon="-1.28086">
        <ele>309.68</ele>
        <time>2021-08-20T17:35:11Z</time>
      </trkpt>
      <trkpt lat="43.15534" lon="-1.28096">
        <ele>309.68</ele>
        <time>2021-08-20T17:35:12Z</time>
      </trkpt>
      <trkpt lat="43.15533" lon="-1.28105">
        <ele>309.68</ele>
        <time>2021-08-20T17:35:13Z</time>
      </trkpt>
      <trkpt lat="43.15531" lon="-1.28113">
        <ele>309.68</ele>
        <time>2021-08-20T17:35:14Z</time>
      </trkpt>
      <trkpt lat="43.15528" lon="-1.28121">
        <ele>309.68</ele>
        <time>2021-08-20T17:35:15Z</time>
      </trkpt>
      <trkpt lat="43.15525" lon="-1.28128">
        <ele>309.68</ele>
        <time>2021-08-20T17:35:16Z</time>
      </trkpt>
      <trkpt lat="43.15521" lon="-1.28134">
        <ele>310.16</ele>
        <time>2021-08-20T17:35:17Z</time>
      </trkpt>
      <trkpt lat="43.15518" lon="-1.2814">
        <ele>310.16</ele>
        <time>2021-08-20T17:35:18Z</time>
      </trkpt>
      <trkpt lat="43.15512" lon="-1.28152">
        <ele>310.16</ele>
        <time>2021-08-20T17:35:20Z</time>
      </trkpt>
      <trkpt lat="43.15508" lon="-1.28163">
        <ele>311.12</ele>
        <time>2021-08-20T17:35:22Z</time>
      </trkpt>
      <trkpt lat="43.15499" lon="-1.28193">
        <ele>312.09</ele>
        <time>2021-08-20T17:35:29Z</time>
      </trkpt>
      <trkpt lat="43.15495" lon="-1.28227">
        <ele>313.53</ele>
        <time>2021-08-20T17:35:38Z</time>
      </trkpt>
      <trkpt lat="43.15492" lon="-1.28255">
        <ele>314.49</ele>
        <time>2021-08-20T17:35:47Z</time>
      </trkpt>
      <trkpt lat="43.15492" lon="-1.28281">
        <ele>315.45</ele>
        <time>2021-08-20T17:35:55Z</time>
      </trkpt>
      <trkpt lat="43.15498" lon="-1.2831">
        <ele>315.93</ele>
        <time>2021-08-20T17:36:03Z</time>
      </trkpt>
      <trkpt lat="43.15511" lon="-1.28348">
        <ele>316.41</ele>
        <time>2021-08-20T17:36:14Z</time>
      </trkpt>
      <trkpt lat="43.15519" lon="-1.2837">
        <ele>317.85</ele>
        <time>2021-08-20T17:36:23Z</time>
      </trkpt>
      <trkpt lat="43.15521" lon="-1.28371">
        <ele>318.33</ele>
        <time>2021-08-20T17:36:24Z</time>
      </trkpt>
      <trkpt lat="43.15523" lon="-1.28371">
        <ele>318.33</ele>
        <time>2021-08-20T17:36:25Z</time>
      </trkpt>
      <trkpt lat="43.15525" lon="-1.2837">
        <ele>318.81</ele>
        <time>2021-08-20T17:36:26Z</time>
      </trkpt>
      <trkpt lat="43.15526" lon="-1.28369">
        <ele>318.81</ele>
        <time>2021-08-20T17:36:27Z</time>
      </trkpt>
      <trkpt lat="43.15528" lon="-1.28368">
        <ele>318.81</ele>
        <time>2021-08-20T17:36:28Z</time>
      </trkpt>
      <trkpt lat="43.1553" lon="-1.28367">
        <ele>318.81</ele>
        <time>2021-08-20T17:36:29Z</time>
      </trkpt>
      <trkpt lat="43.15532" lon="-1.28366">
        <ele>319.3</ele>
        <time>2021-08-20T17:36:30Z</time>
      </trkpt>
      <trkpt lat="43.15534" lon="-1.28365">
        <ele>319.3</ele>
        <time>2021-08-20T17:36:31Z</time>
      </trkpt>
      <trkpt lat="43.15536" lon="-1.28364">
        <ele>319.3</ele>
        <time>2021-08-20T17:36:32Z</time>
      </trkpt>
      <trkpt lat="43.15553" lon="-1.2836">
        <ele>320.26</ele>
        <time>2021-08-20T17:36:40Z</time>
      </trkpt>
      <trkpt lat="43.15575" lon="-1.28359">
        <ele>318.81</ele>
        <time>2021-08-20T17:36:46Z</time>
      </trkpt>
      <trkpt lat="43.1558" lon="-1.2836">
        <ele>318.81</ele>
        <time>2021-08-20T17:36:47Z</time>
      </trkpt>
      <trkpt lat="43.15583" lon="-1.28363">
        <ele>318.81</ele>
        <time>2021-08-20T17:36:48Z</time>
      </trkpt>
      <trkpt lat="43.15587" lon="-1.28367">
        <ele>318.81</ele>
        <time>2021-08-20T17:36:49Z</time>
      </trkpt>
      <trkpt lat="43.1559" lon="-1.28372">
        <ele>318.81</ele>
        <time>2021-08-20T17:36:50Z</time>
      </trkpt>
      <trkpt lat="43.15592" lon="-1.28377">
        <ele>318.81</ele>
        <time>2021-08-20T17:36:51Z</time>
      </trkpt>
      <trkpt lat="43.15593" lon="-1.28383">
        <ele>318.81</ele>
        <time>2021-08-20T17:36:52Z</time>
      </trkpt>
      <trkpt lat="43.15594" lon="-1.284">
        <ele>319.78</ele>
        <time>2021-08-20T17:36:57Z</time>
      </trkpt>
      <trkpt lat="43.15597" lon="-1.28414">
        <ele>321.7</ele>
        <time>2021-08-20T17:37:03Z</time>
      </trkpt>
      <trkpt lat="43.15602" lon="-1.28437">
        <ele>322.18</ele>
        <time>2021-08-20T17:37:12Z</time>
      </trkpt>
      <trkpt lat="43.15604" lon="-1.28456">
        <ele>322.18</ele>
        <time>2021-08-20T17:37:19Z</time>
      </trkpt>
      <trkpt lat="43.15605" lon="-1.28486">
        <ele>320.26</ele>
        <time>2021-08-20T17:37:24Z</time>
      </trkpt>
      <trkpt lat="43.15612" lon="-1.28543">
        <ele>317.85</ele>
        <time>2021-08-20T17:37:31Z</time>
      </trkpt>
      <trkpt lat="43.15625" lon="-1.28599">
        <ele>316.41</ele>
        <time>2021-08-20T17:37:38Z</time>
      </trkpt>
      <trkpt lat="43.15639" lon="-1.28641">
        <ele>316.41</ele>
        <time>2021-08-20T17:37:45Z</time>
      </trkpt>
      <trkpt lat="43.15643" lon="-1.28652">
        <ele>316.41</ele>
        <time>2021-08-20T17:37:47Z</time>
      </trkpt>
      <trkpt lat="43.15648" lon="-1.28668">
        <ele>316.41</ele>
        <time>2021-08-20T17:37:50Z</time>
      </trkpt>
      <trkpt lat="43.15651" lon="-1.28705">
        <ele>317.85</ele>
        <time>2021-08-20T17:37:57Z</time>
      </trkpt>
      <trkpt lat="43.15651" lon="-1.28711">
        <ele>317.85</ele>
        <time>2021-08-20T17:37:58Z</time>
      </trkpt>
      <trkpt lat="43.15649" lon="-1.28717">
        <ele>317.85</ele>
        <time>2021-08-20T17:37:59Z</time>
      </trkpt>
      <trkpt lat="43.15648" lon="-1.28723">
        <ele>317.85</ele>
        <time>2021-08-20T17:38:00Z</time>
      </trkpt>
      <trkpt lat="43.15643" lon="-1.28735">
        <ele>316.41</ele>
        <time>2021-08-20T17:38:02Z</time>
      </trkpt>
      <trkpt lat="43.15629" lon="-1.28761">
        <ele>314.49</ele>
        <time>2021-08-20T17:38:06Z</time>
      </trkpt>
      <trkpt lat="43.15604" lon="-1.28805">
        <ele>314.01</ele>
        <time>2021-08-20T17:38:13Z</time>
      </trkpt>
      <trkpt lat="43.15572" lon="-1.28865">
        <ele>312.57</ele>
        <time>2021-08-20T17:38:23Z</time>
      </trkpt>
      <trkpt lat="43.15564" lon="-1.28874">
        <ele>311.6</ele>
        <time>2021-08-20T17:38:25Z</time>
      </trkpt>
      <trkpt lat="43.15558" lon="-1.28878">
        <ele>311.12</ele>
        <time>2021-08-20T17:38:26Z</time>
      </trkpt>
      <trkpt lat="43.15552" lon="-1.2888">
        <ele>310.16</ele>
        <time>2021-08-20T17:38:27Z</time>
      </trkpt>
      <trkpt lat="43.15547" lon="-1.28882">
        <ele>309.68</ele>
        <time>2021-08-20T17:38:28Z</time>
      </trkpt>
      <trkpt lat="43.15543" lon="-1.28886">
        <ele>309.2</ele>
        <time>2021-08-20T17:38:29Z</time>
      </trkpt>
      <trkpt lat="43.15541" lon="-1.28893">
        <ele>308.72</ele>
        <time>2021-08-20T17:38:30Z</time>
      </trkpt>
      <trkpt lat="43.15541" lon="-1.28901">
        <ele>307.28</ele>
        <time>2021-08-20T17:38:31Z</time>
      </trkpt>
      <trkpt lat="43.15542" lon="-1.28911">
        <ele>306.8</ele>
        <time>2021-08-20T17:38:32Z</time>
      </trkpt>
      <trkpt lat="43.15545" lon="-1.28921">
        <ele>305.84</ele>
        <time>2021-08-20T17:38:33Z</time>
      </trkpt>
      <trkpt lat="43.15547" lon="-1.2893">
        <ele>305.84</ele>
        <time>2021-08-20T17:38:34Z</time>
      </trkpt>
      <trkpt lat="43.15553" lon="-1.28954">
        <ele>305.36</ele>
        <time>2021-08-20T17:38:37Z</time>
      </trkpt>
      <trkpt lat="43.15554" lon="-1.28961">
        <ele>305.36</ele>
        <time>2021-08-20T17:38:38Z</time>
      </trkpt>
      <trkpt lat="43.15554" lon="-1.28966">
        <ele>305.36</ele>
        <time>2021-08-20T17:38:39Z</time>
      </trkpt>
      <trkpt lat="43.15553" lon="-1.28972">
        <ele>305.36</ele>
        <time>2021-08-20T17:38:40Z</time>
      </trkpt>
      <trkpt lat="43.15551" lon="-1.28978">
        <ele>305.36</ele>
        <time>2021-08-20T17:38:41Z</time>
      </trkpt>
      <trkpt lat="43.15549" lon="-1.28983">
        <ele>305.36</ele>
        <time>2021-08-20T17:38:42Z</time>
      </trkpt>
      <trkpt lat="43.15539" lon="-1.29011">
        <ele>301.99</ele>
        <time>2021-08-20T17:38:46Z</time>
      </trkpt>
      <trkpt lat="43.15538" lon="-1.29018">
        <ele>301.03</ele>
        <time>2021-08-20T17:38:47Z</time>
      </trkpt>
      <trkpt lat="43.15541" lon="-1.29024">
        <ele>300.07</ele>
        <time>2021-08-20T17:38:48Z</time>
      </trkpt>
      <trkpt lat="43.15546" lon="-1.29028">
        <ele>299.11</ele>
        <time>2021-08-20T17:38:49Z</time>
      </trkpt>
      <trkpt lat="43.15553" lon="-1.29032">
        <ele>298.63</ele>
        <time>2021-08-20T17:38:50Z</time>
      </trkpt>
      <trkpt lat="43.1556" lon="-1.29035">
        <ele>297.67</ele>
        <time>2021-08-20T17:38:51Z</time>
      </trkpt>
      <trkpt lat="43.15568" lon="-1.29037">
        <ele>296.7</ele>
        <time>2021-08-20T17:38:52Z</time>
      </trkpt>
      <trkpt lat="43.15577" lon="-1.29037">
        <ele>295.74</ele>
        <time>2021-08-20T17:38:53Z</time>
      </trkpt>
      <trkpt lat="43.15583" lon="-1.29036">
        <ele>295.74</ele>
        <time>2021-08-20T17:38:54Z</time>
      </trkpt>
      <trkpt lat="43.15591" lon="-1.29036">
        <ele>294.3</ele>
        <time>2021-08-20T17:38:55Z</time>
      </trkpt>
      <trkpt lat="43.15599" lon="-1.2904">
        <ele>293.34</ele>
        <time>2021-08-20T17:38:56Z</time>
      </trkpt>
      <trkpt lat="43.15606" lon="-1.29046">
        <ele>291.9</ele>
        <time>2021-08-20T17:38:57Z</time>
      </trkpt>
      <trkpt lat="43.15613" lon="-1.29052">
        <ele>291.42</ele>
        <time>2021-08-20T17:38:58Z</time>
      </trkpt>
      <trkpt lat="43.15621" lon="-1.29057">
        <ele>290.94</ele>
        <time>2021-08-20T17:38:59Z</time>
      </trkpt>
      <trkpt lat="43.1563" lon="-1.29058">
        <ele>290.94</ele>
        <time>2021-08-20T17:39:00Z</time>
      </trkpt>
      <trkpt lat="43.15639" lon="-1.29056">
        <ele>290.94</ele>
        <time>2021-08-20T17:39:01Z</time>
      </trkpt>
      <trkpt lat="43.15646" lon="-1.29055">
        <ele>290.94</ele>
        <time>2021-08-20T17:39:02Z</time>
      </trkpt>
      <trkpt lat="43.15654" lon="-1.29053">
        <ele>290.94</ele>
        <time>2021-08-20T17:39:03Z</time>
      </trkpt>
      <trkpt lat="43.15662" lon="-1.29049">
        <ele>290.94</ele>
        <time>2021-08-20T17:39:04Z</time>
      </trkpt>
      <trkpt lat="43.15669" lon="-1.29045">
        <ele>290.94</ele>
        <time>2021-08-20T17:39:05Z</time>
      </trkpt>
      <trkpt lat="43.15684" lon="-1.29035">
        <ele>290.46</ele>
        <time>2021-08-20T17:39:07Z</time>
      </trkpt>
      <trkpt lat="43.15691" lon="-1.29032">
        <ele>289.97</ele>
        <time>2021-08-20T17:39:08Z</time>
      </trkpt>
      <trkpt lat="43.15699" lon="-1.2903">
        <ele>289.49</ele>
        <time>2021-08-20T17:39:09Z</time>
      </trkpt>
      <trkpt lat="43.15707" lon="-1.2903">
        <ele>288.53</ele>
        <time>2021-08-20T17:39:10Z</time>
      </trkpt>
      <trkpt lat="43.15715" lon="-1.2903">
        <ele>288.53</ele>
        <time>2021-08-20T17:39:11Z</time>
      </trkpt>
      <trkpt lat="43.15724" lon="-1.29032">
        <ele>288.05</ele>
        <time>2021-08-20T17:39:12Z</time>
      </trkpt>
      <trkpt lat="43.15782" lon="-1.29055">
        <ele>287.09</ele>
        <time>2021-08-20T17:39:19Z</time>
      </trkpt>
      <trkpt lat="43.15818" lon="-1.29069">
        <ele>286.61</ele>
        <time>2021-08-20T17:39:24Z</time>
      </trkpt>
      <trkpt lat="43.1584" lon="-1.29078">
        <ele>288.05</ele>
        <time>2021-08-20T17:39:28Z</time>
      </trkpt>
      <trkpt lat="43.15873" lon="-1.29088">
        <ele>288.53</ele>
        <time>2021-08-20T17:39:37Z</time>
      </trkpt>
      <trkpt lat="43.15892" lon="-1.29091">
        <ele>290.46</ele>
        <time>2021-08-20T17:39:43Z</time>
      </trkpt>
      <trkpt lat="43.15906" lon="-1.29084">
        <ele>291.9</ele>
        <time>2021-08-20T17:39:49Z</time>
      </trkpt>
      <trkpt lat="43.15919" lon="-1.29074">
        <ele>293.34</ele>
        <time>2021-08-20T17:39:55Z</time>
      </trkpt>
      <trkpt lat="43.15939" lon="-1.2906">
        <ele>293.34</ele>
        <time>2021-08-20T17:40:03Z</time>
      </trkpt>
      <trkpt lat="43.15954" lon="-1.2905">
        <ele>293.34</ele>
        <time>2021-08-20T17:40:09Z</time>
      </trkpt>
      <trkpt lat="43.1597" lon="-1.29037">
        <ele>293.34</ele>
        <time>2021-08-20T17:40:15Z</time>
      </trkpt>
      <trkpt lat="43.15988" lon="-1.29028">
        <ele>289.97</ele>
        <time>2021-08-20T17:40:19Z</time>
      </trkpt>
      <trkpt lat="43.16" lon="-1.29023">
        <ele>289.01</ele>
        <time>2021-08-20T17:40:21Z</time>
      </trkpt>
      <trkpt lat="43.16029" lon="-1.29015">
        <ele>288.53</ele>
        <time>2021-08-20T17:40:25Z</time>
      </trkpt>
      <trkpt lat="43.16035" lon="-1.29015">
        <ele>288.53</ele>
        <time>2021-08-20T17:40:26Z</time>
      </trkpt>
      <trkpt lat="43.16083" lon="-1.29015">
        <ele>288.05</ele>
        <time>2021-08-20T17:40:34Z</time>
      </trkpt>
      <trkpt lat="43.16095" lon="-1.29012">
        <ele>287.09</ele>
        <time>2021-08-20T17:40:36Z</time>
      </trkpt>
      <trkpt lat="43.16101" lon="-1.29011">
        <ele>285.65</ele>
        <time>2021-08-20T17:40:37Z</time>
      </trkpt>
      <trkpt lat="43.16128" lon="-1.29003">
        <ele>282.28</ele>
        <time>2021-08-20T17:40:41Z</time>
      </trkpt>
      <trkpt lat="43.16149" lon="-1.28994">
        <ele>279.88</ele>
        <time>2021-08-20T17:40:44Z</time>
      </trkpt>
      <trkpt lat="43.16174" lon="-1.28977">
        <ele>279.88</ele>
        <time>2021-08-20T17:40:48Z</time>
      </trkpt>
      <trkpt lat="43.16193" lon="-1.28957">
        <ele>279.4</ele>
        <time>2021-08-20T17:40:52Z</time>
      </trkpt>
      <trkpt lat="43.16199" lon="-1.28948">
        <ele>280.84</ele>
        <time>2021-08-20T17:40:54Z</time>
      </trkpt>
      <trkpt lat="43.16214" lon="-1.28931">
        <ele>283.25</ele>
        <time>2021-08-20T17:41:00Z</time>
      </trkpt>
      <trkpt lat="43.16226" lon="-1.28918">
        <ele>285.17</ele>
        <time>2021-08-20T17:41:07Z</time>
      </trkpt>
      <trkpt lat="43.16239" lon="-1.28908">
        <ele>286.13</ele>
        <time>2021-08-20T17:41:13Z</time>
      </trkpt>
      <trkpt lat="43.16254" lon="-1.28904">
        <ele>286.61</ele>
        <time>2021-08-20T17:41:19Z</time>
      </trkpt>
      <trkpt lat="43.16271" lon="-1.28901">
        <ele>286.61</ele>
        <time>2021-08-20T17:41:26Z</time>
      </trkpt>
      <trkpt lat="43.16302" lon="-1.28896">
        <ele>287.09</ele>
        <time>2021-08-20T17:41:37Z</time>
      </trkpt>
      <trkpt lat="43.16325" lon="-1.28894">
        <ele>287.09</ele>
        <time>2021-08-20T17:41:45Z</time>
      </trkpt>
      <trkpt lat="43.16339" lon="-1.28898">
        <ele>287.09</ele>
        <time>2021-08-20T17:41:50Z</time>
      </trkpt>
      <trkpt lat="43.16341" lon="-1.289">
        <ele>287.09</ele>
        <time>2021-08-20T17:41:51Z</time>
      </trkpt>
      <trkpt lat="43.16344" lon="-1.28901">
        <ele>287.57</ele>
        <time>2021-08-20T17:41:52Z</time>
      </trkpt>
      <trkpt lat="43.16365" lon="-1.28904">
        <ele>287.57</ele>
        <time>2021-08-20T17:41:59Z</time>
      </trkpt>
      <trkpt lat="43.16382" lon="-1.289">
        <ele>286.61</ele>
        <time>2021-08-20T17:42:05Z</time>
      </trkpt>
      <trkpt lat="43.16387" lon="-1.28898">
        <ele>286.61</ele>
        <time>2021-08-20T17:42:10Z</time>
      </trkpt>
      <trkpt lat="43.16387" lon="-1.28899">
        <ele>286.13</ele>
        <time>2021-08-20T17:42:27Z</time>
      </trkpt>
      <trkpt lat="43.16394" lon="-1.28896">
        <ele>285.65</ele>
        <time>2021-08-20T17:42:35Z</time>
      </trkpt>
      <trkpt lat="43.1641" lon="-1.28888">
        <ele>284.69</ele>
        <time>2021-08-20T17:42:40Z</time>
      </trkpt>
      <trkpt lat="43.16434" lon="-1.28871">
        <ele>282.28</ele>
        <time>2021-08-20T17:42:46Z</time>
      </trkpt>
      <trkpt lat="43.16455" lon="-1.28861">
        <ele>280.84</ele>
        <time>2021-08-20T17:42:49Z</time>
      </trkpt>
      <trkpt lat="43.16503" lon="-1.28841">
        <ele>277.96</ele>
        <time>2021-08-20T17:42:56Z</time>
      </trkpt>
      <trkpt lat="43.16535" lon="-1.2883">
        <ele>274.11</ele>
        <time>2021-08-20T17:43:01Z</time>
      </trkpt>
      <trkpt lat="43.16541" lon="-1.28826">
        <ele>273.63</ele>
        <time>2021-08-20T17:43:02Z</time>
      </trkpt>
      <trkpt lat="43.16545" lon="-1.28821">
        <ele>272.67</ele>
        <time>2021-08-20T17:43:03Z</time>
      </trkpt>
      <trkpt lat="43.1655" lon="-1.28816">
        <ele>271.71</ele>
        <time>2021-08-20T17:43:04Z</time>
      </trkpt>
      <trkpt lat="43.16554" lon="-1.28811">
        <ele>271.23</ele>
        <time>2021-08-20T17:43:05Z</time>
      </trkpt>
      <trkpt lat="43.16558" lon="-1.28809">
        <ele>271.23</ele>
        <time>2021-08-20T17:43:06Z</time>
      </trkpt>
      <trkpt lat="43.16563" lon="-1.2881">
        <ele>270.75</ele>
        <time>2021-08-20T17:43:07Z</time>
      </trkpt>
      <trkpt lat="43.16567" lon="-1.28812">
        <ele>269.79</ele>
        <time>2021-08-20T17:43:08Z</time>
      </trkpt>
      <trkpt lat="43.16578" lon="-1.28818">
        <ele>267.38</ele>
        <time>2021-08-20T17:43:10Z</time>
      </trkpt>
      <trkpt lat="43.16597" lon="-1.28827">
        <ele>263.06</ele>
        <time>2021-08-20T17:43:13Z</time>
      </trkpt>
      <trkpt lat="43.16603" lon="-1.28831">
        <ele>262.1</ele>
        <time>2021-08-20T17:43:14Z</time>
      </trkpt>
      <trkpt lat="43.16622" lon="-1.28846">
        <ele>258.73</ele>
        <time>2021-08-20T17:43:17Z</time>
      </trkpt>
      <trkpt lat="43.16644" lon="-1.28864">
        <ele>255.37</ele>
        <time>2021-08-20T17:43:21Z</time>
      </trkpt>
      <trkpt lat="43.16658" lon="-1.28876">
        <ele>252</ele>
        <time>2021-08-20T17:43:24Z</time>
      </trkpt>
      <trkpt lat="43.16684" lon="-1.28887">
        <ele>248.16</ele>
        <time>2021-08-20T17:43:28Z</time>
      </trkpt>
      <trkpt lat="43.16703" lon="-1.28896">
        <ele>245.27</ele>
        <time>2021-08-20T17:43:31Z</time>
      </trkpt>
      <trkpt lat="43.16717" lon="-1.289">
        <ele>242.87</ele>
        <time>2021-08-20T17:43:33Z</time>
      </trkpt>
      <trkpt lat="43.16724" lon="-1.28901">
        <ele>241.91</ele>
        <time>2021-08-20T17:43:34Z</time>
      </trkpt>
      <trkpt lat="43.16732" lon="-1.289">
        <ele>240.47</ele>
        <time>2021-08-20T17:43:35Z</time>
      </trkpt>
      <trkpt lat="43.16739" lon="-1.28898">
        <ele>240.47</ele>
        <time>2021-08-20T17:43:36Z</time>
      </trkpt>
      <trkpt lat="43.16744" lon="-1.28895">
        <ele>239.51</ele>
        <time>2021-08-20T17:43:37Z</time>
      </trkpt>
      <trkpt lat="43.16749" lon="-1.28891">
        <ele>239.02</ele>
        <time>2021-08-20T17:43:38Z</time>
      </trkpt>
      <trkpt lat="43.16753" lon="-1.28887">
        <ele>238.54</ele>
        <time>2021-08-20T17:43:39Z</time>
      </trkpt>
      <trkpt lat="43.16758" lon="-1.28885">
        <ele>238.06</ele>
        <time>2021-08-20T17:43:40Z</time>
      </trkpt>
      <trkpt lat="43.16762" lon="-1.28885">
        <ele>237.58</ele>
        <time>2021-08-20T17:43:41Z</time>
      </trkpt>
      <trkpt lat="43.16764" lon="-1.28887">
        <ele>237.1</ele>
        <time>2021-08-20T17:43:42Z</time>
      </trkpt>
      <trkpt lat="43.16765" lon="-1.28891">
        <ele>236.62</ele>
        <time>2021-08-20T17:43:43Z</time>
      </trkpt>
      <trkpt lat="43.16765" lon="-1.28895">
        <ele>236.62</ele>
        <time>2021-08-20T17:43:44Z</time>
      </trkpt>
      <trkpt lat="43.16764" lon="-1.28899">
        <ele>236.62</ele>
        <time>2021-08-20T17:43:45Z</time>
      </trkpt>
      <trkpt lat="43.16761" lon="-1.28903">
        <ele>236.14</ele>
        <time>2021-08-20T17:43:46Z</time>
      </trkpt>
      <trkpt lat="43.16758" lon="-1.28906">
        <ele>236.14</ele>
        <time>2021-08-20T17:43:47Z</time>
      </trkpt>
      <trkpt lat="43.16755" lon="-1.2891">
        <ele>235.66</ele>
        <time>2021-08-20T17:43:48Z</time>
      </trkpt>
      <trkpt lat="43.16752" lon="-1.28913">
        <ele>235.66</ele>
        <time>2021-08-20T17:43:49Z</time>
      </trkpt>
      <trkpt lat="43.16748" lon="-1.28917">
        <ele>235.66</ele>
        <time>2021-08-20T17:43:50Z</time>
      </trkpt>
      <trkpt lat="43.16746" lon="-1.28922">
        <ele>235.18</ele>
        <time>2021-08-20T17:43:51Z</time>
      </trkpt>
      <trkpt lat="43.16743" lon="-1.28926">
        <ele>235.18</ele>
        <time>2021-08-20T17:43:52Z</time>
      </trkpt>
      <trkpt lat="43.16739" lon="-1.28931">
        <ele>234.22</ele>
        <time>2021-08-20T17:43:53Z</time>
      </trkpt>
      <trkpt lat="43.16736" lon="-1.28935">
        <ele>233.74</ele>
        <time>2021-08-20T17:43:54Z</time>
      </trkpt>
      <trkpt lat="43.16724" lon="-1.28947">
        <ele>232.3</ele>
        <time>2021-08-20T17:43:57Z</time>
      </trkpt>
      <trkpt lat="43.16721" lon="-1.28952">
        <ele>231.81</ele>
        <time>2021-08-20T17:43:58Z</time>
      </trkpt>
      <trkpt lat="43.16718" lon="-1.28957">
        <ele>231.33</ele>
        <time>2021-08-20T17:43:59Z</time>
      </trkpt>
      <trkpt lat="43.16717" lon="-1.28962">
        <ele>229.89</ele>
        <time>2021-08-20T17:44:00Z</time>
      </trkpt>
      <trkpt lat="43.16718" lon="-1.28969">
        <ele>229.41</ele>
        <time>2021-08-20T17:44:01Z</time>
      </trkpt>
      <trkpt lat="43.16721" lon="-1.28975">
        <ele>228.45</ele>
        <time>2021-08-20T17:44:02Z</time>
      </trkpt>
      <trkpt lat="43.16726" lon="-1.28979">
        <ele>227.97</ele>
        <time>2021-08-20T17:44:03Z</time>
      </trkpt>
      <trkpt lat="43.16731" lon="-1.28981">
        <ele>227.01</ele>
        <time>2021-08-20T17:44:04Z</time>
      </trkpt>
      <trkpt lat="43.16737" lon="-1.28983">
        <ele>226.05</ele>
        <time>2021-08-20T17:44:05Z</time>
      </trkpt>
      <trkpt lat="43.16754" lon="-1.28984">
        <ele>223.64</ele>
        <time>2021-08-20T17:44:08Z</time>
      </trkpt>
      <trkpt lat="43.1677" lon="-1.28983">
        <ele>221.72</ele>
        <time>2021-08-20T17:44:11Z</time>
      </trkpt>
      <trkpt lat="43.1678" lon="-1.28982">
        <ele>220.28</ele>
        <time>2021-08-20T17:44:13Z</time>
      </trkpt>
      <trkpt lat="43.16785" lon="-1.2898">
        <ele>219.32</ele>
        <time>2021-08-20T17:44:14Z</time>
      </trkpt>
      <trkpt lat="43.16802" lon="-1.28971">
        <ele>216.43</ele>
        <time>2021-08-20T17:44:18Z</time>
      </trkpt>
      <trkpt lat="43.16807" lon="-1.28971">
        <ele>215.95</ele>
        <time>2021-08-20T17:44:19Z</time>
      </trkpt>
      <trkpt lat="43.16811" lon="-1.28972">
        <ele>215.47</ele>
        <time>2021-08-20T17:44:20Z</time>
      </trkpt>
      <trkpt lat="43.16814" lon="-1.28975">
        <ele>214.99</ele>
        <time>2021-08-20T17:44:21Z</time>
      </trkpt>
      <trkpt lat="43.16817" lon="-1.28978">
        <ele>214.03</ele>
        <time>2021-08-20T17:44:22Z</time>
      </trkpt>
      <trkpt lat="43.1682" lon="-1.28981">
        <ele>214.03</ele>
        <time>2021-08-20T17:44:23Z</time>
      </trkpt>
      <trkpt lat="43.16822" lon="-1.28983">
        <ele>213.07</ele>
        <time>2021-08-20T17:44:24Z</time>
      </trkpt>
      <trkpt lat="43.16841" lon="-1.2901">
        <ele>212.11</ele>
        <time>2021-08-20T17:44:32Z</time>
      </trkpt>
      <trkpt lat="43.16861" lon="-1.29047">
        <ele>211.63</ele>
        <time>2021-08-20T17:44:40Z</time>
      </trkpt>
      <trkpt lat="43.16887" lon="-1.29066">
        <ele>211.63</ele>
        <time>2021-08-20T17:44:47Z</time>
      </trkpt>
      <trkpt lat="43.16912" lon="-1.29068">
        <ele>213.55</ele>
        <time>2021-08-20T17:44:55Z</time>
      </trkpt>
      <trkpt lat="43.16932" lon="-1.29068">
        <ele>214.51</ele>
        <time>2021-08-20T17:45:02Z</time>
      </trkpt>
      <trkpt lat="43.16961" lon="-1.29064">
        <ele>214.99</ele>
        <time>2021-08-20T17:45:12Z</time>
      </trkpt>
      <trkpt lat="43.16981" lon="-1.29058">
        <ele>214.03</ele>
        <time>2021-08-20T17:45:18Z</time>
      </trkpt>
      <trkpt lat="43.17018" lon="-1.2905">
        <ele>212.11</ele>
        <time>2021-08-20T17:45:26Z</time>
      </trkpt>
      <trkpt lat="43.17046" lon="-1.29041">
        <ele>210.19</ele>
        <time>2021-08-20T17:45:32Z</time>
      </trkpt>
      <trkpt lat="43.17051" lon="-1.29041">
        <ele>210.19</ele>
        <time>2021-08-20T17:45:33Z</time>
      </trkpt>
      <trkpt lat="43.17054" lon="-1.29043">
        <ele>209.7</ele>
        <time>2021-08-20T17:45:34Z</time>
      </trkpt>
      <trkpt lat="43.17058" lon="-1.29045">
        <ele>209.7</ele>
        <time>2021-08-20T17:45:35Z</time>
      </trkpt>
      <trkpt lat="43.17061" lon="-1.29049">
        <ele>209.22</ele>
        <time>2021-08-20T17:45:36Z</time>
      </trkpt>
      <trkpt lat="43.17065" lon="-1.29052">
        <ele>209.22</ele>
        <time>2021-08-20T17:45:37Z</time>
      </trkpt>
      <trkpt lat="43.17077" lon="-1.29065">
        <ele>208.26</ele>
        <time>2021-08-20T17:45:40Z</time>
      </trkpt>
      <trkpt lat="43.171" lon="-1.29096">
        <ele>204.9</ele>
        <time>2021-08-20T17:45:45Z</time>
      </trkpt>
      <trkpt lat="43.17124" lon="-1.29129">
        <ele>201.53</ele>
        <time>2021-08-20T17:45:49Z</time>
      </trkpt>
      <trkpt lat="43.1716" lon="-1.29181">
        <ele>200.09</ele>
        <time>2021-08-20T17:45:55Z</time>
      </trkpt>
      <trkpt lat="43.17188" lon="-1.29222">
        <ele>200.09</ele>
        <time>2021-08-20T17:46:01Z</time>
      </trkpt>
      <trkpt lat="43.17215" lon="-1.29272">
        <ele>200.09</ele>
        <time>2021-08-20T17:46:09Z</time>
      </trkpt>
      <trkpt lat="43.17229" lon="-1.29298">
        <ele>201.53</ele>
        <time>2021-08-20T17:46:14Z</time>
      </trkpt>
      <trkpt lat="43.17232" lon="-1.29302">
        <ele>201.53</ele>
        <time>2021-08-20T17:46:15Z</time>
      </trkpt>
      <trkpt lat="43.17263" lon="-1.29346">
        <ele>201.53</ele>
        <time>2021-08-20T17:46:26Z</time>
      </trkpt>
      <trkpt lat="43.17281" lon="-1.29376">
        <ele>201.53</ele>
        <time>2021-08-20T17:46:33Z</time>
      </trkpt>
      <trkpt lat="43.17306" lon="-1.2941">
        <ele>201.53</ele>
        <time>2021-08-20T17:46:42Z</time>
      </trkpt>
      <trkpt lat="43.17324" lon="-1.29437">
        <ele>201.53</ele>
        <time>2021-08-20T17:46:49Z</time>
      </trkpt>
      <trkpt lat="43.17339" lon="-1.29471">
        <ele>202.49</ele>
        <time>2021-08-20T17:46:57Z</time>
      </trkpt>
      <trkpt lat="43.17349" lon="-1.29492">
        <ele>203.46</ele>
        <time>2021-08-20T17:47:03Z</time>
      </trkpt>
      <trkpt lat="43.17374" lon="-1.29522">
        <ele>203.94</ele>
        <time>2021-08-20T17:47:14Z</time>
      </trkpt>
      <trkpt lat="43.17379" lon="-1.29525">
        <ele>204.42</ele>
        <time>2021-08-20T17:47:16Z</time>
      </trkpt>
      <trkpt lat="43.17381" lon="-1.29527">
        <ele>204.42</ele>
        <time>2021-08-20T17:47:17Z</time>
      </trkpt>
      <trkpt lat="43.17383" lon="-1.29529">
        <ele>204.42</ele>
        <time>2021-08-20T17:47:18Z</time>
      </trkpt>
      <trkpt lat="43.17385" lon="-1.29531">
        <ele>203.94</ele>
        <time>2021-08-20T17:47:19Z</time>
      </trkpt>
      <trkpt lat="43.17387" lon="-1.29533">
        <ele>203.94</ele>
        <time>2021-08-20T17:47:20Z</time>
      </trkpt>
      <trkpt lat="43.17389" lon="-1.29535">
        <ele>204.42</ele>
        <time>2021-08-20T17:47:21Z</time>
      </trkpt>
      <trkpt lat="43.17391" lon="-1.29537">
        <ele>204.42</ele>
        <time>2021-08-20T17:47:22Z</time>
      </trkpt>
      <trkpt lat="43.1741" lon="-1.29556">
        <ele>204.42</ele>
        <time>2021-08-20T17:47:30Z</time>
      </trkpt>
      <trkpt lat="43.17439" lon="-1.29587">
        <ele>204.9</ele>
        <time>2021-08-20T17:47:42Z</time>
      </trkpt>
      <trkpt lat="43.17459" lon="-1.29606">
        <ele>205.38</ele>
        <time>2021-08-20T17:47:50Z</time>
      </trkpt>
      <trkpt lat="43.1748" lon="-1.29631">
        <ele>205.86</ele>
        <time>2021-08-20T17:47:59Z</time>
      </trkpt>
      <trkpt lat="43.1749" lon="-1.29644">
        <ele>207.3</ele>
        <time>2021-08-20T17:48:05Z</time>
      </trkpt>
      <trkpt lat="43.17507" lon="-1.2965">
        <ele>208.26</ele>
        <time>2021-08-20T17:48:13Z</time>
      </trkpt>
      <trkpt lat="43.17521" lon="-1.29654">
        <ele>208.74</ele>
        <time>2021-08-20T17:48:19Z</time>
      </trkpt>
      <trkpt lat="43.17543" lon="-1.29658">
        <ele>208.74</ele>
        <time>2021-08-20T17:48:26Z</time>
      </trkpt>
      <trkpt lat="43.17554" lon="-1.29657">
        <ele>207.3</ele>
        <time>2021-08-20T17:48:29Z</time>
      </trkpt>
      <trkpt lat="43.17564" lon="-1.29654">
        <ele>206.34</ele>
        <time>2021-08-20T17:48:31Z</time>
      </trkpt>
      <trkpt lat="43.17569" lon="-1.29653">
        <ele>206.34</ele>
        <time>2021-08-20T17:48:32Z</time>
      </trkpt>
      <trkpt lat="43.17573" lon="-1.29654">
        <ele>205.86</ele>
        <time>2021-08-20T17:48:33Z</time>
      </trkpt>
      <trkpt lat="43.17579" lon="-1.29656">
        <ele>205.86</ele>
        <time>2021-08-20T17:48:34Z</time>
      </trkpt>
      <trkpt lat="43.17584" lon="-1.29659">
        <ele>205.38</ele>
        <time>2021-08-20T17:48:35Z</time>
      </trkpt>
      <trkpt lat="43.17589" lon="-1.29662">
        <ele>205.38</ele>
        <time>2021-08-20T17:48:36Z</time>
      </trkpt>
      <trkpt lat="43.17593" lon="-1.29667">
        <ele>205.38</ele>
        <time>2021-08-20T17:48:37Z</time>
      </trkpt>
      <trkpt lat="43.17597" lon="-1.29671">
        <ele>205.38</ele>
        <time>2021-08-20T17:48:38Z</time>
      </trkpt>
      <trkpt lat="43.17611" lon="-1.29684">
        <ele>204.9</ele>
        <time>2021-08-20T17:48:42Z</time>
      </trkpt>
      <trkpt lat="43.17615" lon="-1.29684">
        <ele>204.9</ele>
        <time>2021-08-20T17:48:43Z</time>
      </trkpt>
      <trkpt lat="43.17617" lon="-1.29685">
        <ele>204.42</ele>
        <time>2021-08-20T17:48:44Z</time>
      </trkpt>
      <trkpt lat="43.17619" lon="-1.29686">
        <ele>204.42</ele>
        <time>2021-08-20T17:48:45Z</time>
      </trkpt>
      <trkpt lat="43.1762" lon="-1.29686">
        <ele>204.42</ele>
        <time>2021-08-20T17:48:46Z</time>
      </trkpt>
      <trkpt lat="43.17622" lon="-1.29688">
        <ele>204.42</ele>
        <time>2021-08-20T17:48:47Z</time>
      </trkpt>
      <trkpt lat="43.17632" lon="-1.29702">
        <ele>204.42</ele>
        <time>2021-08-20T17:48:52Z</time>
      </trkpt>
      <trkpt lat="43.17643" lon="-1.29738">
        <ele>204.42</ele>
        <time>2021-08-20T17:49:01Z</time>
      </trkpt>
      <trkpt lat="43.1765" lon="-1.29764">
        <ele>205.38</ele>
        <time>2021-08-20T17:49:07Z</time>
      </trkpt>
      <trkpt lat="43.17663" lon="-1.2979">
        <ele>206.82</ele>
        <time>2021-08-20T17:49:15Z</time>
      </trkpt>
      <trkpt lat="43.17679" lon="-1.29815">
        <ele>207.78</ele>
        <time>2021-08-20T17:49:24Z</time>
      </trkpt>
      <trkpt lat="43.1769" lon="-1.2984">
        <ele>209.22</ele>
        <time>2021-08-20T17:49:34Z</time>
      </trkpt>
      <trkpt lat="43.17699" lon="-1.29858">
        <ele>210.67</ele>
        <time>2021-08-20T17:49:42Z</time>
      </trkpt>
      <trkpt lat="43.17712" lon="-1.29873">
        <ele>211.63</ele>
        <time>2021-08-20T17:49:51Z</time>
      </trkpt>
      <trkpt lat="43.17724" lon="-1.29882">
        <ele>212.59</ele>
        <time>2021-08-20T17:49:58Z</time>
      </trkpt>
      <trkpt lat="43.17726" lon="-1.29886">
        <ele>212.59</ele>
        <time>2021-08-20T17:50:00Z</time>
      </trkpt>
      <trkpt lat="43.17734" lon="-1.29912">
        <ele>213.55</ele>
        <time>2021-08-20T17:50:10Z</time>
      </trkpt>
      <trkpt lat="43.17742" lon="-1.29932">
        <ele>213.55</ele>
        <time>2021-08-20T17:50:17Z</time>
      </trkpt>
      <trkpt lat="43.17752" lon="-1.29964">
        <ele>214.51</ele>
        <time>2021-08-20T17:50:28Z</time>
      </trkpt>
      <trkpt lat="43.1776" lon="-1.2999">
        <ele>215.47</ele>
        <time>2021-08-20T17:50:37Z</time>
      </trkpt>
      <trkpt lat="43.17763" lon="-1.30015">
        <ele>215.95</ele>
        <time>2021-08-20T17:50:45Z</time>
      </trkpt>
      <trkpt lat="43.17774" lon="-1.30035">
        <ele>216.43</ele>
        <time>2021-08-20T17:50:53Z</time>
      </trkpt>
      <trkpt lat="43.17784" lon="-1.30037">
        <ele>216.91</ele>
        <time>2021-08-20T17:50:58Z</time>
      </trkpt>
      <trkpt lat="43.17799" lon="-1.30027">
        <ele>216.91</ele>
        <time>2021-08-20T17:51:06Z</time>
      </trkpt>
      <trkpt lat="43.17822" lon="-1.30017">
        <ele>216.91</ele>
        <time>2021-08-20T17:51:14Z</time>
      </trkpt>
      <trkpt lat="43.17846" lon="-1.30016">
        <ele>216.91</ele>
        <time>2021-08-20T17:51:23Z</time>
      </trkpt>
      <trkpt lat="43.17869" lon="-1.30014">
        <ele>215.47</ele>
        <time>2021-08-20T17:51:30Z</time>
      </trkpt>
      <trkpt lat="43.17898" lon="-1.30006">
        <ele>215.47</ele>
        <time>2021-08-20T17:51:37Z</time>
      </trkpt>
      <trkpt lat="43.17904" lon="-1.30003">
        <ele>215.47</ele>
        <time>2021-08-20T17:51:39Z</time>
      </trkpt>
      <trkpt lat="43.17909" lon="-1.30001">
        <ele>215.47</ele>
        <time>2021-08-20T17:51:40Z</time>
      </trkpt>
      <trkpt lat="43.17913" lon="-1.3">
        <ele>214.99</ele>
        <time>2021-08-20T17:51:41Z</time>
      </trkpt>
      <trkpt lat="43.17929" lon="-1.29997">
        <ele>213.07</ele>
        <time>2021-08-20T17:51:44Z</time>
      </trkpt>
      <trkpt lat="43.17935" lon="-1.29996">
        <ele>213.07</ele>
        <time>2021-08-20T17:51:45Z</time>
      </trkpt>
      <trkpt lat="43.17941" lon="-1.29996">
        <ele>212.59</ele>
        <time>2021-08-20T17:51:46Z</time>
      </trkpt>
      <trkpt lat="43.17947" lon="-1.29994">
        <ele>212.59</ele>
        <time>2021-08-20T17:51:47Z</time>
      </trkpt>
      <trkpt lat="43.17954" lon="-1.29993">
        <ele>212.59</ele>
        <time>2021-08-20T17:51:48Z</time>
      </trkpt>
      <trkpt lat="43.1796" lon="-1.29993">
        <ele>212.59</ele>
        <time>2021-08-20T17:51:49Z</time>
      </trkpt>
      <trkpt lat="43.17966" lon="-1.29994">
        <ele>212.59</ele>
        <time>2021-08-20T17:51:50Z</time>
      </trkpt>
      <trkpt lat="43.17971" lon="-1.29996">
        <ele>212.59</ele>
        <time>2021-08-20T17:51:51Z</time>
      </trkpt>
      <trkpt lat="43.17976" lon="-1.29998">
        <ele>212.59</ele>
        <time>2021-08-20T17:51:52Z</time>
      </trkpt>
      <trkpt lat="43.1798" lon="-1.30001">
        <ele>212.59</ele>
        <time>2021-08-20T17:51:53Z</time>
      </trkpt>
      <trkpt lat="43.17984" lon="-1.30004">
        <ele>212.59</ele>
        <time>2021-08-20T17:51:54Z</time>
      </trkpt>
      <trkpt lat="43.17989" lon="-1.30009">
        <ele>214.03</ele>
        <time>2021-08-20T17:51:56Z</time>
      </trkpt>
      <trkpt lat="43.18014" lon="-1.3002">
        <ele>215.47</ele>
        <time>2021-08-20T17:52:05Z</time>
      </trkpt>
      <trkpt lat="43.18033" lon="-1.30016">
        <ele>216.43</ele>
        <time>2021-08-20T17:52:12Z</time>
      </trkpt>
      <trkpt lat="43.18049" lon="-1.30016">
        <ele>217.88</ele>
        <time>2021-08-20T17:52:20Z</time>
      </trkpt>
      <trkpt lat="43.18067" lon="-1.30018">
        <ele>218.84</ele>
        <time>2021-08-20T17:52:29Z</time>
      </trkpt>
      <trkpt lat="43.18078" lon="-1.30024">
        <ele>219.8</ele>
        <time>2021-08-20T17:52:37Z</time>
      </trkpt>
      <trkpt lat="43.18083" lon="-1.3004">
        <ele>220.76</ele>
        <time>2021-08-20T17:52:45Z</time>
      </trkpt>
      <trkpt lat="43.18088" lon="-1.30058">
        <ele>222.68</ele>
        <time>2021-08-20T17:52:54Z</time>
      </trkpt>
      <trkpt lat="43.18089" lon="-1.30059">
        <ele>222.68</ele>
        <time>2021-08-20T17:52:55Z</time>
      </trkpt>
      <trkpt lat="43.18091" lon="-1.3006">
        <ele>223.16</ele>
        <time>2021-08-20T17:52:56Z</time>
      </trkpt>
      <trkpt lat="43.18092" lon="-1.3006">
        <ele>223.16</ele>
        <time>2021-08-20T17:52:57Z</time>
      </trkpt>
      <trkpt lat="43.18094" lon="-1.30061">
        <ele>223.16</ele>
        <time>2021-08-20T17:52:58Z</time>
      </trkpt>
      <trkpt lat="43.18095" lon="-1.30062">
        <ele>223.64</ele>
        <time>2021-08-20T17:52:59Z</time>
      </trkpt>
      <trkpt lat="43.18097" lon="-1.30063">
        <ele>223.64</ele>
        <time>2021-08-20T17:53:00Z</time>
      </trkpt>
      <trkpt lat="43.18107" lon="-1.30069">
        <ele>225.09</ele>
        <time>2021-08-20T17:53:07Z</time>
      </trkpt>
      <trkpt lat="43.1812" lon="-1.30077">
        <ele>226.05</ele>
        <time>2021-08-20T17:53:16Z</time>
      </trkpt>
      <trkpt lat="43.1813" lon="-1.30093">
        <ele>227.01</ele>
        <time>2021-08-20T17:53:25Z</time>
      </trkpt>
      <trkpt lat="43.18136" lon="-1.30101">
        <ele>227.49</ele>
        <time>2021-08-20T17:53:31Z</time>
      </trkpt>
      <trkpt lat="43.18138" lon="-1.30102">
        <ele>227.49</ele>
        <time>2021-08-20T17:53:32Z</time>
      </trkpt>
      <trkpt lat="43.18139" lon="-1.30102">
        <ele>227.49</ele>
        <time>2021-08-20T17:53:33Z</time>
      </trkpt>
      <trkpt lat="43.1814" lon="-1.30104">
        <ele>227.49</ele>
        <time>2021-08-20T17:53:34Z</time>
      </trkpt>
      <trkpt lat="43.18141" lon="-1.30105">
        <ele>227.49</ele>
        <time>2021-08-20T17:53:35Z</time>
      </trkpt>
      <trkpt lat="43.18142" lon="-1.30107">
        <ele>227.97</ele>
        <time>2021-08-20T17:53:36Z</time>
      </trkpt>
      <trkpt lat="43.18143" lon="-1.30109">
        <ele>227.97</ele>
        <time>2021-08-20T17:53:37Z</time>
      </trkpt>
      <trkpt lat="43.18144" lon="-1.30111">
        <ele>227.97</ele>
        <time>2021-08-20T17:53:38Z</time>
      </trkpt>
      <trkpt lat="43.18154" lon="-1.30125">
        <ele>228.45</ele>
        <time>2021-08-20T17:53:46Z</time>
      </trkpt>
      <trkpt lat="43.18166" lon="-1.30138">
        <ele>228.45</ele>
        <time>2021-08-20T17:53:53Z</time>
      </trkpt>
      <trkpt lat="43.18176" lon="-1.3015">
        <ele>228.93</ele>
        <time>2021-08-20T17:54:00Z</time>
      </trkpt>
      <trkpt lat="43.18192" lon="-1.30169">
        <ele>229.41</ele>
        <time>2021-08-20T17:54:10Z</time>
      </trkpt>
      <trkpt lat="43.18207" lon="-1.30188">
        <ele>229.41</ele>
        <time>2021-08-20T17:54:18Z</time>
      </trkpt>
      <trkpt lat="43.18225" lon="-1.3021">
        <ele>229.89</ele>
        <time>2021-08-20T17:54:27Z</time>
      </trkpt>
      <trkpt lat="43.1824" lon="-1.30228">
        <ele>230.85</ele>
        <time>2021-08-20T17:54:35Z</time>
      </trkpt>
      <trkpt lat="43.18255" lon="-1.30245">
        <ele>231.33</ele>
        <time>2021-08-20T17:54:43Z</time>
      </trkpt>
      <trkpt lat="43.18262" lon="-1.30253">
        <ele>232.3</ele>
        <time>2021-08-20T17:54:49Z</time>
      </trkpt>
      <trkpt lat="43.18263" lon="-1.30254">
        <ele>232.3</ele>
        <time>2021-08-20T17:54:55Z</time>
      </trkpt>
      <trkpt lat="43.18269" lon="-1.30261">
        <ele>233.74</ele>
        <time>2021-08-20T17:55:03Z</time>
      </trkpt>
      <trkpt lat="43.18277" lon="-1.30268">
        <ele>234.7</ele>
        <time>2021-08-20T17:55:13Z</time>
      </trkpt>
      <trkpt lat="43.18284" lon="-1.30275">
        <ele>236.14</ele>
        <time>2021-08-20T17:55:23Z</time>
      </trkpt>
      <trkpt lat="43.18291" lon="-1.30281">
        <ele>237.58</ele>
        <time>2021-08-20T17:55:33Z</time>
      </trkpt>
      <trkpt lat="43.18296" lon="-1.30287">
        <ele>238.54</ele>
        <time>2021-08-20T17:55:42Z</time>
      </trkpt>
      <trkpt lat="43.18304" lon="-1.30296">
        <ele>240.47</ele>
        <time>2021-08-20T17:55:54Z</time>
      </trkpt>
      <trkpt lat="43.18309" lon="-1.30303">
        <ele>241.91</ele>
        <time>2021-08-20T17:56:04Z</time>
      </trkpt>
      <trkpt lat="43.18314" lon="-1.30311">
        <ele>243.83</ele>
        <time>2021-08-20T17:56:14Z</time>
      </trkpt>
      <trkpt lat="43.18319" lon="-1.30318">
        <ele>244.79</ele>
        <time>2021-08-20T17:56:25Z</time>
      </trkpt>
      <trkpt lat="43.18324" lon="-1.30325">
        <ele>246.23</ele>
        <time>2021-08-20T17:56:35Z</time>
      </trkpt>
      <trkpt lat="43.18328" lon="-1.30332">
        <ele>248.16</ele>
        <time>2021-08-20T17:56:44Z</time>
      </trkpt>
      <trkpt lat="43.18331" lon="-1.30336">
        <ele>249.12</ele>
        <time>2021-08-20T17:56:53Z</time>
      </trkpt>
      <trkpt lat="43.18335" lon="-1.3034">
        <ele>250.56</ele>
        <time>2021-08-20T17:57:02Z</time>
      </trkpt>
      <trkpt lat="43.18342" lon="-1.30347">
        <ele>252.48</ele>
        <time>2021-08-20T17:57:12Z</time>
      </trkpt>
      <trkpt lat="43.18349" lon="-1.30353">
        <ele>253.44</ele>
        <time>2021-08-20T17:57:21Z</time>
      </trkpt>
      <trkpt lat="43.18356" lon="-1.30358">
        <ele>254.41</ele>
        <time>2021-08-20T17:57:30Z</time>
      </trkpt>
      <trkpt lat="43.18358" lon="-1.3036">
        <ele>254.41</ele>
        <time>2021-08-20T17:57:32Z</time>
      </trkpt>
      <trkpt lat="43.18368" lon="-1.30365">
        <ele>255.37</ele>
        <time>2021-08-20T17:57:42Z</time>
      </trkpt>
      <trkpt lat="43.18377" lon="-1.3037">
        <ele>255.85</ele>
        <time>2021-08-20T17:57:51Z</time>
      </trkpt>
      <trkpt lat="43.18383" lon="-1.30377">
        <ele>256.81</ele>
        <time>2021-08-20T17:57:59Z</time>
      </trkpt>
      <trkpt lat="43.18394" lon="-1.30387">
        <ele>257.77</ele>
        <time>2021-08-20T17:58:10Z</time>
      </trkpt>
      <trkpt lat="43.18403" lon="-1.30395">
        <ele>258.73</ele>
        <time>2021-08-20T17:58:20Z</time>
      </trkpt>
      <trkpt lat="43.18406" lon="-1.30396">
        <ele>258.73</ele>
        <time>2021-08-20T17:58:25Z</time>
      </trkpt>
      <trkpt lat="43.18407" lon="-1.30396">
        <ele>258.73</ele>
        <time>2021-08-20T17:58:26Z</time>
      </trkpt>
      <trkpt lat="43.18408" lon="-1.30398">
        <ele>258.73</ele>
        <time>2021-08-20T17:58:27Z</time>
      </trkpt>
      <trkpt lat="43.18419" lon="-1.30409">
        <ele>259.21</ele>
        <time>2021-08-20T17:58:34Z</time>
      </trkpt>
      <trkpt lat="43.18428" lon="-1.30421">
        <ele>260.17</ele>
        <time>2021-08-20T17:58:41Z</time>
      </trkpt>
      <trkpt lat="43.18442" lon="-1.30438">
        <ele>260.17</ele>
        <time>2021-08-20T17:58:48Z</time>
      </trkpt>
      <trkpt lat="43.18458" lon="-1.30453">
        <ele>258.73</ele>
        <time>2021-08-20T17:58:56Z</time>
      </trkpt>
      <trkpt lat="43.18479" lon="-1.30466">
        <ele>257.77</ele>
        <time>2021-08-20T17:59:06Z</time>
      </trkpt>
      <trkpt lat="43.18502" lon="-1.3047">
        <ele>257.29</ele>
        <time>2021-08-20T17:59:16Z</time>
      </trkpt>
      <trkpt lat="43.18527" lon="-1.30465">
        <ele>256.33</ele>
        <time>2021-08-20T17:59:25Z</time>
      </trkpt>
      <trkpt lat="43.1856" lon="-1.30458">
        <ele>253.93</ele>
        <time>2021-08-20T17:59:33Z</time>
      </trkpt>
      <trkpt lat="43.18575" lon="-1.30453">
        <ele>252.48</ele>
        <time>2021-08-20T17:59:36Z</time>
      </trkpt>
      <trkpt lat="43.18599" lon="-1.30444">
        <ele>250.56</ele>
        <time>2021-08-20T17:59:41Z</time>
      </trkpt>
      <trkpt lat="43.18603" lon="-1.30446">
        <ele>250.08</ele>
        <time>2021-08-20T17:59:42Z</time>
      </trkpt>
      <trkpt lat="43.18606" lon="-1.3045">
        <ele>250.08</ele>
        <time>2021-08-20T17:59:43Z</time>
      </trkpt>
      <trkpt lat="43.18607" lon="-1.30454">
        <ele>249.6</ele>
        <time>2021-08-20T17:59:44Z</time>
      </trkpt>
      <trkpt lat="43.18608" lon="-1.30461">
        <ele>249.12</ele>
        <time>2021-08-20T17:59:45Z</time>
      </trkpt>
      <trkpt lat="43.18608" lon="-1.30466">
        <ele>248.64</ele>
        <time>2021-08-20T17:59:46Z</time>
      </trkpt>
      <trkpt lat="43.18612" lon="-1.30522">
        <ele>245.27</ele>
        <time>2021-08-20T17:59:53Z</time>
      </trkpt>
      <trkpt lat="43.18615" lon="-1.3058">
        <ele>241.43</ele>
        <time>2021-08-20T17:59:59Z</time>
      </trkpt>
      <trkpt lat="43.18617" lon="-1.30591">
        <ele>240.95</ele>
        <time>2021-08-20T18:00:00Z</time>
      </trkpt>
      <trkpt lat="43.1862" lon="-1.30601">
        <ele>240.47</ele>
        <time>2021-08-20T18:00:01Z</time>
      </trkpt>
      <trkpt lat="43.18624" lon="-1.3061">
        <ele>239.51</ele>
        <time>2021-08-20T18:00:02Z</time>
      </trkpt>
      <trkpt lat="43.18628" lon="-1.30619">
        <ele>238.54</ele>
        <time>2021-08-20T18:00:03Z</time>
      </trkpt>
      <trkpt lat="43.18633" lon="-1.30627">
        <ele>238.06</ele>
        <time>2021-08-20T18:00:04Z</time>
      </trkpt>
      <trkpt lat="43.18639" lon="-1.30634">
        <ele>237.58</ele>
        <time>2021-08-20T18:00:05Z</time>
      </trkpt>
      <trkpt lat="43.18644" lon="-1.3064">
        <ele>237.58</ele>
        <time>2021-08-20T18:00:06Z</time>
      </trkpt>
      <trkpt lat="43.1865" lon="-1.30645">
        <ele>237.1</ele>
        <time>2021-08-20T18:00:07Z</time>
      </trkpt>
      <trkpt lat="43.18656" lon="-1.3065">
        <ele>237.1</ele>
        <time>2021-08-20T18:00:08Z</time>
      </trkpt>
      <trkpt lat="43.18672" lon="-1.30664">
        <ele>236.62</ele>
        <time>2021-08-20T18:00:11Z</time>
      </trkpt>
      <trkpt lat="43.18676" lon="-1.30671">
        <ele>236.14</ele>
        <time>2021-08-20T18:00:12Z</time>
      </trkpt>
      <trkpt lat="43.18678" lon="-1.3068">
        <ele>235.18</ele>
        <time>2021-08-20T18:00:13Z</time>
      </trkpt>
      <trkpt lat="43.1868" lon="-1.3069">
        <ele>234.7</ele>
        <time>2021-08-20T18:00:14Z</time>
      </trkpt>
      <trkpt lat="43.18682" lon="-1.307">
        <ele>233.74</ele>
        <time>2021-08-20T18:00:15Z</time>
      </trkpt>
      <trkpt lat="43.18686" lon="-1.3071">
        <ele>233.26</ele>
        <time>2021-08-20T18:00:16Z</time>
      </trkpt>
      <trkpt lat="43.1869" lon="-1.30719">
        <ele>233.26</ele>
        <time>2021-08-20T18:00:17Z</time>
      </trkpt>
      <trkpt lat="43.18694" lon="-1.30727">
        <ele>232.78</ele>
        <time>2021-08-20T18:00:18Z</time>
      </trkpt>
      <trkpt lat="43.18699" lon="-1.30736">
        <ele>231.81</ele>
        <time>2021-08-20T18:00:19Z</time>
      </trkpt>
      <trkpt lat="43.18721" lon="-1.3078">
        <ele>228.45</ele>
        <time>2021-08-20T18:00:24Z</time>
      </trkpt>
      <trkpt lat="43.18723" lon="-1.3079">
        <ele>227.97</ele>
        <time>2021-08-20T18:00:25Z</time>
      </trkpt>
      <trkpt lat="43.18738" lon="-1.30848">
        <ele>224.61</ele>
        <time>2021-08-20T18:00:31Z</time>
      </trkpt>
      <trkpt lat="43.18744" lon="-1.30866">
        <ele>224.12</ele>
        <time>2021-08-20T18:00:33Z</time>
      </trkpt>
      <trkpt lat="43.18758" lon="-1.30899">
        <ele>223.64</ele>
        <time>2021-08-20T18:00:37Z</time>
      </trkpt>
      <trkpt lat="43.18779" lon="-1.30943">
        <ele>221.24</ele>
        <time>2021-08-20T18:00:42Z</time>
      </trkpt>
      <trkpt lat="43.18781" lon="-1.30953">
        <ele>220.76</ele>
        <time>2021-08-20T18:00:43Z</time>
      </trkpt>
      <trkpt lat="43.18794" lon="-1.3102">
        <ele>217.4</ele>
        <time>2021-08-20T18:00:50Z</time>
      </trkpt>
      <trkpt lat="43.18796" lon="-1.31029">
        <ele>217.4</ele>
        <time>2021-08-20T18:00:51Z</time>
      </trkpt>
      <trkpt lat="43.18801" lon="-1.31049">
        <ele>216.43</ele>
        <time>2021-08-20T18:00:53Z</time>
      </trkpt>
      <trkpt lat="43.18804" lon="-1.31057">
        <ele>216.43</ele>
        <time>2021-08-20T18:00:54Z</time>
      </trkpt>
      <trkpt lat="43.18808" lon="-1.31066">
        <ele>215.47</ele>
        <time>2021-08-20T18:00:55Z</time>
      </trkpt>
      <trkpt lat="43.18813" lon="-1.31074">
        <ele>215.47</ele>
        <time>2021-08-20T18:00:56Z</time>
      </trkpt>
      <trkpt lat="43.18818" lon="-1.31082">
        <ele>214.99</ele>
        <time>2021-08-20T18:00:57Z</time>
      </trkpt>
      <trkpt lat="43.18832" lon="-1.31107">
        <ele>214.51</ele>
        <time>2021-08-20T18:01:00Z</time>
      </trkpt>
      <trkpt lat="43.18835" lon="-1.31116">
        <ele>214.03</ele>
        <time>2021-08-20T18:01:01Z</time>
      </trkpt>
      <trkpt lat="43.1884" lon="-1.31124">
        <ele>214.03</ele>
        <time>2021-08-20T18:01:02Z</time>
      </trkpt>
      <trkpt lat="43.18845" lon="-1.31132">
        <ele>214.03</ele>
        <time>2021-08-20T18:01:03Z</time>
      </trkpt>
      <trkpt lat="43.18849" lon="-1.3114">
        <ele>213.07</ele>
        <time>2021-08-20T18:01:04Z</time>
      </trkpt>
      <trkpt lat="43.18853" lon="-1.31148">
        <ele>213.07</ele>
        <time>2021-08-20T18:01:05Z</time>
      </trkpt>
      <trkpt lat="43.18856" lon="-1.31157">
        <ele>213.07</ele>
        <time>2021-08-20T18:01:06Z</time>
      </trkpt>
      <trkpt lat="43.18872" lon="-1.31202">
        <ele>214.51</ele>
        <time>2021-08-20T18:01:12Z</time>
      </trkpt>
      <trkpt lat="43.18874" lon="-1.31207">
        <ele>214.51</ele>
        <time>2021-08-20T18:01:13Z</time>
      </trkpt>
      <trkpt lat="43.1888" lon="-1.31223">
        <ele>214.99</ele>
        <time>2021-08-20T18:01:16Z</time>
      </trkpt>
      <trkpt lat="43.18882" lon="-1.31227">
        <ele>215.47</ele>
        <time>2021-08-20T18:01:17Z</time>
      </trkpt>
      <trkpt lat="43.18904" lon="-1.31263">
        <ele>214.03</ele>
        <time>2021-08-20T18:01:24Z</time>
      </trkpt>
      <trkpt lat="43.18917" lon="-1.31282">
        <ele>212.59</ele>
        <time>2021-08-20T18:01:27Z</time>
      </trkpt>
      <trkpt lat="43.18921" lon="-1.31289">
        <ele>212.59</ele>
        <time>2021-08-20T18:01:28Z</time>
      </trkpt>
      <trkpt lat="43.18924" lon="-1.31296">
        <ele>212.59</ele>
        <time>2021-08-20T18:01:29Z</time>
      </trkpt>
      <trkpt lat="43.18926" lon="-1.31304">
        <ele>212.11</ele>
        <time>2021-08-20T18:01:30Z</time>
      </trkpt>
      <trkpt lat="43.18927" lon="-1.31311">
        <ele>212.11</ele>
        <time>2021-08-20T18:01:31Z</time>
      </trkpt>
      <trkpt lat="43.18928" lon="-1.31319">
        <ele>212.11</ele>
        <time>2021-08-20T18:01:32Z</time>
      </trkpt>
      <trkpt lat="43.18929" lon="-1.31326">
        <ele>212.11</ele>
        <time>2021-08-20T18:01:33Z</time>
      </trkpt>
      <trkpt lat="43.18927" lon="-1.31354">
        <ele>212.11</ele>
        <time>2021-08-20T18:01:37Z</time>
      </trkpt>
      <trkpt lat="43.18924" lon="-1.31379">
        <ele>212.11</ele>
        <time>2021-08-20T18:01:41Z</time>
      </trkpt>
      <trkpt lat="43.18921" lon="-1.31386">
        <ele>211.63</ele>
        <time>2021-08-20T18:01:42Z</time>
      </trkpt>
      <trkpt lat="43.18919" lon="-1.31393">
        <ele>211.63</ele>
        <time>2021-08-20T18:01:43Z</time>
      </trkpt>
      <trkpt lat="43.18915" lon="-1.31401">
        <ele>210.67</ele>
        <time>2021-08-20T18:01:44Z</time>
      </trkpt>
      <trkpt lat="43.18912" lon="-1.31408">
        <ele>210.19</ele>
        <time>2021-08-20T18:01:45Z</time>
      </trkpt>
      <trkpt lat="43.18908" lon="-1.31415">
        <ele>209.22</ele>
        <time>2021-08-20T18:01:46Z</time>
      </trkpt>
      <trkpt lat="43.18903" lon="-1.31421">
        <ele>207.78</ele>
        <time>2021-08-20T18:01:47Z</time>
      </trkpt>
      <trkpt lat="43.18896" lon="-1.31435">
        <ele>206.34</ele>
        <time>2021-08-20T18:01:49Z</time>
      </trkpt>
      <trkpt lat="43.18894" lon="-1.31442">
        <ele>205.86</ele>
        <time>2021-08-20T18:01:50Z</time>
      </trkpt>
      <trkpt lat="43.18892" lon="-1.31449">
        <ele>204.9</ele>
        <time>2021-08-20T18:01:51Z</time>
      </trkpt>
      <trkpt lat="43.18887" lon="-1.31466">
        <ele>202.98</ele>
        <time>2021-08-20T18:01:55Z</time>
      </trkpt>
      <trkpt lat="43.18881" lon="-1.31481">
        <ele>201.53</ele>
        <time>2021-08-20T18:02:01Z</time>
      </trkpt>
      <trkpt lat="43.18881" lon="-1.31494">
        <ele>200.09</ele>
        <time>2021-08-20T18:02:03Z</time>
      </trkpt>
      <trkpt lat="43.18882" lon="-1.31502">
        <ele>199.61</ele>
        <time>2021-08-20T18:02:04Z</time>
      </trkpt>
      <trkpt lat="43.18883" lon="-1.31511">
        <ele>199.13</ele>
        <time>2021-08-20T18:02:05Z</time>
      </trkpt>
      <trkpt lat="43.18891" lon="-1.31559">
        <ele>196.73</ele>
        <time>2021-08-20T18:02:10Z</time>
      </trkpt>
      <trkpt lat="43.18894" lon="-1.31568">
        <ele>196.25</ele>
        <time>2021-08-20T18:02:11Z</time>
      </trkpt>
      <trkpt lat="43.18901" lon="-1.31587">
        <ele>194.8</ele>
        <time>2021-08-20T18:02:13Z</time>
      </trkpt>
      <trkpt lat="43.18911" lon="-1.31621">
        <ele>192.88</ele>
        <time>2021-08-20T18:02:16Z</time>
      </trkpt>
      <trkpt lat="43.18915" lon="-1.31631">
        <ele>192.88</ele>
        <time>2021-08-20T18:02:17Z</time>
      </trkpt>
      <trkpt lat="43.1892" lon="-1.31641">
        <ele>192.88</ele>
        <time>2021-08-20T18:02:18Z</time>
      </trkpt>
      <trkpt lat="43.18939" lon="-1.31675">
        <ele>192.4</ele>
        <time>2021-08-20T18:02:22Z</time>
      </trkpt>
      <trkpt lat="43.18942" lon="-1.31686">
        <ele>192.4</ele>
        <time>2021-08-20T18:02:23Z</time>
      </trkpt>
      <trkpt lat="43.18944" lon="-1.31696">
        <ele>192.4</ele>
        <time>2021-08-20T18:02:24Z</time>
      </trkpt>
      <trkpt lat="43.18943" lon="-1.31707">
        <ele>192.4</ele>
        <time>2021-08-20T18:02:25Z</time>
      </trkpt>
      <trkpt lat="43.18942" lon="-1.31717">
        <ele>192.4</ele>
        <time>2021-08-20T18:02:26Z</time>
      </trkpt>
      <trkpt lat="43.18941" lon="-1.31727">
        <ele>192.4</ele>
        <time>2021-08-20T18:02:27Z</time>
      </trkpt>
      <trkpt lat="43.18938" lon="-1.31736">
        <ele>192.4</ele>
        <time>2021-08-20T18:02:28Z</time>
      </trkpt>
      <trkpt lat="43.18935" lon="-1.31743">
        <ele>192.4</ele>
        <time>2021-08-20T18:02:29Z</time>
      </trkpt>
      <trkpt lat="43.18933" lon="-1.31749">
        <ele>192.4</ele>
        <time>2021-08-20T18:02:30Z</time>
      </trkpt>
      <trkpt lat="43.1893" lon="-1.31753">
        <ele>192.4</ele>
        <time>2021-08-20T18:02:31Z</time>
      </trkpt>
      <trkpt lat="43.18928" lon="-1.31757">
        <ele>193.36</ele>
        <time>2021-08-20T18:02:33Z</time>
      </trkpt>
      <trkpt lat="43.18926" lon="-1.31759">
        <ele>193.36</ele>
        <time>2021-08-20T18:02:38Z</time>
      </trkpt>
      <trkpt lat="43.18925" lon="-1.31758">
        <ele>193.36</ele>
        <time>2021-08-20T18:02:52Z</time>
      </trkpt>
      <trkpt lat="43.18924" lon="-1.31756">
        <ele>193.36</ele>
        <time>2021-08-20T18:03:07Z</time>
      </trkpt>
      <trkpt lat="43.18925" lon="-1.31757">
        <ele>193.36</ele>
        <time>2021-08-20T18:03:12Z</time>
      </trkpt>
      <trkpt lat="43.18925" lon="-1.3176">
        <ele>193.36</ele>
        <time>2021-08-20T18:03:16Z</time>
      </trkpt>
      <trkpt lat="43.18925" lon="-1.31762">
        <ele>193.36</ele>
        <time>2021-08-20T18:03:17Z</time>
      </trkpt>
      <trkpt lat="43.18916" lon="-1.31785">
        <ele>190.96</ele>
        <time>2021-08-20T18:03:22Z</time>
      </trkpt>
      <trkpt lat="43.1891" lon="-1.31803">
        <ele>189.04</ele>
        <time>2021-08-20T18:03:24Z</time>
      </trkpt>
      <trkpt lat="43.18908" lon="-1.31813">
        <ele>188.08</ele>
        <time>2021-08-20T18:03:25Z</time>
      </trkpt>
      <trkpt lat="43.18907" lon="-1.31823">
        <ele>186.63</ele>
        <time>2021-08-20T18:03:26Z</time>
      </trkpt>
      <trkpt lat="43.18907" lon="-1.31834">
        <ele>186.15</ele>
        <time>2021-08-20T18:03:27Z</time>
      </trkpt>
      <trkpt lat="43.18907" lon="-1.31845">
        <ele>186.15</ele>
        <time>2021-08-20T18:03:28Z</time>
      </trkpt>
      <trkpt lat="43.18908" lon="-1.31855">
        <ele>186.15</ele>
        <time>2021-08-20T18:03:29Z</time>
      </trkpt>
      <trkpt lat="43.1891" lon="-1.31866">
        <ele>185.67</ele>
        <time>2021-08-20T18:03:30Z</time>
      </trkpt>
      <trkpt lat="43.18911" lon="-1.31875">
        <ele>185.67</ele>
        <time>2021-08-20T18:03:31Z</time>
      </trkpt>
      <trkpt lat="43.18912" lon="-1.31885">
        <ele>185.67</ele>
        <time>2021-08-20T18:03:32Z</time>
      </trkpt>
      <trkpt lat="43.18911" lon="-1.31893">
        <ele>185.67</ele>
        <time>2021-08-20T18:03:33Z</time>
      </trkpt>
      <trkpt lat="43.18908" lon="-1.319">
        <ele>185.67</ele>
        <time>2021-08-20T18:03:34Z</time>
      </trkpt>
      <trkpt lat="43.18904" lon="-1.31906">
        <ele>185.67</ele>
        <time>2021-08-20T18:03:35Z</time>
      </trkpt>
      <trkpt lat="43.18901" lon="-1.31912">
        <ele>185.67</ele>
        <time>2021-08-20T18:03:36Z</time>
      </trkpt>
      <trkpt lat="43.18893" lon="-1.31934">
        <ele>185.67</ele>
        <time>2021-08-20T18:03:39Z</time>
      </trkpt>
      <trkpt lat="43.18891" lon="-1.31942">
        <ele>185.67</ele>
        <time>2021-08-20T18:03:40Z</time>
      </trkpt>
      <trkpt lat="43.18883" lon="-1.31978">
        <ele>184.71</ele>
        <time>2021-08-20T18:03:44Z</time>
      </trkpt>
      <trkpt lat="43.18868" lon="-1.32027">
        <ele>182.31</ele>
        <time>2021-08-20T18:03:49Z</time>
      </trkpt>
      <trkpt lat="43.18866" lon="-1.32038">
        <ele>182.31</ele>
        <time>2021-08-20T18:03:50Z</time>
      </trkpt>
      <trkpt lat="43.18866" lon="-1.32048">
        <ele>182.31</ele>
        <time>2021-08-20T18:03:51Z</time>
      </trkpt>
      <trkpt lat="43.18866" lon="-1.32058">
        <ele>182.31</ele>
        <time>2021-08-20T18:03:52Z</time>
      </trkpt>
      <trkpt lat="43.18867" lon="-1.32067">
        <ele>182.31</ele>
        <time>2021-08-20T18:03:53Z</time>
      </trkpt>
      <trkpt lat="43.18872" lon="-1.32125">
        <ele>183.75</ele>
        <time>2021-08-20T18:04:00Z</time>
      </trkpt>
      <trkpt lat="43.18877" lon="-1.32153">
        <ele>181.83</ele>
        <time>2021-08-20T18:04:03Z</time>
      </trkpt>
      <trkpt lat="43.18878" lon="-1.32162">
        <ele>181.83</ele>
        <time>2021-08-20T18:04:04Z</time>
      </trkpt>
      <trkpt lat="43.18879" lon="-1.32213">
        <ele>179.42</ele>
        <time>2021-08-20T18:04:10Z</time>
      </trkpt>
      <trkpt lat="43.18876" lon="-1.32224">
        <ele>179.42</ele>
        <time>2021-08-20T18:04:15Z</time>
      </trkpt>
      <trkpt lat="43.18877" lon="-1.32225">
        <ele>178.94</ele>
        <time>2021-08-20T18:04:16Z</time>
      </trkpt>
      <trkpt lat="43.18877" lon="-1.32227">
        <ele>178.94</ele>
        <time>2021-08-20T18:04:17Z</time>
      </trkpt>
      <trkpt lat="43.18879" lon="-1.3223">
        <ele>178.94</ele>
        <time>2021-08-20T18:04:18Z</time>
      </trkpt>
      <trkpt lat="43.18881" lon="-1.32235">
        <ele>177.98</ele>
        <time>2021-08-20T18:04:19Z</time>
      </trkpt>
      <trkpt lat="43.18882" lon="-1.3224">
        <ele>177.5</ele>
        <time>2021-08-20T18:04:20Z</time>
      </trkpt>
      <trkpt lat="43.18884" lon="-1.32245">
        <ele>177.02</ele>
        <time>2021-08-20T18:04:21Z</time>
      </trkpt>
      <trkpt lat="43.18887" lon="-1.32259">
        <ele>175.58</ele>
        <time>2021-08-20T18:04:24Z</time>
      </trkpt>
      <trkpt lat="43.18886" lon="-1.32292">
        <ele>172.69</ele>
        <time>2021-08-20T18:04:31Z</time>
      </trkpt>
      <trkpt lat="43.18886" lon="-1.32314">
        <ele>170.77</ele>
        <time>2021-08-20T18:04:36Z</time>
      </trkpt>
      <trkpt lat="43.18887" lon="-1.32329">
        <ele>168.85</ele>
        <time>2021-08-20T18:04:39Z</time>
      </trkpt>
      <trkpt lat="43.18891" lon="-1.3234">
        <ele>167.41</ele>
        <time>2021-08-20T18:04:41Z</time>
      </trkpt>
      <trkpt lat="43.18892" lon="-1.32346">
        <ele>166.93</ele>
        <time>2021-08-20T18:04:42Z</time>
      </trkpt>
      <trkpt lat="43.18892" lon="-1.32355">
        <ele>165.96</ele>
        <time>2021-08-20T18:04:43Z</time>
      </trkpt>
      <trkpt lat="43.18891" lon="-1.32361">
        <ele>165.96</ele>
        <time>2021-08-20T18:04:44Z</time>
      </trkpt>
      <trkpt lat="43.18891" lon="-1.32368">
        <ele>165.96</ele>
        <time>2021-08-20T18:04:45Z</time>
      </trkpt>
      <trkpt lat="43.18891" lon="-1.32415">
        <ele>165</ele>
        <time>2021-08-20T18:04:52Z</time>
      </trkpt>
      <trkpt lat="43.18891" lon="-1.32421">
        <ele>165</ele>
        <time>2021-08-20T18:04:53Z</time>
      </trkpt>
      <trkpt lat="43.18892" lon="-1.32428">
        <ele>165</ele>
        <time>2021-08-20T18:04:54Z</time>
      </trkpt>
      <trkpt lat="43.18891" lon="-1.32452">
        <ele>164.52</ele>
        <time>2021-08-20T18:04:58Z</time>
      </trkpt>
      <trkpt lat="43.1889" lon="-1.32459">
        <ele>164.52</ele>
        <time>2021-08-20T18:04:59Z</time>
      </trkpt>
      <trkpt lat="43.18885" lon="-1.3248">
        <ele>163.08</ele>
        <time>2021-08-20T18:05:02Z</time>
      </trkpt>
      <trkpt lat="43.18883" lon="-1.32487">
        <ele>162.6</ele>
        <time>2021-08-20T18:05:03Z</time>
      </trkpt>
      <trkpt lat="43.18878" lon="-1.32501">
        <ele>161.64</ele>
        <time>2021-08-20T18:05:05Z</time>
      </trkpt>
      <trkpt lat="43.18864" lon="-1.3253">
        <ele>160.2</ele>
        <time>2021-08-20T18:05:09Z</time>
      </trkpt>
      <trkpt lat="43.18852" lon="-1.32552">
        <ele>159.72</ele>
        <time>2021-08-20T18:05:12Z</time>
      </trkpt>
      <trkpt lat="43.18851" lon="-1.3256">
        <ele>159.72</ele>
        <time>2021-08-20T18:05:13Z</time>
      </trkpt>
      <trkpt lat="43.18849" lon="-1.32569">
        <ele>158.75</ele>
        <time>2021-08-20T18:05:14Z</time>
      </trkpt>
      <trkpt lat="43.18849" lon="-1.32577">
        <ele>158.27</ele>
        <time>2021-08-20T18:05:15Z</time>
      </trkpt>
      <trkpt lat="43.18849" lon="-1.32586">
        <ele>158.27</ele>
        <time>2021-08-20T18:05:16Z</time>
      </trkpt>
      <trkpt lat="43.1885" lon="-1.32595">
        <ele>158.27</ele>
        <time>2021-08-20T18:05:17Z</time>
      </trkpt>
      <trkpt lat="43.18849" lon="-1.32604">
        <ele>157.79</ele>
        <time>2021-08-20T18:05:18Z</time>
      </trkpt>
      <trkpt lat="43.18848" lon="-1.32612">
        <ele>157.79</ele>
        <time>2021-08-20T18:05:19Z</time>
      </trkpt>
      <trkpt lat="43.18846" lon="-1.3262">
        <ele>156.83</ele>
        <time>2021-08-20T18:05:20Z</time>
      </trkpt>
      <trkpt lat="43.18844" lon="-1.32629">
        <ele>156.83</ele>
        <time>2021-08-20T18:05:21Z</time>
      </trkpt>
      <trkpt lat="43.18842" lon="-1.32637">
        <ele>156.35</ele>
        <time>2021-08-20T18:05:22Z</time>
      </trkpt>
      <trkpt lat="43.18842" lon="-1.32645">
        <ele>156.35</ele>
        <time>2021-08-20T18:05:23Z</time>
      </trkpt>
      <trkpt lat="43.18844" lon="-1.32653">
        <ele>156.35</ele>
        <time>2021-08-20T18:05:24Z</time>
      </trkpt>
      <trkpt lat="43.18847" lon="-1.3266">
        <ele>156.35</ele>
        <time>2021-08-20T18:05:25Z</time>
      </trkpt>
      <trkpt lat="43.18849" lon="-1.32667">
        <ele>156.35</ele>
        <time>2021-08-20T18:05:26Z</time>
      </trkpt>
      <trkpt lat="43.18857" lon="-1.32712">
        <ele>155.87</ele>
        <time>2021-08-20T18:05:32Z</time>
      </trkpt>
      <trkpt lat="43.18857" lon="-1.32719">
        <ele>155.87</ele>
        <time>2021-08-20T18:05:33Z</time>
      </trkpt>
      <trkpt lat="43.18857" lon="-1.32726">
        <ele>155.87</ele>
        <time>2021-08-20T18:05:34Z</time>
      </trkpt>
      <trkpt lat="43.18855" lon="-1.32757">
        <ele>154.91</ele>
        <time>2021-08-20T18:05:38Z</time>
      </trkpt>
      <trkpt lat="43.18856" lon="-1.32764">
        <ele>154.91</ele>
        <time>2021-08-20T18:05:39Z</time>
      </trkpt>
      <trkpt lat="43.18858" lon="-1.32777">
        <ele>154.91</ele>
        <time>2021-08-20T18:05:41Z</time>
      </trkpt>
      <trkpt lat="43.1886" lon="-1.32784">
        <ele>154.91</ele>
        <time>2021-08-20T18:05:42Z</time>
      </trkpt>
      <trkpt lat="43.18863" lon="-1.3279">
        <ele>153.95</ele>
        <time>2021-08-20T18:05:43Z</time>
      </trkpt>
      <trkpt lat="43.18865" lon="-1.32795">
        <ele>153.95</ele>
        <time>2021-08-20T18:05:44Z</time>
      </trkpt>
      <trkpt lat="43.18868" lon="-1.328">
        <ele>153.95</ele>
        <time>2021-08-20T18:05:45Z</time>
      </trkpt>
      <trkpt lat="43.18871" lon="-1.32805">
        <ele>153.47</ele>
        <time>2021-08-20T18:05:46Z</time>
      </trkpt>
      <trkpt lat="43.18895" lon="-1.32836">
        <ele>153.95</ele>
        <time>2021-08-20T18:05:54Z</time>
      </trkpt>
      <trkpt lat="43.18907" lon="-1.32849">
        <ele>153.47</ele>
        <time>2021-08-20T18:05:59Z</time>
      </trkpt>
      <trkpt lat="43.18921" lon="-1.32849">
        <ele>153.47</ele>
        <time>2021-08-20T18:06:05Z</time>
      </trkpt>
      <trkpt lat="43.18923" lon="-1.32849">
        <ele>153.47</ele>
        <time>2021-08-20T18:06:06Z</time>
      </trkpt>
      <trkpt lat="43.18924" lon="-1.32849">
        <ele>153.47</ele>
        <time>2021-08-20T18:06:07Z</time>
      </trkpt>
      <trkpt lat="43.18924" lon="-1.32851">
        <ele>153.47</ele>
        <time>2021-08-20T18:06:12Z</time>
      </trkpt>
      <trkpt lat="43.18925" lon="-1.32851">
        <ele>153.47</ele>
        <time>2021-08-20T18:06:21Z</time>
      </trkpt>
      <trkpt lat="43.18926" lon="-1.32851">
        <ele>153.47</ele>
        <time>2021-08-20T18:06:28Z</time>
      </trkpt>
      <trkpt lat="43.18925" lon="-1.3285">
        <ele>153.47</ele>
        <time>2021-08-20T18:06:38Z</time>
      </trkpt>
      <trkpt lat="43.18928" lon="-1.3285">
        <ele>153.47</ele>
        <time>2021-08-20T18:06:41Z</time>
      </trkpt>
      <trkpt lat="43.1893" lon="-1.32849">
        <ele>153.47</ele>
        <time>2021-08-20T18:06:42Z</time>
      </trkpt>
      <trkpt lat="43.18932" lon="-1.32849">
        <ele>153.47</ele>
        <time>2021-08-20T18:06:43Z</time>
      </trkpt>
      <trkpt lat="43.18934" lon="-1.32849">
        <ele>153.47</ele>
        <time>2021-08-20T18:06:44Z</time>
      </trkpt>
      <trkpt lat="43.18937" lon="-1.32849">
        <ele>153.47</ele>
        <time>2021-08-20T18:06:45Z</time>
      </trkpt>
      <trkpt lat="43.18939" lon="-1.32849">
        <ele>153.47</ele>
        <time>2021-08-20T18:06:46Z</time>
      </trkpt>
      <trkpt lat="43.18961" lon="-1.3285">
        <ele>154.91</ele>
        <time>2021-08-20T18:06:53Z</time>
      </trkpt>
      <trkpt lat="43.18976" lon="-1.32853">
        <ele>156.83</ele>
        <time>2021-08-20T18:07:00Z</time>
      </trkpt>
      <trkpt lat="43.18991" lon="-1.32855">
        <ele>158.75</ele>
        <time>2021-08-20T18:07:07Z</time>
      </trkpt>
      <trkpt lat="43.18997" lon="-1.3286">
        <ele>159.72</ele>
        <time>2021-08-20T18:07:12Z</time>
      </trkpt>
      <trkpt lat="43.19017" lon="-1.32884">
        <ele>161.16</ele>
        <time>2021-08-20T18:07:23Z</time>
      </trkpt>
      <trkpt lat="43.19037" lon="-1.32903">
        <ele>161.16</ele>
        <time>2021-08-20T18:07:31Z</time>
      </trkpt>
      <trkpt lat="43.19059" lon="-1.32934">
        <ele>161.16</ele>
        <time>2021-08-20T18:07:38Z</time>
      </trkpt>
      <trkpt lat="43.19069" lon="-1.32962">
        <ele>161.64</ele>
        <time>2021-08-20T18:07:44Z</time>
      </trkpt>
      <trkpt lat="43.19086" lon="-1.32986">
        <ele>162.12</ele>
        <time>2021-08-20T18:07:51Z</time>
      </trkpt>
      <trkpt lat="43.19098" lon="-1.33002">
        <ele>162.12</ele>
        <time>2021-08-20T18:07:55Z</time>
      </trkpt>
      <trkpt lat="43.19123" lon="-1.3303">
        <ele>162.12</ele>
        <time>2021-08-20T18:08:03Z</time>
      </trkpt>
      <trkpt lat="43.19141" lon="-1.3305">
        <ele>162.12</ele>
        <time>2021-08-20T18:08:10Z</time>
      </trkpt>
      <trkpt lat="43.19151" lon="-1.33057">
        <ele>162.12</ele>
        <time>2021-08-20T18:08:13Z</time>
      </trkpt>
      <trkpt lat="43.19169" lon="-1.33064">
        <ele>160.68</ele>
        <time>2021-08-20T18:08:17Z</time>
      </trkpt>
      <trkpt lat="43.19201" lon="-1.33071">
        <ele>159.24</ele>
        <time>2021-08-20T18:08:23Z</time>
      </trkpt>
      <trkpt lat="43.19212" lon="-1.33071">
        <ele>159.24</ele>
        <time>2021-08-20T18:08:25Z</time>
      </trkpt>
      <trkpt lat="43.19247" lon="-1.33081">
        <ele>159.24</ele>
        <time>2021-08-20T18:08:33Z</time>
      </trkpt>
      <trkpt lat="43.19272" lon="-1.3309">
        <ele>159.24</ele>
        <time>2021-08-20T18:08:39Z</time>
      </trkpt>
      <trkpt lat="43.19277" lon="-1.33091">
        <ele>159.24</ele>
        <time>2021-08-20T18:08:40Z</time>
      </trkpt>
      <trkpt lat="43.19282" lon="-1.33091">
        <ele>159.24</ele>
        <time>2021-08-20T18:08:41Z</time>
      </trkpt>
      <trkpt lat="43.19286" lon="-1.33091">
        <ele>159.24</ele>
        <time>2021-08-20T18:08:42Z</time>
      </trkpt>
      <trkpt lat="43.19291" lon="-1.3309">
        <ele>159.24</ele>
        <time>2021-08-20T18:08:43Z</time>
      </trkpt>
      <trkpt lat="43.19331" lon="-1.33081">
        <ele>159.24</ele>
        <time>2021-08-20T18:08:52Z</time>
      </trkpt>
      <trkpt lat="43.19378" lon="-1.3306">
        <ele>160.2</ele>
        <time>2021-08-20T18:09:04Z</time>
      </trkpt>
      <trkpt lat="43.19411" lon="-1.33043">
        <ele>161.16</ele>
        <time>2021-08-20T18:09:14Z</time>
      </trkpt>
      <trkpt lat="43.19447" lon="-1.3303">
        <ele>162.12</ele>
        <time>2021-08-20T18:09:24Z</time>
      </trkpt>
      <trkpt lat="43.19455" lon="-1.3303">
        <ele>162.6</ele>
        <time>2021-08-20T18:09:26Z</time>
      </trkpt>
      <trkpt lat="43.19459" lon="-1.33032">
        <ele>162.6</ele>
        <time>2021-08-20T18:09:27Z</time>
      </trkpt>
      <trkpt lat="43.19462" lon="-1.33036">
        <ele>162.6</ele>
        <time>2021-08-20T18:09:28Z</time>
      </trkpt>
      <trkpt lat="43.19466" lon="-1.3304">
        <ele>162.6</ele>
        <time>2021-08-20T18:09:29Z</time>
      </trkpt>
      <trkpt lat="43.19471" lon="-1.33045">
        <ele>160.68</ele>
        <time>2021-08-20T18:09:30Z</time>
      </trkpt>
      <trkpt lat="43.19508" lon="-1.33085">
        <ele>157.31</ele>
        <time>2021-08-20T18:09:37Z</time>
      </trkpt>
      <trkpt lat="43.19536" lon="-1.33111">
        <ele>154.91</ele>
        <time>2021-08-20T18:09:41Z</time>
      </trkpt>
      <trkpt lat="43.19543" lon="-1.33117">
        <ele>153.95</ele>
        <time>2021-08-20T18:09:42Z</time>
      </trkpt>
      <trkpt lat="43.19551" lon="-1.33121">
        <ele>152.99</ele>
        <time>2021-08-20T18:09:43Z</time>
      </trkpt>
      <trkpt lat="43.1956" lon="-1.33124">
        <ele>152.99</ele>
        <time>2021-08-20T18:09:44Z</time>
      </trkpt>
      <trkpt lat="43.19569" lon="-1.33126">
        <ele>152.51</ele>
        <time>2021-08-20T18:09:45Z</time>
      </trkpt>
      <trkpt lat="43.19578" lon="-1.33129">
        <ele>151.54</ele>
        <time>2021-08-20T18:09:46Z</time>
      </trkpt>
      <trkpt lat="43.19587" lon="-1.33133">
        <ele>151.54</ele>
        <time>2021-08-20T18:09:47Z</time>
      </trkpt>
      <trkpt lat="43.19595" lon="-1.33139">
        <ele>151.54</ele>
        <time>2021-08-20T18:09:48Z</time>
      </trkpt>
      <trkpt lat="43.19635" lon="-1.33156">
        <ele>148.18</ele>
        <time>2021-08-20T18:09:53Z</time>
      </trkpt>
      <trkpt lat="43.19647" lon="-1.33163">
        <ele>147.22</ele>
        <time>2021-08-20T18:09:55Z</time>
      </trkpt>
      <trkpt lat="43.19651" lon="-1.33167">
        <ele>146.26</ele>
        <time>2021-08-20T18:09:56Z</time>
      </trkpt>
      <trkpt lat="43.19652" lon="-1.33174">
        <ele>145.78</ele>
        <time>2021-08-20T18:09:57Z</time>
      </trkpt>
      <trkpt lat="43.19651" lon="-1.33182">
        <ele>144.34</ele>
        <time>2021-08-20T18:09:58Z</time>
      </trkpt>
      <trkpt lat="43.19648" lon="-1.3319">
        <ele>143.37</ele>
        <time>2021-08-20T18:09:59Z</time>
      </trkpt>
      <trkpt lat="43.19645" lon="-1.33199">
        <ele>142.89</ele>
        <time>2021-08-20T18:10:00Z</time>
      </trkpt>
      <trkpt lat="43.19639" lon="-1.33227">
        <ele>141.93</ele>
        <time>2021-08-20T18:10:03Z</time>
      </trkpt>
      <trkpt lat="43.1964" lon="-1.33236">
        <ele>141.93</ele>
        <time>2021-08-20T18:10:04Z</time>
      </trkpt>
      <trkpt lat="43.19644" lon="-1.33242">
        <ele>141.93</ele>
        <time>2021-08-20T18:10:05Z</time>
      </trkpt>
      <trkpt lat="43.19658" lon="-1.33258">
        <ele>141.93</ele>
        <time>2021-08-20T18:10:08Z</time>
      </trkpt>
      <trkpt lat="43.19662" lon="-1.33265">
        <ele>141.93</ele>
        <time>2021-08-20T18:10:09Z</time>
      </trkpt>
      <trkpt lat="43.19663" lon="-1.33271">
        <ele>141.93</ele>
        <time>2021-08-20T18:10:10Z</time>
      </trkpt>
      <trkpt lat="43.19663" lon="-1.33277">
        <ele>141.93</ele>
        <time>2021-08-20T18:10:11Z</time>
      </trkpt>
      <trkpt lat="43.19662" lon="-1.33283">
        <ele>142.89</ele>
        <time>2021-08-20T18:10:12Z</time>
      </trkpt>
      <trkpt lat="43.19659" lon="-1.33286">
        <ele>142.89</ele>
        <time>2021-08-20T18:10:13Z</time>
      </trkpt>
      <trkpt lat="43.19655" lon="-1.33287">
        <ele>143.37</ele>
        <time>2021-08-20T18:10:14Z</time>
      </trkpt>
      <trkpt lat="43.19652" lon="-1.33288">
        <ele>143.37</ele>
        <time>2021-08-20T18:10:15Z</time>
      </trkpt>
      <trkpt lat="43.19632" lon="-1.33289">
        <ele>145.3</ele>
        <time>2021-08-20T18:10:21Z</time>
      </trkpt>
      <trkpt lat="43.1963" lon="-1.33292">
        <ele>145.3</ele>
        <time>2021-08-20T18:10:22Z</time>
      </trkpt>
      <trkpt lat="43.19628" lon="-1.33295">
        <ele>145.3</ele>
        <time>2021-08-20T18:10:23Z</time>
      </trkpt>
      <trkpt lat="43.19627" lon="-1.33299">
        <ele>145.3</ele>
        <time>2021-08-20T18:10:24Z</time>
      </trkpt>
      <trkpt lat="43.19626" lon="-1.33303">
        <ele>145.3</ele>
        <time>2021-08-20T18:10:25Z</time>
      </trkpt>
      <trkpt lat="43.19627" lon="-1.33307">
        <ele>145.3</ele>
        <time>2021-08-20T18:10:26Z</time>
      </trkpt>
      <trkpt lat="43.19628" lon="-1.33311">
        <ele>145.3</ele>
        <time>2021-08-20T18:10:27Z</time>
      </trkpt>
      <trkpt lat="43.19631" lon="-1.33314">
        <ele>145.3</ele>
        <time>2021-08-20T18:10:28Z</time>
      </trkpt>
      <trkpt lat="43.19633" lon="-1.33317">
        <ele>145.3</ele>
        <time>2021-08-20T18:10:29Z</time>
      </trkpt>
      <trkpt lat="43.19636" lon="-1.33318">
        <ele>145.78</ele>
        <time>2021-08-20T18:10:30Z</time>
      </trkpt>
      <trkpt lat="43.19639" lon="-1.33319">
        <ele>145.78</ele>
        <time>2021-08-20T18:10:31Z</time>
      </trkpt>
      <trkpt lat="43.19642" lon="-1.33319">
        <ele>146.74</ele>
        <time>2021-08-20T18:10:32Z</time>
      </trkpt>
      <trkpt lat="43.19644" lon="-1.33319">
        <ele>146.74</ele>
        <time>2021-08-20T18:10:33Z</time>
      </trkpt>
      <trkpt lat="43.19659" lon="-1.3332">
        <ele>148.66</ele>
        <time>2021-08-20T18:10:40Z</time>
      </trkpt>
      <trkpt lat="43.1967" lon="-1.33322">
        <ele>148.18</ele>
        <time>2021-08-20T18:10:44Z</time>
      </trkpt>
      <trkpt lat="43.19673" lon="-1.33321">
        <ele>148.66</ele>
        <time>2021-08-20T18:10:45Z</time>
      </trkpt>
      <trkpt lat="43.19677" lon="-1.3332">
        <ele>148.66</ele>
        <time>2021-08-20T18:10:46Z</time>
      </trkpt>
      <trkpt lat="43.19681" lon="-1.33319">
        <ele>148.66</ele>
        <time>2021-08-20T18:10:47Z</time>
      </trkpt>
      <trkpt lat="43.19686" lon="-1.33318">
        <ele>148.66</ele>
        <time>2021-08-20T18:10:48Z</time>
      </trkpt>
      <trkpt lat="43.1969" lon="-1.33319">
        <ele>148.66</ele>
        <time>2021-08-20T18:10:49Z</time>
      </trkpt>
      <trkpt lat="43.19695" lon="-1.3332">
        <ele>148.18</ele>
        <time>2021-08-20T18:10:50Z</time>
      </trkpt>
      <trkpt lat="43.19701" lon="-1.33322">
        <ele>146.26</ele>
        <time>2021-08-20T18:10:51Z</time>
      </trkpt>
      <trkpt lat="43.19706" lon="-1.33324">
        <ele>146.26</ele>
        <time>2021-08-20T18:10:52Z</time>
      </trkpt>
      <trkpt lat="43.19724" lon="-1.33333">
        <ele>144.82</ele>
        <time>2021-08-20T18:10:55Z</time>
      </trkpt>
      <trkpt lat="43.19778" lon="-1.33356">
        <ele>142.41</ele>
        <time>2021-08-20T18:11:03Z</time>
      </trkpt>
      <trkpt lat="43.19822" lon="-1.33374">
        <ele>141.93</ele>
        <time>2021-08-20T18:11:10Z</time>
      </trkpt>
      <trkpt lat="43.19856" lon="-1.33384">
        <ele>141.93</ele>
        <time>2021-08-20T18:11:17Z</time>
      </trkpt>
      <trkpt lat="43.19865" lon="-1.33386">
        <ele>143.37</ele>
        <time>2021-08-20T18:11:19Z</time>
      </trkpt>
      <trkpt lat="43.19869" lon="-1.33388">
        <ele>143.37</ele>
        <time>2021-08-20T18:11:20Z</time>
      </trkpt>
      <trkpt lat="43.19873" lon="-1.33388">
        <ele>143.37</ele>
        <time>2021-08-20T18:11:21Z</time>
      </trkpt>
      <trkpt lat="43.19877" lon="-1.33388">
        <ele>143.37</ele>
        <time>2021-08-20T18:11:22Z</time>
      </trkpt>
      <trkpt lat="43.19881" lon="-1.33388">
        <ele>143.37</ele>
        <time>2021-08-20T18:11:23Z</time>
      </trkpt>
      <trkpt lat="43.19896" lon="-1.33384">
        <ele>143.85</ele>
        <time>2021-08-20T18:11:27Z</time>
      </trkpt>
      <trkpt lat="43.19926" lon="-1.33371">
        <ele>142.41</ele>
        <time>2021-08-20T18:11:33Z</time>
      </trkpt>
      <trkpt lat="43.19931" lon="-1.33368">
        <ele>142.41</ele>
        <time>2021-08-20T18:11:34Z</time>
      </trkpt>
      <trkpt lat="43.19972" lon="-1.33348">
        <ele>141.45</ele>
        <time>2021-08-20T18:11:42Z</time>
      </trkpt>
      <trkpt lat="43.19981" lon="-1.33344">
        <ele>141.45</ele>
        <time>2021-08-20T18:11:44Z</time>
      </trkpt>
      <trkpt lat="43.19986" lon="-1.33344">
        <ele>141.45</ele>
        <time>2021-08-20T18:11:45Z</time>
      </trkpt>
      <trkpt lat="43.1999" lon="-1.33344">
        <ele>141.45</ele>
        <time>2021-08-20T18:11:46Z</time>
      </trkpt>
      <trkpt lat="43.20004" lon="-1.33349">
        <ele>141.45</ele>
        <time>2021-08-20T18:11:50Z</time>
      </trkpt>
      <trkpt lat="43.20023" lon="-1.33359">
        <ele>142.89</ele>
        <time>2021-08-20T18:11:57Z</time>
      </trkpt>
      <trkpt lat="43.20048" lon="-1.33374">
        <ele>143.37</ele>
        <time>2021-08-20T18:12:06Z</time>
      </trkpt>
      <trkpt lat="43.20069" lon="-1.33386">
        <ele>144.34</ele>
        <time>2021-08-20T18:12:14Z</time>
      </trkpt>
      <trkpt lat="43.20093" lon="-1.33395">
        <ele>144.82</ele>
        <time>2021-08-20T18:12:23Z</time>
      </trkpt>
      <trkpt lat="43.20123" lon="-1.33396">
        <ele>144.82</ele>
        <time>2021-08-20T18:12:31Z</time>
      </trkpt>
      <trkpt lat="43.20163" lon="-1.33393">
        <ele>144.82</ele>
        <time>2021-08-20T18:12:40Z</time>
      </trkpt>
      <trkpt lat="43.20186" lon="-1.33391">
        <ele>144.82</ele>
        <time>2021-08-20T18:12:46Z</time>
      </trkpt>
      <trkpt lat="43.20226" lon="-1.33376">
        <ele>144.82</ele>
        <time>2021-08-20T18:12:56Z</time>
      </trkpt>
      <trkpt lat="43.20253" lon="-1.33356">
        <ele>146.74</ele>
        <time>2021-08-20T18:13:05Z</time>
      </trkpt>
      <trkpt lat="43.20269" lon="-1.33345">
        <ele>148.18</ele>
        <time>2021-08-20T18:13:13Z</time>
      </trkpt>
      <trkpt lat="43.20277" lon="-1.33339">
        <ele>149.62</ele>
        <time>2021-08-20T18:13:18Z</time>
      </trkpt>
      <trkpt lat="43.20279" lon="-1.33338">
        <ele>149.62</ele>
        <time>2021-08-20T18:13:19Z</time>
      </trkpt>
      <trkpt lat="43.20289" lon="-1.33331">
        <ele>150.58</ele>
        <time>2021-08-20T18:13:26Z</time>
      </trkpt>
      <trkpt lat="43.2029" lon="-1.3333">
        <ele>150.58</ele>
        <time>2021-08-20T18:13:27Z</time>
      </trkpt>
      <trkpt lat="43.20292" lon="-1.33329">
        <ele>151.06</ele>
        <time>2021-08-20T18:13:28Z</time>
      </trkpt>
      <trkpt lat="43.20293" lon="-1.33328">
        <ele>151.06</ele>
        <time>2021-08-20T18:13:29Z</time>
      </trkpt>
      <trkpt lat="43.20294" lon="-1.33326">
        <ele>151.06</ele>
        <time>2021-08-20T18:13:30Z</time>
      </trkpt>
      <trkpt lat="43.20295" lon="-1.33325">
        <ele>152.03</ele>
        <time>2021-08-20T18:13:31Z</time>
      </trkpt>
      <trkpt lat="43.20296" lon="-1.33323">
        <ele>151.54</ele>
        <time>2021-08-20T18:13:32Z</time>
      </trkpt>
      <trkpt lat="43.20297" lon="-1.33322">
        <ele>151.54</ele>
        <time>2021-08-20T18:13:33Z</time>
      </trkpt>
      <trkpt lat="43.20298" lon="-1.33321">
        <ele>151.54</ele>
        <time>2021-08-20T18:13:34Z</time>
      </trkpt>
      <trkpt lat="43.20299" lon="-1.33319">
        <ele>152.03</ele>
        <time>2021-08-20T18:13:35Z</time>
      </trkpt>
      <trkpt lat="43.203" lon="-1.33317">
        <ele>152.03</ele>
        <time>2021-08-20T18:13:36Z</time>
      </trkpt>
      <trkpt lat="43.20301" lon="-1.33315">
        <ele>152.03</ele>
        <time>2021-08-20T18:13:37Z</time>
      </trkpt>
      <trkpt lat="43.20302" lon="-1.33314">
        <ele>152.99</ele>
        <time>2021-08-20T18:13:38Z</time>
      </trkpt>
      <trkpt lat="43.20303" lon="-1.33312">
        <ele>152.99</ele>
        <time>2021-08-20T18:13:39Z</time>
      </trkpt>
      <trkpt lat="43.20304" lon="-1.33311">
        <ele>152.99</ele>
        <time>2021-08-20T18:13:40Z</time>
      </trkpt>
      <trkpt lat="43.20305" lon="-1.33309">
        <ele>153.47</ele>
        <time>2021-08-20T18:13:41Z</time>
      </trkpt>
      <trkpt lat="43.20305" lon="-1.33307">
        <ele>153.47</ele>
        <time>2021-08-20T18:13:42Z</time>
      </trkpt>
      <trkpt lat="43.20306" lon="-1.33306">
        <ele>153.47</ele>
        <time>2021-08-20T18:13:43Z</time>
      </trkpt>
      <trkpt lat="43.20307" lon="-1.33304">
        <ele>153.95</ele>
        <time>2021-08-20T18:13:44Z</time>
      </trkpt>
      <trkpt lat="43.20311" lon="-1.33298">
        <ele>153.95</ele>
        <time>2021-08-20T18:13:48Z</time>
      </trkpt>
      <trkpt lat="43.20313" lon="-1.33293">
        <ele>154.43</ele>
        <time>2021-08-20T18:13:51Z</time>
      </trkpt>
      <trkpt lat="43.20313" lon="-1.33291">
        <ele>154.91</ele>
        <time>2021-08-20T18:13:52Z</time>
      </trkpt>
      <trkpt lat="43.20314" lon="-1.3329">
        <ele>154.91</ele>
        <time>2021-08-20T18:13:53Z</time>
      </trkpt>
      <trkpt lat="43.20315" lon="-1.33288">
        <ele>154.91</ele>
        <time>2021-08-20T18:13:54Z</time>
      </trkpt>
      <trkpt lat="43.20316" lon="-1.33286">
        <ele>154.91</ele>
        <time>2021-08-20T18:13:55Z</time>
      </trkpt>
      <trkpt lat="43.20317" lon="-1.33284">
        <ele>155.87</ele>
        <time>2021-08-20T18:13:56Z</time>
      </trkpt>
      <trkpt lat="43.20318" lon="-1.33283">
        <ele>155.39</ele>
        <time>2021-08-20T18:13:57Z</time>
      </trkpt>
      <trkpt lat="43.20319" lon="-1.33282">
        <ele>155.39</ele>
        <time>2021-08-20T18:13:58Z</time>
      </trkpt>
      <trkpt lat="43.20321" lon="-1.3328">
        <ele>155.87</ele>
        <time>2021-08-20T18:13:59Z</time>
      </trkpt>
      <trkpt lat="43.20322" lon="-1.33279">
        <ele>155.87</ele>
        <time>2021-08-20T18:14:00Z</time>
      </trkpt>
      <trkpt lat="43.20323" lon="-1.33277">
        <ele>156.35</ele>
        <time>2021-08-20T18:14:01Z</time>
      </trkpt>
      <trkpt lat="43.20323" lon="-1.33275">
        <ele>156.35</ele>
        <time>2021-08-20T18:14:02Z</time>
      </trkpt>
      <trkpt lat="43.20325" lon="-1.33274">
        <ele>156.35</ele>
        <time>2021-08-20T18:14:03Z</time>
      </trkpt>
      <trkpt lat="43.20326" lon="-1.33273">
        <ele>156.35</ele>
        <time>2021-08-20T18:14:04Z</time>
      </trkpt>
      <trkpt lat="43.20327" lon="-1.33271">
        <ele>156.83</ele>
        <time>2021-08-20T18:14:05Z</time>
      </trkpt>
      <trkpt lat="43.20334" lon="-1.33265">
        <ele>156.83</ele>
        <time>2021-08-20T18:14:10Z</time>
      </trkpt>
      <trkpt lat="43.20338" lon="-1.33263">
        <ele>157.79</ele>
        <time>2021-08-20T18:14:13Z</time>
      </trkpt>
      <trkpt lat="43.20339" lon="-1.33262">
        <ele>157.79</ele>
        <time>2021-08-20T18:14:14Z</time>
      </trkpt>
      <trkpt lat="43.2034" lon="-1.33261">
        <ele>157.79</ele>
        <time>2021-08-20T18:14:15Z</time>
      </trkpt>
      <trkpt lat="43.20342" lon="-1.3326">
        <ele>158.27</ele>
        <time>2021-08-20T18:14:16Z</time>
      </trkpt>
      <trkpt lat="43.20343" lon="-1.33259">
        <ele>158.27</ele>
        <time>2021-08-20T18:14:17Z</time>
      </trkpt>
      <trkpt lat="43.20345" lon="-1.33258">
        <ele>158.27</ele>
        <time>2021-08-20T18:14:18Z</time>
      </trkpt>
      <trkpt lat="43.20346" lon="-1.33258">
        <ele>158.27</ele>
        <time>2021-08-20T18:14:19Z</time>
      </trkpt>
      <trkpt lat="43.20348" lon="-1.33257">
        <ele>158.75</ele>
        <time>2021-08-20T18:14:20Z</time>
      </trkpt>
      <trkpt lat="43.20359" lon="-1.33255">
        <ele>159.72</ele>
        <time>2021-08-20T18:14:27Z</time>
      </trkpt>
      <trkpt lat="43.20373" lon="-1.33257">
        <ele>160.68</ele>
        <time>2021-08-20T18:14:36Z</time>
      </trkpt>
      <trkpt lat="43.20384" lon="-1.33265">
        <ele>161.64</ele>
        <time>2021-08-20T18:14:44Z</time>
      </trkpt>
      <trkpt lat="43.20392" lon="-1.33279">
        <ele>162.6</ele>
        <time>2021-08-20T18:14:52Z</time>
      </trkpt>
      <trkpt lat="43.20398" lon="-1.33299">
        <ele>163.56</ele>
        <time>2021-08-20T18:15:01Z</time>
      </trkpt>
      <trkpt lat="43.20401" lon="-1.33317">
        <ele>165</ele>
        <time>2021-08-20T18:15:09Z</time>
      </trkpt>
      <trkpt lat="43.20405" lon="-1.33334">
        <ele>165.96</ele>
        <time>2021-08-20T18:15:16Z</time>
      </trkpt>
      <trkpt lat="43.20411" lon="-1.33359">
        <ele>166.45</ele>
        <time>2021-08-20T18:15:26Z</time>
      </trkpt>
      <trkpt lat="43.20419" lon="-1.33388">
        <ele>166.45</ele>
        <time>2021-08-20T18:15:36Z</time>
      </trkpt>
      <trkpt lat="43.20425" lon="-1.33406">
        <ele>166.45</ele>
        <time>2021-08-20T18:15:43Z</time>
      </trkpt>
      <trkpt lat="43.20437" lon="-1.33432">
        <ele>166.45</ele>
        <time>2021-08-20T18:15:52Z</time>
      </trkpt>
      <trkpt lat="43.20454" lon="-1.33455">
        <ele>165</ele>
        <time>2021-08-20T18:16:00Z</time>
      </trkpt>
      <trkpt lat="43.20457" lon="-1.33458">
        <ele>165</ele>
        <time>2021-08-20T18:16:01Z</time>
      </trkpt>
      <trkpt lat="43.20485" lon="-1.33492">
        <ele>163.08</ele>
        <time>2021-08-20T18:16:09Z</time>
      </trkpt>
      <trkpt lat="43.2052" lon="-1.33536">
        <ele>161.64</ele>
        <time>2021-08-20T18:16:18Z</time>
      </trkpt>
      <trkpt lat="43.2055" lon="-1.33579">
        <ele>160.2</ele>
        <time>2021-08-20T18:16:26Z</time>
      </trkpt>
      <trkpt lat="43.2056" lon="-1.33599">
        <ele>158.75</ele>
        <time>2021-08-20T18:16:29Z</time>
      </trkpt>
      <trkpt lat="43.20562" lon="-1.33607">
        <ele>157.79</ele>
        <time>2021-08-20T18:16:30Z</time>
      </trkpt>
      <trkpt lat="43.20571" lon="-1.33645">
        <ele>154.43</ele>
        <time>2021-08-20T18:16:34Z</time>
      </trkpt>
      <trkpt lat="43.20575" lon="-1.33651">
        <ele>153.95</ele>
        <time>2021-08-20T18:16:35Z</time>
      </trkpt>
      <trkpt lat="43.20582" lon="-1.33657">
        <ele>152.51</ele>
        <time>2021-08-20T18:16:36Z</time>
      </trkpt>
      <trkpt lat="43.20588" lon="-1.33661">
        <ele>152.03</ele>
        <time>2021-08-20T18:16:37Z</time>
      </trkpt>
      <trkpt lat="43.20595" lon="-1.33665">
        <ele>151.54</ele>
        <time>2021-08-20T18:16:38Z</time>
      </trkpt>
      <trkpt lat="43.20602" lon="-1.33667">
        <ele>151.06</ele>
        <time>2021-08-20T18:16:39Z</time>
      </trkpt>
      <trkpt lat="43.20612" lon="-1.33667">
        <ele>151.06</ele>
        <time>2021-08-20T18:16:40Z</time>
      </trkpt>
      <trkpt lat="43.20619" lon="-1.33667">
        <ele>151.06</ele>
        <time>2021-08-20T18:16:41Z</time>
      </trkpt>
      <trkpt lat="43.20625" lon="-1.33666">
        <ele>151.06</ele>
        <time>2021-08-20T18:16:42Z</time>
      </trkpt>
      <trkpt lat="43.20632" lon="-1.33664">
        <ele>152.51</ele>
        <time>2021-08-20T18:16:43Z</time>
      </trkpt>
      <trkpt lat="43.20636" lon="-1.33661">
        <ele>152.99</ele>
        <time>2021-08-20T18:16:44Z</time>
      </trkpt>
      <trkpt lat="43.20639" lon="-1.33659">
        <ele>153.95</ele>
        <time>2021-08-20T18:16:45Z</time>
      </trkpt>
      <trkpt lat="43.20641" lon="-1.33656">
        <ele>154.43</ele>
        <time>2021-08-20T18:16:46Z</time>
      </trkpt>
      <trkpt lat="43.20643" lon="-1.33654">
        <ele>154.91</ele>
        <time>2021-08-20T18:16:47Z</time>
      </trkpt>
      <trkpt lat="43.20644" lon="-1.33652">
        <ele>154.91</ele>
        <time>2021-08-20T18:16:48Z</time>
      </trkpt>
      <trkpt lat="43.20653" lon="-1.33645">
        <ele>156.83</ele>
        <time>2021-08-20T18:16:54Z</time>
      </trkpt>
      <trkpt lat="43.20655" lon="-1.33645">
        <ele>157.31</ele>
        <time>2021-08-20T18:16:55Z</time>
      </trkpt>
      <trkpt lat="43.20665" lon="-1.33648">
        <ele>158.75</ele>
        <time>2021-08-20T18:17:02Z</time>
      </trkpt>
      <trkpt lat="43.20675" lon="-1.33664">
        <ele>159.72</ele>
        <time>2021-08-20T18:17:11Z</time>
      </trkpt>
      <trkpt lat="43.20686" lon="-1.33681">
        <ele>160.2</ele>
        <time>2021-08-20T18:17:19Z</time>
      </trkpt>
      <trkpt lat="43.20702" lon="-1.33706">
        <ele>160.68</ele>
        <time>2021-08-20T18:17:28Z</time>
      </trkpt>
      <trkpt lat="43.20717" lon="-1.33721">
        <ele>160.68</ele>
        <time>2021-08-20T18:17:35Z</time>
      </trkpt>
      <trkpt lat="43.20735" lon="-1.33731">
        <ele>161.16</ele>
        <time>2021-08-20T18:17:42Z</time>
      </trkpt>
      <trkpt lat="43.20761" lon="-1.33744">
        <ele>161.16</ele>
        <time>2021-08-20T18:17:49Z</time>
      </trkpt>
      <trkpt lat="43.20769" lon="-1.33754">
        <ele>161.16</ele>
        <time>2021-08-20T18:17:51Z</time>
      </trkpt>
      <trkpt lat="43.20771" lon="-1.33758">
        <ele>160.2</ele>
        <time>2021-08-20T18:17:52Z</time>
      </trkpt>
      <trkpt lat="43.20773" lon="-1.33764">
        <ele>160.2</ele>
        <time>2021-08-20T18:17:53Z</time>
      </trkpt>
      <trkpt lat="43.20774" lon="-1.3377">
        <ele>160.2</ele>
        <time>2021-08-20T18:17:54Z</time>
      </trkpt>
      <trkpt lat="43.20775" lon="-1.33777">
        <ele>160.2</ele>
        <time>2021-08-20T18:17:55Z</time>
      </trkpt>
      <trkpt lat="43.20775" lon="-1.33814">
        <ele>160.2</ele>
        <time>2021-08-20T18:18:02Z</time>
      </trkpt>
      <trkpt lat="43.20781" lon="-1.33854">
        <ele>161.16</ele>
        <time>2021-08-20T18:18:10Z</time>
      </trkpt>
      <trkpt lat="43.20799" lon="-1.3388">
        <ele>161.64</ele>
        <time>2021-08-20T18:18:17Z</time>
      </trkpt>
      <trkpt lat="43.2082" lon="-1.33903">
        <ele>162.6</ele>
        <time>2021-08-20T18:18:25Z</time>
      </trkpt>
      <trkpt lat="43.20835" lon="-1.33934">
        <ele>163.56</ele>
        <time>2021-08-20T18:18:34Z</time>
      </trkpt>
      <trkpt lat="43.20836" lon="-1.33965">
        <ele>164.04</ele>
        <time>2021-08-20T18:18:42Z</time>
      </trkpt>
      <trkpt lat="43.20844" lon="-1.33983">
        <ele>165</ele>
        <time>2021-08-20T18:18:48Z</time>
      </trkpt>
      <trkpt lat="43.20846" lon="-1.33985">
        <ele>165</ele>
        <time>2021-08-20T18:18:49Z</time>
      </trkpt>
      <trkpt lat="43.20848" lon="-1.33986">
        <ele>165.48</ele>
        <time>2021-08-20T18:18:50Z</time>
      </trkpt>
      <trkpt lat="43.20851" lon="-1.33987">
        <ele>165.48</ele>
        <time>2021-08-20T18:18:51Z</time>
      </trkpt>
      <trkpt lat="43.20853" lon="-1.33987">
        <ele>165.48</ele>
        <time>2021-08-20T18:18:52Z</time>
      </trkpt>
      <trkpt lat="43.20856" lon="-1.33987">
        <ele>165.48</ele>
        <time>2021-08-20T18:18:53Z</time>
      </trkpt>
      <trkpt lat="43.20858" lon="-1.33985">
        <ele>165.48</ele>
        <time>2021-08-20T18:18:54Z</time>
      </trkpt>
      <trkpt lat="43.20859" lon="-1.33983">
        <ele>165.48</ele>
        <time>2021-08-20T18:18:55Z</time>
      </trkpt>
      <trkpt lat="43.2086" lon="-1.33981">
        <ele>165.48</ele>
        <time>2021-08-20T18:18:56Z</time>
      </trkpt>
      <trkpt lat="43.20861" lon="-1.33978">
        <ele>165.96</ele>
        <time>2021-08-20T18:18:57Z</time>
      </trkpt>
      <trkpt lat="43.20867" lon="-1.33964">
        <ele>166.93</ele>
        <time>2021-08-20T18:19:03Z</time>
      </trkpt>
      <trkpt lat="43.20867" lon="-1.33962">
        <ele>166.93</ele>
        <time>2021-08-20T18:19:04Z</time>
      </trkpt>
      <trkpt lat="43.20868" lon="-1.3396">
        <ele>167.41</ele>
        <time>2021-08-20T18:19:05Z</time>
      </trkpt>
      <trkpt lat="43.20869" lon="-1.33958">
        <ele>167.41</ele>
        <time>2021-08-20T18:19:06Z</time>
      </trkpt>
      <trkpt lat="43.2087" lon="-1.33956">
        <ele>167.89</ele>
        <time>2021-08-20T18:19:07Z</time>
      </trkpt>
      <trkpt lat="43.2088" lon="-1.33942">
        <ele>168.85</ele>
        <time>2021-08-20T18:19:15Z</time>
      </trkpt>
      <trkpt lat="43.20889" lon="-1.33929">
        <ele>170.29</ele>
        <time>2021-08-20T18:19:23Z</time>
      </trkpt>
      <trkpt lat="43.20904" lon="-1.33905">
        <ele>172.21</ele>
        <time>2021-08-20T18:19:35Z</time>
      </trkpt>
      <trkpt lat="43.20905" lon="-1.33904">
        <ele>172.69</ele>
        <time>2021-08-20T18:19:36Z</time>
      </trkpt>
      <trkpt lat="43.20911" lon="-1.33883">
        <ele>173.66</ele>
        <time>2021-08-20T18:19:45Z</time>
      </trkpt>
      <trkpt lat="43.2091" lon="-1.33863">
        <ele>175.1</ele>
        <time>2021-08-20T18:19:53Z</time>
      </trkpt>
      <trkpt lat="43.20906" lon="-1.33837">
        <ele>176.54</ele>
        <time>2021-08-20T18:20:04Z</time>
      </trkpt>
      <trkpt lat="43.20913" lon="-1.33813">
        <ele>177.98</ele>
        <time>2021-08-20T18:20:14Z</time>
      </trkpt>
      <trkpt lat="43.20927" lon="-1.33811">
        <ele>177.98</ele>
        <time>2021-08-20T18:20:21Z</time>
      </trkpt>
      <trkpt lat="43.2094" lon="-1.33822">
        <ele>178.94</ele>
        <time>2021-08-20T18:20:29Z</time>
      </trkpt>
      <trkpt lat="43.20969" lon="-1.33828">
        <ele>179.9</ele>
        <time>2021-08-20T18:20:41Z</time>
      </trkpt>
      <trkpt lat="43.20988" lon="-1.33824">
        <ele>181.83</ele>
        <time>2021-08-20T18:20:50Z</time>
      </trkpt>
      <trkpt lat="43.21007" lon="-1.33814">
        <ele>183.75</ele>
        <time>2021-08-20T18:21:00Z</time>
      </trkpt>
      <trkpt lat="43.2102" lon="-1.33815">
        <ele>185.19</ele>
        <time>2021-08-20T18:21:09Z</time>
      </trkpt>
      <trkpt lat="43.21032" lon="-1.33818">
        <ele>187.11</ele>
        <time>2021-08-20T18:21:18Z</time>
      </trkpt>
      <trkpt lat="43.21038" lon="-1.33825">
        <ele>187.59</ele>
        <time>2021-08-20T18:21:23Z</time>
      </trkpt>
      <trkpt lat="43.21053" lon="-1.33833">
        <ele>188.08</ele>
        <time>2021-08-20T18:21:30Z</time>
      </trkpt>
      <trkpt lat="43.21055" lon="-1.33835">
        <ele>188.08</ele>
        <time>2021-08-20T18:21:31Z</time>
      </trkpt>
      <trkpt lat="43.21071" lon="-1.33862">
        <ele>188.56</ele>
        <time>2021-08-20T18:21:41Z</time>
      </trkpt>
      <trkpt lat="43.21086" lon="-1.33874">
        <ele>187.11</ele>
        <time>2021-08-20T18:21:46Z</time>
      </trkpt>
      <trkpt lat="43.2109" lon="-1.33876">
        <ele>186.63</ele>
        <time>2021-08-20T18:21:47Z</time>
      </trkpt>
      <trkpt lat="43.21095" lon="-1.33877">
        <ele>186.63</ele>
        <time>2021-08-20T18:21:48Z</time>
      </trkpt>
      <trkpt lat="43.211" lon="-1.33878">
        <ele>186.15</ele>
        <time>2021-08-20T18:21:49Z</time>
      </trkpt>
      <trkpt lat="43.21105" lon="-1.33878">
        <ele>185.67</ele>
        <time>2021-08-20T18:21:50Z</time>
      </trkpt>
      <trkpt lat="43.21111" lon="-1.33877">
        <ele>184.71</ele>
        <time>2021-08-20T18:21:51Z</time>
      </trkpt>
      <trkpt lat="43.21117" lon="-1.33876">
        <ele>184.23</ele>
        <time>2021-08-20T18:21:52Z</time>
      </trkpt>
      <trkpt lat="43.21123" lon="-1.33874">
        <ele>183.27</ele>
        <time>2021-08-20T18:21:53Z</time>
      </trkpt>
      <trkpt lat="43.21153" lon="-1.33866">
        <ele>180.87</ele>
        <time>2021-08-20T18:21:58Z</time>
      </trkpt>
      <trkpt lat="43.2116" lon="-1.33865">
        <ele>180.38</ele>
        <time>2021-08-20T18:21:59Z</time>
      </trkpt>
      <trkpt lat="43.21186" lon="-1.33867">
        <ele>177.98</ele>
        <time>2021-08-20T18:22:03Z</time>
      </trkpt>
      <trkpt lat="43.21193" lon="-1.33869">
        <ele>176.54</ele>
        <time>2021-08-20T18:22:04Z</time>
      </trkpt>
      <trkpt lat="43.21199" lon="-1.33872">
        <ele>176.06</ele>
        <time>2021-08-20T18:22:05Z</time>
      </trkpt>
      <trkpt lat="43.21204" lon="-1.33875">
        <ele>176.06</ele>
        <time>2021-08-20T18:22:06Z</time>
      </trkpt>
      <trkpt lat="43.21211" lon="-1.3388">
        <ele>175.58</ele>
        <time>2021-08-20T18:22:07Z</time>
      </trkpt>
      <trkpt lat="43.21218" lon="-1.33885">
        <ele>174.62</ele>
        <time>2021-08-20T18:22:08Z</time>
      </trkpt>
      <trkpt lat="43.21224" lon="-1.33891">
        <ele>174.62</ele>
        <time>2021-08-20T18:22:09Z</time>
      </trkpt>
      <trkpt lat="43.21264" lon="-1.33925">
        <ele>172.21</ele>
        <time>2021-08-20T18:22:16Z</time>
      </trkpt>
      <trkpt lat="43.2127" lon="-1.33926">
        <ele>172.21</ele>
        <time>2021-08-20T18:22:17Z</time>
      </trkpt>
      <trkpt lat="43.21276" lon="-1.33925">
        <ele>171.25</ele>
        <time>2021-08-20T18:22:18Z</time>
      </trkpt>
      <trkpt lat="43.21284" lon="-1.33922">
        <ele>170.29</ele>
        <time>2021-08-20T18:22:19Z</time>
      </trkpt>
      <trkpt lat="43.2129" lon="-1.33918">
        <ele>169.33</ele>
        <time>2021-08-20T18:22:20Z</time>
      </trkpt>
      <trkpt lat="43.21297" lon="-1.33915">
        <ele>168.85</ele>
        <time>2021-08-20T18:22:21Z</time>
      </trkpt>
      <trkpt lat="43.21313" lon="-1.33903">
        <ele>168.85</ele>
        <time>2021-08-20T18:22:24Z</time>
      </trkpt>
      <trkpt lat="43.21317" lon="-1.339">
        <ele>170.77</ele>
        <time>2021-08-20T18:22:25Z</time>
      </trkpt>
      <trkpt lat="43.21322" lon="-1.33899">
        <ele>171.25</ele>
        <time>2021-08-20T18:22:26Z</time>
      </trkpt>
      <trkpt lat="43.21335" lon="-1.33897">
        <ele>173.17</ele>
        <time>2021-08-20T18:22:31Z</time>
      </trkpt>
      <trkpt lat="43.21352" lon="-1.33906">
        <ele>176.06</ele>
        <time>2021-08-20T18:22:40Z</time>
      </trkpt>
      <trkpt lat="43.21366" lon="-1.33921">
        <ele>177.5</ele>
        <time>2021-08-20T18:22:48Z</time>
      </trkpt>
      <trkpt lat="43.21381" lon="-1.33939">
        <ele>177.5</ele>
        <time>2021-08-20T18:22:54Z</time>
      </trkpt>
      <trkpt lat="43.21398" lon="-1.33951">
        <ele>177.5</ele>
        <time>2021-08-20T18:23:01Z</time>
      </trkpt>
      <trkpt lat="43.21419" lon="-1.33956">
        <ele>177.5</ele>
        <time>2021-08-20T18:23:08Z</time>
      </trkpt>
      <trkpt lat="43.21443" lon="-1.33961">
        <ele>177.5</ele>
        <time>2021-08-20T18:23:16Z</time>
      </trkpt>
      <trkpt lat="43.21462" lon="-1.33974">
        <ele>177.98</ele>
        <time>2021-08-20T18:23:24Z</time>
      </trkpt>
      <trkpt lat="43.21479" lon="-1.33991">
        <ele>178.46</ele>
        <time>2021-08-20T18:23:31Z</time>
      </trkpt>
      <trkpt lat="43.21494" lon="-1.34008">
        <ele>178.94</ele>
        <time>2021-08-20T18:23:38Z</time>
      </trkpt>
      <trkpt lat="43.21501" lon="-1.34013">
        <ele>179.9</ele>
        <time>2021-08-20T18:23:43Z</time>
      </trkpt>
      <trkpt lat="43.21502" lon="-1.34014">
        <ele>180.38</ele>
        <time>2021-08-20T18:23:44Z</time>
      </trkpt>
      <trkpt lat="43.21503" lon="-1.34015">
        <ele>180.38</ele>
        <time>2021-08-20T18:23:45Z</time>
      </trkpt>
      <trkpt lat="43.21504" lon="-1.34016">
        <ele>180.87</ele>
        <time>2021-08-20T18:23:46Z</time>
      </trkpt>
      <trkpt lat="43.21505" lon="-1.34018">
        <ele>181.35</ele>
        <time>2021-08-20T18:23:47Z</time>
      </trkpt>
      <trkpt lat="43.21507" lon="-1.34019">
        <ele>181.35</ele>
        <time>2021-08-20T18:23:48Z</time>
      </trkpt>
      <trkpt lat="43.21517" lon="-1.34026">
        <ele>183.27</ele>
        <time>2021-08-20T18:23:55Z</time>
      </trkpt>
      <trkpt lat="43.21529" lon="-1.34031">
        <ele>184.71</ele>
        <time>2021-08-20T18:24:02Z</time>
      </trkpt>
      <trkpt lat="43.2154" lon="-1.34037">
        <ele>185.19</ele>
        <time>2021-08-20T18:24:08Z</time>
      </trkpt>
      <trkpt lat="43.21558" lon="-1.34047">
        <ele>185.67</ele>
        <time>2021-08-20T18:24:15Z</time>
      </trkpt>
      <trkpt lat="43.21579" lon="-1.34057">
        <ele>184.23</ele>
        <time>2021-08-20T18:24:20Z</time>
      </trkpt>
      <trkpt lat="43.21584" lon="-1.34059">
        <ele>184.23</ele>
        <time>2021-08-20T18:24:21Z</time>
      </trkpt>
      <trkpt lat="43.21609" lon="-1.34072">
        <ele>185.67</ele>
        <time>2021-08-20T18:24:28Z</time>
      </trkpt>
      <trkpt lat="43.21624" lon="-1.34083">
        <ele>186.15</ele>
        <time>2021-08-20T18:24:35Z</time>
      </trkpt>
      <trkpt lat="43.21644" lon="-1.34098">
        <ele>187.59</ele>
        <time>2021-08-20T18:24:44Z</time>
      </trkpt>
      <trkpt lat="43.21661" lon="-1.34114">
        <ele>189.04</ele>
        <time>2021-08-20T18:24:53Z</time>
      </trkpt>
      <trkpt lat="43.21681" lon="-1.34126">
        <ele>189.52</ele>
        <time>2021-08-20T18:25:00Z</time>
      </trkpt>
      <trkpt lat="43.21701" lon="-1.3413">
        <ele>190.48</ele>
        <time>2021-08-20T18:25:08Z</time>
      </trkpt>
      <trkpt lat="43.21722" lon="-1.34131">
        <ele>190.96</ele>
        <time>2021-08-20T18:25:16Z</time>
      </trkpt>
      <trkpt lat="43.21748" lon="-1.3414">
        <ele>191.44</ele>
        <time>2021-08-20T18:25:24Z</time>
      </trkpt>
      <trkpt lat="43.21759" lon="-1.34152">
        <ele>191.44</ele>
        <time>2021-08-20T18:25:28Z</time>
      </trkpt>
      <trkpt lat="43.21765" lon="-1.34162">
        <ele>190.48</ele>
        <time>2021-08-20T18:25:30Z</time>
      </trkpt>
      <trkpt lat="43.21789" lon="-1.34198">
        <ele>188.56</ele>
        <time>2021-08-20T18:25:36Z</time>
      </trkpt>
      <trkpt lat="43.21793" lon="-1.34202">
        <ele>188.56</ele>
        <time>2021-08-20T18:25:37Z</time>
      </trkpt>
      <trkpt lat="43.21797" lon="-1.34205">
        <ele>190</ele>
        <time>2021-08-20T18:25:38Z</time>
      </trkpt>
      <trkpt lat="43.21816" lon="-1.34212">
        <ele>190.96</ele>
        <time>2021-08-20T18:25:44Z</time>
      </trkpt>
      <trkpt lat="43.21844" lon="-1.34222">
        <ele>191.92</ele>
        <time>2021-08-20T18:25:53Z</time>
      </trkpt>
      <trkpt lat="43.21873" lon="-1.34239">
        <ele>193.36</ele>
        <time>2021-08-20T18:26:03Z</time>
      </trkpt>
      <trkpt lat="43.21902" lon="-1.34253">
        <ele>194.32</ele>
        <time>2021-08-20T18:26:13Z</time>
      </trkpt>
      <trkpt lat="43.21916" lon="-1.34259">
        <ele>195.28</ele>
        <time>2021-08-20T18:26:19Z</time>
      </trkpt>
      <trkpt lat="43.21927" lon="-1.34265">
        <ele>196.25</ele>
        <time>2021-08-20T18:26:25Z</time>
      </trkpt>
      <trkpt lat="43.21943" lon="-1.3428">
        <ele>197.69</ele>
        <time>2021-08-20T18:26:34Z</time>
      </trkpt>
      <trkpt lat="43.21944" lon="-1.34282">
        <ele>197.69</ele>
        <time>2021-08-20T18:26:35Z</time>
      </trkpt>
      <trkpt lat="43.21946" lon="-1.34283">
        <ele>197.69</ele>
        <time>2021-08-20T18:26:36Z</time>
      </trkpt>
      <trkpt lat="43.21948" lon="-1.34284">
        <ele>198.17</ele>
        <time>2021-08-20T18:26:37Z</time>
      </trkpt>
      <trkpt lat="43.2195" lon="-1.34285">
        <ele>198.17</ele>
        <time>2021-08-20T18:26:38Z</time>
      </trkpt>
      <trkpt lat="43.21952" lon="-1.34287">
        <ele>198.17</ele>
        <time>2021-08-20T18:26:39Z</time>
      </trkpt>
      <trkpt lat="43.21957" lon="-1.34291">
        <ele>198.65</ele>
        <time>2021-08-20T18:26:42Z</time>
      </trkpt>
      <trkpt lat="43.21959" lon="-1.34292">
        <ele>199.13</ele>
        <time>2021-08-20T18:26:43Z</time>
      </trkpt>
      <trkpt lat="43.2196" lon="-1.34293">
        <ele>199.13</ele>
        <time>2021-08-20T18:26:44Z</time>
      </trkpt>
      <trkpt lat="43.21972" lon="-1.34302">
        <ele>200.09</ele>
        <time>2021-08-20T18:26:53Z</time>
      </trkpt>
      <trkpt lat="43.21982" lon="-1.34311">
        <ele>201.53</ele>
        <time>2021-08-20T18:27:00Z</time>
      </trkpt>
      <trkpt lat="43.21992" lon="-1.34328">
        <ele>202.98</ele>
        <time>2021-08-20T18:27:09Z</time>
      </trkpt>
      <trkpt lat="43.22004" lon="-1.34343">
        <ele>203.94</ele>
        <time>2021-08-20T18:27:17Z</time>
      </trkpt>
      <trkpt lat="43.2202" lon="-1.34357">
        <ele>205.38</ele>
        <time>2021-08-20T18:27:27Z</time>
      </trkpt>
      <trkpt lat="43.22026" lon="-1.34362">
        <ele>205.38</ele>
        <time>2021-08-20T18:27:30Z</time>
      </trkpt>
      <trkpt lat="43.22028" lon="-1.34363">
        <ele>205.86</ele>
        <time>2021-08-20T18:27:31Z</time>
      </trkpt>
      <trkpt lat="43.2205" lon="-1.34379">
        <ele>206.34</ele>
        <time>2021-08-20T18:27:41Z</time>
      </trkpt>
      <trkpt lat="43.22079" lon="-1.34397">
        <ele>206.34</ele>
        <time>2021-08-20T18:27:52Z</time>
      </trkpt>
      <trkpt lat="43.22102" lon="-1.344">
        <ele>206.34</ele>
        <time>2021-08-20T18:27:58Z</time>
      </trkpt>
      <trkpt lat="43.22115" lon="-1.34401">
        <ele>207.3</ele>
        <time>2021-08-20T18:28:04Z</time>
      </trkpt>
      <trkpt lat="43.22122" lon="-1.34399">
        <ele>208.26</ele>
        <time>2021-08-20T18:28:10Z</time>
      </trkpt>
      <trkpt lat="43.2213" lon="-1.34397">
        <ele>209.7</ele>
        <time>2021-08-20T18:28:19Z</time>
      </trkpt>
      <trkpt lat="43.22134" lon="-1.34397">
        <ele>209.7</ele>
        <time>2021-08-20T18:28:24Z</time>
      </trkpt>
      <trkpt lat="43.22138" lon="-1.34397">
        <ele>210.67</ele>
        <time>2021-08-20T18:28:28Z</time>
      </trkpt>
      <trkpt lat="43.2214" lon="-1.34397">
        <ele>210.67</ele>
        <time>2021-08-20T18:28:29Z</time>
      </trkpt>
      <trkpt lat="43.22141" lon="-1.34397">
        <ele>211.15</ele>
        <time>2021-08-20T18:28:30Z</time>
      </trkpt>
      <trkpt lat="43.22152" lon="-1.34396">
        <ele>212.59</ele>
        <time>2021-08-20T18:28:40Z</time>
      </trkpt>
      <trkpt lat="43.22165" lon="-1.34396">
        <ele>214.03</ele>
        <time>2021-08-20T18:28:52Z</time>
      </trkpt>
      <trkpt lat="43.22178" lon="-1.34402">
        <ele>216.43</ele>
        <time>2021-08-20T18:29:04Z</time>
      </trkpt>
      <trkpt lat="43.22186" lon="-1.34406">
        <ele>216.91</ele>
        <time>2021-08-20T18:29:12Z</time>
      </trkpt>
      <trkpt lat="43.222" lon="-1.3441">
        <ele>217.88</ele>
        <time>2021-08-20T18:29:24Z</time>
      </trkpt>
      <trkpt lat="43.2221" lon="-1.34414">
        <ele>218.84</ele>
        <time>2021-08-20T18:29:34Z</time>
      </trkpt>
      <trkpt lat="43.22225" lon="-1.34416">
        <ele>220.76</ele>
        <time>2021-08-20T18:29:48Z</time>
      </trkpt>
      <trkpt lat="43.22239" lon="-1.34412">
        <ele>222.68</ele>
        <time>2021-08-20T18:30:02Z</time>
      </trkpt>
      <trkpt lat="43.22249" lon="-1.34411">
        <ele>224.12</ele>
        <time>2021-08-20T18:30:14Z</time>
      </trkpt>
      <trkpt lat="43.22259" lon="-1.34416">
        <ele>226.05</ele>
        <time>2021-08-20T18:30:26Z</time>
      </trkpt>
      <trkpt lat="43.22269" lon="-1.34419">
        <ele>227.97</ele>
        <time>2021-08-20T18:30:38Z</time>
      </trkpt>
      <trkpt lat="43.22281" lon="-1.34418">
        <ele>229.89</ele>
        <time>2021-08-20T18:30:51Z</time>
      </trkpt>
      <trkpt lat="43.22283" lon="-1.34417">
        <ele>229.89</ele>
        <time>2021-08-20T18:30:53Z</time>
      </trkpt>
      <trkpt lat="43.22299" lon="-1.34412">
        <ele>231.33</ele>
        <time>2021-08-20T18:31:07Z</time>
      </trkpt>
      <trkpt lat="43.22309" lon="-1.34409">
        <ele>232.78</ele>
        <time>2021-08-20T18:31:17Z</time>
      </trkpt>
      <trkpt lat="43.22311" lon="-1.34412">
        <ele>233.26</ele>
        <time>2021-08-20T18:31:20Z</time>
      </trkpt>
      <trkpt lat="43.22312" lon="-1.3441">
        <ele>233.26</ele>
        <time>2021-08-20T18:31:21Z</time>
      </trkpt>
      <trkpt lat="43.22314" lon="-1.34409">
        <ele>233.26</ele>
        <time>2021-08-20T18:31:22Z</time>
      </trkpt>
      <trkpt lat="43.22315" lon="-1.34407">
        <ele>233.26</ele>
        <time>2021-08-20T18:31:23Z</time>
      </trkpt>
      <trkpt lat="43.22316" lon="-1.34406">
        <ele>233.74</ele>
        <time>2021-08-20T18:31:24Z</time>
      </trkpt>
      <trkpt lat="43.22326" lon="-1.344">
        <ele>234.22</ele>
        <time>2021-08-20T18:31:32Z</time>
      </trkpt>
      <trkpt lat="43.22338" lon="-1.34395">
        <ele>236.14</ele>
        <time>2021-08-20T18:31:44Z</time>
      </trkpt>
      <trkpt lat="43.22347" lon="-1.34394">
        <ele>237.1</ele>
        <time>2021-08-20T18:31:53Z</time>
      </trkpt>
      <trkpt lat="43.22355" lon="-1.34392">
        <ele>238.54</ele>
        <time>2021-08-20T18:32:02Z</time>
      </trkpt>
      <trkpt lat="43.22369" lon="-1.34391">
        <ele>240.47</ele>
        <time>2021-08-20T18:32:14Z</time>
      </trkpt>
      <trkpt lat="43.2238" lon="-1.34387">
        <ele>241.91</ele>
        <time>2021-08-20T18:32:24Z</time>
      </trkpt>
      <trkpt lat="43.22394" lon="-1.34385">
        <ele>243.35</ele>
        <time>2021-08-20T18:32:36Z</time>
      </trkpt>
      <trkpt lat="43.22407" lon="-1.34388">
        <ele>244.31</ele>
        <time>2021-08-20T18:32:47Z</time>
      </trkpt>
      <trkpt lat="43.22418" lon="-1.34395">
        <ele>245.75</ele>
        <time>2021-08-20T18:32:58Z</time>
      </trkpt>
      <trkpt lat="43.22424" lon="-1.34398">
        <ele>246.23</ele>
        <time>2021-08-20T18:33:07Z</time>
      </trkpt>
      <trkpt lat="43.22426" lon="-1.344">
        <ele>246.72</ele>
        <time>2021-08-20T18:33:10Z</time>
      </trkpt>
      <trkpt lat="43.22427" lon="-1.34401">
        <ele>246.72</ele>
        <time>2021-08-20T18:33:11Z</time>
      </trkpt>
      <trkpt lat="43.22428" lon="-1.34403">
        <ele>246.72</ele>
        <time>2021-08-20T18:33:12Z</time>
      </trkpt>
      <trkpt lat="43.22429" lon="-1.34405">
        <ele>246.72</ele>
        <time>2021-08-20T18:33:13Z</time>
      </trkpt>
      <trkpt lat="43.22431" lon="-1.34409">
        <ele>246.72</ele>
        <time>2021-08-20T18:33:14Z</time>
      </trkpt>
      <trkpt lat="43.22432" lon="-1.34412">
        <ele>246.72</ele>
        <time>2021-08-20T18:33:15Z</time>
      </trkpt>
      <trkpt lat="43.22434" lon="-1.34415">
        <ele>246.72</ele>
        <time>2021-08-20T18:33:16Z</time>
      </trkpt>
      <trkpt lat="43.2245" lon="-1.34432">
        <ele>246.72</ele>
        <time>2021-08-20T18:33:23Z</time>
      </trkpt>
      <trkpt lat="43.22471" lon="-1.34451">
        <ele>246.72</ele>
        <time>2021-08-20T18:33:31Z</time>
      </trkpt>
      <trkpt lat="43.22496" lon="-1.34473">
        <ele>246.72</ele>
        <time>2021-08-20T18:33:40Z</time>
      </trkpt>
      <trkpt lat="43.2251" lon="-1.34486">
        <ele>247.68</ele>
        <time>2021-08-20T18:33:48Z</time>
      </trkpt>
      <trkpt lat="43.22528" lon="-1.34501">
        <ele>248.64</ele>
        <time>2021-08-20T18:33:57Z</time>
      </trkpt>
      <trkpt lat="43.22545" lon="-1.34519">
        <ele>249.12</ele>
        <time>2021-08-20T18:34:04Z</time>
      </trkpt>
      <trkpt lat="43.22563" lon="-1.34543">
        <ele>247.68</ele>
        <time>2021-08-20T18:34:10Z</time>
      </trkpt>
      <trkpt lat="43.22573" lon="-1.34557">
        <ele>246.72</ele>
        <time>2021-08-20T18:34:13Z</time>
      </trkpt>
      <trkpt lat="43.22577" lon="-1.34562">
        <ele>246.72</ele>
        <time>2021-08-20T18:34:14Z</time>
      </trkpt>
      <trkpt lat="43.22584" lon="-1.3457">
        <ele>246.72</ele>
        <time>2021-08-20T18:34:16Z</time>
      </trkpt>
      <trkpt lat="43.22587" lon="-1.34574">
        <ele>246.72</ele>
        <time>2021-08-20T18:34:17Z</time>
      </trkpt>
      <trkpt lat="43.22591" lon="-1.34576">
        <ele>246.72</ele>
        <time>2021-08-20T18:34:18Z</time>
      </trkpt>
      <trkpt lat="43.22594" lon="-1.34578">
        <ele>246.72</ele>
        <time>2021-08-20T18:34:19Z</time>
      </trkpt>
      <trkpt lat="43.22597" lon="-1.3458">
        <ele>247.2</ele>
        <time>2021-08-20T18:34:20Z</time>
      </trkpt>
      <trkpt lat="43.22601" lon="-1.34581">
        <ele>247.2</ele>
        <time>2021-08-20T18:34:21Z</time>
      </trkpt>
      <trkpt lat="43.22621" lon="-1.34595">
        <ele>248.64</ele>
        <time>2021-08-20T18:34:29Z</time>
      </trkpt>
      <trkpt lat="43.22623" lon="-1.34597">
        <ele>248.64</ele>
        <time>2021-08-20T18:34:30Z</time>
      </trkpt>
      <trkpt lat="43.22632" lon="-1.34613">
        <ele>250.08</ele>
        <time>2021-08-20T18:34:37Z</time>
      </trkpt>
      <trkpt lat="43.22636" lon="-1.34625">
        <ele>251.52</ele>
        <time>2021-08-20T18:34:44Z</time>
      </trkpt>
      <trkpt lat="43.22639" lon="-1.3463">
        <ele>252.48</ele>
        <time>2021-08-20T18:34:49Z</time>
      </trkpt>
      <trkpt lat="43.22644" lon="-1.34635">
        <ele>253.44</ele>
        <time>2021-08-20T18:34:57Z</time>
      </trkpt>
      <trkpt lat="43.2265" lon="-1.34639">
        <ele>254.41</ele>
        <time>2021-08-20T18:35:06Z</time>
      </trkpt>
      <trkpt lat="43.22656" lon="-1.34645">
        <ele>255.85</ele>
        <time>2021-08-20T18:35:16Z</time>
      </trkpt>
      <trkpt lat="43.22663" lon="-1.34651">
        <ele>257.29</ele>
        <time>2021-08-20T18:35:25Z</time>
      </trkpt>
      <trkpt lat="43.22669" lon="-1.34656">
        <ele>259.69</ele>
        <time>2021-08-20T18:35:35Z</time>
      </trkpt>
      <trkpt lat="43.22673" lon="-1.34662">
        <ele>260.17</ele>
        <time>2021-08-20T18:35:43Z</time>
      </trkpt>
      <trkpt lat="43.22678" lon="-1.34667">
        <ele>261.62</ele>
        <time>2021-08-20T18:35:51Z</time>
      </trkpt>
      <trkpt lat="43.22683" lon="-1.34673">
        <ele>262.58</ele>
        <time>2021-08-20T18:35:59Z</time>
      </trkpt>
      <trkpt lat="43.22689" lon="-1.34677">
        <ele>264.02</ele>
        <time>2021-08-20T18:36:07Z</time>
      </trkpt>
      <trkpt lat="43.22696" lon="-1.34684">
        <ele>264.98</ele>
        <time>2021-08-20T18:36:15Z</time>
      </trkpt>
      <trkpt lat="43.22699" lon="-1.34689">
        <ele>265.94</ele>
        <time>2021-08-20T18:36:21Z</time>
      </trkpt>
      <trkpt lat="43.22704" lon="-1.34695">
        <ele>267.38</ele>
        <time>2021-08-20T18:36:29Z</time>
      </trkpt>
      <trkpt lat="43.22709" lon="-1.34706">
        <ele>268.83</ele>
        <time>2021-08-20T18:36:39Z</time>
      </trkpt>
      <trkpt lat="43.22713" lon="-1.34718">
        <ele>270.75</ele>
        <time>2021-08-20T18:36:51Z</time>
      </trkpt>
      <trkpt lat="43.22719" lon="-1.34727">
        <ele>271.71</ele>
        <time>2021-08-20T18:36:59Z</time>
      </trkpt>
      <trkpt lat="43.22724" lon="-1.34731">
        <ele>272.19</ele>
        <time>2021-08-20T18:37:04Z</time>
      </trkpt>
      <trkpt lat="43.22725" lon="-1.34733">
        <ele>272.19</ele>
        <time>2021-08-20T18:37:05Z</time>
      </trkpt>
      <trkpt lat="43.22725" lon="-1.34734">
        <ele>272.67</ele>
        <time>2021-08-20T18:37:06Z</time>
      </trkpt>
      <trkpt lat="43.22729" lon="-1.34738">
        <ele>273.15</ele>
        <time>2021-08-20T18:37:13Z</time>
      </trkpt>
      <trkpt lat="43.22738" lon="-1.34747">
        <ele>274.11</ele>
        <time>2021-08-20T18:37:21Z</time>
      </trkpt>
      <trkpt lat="43.22748" lon="-1.34756">
        <ele>274.11</ele>
        <time>2021-08-20T18:37:28Z</time>
      </trkpt>
      <trkpt lat="43.2276" lon="-1.34767">
        <ele>275.56</ele>
        <time>2021-08-20T18:37:36Z</time>
      </trkpt>
      <trkpt lat="43.22761" lon="-1.34768">
        <ele>275.56</ele>
        <time>2021-08-20T18:37:37Z</time>
      </trkpt>
      <trkpt lat="43.22762" lon="-1.3477">
        <ele>275.56</ele>
        <time>2021-08-20T18:37:38Z</time>
      </trkpt>
      <trkpt lat="43.22764" lon="-1.34771">
        <ele>275.56</ele>
        <time>2021-08-20T18:37:39Z</time>
      </trkpt>
      <trkpt lat="43.22766" lon="-1.34773">
        <ele>276.04</ele>
        <time>2021-08-20T18:37:40Z</time>
      </trkpt>
      <trkpt lat="43.22767" lon="-1.34775">
        <ele>276.04</ele>
        <time>2021-08-20T18:37:41Z</time>
      </trkpt>
      <trkpt lat="43.22768" lon="-1.34777">
        <ele>276.04</ele>
        <time>2021-08-20T18:37:42Z</time>
      </trkpt>
      <trkpt lat="43.22769" lon="-1.34778">
        <ele>276.04</ele>
        <time>2021-08-20T18:37:43Z</time>
      </trkpt>
      <trkpt lat="43.2277" lon="-1.3478">
        <ele>276.52</ele>
        <time>2021-08-20T18:37:44Z</time>
      </trkpt>
      <trkpt lat="43.22772" lon="-1.34782">
        <ele>276.52</ele>
        <time>2021-08-20T18:37:45Z</time>
      </trkpt>
      <trkpt lat="43.22773" lon="-1.34784">
        <ele>276.52</ele>
        <time>2021-08-20T18:37:46Z</time>
      </trkpt>
      <trkpt lat="43.22775" lon="-1.34786">
        <ele>276.52</ele>
        <time>2021-08-20T18:37:47Z</time>
      </trkpt>
      <trkpt lat="43.22788" lon="-1.34801">
        <ele>277.96</ele>
        <time>2021-08-20T18:37:56Z</time>
      </trkpt>
      <trkpt lat="43.228" lon="-1.3481">
        <ele>278.44</ele>
        <time>2021-08-20T18:38:03Z</time>
      </trkpt>
      <trkpt lat="43.22822" lon="-1.34823">
        <ele>278.44</ele>
        <time>2021-08-20T18:38:12Z</time>
      </trkpt>
      <trkpt lat="43.22847" lon="-1.34834">
        <ele>277</ele>
        <time>2021-08-20T18:38:20Z</time>
      </trkpt>
      <trkpt lat="43.22859" lon="-1.34834">
        <ele>276.04</ele>
        <time>2021-08-20T18:38:23Z</time>
      </trkpt>
      <trkpt lat="43.22864" lon="-1.34835">
        <ele>275.56</ele>
        <time>2021-08-20T18:38:24Z</time>
      </trkpt>
      <trkpt lat="43.22868" lon="-1.34837">
        <ele>275.56</ele>
        <time>2021-08-20T18:38:25Z</time>
      </trkpt>
      <trkpt lat="43.22872" lon="-1.34843">
        <ele>275.56</ele>
        <time>2021-08-20T18:38:26Z</time>
      </trkpt>
      <trkpt lat="43.22874" lon="-1.34847">
        <ele>275.07</ele>
        <time>2021-08-20T18:38:27Z</time>
      </trkpt>
      <trkpt lat="43.22875" lon="-1.34852">
        <ele>275.07</ele>
        <time>2021-08-20T18:38:28Z</time>
      </trkpt>
      <trkpt lat="43.22876" lon="-1.34857">
        <ele>275.07</ele>
        <time>2021-08-20T18:38:29Z</time>
      </trkpt>
      <trkpt lat="43.22876" lon="-1.34869">
        <ele>276.52</ele>
        <time>2021-08-20T18:38:32Z</time>
      </trkpt>
      <trkpt lat="43.22875" lon="-1.34889">
        <ele>277.96</ele>
        <time>2021-08-20T18:38:40Z</time>
      </trkpt>
      <trkpt lat="43.22874" lon="-1.34905">
        <ele>278.92</ele>
        <time>2021-08-20T18:38:47Z</time>
      </trkpt>
      <trkpt lat="43.22874" lon="-1.34914">
        <ele>279.88</ele>
        <time>2021-08-20T18:38:52Z</time>
      </trkpt>
      <trkpt lat="43.22874" lon="-1.34917">
        <ele>279.88</ele>
        <time>2021-08-20T18:38:53Z</time>
      </trkpt>
      <trkpt lat="43.22874" lon="-1.34919">
        <ele>280.36</ele>
        <time>2021-08-20T18:38:54Z</time>
      </trkpt>
      <trkpt lat="43.22875" lon="-1.34921">
        <ele>280.36</ele>
        <time>2021-08-20T18:38:55Z</time>
      </trkpt>
      <trkpt lat="43.22875" lon="-1.34922">
        <ele>280.36</ele>
        <time>2021-08-20T18:38:56Z</time>
      </trkpt>
      <trkpt lat="43.22877" lon="-1.34936">
        <ele>281.32</ele>
        <time>2021-08-20T18:39:04Z</time>
      </trkpt>
      <trkpt lat="43.22878" lon="-1.34947">
        <ele>282.28</ele>
        <time>2021-08-20T18:39:11Z</time>
      </trkpt>
      <trkpt lat="43.2288" lon="-1.34954">
        <ele>282.77</ele>
        <time>2021-08-20T18:39:19Z</time>
      </trkpt>
      <trkpt lat="43.22882" lon="-1.34967">
        <ele>283.73</ele>
        <time>2021-08-20T18:39:29Z</time>
      </trkpt>
      <trkpt lat="43.22882" lon="-1.34978">
        <ele>284.69</ele>
        <time>2021-08-20T18:39:38Z</time>
      </trkpt>
      <trkpt lat="43.22886" lon="-1.34992">
        <ele>286.13</ele>
        <time>2021-08-20T18:39:47Z</time>
      </trkpt>
      <trkpt lat="43.22888" lon="-1.35002">
        <ele>286.61</ele>
        <time>2021-08-20T18:39:55Z</time>
      </trkpt>
      <trkpt lat="43.22888" lon="-1.35011">
        <ele>287.57</ele>
        <time>2021-08-20T18:40:03Z</time>
      </trkpt>
      <trkpt lat="43.22887" lon="-1.35023">
        <ele>289.01</ele>
        <time>2021-08-20T18:40:12Z</time>
      </trkpt>
      <trkpt lat="43.22887" lon="-1.35033">
        <ele>289.97</ele>
        <time>2021-08-20T18:40:20Z</time>
      </trkpt>
      <trkpt lat="43.2289" lon="-1.35044">
        <ele>291.42</ele>
        <time>2021-08-20T18:40:28Z</time>
      </trkpt>
      <trkpt lat="43.22893" lon="-1.35054">
        <ele>292.38</ele>
        <time>2021-08-20T18:40:37Z</time>
      </trkpt>
      <trkpt lat="43.22894" lon="-1.35063">
        <ele>293.34</ele>
        <time>2021-08-20T18:40:45Z</time>
      </trkpt>
      <trkpt lat="43.22896" lon="-1.35072">
        <ele>294.3</ele>
        <time>2021-08-20T18:40:53Z</time>
      </trkpt>
      <trkpt lat="43.22898" lon="-1.35082">
        <ele>295.26</ele>
        <time>2021-08-20T18:41:01Z</time>
      </trkpt>
      <trkpt lat="43.22903" lon="-1.35097">
        <ele>296.22</ele>
        <time>2021-08-20T18:41:11Z</time>
      </trkpt>
      <trkpt lat="43.22905" lon="-1.35108">
        <ele>297.67</ele>
        <time>2021-08-20T18:41:20Z</time>
      </trkpt>
      <trkpt lat="43.22905" lon="-1.35112">
        <ele>298.15</ele>
        <time>2021-08-20T18:41:28Z</time>
      </trkpt>
      <trkpt lat="43.22903" lon="-1.35116">
        <ele>298.15</ele>
        <time>2021-08-20T18:41:50Z</time>
      </trkpt>
      <trkpt lat="43.22907" lon="-1.35123">
        <ele>299.59</ele>
        <time>2021-08-20T18:41:58Z</time>
      </trkpt>
      <trkpt lat="43.22911" lon="-1.35134">
        <ele>301.03</ele>
        <time>2021-08-20T18:42:08Z</time>
      </trkpt>
      <trkpt lat="43.22915" lon="-1.35144">
        <ele>302.47</ele>
        <time>2021-08-20T18:42:18Z</time>
      </trkpt>
      <trkpt lat="43.22916" lon="-1.35152">
        <ele>303.43</ele>
        <time>2021-08-20T18:42:25Z</time>
      </trkpt>
      <trkpt lat="43.22919" lon="-1.35164">
        <ele>304.39</ele>
        <time>2021-08-20T18:42:34Z</time>
      </trkpt>
      <trkpt lat="43.22926" lon="-1.35179">
        <ele>305.84</ele>
        <time>2021-08-20T18:42:46Z</time>
      </trkpt>
      <trkpt lat="43.22933" lon="-1.35186">
        <ele>306.8</ele>
        <time>2021-08-20T18:42:54Z</time>
      </trkpt>
      <trkpt lat="43.22939" lon="-1.35191">
        <ele>306.8</ele>
        <time>2021-08-20T18:43:01Z</time>
      </trkpt>
      <trkpt lat="43.22947" lon="-1.35198">
        <ele>307.28</ele>
        <time>2021-08-20T18:43:07Z</time>
      </trkpt>
      <trkpt lat="43.22957" lon="-1.3521">
        <ele>308.72</ele>
        <time>2021-08-20T18:43:16Z</time>
      </trkpt>
      <trkpt lat="43.22965" lon="-1.35223">
        <ele>310.16</ele>
        <time>2021-08-20T18:43:26Z</time>
      </trkpt>
      <trkpt lat="43.22972" lon="-1.35233">
        <ele>311.12</ele>
        <time>2021-08-20T18:43:35Z</time>
      </trkpt>
      <trkpt lat="43.22977" lon="-1.35241">
        <ele>312.09</ele>
        <time>2021-08-20T18:43:43Z</time>
      </trkpt>
      <trkpt lat="43.22981" lon="-1.35256">
        <ele>314.01</ele>
        <time>2021-08-20T18:43:55Z</time>
      </trkpt>
      <trkpt lat="43.22984" lon="-1.35268">
        <ele>315.45</ele>
        <time>2021-08-20T18:44:05Z</time>
      </trkpt>
      <trkpt lat="43.2299" lon="-1.35279">
        <ele>316.89</ele>
        <time>2021-08-20T18:44:14Z</time>
      </trkpt>
      <trkpt lat="43.22993" lon="-1.35284">
        <ele>316.89</ele>
        <time>2021-08-20T18:44:18Z</time>
      </trkpt>
      <trkpt lat="43.22994" lon="-1.35285">
        <ele>316.89</ele>
        <time>2021-08-20T18:44:19Z</time>
      </trkpt>
      <trkpt lat="43.23004" lon="-1.35297">
        <ele>317.85</ele>
        <time>2021-08-20T18:44:30Z</time>
      </trkpt>
      <trkpt lat="43.23013" lon="-1.35306">
        <ele>318.81</ele>
        <time>2021-08-20T18:44:40Z</time>
      </trkpt>
      <trkpt lat="43.23023" lon="-1.35313">
        <ele>320.74</ele>
        <time>2021-08-20T18:44:51Z</time>
      </trkpt>
      <trkpt lat="43.23033" lon="-1.35318">
        <ele>321.7</ele>
        <time>2021-08-20T18:45:01Z</time>
      </trkpt>
      <trkpt lat="43.23043" lon="-1.35326">
        <ele>322.66</ele>
        <time>2021-08-20T18:45:11Z</time>
      </trkpt>
      <trkpt lat="43.23051" lon="-1.35331">
        <ele>324.1</ele>
        <time>2021-08-20T18:45:19Z</time>
      </trkpt>
      <trkpt lat="43.23061" lon="-1.35338">
        <ele>325.06</ele>
        <time>2021-08-20T18:45:30Z</time>
      </trkpt>
      <trkpt lat="43.23071" lon="-1.35347">
        <ele>326.5</ele>
        <time>2021-08-20T18:45:42Z</time>
      </trkpt>
      <trkpt lat="43.23079" lon="-1.35354">
        <ele>328.43</ele>
        <time>2021-08-20T18:45:52Z</time>
      </trkpt>
      <trkpt lat="43.23088" lon="-1.35363">
        <ele>329.87</ele>
        <time>2021-08-20T18:46:02Z</time>
      </trkpt>
      <trkpt lat="43.23092" lon="-1.35367">
        <ele>329.87</ele>
        <time>2021-08-20T18:46:10Z</time>
      </trkpt>
      <trkpt lat="43.23101" lon="-1.35371">
        <ele>330.83</ele>
        <time>2021-08-20T18:46:16Z</time>
      </trkpt>
      <trkpt lat="43.23113" lon="-1.35375">
        <ele>331.31</ele>
        <time>2021-08-20T18:46:22Z</time>
      </trkpt>
      <trkpt lat="43.2313" lon="-1.35378">
        <ele>332.27</ele>
        <time>2021-08-20T18:46:31Z</time>
      </trkpt>
      <trkpt lat="43.23145" lon="-1.35381">
        <ele>333.23</ele>
        <time>2021-08-20T18:46:39Z</time>
      </trkpt>
      <trkpt lat="43.23163" lon="-1.35385">
        <ele>334.2</ele>
        <time>2021-08-20T18:46:48Z</time>
      </trkpt>
      <trkpt lat="43.23179" lon="-1.35393">
        <ele>335.64</ele>
        <time>2021-08-20T18:46:57Z</time>
      </trkpt>
      <trkpt lat="43.23197" lon="-1.35401">
        <ele>336.12</ele>
        <time>2021-08-20T18:47:06Z</time>
      </trkpt>
      <trkpt lat="43.23216" lon="-1.35407">
        <ele>336.12</ele>
        <time>2021-08-20T18:47:13Z</time>
      </trkpt>
      <trkpt lat="43.23232" lon="-1.35417">
        <ele>334.2</ele>
        <time>2021-08-20T18:47:18Z</time>
      </trkpt>
      <trkpt lat="43.23236" lon="-1.35421">
        <ele>333.71</ele>
        <time>2021-08-20T18:47:19Z</time>
      </trkpt>
      <trkpt lat="43.2324" lon="-1.35426">
        <ele>333.23</ele>
        <time>2021-08-20T18:47:20Z</time>
      </trkpt>
      <trkpt lat="43.23244" lon="-1.35432">
        <ele>332.75</ele>
        <time>2021-08-20T18:47:21Z</time>
      </trkpt>
      <trkpt lat="43.23248" lon="-1.35439">
        <ele>332.75</ele>
        <time>2021-08-20T18:47:22Z</time>
      </trkpt>
      <trkpt lat="43.2325" lon="-1.35445">
        <ele>332.75</ele>
        <time>2021-08-20T18:47:23Z</time>
      </trkpt>
      <trkpt lat="43.23253" lon="-1.3545">
        <ele>332.75</ele>
        <time>2021-08-20T18:47:24Z</time>
      </trkpt>
      <trkpt lat="43.23256" lon="-1.35454">
        <ele>332.75</ele>
        <time>2021-08-20T18:47:25Z</time>
      </trkpt>
      <trkpt lat="43.23259" lon="-1.35457">
        <ele>334.2</ele>
        <time>2021-08-20T18:47:26Z</time>
      </trkpt>
      <trkpt lat="43.2326" lon="-1.35458">
        <ele>334.68</ele>
        <time>2021-08-20T18:47:27Z</time>
      </trkpt>
      <trkpt lat="43.23262" lon="-1.3546">
        <ele>334.68</ele>
        <time>2021-08-20T18:47:28Z</time>
      </trkpt>
      <trkpt lat="43.23264" lon="-1.35462">
        <ele>335.16</ele>
        <time>2021-08-20T18:47:29Z</time>
      </trkpt>
      <trkpt lat="43.23279" lon="-1.35477">
        <ele>337.08</ele>
        <time>2021-08-20T18:47:38Z</time>
      </trkpt>
      <trkpt lat="43.23291" lon="-1.35488">
        <ele>339</ele>
        <time>2021-08-20T18:47:45Z</time>
      </trkpt>
      <trkpt lat="43.23305" lon="-1.35499">
        <ele>340.44</ele>
        <time>2021-08-20T18:47:53Z</time>
      </trkpt>
      <trkpt lat="43.23318" lon="-1.35512">
        <ele>341.41</ele>
        <time>2021-08-20T18:48:01Z</time>
      </trkpt>
      <trkpt lat="43.23331" lon="-1.35524">
        <ele>342.85</ele>
        <time>2021-08-20T18:48:09Z</time>
      </trkpt>
      <trkpt lat="43.23336" lon="-1.35528">
        <ele>342.85</ele>
        <time>2021-08-20T18:48:15Z</time>
      </trkpt>
      <trkpt lat="43.23335" lon="-1.35528">
        <ele>342.85</ele>
        <time>2021-08-20T18:48:25Z</time>
      </trkpt>
      <trkpt lat="43.23336" lon="-1.35528">
        <ele>342.85</ele>
        <time>2021-08-20T18:48:41Z</time>
      </trkpt>
      <trkpt lat="43.23335" lon="-1.35528">
        <ele>343.33</ele>
        <time>2021-08-20T18:48:58Z</time>
      </trkpt>
      <trkpt lat="43.23335" lon="-1.35529">
        <ele>343.33</ele>
        <time>2021-08-20T18:49:08Z</time>
      </trkpt>
      <trkpt lat="43.23336" lon="-1.35528">
        <ele>343.33</ele>
        <time>2021-08-20T18:49:16Z</time>
      </trkpt>
      <trkpt lat="43.23336" lon="-1.35529">
        <ele>343.33</ele>
        <time>2021-08-20T18:49:33Z</time>
      </trkpt>
      <trkpt lat="43.23337" lon="-1.35528">
        <ele>343.33</ele>
        <time>2021-08-20T18:49:50Z</time>
      </trkpt>
      <trkpt lat="43.23337" lon="-1.35527">
        <ele>343.33</ele>
        <time>2021-08-20T18:50:06Z</time>
      </trkpt>
      <trkpt lat="43.23337" lon="-1.35527">
        <ele>343.33</ele>
        <time>2021-08-20T18:50:26Z</time>
      </trkpt>
      <trkpt lat="43.23336" lon="-1.35527">
        <ele>343.33</ele>
        <time>2021-08-20T18:50:43Z</time>
      </trkpt>
      <trkpt lat="43.23337" lon="-1.35528">
        <ele>343.33</ele>
        <time>2021-08-20T18:51:05Z</time>
      </trkpt>
      <trkpt lat="43.23337" lon="-1.35528">
        <ele>343.33</ele>
        <time>2021-08-20T18:51:15Z</time>
      </trkpt>
      <trkpt lat="43.23337" lon="-1.35529">
        <ele>343.33</ele>
        <time>2021-08-20T18:51:16Z</time>
      </trkpt>
      <trkpt lat="43.23338" lon="-1.35531">
        <ele>343.33</ele>
        <time>2021-08-20T18:51:21Z</time>
      </trkpt>
      <trkpt lat="43.23339" lon="-1.35532">
        <ele>343.33</ele>
        <time>2021-08-20T18:51:22Z</time>
      </trkpt>
      <trkpt lat="43.23343" lon="-1.35534">
        <ele>343.33</ele>
        <time>2021-08-20T18:51:28Z</time>
      </trkpt>
      <trkpt lat="43.23354" lon="-1.35541">
        <ele>343.33</ele>
        <time>2021-08-20T18:51:33Z</time>
      </trkpt>
      <trkpt lat="43.23364" lon="-1.3555">
        <ele>343.33</ele>
        <time>2021-08-20T18:51:37Z</time>
      </trkpt>
      <trkpt lat="43.23376" lon="-1.35562">
        <ele>340.44</ele>
        <time>2021-08-20T18:51:40Z</time>
      </trkpt>
      <trkpt lat="43.2338" lon="-1.35566">
        <ele>340.44</ele>
        <time>2021-08-20T18:51:41Z</time>
      </trkpt>
      <trkpt lat="43.23384" lon="-1.35571">
        <ele>339.48</ele>
        <time>2021-08-20T18:51:42Z</time>
      </trkpt>
      <trkpt lat="43.23388" lon="-1.35576">
        <ele>338.52</ele>
        <time>2021-08-20T18:51:43Z</time>
      </trkpt>
      <trkpt lat="43.23392" lon="-1.35583">
        <ele>338.52</ele>
        <time>2021-08-20T18:51:44Z</time>
      </trkpt>
      <trkpt lat="43.23394" lon="-1.3559">
        <ele>337.56</ele>
        <time>2021-08-20T18:51:45Z</time>
      </trkpt>
      <trkpt lat="43.23401" lon="-1.35605">
        <ele>336.6</ele>
        <time>2021-08-20T18:51:47Z</time>
      </trkpt>
      <trkpt lat="43.23405" lon="-1.35611">
        <ele>336.12</ele>
        <time>2021-08-20T18:51:48Z</time>
      </trkpt>
      <trkpt lat="43.2341" lon="-1.35616">
        <ele>336.12</ele>
        <time>2021-08-20T18:51:49Z</time>
      </trkpt>
      <trkpt lat="43.23441" lon="-1.35635">
        <ele>332.75</ele>
        <time>2021-08-20T18:51:54Z</time>
      </trkpt>
      <trkpt lat="43.23478" lon="-1.35652">
        <ele>327.95</ele>
        <time>2021-08-20T18:51:59Z</time>
      </trkpt>
      <trkpt lat="43.23505" lon="-1.35664">
        <ele>326.02</ele>
        <time>2021-08-20T18:52:02Z</time>
      </trkpt>
      <trkpt lat="43.23514" lon="-1.35666">
        <ele>325.54</ele>
        <time>2021-08-20T18:52:03Z</time>
      </trkpt>
      <trkpt lat="43.23523" lon="-1.35666">
        <ele>325.06</ele>
        <time>2021-08-20T18:52:04Z</time>
      </trkpt>
      <trkpt lat="43.2354" lon="-1.35667">
        <ele>323.62</ele>
        <time>2021-08-20T18:52:06Z</time>
      </trkpt>
      <trkpt lat="43.23549" lon="-1.3567">
        <ele>322.66</ele>
        <time>2021-08-20T18:52:07Z</time>
      </trkpt>
      <trkpt lat="43.23595" lon="-1.35688">
        <ele>319.78</ele>
        <time>2021-08-20T18:52:12Z</time>
      </trkpt>
      <trkpt lat="43.23627" lon="-1.35693">
        <ele>315.93</ele>
        <time>2021-08-20T18:52:15Z</time>
      </trkpt>
      <trkpt lat="43.23638" lon="-1.35693">
        <ele>314.49</ele>
        <time>2021-08-20T18:52:16Z</time>
      </trkpt>
      <trkpt lat="43.23649" lon="-1.35692">
        <ele>313.05</ele>
        <time>2021-08-20T18:52:17Z</time>
      </trkpt>
      <trkpt lat="43.2366" lon="-1.3569">
        <ele>312.09</ele>
        <time>2021-08-20T18:52:18Z</time>
      </trkpt>
      <trkpt lat="43.23672" lon="-1.35686">
        <ele>310.64</ele>
        <time>2021-08-20T18:52:19Z</time>
      </trkpt>
      <trkpt lat="43.23683" lon="-1.35682">
        <ele>308.72</ele>
        <time>2021-08-20T18:52:20Z</time>
      </trkpt>
      <trkpt lat="43.23694" lon="-1.35677">
        <ele>307.76</ele>
        <time>2021-08-20T18:52:21Z</time>
      </trkpt>
      <trkpt lat="43.23704" lon="-1.3567">
        <ele>307.28</ele>
        <time>2021-08-20T18:52:22Z</time>
      </trkpt>
      <trkpt lat="43.23711" lon="-1.35663">
        <ele>306.32</ele>
        <time>2021-08-20T18:52:23Z</time>
      </trkpt>
      <trkpt lat="43.23719" lon="-1.35654">
        <ele>305.36</ele>
        <time>2021-08-20T18:52:24Z</time>
      </trkpt>
      <trkpt lat="43.23727" lon="-1.35644">
        <ele>304.39</ele>
        <time>2021-08-20T18:52:25Z</time>
      </trkpt>
      <trkpt lat="43.23735" lon="-1.35636">
        <ele>302.95</ele>
        <time>2021-08-20T18:52:26Z</time>
      </trkpt>
      <trkpt lat="43.23744" lon="-1.35628">
        <ele>301.99</ele>
        <time>2021-08-20T18:52:27Z</time>
      </trkpt>
      <trkpt lat="43.23772" lon="-1.35608">
        <ele>298.15</ele>
        <time>2021-08-20T18:52:30Z</time>
      </trkpt>
      <trkpt lat="43.23791" lon="-1.35596">
        <ele>295.26</ele>
        <time>2021-08-20T18:52:32Z</time>
      </trkpt>
      <trkpt lat="43.23816" lon="-1.3558">
        <ele>290.46</ele>
        <time>2021-08-20T18:52:35Z</time>
      </trkpt>
      <trkpt lat="43.23838" lon="-1.35565">
        <ele>286.13</ele>
        <time>2021-08-20T18:52:38Z</time>
      </trkpt>
      <trkpt lat="43.23845" lon="-1.35558">
        <ele>284.21</ele>
        <time>2021-08-20T18:52:39Z</time>
      </trkpt>
      <trkpt lat="43.23851" lon="-1.35551">
        <ele>282.77</ele>
        <time>2021-08-20T18:52:40Z</time>
      </trkpt>
      <trkpt lat="43.23858" lon="-1.35546">
        <ele>281.32</ele>
        <time>2021-08-20T18:52:41Z</time>
      </trkpt>
      <trkpt lat="43.23866" lon="-1.35542">
        <ele>279.4</ele>
        <time>2021-08-20T18:52:42Z</time>
      </trkpt>
      <trkpt lat="43.23875" lon="-1.35541">
        <ele>278.44</ele>
        <time>2021-08-20T18:52:43Z</time>
      </trkpt>
      <trkpt lat="43.23884" lon="-1.35542">
        <ele>278.44</ele>
        <time>2021-08-20T18:52:44Z</time>
      </trkpt>
      <trkpt lat="43.23892" lon="-1.35545">
        <ele>277.96</ele>
        <time>2021-08-20T18:52:45Z</time>
      </trkpt>
      <trkpt lat="43.239" lon="-1.35549">
        <ele>277.96</ele>
        <time>2021-08-20T18:52:46Z</time>
      </trkpt>
      <trkpt lat="43.23907" lon="-1.35555">
        <ele>277</ele>
        <time>2021-08-20T18:52:47Z</time>
      </trkpt>
      <trkpt lat="43.23914" lon="-1.35561">
        <ele>277</ele>
        <time>2021-08-20T18:52:48Z</time>
      </trkpt>
      <trkpt lat="43.23921" lon="-1.35567">
        <ele>277</ele>
        <time>2021-08-20T18:52:49Z</time>
      </trkpt>
      <trkpt lat="43.23928" lon="-1.35572">
        <ele>276.52</ele>
        <time>2021-08-20T18:52:50Z</time>
      </trkpt>
      <trkpt lat="43.23936" lon="-1.35576">
        <ele>276.52</ele>
        <time>2021-08-20T18:52:51Z</time>
      </trkpt>
      <trkpt lat="43.23993" lon="-1.35606">
        <ele>274.11</ele>
        <time>2021-08-20T18:52:58Z</time>
      </trkpt>
      <trkpt lat="43.24046" lon="-1.35625">
        <ele>272.67</ele>
        <time>2021-08-20T18:53:04Z</time>
      </trkpt>
      <trkpt lat="43.24062" lon="-1.35628">
        <ele>271.71</ele>
        <time>2021-08-20T18:53:06Z</time>
      </trkpt>
      <trkpt lat="43.24071" lon="-1.35626">
        <ele>270.75</ele>
        <time>2021-08-20T18:53:07Z</time>
      </trkpt>
      <trkpt lat="43.24078" lon="-1.35622">
        <ele>269.79</ele>
        <time>2021-08-20T18:53:08Z</time>
      </trkpt>
      <trkpt lat="43.24086" lon="-1.35617">
        <ele>268.35</ele>
        <time>2021-08-20T18:53:09Z</time>
      </trkpt>
      <trkpt lat="43.24094" lon="-1.35611">
        <ele>267.38</ele>
        <time>2021-08-20T18:53:10Z</time>
      </trkpt>
      <trkpt lat="43.2412" lon="-1.35594">
        <ele>265.94</ele>
        <time>2021-08-20T18:53:13Z</time>
      </trkpt>
      <trkpt lat="43.24159" lon="-1.35575">
        <ele>262.58</ele>
        <time>2021-08-20T18:53:17Z</time>
      </trkpt>
      <trkpt lat="43.24169" lon="-1.3557">
        <ele>262.58</ele>
        <time>2021-08-20T18:53:18Z</time>
      </trkpt>
      <trkpt lat="43.24195" lon="-1.35555">
        <ele>259.69</ele>
        <time>2021-08-20T18:53:21Z</time>
      </trkpt>
      <trkpt lat="43.24204" lon="-1.35553">
        <ele>258.25</ele>
        <time>2021-08-20T18:53:22Z</time>
      </trkpt>
      <trkpt lat="43.24214" lon="-1.35554">
        <ele>256.81</ele>
        <time>2021-08-20T18:53:23Z</time>
      </trkpt>
      <trkpt lat="43.24233" lon="-1.3556">
        <ele>253.44</ele>
        <time>2021-08-20T18:53:25Z</time>
      </trkpt>
      <trkpt lat="43.24254" lon="-1.35562">
        <ele>250.08</ele>
        <time>2021-08-20T18:53:27Z</time>
      </trkpt>
      <trkpt lat="43.24264" lon="-1.35562">
        <ele>249.12</ele>
        <time>2021-08-20T18:53:28Z</time>
      </trkpt>
      <trkpt lat="43.24273" lon="-1.35559">
        <ele>248.64</ele>
        <time>2021-08-20T18:53:29Z</time>
      </trkpt>
      <trkpt lat="43.24282" lon="-1.35556">
        <ele>248.16</ele>
        <time>2021-08-20T18:53:30Z</time>
      </trkpt>
      <trkpt lat="43.2429" lon="-1.3555">
        <ele>247.2</ele>
        <time>2021-08-20T18:53:31Z</time>
      </trkpt>
      <trkpt lat="43.24298" lon="-1.35544">
        <ele>246.23</ele>
        <time>2021-08-20T18:53:32Z</time>
      </trkpt>
      <trkpt lat="43.24304" lon="-1.35536">
        <ele>245.27</ele>
        <time>2021-08-20T18:53:33Z</time>
      </trkpt>
      <trkpt lat="43.2431" lon="-1.35526">
        <ele>244.31</ele>
        <time>2021-08-20T18:53:34Z</time>
      </trkpt>
      <trkpt lat="43.24315" lon="-1.35515">
        <ele>242.39</ele>
        <time>2021-08-20T18:53:35Z</time>
      </trkpt>
      <trkpt lat="43.2432" lon="-1.35504">
        <ele>240.95</ele>
        <time>2021-08-20T18:53:36Z</time>
      </trkpt>
      <trkpt lat="43.24325" lon="-1.35494">
        <ele>239.51</ele>
        <time>2021-08-20T18:53:37Z</time>
      </trkpt>
      <trkpt lat="43.24331" lon="-1.35483">
        <ele>237.58</ele>
        <time>2021-08-20T18:53:38Z</time>
      </trkpt>
      <trkpt lat="43.24337" lon="-1.35473">
        <ele>235.66</ele>
        <time>2021-08-20T18:53:39Z</time>
      </trkpt>
      <trkpt lat="43.2435" lon="-1.3545">
        <ele>231.33</ele>
        <time>2021-08-20T18:53:41Z</time>
      </trkpt>
      <trkpt lat="43.2436" lon="-1.35424">
        <ele>227.49</ele>
        <time>2021-08-20T18:53:43Z</time>
      </trkpt>
      <trkpt lat="43.24369" lon="-1.35401">
        <ele>226.05</ele>
        <time>2021-08-20T18:53:45Z</time>
      </trkpt>
      <trkpt lat="43.24379" lon="-1.35384">
        <ele>224.61</ele>
        <time>2021-08-20T18:53:47Z</time>
      </trkpt>
      <trkpt lat="43.24385" lon="-1.35379">
        <ele>223.64</ele>
        <time>2021-08-20T18:53:48Z</time>
      </trkpt>
      <trkpt lat="43.24393" lon="-1.35374">
        <ele>222.2</ele>
        <time>2021-08-20T18:53:49Z</time>
      </trkpt>
      <trkpt lat="43.244" lon="-1.35372">
        <ele>221.24</ele>
        <time>2021-08-20T18:53:50Z</time>
      </trkpt>
      <trkpt lat="43.24408" lon="-1.35373">
        <ele>219.8</ele>
        <time>2021-08-20T18:53:51Z</time>
      </trkpt>
      <trkpt lat="43.24416" lon="-1.35376">
        <ele>218.84</ele>
        <time>2021-08-20T18:53:52Z</time>
      </trkpt>
      <trkpt lat="43.24429" lon="-1.35379">
        <ele>216.91</ele>
        <time>2021-08-20T18:53:54Z</time>
      </trkpt>
      <trkpt lat="43.24435" lon="-1.35376">
        <ele>216.43</ele>
        <time>2021-08-20T18:53:55Z</time>
      </trkpt>
      <trkpt lat="43.2444" lon="-1.3537">
        <ele>215.47</ele>
        <time>2021-08-20T18:53:56Z</time>
      </trkpt>
      <trkpt lat="43.24443" lon="-1.35361">
        <ele>214.03</ele>
        <time>2021-08-20T18:53:57Z</time>
      </trkpt>
      <trkpt lat="43.24446" lon="-1.3535">
        <ele>212.59</ele>
        <time>2021-08-20T18:53:58Z</time>
      </trkpt>
      <trkpt lat="43.24448" lon="-1.35338">
        <ele>211.15</ele>
        <time>2021-08-20T18:53:59Z</time>
      </trkpt>
      <trkpt lat="43.24453" lon="-1.35313">
        <ele>207.78</ele>
        <time>2021-08-20T18:54:01Z</time>
      </trkpt>
      <trkpt lat="43.24457" lon="-1.35301">
        <ele>205.86</ele>
        <time>2021-08-20T18:54:02Z</time>
      </trkpt>
      <trkpt lat="43.24463" lon="-1.3529">
        <ele>203.94</ele>
        <time>2021-08-20T18:54:03Z</time>
      </trkpt>
      <trkpt lat="43.24471" lon="-1.35281">
        <ele>202.01</ele>
        <time>2021-08-20T18:54:04Z</time>
      </trkpt>
      <trkpt lat="43.2448" lon="-1.35271">
        <ele>199.61</ele>
        <time>2021-08-20T18:54:05Z</time>
      </trkpt>
      <trkpt lat="43.24488" lon="-1.3526">
        <ele>196.73</ele>
        <time>2021-08-20T18:54:06Z</time>
      </trkpt>
      <trkpt lat="43.24503" lon="-1.35236">
        <ele>192.88</ele>
        <time>2021-08-20T18:54:08Z</time>
      </trkpt>
      <trkpt lat="43.2451" lon="-1.35226">
        <ele>191.44</ele>
        <time>2021-08-20T18:54:09Z</time>
      </trkpt>
      <trkpt lat="43.24518" lon="-1.35217">
        <ele>190.48</ele>
        <time>2021-08-20T18:54:10Z</time>
      </trkpt>
      <trkpt lat="43.24544" lon="-1.3519">
        <ele>186.63</ele>
        <time>2021-08-20T18:54:13Z</time>
      </trkpt>
      <trkpt lat="43.24565" lon="-1.35173">
        <ele>184.23</ele>
        <time>2021-08-20T18:54:15Z</time>
      </trkpt>
      <trkpt lat="43.24573" lon="-1.35163">
        <ele>184.23</ele>
        <time>2021-08-20T18:54:16Z</time>
      </trkpt>
      <trkpt lat="43.2458" lon="-1.35152">
        <ele>183.75</ele>
        <time>2021-08-20T18:54:17Z</time>
      </trkpt>
      <trkpt lat="43.24605" lon="-1.35114">
        <ele>183.75</ele>
        <time>2021-08-20T18:54:21Z</time>
      </trkpt>
      <trkpt lat="43.24612" lon="-1.35108">
        <ele>183.75</ele>
        <time>2021-08-20T18:54:22Z</time>
      </trkpt>
      <trkpt lat="43.24619" lon="-1.35104">
        <ele>183.75</ele>
        <time>2021-08-20T18:54:23Z</time>
      </trkpt>
      <trkpt lat="43.24628" lon="-1.351">
        <ele>182.79</ele>
        <time>2021-08-20T18:54:24Z</time>
      </trkpt>
      <trkpt lat="43.24637" lon="-1.35096">
        <ele>181.35</ele>
        <time>2021-08-20T18:54:25Z</time>
      </trkpt>
      <trkpt lat="43.24658" lon="-1.35086">
        <ele>178.46</ele>
        <time>2021-08-20T18:54:27Z</time>
      </trkpt>
      <trkpt lat="43.24667" lon="-1.35079">
        <ele>177.98</ele>
        <time>2021-08-20T18:54:28Z</time>
      </trkpt>
      <trkpt lat="43.24693" lon="-1.35057">
        <ele>176.06</ele>
        <time>2021-08-20T18:54:31Z</time>
      </trkpt>
      <trkpt lat="43.24701" lon="-1.35048">
        <ele>176.54</ele>
        <time>2021-08-20T18:54:32Z</time>
      </trkpt>
      <trkpt lat="43.24707" lon="-1.35037">
        <ele>176.54</ele>
        <time>2021-08-20T18:54:33Z</time>
      </trkpt>
      <trkpt lat="43.24713" lon="-1.35029">
        <ele>176.54</ele>
        <time>2021-08-20T18:54:34Z</time>
      </trkpt>
      <trkpt lat="43.24719" lon="-1.35023">
        <ele>176.06</ele>
        <time>2021-08-20T18:54:35Z</time>
      </trkpt>
      <trkpt lat="43.24726" lon="-1.35021">
        <ele>176.06</ele>
        <time>2021-08-20T18:54:36Z</time>
      </trkpt>
      <trkpt lat="43.24734" lon="-1.3502">
        <ele>175.1</ele>
        <time>2021-08-20T18:54:37Z</time>
      </trkpt>
      <trkpt lat="43.24742" lon="-1.3502">
        <ele>174.62</ele>
        <time>2021-08-20T18:54:38Z</time>
      </trkpt>
      <trkpt lat="43.24751" lon="-1.35021">
        <ele>174.14</ele>
        <time>2021-08-20T18:54:39Z</time>
      </trkpt>
      <trkpt lat="43.24759" lon="-1.35021">
        <ele>173.66</ele>
        <time>2021-08-20T18:54:40Z</time>
      </trkpt>
      <trkpt lat="43.24768" lon="-1.35021">
        <ele>173.66</ele>
        <time>2021-08-20T18:54:41Z</time>
      </trkpt>
      <trkpt lat="43.24776" lon="-1.3502">
        <ele>173.17</ele>
        <time>2021-08-20T18:54:42Z</time>
      </trkpt>
      <trkpt lat="43.24783" lon="-1.35019">
        <ele>173.17</ele>
        <time>2021-08-20T18:54:43Z</time>
      </trkpt>
      <trkpt lat="43.2479" lon="-1.35016">
        <ele>173.17</ele>
        <time>2021-08-20T18:54:44Z</time>
      </trkpt>
      <trkpt lat="43.24796" lon="-1.35012">
        <ele>173.17</ele>
        <time>2021-08-20T18:54:45Z</time>
      </trkpt>
      <trkpt lat="43.24802" lon="-1.35008">
        <ele>173.17</ele>
        <time>2021-08-20T18:54:46Z</time>
      </trkpt>
      <trkpt lat="43.2485" lon="-1.34975">
        <ele>169.81</ele>
        <time>2021-08-20T18:54:53Z</time>
      </trkpt>
      <trkpt lat="43.24876" lon="-1.34962">
        <ele>166.93</ele>
        <time>2021-08-20T18:54:56Z</time>
      </trkpt>
      <trkpt lat="43.24894" lon="-1.34954">
        <ele>165.96</ele>
        <time>2021-08-20T18:54:58Z</time>
      </trkpt>
      <trkpt lat="43.24926" lon="-1.34946">
        <ele>161.64</ele>
        <time>2021-08-20T18:55:01Z</time>
      </trkpt>
      <trkpt lat="43.24971" lon="-1.34925">
        <ele>158.75</ele>
        <time>2021-08-20T18:55:05Z</time>
      </trkpt>
      <trkpt lat="43.24981" lon="-1.34919">
        <ele>158.75</ele>
        <time>2021-08-20T18:55:06Z</time>
      </trkpt>
      <trkpt lat="43.24991" lon="-1.34914">
        <ele>158.75</ele>
        <time>2021-08-20T18:55:07Z</time>
      </trkpt>
      <trkpt lat="43.25" lon="-1.34912">
        <ele>158.75</ele>
        <time>2021-08-20T18:55:08Z</time>
      </trkpt>
      <trkpt lat="43.25008" lon="-1.34914">
        <ele>157.79</ele>
        <time>2021-08-20T18:55:09Z</time>
      </trkpt>
      <trkpt lat="43.25015" lon="-1.34919">
        <ele>157.79</ele>
        <time>2021-08-20T18:55:10Z</time>
      </trkpt>
      <trkpt lat="43.25023" lon="-1.34923">
        <ele>157.79</ele>
        <time>2021-08-20T18:55:11Z</time>
      </trkpt>
      <trkpt lat="43.25031" lon="-1.34924">
        <ele>157.31</ele>
        <time>2021-08-20T18:55:12Z</time>
      </trkpt>
      <trkpt lat="43.25039" lon="-1.34925">
        <ele>156.83</ele>
        <time>2021-08-20T18:55:13Z</time>
      </trkpt>
      <trkpt lat="43.25047" lon="-1.34927">
        <ele>156.83</ele>
        <time>2021-08-20T18:55:14Z</time>
      </trkpt>
      <trkpt lat="43.25055" lon="-1.3493">
        <ele>156.35</ele>
        <time>2021-08-20T18:55:15Z</time>
      </trkpt>
      <trkpt lat="43.25063" lon="-1.34936">
        <ele>155.39</ele>
        <time>2021-08-20T18:55:16Z</time>
      </trkpt>
      <trkpt lat="43.25071" lon="-1.34941">
        <ele>155.39</ele>
        <time>2021-08-20T18:55:17Z</time>
      </trkpt>
      <trkpt lat="43.25088" lon="-1.34949">
        <ele>153.95</ele>
        <time>2021-08-20T18:55:19Z</time>
      </trkpt>
      <trkpt lat="43.25096" lon="-1.34952">
        <ele>153.47</ele>
        <time>2021-08-20T18:55:20Z</time>
      </trkpt>
      <trkpt lat="43.25104" lon="-1.34951">
        <ele>152.99</ele>
        <time>2021-08-20T18:55:21Z</time>
      </trkpt>
      <trkpt lat="43.25112" lon="-1.34948">
        <ele>152.51</ele>
        <time>2021-08-20T18:55:22Z</time>
      </trkpt>
      <trkpt lat="43.2512" lon="-1.34943">
        <ele>152.51</ele>
        <time>2021-08-20T18:55:23Z</time>
      </trkpt>
      <trkpt lat="43.25129" lon="-1.34939">
        <ele>151.54</ele>
        <time>2021-08-20T18:55:24Z</time>
      </trkpt>
      <trkpt lat="43.25136" lon="-1.34936">
        <ele>151.06</ele>
        <time>2021-08-20T18:55:25Z</time>
      </trkpt>
      <trkpt lat="43.25145" lon="-1.34935">
        <ele>150.58</ele>
        <time>2021-08-20T18:55:26Z</time>
      </trkpt>
      <trkpt lat="43.25199" lon="-1.34941">
        <ele>148.18</ele>
        <time>2021-08-20T18:55:32Z</time>
      </trkpt>
      <trkpt lat="43.25208" lon="-1.34939">
        <ele>147.22</ele>
        <time>2021-08-20T18:55:33Z</time>
      </trkpt>
      <trkpt lat="43.25219" lon="-1.34935">
        <ele>146.74</ele>
        <time>2021-08-20T18:55:34Z</time>
      </trkpt>
      <trkpt lat="43.25246" lon="-1.34922">
        <ele>145.3</ele>
        <time>2021-08-20T18:55:37Z</time>
      </trkpt>
      <trkpt lat="43.25282" lon="-1.34907">
        <ele>143.85</ele>
        <time>2021-08-20T18:55:41Z</time>
      </trkpt>
      <trkpt lat="43.25293" lon="-1.34906">
        <ele>142.89</ele>
        <time>2021-08-20T18:55:42Z</time>
      </trkpt>
      <trkpt lat="43.25302" lon="-1.34907">
        <ele>142.89</ele>
        <time>2021-08-20T18:55:43Z</time>
      </trkpt>
      <trkpt lat="43.25345" lon="-1.34918">
        <ele>144.34</ele>
        <time>2021-08-20T18:55:48Z</time>
      </trkpt>
      <trkpt lat="43.25362" lon="-1.34918">
        <ele>146.74</ele>
        <time>2021-08-20T18:55:51Z</time>
      </trkpt>
      <trkpt lat="43.25366" lon="-1.3492">
        <ele>146.74</ele>
        <time>2021-08-20T18:55:52Z</time>
      </trkpt>
      <trkpt lat="43.2537" lon="-1.34921">
        <ele>146.74</ele>
        <time>2021-08-20T18:55:53Z</time>
      </trkpt>
      <trkpt lat="43.25399" lon="-1.34931">
        <ele>143.37</ele>
        <time>2021-08-20T18:55:58Z</time>
      </trkpt>
      <trkpt lat="43.25422" lon="-1.34939">
        <ele>145.78</ele>
        <time>2021-08-20T18:56:03Z</time>
      </trkpt>
      <trkpt lat="43.25427" lon="-1.34941">
        <ele>145.78</ele>
        <time>2021-08-20T18:56:04Z</time>
      </trkpt>
      <trkpt lat="43.25441" lon="-1.34943">
        <ele>143.85</ele>
        <time>2021-08-20T18:56:07Z</time>
      </trkpt>
      <trkpt lat="43.25454" lon="-1.34944">
        <ele>141.45</ele>
        <time>2021-08-20T18:56:09Z</time>
      </trkpt>
      <trkpt lat="43.25459" lon="-1.34943">
        <ele>140.97</ele>
        <time>2021-08-20T18:56:10Z</time>
      </trkpt>
      <trkpt lat="43.25466" lon="-1.34941">
        <ele>139.53</ele>
        <time>2021-08-20T18:56:11Z</time>
      </trkpt>
      <trkpt lat="43.25483" lon="-1.34935">
        <ele>136.16</ele>
        <time>2021-08-20T18:56:13Z</time>
      </trkpt>
      <trkpt lat="43.25501" lon="-1.34928">
        <ele>135.2</ele>
        <time>2021-08-20T18:56:15Z</time>
      </trkpt>
      <trkpt lat="43.2551" lon="-1.34925">
        <ele>134.72</ele>
        <time>2021-08-20T18:56:16Z</time>
      </trkpt>
      <trkpt lat="43.25561" lon="-1.34922">
        <ele>133.28</ele>
        <time>2021-08-20T18:56:22Z</time>
      </trkpt>
      <trkpt lat="43.25603" lon="-1.3492">
        <ele>130.88</ele>
        <time>2021-08-20T18:56:27Z</time>
      </trkpt>
      <trkpt lat="43.25613" lon="-1.34921">
        <ele>130.88</ele>
        <time>2021-08-20T18:56:28Z</time>
      </trkpt>
      <trkpt lat="43.25661" lon="-1.34935">
        <ele>127.51</ele>
        <time>2021-08-20T18:56:33Z</time>
      </trkpt>
      <trkpt lat="43.25716" lon="-1.34952">
        <ele>125.59</ele>
        <time>2021-08-20T18:56:39Z</time>
      </trkpt>
      <trkpt lat="43.25724" lon="-1.34958">
        <ele>125.59</ele>
        <time>2021-08-20T18:56:40Z</time>
      </trkpt>
      <trkpt lat="43.25732" lon="-1.34965">
        <ele>124.63</ele>
        <time>2021-08-20T18:56:41Z</time>
      </trkpt>
      <trkpt lat="43.25747" lon="-1.34981">
        <ele>124.15</ele>
        <time>2021-08-20T18:56:43Z</time>
      </trkpt>
      <trkpt lat="43.25752" lon="-1.34991">
        <ele>124.15</ele>
        <time>2021-08-20T18:56:44Z</time>
      </trkpt>
      <trkpt lat="43.25757" lon="-1.34999">
        <ele>124.15</ele>
        <time>2021-08-20T18:56:45Z</time>
      </trkpt>
      <trkpt lat="43.25762" lon="-1.35004">
        <ele>126.07</ele>
        <time>2021-08-20T18:56:46Z</time>
      </trkpt>
      <trkpt lat="43.25767" lon="-1.35008">
        <ele>127.51</ele>
        <time>2021-08-20T18:56:47Z</time>
      </trkpt>
      <trkpt lat="43.25769" lon="-1.35009">
        <ele>128.95</ele>
        <time>2021-08-20T18:56:48Z</time>
      </trkpt>
      <trkpt lat="43.25771" lon="-1.3501">
        <ele>129.43</ele>
        <time>2021-08-20T18:56:49Z</time>
      </trkpt>
      <trkpt lat="43.25775" lon="-1.35012">
        <ele>129.92</ele>
        <time>2021-08-20T18:56:52Z</time>
      </trkpt>
      <trkpt lat="43.25779" lon="-1.35012">
        <ele>130.88</ele>
        <time>2021-08-20T18:56:55Z</time>
      </trkpt>
      <trkpt lat="43.2578" lon="-1.35012">
        <ele>130.88</ele>
        <time>2021-08-20T18:56:56Z</time>
      </trkpt>
      <trkpt lat="43.25781" lon="-1.35013">
        <ele>130.88</ele>
        <time>2021-08-20T18:56:57Z</time>
      </trkpt>
      <trkpt lat="43.25782" lon="-1.35013">
        <ele>131.36</ele>
        <time>2021-08-20T18:56:58Z</time>
      </trkpt>
      <trkpt lat="43.25783" lon="-1.35013">
        <ele>131.36</ele>
        <time>2021-08-20T18:56:59Z</time>
      </trkpt>
      <trkpt lat="43.25785" lon="-1.35014">
        <ele>131.36</ele>
        <time>2021-08-20T18:57:00Z</time>
      </trkpt>
      <trkpt lat="43.25788" lon="-1.35016">
        <ele>131.84</ele>
        <time>2021-08-20T18:57:05Z</time>
      </trkpt>
      <trkpt lat="43.25798" lon="-1.35018">
        <ele>133.76</ele>
        <time>2021-08-20T18:57:15Z</time>
      </trkpt>
      <trkpt lat="43.25806" lon="-1.35023">
        <ele>135.2</ele>
        <time>2021-08-20T18:57:23Z</time>
      </trkpt>
      <trkpt lat="43.25816" lon="-1.35029">
        <ele>136.64</ele>
        <time>2021-08-20T18:57:33Z</time>
      </trkpt>
      <trkpt lat="43.25823" lon="-1.35034">
        <ele>137.61</ele>
        <time>2021-08-20T18:57:41Z</time>
      </trkpt>
      <trkpt lat="43.25832" lon="-1.35039">
        <ele>139.05</ele>
        <time>2021-08-20T18:57:50Z</time>
      </trkpt>
      <trkpt lat="43.25843" lon="-1.35042">
        <ele>140.97</ele>
        <time>2021-08-20T18:58:00Z</time>
      </trkpt>
      <trkpt lat="43.25851" lon="-1.35043">
        <ele>141.93</ele>
        <time>2021-08-20T18:58:08Z</time>
      </trkpt>
      <trkpt lat="43.2586" lon="-1.35042">
        <ele>143.37</ele>
        <time>2021-08-20T18:58:18Z</time>
      </trkpt>
      <trkpt lat="43.25869" lon="-1.35037">
        <ele>144.82</ele>
        <time>2021-08-20T18:58:27Z</time>
      </trkpt>
      <trkpt lat="43.25878" lon="-1.35029">
        <ele>145.78</ele>
        <time>2021-08-20T18:58:36Z</time>
      </trkpt>
      <trkpt lat="43.25885" lon="-1.35022">
        <ele>147.7</ele>
        <time>2021-08-20T18:58:45Z</time>
      </trkpt>
      <trkpt lat="43.25886" lon="-1.35022">
        <ele>147.7</ele>
        <time>2021-08-20T18:58:46Z</time>
      </trkpt>
      <trkpt lat="43.2589" lon="-1.35021">
        <ele>148.66</ele>
        <time>2021-08-20T18:58:53Z</time>
      </trkpt>
      <trkpt lat="43.25893" lon="-1.3502">
        <ele>148.66</ele>
        <time>2021-08-20T18:58:56Z</time>
      </trkpt>
      <trkpt lat="43.25893" lon="-1.35019">
        <ele>148.66</ele>
        <time>2021-08-20T18:58:57Z</time>
      </trkpt>
      <trkpt lat="43.25894" lon="-1.35018">
        <ele>148.66</ele>
        <time>2021-08-20T18:58:58Z</time>
      </trkpt>
      <trkpt lat="43.25896" lon="-1.35018">
        <ele>148.66</ele>
        <time>2021-08-20T18:58:59Z</time>
      </trkpt>
      <trkpt lat="43.25898" lon="-1.35018">
        <ele>148.18</ele>
        <time>2021-08-20T18:59:00Z</time>
      </trkpt>
      <trkpt lat="43.259" lon="-1.35017">
        <ele>148.18</ele>
        <time>2021-08-20T18:59:01Z</time>
      </trkpt>
      <trkpt lat="43.25902" lon="-1.35017">
        <ele>148.18</ele>
        <time>2021-08-20T18:59:02Z</time>
      </trkpt>
      <trkpt lat="43.25922" lon="-1.35018">
        <ele>148.66</ele>
        <time>2021-08-20T18:59:10Z</time>
      </trkpt>
      <trkpt lat="43.25962" lon="-1.35021">
        <ele>149.14</ele>
        <time>2021-08-20T18:59:22Z</time>
      </trkpt>
      <trkpt lat="43.26004" lon="-1.35023">
        <ele>149.14</ele>
        <time>2021-08-20T18:59:33Z</time>
      </trkpt>
      <trkpt lat="43.26029" lon="-1.35017">
        <ele>151.54</ele>
        <time>2021-08-20T18:59:41Z</time>
      </trkpt>
      <trkpt lat="43.26043" lon="-1.35015">
        <ele>152.99</ele>
        <time>2021-08-20T18:59:47Z</time>
      </trkpt>
      <trkpt lat="43.26046" lon="-1.35015">
        <ele>152.99</ele>
        <time>2021-08-20T18:59:48Z</time>
      </trkpt>
      <trkpt lat="43.26048" lon="-1.35015">
        <ele>152.99</ele>
        <time>2021-08-20T18:59:49Z</time>
      </trkpt>
      <trkpt lat="43.2605" lon="-1.35014">
        <ele>152.99</ele>
        <time>2021-08-20T18:59:50Z</time>
      </trkpt>
      <trkpt lat="43.26052" lon="-1.35012">
        <ele>152.99</ele>
        <time>2021-08-20T18:59:51Z</time>
      </trkpt>
      <trkpt lat="43.26055" lon="-1.35011">
        <ele>152.99</ele>
        <time>2021-08-20T18:59:52Z</time>
      </trkpt>
      <trkpt lat="43.26078" lon="-1.35008">
        <ele>154.43</ele>
        <time>2021-08-20T19:00:01Z</time>
      </trkpt>
      <trkpt lat="43.26091" lon="-1.35012">
        <ele>154.43</ele>
        <time>2021-08-20T19:00:05Z</time>
      </trkpt>
      <trkpt lat="43.26112" lon="-1.35023">
        <ele>153.47</ele>
        <time>2021-08-20T19:00:10Z</time>
      </trkpt>
      <trkpt lat="43.26145" lon="-1.35027">
        <ele>153.95</ele>
        <time>2021-08-20T19:00:17Z</time>
      </trkpt>
      <trkpt lat="43.26152" lon="-1.35028">
        <ele>154.91</ele>
        <time>2021-08-20T19:00:19Z</time>
      </trkpt>
      <trkpt lat="43.26172" lon="-1.3504">
        <ele>156.83</ele>
        <time>2021-08-20T19:00:26Z</time>
      </trkpt>
      <trkpt lat="43.26175" lon="-1.35043">
        <ele>156.83</ele>
        <time>2021-08-20T19:00:27Z</time>
      </trkpt>
      <trkpt lat="43.26178" lon="-1.35047">
        <ele>156.83</ele>
        <time>2021-08-20T19:00:28Z</time>
      </trkpt>
      <trkpt lat="43.26181" lon="-1.35051">
        <ele>156.83</ele>
        <time>2021-08-20T19:00:29Z</time>
      </trkpt>
      <trkpt lat="43.26199" lon="-1.35077">
        <ele>154.43</ele>
        <time>2021-08-20T19:00:34Z</time>
      </trkpt>
      <trkpt lat="43.26205" lon="-1.35082">
        <ele>154.43</ele>
        <time>2021-08-20T19:00:35Z</time>
      </trkpt>
      <trkpt lat="43.2621" lon="-1.35086">
        <ele>153.95</ele>
        <time>2021-08-20T19:00:36Z</time>
      </trkpt>
      <trkpt lat="43.26215" lon="-1.35089">
        <ele>153.95</ele>
        <time>2021-08-20T19:00:37Z</time>
      </trkpt>
      <trkpt lat="43.26221" lon="-1.35091">
        <ele>153.95</ele>
        <time>2021-08-20T19:00:38Z</time>
      </trkpt>
      <trkpt lat="43.26224" lon="-1.35093">
        <ele>153.95</ele>
        <time>2021-08-20T19:00:39Z</time>
      </trkpt>
      <trkpt lat="43.26228" lon="-1.35094">
        <ele>155.39</ele>
        <time>2021-08-20T19:00:40Z</time>
      </trkpt>
      <trkpt lat="43.26233" lon="-1.35096">
        <ele>154.91</ele>
        <time>2021-08-20T19:00:41Z</time>
      </trkpt>
      <trkpt lat="43.26257" lon="-1.35107">
        <ele>152.99</ele>
        <time>2021-08-20T19:00:46Z</time>
      </trkpt>
      <trkpt lat="43.26262" lon="-1.35108">
        <ele>152.99</ele>
        <time>2021-08-20T19:00:47Z</time>
      </trkpt>
      <trkpt lat="43.26269" lon="-1.35109">
        <ele>152.51</ele>
        <time>2021-08-20T19:00:48Z</time>
      </trkpt>
      <trkpt lat="43.26275" lon="-1.35109">
        <ele>152.99</ele>
        <time>2021-08-20T19:00:49Z</time>
      </trkpt>
      <trkpt lat="43.26281" lon="-1.35109">
        <ele>152.99</ele>
        <time>2021-08-20T19:00:50Z</time>
      </trkpt>
      <trkpt lat="43.26295" lon="-1.35107">
        <ele>152.99</ele>
        <time>2021-08-20T19:00:53Z</time>
      </trkpt>
      <trkpt lat="43.26305" lon="-1.35106">
        <ele>152.99</ele>
        <time>2021-08-20T19:00:55Z</time>
      </trkpt>
      <trkpt lat="43.2631" lon="-1.35106">
        <ele>152.99</ele>
        <time>2021-08-20T19:00:56Z</time>
      </trkpt>
      <trkpt lat="43.26322" lon="-1.35105">
        <ele>153.95</ele>
        <time>2021-08-20T19:00:59Z</time>
      </trkpt>
      <trkpt lat="43.26344" lon="-1.35104">
        <ele>152.51</ele>
        <time>2021-08-20T19:01:04Z</time>
      </trkpt>
      <trkpt lat="43.26349" lon="-1.35103">
        <ele>152.03</ele>
        <time>2021-08-20T19:01:05Z</time>
      </trkpt>
      <trkpt lat="43.26352" lon="-1.35103">
        <ele>152.03</ele>
        <time>2021-08-20T19:01:06Z</time>
      </trkpt>
      <trkpt lat="43.26357" lon="-1.35105">
        <ele>152.03</ele>
        <time>2021-08-20T19:01:07Z</time>
      </trkpt>
      <trkpt lat="43.2636" lon="-1.35107">
        <ele>152.03</ele>
        <time>2021-08-20T19:01:08Z</time>
      </trkpt>
      <trkpt lat="43.26364" lon="-1.3511">
        <ele>152.03</ele>
        <time>2021-08-20T19:01:09Z</time>
      </trkpt>
      <trkpt lat="43.26368" lon="-1.35113">
        <ele>152.03</ele>
        <time>2021-08-20T19:01:10Z</time>
      </trkpt>
      <trkpt lat="43.26372" lon="-1.35115">
        <ele>152.03</ele>
        <time>2021-08-20T19:01:11Z</time>
      </trkpt>
      <trkpt lat="43.26391" lon="-1.35126">
        <ele>151.06</ele>
        <time>2021-08-20T19:01:15Z</time>
      </trkpt>
      <trkpt lat="43.2641" lon="-1.35137">
        <ele>151.06</ele>
        <time>2021-08-20T19:01:19Z</time>
      </trkpt>
      <trkpt lat="43.26415" lon="-1.35139">
        <ele>151.06</ele>
        <time>2021-08-20T19:01:20Z</time>
      </trkpt>
      <trkpt lat="43.26419" lon="-1.35139">
        <ele>151.06</ele>
        <time>2021-08-20T19:01:21Z</time>
      </trkpt>
      <trkpt lat="43.26424" lon="-1.35138">
        <ele>151.06</ele>
        <time>2021-08-20T19:01:22Z</time>
      </trkpt>
      <trkpt lat="43.26428" lon="-1.35137">
        <ele>151.06</ele>
        <time>2021-08-20T19:01:23Z</time>
      </trkpt>
      <trkpt lat="43.26432" lon="-1.35136">
        <ele>151.06</ele>
        <time>2021-08-20T19:01:24Z</time>
      </trkpt>
      <trkpt lat="43.26443" lon="-1.35132">
        <ele>152.51</ele>
        <time>2021-08-20T19:01:27Z</time>
      </trkpt>
      <trkpt lat="43.26481" lon="-1.35119">
        <ele>151.54</ele>
        <time>2021-08-20T19:01:36Z</time>
      </trkpt>
      <trkpt lat="43.2652" lon="-1.35092">
        <ele>149.62</ele>
        <time>2021-08-20T19:01:45Z</time>
      </trkpt>
      <trkpt lat="43.26526" lon="-1.35071">
        <ele>149.14</ele>
        <time>2021-08-20T19:01:50Z</time>
      </trkpt>
      <trkpt lat="43.26526" lon="-1.35064">
        <ele>149.14</ele>
        <time>2021-08-20T19:01:55Z</time>
      </trkpt>
      <trkpt lat="43.26526" lon="-1.35064">
        <ele>149.14</ele>
        <time>2021-08-20T19:02:04Z</time>
      </trkpt>
      <trkpt lat="43.26526" lon="-1.35064">
        <ele>149.14</ele>
        <time>2021-08-20T19:02:28Z</time>
      </trkpt>
      <trkpt lat="43.26526" lon="-1.35064">
        <ele>149.14</ele>
        <time>2021-08-20T19:02:45Z</time>
      </trkpt>
      <trkpt lat="43.26526" lon="-1.35064">
        <ele>149.14</ele>
        <time>2021-08-20T19:03:11Z</time>
      </trkpt>
      <trkpt lat="43.26526" lon="-1.35064">
        <ele>149.14</ele>
        <time>2021-08-20T19:03:39Z</time>
      </trkpt>
      <trkpt lat="43.26526" lon="-1.35063">
        <ele>149.14</ele>
        <time>2021-08-20T19:04:08Z</time>
      </trkpt>
      <trkpt lat="43.26525" lon="-1.35064">
        <ele>149.14</ele>
        <time>2021-08-20T19:04:30Z</time>
      </trkpt>
      <trkpt lat="43.26525" lon="-1.35065">
        <ele>148.66</ele>
        <time>2021-08-20T19:04:46Z</time>
      </trkpt>
      <trkpt lat="43.26525" lon="-1.35066">
        <ele>148.66</ele>
        <time>2021-08-20T19:05:15Z</time>
      </trkpt>
      <trkpt lat="43.26525" lon="-1.35065">
        <ele>148.66</ele>
        <time>2021-08-20T19:05:37Z</time>
      </trkpt>
      <trkpt lat="43.26524" lon="-1.35066">
        <ele>148.66</ele>
        <time>2021-08-20T19:05:56Z</time>
      </trkpt>
      <trkpt lat="43.26524" lon="-1.35066">
        <ele>148.18</ele>
        <time>2021-08-20T19:06:11Z</time>
      </trkpt>
      <trkpt lat="43.26522" lon="-1.35067">
        <ele>148.18</ele>
        <time>2021-08-20T19:06:33Z</time>
      </trkpt>
      <trkpt lat="43.26521" lon="-1.35066">
        <ele>148.18</ele>
        <time>2021-08-20T19:06:39Z</time>
      </trkpt>
      <trkpt lat="43.26522" lon="-1.35066">
        <ele>148.18</ele>
        <time>2021-08-20T19:06:47Z</time>
      </trkpt>
      <trkpt lat="43.26523" lon="-1.35065">
        <ele>148.18</ele>
        <time>2021-08-20T19:07:11Z</time>
      </trkpt>
      <trkpt lat="43.26524" lon="-1.35065">
        <ele>148.18</ele>
        <time>2021-08-20T19:07:27Z</time>
      </trkpt>
      <trkpt lat="43.26524" lon="-1.35065">
        <ele>148.18</ele>
        <time>2021-08-20T19:07:48Z</time>
      </trkpt>
      <trkpt lat="43.26525" lon="-1.35064">
        <ele>147.7</ele>
        <time>2021-08-20T19:08:07Z</time>
      </trkpt>
      <trkpt lat="43.26525" lon="-1.35065">
        <ele>147.7</ele>
        <time>2021-08-20T19:08:25Z</time>
      </trkpt>
      <trkpt lat="43.26525" lon="-1.35064">
        <ele>147.7</ele>
        <time>2021-08-20T19:08:49Z</time>
      </trkpt>
      <trkpt lat="43.26525" lon="-1.35063">
        <ele>147.7</ele>
        <time>2021-08-20T19:09:01Z</time>
      </trkpt>
      <trkpt lat="43.26524" lon="-1.35064">
        <ele>147.22</ele>
        <time>2021-08-20T19:09:24Z</time>
      </trkpt>
      <trkpt lat="43.26526" lon="-1.35064">
        <ele>147.22</ele>
        <time>2021-08-20T19:09:45Z</time>
      </trkpt>
      <trkpt lat="43.26525" lon="-1.35063">
        <ele>146.74</ele>
        <time>2021-08-20T19:10:04Z</time>
      </trkpt>
      <trkpt lat="43.26525" lon="-1.35066">
        <ele>146.74</ele>
        <time>2021-08-20T19:10:21Z</time>
      </trkpt>
      <trkpt lat="43.26525" lon="-1.35064">
        <ele>146.74</ele>
        <time>2021-08-20T19:10:38Z</time>
      </trkpt>
      <trkpt lat="43.26526" lon="-1.35064">
        <ele>146.74</ele>
        <time>2021-08-20T19:11:02Z</time>
      </trkpt>
      <trkpt lat="43.26527" lon="-1.35064">
        <ele>146.74</ele>
        <time>2021-08-20T19:11:06Z</time>
      </trkpt>
      <trkpt lat="43.26529" lon="-1.35058">
        <ele>146.74</ele>
        <time>2021-08-20T19:11:10Z</time>
      </trkpt>
      <trkpt lat="43.26527" lon="-1.35063">
        <ele>146.74</ele>
        <time>2021-08-20T19:11:23Z</time>
      </trkpt>
      <trkpt lat="43.26527" lon="-1.35063">
        <ele>146.74</ele>
        <time>2021-08-20T19:11:42Z</time>
      </trkpt>
      <trkpt lat="43.26527" lon="-1.35063">
        <ele>146.26</ele>
        <time>2021-08-20T19:11:54Z</time>
      </trkpt>
      <trkpt lat="43.26527" lon="-1.35063">
        <ele>146.26</ele>
        <time>2021-08-20T19:12:09Z</time>
      </trkpt>
      <trkpt lat="43.26527" lon="-1.35062">
        <ele>146.26</ele>
        <time>2021-08-20T19:12:27Z</time>
      </trkpt>
      <trkpt lat="43.26527" lon="-1.35063">
        <ele>146.26</ele>
        <time>2021-08-20T19:12:41Z</time>
      </trkpt>
      <trkpt lat="43.26525" lon="-1.35064">
        <ele>146.26</ele>
        <time>2021-08-20T19:13:02Z</time>
      </trkpt>
      <trkpt lat="43.26525" lon="-1.35066">
        <ele>146.26</ele>
        <time>2021-08-20T19:13:22Z</time>
      </trkpt>
      <trkpt lat="43.26524" lon="-1.35066">
        <ele>145.78</ele>
        <time>2021-08-20T19:13:39Z</time>
      </trkpt>
      <trkpt lat="43.26524" lon="-1.35067">
        <ele>145.78</ele>
        <time>2021-08-20T19:13:52Z</time>
      </trkpt>
      <trkpt lat="43.26525" lon="-1.35066">
        <ele>145.78</ele>
        <time>2021-08-20T19:14:07Z</time>
      </trkpt>
      <trkpt lat="43.26525" lon="-1.35066">
        <ele>145.78</ele>
        <time>2021-08-20T19:14:17Z</time>
      </trkpt>
      <trkpt lat="43.26525" lon="-1.35066">
        <ele>145.78</ele>
        <time>2021-08-20T19:14:26Z</time>
      </trkpt>
      <trkpt lat="43.26525" lon="-1.35064">
        <ele>145.78</ele>
        <time>2021-08-20T19:14:38Z</time>
      </trkpt>
      <trkpt lat="43.26527" lon="-1.3506">
        <ele>145.78</ele>
        <time>2021-08-20T19:14:41Z</time>
      </trkpt>
      <trkpt lat="43.26528" lon="-1.35055">
        <ele>145.78</ele>
        <time>2021-08-20T19:14:43Z</time>
      </trkpt>
      <trkpt lat="43.26529" lon="-1.35051">
        <ele>145.78</ele>
        <time>2021-08-20T19:14:44Z</time>
      </trkpt>
      <trkpt lat="43.2653" lon="-1.35033">
        <ele>145.3</ele>
        <time>2021-08-20T19:14:48Z</time>
      </trkpt>
      <trkpt lat="43.26539" lon="-1.3499">
        <ele>145.3</ele>
        <time>2021-08-20T19:14:55Z</time>
      </trkpt>
      <trkpt lat="43.26546" lon="-1.34935">
        <ele>145.3</ele>
        <time>2021-08-20T19:15:04Z</time>
      </trkpt>
      <trkpt lat="43.26547" lon="-1.3493">
        <ele>145.3</ele>
        <time>2021-08-20T19:15:05Z</time>
      </trkpt>
      <trkpt lat="43.26551" lon="-1.34912">
        <ele>145.3</ele>
        <time>2021-08-20T19:15:08Z</time>
      </trkpt>
      <trkpt lat="43.26556" lon="-1.34867">
        <ele>145.3</ele>
        <time>2021-08-20T19:15:16Z</time>
      </trkpt>
      <trkpt lat="43.26557" lon="-1.34862">
        <ele>145.3</ele>
        <time>2021-08-20T19:15:17Z</time>
      </trkpt>
      <trkpt lat="43.26558" lon="-1.34856">
        <ele>145.3</ele>
        <time>2021-08-20T19:15:18Z</time>
      </trkpt>
      <trkpt lat="43.26571" lon="-1.34811">
        <ele>145.3</ele>
        <time>2021-08-20T19:15:26Z</time>
      </trkpt>
      <trkpt lat="43.26579" lon="-1.34777">
        <ele>145.3</ele>
        <time>2021-08-20T19:15:31Z</time>
      </trkpt>
      <trkpt lat="43.26579" lon="-1.34769">
        <ele>145.3</ele>
        <time>2021-08-20T19:15:32Z</time>
      </trkpt>
      <trkpt lat="43.26577" lon="-1.34762">
        <ele>144.82</ele>
        <time>2021-08-20T19:15:33Z</time>
      </trkpt>
      <trkpt lat="43.26573" lon="-1.34745">
        <ele>141.93</ele>
        <time>2021-08-20T19:15:35Z</time>
      </trkpt>
      <trkpt lat="43.2657" lon="-1.34725">
        <ele>138.57</ele>
        <time>2021-08-20T19:15:37Z</time>
      </trkpt>
      <trkpt lat="43.26568" lon="-1.34714">
        <ele>136.64</ele>
        <time>2021-08-20T19:15:38Z</time>
      </trkpt>
      <trkpt lat="43.26565" lon="-1.34704">
        <ele>134.72</ele>
        <time>2021-08-20T19:15:39Z</time>
      </trkpt>
      <trkpt lat="43.26562" lon="-1.34695">
        <ele>133.28</ele>
        <time>2021-08-20T19:15:40Z</time>
      </trkpt>
      <trkpt lat="43.26557" lon="-1.34685">
        <ele>130.88</ele>
        <time>2021-08-20T19:15:41Z</time>
      </trkpt>
      <trkpt lat="43.26552" lon="-1.34678">
        <ele>129.92</ele>
        <time>2021-08-20T19:15:42Z</time>
      </trkpt>
      <trkpt lat="43.26546" lon="-1.3467">
        <ele>128.95</ele>
        <time>2021-08-20T19:15:43Z</time>
      </trkpt>
      <trkpt lat="43.2653" lon="-1.34648">
        <ele>125.11</ele>
        <time>2021-08-20T19:15:46Z</time>
      </trkpt>
      <trkpt lat="43.26522" lon="-1.34635">
        <ele>122.22</ele>
        <time>2021-08-20T19:15:48Z</time>
      </trkpt>
      <trkpt lat="43.2652" lon="-1.34628">
        <ele>120.78</ele>
        <time>2021-08-20T19:15:49Z</time>
      </trkpt>
      <trkpt lat="43.26519" lon="-1.3462">
        <ele>119.34</ele>
        <time>2021-08-20T19:15:50Z</time>
      </trkpt>
      <trkpt lat="43.26521" lon="-1.34611">
        <ele>118.38</ele>
        <time>2021-08-20T19:15:51Z</time>
      </trkpt>
      <trkpt lat="43.26525" lon="-1.34603">
        <ele>116.94</ele>
        <time>2021-08-20T19:15:52Z</time>
      </trkpt>
      <trkpt lat="43.26529" lon="-1.34594">
        <ele>115.5</ele>
        <time>2021-08-20T19:15:53Z</time>
      </trkpt>
      <trkpt lat="43.2655" lon="-1.34542">
        <ele>112.61</ele>
        <time>2021-08-20T19:15:58Z</time>
      </trkpt>
      <trkpt lat="43.26568" lon="-1.34489">
        <ele>111.65</ele>
        <time>2021-08-20T19:16:03Z</time>
      </trkpt>
      <trkpt lat="43.26573" lon="-1.34479">
        <ele>111.65</ele>
        <time>2021-08-20T19:16:04Z</time>
      </trkpt>
      <trkpt lat="43.26578" lon="-1.34473">
        <ele>111.65</ele>
        <time>2021-08-20T19:16:05Z</time>
      </trkpt>
      <trkpt lat="43.26585" lon="-1.34468">
        <ele>111.17</ele>
        <time>2021-08-20T19:16:06Z</time>
      </trkpt>
      <trkpt lat="43.26592" lon="-1.34464">
        <ele>111.17</ele>
        <time>2021-08-20T19:16:07Z</time>
      </trkpt>
      <trkpt lat="43.26605" lon="-1.34458">
        <ele>111.17</ele>
        <time>2021-08-20T19:16:09Z</time>
      </trkpt>
      <trkpt lat="43.26611" lon="-1.34455">
        <ele>111.17</ele>
        <time>2021-08-20T19:16:10Z</time>
      </trkpt>
      <trkpt lat="43.26623" lon="-1.34452">
        <ele>110.21</ele>
        <time>2021-08-20T19:16:12Z</time>
      </trkpt>
      <trkpt lat="43.26629" lon="-1.34451">
        <ele>109.25</ele>
        <time>2021-08-20T19:16:13Z</time>
      </trkpt>
      <trkpt lat="43.26636" lon="-1.34451">
        <ele>108.29</ele>
        <time>2021-08-20T19:16:14Z</time>
      </trkpt>
      <trkpt lat="43.26643" lon="-1.34452">
        <ele>107.32</ele>
        <time>2021-08-20T19:16:15Z</time>
      </trkpt>
      <trkpt lat="43.2665" lon="-1.34454">
        <ele>105.88</ele>
        <time>2021-08-20T19:16:16Z</time>
      </trkpt>
      <trkpt lat="43.26665" lon="-1.34458">
        <ele>103</ele>
        <time>2021-08-20T19:16:18Z</time>
      </trkpt>
      <trkpt lat="43.26672" lon="-1.3446">
        <ele>101.08</ele>
        <time>2021-08-20T19:16:19Z</time>
      </trkpt>
      <trkpt lat="43.26679" lon="-1.34463">
        <ele>99.63</ele>
        <time>2021-08-20T19:16:20Z</time>
      </trkpt>
      <trkpt lat="43.26685" lon="-1.34467">
        <ele>98.67</ele>
        <time>2021-08-20T19:16:21Z</time>
      </trkpt>
      <trkpt lat="43.26699" lon="-1.34477">
        <ele>95.31</ele>
        <time>2021-08-20T19:16:24Z</time>
      </trkpt>
      <trkpt lat="43.26713" lon="-1.34487">
        <ele>91.94</ele>
        <time>2021-08-20T19:16:27Z</time>
      </trkpt>
      <trkpt lat="43.26717" lon="-1.3449">
        <ele>90.5</ele>
        <time>2021-08-20T19:16:28Z</time>
      </trkpt>
      <trkpt lat="43.26727" lon="-1.34494">
        <ele>88.58</ele>
        <time>2021-08-20T19:16:30Z</time>
      </trkpt>
      <trkpt lat="43.26733" lon="-1.34499">
        <ele>87.14</ele>
        <time>2021-08-20T19:16:31Z</time>
      </trkpt>
      <trkpt lat="43.26737" lon="-1.34505">
        <ele>86.18</ele>
        <time>2021-08-20T19:16:32Z</time>
      </trkpt>
      <trkpt lat="43.26742" lon="-1.34512">
        <ele>85.69</ele>
        <time>2021-08-20T19:16:33Z</time>
      </trkpt>
      <trkpt lat="43.26746" lon="-1.3452">
        <ele>85.69</ele>
        <time>2021-08-20T19:16:34Z</time>
      </trkpt>
      <trkpt lat="43.2675" lon="-1.34528">
        <ele>85.69</ele>
        <time>2021-08-20T19:16:35Z</time>
      </trkpt>
      <trkpt lat="43.26754" lon="-1.34536">
        <ele>85.21</ele>
        <time>2021-08-20T19:16:36Z</time>
      </trkpt>
      <trkpt lat="43.26766" lon="-1.34565">
        <ele>85.21</ele>
        <time>2021-08-20T19:16:40Z</time>
      </trkpt>
      <trkpt lat="43.26793" lon="-1.34611">
        <ele>84.25</ele>
        <time>2021-08-20T19:16:47Z</time>
      </trkpt>
      <trkpt lat="43.26825" lon="-1.34665">
        <ele>82.81</ele>
        <time>2021-08-20T19:16:55Z</time>
      </trkpt>
      <trkpt lat="43.26861" lon="-1.34715">
        <ele>81.85</ele>
        <time>2021-08-20T19:17:04Z</time>
      </trkpt>
      <trkpt lat="43.26874" lon="-1.34735">
        <ele>84.25</ele>
        <time>2021-08-20T19:17:10Z</time>
      </trkpt>
      <trkpt lat="43.26882" lon="-1.34747">
        <ele>84.25</ele>
        <time>2021-08-20T19:17:13Z</time>
      </trkpt>
      <trkpt lat="43.26911" lon="-1.34781">
        <ele>81.37</ele>
        <time>2021-08-20T19:17:20Z</time>
      </trkpt>
      <trkpt lat="43.26915" lon="-1.34787">
        <ele>81.37</ele>
        <time>2021-08-20T19:17:21Z</time>
      </trkpt>
      <trkpt lat="43.26918" lon="-1.34793">
        <ele>81.37</ele>
        <time>2021-08-20T19:17:22Z</time>
      </trkpt>
      <trkpt lat="43.26921" lon="-1.34799">
        <ele>81.37</ele>
        <time>2021-08-20T19:17:23Z</time>
      </trkpt>
      <trkpt lat="43.26925" lon="-1.34811">
        <ele>81.37</ele>
        <time>2021-08-20T19:17:25Z</time>
      </trkpt>
      <trkpt lat="43.26926" lon="-1.34817">
        <ele>81.37</ele>
        <time>2021-08-20T19:17:26Z</time>
      </trkpt>
      <trkpt lat="43.26926" lon="-1.34823">
        <ele>81.37</ele>
        <time>2021-08-20T19:17:27Z</time>
      </trkpt>
      <trkpt lat="43.26925" lon="-1.3483">
        <ele>81.37</ele>
        <time>2021-08-20T19:17:28Z</time>
      </trkpt>
      <trkpt lat="43.26923" lon="-1.34837">
        <ele>81.37</ele>
        <time>2021-08-20T19:17:29Z</time>
      </trkpt>
      <trkpt lat="43.26921" lon="-1.34844">
        <ele>81.37</ele>
        <time>2021-08-20T19:17:30Z</time>
      </trkpt>
      <trkpt lat="43.26919" lon="-1.34852">
        <ele>81.37</ele>
        <time>2021-08-20T19:17:31Z</time>
      </trkpt>
      <trkpt lat="43.26914" lon="-1.34912">
        <ele>81.37</ele>
        <time>2021-08-20T19:17:39Z</time>
      </trkpt>
      <trkpt lat="43.26913" lon="-1.34918">
        <ele>81.37</ele>
        <time>2021-08-20T19:17:40Z</time>
      </trkpt>
      <trkpt lat="43.26912" lon="-1.34924">
        <ele>81.37</ele>
        <time>2021-08-20T19:17:41Z</time>
      </trkpt>
      <trkpt lat="43.26912" lon="-1.34959">
        <ele>83.29</ele>
        <time>2021-08-20T19:17:49Z</time>
      </trkpt>
      <trkpt lat="43.26917" lon="-1.34969">
        <ele>84.25</ele>
        <time>2021-08-20T19:17:52Z</time>
      </trkpt>
      <trkpt lat="43.26921" lon="-1.3497">
        <ele>84.73</ele>
        <time>2021-08-20T19:17:53Z</time>
      </trkpt>
      <trkpt lat="43.26945" lon="-1.34976">
        <ele>85.21</ele>
        <time>2021-08-20T19:18:00Z</time>
      </trkpt>
      <trkpt lat="43.26948" lon="-1.34979">
        <ele>85.21</ele>
        <time>2021-08-20T19:18:01Z</time>
      </trkpt>
      <trkpt lat="43.26951" lon="-1.34984">
        <ele>83.77</ele>
        <time>2021-08-20T19:18:02Z</time>
      </trkpt>
      <trkpt lat="43.26953" lon="-1.34988">
        <ele>83.29</ele>
        <time>2021-08-20T19:18:03Z</time>
      </trkpt>
      <trkpt lat="43.26956" lon="-1.34993">
        <ele>83.29</ele>
        <time>2021-08-20T19:18:04Z</time>
      </trkpt>
      <trkpt lat="43.26958" lon="-1.34999">
        <ele>83.29</ele>
        <time>2021-08-20T19:18:05Z</time>
      </trkpt>
      <trkpt lat="43.26959" lon="-1.35004">
        <ele>83.29</ele>
        <time>2021-08-20T19:18:06Z</time>
      </trkpt>
      <trkpt lat="43.26961" lon="-1.35009">
        <ele>83.29</ele>
        <time>2021-08-20T19:18:07Z</time>
      </trkpt>
      <trkpt lat="43.26962" lon="-1.35013">
        <ele>83.29</ele>
        <time>2021-08-20T19:18:08Z</time>
      </trkpt>
      <trkpt lat="43.26963" lon="-1.35017">
        <ele>83.29</ele>
        <time>2021-08-20T19:18:09Z</time>
      </trkpt>
      <trkpt lat="43.26964" lon="-1.3502">
        <ele>83.29</ele>
        <time>2021-08-20T19:18:10Z</time>
      </trkpt>
      <trkpt lat="43.26966" lon="-1.35022">
        <ele>83.29</ele>
        <time>2021-08-20T19:18:11Z</time>
      </trkpt>
      <trkpt lat="43.26969" lon="-1.35023">
        <ele>83.29</ele>
        <time>2021-08-20T19:18:12Z</time>
      </trkpt>
      <trkpt lat="43.26994" lon="-1.35029">
        <ele>84.25</ele>
        <time>2021-08-20T19:18:19Z</time>
      </trkpt>
      <trkpt lat="43.26998" lon="-1.3503">
        <ele>84.25</ele>
        <time>2021-08-20T19:18:20Z</time>
      </trkpt>
      <trkpt lat="43.27031" lon="-1.35036">
        <ele>84.25</ele>
        <time>2021-08-20T19:18:28Z</time>
      </trkpt>
      <trkpt lat="43.27064" lon="-1.3503">
        <ele>84.25</ele>
        <time>2021-08-20T19:18:36Z</time>
      </trkpt>
      <trkpt lat="43.27073" lon="-1.35026">
        <ele>84.25</ele>
        <time>2021-08-20T19:18:38Z</time>
      </trkpt>
      <trkpt lat="43.27077" lon="-1.35023">
        <ele>84.25</ele>
        <time>2021-08-20T19:18:39Z</time>
      </trkpt>
      <trkpt lat="43.2708" lon="-1.3502">
        <ele>84.25</ele>
        <time>2021-08-20T19:18:40Z</time>
      </trkpt>
      <trkpt lat="43.27082" lon="-1.35017">
        <ele>84.25</ele>
        <time>2021-08-20T19:18:41Z</time>
      </trkpt>
      <trkpt lat="43.27084" lon="-1.35015">
        <ele>84.73</ele>
        <time>2021-08-20T19:18:42Z</time>
      </trkpt>
      <trkpt lat="43.27085" lon="-1.35013">
        <ele>85.21</ele>
        <time>2021-08-20T19:18:43Z</time>
      </trkpt>
      <trkpt lat="43.27087" lon="-1.3501">
        <ele>85.69</ele>
        <time>2021-08-20T19:18:48Z</time>
      </trkpt>
      <trkpt lat="43.2709" lon="-1.35002">
        <ele>86.66</ele>
        <time>2021-08-20T19:18:58Z</time>
      </trkpt>
      <trkpt lat="43.27093" lon="-1.34993">
        <ele>88.58</ele>
        <time>2021-08-20T19:19:07Z</time>
      </trkpt>
      <trkpt lat="43.27101" lon="-1.34986">
        <ele>90.02</ele>
        <time>2021-08-20T19:19:18Z</time>
      </trkpt>
      <trkpt lat="43.27109" lon="-1.34985">
        <ele>91.94</ele>
        <time>2021-08-20T19:19:26Z</time>
      </trkpt>
      <trkpt lat="43.2712" lon="-1.34986">
        <ele>93.87</ele>
        <time>2021-08-20T19:19:37Z</time>
      </trkpt>
      <trkpt lat="43.27129" lon="-1.34987">
        <ele>95.31</ele>
        <time>2021-08-20T19:19:47Z</time>
      </trkpt>
      <trkpt lat="43.27139" lon="-1.34989">
        <ele>97.23</ele>
        <time>2021-08-20T19:19:58Z</time>
      </trkpt>
      <trkpt lat="43.27147" lon="-1.34992">
        <ele>98.67</ele>
        <time>2021-08-20T19:20:08Z</time>
      </trkpt>
      <trkpt lat="43.27154" lon="-1.34997">
        <ele>100.11</ele>
        <time>2021-08-20T19:20:17Z</time>
      </trkpt>
      <trkpt lat="43.27161" lon="-1.35001">
        <ele>101.08</ele>
        <time>2021-08-20T19:20:26Z</time>
      </trkpt>
      <trkpt lat="43.27171" lon="-1.35004">
        <ele>102.52</ele>
        <time>2021-08-20T19:20:36Z</time>
      </trkpt>
      <trkpt lat="43.27173" lon="-1.35003">
        <ele>103</ele>
        <time>2021-08-20T19:20:42Z</time>
      </trkpt>
      <trkpt lat="43.27179" lon="-1.35008">
        <ele>103</ele>
        <time>2021-08-20T19:20:47Z</time>
      </trkpt>
      <trkpt lat="43.27181" lon="-1.35012">
        <ele>103</ele>
        <time>2021-08-20T19:20:48Z</time>
      </trkpt>
      <trkpt lat="43.27191" lon="-1.35045">
        <ele>103</ele>
        <time>2021-08-20T19:20:56Z</time>
      </trkpt>
      <trkpt lat="43.27191" lon="-1.35065">
        <ele>104.44</ele>
        <time>2021-08-20T19:21:02Z</time>
      </trkpt>
      <trkpt lat="43.27198" lon="-1.35084">
        <ele>104.92</ele>
        <time>2021-08-20T19:21:08Z</time>
      </trkpt>
      <trkpt lat="43.27205" lon="-1.35097">
        <ele>103.48</ele>
        <time>2021-08-20T19:21:11Z</time>
      </trkpt>
      <trkpt lat="43.27226" lon="-1.35135">
        <ele>99.63</ele>
        <time>2021-08-20T19:21:17Z</time>
      </trkpt>
      <trkpt lat="43.2725" lon="-1.35163">
        <ele>95.31</ele>
        <time>2021-08-20T19:21:21Z</time>
      </trkpt>
      <trkpt lat="43.27285" lon="-1.35188">
        <ele>90.5</ele>
        <time>2021-08-20T19:21:26Z</time>
      </trkpt>
      <trkpt lat="43.27333" lon="-1.35225">
        <ele>89.54</ele>
        <time>2021-08-20T19:21:34Z</time>
      </trkpt>
      <trkpt lat="43.27343" lon="-1.35237">
        <ele>89.54</ele>
        <time>2021-08-20T19:21:36Z</time>
      </trkpt>
      <trkpt lat="43.27349" lon="-1.35241">
        <ele>89.06</ele>
        <time>2021-08-20T19:21:37Z</time>
      </trkpt>
      <trkpt lat="43.27356" lon="-1.35242">
        <ele>88.58</ele>
        <time>2021-08-20T19:21:38Z</time>
      </trkpt>
      <trkpt lat="43.27361" lon="-1.3524">
        <ele>88.1</ele>
        <time>2021-08-20T19:21:39Z</time>
      </trkpt>
      <trkpt lat="43.27367" lon="-1.35238">
        <ele>87.62</ele>
        <time>2021-08-20T19:21:40Z</time>
      </trkpt>
      <trkpt lat="43.27372" lon="-1.35236">
        <ele>87.14</ele>
        <time>2021-08-20T19:21:41Z</time>
      </trkpt>
      <trkpt lat="43.27378" lon="-1.35235">
        <ele>87.14</ele>
        <time>2021-08-20T19:21:42Z</time>
      </trkpt>
      <trkpt lat="43.27385" lon="-1.35235">
        <ele>87.14</ele>
        <time>2021-08-20T19:21:43Z</time>
      </trkpt>
      <trkpt lat="43.27427" lon="-1.35242">
        <ele>86.18</ele>
        <time>2021-08-20T19:21:51Z</time>
      </trkpt>
      <trkpt lat="43.27433" lon="-1.35244">
        <ele>86.18</ele>
        <time>2021-08-20T19:21:52Z</time>
      </trkpt>
      <trkpt lat="43.27446" lon="-1.35249">
        <ele>84.73</ele>
        <time>2021-08-20T19:21:54Z</time>
      </trkpt>
      <trkpt lat="43.27464" lon="-1.35257">
        <ele>84.73</ele>
        <time>2021-08-20T19:21:57Z</time>
      </trkpt>
      <trkpt lat="43.2747" lon="-1.35257">
        <ele>84.73</ele>
        <time>2021-08-20T19:21:58Z</time>
      </trkpt>
      <trkpt lat="43.27475" lon="-1.35257">
        <ele>85.69</ele>
        <time>2021-08-20T19:21:59Z</time>
      </trkpt>
      <trkpt lat="43.27492" lon="-1.35255">
        <ele>87.14</ele>
        <time>2021-08-20T19:22:03Z</time>
      </trkpt>
      <trkpt lat="43.27522" lon="-1.3526">
        <ele>89.54</ele>
        <time>2021-08-20T19:22:11Z</time>
      </trkpt>
      <trkpt lat="43.27537" lon="-1.35265">
        <ele>90.98</ele>
        <time>2021-08-20T19:22:18Z</time>
      </trkpt>
      <trkpt lat="43.27559" lon="-1.35271">
        <ele>91.46</ele>
        <time>2021-08-20T19:22:25Z</time>
      </trkpt>
      <trkpt lat="43.27592" lon="-1.35281">
        <ele>91.46</ele>
        <time>2021-08-20T19:22:33Z</time>
      </trkpt>
      <trkpt lat="43.27629" lon="-1.35301">
        <ele>91.46</ele>
        <time>2021-08-20T19:22:42Z</time>
      </trkpt>
      <trkpt lat="43.27663" lon="-1.35326">
        <ele>91.46</ele>
        <time>2021-08-20T19:22:50Z</time>
      </trkpt>
      <trkpt lat="43.27687" lon="-1.35342">
        <ele>90.02</ele>
        <time>2021-08-20T19:22:55Z</time>
      </trkpt>
      <trkpt lat="43.27706" lon="-1.35361">
        <ele>90.02</ele>
        <time>2021-08-20T19:23:00Z</time>
      </trkpt>
      <trkpt lat="43.2771" lon="-1.35365">
        <ele>89.54</ele>
        <time>2021-08-20T19:23:01Z</time>
      </trkpt>
      <trkpt lat="43.2775" lon="-1.35407">
        <ele>87.62</ele>
        <time>2021-08-20T19:23:10Z</time>
      </trkpt>
      <trkpt lat="43.2778" lon="-1.35429">
        <ele>83.77</ele>
        <time>2021-08-20T19:23:15Z</time>
      </trkpt>
      <trkpt lat="43.27802" lon="-1.35446">
        <ele>80.41</ele>
        <time>2021-08-20T19:23:18Z</time>
      </trkpt>
      <trkpt lat="43.27846" lon="-1.35462">
        <ele>77.04</ele>
        <time>2021-08-20T19:23:23Z</time>
      </trkpt>
      <trkpt lat="43.27863" lon="-1.35465">
        <ele>75.6</ele>
        <time>2021-08-20T19:23:25Z</time>
      </trkpt>
      <trkpt lat="43.27872" lon="-1.35469">
        <ele>75.12</ele>
        <time>2021-08-20T19:23:26Z</time>
      </trkpt>
      <trkpt lat="43.2788" lon="-1.35473">
        <ele>75.12</ele>
        <time>2021-08-20T19:23:27Z</time>
      </trkpt>
      <trkpt lat="43.27904" lon="-1.3549">
        <ele>73.68</ele>
        <time>2021-08-20T19:23:30Z</time>
      </trkpt>
      <trkpt lat="43.27947" lon="-1.35522">
        <ele>73.2</ele>
        <time>2021-08-20T19:23:36Z</time>
      </trkpt>
      <trkpt lat="43.27953" lon="-1.35526">
        <ele>73.2</ele>
        <time>2021-08-20T19:23:37Z</time>
      </trkpt>
      <trkpt lat="43.28002" lon="-1.35541">
        <ele>72.72</ele>
        <time>2021-08-20T19:23:44Z</time>
      </trkpt>
      <trkpt lat="43.28049" lon="-1.35549">
        <ele>72.72</ele>
        <time>2021-08-20T19:23:52Z</time>
      </trkpt>
      <trkpt lat="43.28086" lon="-1.35555">
        <ele>72.72</ele>
        <time>2021-08-20T19:23:59Z</time>
      </trkpt>
      <trkpt lat="43.28132" lon="-1.35552">
        <ele>72.72</ele>
        <time>2021-08-20T19:24:07Z</time>
      </trkpt>
      <trkpt lat="43.2815" lon="-1.3555">
        <ele>72.24</ele>
        <time>2021-08-20T19:24:10Z</time>
      </trkpt>
      <trkpt lat="43.28155" lon="-1.3555">
        <ele>72.24</ele>
        <time>2021-08-20T19:24:11Z</time>
      </trkpt>
      <trkpt lat="43.28161" lon="-1.35552">
        <ele>72.24</ele>
        <time>2021-08-20T19:24:12Z</time>
      </trkpt>
      <trkpt lat="43.282" lon="-1.35561">
        <ele>71.76</ele>
        <time>2021-08-20T19:24:20Z</time>
      </trkpt>
      <trkpt lat="43.28241" lon="-1.35567">
        <ele>71.27</ele>
        <time>2021-08-20T19:24:28Z</time>
      </trkpt>
      <trkpt lat="43.28286" lon="-1.35569">
        <ele>70.79</ele>
        <time>2021-08-20T19:24:36Z</time>
      </trkpt>
      <trkpt lat="43.28316" lon="-1.35569">
        <ele>70.79</ele>
        <time>2021-08-20T19:24:42Z</time>
      </trkpt>
      <trkpt lat="43.28356" lon="-1.35574">
        <ele>71.76</ele>
        <time>2021-08-20T19:24:50Z</time>
      </trkpt>
      <trkpt lat="43.28404" lon="-1.35571">
        <ele>71.76</ele>
        <time>2021-08-20T19:25:00Z</time>
      </trkpt>
      <trkpt lat="43.28426" lon="-1.35568">
        <ele>74.16</ele>
        <time>2021-08-20T19:25:07Z</time>
      </trkpt>
      <trkpt lat="43.28442" lon="-1.35565">
        <ele>74.64</ele>
        <time>2021-08-20T19:25:15Z</time>
      </trkpt>
      <trkpt lat="43.28448" lon="-1.35563">
        <ele>76.08</ele>
        <time>2021-08-20T19:25:21Z</time>
      </trkpt>
      <trkpt lat="43.28461" lon="-1.35561">
        <ele>77.52</ele>
        <time>2021-08-20T19:25:32Z</time>
      </trkpt>
      <trkpt lat="43.28471" lon="-1.35562">
        <ele>78.97</ele>
        <time>2021-08-20T19:25:42Z</time>
      </trkpt>
      <trkpt lat="43.28483" lon="-1.35564">
        <ele>80.89</ele>
        <time>2021-08-20T19:25:53Z</time>
      </trkpt>
      <trkpt lat="43.28494" lon="-1.35566">
        <ele>80.89</ele>
        <time>2021-08-20T19:26:01Z</time>
      </trkpt>
      <trkpt lat="43.28496" lon="-1.35567">
        <ele>81.37</ele>
        <time>2021-08-20T19:26:02Z</time>
      </trkpt>
      <trkpt lat="43.28497" lon="-1.35567">
        <ele>81.37</ele>
        <time>2021-08-20T19:26:03Z</time>
      </trkpt>
      <trkpt lat="43.28498" lon="-1.35567">
        <ele>81.85</ele>
        <time>2021-08-20T19:26:04Z</time>
      </trkpt>
      <trkpt lat="43.28506" lon="-1.35566">
        <ele>82.33</ele>
        <time>2021-08-20T19:26:10Z</time>
      </trkpt>
      <trkpt lat="43.2852" lon="-1.35561">
        <ele>83.77</ele>
        <time>2021-08-20T19:26:22Z</time>
      </trkpt>
      <trkpt lat="43.28532" lon="-1.35556">
        <ele>85.21</ele>
        <time>2021-08-20T19:26:32Z</time>
      </trkpt>
      <trkpt lat="43.28543" lon="-1.35548">
        <ele>86.66</ele>
        <time>2021-08-20T19:26:43Z</time>
      </trkpt>
      <trkpt lat="43.28551" lon="-1.35539">
        <ele>88.1</ele>
        <time>2021-08-20T19:26:53Z</time>
      </trkpt>
      <trkpt lat="43.28556" lon="-1.35528">
        <ele>90.5</ele>
        <time>2021-08-20T19:27:05Z</time>
      </trkpt>
      <trkpt lat="43.28559" lon="-1.3552">
        <ele>91.94</ele>
        <time>2021-08-20T19:27:14Z</time>
      </trkpt>
      <trkpt lat="43.28562" lon="-1.35512">
        <ele>93.39</ele>
        <time>2021-08-20T19:27:23Z</time>
      </trkpt>
      <trkpt lat="43.28565" lon="-1.35502">
        <ele>94.83</ele>
        <time>2021-08-20T19:27:31Z</time>
      </trkpt>
      <trkpt lat="43.28571" lon="-1.3549">
        <ele>95.79</ele>
        <time>2021-08-20T19:27:40Z</time>
      </trkpt>
      <trkpt lat="43.28573" lon="-1.35487">
        <ele>96.27</ele>
        <time>2021-08-20T19:27:46Z</time>
      </trkpt>
      <trkpt lat="43.2858" lon="-1.35479">
        <ele>96.27</ele>
        <time>2021-08-20T19:27:52Z</time>
      </trkpt>
      <trkpt lat="43.2859" lon="-1.35467">
        <ele>97.23</ele>
        <time>2021-08-20T19:27:59Z</time>
      </trkpt>
      <trkpt lat="43.28601" lon="-1.35452">
        <ele>98.67</ele>
        <time>2021-08-20T19:28:07Z</time>
      </trkpt>
      <trkpt lat="43.28612" lon="-1.35437">
        <ele>99.63</ele>
        <time>2021-08-20T19:28:15Z</time>
      </trkpt>
      <trkpt lat="43.28619" lon="-1.35427">
        <ele>99.63</ele>
        <time>2021-08-20T19:28:20Z</time>
      </trkpt>
      <trkpt lat="43.2863" lon="-1.35402">
        <ele>100.11</ele>
        <time>2021-08-20T19:28:28Z</time>
      </trkpt>
      <trkpt lat="43.28632" lon="-1.35396">
        <ele>100.11</ele>
        <time>2021-08-20T19:28:30Z</time>
      </trkpt>
      <trkpt lat="43.28633" lon="-1.35393">
        <ele>101.08</ele>
        <time>2021-08-20T19:28:31Z</time>
      </trkpt>
      <trkpt lat="43.28634" lon="-1.3539">
        <ele>101.08</ele>
        <time>2021-08-20T19:28:32Z</time>
      </trkpt>
      <trkpt lat="43.28645" lon="-1.35362">
        <ele>101.08</ele>
        <time>2021-08-20T19:28:40Z</time>
      </trkpt>
      <trkpt lat="43.28657" lon="-1.35343">
        <ele>101.56</ele>
        <time>2021-08-20T19:28:47Z</time>
      </trkpt>
      <trkpt lat="43.28676" lon="-1.35328">
        <ele>102.52</ele>
        <time>2021-08-20T19:28:55Z</time>
      </trkpt>
      <trkpt lat="43.28701" lon="-1.35323">
        <ele>102.52</ele>
        <time>2021-08-20T19:29:04Z</time>
      </trkpt>
      <trkpt lat="43.2872" lon="-1.35323">
        <ele>103.96</ele>
        <time>2021-08-20T19:29:12Z</time>
      </trkpt>
      <trkpt lat="43.28738" lon="-1.35327">
        <ele>104.44</ele>
        <time>2021-08-20T19:29:20Z</time>
      </trkpt>
      <trkpt lat="43.28755" lon="-1.35333">
        <ele>104.92</ele>
        <time>2021-08-20T19:29:27Z</time>
      </trkpt>
      <trkpt lat="43.28774" lon="-1.35341">
        <ele>104.92</ele>
        <time>2021-08-20T19:29:35Z</time>
      </trkpt>
      <trkpt lat="43.28785" lon="-1.35346">
        <ele>106.84</ele>
        <time>2021-08-20T19:29:41Z</time>
      </trkpt>
      <trkpt lat="43.28799" lon="-1.35351">
        <ele>107.81</ele>
        <time>2021-08-20T19:29:48Z</time>
      </trkpt>
      <trkpt lat="43.2882" lon="-1.35358">
        <ele>108.29</ele>
        <time>2021-08-20T19:29:56Z</time>
      </trkpt>
      <trkpt lat="43.28844" lon="-1.35366">
        <ele>105.4</ele>
        <time>2021-08-20T19:30:03Z</time>
      </trkpt>
      <trkpt lat="43.28855" lon="-1.3537">
        <ele>104.44</ele>
        <time>2021-08-20T19:30:05Z</time>
      </trkpt>
      <trkpt lat="43.28862" lon="-1.35373">
        <ele>103.48</ele>
        <time>2021-08-20T19:30:06Z</time>
      </trkpt>
      <trkpt lat="43.28905" lon="-1.35399">
        <ele>100.6</ele>
        <time>2021-08-20T19:30:13Z</time>
      </trkpt>
      <trkpt lat="43.2891" lon="-1.35404">
        <ele>100.6</ele>
        <time>2021-08-20T19:30:14Z</time>
      </trkpt>
      <trkpt lat="43.28914" lon="-1.35409">
        <ele>100.6</ele>
        <time>2021-08-20T19:30:15Z</time>
      </trkpt>
      <trkpt lat="43.28917" lon="-1.35414">
        <ele>99.63</ele>
        <time>2021-08-20T19:30:16Z</time>
      </trkpt>
      <trkpt lat="43.2892" lon="-1.35421">
        <ele>99.15</ele>
        <time>2021-08-20T19:30:17Z</time>
      </trkpt>
      <trkpt lat="43.28922" lon="-1.35429">
        <ele>98.67</ele>
        <time>2021-08-20T19:30:18Z</time>
      </trkpt>
      <trkpt lat="43.28923" lon="-1.35438">
        <ele>98.19</ele>
        <time>2021-08-20T19:30:19Z</time>
      </trkpt>
      <trkpt lat="43.28925" lon="-1.35447">
        <ele>97.71</ele>
        <time>2021-08-20T19:30:20Z</time>
      </trkpt>
      <trkpt lat="43.28927" lon="-1.35456">
        <ele>96.75</ele>
        <time>2021-08-20T19:30:21Z</time>
      </trkpt>
      <trkpt lat="43.28929" lon="-1.35464">
        <ele>96.75</ele>
        <time>2021-08-20T19:30:22Z</time>
      </trkpt>
      <trkpt lat="43.28932" lon="-1.35472">
        <ele>96.27</ele>
        <time>2021-08-20T19:30:23Z</time>
      </trkpt>
      <trkpt lat="43.28935" lon="-1.35477">
        <ele>96.27</ele>
        <time>2021-08-20T19:30:24Z</time>
      </trkpt>
      <trkpt lat="43.28938" lon="-1.3548">
        <ele>96.75</ele>
        <time>2021-08-20T19:30:25Z</time>
      </trkpt>
      <trkpt lat="43.28941" lon="-1.3548">
        <ele>96.75</ele>
        <time>2021-08-20T19:30:26Z</time>
      </trkpt>
      <trkpt lat="43.28944" lon="-1.35479">
        <ele>97.71</ele>
        <time>2021-08-20T19:30:27Z</time>
      </trkpt>
      <trkpt lat="43.28946" lon="-1.35477">
        <ele>97.71</ele>
        <time>2021-08-20T19:30:28Z</time>
      </trkpt>
      <trkpt lat="43.28948" lon="-1.35475">
        <ele>98.67</ele>
        <time>2021-08-20T19:30:29Z</time>
      </trkpt>
      <trkpt lat="43.28959" lon="-1.3546">
        <ele>100.6</ele>
        <time>2021-08-20T19:30:36Z</time>
      </trkpt>
      <trkpt lat="43.28976" lon="-1.35452">
        <ele>102.04</ele>
        <time>2021-08-20T19:30:44Z</time>
      </trkpt>
      <trkpt lat="43.28992" lon="-1.35454">
        <ele>102.52</ele>
        <time>2021-08-20T19:30:51Z</time>
      </trkpt>
      <trkpt lat="43.29016" lon="-1.35461">
        <ele>102.52</ele>
        <time>2021-08-20T19:30:59Z</time>
      </trkpt>
      <trkpt lat="43.29024" lon="-1.35461">
        <ele>102.52</ele>
        <time>2021-08-20T19:31:01Z</time>
      </trkpt>
      <trkpt lat="43.2904" lon="-1.35457">
        <ele>99.15</ele>
        <time>2021-08-20T19:31:04Z</time>
      </trkpt>
      <trkpt lat="43.29045" lon="-1.35456">
        <ele>98.19</ele>
        <time>2021-08-20T19:31:05Z</time>
      </trkpt>
      <trkpt lat="43.29055" lon="-1.35454">
        <ele>96.75</ele>
        <time>2021-08-20T19:31:07Z</time>
      </trkpt>
      <trkpt lat="43.29066" lon="-1.35451">
        <ele>94.35</ele>
        <time>2021-08-20T19:31:09Z</time>
      </trkpt>
      <trkpt lat="43.29081" lon="-1.35451">
        <ele>90.98</ele>
        <time>2021-08-20T19:31:11Z</time>
      </trkpt>
      <trkpt lat="43.29088" lon="-1.35453">
        <ele>90.5</ele>
        <time>2021-08-20T19:31:12Z</time>
      </trkpt>
      <trkpt lat="43.29095" lon="-1.35455">
        <ele>89.06</ele>
        <time>2021-08-20T19:31:13Z</time>
      </trkpt>
      <trkpt lat="43.29108" lon="-1.3546">
        <ele>88.58</ele>
        <time>2021-08-20T19:31:15Z</time>
      </trkpt>
      <trkpt lat="43.29127" lon="-1.35468">
        <ele>86.66</ele>
        <time>2021-08-20T19:31:18Z</time>
      </trkpt>
      <trkpt lat="43.29134" lon="-1.35468">
        <ele>86.18</ele>
        <time>2021-08-20T19:31:19Z</time>
      </trkpt>
      <trkpt lat="43.2914" lon="-1.35468">
        <ele>86.18</ele>
        <time>2021-08-20T19:31:20Z</time>
      </trkpt>
      <trkpt lat="43.29147" lon="-1.35467">
        <ele>85.21</ele>
        <time>2021-08-20T19:31:21Z</time>
      </trkpt>
      <trkpt lat="43.29153" lon="-1.35465">
        <ele>84.25</ele>
        <time>2021-08-20T19:31:22Z</time>
      </trkpt>
      <trkpt lat="43.29159" lon="-1.35463">
        <ele>83.77</ele>
        <time>2021-08-20T19:31:23Z</time>
      </trkpt>
      <trkpt lat="43.29166" lon="-1.35461">
        <ele>82.81</ele>
        <time>2021-08-20T19:31:24Z</time>
      </trkpt>
      <trkpt lat="43.29178" lon="-1.35458">
        <ele>81.85</ele>
        <time>2021-08-20T19:31:26Z</time>
      </trkpt>
      <trkpt lat="43.29184" lon="-1.35461">
        <ele>81.37</ele>
        <time>2021-08-20T19:31:27Z</time>
      </trkpt>
      <trkpt lat="43.29188" lon="-1.35467">
        <ele>80.89</ele>
        <time>2021-08-20T19:31:28Z</time>
      </trkpt>
      <trkpt lat="43.29193" lon="-1.35474">
        <ele>79.93</ele>
        <time>2021-08-20T19:31:29Z</time>
      </trkpt>
      <trkpt lat="43.29196" lon="-1.35481">
        <ele>79.45</ele>
        <time>2021-08-20T19:31:30Z</time>
      </trkpt>
      <trkpt lat="43.29201" lon="-1.35488">
        <ele>79.45</ele>
        <time>2021-08-20T19:31:31Z</time>
      </trkpt>
      <trkpt lat="43.29205" lon="-1.35494">
        <ele>78.97</ele>
        <time>2021-08-20T19:31:32Z</time>
      </trkpt>
      <trkpt lat="43.2921" lon="-1.35498">
        <ele>78.97</ele>
        <time>2021-08-20T19:31:33Z</time>
      </trkpt>
      <trkpt lat="43.29216" lon="-1.35499">
        <ele>78.97</ele>
        <time>2021-08-20T19:31:34Z</time>
      </trkpt>
      <trkpt lat="43.29221" lon="-1.35497">
        <ele>78.97</ele>
        <time>2021-08-20T19:31:35Z</time>
      </trkpt>
      <trkpt lat="43.29223" lon="-1.35494">
        <ele>78.97</ele>
        <time>2021-08-20T19:31:36Z</time>
      </trkpt>
      <trkpt lat="43.29225" lon="-1.35492">
        <ele>80.89</ele>
        <time>2021-08-20T19:31:37Z</time>
      </trkpt>
      <trkpt lat="43.29226" lon="-1.35491">
        <ele>80.89</ele>
        <time>2021-08-20T19:31:38Z</time>
      </trkpt>
      <trkpt lat="43.29228" lon="-1.35489">
        <ele>81.85</ele>
        <time>2021-08-20T19:31:39Z</time>
      </trkpt>
      <trkpt lat="43.29229" lon="-1.35488">
        <ele>82.33</ele>
        <time>2021-08-20T19:31:40Z</time>
      </trkpt>
      <trkpt lat="43.29231" lon="-1.35486">
        <ele>82.81</ele>
        <time>2021-08-20T19:31:41Z</time>
      </trkpt>
      <trkpt lat="43.29231" lon="-1.35483">
        <ele>82.81</ele>
        <time>2021-08-20T19:31:42Z</time>
      </trkpt>
      <trkpt lat="43.29232" lon="-1.35481">
        <ele>83.29</ele>
        <time>2021-08-20T19:31:43Z</time>
      </trkpt>
      <trkpt lat="43.29232" lon="-1.35479">
        <ele>83.77</ele>
        <time>2021-08-20T19:31:44Z</time>
      </trkpt>
      <trkpt lat="43.29235" lon="-1.35464">
        <ele>85.69</ele>
        <time>2021-08-20T19:31:51Z</time>
      </trkpt>
      <trkpt lat="43.29238" lon="-1.3546">
        <ele>86.18</ele>
        <time>2021-08-20T19:31:57Z</time>
      </trkpt>
      <trkpt lat="43.29248" lon="-1.35452">
        <ele>88.1</ele>
        <time>2021-08-20T19:32:07Z</time>
      </trkpt>
      <trkpt lat="43.29259" lon="-1.35447">
        <ele>89.54</ele>
        <time>2021-08-20T19:32:18Z</time>
      </trkpt>
      <trkpt lat="43.29271" lon="-1.35444">
        <ele>90.98</ele>
        <time>2021-08-20T19:32:27Z</time>
      </trkpt>
      <trkpt lat="43.29276" lon="-1.35443">
        <ele>90.98</ele>
        <time>2021-08-20T19:32:33Z</time>
      </trkpt>
      <trkpt lat="43.29287" lon="-1.35439">
        <ele>91.46</ele>
        <time>2021-08-20T19:32:39Z</time>
      </trkpt>
      <trkpt lat="43.29309" lon="-1.35427">
        <ele>91.46</ele>
        <time>2021-08-20T19:32:47Z</time>
      </trkpt>
      <trkpt lat="43.29331" lon="-1.35412">
        <ele>90.02</ele>
        <time>2021-08-20T19:32:53Z</time>
      </trkpt>
      <trkpt lat="43.2935" lon="-1.35396">
        <ele>86.66</ele>
        <time>2021-08-20T19:32:57Z</time>
      </trkpt>
      <trkpt lat="43.29393" lon="-1.35354">
        <ele>84.73</ele>
        <time>2021-08-20T19:33:05Z</time>
      </trkpt>
      <trkpt lat="43.29433" lon="-1.35315">
        <ele>84.73</ele>
        <time>2021-08-20T19:33:13Z</time>
      </trkpt>
      <trkpt lat="43.29458" lon="-1.35289">
        <ele>85.21</ele>
        <time>2021-08-20T19:33:20Z</time>
      </trkpt>
      <trkpt lat="43.29476" lon="-1.35276">
        <ele>86.18</ele>
        <time>2021-08-20T19:33:25Z</time>
      </trkpt>
      <trkpt lat="43.29504" lon="-1.35259">
        <ele>87.62</ele>
        <time>2021-08-20T19:33:33Z</time>
      </trkpt>
      <trkpt lat="43.29535" lon="-1.35236">
        <ele>88.1</ele>
        <time>2021-08-20T19:33:42Z</time>
      </trkpt>
      <trkpt lat="43.29551" lon="-1.35224">
        <ele>86.66</ele>
        <time>2021-08-20T19:33:46Z</time>
      </trkpt>
      <trkpt lat="43.29583" lon="-1.35206">
        <ele>86.66</ele>
        <time>2021-08-20T19:33:54Z</time>
      </trkpt>
      <trkpt lat="43.29614" lon="-1.35193">
        <ele>86.66</ele>
        <time>2021-08-20T19:34:02Z</time>
      </trkpt>
      <trkpt lat="43.29638" lon="-1.35187">
        <ele>86.66</ele>
        <time>2021-08-20T19:34:08Z</time>
      </trkpt>
      <trkpt lat="43.29642" lon="-1.35187">
        <ele>86.66</ele>
        <time>2021-08-20T19:34:09Z</time>
      </trkpt>
      <trkpt lat="43.2966" lon="-1.35191">
        <ele>88.1</ele>
        <time>2021-08-20T19:34:14Z</time>
      </trkpt>
      <trkpt lat="43.29674" lon="-1.35198">
        <ele>90.5</ele>
        <time>2021-08-20T19:34:21Z</time>
      </trkpt>
      <trkpt lat="43.2969" lon="-1.35206">
        <ele>91.94</ele>
        <time>2021-08-20T19:34:30Z</time>
      </trkpt>
      <trkpt lat="43.29705" lon="-1.35215">
        <ele>93.39</ele>
        <time>2021-08-20T19:34:39Z</time>
      </trkpt>
      <trkpt lat="43.29719" lon="-1.35224">
        <ele>93.87</ele>
        <time>2021-08-20T19:34:47Z</time>
      </trkpt>
      <trkpt lat="43.2974" lon="-1.35238">
        <ele>94.83</ele>
        <time>2021-08-20T19:34:57Z</time>
      </trkpt>
      <trkpt lat="43.29758" lon="-1.35257">
        <ele>96.27</ele>
        <time>2021-08-20T19:35:06Z</time>
      </trkpt>
      <trkpt lat="43.2977" lon="-1.35284">
        <ele>96.27</ele>
        <time>2021-08-20T19:35:14Z</time>
      </trkpt>
      <trkpt lat="43.29776" lon="-1.35299">
        <ele>96.27</ele>
        <time>2021-08-20T19:35:17Z</time>
      </trkpt>
      <trkpt lat="43.29779" lon="-1.35304">
        <ele>95.31</ele>
        <time>2021-08-20T19:35:18Z</time>
      </trkpt>
      <trkpt lat="43.29782" lon="-1.35307">
        <ele>95.31</ele>
        <time>2021-08-20T19:35:19Z</time>
      </trkpt>
      <trkpt lat="43.29786" lon="-1.3531">
        <ele>95.31</ele>
        <time>2021-08-20T19:35:20Z</time>
      </trkpt>
      <trkpt lat="43.2979" lon="-1.35311">
        <ele>95.31</ele>
        <time>2021-08-20T19:35:21Z</time>
      </trkpt>
      <trkpt lat="43.29793" lon="-1.35311">
        <ele>96.27</ele>
        <time>2021-08-20T19:35:22Z</time>
      </trkpt>
      <trkpt lat="43.29796" lon="-1.35312">
        <ele>96.27</ele>
        <time>2021-08-20T19:35:23Z</time>
      </trkpt>
      <trkpt lat="43.29815" lon="-1.35314">
        <ele>98.67</ele>
        <time>2021-08-20T19:35:31Z</time>
      </trkpt>
      <trkpt lat="43.29829" lon="-1.35325">
        <ele>99.63</ele>
        <time>2021-08-20T19:35:39Z</time>
      </trkpt>
      <trkpt lat="43.29846" lon="-1.3534">
        <ele>100.6</ele>
        <time>2021-08-20T19:35:48Z</time>
      </trkpt>
      <trkpt lat="43.29872" lon="-1.3536">
        <ele>101.08</ele>
        <time>2021-08-20T19:35:58Z</time>
      </trkpt>
      <trkpt lat="43.29898" lon="-1.3539">
        <ele>101.56</ele>
        <time>2021-08-20T19:36:08Z</time>
      </trkpt>
      <trkpt lat="43.29917" lon="-1.35417">
        <ele>101.56</ele>
        <time>2021-08-20T19:36:16Z</time>
      </trkpt>
      <trkpt lat="43.29938" lon="-1.35445">
        <ele>101.56</ele>
        <time>2021-08-20T19:36:24Z</time>
      </trkpt>
      <trkpt lat="43.29962" lon="-1.35474">
        <ele>101.56</ele>
        <time>2021-08-20T19:36:32Z</time>
      </trkpt>
      <trkpt lat="43.29978" lon="-1.35493">
        <ele>99.63</ele>
        <time>2021-08-20T19:36:36Z</time>
      </trkpt>
      <trkpt lat="43.30008" lon="-1.3553">
        <ele>96.27</ele>
        <time>2021-08-20T19:36:43Z</time>
      </trkpt>
      <trkpt lat="43.30018" lon="-1.35541">
        <ele>94.83</ele>
        <time>2021-08-20T19:36:45Z</time>
      </trkpt>
      <trkpt lat="43.30035" lon="-1.35566">
        <ele>93.39</ele>
        <time>2021-08-20T19:36:49Z</time>
      </trkpt>
      <trkpt lat="43.30038" lon="-1.35573">
        <ele>92.9</ele>
        <time>2021-08-20T19:36:50Z</time>
      </trkpt>
      <trkpt lat="43.30041" lon="-1.3558">
        <ele>91.46</ele>
        <time>2021-08-20T19:36:51Z</time>
      </trkpt>
      <trkpt lat="43.30042" lon="-1.35588">
        <ele>91.46</ele>
        <time>2021-08-20T19:36:52Z</time>
      </trkpt>
      <trkpt lat="43.30042" lon="-1.35595">
        <ele>91.46</ele>
        <time>2021-08-20T19:36:53Z</time>
      </trkpt>
      <trkpt lat="43.30041" lon="-1.35602">
        <ele>91.46</ele>
        <time>2021-08-20T19:36:54Z</time>
      </trkpt>
      <trkpt lat="43.30039" lon="-1.35608">
        <ele>91.46</ele>
        <time>2021-08-20T19:36:55Z</time>
      </trkpt>
      <trkpt lat="43.30037" lon="-1.35614">
        <ele>90.98</ele>
        <time>2021-08-20T19:36:56Z</time>
      </trkpt>
      <trkpt lat="43.30025" lon="-1.35648">
        <ele>89.54</ele>
        <time>2021-08-20T19:37:01Z</time>
      </trkpt>
      <trkpt lat="43.30019" lon="-1.35661">
        <ele>89.54</ele>
        <time>2021-08-20T19:37:03Z</time>
      </trkpt>
      <trkpt lat="43.30015" lon="-1.35666">
        <ele>89.06</ele>
        <time>2021-08-20T19:37:04Z</time>
      </trkpt>
      <trkpt lat="43.30008" lon="-1.35676">
        <ele>89.06</ele>
        <time>2021-08-20T19:37:06Z</time>
      </trkpt>
      <trkpt lat="43.29999" lon="-1.35685">
        <ele>89.06</ele>
        <time>2021-08-20T19:37:08Z</time>
      </trkpt>
      <trkpt lat="43.29996" lon="-1.3569">
        <ele>88.1</ele>
        <time>2021-08-20T19:37:09Z</time>
      </trkpt>
      <trkpt lat="43.29994" lon="-1.35697">
        <ele>87.62</ele>
        <time>2021-08-20T19:37:10Z</time>
      </trkpt>
      <trkpt lat="43.29994" lon="-1.35705">
        <ele>87.62</ele>
        <time>2021-08-20T19:37:11Z</time>
      </trkpt>
      <trkpt lat="43.29994" lon="-1.35713">
        <ele>86.66</ele>
        <time>2021-08-20T19:37:12Z</time>
      </trkpt>
      <trkpt lat="43.29994" lon="-1.35732">
        <ele>84.73</ele>
        <time>2021-08-20T19:37:14Z</time>
      </trkpt>
      <trkpt lat="43.29993" lon="-1.35742">
        <ele>84.73</ele>
        <time>2021-08-20T19:37:15Z</time>
      </trkpt>
      <trkpt lat="43.29992" lon="-1.35753">
        <ele>84.25</ele>
        <time>2021-08-20T19:37:16Z</time>
      </trkpt>
      <trkpt lat="43.29989" lon="-1.35762">
        <ele>83.29</ele>
        <time>2021-08-20T19:37:17Z</time>
      </trkpt>
      <trkpt lat="43.29987" lon="-1.35772">
        <ele>83.29</ele>
        <time>2021-08-20T19:37:18Z</time>
      </trkpt>
      <trkpt lat="43.29983" lon="-1.3578">
        <ele>82.81</ele>
        <time>2021-08-20T19:37:19Z</time>
      </trkpt>
      <trkpt lat="43.2998" lon="-1.35788">
        <ele>82.81</ele>
        <time>2021-08-20T19:37:20Z</time>
      </trkpt>
      <trkpt lat="43.29976" lon="-1.35795">
        <ele>81.85</ele>
        <time>2021-08-20T19:37:21Z</time>
      </trkpt>
      <trkpt lat="43.29967" lon="-1.35811">
        <ele>80.41</ele>
        <time>2021-08-20T19:37:23Z</time>
      </trkpt>
      <trkpt lat="43.29964" lon="-1.3582">
        <ele>79.45</ele>
        <time>2021-08-20T19:37:24Z</time>
      </trkpt>
      <trkpt lat="43.29961" lon="-1.3583">
        <ele>78.97</ele>
        <time>2021-08-20T19:37:25Z</time>
      </trkpt>
      <trkpt lat="43.29955" lon="-1.35861">
        <ele>78.97</ele>
        <time>2021-08-20T19:37:28Z</time>
      </trkpt>
      <trkpt lat="43.29951" lon="-1.35906">
        <ele>75.12</ele>
        <time>2021-08-20T19:37:32Z</time>
      </trkpt>
      <trkpt lat="43.2995" lon="-1.35918">
        <ele>75.12</ele>
        <time>2021-08-20T19:37:33Z</time>
      </trkpt>
      <trkpt lat="43.2995" lon="-1.35997">
        <ele>73.2</ele>
        <time>2021-08-20T19:37:40Z</time>
      </trkpt>
      <trkpt lat="43.29949" lon="-1.36059">
        <ele>70.31</ele>
        <time>2021-08-20T19:37:46Z</time>
      </trkpt>
      <trkpt lat="43.29949" lon="-1.36068">
        <ele>69.35</ele>
        <time>2021-08-20T19:37:47Z</time>
      </trkpt>
      <trkpt lat="43.2995" lon="-1.36075">
        <ele>69.35</ele>
        <time>2021-08-20T19:37:48Z</time>
      </trkpt>
      <trkpt lat="43.29952" lon="-1.36082">
        <ele>68.87</ele>
        <time>2021-08-20T19:37:49Z</time>
      </trkpt>
      <trkpt lat="43.29954" lon="-1.36098">
        <ele>68.39</ele>
        <time>2021-08-20T19:37:52Z</time>
      </trkpt>
      <trkpt lat="43.29953" lon="-1.36102">
        <ele>68.39</ele>
        <time>2021-08-20T19:37:53Z</time>
      </trkpt>
      <trkpt lat="43.29949" lon="-1.36113">
        <ele>69.35</ele>
        <time>2021-08-20T19:37:58Z</time>
      </trkpt>
      <trkpt lat="43.29948" lon="-1.36113">
        <ele>69.35</ele>
        <time>2021-08-20T19:37:59Z</time>
      </trkpt>
      <trkpt lat="43.29947" lon="-1.36121">
        <ele>70.31</ele>
        <time>2021-08-20T19:38:06Z</time>
      </trkpt>
      <trkpt lat="43.29949" lon="-1.36132">
        <ele>71.27</ele>
        <time>2021-08-20T19:38:14Z</time>
      </trkpt>
      <trkpt lat="43.29953" lon="-1.36149">
        <ele>72.72</ele>
        <time>2021-08-20T19:38:25Z</time>
      </trkpt>
      <trkpt lat="43.29958" lon="-1.36162">
        <ele>74.64</ele>
        <time>2021-08-20T19:38:35Z</time>
      </trkpt>
      <trkpt lat="43.29963" lon="-1.3617">
        <ele>76.08</ele>
        <time>2021-08-20T19:38:44Z</time>
      </trkpt>
      <trkpt lat="43.29969" lon="-1.36178">
        <ele>78</ele>
        <time>2021-08-20T19:38:53Z</time>
      </trkpt>
      <trkpt lat="43.29975" lon="-1.36192">
        <ele>79.45</ele>
        <time>2021-08-20T19:39:03Z</time>
      </trkpt>
      <trkpt lat="43.29981" lon="-1.36204">
        <ele>80.89</ele>
        <time>2021-08-20T19:39:12Z</time>
      </trkpt>
      <trkpt lat="43.29985" lon="-1.36218">
        <ele>82.81</ele>
        <time>2021-08-20T19:39:23Z</time>
      </trkpt>
      <trkpt lat="43.29988" lon="-1.36238">
        <ele>84.25</ele>
        <time>2021-08-20T19:39:35Z</time>
      </trkpt>
      <trkpt lat="43.29987" lon="-1.36251">
        <ele>85.21</ele>
        <time>2021-08-20T19:39:43Z</time>
      </trkpt>
      <trkpt lat="43.29986" lon="-1.36265">
        <ele>86.66</ele>
        <time>2021-08-20T19:39:53Z</time>
      </trkpt>
      <trkpt lat="43.29985" lon="-1.36273">
        <ele>87.14</ele>
        <time>2021-08-20T19:39:58Z</time>
      </trkpt>
      <trkpt lat="43.29986" lon="-1.36285">
        <ele>88.58</ele>
        <time>2021-08-20T19:40:07Z</time>
      </trkpt>
      <trkpt lat="43.29986" lon="-1.36286">
        <ele>88.58</ele>
        <time>2021-08-20T19:40:08Z</time>
      </trkpt>
      <trkpt lat="43.29989" lon="-1.36298">
        <ele>90.02</ele>
        <time>2021-08-20T19:40:17Z</time>
      </trkpt>
      <trkpt lat="43.29989" lon="-1.3631">
        <ele>91.46</ele>
        <time>2021-08-20T19:40:26Z</time>
      </trkpt>
      <trkpt lat="43.29989" lon="-1.36312">
        <ele>91.94</ele>
        <time>2021-08-20T19:40:27Z</time>
      </trkpt>
      <trkpt lat="43.29988" lon="-1.36318">
        <ele>92.9</ele>
        <time>2021-08-20T19:40:32Z</time>
      </trkpt>
      <trkpt lat="43.29983" lon="-1.36329">
        <ele>94.35</ele>
        <time>2021-08-20T19:40:42Z</time>
      </trkpt>
      <trkpt lat="43.29981" lon="-1.36337">
        <ele>95.31</ele>
        <time>2021-08-20T19:40:50Z</time>
      </trkpt>
      <trkpt lat="43.29973" lon="-1.36352">
        <ele>95.31</ele>
        <time>2021-08-20T19:40:55Z</time>
      </trkpt>
      <trkpt lat="43.2997" lon="-1.36357">
        <ele>95.31</ele>
        <time>2021-08-20T19:40:56Z</time>
      </trkpt>
      <trkpt lat="43.29968" lon="-1.36361">
        <ele>93.87</ele>
        <time>2021-08-20T19:40:57Z</time>
      </trkpt>
      <trkpt lat="43.29965" lon="-1.36364">
        <ele>93.87</ele>
        <time>2021-08-20T19:40:58Z</time>
      </trkpt>
      <trkpt lat="43.2996" lon="-1.36366">
        <ele>93.87</ele>
        <time>2021-08-20T19:40:59Z</time>
      </trkpt>
      <trkpt lat="43.29955" lon="-1.36367">
        <ele>93.87</ele>
        <time>2021-08-20T19:41:00Z</time>
      </trkpt>
      <trkpt lat="43.2995" lon="-1.36368">
        <ele>93.39</ele>
        <time>2021-08-20T19:41:01Z</time>
      </trkpt>
      <trkpt lat="43.29946" lon="-1.36368">
        <ele>93.39</ele>
        <time>2021-08-20T19:41:02Z</time>
      </trkpt>
      <trkpt lat="43.29942" lon="-1.36369">
        <ele>93.39</ele>
        <time>2021-08-20T19:41:03Z</time>
      </trkpt>
      <trkpt lat="43.29937" lon="-1.36369">
        <ele>93.39</ele>
        <time>2021-08-20T19:41:04Z</time>
      </trkpt>
      <trkpt lat="43.29933" lon="-1.36368">
        <ele>93.39</ele>
        <time>2021-08-20T19:41:05Z</time>
      </trkpt>
      <trkpt lat="43.29903" lon="-1.36365">
        <ele>94.35</ele>
        <time>2021-08-20T19:41:13Z</time>
      </trkpt>
      <trkpt lat="43.29889" lon="-1.36365">
        <ele>95.31</ele>
        <time>2021-08-20T19:41:19Z</time>
      </trkpt>
      <trkpt lat="43.29871" lon="-1.3638">
        <ele>96.75</ele>
        <time>2021-08-20T19:41:27Z</time>
      </trkpt>
      <trkpt lat="43.29856" lon="-1.36397">
        <ele>98.19</ele>
        <time>2021-08-20T19:41:35Z</time>
      </trkpt>
      <trkpt lat="43.29847" lon="-1.3642">
        <ele>98.67</ele>
        <time>2021-08-20T19:41:42Z</time>
      </trkpt>
      <trkpt lat="43.29849" lon="-1.36442">
        <ele>100.6</ele>
        <time>2021-08-20T19:41:49Z</time>
      </trkpt>
      <trkpt lat="43.29846" lon="-1.36466">
        <ele>101.56</ele>
        <time>2021-08-20T19:41:56Z</time>
      </trkpt>
      <trkpt lat="43.29833" lon="-1.3649">
        <ele>101.56</ele>
        <time>2021-08-20T19:42:03Z</time>
      </trkpt>
      <trkpt lat="43.29815" lon="-1.36496">
        <ele>101.56</ele>
        <time>2021-08-20T19:42:09Z</time>
      </trkpt>
      <trkpt lat="43.29786" lon="-1.36496">
        <ele>99.63</ele>
        <time>2021-08-20T19:42:16Z</time>
      </trkpt>
      <trkpt lat="43.29781" lon="-1.36497">
        <ele>99.15</ele>
        <time>2021-08-20T19:42:17Z</time>
      </trkpt>
      <trkpt lat="43.29775" lon="-1.36498">
        <ele>98.19</ele>
        <time>2021-08-20T19:42:18Z</time>
      </trkpt>
      <trkpt lat="43.29763" lon="-1.36502">
        <ele>96.75</ele>
        <time>2021-08-20T19:42:20Z</time>
      </trkpt>
      <trkpt lat="43.29756" lon="-1.36506">
        <ele>95.79</ele>
        <time>2021-08-20T19:42:21Z</time>
      </trkpt>
      <trkpt lat="43.29751" lon="-1.36511">
        <ele>94.83</ele>
        <time>2021-08-20T19:42:22Z</time>
      </trkpt>
      <trkpt lat="43.29746" lon="-1.36517">
        <ele>95.31</ele>
        <time>2021-08-20T19:42:23Z</time>
      </trkpt>
      <trkpt lat="43.29742" lon="-1.36523">
        <ele>95.31</ele>
        <time>2021-08-20T19:42:24Z</time>
      </trkpt>
      <trkpt lat="43.29739" lon="-1.36529">
        <ele>96.27</ele>
        <time>2021-08-20T19:42:25Z</time>
      </trkpt>
      <trkpt lat="43.29735" lon="-1.36535">
        <ele>96.27</ele>
        <time>2021-08-20T19:42:26Z</time>
      </trkpt>
      <trkpt lat="43.29729" lon="-1.36546">
        <ele>96.27</ele>
        <time>2021-08-20T19:42:28Z</time>
      </trkpt>
      <trkpt lat="43.29727" lon="-1.36551">
        <ele>96.75</ele>
        <time>2021-08-20T19:42:29Z</time>
      </trkpt>
      <trkpt lat="43.29726" lon="-1.36556">
        <ele>96.75</ele>
        <time>2021-08-20T19:42:30Z</time>
      </trkpt>
      <trkpt lat="43.29725" lon="-1.36561">
        <ele>96.75</ele>
        <time>2021-08-20T19:42:31Z</time>
      </trkpt>
      <trkpt lat="43.29726" lon="-1.36565">
        <ele>97.23</ele>
        <time>2021-08-20T19:42:32Z</time>
      </trkpt>
      <trkpt lat="43.29727" lon="-1.36569">
        <ele>98.19</ele>
        <time>2021-08-20T19:42:33Z</time>
      </trkpt>
      <trkpt lat="43.29729" lon="-1.36571">
        <ele>98.19</ele>
        <time>2021-08-20T19:42:34Z</time>
      </trkpt>
      <trkpt lat="43.29731" lon="-1.36571">
        <ele>98.67</ele>
        <time>2021-08-20T19:42:35Z</time>
      </trkpt>
      <trkpt lat="43.29733" lon="-1.36571">
        <ele>98.67</ele>
        <time>2021-08-20T19:42:36Z</time>
      </trkpt>
      <trkpt lat="43.29735" lon="-1.3657">
        <ele>98.67</ele>
        <time>2021-08-20T19:42:37Z</time>
      </trkpt>
      <trkpt lat="43.29743" lon="-1.36565">
        <ele>100.6</ele>
        <time>2021-08-20T19:42:43Z</time>
      </trkpt>
      <trkpt lat="43.29747" lon="-1.36561">
        <ele>101.56</ele>
        <time>2021-08-20T19:42:50Z</time>
      </trkpt>
      <trkpt lat="43.29755" lon="-1.36556">
        <ele>103.48</ele>
        <time>2021-08-20T19:42:59Z</time>
      </trkpt>
      <trkpt lat="43.29762" lon="-1.36554">
        <ele>104.92</ele>
        <time>2021-08-20T19:43:08Z</time>
      </trkpt>
      <trkpt lat="43.2977" lon="-1.36558">
        <ele>106.84</ele>
        <time>2021-08-20T19:43:18Z</time>
      </trkpt>
      <trkpt lat="43.29777" lon="-1.36564">
        <ele>108.77</ele>
        <time>2021-08-20T19:43:28Z</time>
      </trkpt>
      <trkpt lat="43.29782" lon="-1.36567">
        <ele>109.25</ele>
        <time>2021-08-20T19:43:34Z</time>
      </trkpt>
      <trkpt lat="43.29784" lon="-1.36568">
        <ele>110.21</ele>
        <time>2021-08-20T19:43:35Z</time>
      </trkpt>
      <trkpt lat="43.29794" lon="-1.3658">
        <ele>111.65</ele>
        <time>2021-08-20T19:43:46Z</time>
      </trkpt>
      <trkpt lat="43.29804" lon="-1.3659">
        <ele>112.61</ele>
        <time>2021-08-20T19:43:56Z</time>
      </trkpt>
      <trkpt lat="43.29811" lon="-1.36602">
        <ele>114.53</ele>
        <time>2021-08-20T19:44:07Z</time>
      </trkpt>
      <trkpt lat="43.29819" lon="-1.36611">
        <ele>116.46</ele>
        <time>2021-08-20T19:44:18Z</time>
      </trkpt>
      <trkpt lat="43.29824" lon="-1.3662">
        <ele>118.38</ele>
        <time>2021-08-20T19:44:27Z</time>
      </trkpt>
      <trkpt lat="43.29831" lon="-1.3663">
        <ele>119.34</ele>
        <time>2021-08-20T19:44:37Z</time>
      </trkpt>
      <trkpt lat="43.29844" lon="-1.36641">
        <ele>121.74</ele>
        <time>2021-08-20T19:44:50Z</time>
      </trkpt>
      <trkpt lat="43.29846" lon="-1.36642">
        <ele>122.22</ele>
        <time>2021-08-20T19:44:52Z</time>
      </trkpt>
      <trkpt lat="43.29851" lon="-1.36644">
        <ele>122.71</ele>
        <time>2021-08-20T19:45:00Z</time>
      </trkpt>
      <trkpt lat="43.29861" lon="-1.36645">
        <ele>122.71</ele>
        <time>2021-08-20T19:45:07Z</time>
      </trkpt>
      <trkpt lat="43.29866" lon="-1.36644">
        <ele>122.71</ele>
        <time>2021-08-20T19:45:09Z</time>
      </trkpt>
      <trkpt lat="43.29868" lon="-1.36643">
        <ele>122.71</ele>
        <time>2021-08-20T19:45:10Z</time>
      </trkpt>
      <trkpt lat="43.29871" lon="-1.36642">
        <ele>122.71</ele>
        <time>2021-08-20T19:45:11Z</time>
      </trkpt>
      <trkpt lat="43.29888" lon="-1.36634">
        <ele>123.19</ele>
        <time>2021-08-20T19:45:18Z</time>
      </trkpt>
      <trkpt lat="43.29912" lon="-1.36622">
        <ele>123.67</ele>
        <time>2021-08-20T19:45:27Z</time>
      </trkpt>
      <trkpt lat="43.29939" lon="-1.36616">
        <ele>124.15</ele>
        <time>2021-08-20T19:45:37Z</time>
      </trkpt>
      <trkpt lat="43.29967" lon="-1.36622">
        <ele>120.78</ele>
        <time>2021-08-20T19:45:44Z</time>
      </trkpt>
      <trkpt lat="43.29971" lon="-1.36625">
        <ele>119.82</ele>
        <time>2021-08-20T19:45:45Z</time>
      </trkpt>
      <trkpt lat="43.29976" lon="-1.36628">
        <ele>118.86</ele>
        <time>2021-08-20T19:45:46Z</time>
      </trkpt>
      <trkpt lat="43.29981" lon="-1.36632">
        <ele>117.42</ele>
        <time>2021-08-20T19:45:47Z</time>
      </trkpt>
      <trkpt lat="43.29989" lon="-1.36642">
        <ele>116.94</ele>
        <time>2021-08-20T19:45:49Z</time>
      </trkpt>
      <trkpt lat="43.29993" lon="-1.36647">
        <ele>115.98</ele>
        <time>2021-08-20T19:45:50Z</time>
      </trkpt>
      <trkpt lat="43.29999" lon="-1.36652">
        <ele>115.01</ele>
        <time>2021-08-20T19:45:51Z</time>
      </trkpt>
      <trkpt lat="43.30005" lon="-1.36655">
        <ele>114.53</ele>
        <time>2021-08-20T19:45:52Z</time>
      </trkpt>
      <trkpt lat="43.30011" lon="-1.36657">
        <ele>113.57</ele>
        <time>2021-08-20T19:45:53Z</time>
      </trkpt>
      <trkpt lat="43.30019" lon="-1.36659">
        <ele>112.13</ele>
        <time>2021-08-20T19:45:54Z</time>
      </trkpt>
      <trkpt lat="43.30026" lon="-1.3666">
        <ele>111.17</ele>
        <time>2021-08-20T19:45:55Z</time>
      </trkpt>
      <trkpt lat="43.30034" lon="-1.36661">
        <ele>109.73</ele>
        <time>2021-08-20T19:45:56Z</time>
      </trkpt>
      <trkpt lat="43.30042" lon="-1.36662">
        <ele>108.77</ele>
        <time>2021-08-20T19:45:57Z</time>
      </trkpt>
      <trkpt lat="43.30051" lon="-1.36664">
        <ele>107.81</ele>
        <time>2021-08-20T19:45:58Z</time>
      </trkpt>
      <trkpt lat="43.30077" lon="-1.36675">
        <ele>103.96</ele>
        <time>2021-08-20T19:46:01Z</time>
      </trkpt>
      <trkpt lat="43.30085" lon="-1.36679">
        <ele>103.96</ele>
        <time>2021-08-20T19:46:02Z</time>
      </trkpt>
      <trkpt lat="43.30094" lon="-1.36683">
        <ele>102.52</ele>
        <time>2021-08-20T19:46:03Z</time>
      </trkpt>
      <trkpt lat="43.30103" lon="-1.36686">
        <ele>101.56</ele>
        <time>2021-08-20T19:46:04Z</time>
      </trkpt>
      <trkpt lat="43.30113" lon="-1.36688">
        <ele>101.56</ele>
        <time>2021-08-20T19:46:05Z</time>
      </trkpt>
      <trkpt lat="43.30152" lon="-1.36696">
        <ele>100.11</ele>
        <time>2021-08-20T19:46:09Z</time>
      </trkpt>
      <trkpt lat="43.30197" lon="-1.36704">
        <ele>96.75</ele>
        <time>2021-08-20T19:46:14Z</time>
      </trkpt>
      <trkpt lat="43.30206" lon="-1.36704">
        <ele>96.75</ele>
        <time>2021-08-20T19:46:15Z</time>
      </trkpt>
      <trkpt lat="43.30215" lon="-1.36704">
        <ele>96.75</ele>
        <time>2021-08-20T19:46:16Z</time>
      </trkpt>
      <trkpt lat="43.30224" lon="-1.36701">
        <ele>96.75</ele>
        <time>2021-08-20T19:46:17Z</time>
      </trkpt>
      <trkpt lat="43.30232" lon="-1.36698">
        <ele>96.27</ele>
        <time>2021-08-20T19:46:18Z</time>
      </trkpt>
      <trkpt lat="43.3024" lon="-1.36694">
        <ele>95.31</ele>
        <time>2021-08-20T19:46:19Z</time>
      </trkpt>
      <trkpt lat="43.30249" lon="-1.36688">
        <ele>94.35</ele>
        <time>2021-08-20T19:46:20Z</time>
      </trkpt>
      <trkpt lat="43.30257" lon="-1.36683">
        <ele>94.35</ele>
        <time>2021-08-20T19:46:21Z</time>
      </trkpt>
      <trkpt lat="43.30281" lon="-1.3667">
        <ele>92.42</ele>
        <time>2021-08-20T19:46:24Z</time>
      </trkpt>
      <trkpt lat="43.3029" lon="-1.36668">
        <ele>92.42</ele>
        <time>2021-08-20T19:46:25Z</time>
      </trkpt>
      <trkpt lat="43.30298" lon="-1.36668">
        <ele>91.94</ele>
        <time>2021-08-20T19:46:26Z</time>
      </trkpt>
      <trkpt lat="43.30343" lon="-1.36675">
        <ele>91.46</ele>
        <time>2021-08-20T19:46:32Z</time>
      </trkpt>
      <trkpt lat="43.30368" lon="-1.36682">
        <ele>87.62</ele>
        <time>2021-08-20T19:46:36Z</time>
      </trkpt>
      <trkpt lat="43.30389" lon="-1.36686">
        <ele>83.77</ele>
        <time>2021-08-20T19:46:39Z</time>
      </trkpt>
      <trkpt lat="43.30405" lon="-1.36688">
        <ele>81.85</ele>
        <time>2021-08-20T19:46:41Z</time>
      </trkpt>
      <trkpt lat="43.30435" lon="-1.36692">
        <ele>78.97</ele>
        <time>2021-08-20T19:46:45Z</time>
      </trkpt>
      <trkpt lat="43.30442" lon="-1.36694">
        <ele>78.48</ele>
        <time>2021-08-20T19:46:46Z</time>
      </trkpt>
      <trkpt lat="43.3048" lon="-1.3671">
        <ele>77.04</ele>
        <time>2021-08-20T19:46:52Z</time>
      </trkpt>
      <trkpt lat="43.30507" lon="-1.36723">
        <ele>73.2</ele>
        <time>2021-08-20T19:46:56Z</time>
      </trkpt>
      <trkpt lat="43.30531" lon="-1.36729">
        <ele>69.83</ele>
        <time>2021-08-20T19:46:59Z</time>
      </trkpt>
      <trkpt lat="43.30577" lon="-1.36753">
        <ele>66.47</ele>
        <time>2021-08-20T19:47:05Z</time>
      </trkpt>
      <trkpt lat="43.30638" lon="-1.36799">
        <ele>64.55</ele>
        <time>2021-08-20T19:47:14Z</time>
      </trkpt>
      <trkpt lat="43.30644" lon="-1.36802">
        <ele>64.55</ele>
        <time>2021-08-20T19:47:15Z</time>
      </trkpt>
      <trkpt lat="43.30651" lon="-1.36804">
        <ele>64.55</ele>
        <time>2021-08-20T19:47:16Z</time>
      </trkpt>
      <trkpt lat="43.30686" lon="-1.36813">
        <ele>63.58</ele>
        <time>2021-08-20T19:47:21Z</time>
      </trkpt>
      <trkpt lat="43.30728" lon="-1.36834">
        <ele>61.18</ele>
        <time>2021-08-20T19:47:27Z</time>
      </trkpt>
      <trkpt lat="43.30749" lon="-1.36849">
        <ele>59.74</ele>
        <time>2021-08-20T19:47:30Z</time>
      </trkpt>
      <trkpt lat="43.30778" lon="-1.36873">
        <ele>58.78</ele>
        <time>2021-08-20T19:47:35Z</time>
      </trkpt>
      <trkpt lat="43.30781" lon="-1.36879">
        <ele>58.3</ele>
        <time>2021-08-20T19:47:36Z</time>
      </trkpt>
      <trkpt lat="43.30796" lon="-1.36906">
        <ele>57.82</ele>
        <time>2021-08-20T19:47:41Z</time>
      </trkpt>
      <trkpt lat="43.30798" lon="-1.36911">
        <ele>57.82</ele>
        <time>2021-08-20T19:47:42Z</time>
      </trkpt>
      <trkpt lat="43.30803" lon="-1.36943">
        <ele>57.82</ele>
        <time>2021-08-20T19:47:49Z</time>
      </trkpt>
      <trkpt lat="43.30798" lon="-1.36964">
        <ele>59.26</ele>
        <time>2021-08-20T19:47:55Z</time>
      </trkpt>
      <trkpt lat="43.30792" lon="-1.36978">
        <ele>59.26</ele>
        <time>2021-08-20T19:47:58Z</time>
      </trkpt>
      <trkpt lat="43.30791" lon="-1.36984">
        <ele>59.26</ele>
        <time>2021-08-20T19:47:59Z</time>
      </trkpt>
      <trkpt lat="43.30791" lon="-1.3699">
        <ele>59.26</ele>
        <time>2021-08-20T19:48:00Z</time>
      </trkpt>
      <trkpt lat="43.30791" lon="-1.36996">
        <ele>59.26</ele>
        <time>2021-08-20T19:48:01Z</time>
      </trkpt>
      <trkpt lat="43.30792" lon="-1.37002">
        <ele>59.26</ele>
        <time>2021-08-20T19:48:02Z</time>
      </trkpt>
      <trkpt lat="43.30793" lon="-1.37008">
        <ele>59.26</ele>
        <time>2021-08-20T19:48:03Z</time>
      </trkpt>
      <trkpt lat="43.30794" lon="-1.37013">
        <ele>59.26</ele>
        <time>2021-08-20T19:48:04Z</time>
      </trkpt>
      <trkpt lat="43.30806" lon="-1.37047">
        <ele>57.82</ele>
        <time>2021-08-20T19:48:11Z</time>
      </trkpt>
      <trkpt lat="43.30819" lon="-1.37074">
        <ele>57.34</ele>
        <time>2021-08-20T19:48:17Z</time>
      </trkpt>
      <trkpt lat="43.30826" lon="-1.37088">
        <ele>55.89</ele>
        <time>2021-08-20T19:48:19Z</time>
      </trkpt>
      <trkpt lat="43.30829" lon="-1.37095">
        <ele>55.41</ele>
        <time>2021-08-20T19:48:20Z</time>
      </trkpt>
      <trkpt lat="43.30833" lon="-1.37112">
        <ele>54.93</ele>
        <time>2021-08-20T19:48:22Z</time>
      </trkpt>
      <trkpt lat="43.30847" lon="-1.37152">
        <ele>55.89</ele>
        <time>2021-08-20T19:48:27Z</time>
      </trkpt>
      <trkpt lat="43.30872" lon="-1.37194">
        <ele>55.89</ele>
        <time>2021-08-20T19:48:34Z</time>
      </trkpt>
      <trkpt lat="43.30879" lon="-1.37203">
        <ele>55.89</ele>
        <time>2021-08-20T19:48:36Z</time>
      </trkpt>
      <trkpt lat="43.30889" lon="-1.37227">
        <ele>53.49</ele>
        <time>2021-08-20T19:48:40Z</time>
      </trkpt>
      <trkpt lat="43.3089" lon="-1.37234">
        <ele>53.49</ele>
        <time>2021-08-20T19:48:41Z</time>
      </trkpt>
      <trkpt lat="43.30891" lon="-1.37241">
        <ele>53.49</ele>
        <time>2021-08-20T19:48:42Z</time>
      </trkpt>
      <trkpt lat="43.30888" lon="-1.37289">
        <ele>52.53</ele>
        <time>2021-08-20T19:48:50Z</time>
      </trkpt>
      <trkpt lat="43.30882" lon="-1.37319">
        <ele>54.45</ele>
        <time>2021-08-20T19:48:56Z</time>
      </trkpt>
      <trkpt lat="43.30879" lon="-1.37336">
        <ele>54.45</ele>
        <time>2021-08-20T19:48:59Z</time>
      </trkpt>
      <trkpt lat="43.30877" lon="-1.37386">
        <ele>52.53</ele>
        <time>2021-08-20T19:49:07Z</time>
      </trkpt>
      <trkpt lat="43.30878" lon="-1.37398">
        <ele>52.53</ele>
        <time>2021-08-20T19:49:09Z</time>
      </trkpt>
      <trkpt lat="43.30889" lon="-1.37448">
        <ele>52.53</ele>
        <time>2021-08-20T19:49:17Z</time>
      </trkpt>
      <trkpt lat="43.30901" lon="-1.37486">
        <ele>52.05</ele>
        <time>2021-08-20T19:49:23Z</time>
      </trkpt>
      <trkpt lat="43.30904" lon="-1.37499">
        <ele>51.57</ele>
        <time>2021-08-20T19:49:25Z</time>
      </trkpt>
      <trkpt lat="43.30905" lon="-1.37505">
        <ele>51.57</ele>
        <time>2021-08-20T19:49:26Z</time>
      </trkpt>
      <trkpt lat="43.30905" lon="-1.37512">
        <ele>51.57</ele>
        <time>2021-08-20T19:49:27Z</time>
      </trkpt>
      <trkpt lat="43.30905" lon="-1.37573">
        <ele>50.61</ele>
        <time>2021-08-20T19:49:35Z</time>
      </trkpt>
      <trkpt lat="43.30911" lon="-1.37634">
        <ele>50.61</ele>
        <time>2021-08-20T19:49:44Z</time>
      </trkpt>
      <trkpt lat="43.30912" lon="-1.37641">
        <ele>50.61</ele>
        <time>2021-08-20T19:49:45Z</time>
      </trkpt>
      <trkpt lat="43.30913" lon="-1.37647">
        <ele>50.61</ele>
        <time>2021-08-20T19:49:46Z</time>
      </trkpt>
      <trkpt lat="43.3092" lon="-1.37677">
        <ele>51.57</ele>
        <time>2021-08-20T19:49:51Z</time>
      </trkpt>
      <trkpt lat="43.30923" lon="-1.37691">
        <ele>51.57</ele>
        <time>2021-08-20T19:49:53Z</time>
      </trkpt>
      <trkpt lat="43.30923" lon="-1.37698">
        <ele>51.57</ele>
        <time>2021-08-20T19:49:54Z</time>
      </trkpt>
      <trkpt lat="43.30926" lon="-1.37761">
        <ele>50.61</ele>
        <time>2021-08-20T19:50:03Z</time>
      </trkpt>
      <trkpt lat="43.30924" lon="-1.37818">
        <ele>49.65</ele>
        <time>2021-08-20T19:50:12Z</time>
      </trkpt>
      <trkpt lat="43.30917" lon="-1.37876">
        <ele>49.65</ele>
        <time>2021-08-20T19:50:22Z</time>
      </trkpt>
      <trkpt lat="43.30912" lon="-1.37893">
        <ele>51.09</ele>
        <time>2021-08-20T19:50:25Z</time>
      </trkpt>
      <trkpt lat="43.30893" lon="-1.37958">
        <ele>51.09</ele>
        <time>2021-08-20T19:50:36Z</time>
      </trkpt>
      <trkpt lat="43.30876" lon="-1.37998">
        <ele>49.65</ele>
        <time>2021-08-20T19:50:43Z</time>
      </trkpt>
      <trkpt lat="43.30856" lon="-1.38029">
        <ele>49.16</ele>
        <time>2021-08-20T19:50:50Z</time>
      </trkpt>
      <trkpt lat="43.30853" lon="-1.38031">
        <ele>50.13</ele>
        <time>2021-08-20T19:50:51Z</time>
      </trkpt>
      <trkpt lat="43.30849" lon="-1.38032">
        <ele>50.13</ele>
        <time>2021-08-20T19:50:52Z</time>
      </trkpt>
      <trkpt lat="43.30831" lon="-1.38037">
        <ele>50.61</ele>
        <time>2021-08-20T19:50:58Z</time>
      </trkpt>
      <trkpt lat="43.30831" lon="-1.3804">
        <ele>51.57</ele>
        <time>2021-08-20T19:50:59Z</time>
      </trkpt>
      <trkpt lat="43.3083" lon="-1.38043">
        <ele>51.57</ele>
        <time>2021-08-20T19:51:00Z</time>
      </trkpt>
      <trkpt lat="43.30828" lon="-1.38046">
        <ele>51.57</ele>
        <time>2021-08-20T19:51:01Z</time>
      </trkpt>
      <trkpt lat="43.30827" lon="-1.38049">
        <ele>52.05</ele>
        <time>2021-08-20T19:51:02Z</time>
      </trkpt>
      <trkpt lat="43.30827" lon="-1.38053">
        <ele>51.57</ele>
        <time>2021-08-20T19:51:03Z</time>
      </trkpt>
      <trkpt lat="43.30823" lon="-1.38085">
        <ele>52.05</ele>
        <time>2021-08-20T19:51:09Z</time>
      </trkpt>
      <trkpt lat="43.30823" lon="-1.38091">
        <ele>52.05</ele>
        <time>2021-08-20T19:51:10Z</time>
      </trkpt>
      <trkpt lat="43.30816" lon="-1.38137">
        <ele>50.61</ele>
        <time>2021-08-20T19:51:17Z</time>
      </trkpt>
      <trkpt lat="43.30806" lon="-1.38198">
        <ele>50.13</ele>
        <time>2021-08-20T19:51:26Z</time>
      </trkpt>
      <trkpt lat="43.30802" lon="-1.3826">
        <ele>50.13</ele>
        <time>2021-08-20T19:51:35Z</time>
      </trkpt>
      <trkpt lat="43.30804" lon="-1.38272">
        <ele>50.13</ele>
        <time>2021-08-20T19:51:37Z</time>
      </trkpt>
      <trkpt lat="43.30806" lon="-1.38277">
        <ele>50.13</ele>
        <time>2021-08-20T19:51:38Z</time>
      </trkpt>
      <trkpt lat="43.30808" lon="-1.38282">
        <ele>51.57</ele>
        <time>2021-08-20T19:51:39Z</time>
      </trkpt>
      <trkpt lat="43.3081" lon="-1.38284">
        <ele>52.53</ele>
        <time>2021-08-20T19:51:40Z</time>
      </trkpt>
      <trkpt lat="43.30813" lon="-1.38286">
        <ele>52.53</ele>
        <time>2021-08-20T19:51:41Z</time>
      </trkpt>
      <trkpt lat="43.30815" lon="-1.38287">
        <ele>53.49</ele>
        <time>2021-08-20T19:51:42Z</time>
      </trkpt>
      <trkpt lat="43.3084" lon="-1.38296">
        <ele>54.45</ele>
        <time>2021-08-20T19:51:51Z</time>
      </trkpt>
      <trkpt lat="43.30877" lon="-1.3831">
        <ele>54.93</ele>
        <time>2021-08-20T19:52:01Z</time>
      </trkpt>
      <trkpt lat="43.3089" lon="-1.38315">
        <ele>53.49</ele>
        <time>2021-08-20T19:52:04Z</time>
      </trkpt>
      <trkpt lat="43.30906" lon="-1.38317">
        <ele>52.53</ele>
        <time>2021-08-20T19:52:07Z</time>
      </trkpt>
      <trkpt lat="43.3091" lon="-1.38317">
        <ele>52.53</ele>
        <time>2021-08-20T19:52:08Z</time>
      </trkpt>
      <trkpt lat="43.30915" lon="-1.38314">
        <ele>52.53</ele>
        <time>2021-08-20T19:52:09Z</time>
      </trkpt>
      <trkpt lat="43.30919" lon="-1.38311">
        <ele>52.53</ele>
        <time>2021-08-20T19:52:10Z</time>
      </trkpt>
      <trkpt lat="43.30923" lon="-1.38307">
        <ele>52.53</ele>
        <time>2021-08-20T19:52:11Z</time>
      </trkpt>
      <trkpt lat="43.30926" lon="-1.38303">
        <ele>52.53</ele>
        <time>2021-08-20T19:52:12Z</time>
      </trkpt>
      <trkpt lat="43.30937" lon="-1.38287">
        <ele>53.49</ele>
        <time>2021-08-20T19:52:16Z</time>
      </trkpt>
      <trkpt lat="43.30941" lon="-1.38283">
        <ele>54.45</ele>
        <time>2021-08-20T19:52:21Z</time>
      </trkpt>
      <trkpt lat="43.30946" lon="-1.38277">
        <ele>55.41</ele>
        <time>2021-08-20T19:52:29Z</time>
      </trkpt>
      <trkpt lat="43.30955" lon="-1.38267">
        <ele>58.3</ele>
        <time>2021-08-20T19:52:42Z</time>
      </trkpt>
      <trkpt lat="43.30964" lon="-1.38261">
        <ele>60.7</ele>
        <time>2021-08-20T19:52:53Z</time>
      </trkpt>
      <trkpt lat="43.30974" lon="-1.38257">
        <ele>62.62</ele>
        <time>2021-08-20T19:53:04Z</time>
      </trkpt>
      <trkpt lat="43.30983" lon="-1.38255">
        <ele>63.58</ele>
        <time>2021-08-20T19:53:14Z</time>
      </trkpt>
      <trkpt lat="43.30993" lon="-1.38253">
        <ele>65.03</ele>
        <time>2021-08-20T19:53:24Z</time>
      </trkpt>
      <trkpt lat="43.31002" lon="-1.38252">
        <ele>66.95</ele>
        <time>2021-08-20T19:53:33Z</time>
      </trkpt>
      <trkpt lat="43.31011" lon="-1.38251">
        <ele>68.87</ele>
        <time>2021-08-20T19:53:43Z</time>
      </trkpt>
      <trkpt lat="43.3102" lon="-1.38247">
        <ele>70.31</ele>
        <time>2021-08-20T19:53:54Z</time>
      </trkpt>
      <trkpt lat="43.31029" lon="-1.38243">
        <ele>72.24</ele>
        <time>2021-08-20T19:54:05Z</time>
      </trkpt>
      <trkpt lat="43.31037" lon="-1.3824">
        <ele>74.16</ele>
        <time>2021-08-20T19:54:14Z</time>
      </trkpt>
      <trkpt lat="43.31047" lon="-1.38236">
        <ele>75.6</ele>
        <time>2021-08-20T19:54:24Z</time>
      </trkpt>
      <trkpt lat="43.31053" lon="-1.38233">
        <ele>76.56</ele>
        <time>2021-08-20T19:54:33Z</time>
      </trkpt>
      <trkpt lat="43.31054" lon="-1.38232">
        <ele>76.56</ele>
        <time>2021-08-20T19:54:35Z</time>
      </trkpt>
      <trkpt lat="43.31056" lon="-1.38229">
        <ele>76.56</ele>
        <time>2021-08-20T19:54:38Z</time>
      </trkpt>
      <trkpt lat="43.31056" lon="-1.38228">
        <ele>76.56</ele>
        <time>2021-08-20T19:54:39Z</time>
      </trkpt>
      <trkpt lat="43.31057" lon="-1.38227">
        <ele>76.56</ele>
        <time>2021-08-20T19:54:40Z</time>
      </trkpt>
      <trkpt lat="43.31059" lon="-1.38226">
        <ele>77.04</ele>
        <time>2021-08-20T19:54:41Z</time>
      </trkpt>
      <trkpt lat="43.31061" lon="-1.38224">
        <ele>77.04</ele>
        <time>2021-08-20T19:54:42Z</time>
      </trkpt>
      <trkpt lat="43.31062" lon="-1.38223">
        <ele>77.04</ele>
        <time>2021-08-20T19:54:43Z</time>
      </trkpt>
      <trkpt lat="43.31064" lon="-1.38221">
        <ele>77.04</ele>
        <time>2021-08-20T19:54:44Z</time>
      </trkpt>
      <trkpt lat="43.31066" lon="-1.3822">
        <ele>77.04</ele>
        <time>2021-08-20T19:54:45Z</time>
      </trkpt>
      <trkpt lat="43.31068" lon="-1.38219">
        <ele>77.52</ele>
        <time>2021-08-20T19:54:46Z</time>
      </trkpt>
      <trkpt lat="43.31069" lon="-1.38217">
        <ele>77.52</ele>
        <time>2021-08-20T19:54:47Z</time>
      </trkpt>
      <trkpt lat="43.31084" lon="-1.38201">
        <ele>78</ele>
        <time>2021-08-20T19:54:55Z</time>
      </trkpt>
      <trkpt lat="43.311" lon="-1.38187">
        <ele>78.97</ele>
        <time>2021-08-20T19:55:03Z</time>
      </trkpt>
      <trkpt lat="43.31117" lon="-1.38178">
        <ele>79.93</ele>
        <time>2021-08-20T19:55:11Z</time>
      </trkpt>
      <trkpt lat="43.31128" lon="-1.3817">
        <ele>80.89</ele>
        <time>2021-08-20T19:55:19Z</time>
      </trkpt>
      <trkpt lat="43.31133" lon="-1.38164">
        <ele>82.33</ele>
        <time>2021-08-20T19:55:25Z</time>
      </trkpt>
      <trkpt lat="43.31137" lon="-1.38155">
        <ele>83.77</ele>
        <time>2021-08-20T19:55:35Z</time>
      </trkpt>
      <trkpt lat="43.31141" lon="-1.38143">
        <ele>85.21</ele>
        <time>2021-08-20T19:55:44Z</time>
      </trkpt>
      <trkpt lat="43.31149" lon="-1.38128">
        <ele>86.18</ele>
        <time>2021-08-20T19:55:54Z</time>
      </trkpt>
      <trkpt lat="43.3115" lon="-1.38127">
        <ele>86.18</ele>
        <time>2021-08-20T19:55:55Z</time>
      </trkpt>
      <trkpt lat="43.31151" lon="-1.38125">
        <ele>86.66</ele>
        <time>2021-08-20T19:55:56Z</time>
      </trkpt>
      <trkpt lat="43.31152" lon="-1.38124">
        <ele>86.66</ele>
        <time>2021-08-20T19:55:57Z</time>
      </trkpt>
      <trkpt lat="43.31152" lon="-1.38123">
        <ele>86.66</ele>
        <time>2021-08-20T19:55:58Z</time>
      </trkpt>
      <trkpt lat="43.31153" lon="-1.38121">
        <ele>86.66</ele>
        <time>2021-08-20T19:55:59Z</time>
      </trkpt>
      <trkpt lat="43.31153" lon="-1.3812">
        <ele>87.14</ele>
        <time>2021-08-20T19:56:00Z</time>
      </trkpt>
      <trkpt lat="43.31154" lon="-1.38118">
        <ele>87.14</ele>
        <time>2021-08-20T19:56:01Z</time>
      </trkpt>
      <trkpt lat="43.31154" lon="-1.38117">
        <ele>87.14</ele>
        <time>2021-08-20T19:56:02Z</time>
      </trkpt>
      <trkpt lat="43.31155" lon="-1.38115">
        <ele>87.14</ele>
        <time>2021-08-20T19:56:03Z</time>
      </trkpt>
      <trkpt lat="43.31155" lon="-1.38114">
        <ele>87.62</ele>
        <time>2021-08-20T19:56:04Z</time>
      </trkpt>
      <trkpt lat="43.31164" lon="-1.38104">
        <ele>89.54</ele>
        <time>2021-08-20T19:56:14Z</time>
      </trkpt>
      <trkpt lat="43.31172" lon="-1.38094">
        <ele>91.94</ele>
        <time>2021-08-20T19:56:25Z</time>
      </trkpt>
      <trkpt lat="43.31179" lon="-1.38086">
        <ele>93.39</ele>
        <time>2021-08-20T19:56:34Z</time>
      </trkpt>
      <trkpt lat="43.31185" lon="-1.38085">
        <ele>94.35</ele>
        <time>2021-08-20T19:56:42Z</time>
      </trkpt>
      <trkpt lat="43.31184" lon="-1.38089">
        <ele>95.31</ele>
        <time>2021-08-20T19:56:46Z</time>
      </trkpt>
      <trkpt lat="43.31179" lon="-1.38101">
        <ele>96.27</ele>
        <time>2021-08-20T19:56:55Z</time>
      </trkpt>
      <trkpt lat="43.31175" lon="-1.38115">
        <ele>97.71</ele>
        <time>2021-08-20T19:57:04Z</time>
      </trkpt>
      <trkpt lat="43.31174" lon="-1.38131">
        <ele>98.67</ele>
        <time>2021-08-20T19:57:13Z</time>
      </trkpt>
      <trkpt lat="43.31177" lon="-1.38148">
        <ele>99.63</ele>
        <time>2021-08-20T19:57:23Z</time>
      </trkpt>
      <trkpt lat="43.31184" lon="-1.38159">
        <ele>101.08</ele>
        <time>2021-08-20T19:57:33Z</time>
      </trkpt>
      <trkpt lat="43.31191" lon="-1.38162">
        <ele>102.52</ele>
        <time>2021-08-20T19:57:42Z</time>
      </trkpt>
      <trkpt lat="43.31195" lon="-1.38162">
        <ele>103.48</ele>
        <time>2021-08-20T19:57:47Z</time>
      </trkpt>
      <trkpt lat="43.31202" lon="-1.38164">
        <ele>104.44</ele>
        <time>2021-08-20T19:57:55Z</time>
      </trkpt>
      <trkpt lat="43.31211" lon="-1.38162">
        <ele>105.88</ele>
        <time>2021-08-20T19:58:03Z</time>
      </trkpt>
      <trkpt lat="43.31219" lon="-1.38161">
        <ele>106.84</ele>
        <time>2021-08-20T19:58:13Z</time>
      </trkpt>
      <trkpt lat="43.31229" lon="-1.3816">
        <ele>109.25</ele>
        <time>2021-08-20T19:58:23Z</time>
      </trkpt>
      <trkpt lat="43.31236" lon="-1.38162">
        <ele>110.21</ele>
        <time>2021-08-20T19:58:30Z</time>
      </trkpt>
      <trkpt lat="43.31246" lon="-1.38166">
        <ele>111.65</ele>
        <time>2021-08-20T19:58:41Z</time>
      </trkpt>
      <trkpt lat="43.31254" lon="-1.38172">
        <ele>113.57</ele>
        <time>2021-08-20T19:58:51Z</time>
      </trkpt>
      <trkpt lat="43.31258" lon="-1.38174">
        <ele>115.01</ele>
        <time>2021-08-20T19:58:56Z</time>
      </trkpt>
      <trkpt lat="43.31262" lon="-1.38178">
        <ele>115.01</ele>
        <time>2021-08-20T19:59:04Z</time>
      </trkpt>
      <trkpt lat="43.31274" lon="-1.38192">
        <ele>115.01</ele>
        <time>2021-08-20T19:59:12Z</time>
      </trkpt>
      <trkpt lat="43.31285" lon="-1.38203">
        <ele>115.5</ele>
        <time>2021-08-20T19:59:18Z</time>
      </trkpt>
      <trkpt lat="43.31295" lon="-1.38218">
        <ele>116.46</ele>
        <time>2021-08-20T19:59:25Z</time>
      </trkpt>
      <trkpt lat="43.31295" lon="-1.38229">
        <ele>117.42</ele>
        <time>2021-08-20T19:59:30Z</time>
      </trkpt>
      <trkpt lat="43.31293" lon="-1.38233">
        <ele>117.9</ele>
        <time>2021-08-20T19:59:38Z</time>
      </trkpt>
      <trkpt lat="43.31287" lon="-1.38238">
        <ele>119.82</ele>
        <time>2021-08-20T19:59:49Z</time>
      </trkpt>
      <trkpt lat="43.31279" lon="-1.38242">
        <ele>121.74</ele>
        <time>2021-08-20T19:59:58Z</time>
      </trkpt>
      <trkpt lat="43.31273" lon="-1.38248">
        <ele>123.19</ele>
        <time>2021-08-20T20:00:06Z</time>
      </trkpt>
      <trkpt lat="43.31271" lon="-1.38252">
        <ele>123.67</ele>
        <time>2021-08-20T20:00:09Z</time>
      </trkpt>
      <trkpt lat="43.31266" lon="-1.38262">
        <ele>124.63</ele>
        <time>2021-08-20T20:00:17Z</time>
      </trkpt>
      <trkpt lat="43.31265" lon="-1.38264">
        <ele>125.59</ele>
        <time>2021-08-20T20:00:19Z</time>
      </trkpt>
      <trkpt lat="43.31258" lon="-1.38274">
        <ele>126.07</ele>
        <time>2021-08-20T20:00:28Z</time>
      </trkpt>
      <trkpt lat="43.31254" lon="-1.38289">
        <ele>127.51</ele>
        <time>2021-08-20T20:00:38Z</time>
      </trkpt>
      <trkpt lat="43.31249" lon="-1.38302">
        <ele>128.95</ele>
        <time>2021-08-20T20:00:47Z</time>
      </trkpt>
      <trkpt lat="43.31244" lon="-1.38312">
        <ele>130.88</ele>
        <time>2021-08-20T20:00:55Z</time>
      </trkpt>
      <trkpt lat="43.31236" lon="-1.38332">
        <ele>132.8</ele>
        <time>2021-08-20T20:01:08Z</time>
      </trkpt>
      <trkpt lat="43.31229" lon="-1.38349">
        <ele>133.76</ele>
        <time>2021-08-20T20:01:19Z</time>
      </trkpt>
      <trkpt lat="43.31228" lon="-1.38352">
        <ele>134.24</ele>
        <time>2021-08-20T20:01:21Z</time>
      </trkpt>
      <trkpt lat="43.31227" lon="-1.38354">
        <ele>134.24</ele>
        <time>2021-08-20T20:01:22Z</time>
      </trkpt>
      <trkpt lat="43.31227" lon="-1.38355">
        <ele>134.24</ele>
        <time>2021-08-20T20:01:27Z</time>
      </trkpt>
      <trkpt lat="43.31224" lon="-1.38364">
        <ele>134.72</ele>
        <time>2021-08-20T20:01:33Z</time>
      </trkpt>
      <trkpt lat="43.31217" lon="-1.3838">
        <ele>136.16</ele>
        <time>2021-08-20T20:01:40Z</time>
      </trkpt>
      <trkpt lat="43.31212" lon="-1.38391">
        <ele>137.61</ele>
        <time>2021-08-20T20:01:47Z</time>
      </trkpt>
      <trkpt lat="43.31207" lon="-1.38408">
        <ele>138.57</ele>
        <time>2021-08-20T20:01:56Z</time>
      </trkpt>
      <trkpt lat="43.31204" lon="-1.38424">
        <ele>139.53</ele>
        <time>2021-08-20T20:02:04Z</time>
      </trkpt>
      <trkpt lat="43.31202" lon="-1.3844">
        <ele>140.97</ele>
        <time>2021-08-20T20:02:11Z</time>
      </trkpt>
      <trkpt lat="43.31198" lon="-1.38458">
        <ele>141.93</ele>
        <time>2021-08-20T20:02:19Z</time>
      </trkpt>
      <trkpt lat="43.31194" lon="-1.3849">
        <ele>142.89</ele>
        <time>2021-08-20T20:02:28Z</time>
      </trkpt>
      <trkpt lat="43.31199" lon="-1.38518">
        <ele>142.89</ele>
        <time>2021-08-20T20:02:36Z</time>
      </trkpt>
      <trkpt lat="43.31216" lon="-1.3852">
        <ele>144.82</ele>
        <time>2021-08-20T20:02:42Z</time>
      </trkpt>
      <trkpt lat="43.31223" lon="-1.3852">
        <ele>147.22</ele>
        <time>2021-08-20T20:02:46Z</time>
      </trkpt>
      <trkpt lat="43.31224" lon="-1.38522">
        <ele>146.74</ele>
        <time>2021-08-20T20:02:53Z</time>
      </trkpt>
      <trkpt lat="43.31228" lon="-1.38524">
        <ele>148.18</ele>
        <time>2021-08-20T20:03:02Z</time>
      </trkpt>
      <trkpt lat="43.31239" lon="-1.38526">
        <ele>150.1</ele>
        <time>2021-08-20T20:03:13Z</time>
      </trkpt>
      <trkpt lat="43.31252" lon="-1.38532">
        <ele>152.51</ele>
        <time>2021-08-20T20:03:27Z</time>
      </trkpt>
      <trkpt lat="43.31265" lon="-1.38536">
        <ele>154.43</ele>
        <time>2021-08-20T20:03:39Z</time>
      </trkpt>
      <trkpt lat="43.31271" lon="-1.38538">
        <ele>154.91</ele>
        <time>2021-08-20T20:03:45Z</time>
      </trkpt>
      <trkpt lat="43.31272" lon="-1.38538">
        <ele>154.91</ele>
        <time>2021-08-20T20:03:46Z</time>
      </trkpt>
      <trkpt lat="43.31283" lon="-1.38539">
        <ele>156.83</ele>
        <time>2021-08-20T20:03:56Z</time>
      </trkpt>
      <trkpt lat="43.31293" lon="-1.3854">
        <ele>158.27</ele>
        <time>2021-08-20T20:04:06Z</time>
      </trkpt>
      <trkpt lat="43.31305" lon="-1.38543">
        <ele>160.2</ele>
        <time>2021-08-20T20:04:17Z</time>
      </trkpt>
      <trkpt lat="43.31313" lon="-1.38551">
        <ele>160.68</ele>
        <time>2021-08-20T20:04:26Z</time>
      </trkpt>
      <trkpt lat="43.31324" lon="-1.38565">
        <ele>161.16</ele>
        <time>2021-08-20T20:04:37Z</time>
      </trkpt>
      <trkpt lat="43.31334" lon="-1.38578">
        <ele>162.12</ele>
        <time>2021-08-20T20:04:47Z</time>
      </trkpt>
      <trkpt lat="43.31341" lon="-1.38591">
        <ele>163.08</ele>
        <time>2021-08-20T20:04:57Z</time>
      </trkpt>
      <trkpt lat="43.31346" lon="-1.38604">
        <ele>165</ele>
        <time>2021-08-20T20:05:07Z</time>
      </trkpt>
      <trkpt lat="43.31347" lon="-1.38611">
        <ele>165.96</ele>
        <time>2021-08-20T20:05:12Z</time>
      </trkpt>
      <trkpt lat="43.31347" lon="-1.38624">
        <ele>168.85</ele>
        <time>2021-08-20T20:05:23Z</time>
      </trkpt>
      <trkpt lat="43.31347" lon="-1.38637">
        <ele>170.77</ele>
        <time>2021-08-20T20:05:34Z</time>
      </trkpt>
      <trkpt lat="43.31349" lon="-1.38648">
        <ele>172.69</ele>
        <time>2021-08-20T20:05:44Z</time>
      </trkpt>
      <trkpt lat="43.31351" lon="-1.38659">
        <ele>174.14</ele>
        <time>2021-08-20T20:05:53Z</time>
      </trkpt>
      <trkpt lat="43.31356" lon="-1.38673">
        <ele>176.06</ele>
        <time>2021-08-20T20:06:04Z</time>
      </trkpt>
      <trkpt lat="43.31364" lon="-1.38689">
        <ele>177.02</ele>
        <time>2021-08-20T20:06:15Z</time>
      </trkpt>
      <trkpt lat="43.31368" lon="-1.38699">
        <ele>177.98</ele>
        <time>2021-08-20T20:06:22Z</time>
      </trkpt>
      <trkpt lat="43.31374" lon="-1.38712">
        <ele>179.42</ele>
        <time>2021-08-20T20:06:32Z</time>
      </trkpt>
      <trkpt lat="43.3138" lon="-1.38724">
        <ele>180.87</ele>
        <time>2021-08-20T20:06:41Z</time>
      </trkpt>
      <trkpt lat="43.31388" lon="-1.38729">
        <ele>182.31</ele>
        <time>2021-08-20T20:06:49Z</time>
      </trkpt>
      <trkpt lat="43.31389" lon="-1.38728">
        <ele>182.79</ele>
        <time>2021-08-20T20:06:50Z</time>
      </trkpt>
      <trkpt lat="43.3139" lon="-1.38724">
        <ele>183.75</ele>
        <time>2021-08-20T20:06:53Z</time>
      </trkpt>
      <trkpt lat="43.31391" lon="-1.38706">
        <ele>184.71</ele>
        <time>2021-08-20T20:07:03Z</time>
      </trkpt>
      <trkpt lat="43.31393" lon="-1.38681">
        <ele>186.15</ele>
        <time>2021-08-20T20:07:17Z</time>
      </trkpt>
      <trkpt lat="43.31396" lon="-1.38662">
        <ele>188.56</ele>
        <time>2021-08-20T20:07:29Z</time>
      </trkpt>
      <trkpt lat="43.314" lon="-1.38645">
        <ele>190</ele>
        <time>2021-08-20T20:07:40Z</time>
      </trkpt>
      <trkpt lat="43.31405" lon="-1.3863">
        <ele>191.44</ele>
        <time>2021-08-20T20:07:51Z</time>
      </trkpt>
      <trkpt lat="43.31407" lon="-1.38626">
        <ele>191.44</ele>
        <time>2021-08-20T20:07:57Z</time>
      </trkpt>
      <trkpt lat="43.31413" lon="-1.38609">
        <ele>191.92</ele>
        <time>2021-08-20T20:08:04Z</time>
      </trkpt>
      <trkpt lat="43.31422" lon="-1.38581">
        <ele>191.92</ele>
        <time>2021-08-20T20:08:12Z</time>
      </trkpt>
      <trkpt lat="43.31424" lon="-1.38557">
        <ele>193.84</ele>
        <time>2021-08-20T20:08:20Z</time>
      </trkpt>
      <trkpt lat="43.31424" lon="-1.38542">
        <ele>195.28</ele>
        <time>2021-08-20T20:08:26Z</time>
      </trkpt>
      <trkpt lat="43.31424" lon="-1.38529">
        <ele>195.77</ele>
        <time>2021-08-20T20:08:31Z</time>
      </trkpt>
      <trkpt lat="43.31428" lon="-1.3851">
        <ele>197.21</ele>
        <time>2021-08-20T20:08:39Z</time>
      </trkpt>
      <trkpt lat="43.31431" lon="-1.385">
        <ele>199.13</ele>
        <time>2021-08-20T20:08:44Z</time>
      </trkpt>
      <trkpt lat="43.31431" lon="-1.38499">
        <ele>199.13</ele>
        <time>2021-08-20T20:08:45Z</time>
      </trkpt>
      <trkpt lat="43.31431" lon="-1.38497">
        <ele>199.13</ele>
        <time>2021-08-20T20:08:46Z</time>
      </trkpt>
      <trkpt lat="43.31431" lon="-1.38495">
        <ele>199.13</ele>
        <time>2021-08-20T20:08:47Z</time>
      </trkpt>
      <trkpt lat="43.31433" lon="-1.38494">
        <ele>199.13</ele>
        <time>2021-08-20T20:08:48Z</time>
      </trkpt>
      <trkpt lat="43.31435" lon="-1.38489">
        <ele>200.09</ele>
        <time>2021-08-20T20:08:54Z</time>
      </trkpt>
      <trkpt lat="43.31439" lon="-1.38474">
        <ele>201.05</ele>
        <time>2021-08-20T20:09:04Z</time>
      </trkpt>
      <trkpt lat="43.31445" lon="-1.38461">
        <ele>202.01</ele>
        <time>2021-08-20T20:09:13Z</time>
      </trkpt>
      <trkpt lat="43.31452" lon="-1.38447">
        <ele>203.94</ele>
        <time>2021-08-20T20:09:23Z</time>
      </trkpt>
      <trkpt lat="43.31463" lon="-1.38432">
        <ele>205.86</ele>
        <time>2021-08-20T20:09:36Z</time>
      </trkpt>
      <trkpt lat="43.31473" lon="-1.38419">
        <ele>206.82</ele>
        <time>2021-08-20T20:09:47Z</time>
      </trkpt>
      <trkpt lat="43.31477" lon="-1.38415">
        <ele>207.78</ele>
        <time>2021-08-20T20:09:55Z</time>
      </trkpt>
      <trkpt lat="43.31477" lon="-1.38414">
        <ele>207.78</ele>
        <time>2021-08-20T20:09:56Z</time>
      </trkpt>
      <trkpt lat="43.31479" lon="-1.38411">
        <ele>207.78</ele>
        <time>2021-08-20T20:10:00Z</time>
      </trkpt>
      <trkpt lat="43.3148" lon="-1.3841">
        <ele>208.26</ele>
        <time>2021-08-20T20:10:01Z</time>
      </trkpt>
      <trkpt lat="43.31482" lon="-1.38409">
        <ele>208.26</ele>
        <time>2021-08-20T20:10:02Z</time>
      </trkpt>
      <trkpt lat="43.31497" lon="-1.38394">
        <ele>209.7</ele>
        <time>2021-08-20T20:10:11Z</time>
      </trkpt>
      <trkpt lat="43.31507" lon="-1.38383">
        <ele>210.67</ele>
        <time>2021-08-20T20:10:18Z</time>
      </trkpt>
      <trkpt lat="43.31519" lon="-1.38369">
        <ele>212.11</ele>
        <time>2021-08-20T20:10:27Z</time>
      </trkpt>
      <trkpt lat="43.31528" lon="-1.38354">
        <ele>212.59</ele>
        <time>2021-08-20T20:10:35Z</time>
      </trkpt>
      <trkpt lat="43.31534" lon="-1.38339">
        <ele>214.51</ele>
        <time>2021-08-20T20:10:43Z</time>
      </trkpt>
      <trkpt lat="43.3154" lon="-1.38322">
        <ele>215.47</ele>
        <time>2021-08-20T20:10:51Z</time>
      </trkpt>
      <trkpt lat="43.31548" lon="-1.38301">
        <ele>215.95</ele>
        <time>2021-08-20T20:11:00Z</time>
      </trkpt>
      <trkpt lat="43.31553" lon="-1.38287">
        <ele>217.4</ele>
        <time>2021-08-20T20:11:06Z</time>
      </trkpt>
      <trkpt lat="43.31559" lon="-1.38272">
        <ele>218.36</ele>
        <time>2021-08-20T20:11:13Z</time>
      </trkpt>
      <trkpt lat="43.31564" lon="-1.38257">
        <ele>219.32</ele>
        <time>2021-08-20T20:11:20Z</time>
      </trkpt>
      <trkpt lat="43.31573" lon="-1.38232">
        <ele>220.76</ele>
        <time>2021-08-20T20:11:30Z</time>
      </trkpt>
      <trkpt lat="43.31579" lon="-1.38217">
        <ele>220.76</ele>
        <time>2021-08-20T20:11:37Z</time>
      </trkpt>
      <trkpt lat="43.31588" lon="-1.38192">
        <ele>222.68</ele>
        <time>2021-08-20T20:11:48Z</time>
      </trkpt>
      <trkpt lat="43.31596" lon="-1.38171">
        <ele>223.16</ele>
        <time>2021-08-20T20:11:57Z</time>
      </trkpt>
      <trkpt lat="43.31601" lon="-1.38151">
        <ele>224.61</ele>
        <time>2021-08-20T20:12:05Z</time>
      </trkpt>
      <trkpt lat="43.31606" lon="-1.38128">
        <ele>225.57</ele>
        <time>2021-08-20T20:12:14Z</time>
      </trkpt>
      <trkpt lat="43.31608" lon="-1.3811">
        <ele>227.01</ele>
        <time>2021-08-20T20:12:22Z</time>
      </trkpt>
      <trkpt lat="43.31613" lon="-1.38088">
        <ele>227.97</ele>
        <time>2021-08-20T20:12:31Z</time>
      </trkpt>
      <trkpt lat="43.31618" lon="-1.38066">
        <ele>228.93</ele>
        <time>2021-08-20T20:12:41Z</time>
      </trkpt>
      <trkpt lat="43.31621" lon="-1.38049">
        <ele>230.37</ele>
        <time>2021-08-20T20:12:48Z</time>
      </trkpt>
      <trkpt lat="43.31626" lon="-1.38028">
        <ele>231.81</ele>
        <time>2021-08-20T20:12:57Z</time>
      </trkpt>
      <trkpt lat="43.3163" lon="-1.3801">
        <ele>233.26</ele>
        <time>2021-08-20T20:13:05Z</time>
      </trkpt>
      <trkpt lat="43.31634" lon="-1.37994">
        <ele>233.74</ele>
        <time>2021-08-20T20:13:12Z</time>
      </trkpt>
      <trkpt lat="43.31638" lon="-1.37984">
        <ele>235.66</ele>
        <time>2021-08-20T20:13:17Z</time>
      </trkpt>
      <trkpt lat="43.31645" lon="-1.3796">
        <ele>235.66</ele>
        <time>2021-08-20T20:13:27Z</time>
      </trkpt>
      <trkpt lat="43.31652" lon="-1.37936">
        <ele>237.1</ele>
        <time>2021-08-20T20:13:37Z</time>
      </trkpt>
      <trkpt lat="43.3166" lon="-1.37912">
        <ele>237.1</ele>
        <time>2021-08-20T20:13:44Z</time>
      </trkpt>
      <trkpt lat="43.31673" lon="-1.37876">
        <ele>235.66</ele>
        <time>2021-08-20T20:13:51Z</time>
      </trkpt>
      <trkpt lat="43.31686" lon="-1.37839">
        <ele>234.7</ele>
        <time>2021-08-20T20:13:57Z</time>
      </trkpt>
      <trkpt lat="43.31687" lon="-1.37833">
        <ele>234.7</ele>
        <time>2021-08-20T20:13:58Z</time>
      </trkpt>
      <trkpt lat="43.31693" lon="-1.37796">
        <ele>234.7</ele>
        <time>2021-08-20T20:14:05Z</time>
      </trkpt>
      <trkpt lat="43.31702" lon="-1.37746">
        <ele>234.22</ele>
        <time>2021-08-20T20:14:13Z</time>
      </trkpt>
      <trkpt lat="43.31713" lon="-1.37694">
        <ele>234.22</ele>
        <time>2021-08-20T20:14:22Z</time>
      </trkpt>
      <trkpt lat="43.31723" lon="-1.37657">
        <ele>234.7</ele>
        <time>2021-08-20T20:14:31Z</time>
      </trkpt>
      <trkpt lat="43.31721" lon="-1.37627">
        <ele>234.7</ele>
        <time>2021-08-20T20:14:38Z</time>
      </trkpt>
      <trkpt lat="43.31717" lon="-1.37594">
        <ele>236.62</ele>
        <time>2021-08-20T20:14:46Z</time>
      </trkpt>
      <trkpt lat="43.31714" lon="-1.37571">
        <ele>238.54</ele>
        <time>2021-08-20T20:14:52Z</time>
      </trkpt>
      <trkpt lat="43.31709" lon="-1.37532">
        <ele>239.99</ele>
        <time>2021-08-20T20:15:02Z</time>
      </trkpt>
      <trkpt lat="43.31704" lon="-1.37489">
        <ele>240.95</ele>
        <time>2021-08-20T20:15:12Z</time>
      </trkpt>
      <trkpt lat="43.31695" lon="-1.37449">
        <ele>241.91</ele>
        <time>2021-08-20T20:15:22Z</time>
      </trkpt>
      <trkpt lat="43.31688" lon="-1.37419">
        <ele>244.31</ele>
        <time>2021-08-20T20:15:30Z</time>
      </trkpt>
      <trkpt lat="43.31678" lon="-1.37376">
        <ele>248.16</ele>
        <time>2021-08-20T20:15:37Z</time>
      </trkpt>
      <trkpt lat="43.31673" lon="-1.3734">
        <ele>249.6</ele>
        <time>2021-08-20T20:15:44Z</time>
      </trkpt>
      <trkpt lat="43.31667" lon="-1.37311">
        <ele>249.6</ele>
        <time>2021-08-20T20:15:51Z</time>
      </trkpt>
      <trkpt lat="43.31662" lon="-1.37285">
        <ele>248.64</ele>
        <time>2021-08-20T20:15:56Z</time>
      </trkpt>
      <trkpt lat="43.31656" lon="-1.37255">
        <ele>245.27</ele>
        <time>2021-08-20T20:16:00Z</time>
      </trkpt>
      <trkpt lat="43.31649" lon="-1.37222">
        <ele>244.31</ele>
        <time>2021-08-20T20:16:04Z</time>
      </trkpt>
      <trkpt lat="43.31648" lon="-1.37214">
        <ele>244.31</ele>
        <time>2021-08-20T20:16:05Z</time>
      </trkpt>
      <trkpt lat="43.31645" lon="-1.37199">
        <ele>244.31</ele>
        <time>2021-08-20T20:16:07Z</time>
      </trkpt>
      <trkpt lat="43.31643" lon="-1.37193">
        <ele>244.31</ele>
        <time>2021-08-20T20:16:08Z</time>
      </trkpt>
      <trkpt lat="43.31642" lon="-1.37186">
        <ele>244.31</ele>
        <time>2021-08-20T20:16:09Z</time>
      </trkpt>
      <trkpt lat="43.3164" lon="-1.37179">
        <ele>244.31</ele>
        <time>2021-08-20T20:16:10Z</time>
      </trkpt>
      <trkpt lat="43.31639" lon="-1.37173">
        <ele>245.27</ele>
        <time>2021-08-20T20:16:11Z</time>
      </trkpt>
      <trkpt lat="43.31632" lon="-1.37143">
        <ele>246.23</ele>
        <time>2021-08-20T20:16:18Z</time>
      </trkpt>
      <trkpt lat="43.31624" lon="-1.37109">
        <ele>244.79</ele>
        <time>2021-08-20T20:16:25Z</time>
      </trkpt>
      <trkpt lat="43.31623" lon="-1.37103">
        <ele>244.79</ele>
        <time>2021-08-20T20:16:26Z</time>
      </trkpt>
      <trkpt lat="43.3161" lon="-1.37047">
        <ele>242.87</ele>
        <time>2021-08-20T20:16:33Z</time>
      </trkpt>
      <trkpt lat="43.31607" lon="-1.37031">
        <ele>242.87</ele>
        <time>2021-08-20T20:16:35Z</time>
      </trkpt>
      <trkpt lat="43.31608" lon="-1.36972">
        <ele>239.51</ele>
        <time>2021-08-20T20:16:42Z</time>
      </trkpt>
      <trkpt lat="43.31607" lon="-1.36924">
        <ele>235.66</ele>
        <time>2021-08-20T20:16:47Z</time>
      </trkpt>
      <trkpt lat="43.31605" lon="-1.36889">
        <ele>232.3</ele>
        <time>2021-08-20T20:16:50Z</time>
      </trkpt>
      <trkpt lat="43.31607" lon="-1.36849">
        <ele>229.89</ele>
        <time>2021-08-20T20:16:53Z</time>
      </trkpt>
      <trkpt lat="43.31614" lon="-1.36797">
        <ele>231.33</ele>
        <time>2021-08-20T20:16:58Z</time>
      </trkpt>
      <trkpt lat="43.31632" lon="-1.36736">
        <ele>230.85</ele>
        <time>2021-08-20T20:17:06Z</time>
      </trkpt>
      <trkpt lat="43.3164" lon="-1.36716">
        <ele>229.89</ele>
        <time>2021-08-20T20:17:09Z</time>
      </trkpt>
      <trkpt lat="43.31641" lon="-1.36709">
        <ele>229.41</ele>
        <time>2021-08-20T20:17:10Z</time>
      </trkpt>
      <trkpt lat="43.3164" lon="-1.36702">
        <ele>229.41</ele>
        <time>2021-08-20T20:17:11Z</time>
      </trkpt>
      <trkpt lat="43.31638" lon="-1.36661">
        <ele>226.05</ele>
        <time>2021-08-20T20:17:16Z</time>
      </trkpt>
      <trkpt lat="43.31635" lon="-1.36618">
        <ele>221.72</ele>
        <time>2021-08-20T20:17:20Z</time>
      </trkpt>
      <trkpt lat="43.31631" lon="-1.36573">
        <ele>219.32</ele>
        <time>2021-08-20T20:17:24Z</time>
      </trkpt>
      <trkpt lat="43.31628" lon="-1.3655">
        <ele>218.36</ele>
        <time>2021-08-20T20:17:26Z</time>
      </trkpt>
      <trkpt lat="43.31625" lon="-1.3654">
        <ele>218.36</ele>
        <time>2021-08-20T20:17:27Z</time>
      </trkpt>
      <trkpt lat="43.31621" lon="-1.3653">
        <ele>217.88</ele>
        <time>2021-08-20T20:17:28Z</time>
      </trkpt>
      <trkpt lat="43.31617" lon="-1.36522">
        <ele>217.88</ele>
        <time>2021-08-20T20:17:29Z</time>
      </trkpt>
      <trkpt lat="43.31611" lon="-1.36515">
        <ele>217.88</ele>
        <time>2021-08-20T20:17:30Z</time>
      </trkpt>
      <trkpt lat="43.31605" lon="-1.36509">
        <ele>217.4</ele>
        <time>2021-08-20T20:17:31Z</time>
      </trkpt>
      <trkpt lat="43.31599" lon="-1.36503">
        <ele>216.91</ele>
        <time>2021-08-20T20:17:32Z</time>
      </trkpt>
      <trkpt lat="43.31592" lon="-1.36497">
        <ele>216.91</ele>
        <time>2021-08-20T20:17:33Z</time>
      </trkpt>
      <trkpt lat="43.31534" lon="-1.36457">
        <ele>214.99</ele>
        <time>2021-08-20T20:17:41Z</time>
      </trkpt>
      <trkpt lat="43.31528" lon="-1.36452">
        <ele>214.99</ele>
        <time>2021-08-20T20:17:42Z</time>
      </trkpt>
      <trkpt lat="43.31523" lon="-1.36446">
        <ele>214.99</ele>
        <time>2021-08-20T20:17:43Z</time>
      </trkpt>
      <trkpt lat="43.31518" lon="-1.36439">
        <ele>214.03</ele>
        <time>2021-08-20T20:17:44Z</time>
      </trkpt>
      <trkpt lat="43.31498" lon="-1.36405">
        <ele>212.11</ele>
        <time>2021-08-20T20:17:49Z</time>
      </trkpt>
      <trkpt lat="43.31496" lon="-1.36399">
        <ele>211.63</ele>
        <time>2021-08-20T20:17:50Z</time>
      </trkpt>
      <trkpt lat="43.31495" lon="-1.36393">
        <ele>211.63</ele>
        <time>2021-08-20T20:17:51Z</time>
      </trkpt>
      <trkpt lat="43.31496" lon="-1.36386">
        <ele>210.19</ele>
        <time>2021-08-20T20:17:52Z</time>
      </trkpt>
      <trkpt lat="43.31498" lon="-1.3638">
        <ele>209.7</ele>
        <time>2021-08-20T20:17:53Z</time>
      </trkpt>
      <trkpt lat="43.31501" lon="-1.36375">
        <ele>209.7</ele>
        <time>2021-08-20T20:17:54Z</time>
      </trkpt>
      <trkpt lat="43.31505" lon="-1.36372">
        <ele>209.7</ele>
        <time>2021-08-20T20:17:55Z</time>
      </trkpt>
      <trkpt lat="43.31509" lon="-1.36371">
        <ele>209.22</ele>
        <time>2021-08-20T20:17:56Z</time>
      </trkpt>
      <trkpt lat="43.31513" lon="-1.36371">
        <ele>209.22</ele>
        <time>2021-08-20T20:17:57Z</time>
      </trkpt>
      <trkpt lat="43.31517" lon="-1.36372">
        <ele>208.26</ele>
        <time>2021-08-20T20:17:58Z</time>
      </trkpt>
      <trkpt lat="43.31521" lon="-1.36374">
        <ele>208.26</ele>
        <time>2021-08-20T20:17:59Z</time>
      </trkpt>
      <trkpt lat="43.31536" lon="-1.36382">
        <ele>206.34</ele>
        <time>2021-08-20T20:18:04Z</time>
      </trkpt>
      <trkpt lat="43.31537" lon="-1.36383">
        <ele>205.86</ele>
        <time>2021-08-20T20:18:10Z</time>
      </trkpt>
      <trkpt lat="43.31534" lon="-1.36383">
        <ele>205.86</ele>
        <time>2021-08-20T20:18:17Z</time>
      </trkpt>
      <trkpt lat="43.31533" lon="-1.36382">
        <ele>205.86</ele>
        <time>2021-08-20T20:18:20Z</time>
      </trkpt>
      <trkpt lat="43.3153" lon="-1.3638">
        <ele>206.34</ele>
        <time>2021-08-20T20:18:23Z</time>
      </trkpt>
      <trkpt lat="43.31528" lon="-1.36379">
        <ele>206.34</ele>
        <time>2021-08-20T20:18:24Z</time>
      </trkpt>
      <trkpt lat="43.31527" lon="-1.36378">
        <ele>206.34</ele>
        <time>2021-08-20T20:18:25Z</time>
      </trkpt>
      <trkpt lat="43.31526" lon="-1.36377">
        <ele>207.78</ele>
        <time>2021-08-20T20:18:26Z</time>
      </trkpt>
      <trkpt lat="43.31525" lon="-1.36377">
        <ele>207.78</ele>
        <time>2021-08-20T20:18:27Z</time>
      </trkpt>
      <trkpt lat="43.31521" lon="-1.36375">
        <ele>208.26</ele>
        <time>2021-08-20T20:18:30Z</time>
      </trkpt>
      <trkpt lat="43.3152" lon="-1.36374">
        <ele>208.26</ele>
        <time>2021-08-20T20:18:31Z</time>
      </trkpt>
      <trkpt lat="43.31508" lon="-1.36368">
        <ele>209.22</ele>
        <time>2021-08-20T20:18:39Z</time>
      </trkpt>
      <trkpt lat="43.31507" lon="-1.36364">
        <ele>209.22</ele>
        <time>2021-08-20T20:18:46Z</time>
      </trkpt>
      <trkpt lat="43.315" lon="-1.36345">
        <ele>207.78</ele>
        <time>2021-08-20T20:18:52Z</time>
      </trkpt>
      <trkpt lat="43.31495" lon="-1.36335">
        <ele>206.82</ele>
        <time>2021-08-20T20:18:54Z</time>
      </trkpt>
      <trkpt lat="43.31485" lon="-1.36308">
        <ele>203.94</ele>
        <time>2021-08-20T20:18:58Z</time>
      </trkpt>
      <trkpt lat="43.31477" lon="-1.3628">
        <ele>202.01</ele>
        <time>2021-08-20T20:19:01Z</time>
      </trkpt>
      <trkpt lat="43.31471" lon="-1.3625">
        <ele>198.65</ele>
        <time>2021-08-20T20:19:04Z</time>
      </trkpt>
      <trkpt lat="43.31465" lon="-1.3622">
        <ele>197.21</ele>
        <time>2021-08-20T20:19:07Z</time>
      </trkpt>
      <trkpt lat="43.31454" lon="-1.36166">
        <ele>193.36</ele>
        <time>2021-08-20T20:19:12Z</time>
      </trkpt>
      <trkpt lat="43.3145" lon="-1.36134">
        <ele>190</ele>
        <time>2021-08-20T20:19:15Z</time>
      </trkpt>
      <trkpt lat="43.3145" lon="-1.36095">
        <ele>187.11</ele>
        <time>2021-08-20T20:19:19Z</time>
      </trkpt>
      <trkpt lat="43.31449" lon="-1.36066">
        <ele>183.75</ele>
        <time>2021-08-20T20:19:22Z</time>
      </trkpt>
      <trkpt lat="43.31448" lon="-1.36049">
        <ele>181.83</ele>
        <time>2021-08-20T20:19:24Z</time>
      </trkpt>
      <trkpt lat="43.31443" lon="-1.36015">
        <ele>177.98</ele>
        <time>2021-08-20T20:19:28Z</time>
      </trkpt>
      <trkpt lat="43.31442" lon="-1.36001">
        <ele>177.02</ele>
        <time>2021-08-20T20:19:30Z</time>
      </trkpt>
      <trkpt lat="43.31442" lon="-1.35994">
        <ele>176.54</ele>
        <time>2021-08-20T20:19:31Z</time>
      </trkpt>
      <trkpt lat="43.31443" lon="-1.35987">
        <ele>177.02</ele>
        <time>2021-08-20T20:19:32Z</time>
      </trkpt>
      <trkpt lat="43.31444" lon="-1.3598">
        <ele>177.02</ele>
        <time>2021-08-20T20:19:33Z</time>
      </trkpt>
      <trkpt lat="43.31447" lon="-1.35974">
        <ele>177.02</ele>
        <time>2021-08-20T20:19:34Z</time>
      </trkpt>
      <trkpt lat="43.31449" lon="-1.35969">
        <ele>176.06</ele>
        <time>2021-08-20T20:19:35Z</time>
      </trkpt>
      <trkpt lat="43.31452" lon="-1.35964">
        <ele>175.58</ele>
        <time>2021-08-20T20:19:36Z</time>
      </trkpt>
      <trkpt lat="43.31456" lon="-1.35959">
        <ele>175.58</ele>
        <time>2021-08-20T20:19:37Z</time>
      </trkpt>
      <trkpt lat="43.31458" lon="-1.35954">
        <ele>175.1</ele>
        <time>2021-08-20T20:19:38Z</time>
      </trkpt>
      <trkpt lat="43.31468" lon="-1.35936">
        <ele>172.21</ele>
        <time>2021-08-20T20:19:41Z</time>
      </trkpt>
      <trkpt lat="43.31473" lon="-1.3592">
        <ele>169.33</ele>
        <time>2021-08-20T20:19:43Z</time>
      </trkpt>
      <trkpt lat="43.31482" lon="-1.35884">
        <ele>165.96</ele>
        <time>2021-08-20T20:19:47Z</time>
      </trkpt>
      <trkpt lat="43.31487" lon="-1.3586">
        <ele>164.04</ele>
        <time>2021-08-20T20:19:50Z</time>
      </trkpt>
      <trkpt lat="43.31489" lon="-1.35853">
        <ele>163.08</ele>
        <time>2021-08-20T20:19:51Z</time>
      </trkpt>
      <trkpt lat="43.31492" lon="-1.35845">
        <ele>161.16</ele>
        <time>2021-08-20T20:19:52Z</time>
      </trkpt>
      <trkpt lat="43.31496" lon="-1.35838">
        <ele>160.68</ele>
        <time>2021-08-20T20:19:53Z</time>
      </trkpt>
      <trkpt lat="43.315" lon="-1.35831">
        <ele>158.75</ele>
        <time>2021-08-20T20:19:54Z</time>
      </trkpt>
      <trkpt lat="43.31504" lon="-1.35824">
        <ele>157.31</ele>
        <time>2021-08-20T20:19:55Z</time>
      </trkpt>
      <trkpt lat="43.31511" lon="-1.35809">
        <ele>154.43</ele>
        <time>2021-08-20T20:19:57Z</time>
      </trkpt>
      <trkpt lat="43.31514" lon="-1.35802">
        <ele>153.95</ele>
        <time>2021-08-20T20:19:58Z</time>
      </trkpt>
      <trkpt lat="43.31516" lon="-1.35794">
        <ele>153.47</ele>
        <time>2021-08-20T20:19:59Z</time>
      </trkpt>
      <trkpt lat="43.31517" lon="-1.35786">
        <ele>152.99</ele>
        <time>2021-08-20T20:20:00Z</time>
      </trkpt>
      <trkpt lat="43.31517" lon="-1.35779">
        <ele>152.03</ele>
        <time>2021-08-20T20:20:01Z</time>
      </trkpt>
      <trkpt lat="43.31518" lon="-1.3577">
        <ele>150.58</ele>
        <time>2021-08-20T20:20:02Z</time>
      </trkpt>
      <trkpt lat="43.31517" lon="-1.35752">
        <ele>148.66</ele>
        <time>2021-08-20T20:20:04Z</time>
      </trkpt>
      <trkpt lat="43.31516" lon="-1.35742">
        <ele>147.7</ele>
        <time>2021-08-20T20:20:05Z</time>
      </trkpt>
      <trkpt lat="43.31514" lon="-1.35733">
        <ele>147.7</ele>
        <time>2021-08-20T20:20:06Z</time>
      </trkpt>
      <trkpt lat="43.3151" lon="-1.35708">
        <ele>147.22</ele>
        <time>2021-08-20T20:20:09Z</time>
      </trkpt>
      <trkpt lat="43.3151" lon="-1.35701">
        <ele>147.22</ele>
        <time>2021-08-20T20:20:10Z</time>
      </trkpt>
      <trkpt lat="43.31511" lon="-1.35695">
        <ele>146.74</ele>
        <time>2021-08-20T20:20:11Z</time>
      </trkpt>
      <trkpt lat="43.31513" lon="-1.35689">
        <ele>146.26</ele>
        <time>2021-08-20T20:20:12Z</time>
      </trkpt>
      <trkpt lat="43.31515" lon="-1.35684">
        <ele>145.3</ele>
        <time>2021-08-20T20:20:13Z</time>
      </trkpt>
      <trkpt lat="43.31517" lon="-1.35681">
        <ele>144.82</ele>
        <time>2021-08-20T20:20:14Z</time>
      </trkpt>
      <trkpt lat="43.3152" lon="-1.35679">
        <ele>144.34</ele>
        <time>2021-08-20T20:20:15Z</time>
      </trkpt>
      <trkpt lat="43.31524" lon="-1.35678">
        <ele>142.89</ele>
        <time>2021-08-20T20:20:16Z</time>
      </trkpt>
      <trkpt lat="43.31528" lon="-1.35678">
        <ele>142.41</ele>
        <time>2021-08-20T20:20:17Z</time>
      </trkpt>
      <trkpt lat="43.31533" lon="-1.35678">
        <ele>140.97</ele>
        <time>2021-08-20T20:20:18Z</time>
      </trkpt>
      <trkpt lat="43.31544" lon="-1.3568">
        <ele>136.64</ele>
        <time>2021-08-20T20:20:20Z</time>
      </trkpt>
      <trkpt lat="43.3155" lon="-1.35682">
        <ele>134.72</ele>
        <time>2021-08-20T20:20:21Z</time>
      </trkpt>
      <trkpt lat="43.31556" lon="-1.35685">
        <ele>132.8</ele>
        <time>2021-08-20T20:20:22Z</time>
      </trkpt>
      <trkpt lat="43.31563" lon="-1.35688">
        <ele>130.88</ele>
        <time>2021-08-20T20:20:23Z</time>
      </trkpt>
      <trkpt lat="43.31583" lon="-1.357">
        <ele>127.99</ele>
        <time>2021-08-20T20:20:26Z</time>
      </trkpt>
      <trkpt lat="43.31594" lon="-1.35704">
        <ele>127.03</ele>
        <time>2021-08-20T20:20:28Z</time>
      </trkpt>
      <trkpt lat="43.31611" lon="-1.35715">
        <ele>122.22</ele>
        <time>2021-08-20T20:20:31Z</time>
      </trkpt>
      <trkpt lat="43.31628" lon="-1.35726">
        <ele>118.86</ele>
        <time>2021-08-20T20:20:34Z</time>
      </trkpt>
      <trkpt lat="43.31633" lon="-1.35728">
        <ele>118.86</ele>
        <time>2021-08-20T20:20:35Z</time>
      </trkpt>
      <trkpt lat="43.31638" lon="-1.35729">
        <ele>118.38</ele>
        <time>2021-08-20T20:20:36Z</time>
      </trkpt>
      <trkpt lat="43.31643" lon="-1.3573">
        <ele>117.9</ele>
        <time>2021-08-20T20:20:37Z</time>
      </trkpt>
      <trkpt lat="43.31647" lon="-1.3573">
        <ele>116.94</ele>
        <time>2021-08-20T20:20:38Z</time>
      </trkpt>
      <trkpt lat="43.31651" lon="-1.35729">
        <ele>116.94</ele>
        <time>2021-08-20T20:20:39Z</time>
      </trkpt>
      <trkpt lat="43.31655" lon="-1.35728">
        <ele>115.98</ele>
        <time>2021-08-20T20:20:40Z</time>
      </trkpt>
      <trkpt lat="43.31677" lon="-1.35721">
        <ele>115.01</ele>
        <time>2021-08-20T20:20:46Z</time>
      </trkpt>
      <trkpt lat="43.31678" lon="-1.35719">
        <ele>115.01</ele>
        <time>2021-08-20T20:20:47Z</time>
      </trkpt>
      <trkpt lat="43.31678" lon="-1.35716">
        <ele>115.01</ele>
        <time>2021-08-20T20:20:48Z</time>
      </trkpt>
      <trkpt lat="43.31677" lon="-1.35715">
        <ele>115.01</ele>
        <time>2021-08-20T20:20:53Z</time>
      </trkpt>
      <trkpt lat="43.31677" lon="-1.35712">
        <ele>115.01</ele>
        <time>2021-08-20T20:21:00Z</time>
      </trkpt>
      <trkpt lat="43.31676" lon="-1.3571">
        <ele>115.01</ele>
        <time>2021-08-20T20:21:01Z</time>
      </trkpt>
      <trkpt lat="43.31668" lon="-1.35689">
        <ele>115.01</ele>
        <time>2021-08-20T20:21:07Z</time>
      </trkpt>
      <trkpt lat="43.31665" lon="-1.35661">
        <ele>114.53</ele>
        <time>2021-08-20T20:21:13Z</time>
      </trkpt>
      <trkpt lat="43.31663" lon="-1.35639">
        <ele>114.05</ele>
        <time>2021-08-20T20:21:18Z</time>
      </trkpt>
      <trkpt lat="43.31661" lon="-1.3561">
        <ele>113.57</ele>
        <time>2021-08-20T20:21:25Z</time>
      </trkpt>
      <trkpt lat="43.31656" lon="-1.35561">
        <ele>112.13</ele>
        <time>2021-08-20T20:21:33Z</time>
      </trkpt>
      <trkpt lat="43.31656" lon="-1.35518">
        <ele>111.65</ele>
        <time>2021-08-20T20:21:39Z</time>
      </trkpt>
      <trkpt lat="43.31658" lon="-1.35455">
        <ele>111.17</ele>
        <time>2021-08-20T20:21:47Z</time>
      </trkpt>
      <trkpt lat="43.31653" lon="-1.35379">
        <ele>109.73</ele>
        <time>2021-08-20T20:21:57Z</time>
      </trkpt>
      <trkpt lat="43.31651" lon="-1.35342">
        <ele>107.32</ele>
        <time>2021-08-20T20:22:01Z</time>
      </trkpt>
      <trkpt lat="43.31646" lon="-1.3527">
        <ele>103.96</ele>
        <time>2021-08-20T20:22:08Z</time>
      </trkpt>
      <trkpt lat="43.3164" lon="-1.35187">
        <ele>103.48</ele>
        <time>2021-08-20T20:22:16Z</time>
      </trkpt>
      <trkpt lat="43.31634" lon="-1.3512">
        <ele>103.48</ele>
        <time>2021-08-20T20:22:24Z</time>
      </trkpt>
      <trkpt lat="43.31621" lon="-1.35054">
        <ele>103.48</ele>
        <time>2021-08-20T20:22:33Z</time>
      </trkpt>
      <trkpt lat="43.31619" lon="-1.35041">
        <ele>103</ele>
        <time>2021-08-20T20:22:35Z</time>
      </trkpt>
      <trkpt lat="43.3162" lon="-1.35035">
        <ele>103</ele>
        <time>2021-08-20T20:22:36Z</time>
      </trkpt>
      <trkpt lat="43.31624" lon="-1.3503">
        <ele>103</ele>
        <time>2021-08-20T20:22:37Z</time>
      </trkpt>
      <trkpt lat="43.31627" lon="-1.35028">
        <ele>103</ele>
        <time>2021-08-20T20:22:38Z</time>
      </trkpt>
      <trkpt lat="43.3163" lon="-1.35027">
        <ele>103</ele>
        <time>2021-08-20T20:22:39Z</time>
      </trkpt>
      <trkpt lat="43.31633" lon="-1.35027">
        <ele>103</ele>
        <time>2021-08-20T20:22:40Z</time>
      </trkpt>
      <trkpt lat="43.31652" lon="-1.35022">
        <ele>104.92</ele>
        <time>2021-08-20T20:22:47Z</time>
      </trkpt>
      <trkpt lat="43.31668" lon="-1.3501">
        <ele>104.92</ele>
        <time>2021-08-20T20:22:53Z</time>
      </trkpt>
      <trkpt lat="43.31676" lon="-1.34999">
        <ele>104.92</ele>
        <time>2021-08-20T20:22:56Z</time>
      </trkpt>
      <trkpt lat="43.31681" lon="-1.34989">
        <ele>104.92</ele>
        <time>2021-08-20T20:22:58Z</time>
      </trkpt>
      <trkpt lat="43.31698" lon="-1.34941">
        <ele>104.92</ele>
        <time>2021-08-20T20:23:06Z</time>
      </trkpt>
      <trkpt lat="43.3171" lon="-1.34898">
        <ele>104.92</ele>
        <time>2021-08-20T20:23:14Z</time>
      </trkpt>
      <trkpt lat="43.31726" lon="-1.34854">
        <ele>103</ele>
        <time>2021-08-20T20:23:21Z</time>
      </trkpt>
      <trkpt lat="43.31736" lon="-1.34821">
        <ele>101.56</ele>
        <time>2021-08-20T20:23:25Z</time>
      </trkpt>
      <trkpt lat="43.3174" lon="-1.34804">
        <ele>101.56</ele>
        <time>2021-08-20T20:23:27Z</time>
      </trkpt>
      <trkpt lat="43.31742" lon="-1.34777">
        <ele>101.56</ele>
        <time>2021-08-20T20:23:30Z</time>
      </trkpt>
      <trkpt lat="43.31734" lon="-1.34709">
        <ele>100.11</ele>
        <time>2021-08-20T20:23:38Z</time>
      </trkpt>
      <trkpt lat="43.31717" lon="-1.34625">
        <ele>99.15</ele>
        <time>2021-08-20T20:23:48Z</time>
      </trkpt>
      <trkpt lat="43.31708" lon="-1.34561">
        <ele>99.15</ele>
        <time>2021-08-20T20:23:56Z</time>
      </trkpt>
      <trkpt lat="43.31708" lon="-1.3454">
        <ele>100.6</ele>
        <time>2021-08-20T20:23:59Z</time>
      </trkpt>
      <trkpt lat="43.3171" lon="-1.34519">
        <ele>100.6</ele>
        <time>2021-08-20T20:24:02Z</time>
      </trkpt>
      <trkpt lat="43.31722" lon="-1.3447">
        <ele>101.08</ele>
        <time>2021-08-20T20:24:10Z</time>
      </trkpt>
      <trkpt lat="43.31727" lon="-1.34452">
        <ele>101.08</ele>
        <time>2021-08-20T20:24:13Z</time>
      </trkpt>
      <trkpt lat="43.3173" lon="-1.34446">
        <ele>101.08</ele>
        <time>2021-08-20T20:24:14Z</time>
      </trkpt>
      <trkpt lat="43.31743" lon="-1.34419">
        <ele>101.56</ele>
        <time>2021-08-20T20:24:19Z</time>
      </trkpt>
      <trkpt lat="43.31757" lon="-1.34368">
        <ele>101.56</ele>
        <time>2021-08-20T20:24:27Z</time>
      </trkpt>
      <trkpt lat="43.31764" lon="-1.34315">
        <ele>102.52</ele>
        <time>2021-08-20T20:24:35Z</time>
      </trkpt>
      <trkpt lat="43.3177" lon="-1.34261">
        <ele>103</ele>
        <time>2021-08-20T20:24:43Z</time>
      </trkpt>
      <trkpt lat="43.31772" lon="-1.34195">
        <ele>103</ele>
        <time>2021-08-20T20:24:53Z</time>
      </trkpt>
      <trkpt lat="43.31769" lon="-1.34136">
        <ele>103.48</ele>
        <time>2021-08-20T20:25:02Z</time>
      </trkpt>
      <trkpt lat="43.31769" lon="-1.3413">
        <ele>103.96</ele>
        <time>2021-08-20T20:25:03Z</time>
      </trkpt>
      <trkpt lat="43.31769" lon="-1.34124">
        <ele>103.96</ele>
        <time>2021-08-20T20:25:04Z</time>
      </trkpt>
      <trkpt lat="43.31768" lon="-1.34072">
        <ele>104.44</ele>
        <time>2021-08-20T20:25:13Z</time>
      </trkpt>
      <trkpt lat="43.31776" lon="-1.34038">
        <ele>105.88</ele>
        <time>2021-08-20T20:25:20Z</time>
      </trkpt>
      <trkpt lat="43.31788" lon="-1.34013">
        <ele>107.81</ele>
        <time>2021-08-20T20:25:28Z</time>
      </trkpt>
      <trkpt lat="43.31806" lon="-1.33992">
        <ele>110.21</ele>
        <time>2021-08-20T20:25:38Z</time>
      </trkpt>
      <trkpt lat="43.31817" lon="-1.33981">
        <ele>111.65</ele>
        <time>2021-08-20T20:25:45Z</time>
      </trkpt>
      <trkpt lat="43.31817" lon="-1.33979">
        <ele>111.65</ele>
        <time>2021-08-20T20:25:46Z</time>
      </trkpt>
      <trkpt lat="43.31818" lon="-1.33976">
        <ele>112.13</ele>
        <time>2021-08-20T20:25:47Z</time>
      </trkpt>
      <trkpt lat="43.3182" lon="-1.33975">
        <ele>112.13</ele>
        <time>2021-08-20T20:25:48Z</time>
      </trkpt>
      <trkpt lat="43.31832" lon="-1.33969">
        <ele>113.57</ele>
        <time>2021-08-20T20:25:55Z</time>
      </trkpt>
      <trkpt lat="43.31839" lon="-1.33966">
        <ele>114.53</ele>
        <time>2021-08-20T20:25:58Z</time>
      </trkpt>
      <trkpt lat="43.31852" lon="-1.33956">
        <ele>115.98</ele>
        <time>2021-08-20T20:26:05Z</time>
      </trkpt>
      <trkpt lat="43.31864" lon="-1.3394">
        <ele>116.46</ele>
        <time>2021-08-20T20:26:13Z</time>
      </trkpt>
      <trkpt lat="43.31878" lon="-1.33912">
        <ele>116.94</ele>
        <time>2021-08-20T20:26:23Z</time>
      </trkpt>
      <trkpt lat="43.31887" lon="-1.33881">
        <ele>117.42</ele>
        <time>2021-08-20T20:26:31Z</time>
      </trkpt>
      <trkpt lat="43.31894" lon="-1.33837">
        <ele>117.9</ele>
        <time>2021-08-20T20:26:41Z</time>
      </trkpt>
      <trkpt lat="43.31906" lon="-1.33807">
        <ele>118.86</ele>
        <time>2021-08-20T20:26:50Z</time>
      </trkpt>
      <trkpt lat="43.31921" lon="-1.33785">
        <ele>119.82</ele>
        <time>2021-08-20T20:26:58Z</time>
      </trkpt>
      <trkpt lat="43.31953" lon="-1.33757">
        <ele>120.3</ele>
        <time>2021-08-20T20:27:09Z</time>
      </trkpt>
      <trkpt lat="43.31981" lon="-1.33738">
        <ele>120.78</ele>
        <time>2021-08-20T20:27:18Z</time>
      </trkpt>
      <trkpt lat="43.32006" lon="-1.33714">
        <ele>121.26</ele>
        <time>2021-08-20T20:27:26Z</time>
      </trkpt>
      <trkpt lat="43.32027" lon="-1.33682">
        <ele>122.22</ele>
        <time>2021-08-20T20:27:34Z</time>
      </trkpt>
      <trkpt lat="43.32048" lon="-1.33633">
        <ele>123.19</ele>
        <time>2021-08-20T20:27:45Z</time>
      </trkpt>
      <trkpt lat="43.32064" lon="-1.3359">
        <ele>124.15</ele>
        <time>2021-08-20T20:27:55Z</time>
      </trkpt>
      <trkpt lat="43.32085" lon="-1.33553">
        <ele>124.63</ele>
        <time>2021-08-20T20:28:05Z</time>
      </trkpt>
      <trkpt lat="43.32106" lon="-1.33524">
        <ele>125.59</ele>
        <time>2021-08-20T20:28:14Z</time>
      </trkpt>
      <trkpt lat="43.3213" lon="-1.33502">
        <ele>126.55</ele>
        <time>2021-08-20T20:28:22Z</time>
      </trkpt>
      <trkpt lat="43.32166" lon="-1.33473">
        <ele>127.51</ele>
        <time>2021-08-20T20:28:33Z</time>
      </trkpt>
      <trkpt lat="43.32201" lon="-1.33449">
        <ele>128.95</ele>
        <time>2021-08-20T20:28:44Z</time>
      </trkpt>
      <trkpt lat="43.3222" lon="-1.33444">
        <ele>130.4</ele>
        <time>2021-08-20T20:28:52Z</time>
      </trkpt>
      <trkpt lat="43.32239" lon="-1.33448">
        <ele>132.8</ele>
        <time>2021-08-20T20:29:01Z</time>
      </trkpt>
      <trkpt lat="43.32255" lon="-1.33457">
        <ele>134.24</ele>
        <time>2021-08-20T20:29:09Z</time>
      </trkpt>
      <trkpt lat="43.32273" lon="-1.33475">
        <ele>135.2</ele>
        <time>2021-08-20T20:29:18Z</time>
      </trkpt>
      <trkpt lat="43.32298" lon="-1.33499">
        <ele>137.13</ele>
        <time>2021-08-20T20:29:29Z</time>
      </trkpt>
      <trkpt lat="43.32318" lon="-1.33505">
        <ele>138.57</ele>
        <time>2021-08-20T20:29:36Z</time>
      </trkpt>
      <trkpt lat="43.32346" lon="-1.33503">
        <ele>138.57</ele>
        <time>2021-08-20T20:29:45Z</time>
      </trkpt>
      <trkpt lat="43.3238" lon="-1.33496">
        <ele>139.53</ele>
        <time>2021-08-20T20:29:55Z</time>
      </trkpt>
      <trkpt lat="43.32414" lon="-1.33491">
        <ele>140.97</ele>
        <time>2021-08-20T20:30:05Z</time>
      </trkpt>
      <trkpt lat="43.32443" lon="-1.33486">
        <ele>142.89</ele>
        <time>2021-08-20T20:30:14Z</time>
      </trkpt>
      <trkpt lat="43.3247" lon="-1.33481">
        <ele>144.34</ele>
        <time>2021-08-20T20:30:24Z</time>
      </trkpt>
      <trkpt lat="43.32491" lon="-1.33478">
        <ele>146.26</ele>
        <time>2021-08-20T20:30:33Z</time>
      </trkpt>
      <trkpt lat="43.32516" lon="-1.33476">
        <ele>148.18</ele>
        <time>2021-08-20T20:30:43Z</time>
      </trkpt>
      <trkpt lat="43.3253" lon="-1.33478">
        <ele>149.14</ele>
        <time>2021-08-20T20:30:49Z</time>
      </trkpt>
      <trkpt lat="43.32548" lon="-1.33481">
        <ele>150.1</ele>
        <time>2021-08-20T20:30:57Z</time>
      </trkpt>
      <trkpt lat="43.32565" lon="-1.33492">
        <ele>151.54</ele>
        <time>2021-08-20T20:31:05Z</time>
      </trkpt>
      <trkpt lat="43.32582" lon="-1.33505">
        <ele>152.99</ele>
        <time>2021-08-20T20:31:13Z</time>
      </trkpt>
      <trkpt lat="43.32598" lon="-1.33518">
        <ele>153.47</ele>
        <time>2021-08-20T20:31:21Z</time>
      </trkpt>
      <trkpt lat="43.32618" lon="-1.33533">
        <ele>154.91</ele>
        <time>2021-08-20T20:31:30Z</time>
      </trkpt>
      <trkpt lat="43.32637" lon="-1.33545">
        <ele>155.39</ele>
        <time>2021-08-20T20:31:38Z</time>
      </trkpt>
      <trkpt lat="43.32653" lon="-1.33552">
        <ele>156.35</ele>
        <time>2021-08-20T20:31:45Z</time>
      </trkpt>
      <trkpt lat="43.32674" lon="-1.33555">
        <ele>156.83</ele>
        <time>2021-08-20T20:31:53Z</time>
      </trkpt>
      <trkpt lat="43.32694" lon="-1.3355">
        <ele>157.31</ele>
        <time>2021-08-20T20:32:00Z</time>
      </trkpt>
      <trkpt lat="43.32724" lon="-1.3354">
        <ele>157.79</ele>
        <time>2021-08-20T20:32:10Z</time>
      </trkpt>
      <trkpt lat="43.32747" lon="-1.33535">
        <ele>158.27</ele>
        <time>2021-08-20T20:32:18Z</time>
      </trkpt>
      <trkpt lat="43.32782" lon="-1.33523">
        <ele>159.24</ele>
        <time>2021-08-20T20:32:30Z</time>
      </trkpt>
      <trkpt lat="43.32801" lon="-1.33512">
        <ele>160.68</ele>
        <time>2021-08-20T20:32:37Z</time>
      </trkpt>
      <trkpt lat="43.32823" lon="-1.33483">
        <ele>160.68</ele>
        <time>2021-08-20T20:32:46Z</time>
      </trkpt>
      <trkpt lat="43.32843" lon="-1.33447">
        <ele>161.16</ele>
        <time>2021-08-20T20:32:56Z</time>
      </trkpt>
      <trkpt lat="43.32851" lon="-1.33416">
        <ele>162.12</ele>
        <time>2021-08-20T20:33:04Z</time>
      </trkpt>
      <trkpt lat="43.32857" lon="-1.33384">
        <ele>164.04</ele>
        <time>2021-08-20T20:33:13Z</time>
      </trkpt>
      <trkpt lat="43.32861" lon="-1.3336">
        <ele>165</ele>
        <time>2021-08-20T20:33:20Z</time>
      </trkpt>
      <trkpt lat="43.32865" lon="-1.33334">
        <ele>165.48</ele>
        <time>2021-08-20T20:33:27Z</time>
      </trkpt>
      <trkpt lat="43.32871" lon="-1.3331">
        <ele>166.93</ele>
        <time>2021-08-20T20:33:35Z</time>
      </trkpt>
      <trkpt lat="43.32875" lon="-1.33294">
        <ele>167.41</ele>
        <time>2021-08-20T20:33:41Z</time>
      </trkpt>
      <trkpt lat="43.32879" lon="-1.3327">
        <ele>169.33</ele>
        <time>2021-08-20T20:33:50Z</time>
      </trkpt>
      <trkpt lat="43.32883" lon="-1.33249">
        <ele>170.77</ele>
        <time>2021-08-20T20:33:59Z</time>
      </trkpt>
      <trkpt lat="43.32885" lon="-1.33242">
        <ele>171.25</ele>
        <time>2021-08-20T20:34:02Z</time>
      </trkpt>
      <trkpt lat="43.32886" lon="-1.33241">
        <ele>171.25</ele>
        <time>2021-08-20T20:34:03Z</time>
      </trkpt>
      <trkpt lat="43.32886" lon="-1.33239">
        <ele>171.73</ele>
        <time>2021-08-20T20:34:04Z</time>
      </trkpt>
      <trkpt lat="43.32886" lon="-1.33237">
        <ele>171.73</ele>
        <time>2021-08-20T20:34:05Z</time>
      </trkpt>
      <trkpt lat="43.32887" lon="-1.33235">
        <ele>171.73</ele>
        <time>2021-08-20T20:34:06Z</time>
      </trkpt>
      <trkpt lat="43.32887" lon="-1.33233">
        <ele>172.21</ele>
        <time>2021-08-20T20:34:07Z</time>
      </trkpt>
      <trkpt lat="43.32887" lon="-1.33231">
        <ele>172.21</ele>
        <time>2021-08-20T20:34:08Z</time>
      </trkpt>
      <trkpt lat="43.32887" lon="-1.3323">
        <ele>172.69</ele>
        <time>2021-08-20T20:34:09Z</time>
      </trkpt>
      <trkpt lat="43.32887" lon="-1.33228">
        <ele>172.69</ele>
        <time>2021-08-20T20:34:10Z</time>
      </trkpt>
      <trkpt lat="43.32888" lon="-1.33226">
        <ele>172.69</ele>
        <time>2021-08-20T20:34:11Z</time>
      </trkpt>
      <trkpt lat="43.32888" lon="-1.33224">
        <ele>173.17</ele>
        <time>2021-08-20T20:34:12Z</time>
      </trkpt>
      <trkpt lat="43.32888" lon="-1.33222">
        <ele>173.17</ele>
        <time>2021-08-20T20:34:13Z</time>
      </trkpt>
      <trkpt lat="43.32889" lon="-1.33206">
        <ele>174.14</ele>
        <time>2021-08-20T20:34:21Z</time>
      </trkpt>
      <trkpt lat="43.32891" lon="-1.33195">
        <ele>175.1</ele>
        <time>2021-08-20T20:34:26Z</time>
      </trkpt>
      <trkpt lat="43.32892" lon="-1.33193">
        <ele>175.1</ele>
        <time>2021-08-20T20:34:27Z</time>
      </trkpt>
      <trkpt lat="43.32893" lon="-1.3319">
        <ele>175.1</ele>
        <time>2021-08-20T20:34:28Z</time>
      </trkpt>
      <trkpt lat="43.32893" lon="-1.33188">
        <ele>175.58</ele>
        <time>2021-08-20T20:34:29Z</time>
      </trkpt>
      <trkpt lat="43.32892" lon="-1.33186">
        <ele>175.58</ele>
        <time>2021-08-20T20:34:30Z</time>
      </trkpt>
      <trkpt lat="43.32891" lon="-1.33183">
        <ele>176.06</ele>
        <time>2021-08-20T20:34:31Z</time>
      </trkpt>
      <trkpt lat="43.32891" lon="-1.33181">
        <ele>176.06</ele>
        <time>2021-08-20T20:34:32Z</time>
      </trkpt>
      <trkpt lat="43.32891" lon="-1.33178">
        <ele>176.06</ele>
        <time>2021-08-20T20:34:33Z</time>
      </trkpt>
      <trkpt lat="43.32891" lon="-1.33173">
        <ele>177.02</ele>
        <time>2021-08-20T20:34:35Z</time>
      </trkpt>
      <trkpt lat="43.3289" lon="-1.33171">
        <ele>177.02</ele>
        <time>2021-08-20T20:34:41Z</time>
      </trkpt>
      <trkpt lat="43.32891" lon="-1.3317">
        <ele>177.02</ele>
        <time>2021-08-20T20:34:45Z</time>
      </trkpt>
      <trkpt lat="43.32893" lon="-1.33159">
        <ele>178.46</ele>
        <time>2021-08-20T20:34:50Z</time>
      </trkpt>
      <trkpt lat="43.32896" lon="-1.33138">
        <ele>180.38</ele>
        <time>2021-08-20T20:34:59Z</time>
      </trkpt>
      <trkpt lat="43.329" lon="-1.33123">
        <ele>181.83</ele>
        <time>2021-08-20T20:35:07Z</time>
      </trkpt>
      <trkpt lat="43.329" lon="-1.3312">
        <ele>181.83</ele>
        <time>2021-08-20T20:35:08Z</time>
      </trkpt>
      <trkpt lat="43.329" lon="-1.33118">
        <ele>182.31</ele>
        <time>2021-08-20T20:35:09Z</time>
      </trkpt>
      <trkpt lat="43.329" lon="-1.33112">
        <ele>182.79</ele>
        <time>2021-08-20T20:35:12Z</time>
      </trkpt>
      <trkpt lat="43.32903" lon="-1.33094">
        <ele>184.23</ele>
        <time>2021-08-20T20:35:21Z</time>
      </trkpt>
      <trkpt lat="43.32903" lon="-1.33081">
        <ele>185.67</ele>
        <time>2021-08-20T20:35:28Z</time>
      </trkpt>
      <trkpt lat="43.32903" lon="-1.33079">
        <ele>186.15</ele>
        <time>2021-08-20T20:35:29Z</time>
      </trkpt>
      <trkpt lat="43.32903" lon="-1.33077">
        <ele>186.15</ele>
        <time>2021-08-20T20:35:30Z</time>
      </trkpt>
      <trkpt lat="43.32903" lon="-1.33075">
        <ele>186.15</ele>
        <time>2021-08-20T20:35:31Z</time>
      </trkpt>
      <trkpt lat="43.32904" lon="-1.33072">
        <ele>186.63</ele>
        <time>2021-08-20T20:35:32Z</time>
      </trkpt>
      <trkpt lat="43.32904" lon="-1.33071">
        <ele>186.63</ele>
        <time>2021-08-20T20:35:33Z</time>
      </trkpt>
      <trkpt lat="43.32905" lon="-1.33056">
        <ele>187.59</ele>
        <time>2021-08-20T20:35:40Z</time>
      </trkpt>
      <trkpt lat="43.32907" lon="-1.33046">
        <ele>188.08</ele>
        <time>2021-08-20T20:35:44Z</time>
      </trkpt>
      <trkpt lat="43.3291" lon="-1.33026">
        <ele>189.04</ele>
        <time>2021-08-20T20:35:52Z</time>
      </trkpt>
      <trkpt lat="43.32914" lon="-1.33006">
        <ele>190.48</ele>
        <time>2021-08-20T20:36:00Z</time>
      </trkpt>
      <trkpt lat="43.3292" lon="-1.32987">
        <ele>190.96</ele>
        <time>2021-08-20T20:36:08Z</time>
      </trkpt>
      <trkpt lat="43.32928" lon="-1.32967">
        <ele>191.92</ele>
        <time>2021-08-20T20:36:18Z</time>
      </trkpt>
      <trkpt lat="43.32939" lon="-1.32941">
        <ele>192.4</ele>
        <time>2021-08-20T20:36:30Z</time>
      </trkpt>
      <trkpt lat="43.32947" lon="-1.32915">
        <ele>194.32</ele>
        <time>2021-08-20T20:36:41Z</time>
      </trkpt>
      <trkpt lat="43.32955" lon="-1.32887">
        <ele>195.77</ele>
        <time>2021-08-20T20:36:52Z</time>
      </trkpt>
      <trkpt lat="43.32959" lon="-1.32866">
        <ele>197.69</ele>
        <time>2021-08-20T20:37:01Z</time>
      </trkpt>
      <trkpt lat="43.32963" lon="-1.32851">
        <ele>198.65</ele>
        <time>2021-08-20T20:37:08Z</time>
      </trkpt>
      <trkpt lat="43.32966" lon="-1.32837">
        <ele>199.61</ele>
        <time>2021-08-20T20:37:15Z</time>
      </trkpt>
      <trkpt lat="43.3297" lon="-1.32818">
        <ele>202.49</ele>
        <time>2021-08-20T20:37:25Z</time>
      </trkpt>
      <trkpt lat="43.32974" lon="-1.32798">
        <ele>203.46</ele>
        <time>2021-08-20T20:37:36Z</time>
      </trkpt>
      <trkpt lat="43.32976" lon="-1.32792">
        <ele>205.38</ele>
        <time>2021-08-20T20:37:39Z</time>
      </trkpt>
      <trkpt lat="43.32981" lon="-1.32773">
        <ele>206.34</ele>
        <time>2021-08-20T20:37:49Z</time>
      </trkpt>
      <trkpt lat="43.32984" lon="-1.32752">
        <ele>208.26</ele>
        <time>2021-08-20T20:37:58Z</time>
      </trkpt>
      <trkpt lat="43.32985" lon="-1.32735">
        <ele>208.74</ele>
        <time>2021-08-20T20:38:05Z</time>
      </trkpt>
      <trkpt lat="43.32984" lon="-1.3273">
        <ele>208.74</ele>
        <time>2021-08-20T20:38:11Z</time>
      </trkpt>
      <trkpt lat="43.32984" lon="-1.3273">
        <ele>208.74</ele>
        <time>2021-08-20T20:38:29Z</time>
      </trkpt>
      <trkpt lat="43.32985" lon="-1.3273">
        <ele>208.74</ele>
        <time>2021-08-20T20:38:43Z</time>
      </trkpt>
      <trkpt lat="43.32985" lon="-1.3273">
        <ele>208.74</ele>
        <time>2021-08-20T20:39:03Z</time>
      </trkpt>
      <trkpt lat="43.32983" lon="-1.32731">
        <ele>209.22</ele>
        <time>2021-08-20T20:39:20Z</time>
      </trkpt>
      <trkpt lat="43.32983" lon="-1.32731">
        <ele>209.22</ele>
        <time>2021-08-20T20:39:42Z</time>
      </trkpt>
      <trkpt lat="43.32985" lon="-1.32729">
        <ele>209.22</ele>
        <time>2021-08-20T20:39:50Z</time>
      </trkpt>
      <trkpt lat="43.32983" lon="-1.32729">
        <ele>209.22</ele>
        <time>2021-08-20T20:40:03Z</time>
      </trkpt>
      <trkpt lat="43.32981" lon="-1.32727">
        <ele>209.22</ele>
        <time>2021-08-20T20:40:16Z</time>
      </trkpt>
      <trkpt lat="43.32983" lon="-1.32725">
        <ele>209.7</ele>
        <time>2021-08-20T20:40:32Z</time>
      </trkpt>
      <trkpt lat="43.32983" lon="-1.32726">
        <ele>209.7</ele>
        <time>2021-08-20T20:40:44Z</time>
      </trkpt>
      <trkpt lat="43.32984" lon="-1.32727">
        <ele>209.7</ele>
        <time>2021-08-20T20:40:45Z</time>
      </trkpt>
      <trkpt lat="43.32985" lon="-1.32729">
        <ele>209.7</ele>
        <time>2021-08-20T20:40:46Z</time>
      </trkpt>
      <trkpt lat="43.32985" lon="-1.32727">
        <ele>209.7</ele>
        <time>2021-08-20T20:40:50Z</time>
      </trkpt>
      <trkpt lat="43.32984" lon="-1.32726">
        <ele>209.7</ele>
        <time>2021-08-20T20:41:03Z</time>
      </trkpt>
      <trkpt lat="43.32983" lon="-1.32728">
        <ele>209.7</ele>
        <time>2021-08-20T20:41:25Z</time>
      </trkpt>
      <trkpt lat="43.32984" lon="-1.32727">
        <ele>209.7</ele>
        <time>2021-08-20T20:41:46Z</time>
      </trkpt>
      <trkpt lat="43.32986" lon="-1.32725">
        <ele>209.7</ele>
        <time>2021-08-20T20:42:00Z</time>
      </trkpt>
      <trkpt lat="43.32986" lon="-1.32725">
        <ele>209.7</ele>
        <time>2021-08-20T20:42:01Z</time>
      </trkpt>
      <trkpt lat="43.32987" lon="-1.32724">
        <ele>209.7</ele>
        <time>2021-08-20T20:42:02Z</time>
      </trkpt>
      <trkpt lat="43.32988" lon="-1.32725">
        <ele>209.7</ele>
        <time>2021-08-20T20:42:03Z</time>
      </trkpt>
      <trkpt lat="43.32988" lon="-1.32727">
        <ele>209.7</ele>
        <time>2021-08-20T20:42:04Z</time>
      </trkpt>
      <trkpt lat="43.32987" lon="-1.32728">
        <ele>209.7</ele>
        <time>2021-08-20T20:42:05Z</time>
      </trkpt>
      <trkpt lat="43.32987" lon="-1.3273">
        <ele>209.7</ele>
        <time>2021-08-20T20:42:06Z</time>
      </trkpt>
      <trkpt lat="43.32987" lon="-1.32732">
        <ele>209.22</ele>
        <time>2021-08-20T20:42:07Z</time>
      </trkpt>
      <trkpt lat="43.32987" lon="-1.32735">
        <ele>209.22</ele>
        <time>2021-08-20T20:42:08Z</time>
      </trkpt>
      <trkpt lat="43.32987" lon="-1.32737">
        <ele>209.22</ele>
        <time>2021-08-20T20:42:09Z</time>
      </trkpt>
      <trkpt lat="43.32985" lon="-1.3276">
        <ele>208.74</ele>
        <time>2021-08-20T20:42:18Z</time>
      </trkpt>
      <trkpt lat="43.32981" lon="-1.32778">
        <ele>206.82</ele>
        <time>2021-08-20T20:42:25Z</time>
      </trkpt>
      <trkpt lat="43.32979" lon="-1.32787">
        <ele>206.34</ele>
        <time>2021-08-20T20:42:31Z</time>
      </trkpt>
      <trkpt lat="43.32978" lon="-1.32789">
        <ele>206.34</ele>
        <time>2021-08-20T20:42:32Z</time>
      </trkpt>
      <trkpt lat="43.32977" lon="-1.3279">
        <ele>205.86</ele>
        <time>2021-08-20T20:42:33Z</time>
      </trkpt>
      <trkpt lat="43.32976" lon="-1.3279">
        <ele>206.34</ele>
        <time>2021-08-20T20:42:34Z</time>
      </trkpt>
      <trkpt lat="43.32976" lon="-1.32788">
        <ele>206.34</ele>
        <time>2021-08-20T20:42:35Z</time>
      </trkpt>
      <trkpt lat="43.32975" lon="-1.32786">
        <ele>205.86</ele>
        <time>2021-08-20T20:42:36Z</time>
      </trkpt>
      <trkpt lat="43.32976" lon="-1.32784">
        <ele>206.34</ele>
        <time>2021-08-20T20:42:37Z</time>
      </trkpt>
      <trkpt lat="43.32977" lon="-1.32782">
        <ele>206.34</ele>
        <time>2021-08-20T20:42:38Z</time>
      </trkpt>
      <trkpt lat="43.32978" lon="-1.3278">
        <ele>206.34</ele>
        <time>2021-08-20T20:42:39Z</time>
      </trkpt>
      <trkpt lat="43.32979" lon="-1.32777">
        <ele>207.3</ele>
        <time>2021-08-20T20:42:40Z</time>
      </trkpt>
      <trkpt lat="43.3298" lon="-1.32775">
        <ele>207.78</ele>
        <time>2021-08-20T20:42:41Z</time>
      </trkpt>
      <trkpt lat="43.32981" lon="-1.32772">
        <ele>207.78</ele>
        <time>2021-08-20T20:42:42Z</time>
      </trkpt>
      <trkpt lat="43.32985" lon="-1.32744">
        <ele>209.7</ele>
        <time>2021-08-20T20:42:51Z</time>
      </trkpt>
      <trkpt lat="43.32987" lon="-1.32719">
        <ele>210.19</ele>
        <time>2021-08-20T20:42:58Z</time>
      </trkpt>
      <trkpt lat="43.32987" lon="-1.32687">
        <ele>210.19</ele>
        <time>2021-08-20T20:43:06Z</time>
      </trkpt>
      <trkpt lat="43.32988" lon="-1.32657">
        <ele>211.15</ele>
        <time>2021-08-20T20:43:13Z</time>
      </trkpt>
      <trkpt lat="43.32989" lon="-1.32617">
        <ele>211.15</ele>
        <time>2021-08-20T20:43:21Z</time>
      </trkpt>
      <trkpt lat="43.32994" lon="-1.32576">
        <ele>211.15</ele>
        <time>2021-08-20T20:43:29Z</time>
      </trkpt>
      <trkpt lat="43.33001" lon="-1.32527">
        <ele>211.15</ele>
        <time>2021-08-20T20:43:38Z</time>
      </trkpt>
      <trkpt lat="43.33011" lon="-1.32475">
        <ele>210.19</ele>
        <time>2021-08-20T20:43:47Z</time>
      </trkpt>
      <trkpt lat="43.33033" lon="-1.32432">
        <ele>210.19</ele>
        <time>2021-08-20T20:43:57Z</time>
      </trkpt>
      <trkpt lat="43.33052" lon="-1.324">
        <ele>212.59</ele>
        <time>2021-08-20T20:44:06Z</time>
      </trkpt>
      <trkpt lat="43.33068" lon="-1.32367">
        <ele>213.07</ele>
        <time>2021-08-20T20:44:15Z</time>
      </trkpt>
      <trkpt lat="43.33076" lon="-1.3233">
        <ele>214.99</ele>
        <time>2021-08-20T20:44:23Z</time>
      </trkpt>
      <trkpt lat="43.33086" lon="-1.32282">
        <ele>215.95</ele>
        <time>2021-08-20T20:44:33Z</time>
      </trkpt>
      <trkpt lat="43.33095" lon="-1.32247">
        <ele>216.91</ele>
        <time>2021-08-20T20:44:41Z</time>
      </trkpt>
      <trkpt lat="43.33104" lon="-1.32212">
        <ele>217.88</ele>
        <time>2021-08-20T20:44:48Z</time>
      </trkpt>
      <trkpt lat="43.33104" lon="-1.32205">
        <ele>217.88</ele>
        <time>2021-08-20T20:44:49Z</time>
      </trkpt>
      <trkpt lat="43.33103" lon="-1.32185">
        <ele>216.43</ele>
        <time>2021-08-20T20:44:52Z</time>
      </trkpt>
      <trkpt lat="43.33101" lon="-1.32177">
        <ele>216.43</ele>
        <time>2021-08-20T20:44:53Z</time>
      </trkpt>
      <trkpt lat="43.331" lon="-1.3217">
        <ele>215.95</ele>
        <time>2021-08-20T20:44:54Z</time>
      </trkpt>
      <trkpt lat="43.33083" lon="-1.32117">
        <ele>213.07</ele>
        <time>2021-08-20T20:45:00Z</time>
      </trkpt>
      <trkpt lat="43.3308" lon="-1.3211">
        <ele>213.07</ele>
        <time>2021-08-20T20:45:01Z</time>
      </trkpt>
      <trkpt lat="43.33052" lon="-1.3204">
        <ele>209.7</ele>
        <time>2021-08-20T20:45:09Z</time>
      </trkpt>
      <trkpt lat="43.33048" lon="-1.3202">
        <ele>209.22</ele>
        <time>2021-08-20T20:45:11Z</time>
      </trkpt>
      <trkpt lat="43.33038" lon="-1.31966">
        <ele>206.82</ele>
        <time>2021-08-20T20:45:16Z</time>
      </trkpt>
      <trkpt lat="43.33029" lon="-1.31936">
        <ele>205.86</ele>
        <time>2021-08-20T20:45:19Z</time>
      </trkpt>
      <trkpt lat="43.33024" lon="-1.31927">
        <ele>204.9</ele>
        <time>2021-08-20T20:45:20Z</time>
      </trkpt>
      <trkpt lat="43.33019" lon="-1.31919">
        <ele>204.9</ele>
        <time>2021-08-20T20:45:21Z</time>
      </trkpt>
      <trkpt lat="43.33013" lon="-1.31911">
        <ele>204.42</ele>
        <time>2021-08-20T20:45:22Z</time>
      </trkpt>
      <trkpt lat="43.33006" lon="-1.31905">
        <ele>203.46</ele>
        <time>2021-08-20T20:45:23Z</time>
      </trkpt>
      <trkpt lat="43.33" lon="-1.31899">
        <ele>202.98</ele>
        <time>2021-08-20T20:45:24Z</time>
      </trkpt>
      <trkpt lat="43.32992" lon="-1.31894">
        <ele>202.01</ele>
        <time>2021-08-20T20:45:25Z</time>
      </trkpt>
      <trkpt lat="43.32985" lon="-1.3189">
        <ele>202.01</ele>
        <time>2021-08-20T20:45:26Z</time>
      </trkpt>
      <trkpt lat="43.32977" lon="-1.31887">
        <ele>202.01</ele>
        <time>2021-08-20T20:45:27Z</time>
      </trkpt>
      <trkpt lat="43.32942" lon="-1.3187">
        <ele>200.57</ele>
        <time>2021-08-20T20:45:32Z</time>
      </trkpt>
      <trkpt lat="43.32936" lon="-1.31864">
        <ele>200.57</ele>
        <time>2021-08-20T20:45:33Z</time>
      </trkpt>
      <trkpt lat="43.3293" lon="-1.31858">
        <ele>200.57</ele>
        <time>2021-08-20T20:45:34Z</time>
      </trkpt>
      <trkpt lat="43.32926" lon="-1.31852">
        <ele>200.57</ele>
        <time>2021-08-20T20:45:35Z</time>
      </trkpt>
      <trkpt lat="43.32921" lon="-1.31845">
        <ele>200.57</ele>
        <time>2021-08-20T20:45:36Z</time>
      </trkpt>
      <trkpt lat="43.32917" lon="-1.31839">
        <ele>200.57</ele>
        <time>2021-08-20T20:45:37Z</time>
      </trkpt>
      <trkpt lat="43.32914" lon="-1.31832">
        <ele>200.57</ele>
        <time>2021-08-20T20:45:38Z</time>
      </trkpt>
      <trkpt lat="43.32912" lon="-1.31825">
        <ele>200.57</ele>
        <time>2021-08-20T20:45:39Z</time>
      </trkpt>
      <trkpt lat="43.32902" lon="-1.31777">
        <ele>202.01</ele>
        <time>2021-08-20T20:45:46Z</time>
      </trkpt>
      <trkpt lat="43.32901" lon="-1.3177">
        <ele>202.01</ele>
        <time>2021-08-20T20:45:47Z</time>
      </trkpt>
      <trkpt lat="43.32897" lon="-1.31753">
        <ele>202.01</ele>
        <time>2021-08-20T20:45:50Z</time>
      </trkpt>
      <trkpt lat="43.32896" lon="-1.31748">
        <ele>202.01</ele>
        <time>2021-08-20T20:45:51Z</time>
      </trkpt>
      <trkpt lat="43.32895" lon="-1.31742">
        <ele>202.01</ele>
        <time>2021-08-20T20:45:52Z</time>
      </trkpt>
      <trkpt lat="43.32892" lon="-1.3173">
        <ele>202.01</ele>
        <time>2021-08-20T20:45:54Z</time>
      </trkpt>
      <trkpt lat="43.32889" lon="-1.31711">
        <ele>202.01</ele>
        <time>2021-08-20T20:45:57Z</time>
      </trkpt>
      <trkpt lat="43.32888" lon="-1.31705">
        <ele>202.01</ele>
        <time>2021-08-20T20:45:58Z</time>
      </trkpt>
      <trkpt lat="43.32879" lon="-1.31657">
        <ele>202.01</ele>
        <time>2021-08-20T20:46:05Z</time>
      </trkpt>
      <trkpt lat="43.32874" lon="-1.31607">
        <ele>202.01</ele>
        <time>2021-08-20T20:46:12Z</time>
      </trkpt>
      <trkpt lat="43.32871" lon="-1.31554">
        <ele>202.01</ele>
        <time>2021-08-20T20:46:19Z</time>
      </trkpt>
      <trkpt lat="43.32874" lon="-1.31488">
        <ele>200.57</ele>
        <time>2021-08-20T20:46:27Z</time>
      </trkpt>
      <trkpt lat="43.32894" lon="-1.31405">
        <ele>200.09</ele>
        <time>2021-08-20T20:46:38Z</time>
      </trkpt>
      <trkpt lat="43.32902" lon="-1.3138">
        <ele>198.65</ele>
        <time>2021-08-20T20:46:41Z</time>
      </trkpt>
      <trkpt lat="43.32918" lon="-1.31341">
        <ele>194.8</ele>
        <time>2021-08-20T20:46:45Z</time>
      </trkpt>
      <trkpt lat="43.32927" lon="-1.3132">
        <ele>193.36</ele>
        <time>2021-08-20T20:46:47Z</time>
      </trkpt>
      <trkpt lat="43.32954" lon="-1.31268">
        <ele>190</ele>
        <time>2021-08-20T20:46:52Z</time>
      </trkpt>
      <trkpt lat="43.32974" lon="-1.31234">
        <ele>188.08</ele>
        <time>2021-08-20T20:46:55Z</time>
      </trkpt>
      <trkpt lat="43.32984" lon="-1.31211">
        <ele>186.15</ele>
        <time>2021-08-20T20:46:57Z</time>
      </trkpt>
      <trkpt lat="43.32989" lon="-1.31196">
        <ele>185.19</ele>
        <time>2021-08-20T20:46:58Z</time>
      </trkpt>
      <trkpt lat="43.32992" lon="-1.31186">
        <ele>185.19</ele>
        <time>2021-08-20T20:46:59Z</time>
      </trkpt>
      <trkpt lat="43.33002" lon="-1.31121">
        <ele>181.83</ele>
        <time>2021-08-20T20:47:04Z</time>
      </trkpt>
      <trkpt lat="43.33003" lon="-1.31071">
        <ele>179.42</ele>
        <time>2021-08-20T20:47:08Z</time>
      </trkpt>
      <trkpt lat="43.33003" lon="-1.31059">
        <ele>178.46</ele>
        <time>2021-08-20T20:47:09Z</time>
      </trkpt>
      <trkpt lat="43.33005" lon="-1.31047">
        <ele>177.5</ele>
        <time>2021-08-20T20:47:10Z</time>
      </trkpt>
      <trkpt lat="43.33009" lon="-1.31036">
        <ele>177.02</ele>
        <time>2021-08-20T20:47:11Z</time>
      </trkpt>
      <trkpt lat="43.3302" lon="-1.31014">
        <ele>176.06</ele>
        <time>2021-08-20T20:47:13Z</time>
      </trkpt>
      <trkpt lat="43.33028" lon="-1.30993">
        <ele>174.62</ele>
        <time>2021-08-20T20:47:15Z</time>
      </trkpt>
      <trkpt lat="43.33031" lon="-1.30981">
        <ele>174.14</ele>
        <time>2021-08-20T20:47:16Z</time>
      </trkpt>
      <trkpt lat="43.33033" lon="-1.30967">
        <ele>173.66</ele>
        <time>2021-08-20T20:47:17Z</time>
      </trkpt>
      <trkpt lat="43.33035" lon="-1.30954">
        <ele>173.17</ele>
        <time>2021-08-20T20:47:18Z</time>
      </trkpt>
      <trkpt lat="43.33035" lon="-1.3094">
        <ele>172.21</ele>
        <time>2021-08-20T20:47:19Z</time>
      </trkpt>
      <trkpt lat="43.33033" lon="-1.30926">
        <ele>171.73</ele>
        <time>2021-08-20T20:47:20Z</time>
      </trkpt>
      <trkpt lat="43.3303" lon="-1.30913">
        <ele>170.77</ele>
        <time>2021-08-20T20:47:21Z</time>
      </trkpt>
      <trkpt lat="43.33026" lon="-1.309">
        <ele>169.81</ele>
        <time>2021-08-20T20:47:22Z</time>
      </trkpt>
      <trkpt lat="43.33021" lon="-1.30888">
        <ele>169.33</ele>
        <time>2021-08-20T20:47:23Z</time>
      </trkpt>
      <trkpt lat="43.33016" lon="-1.30876">
        <ele>168.37</ele>
        <time>2021-08-20T20:47:24Z</time>
      </trkpt>
      <trkpt lat="43.33006" lon="-1.30852">
        <ele>166.93</ele>
        <time>2021-08-20T20:47:26Z</time>
      </trkpt>
      <trkpt lat="43.33003" lon="-1.3084">
        <ele>166.45</ele>
        <time>2021-08-20T20:47:27Z</time>
      </trkpt>
      <trkpt lat="43.33002" lon="-1.30828">
        <ele>165.48</ele>
        <time>2021-08-20T20:47:28Z</time>
      </trkpt>
      <trkpt lat="43.33003" lon="-1.30814">
        <ele>165</ele>
        <time>2021-08-20T20:47:29Z</time>
      </trkpt>
      <trkpt lat="43.33006" lon="-1.30803">
        <ele>165</ele>
        <time>2021-08-20T20:47:30Z</time>
      </trkpt>
      <trkpt lat="43.33011" lon="-1.30792">
        <ele>164.04</ele>
        <time>2021-08-20T20:47:31Z</time>
      </trkpt>
      <trkpt lat="43.33017" lon="-1.30781">
        <ele>163.08</ele>
        <time>2021-08-20T20:47:32Z</time>
      </trkpt>
      <trkpt lat="43.33024" lon="-1.30771">
        <ele>163.08</ele>
        <time>2021-08-20T20:47:33Z</time>
      </trkpt>
      <trkpt lat="43.33081" lon="-1.30694">
        <ele>161.16</ele>
        <time>2021-08-20T20:47:41Z</time>
      </trkpt>
      <trkpt lat="43.33124" lon="-1.30634">
        <ele>161.16</ele>
        <time>2021-08-20T20:47:48Z</time>
      </trkpt>
      <trkpt lat="43.33163" lon="-1.30591">
        <ele>159.72</ele>
        <time>2021-08-20T20:47:54Z</time>
      </trkpt>
      <trkpt lat="43.33192" lon="-1.30557">
        <ele>156.35</ele>
        <time>2021-08-20T20:47:58Z</time>
      </trkpt>
      <trkpt lat="43.33209" lon="-1.30527">
        <ele>153.47</ele>
        <time>2021-08-20T20:48:01Z</time>
      </trkpt>
      <trkpt lat="43.33221" lon="-1.30507">
        <ele>151.54</ele>
        <time>2021-08-20T20:48:03Z</time>
      </trkpt>
      <trkpt lat="43.33228" lon="-1.30498">
        <ele>151.06</ele>
        <time>2021-08-20T20:48:04Z</time>
      </trkpt>
      <trkpt lat="43.33235" lon="-1.30491">
        <ele>151.06</ele>
        <time>2021-08-20T20:48:05Z</time>
      </trkpt>
      <trkpt lat="43.33243" lon="-1.30485">
        <ele>151.06</ele>
        <time>2021-08-20T20:48:06Z</time>
      </trkpt>
      <trkpt lat="43.33251" lon="-1.30479">
        <ele>150.58</ele>
        <time>2021-08-20T20:48:07Z</time>
      </trkpt>
      <trkpt lat="43.33292" lon="-1.30433">
        <ele>148.66</ele>
        <time>2021-08-20T20:48:13Z</time>
      </trkpt>
      <trkpt lat="43.33343" lon="-1.30362">
        <ele>148.18</ele>
        <time>2021-08-20T20:48:22Z</time>
      </trkpt>
      <trkpt lat="43.3339" lon="-1.30295">
        <ele>146.26</ele>
        <time>2021-08-20T20:48:31Z</time>
      </trkpt>
      <trkpt lat="43.33403" lon="-1.30284">
        <ele>145.3</ele>
        <time>2021-08-20T20:48:33Z</time>
      </trkpt>
      <trkpt lat="43.33411" lon="-1.3028">
        <ele>144.82</ele>
        <time>2021-08-20T20:48:34Z</time>
      </trkpt>
      <trkpt lat="43.33419" lon="-1.30277">
        <ele>144.34</ele>
        <time>2021-08-20T20:48:35Z</time>
      </trkpt>
      <trkpt lat="43.33427" lon="-1.30274">
        <ele>143.85</ele>
        <time>2021-08-20T20:48:36Z</time>
      </trkpt>
      <trkpt lat="43.33436" lon="-1.30273">
        <ele>142.41</ele>
        <time>2021-08-20T20:48:37Z</time>
      </trkpt>
      <trkpt lat="43.33445" lon="-1.30273">
        <ele>142.41</ele>
        <time>2021-08-20T20:48:38Z</time>
      </trkpt>
      <trkpt lat="43.33521" lon="-1.30272">
        <ele>141.45</ele>
        <time>2021-08-20T20:48:47Z</time>
      </trkpt>
      <trkpt lat="43.33566" lon="-1.30269">
        <ele>140.97</ele>
        <time>2021-08-20T20:48:53Z</time>
      </trkpt>
      <trkpt lat="43.33574" lon="-1.30267">
        <ele>140.49</ele>
        <time>2021-08-20T20:48:54Z</time>
      </trkpt>
      <trkpt lat="43.3358" lon="-1.30263">
        <ele>140.49</ele>
        <time>2021-08-20T20:48:55Z</time>
      </trkpt>
      <trkpt lat="43.33586" lon="-1.30258">
        <ele>140.49</ele>
        <time>2021-08-20T20:48:56Z</time>
      </trkpt>
      <trkpt lat="43.33592" lon="-1.30253">
        <ele>140.49</ele>
        <time>2021-08-20T20:48:57Z</time>
      </trkpt>
      <trkpt lat="43.33597" lon="-1.30247">
        <ele>140.49</ele>
        <time>2021-08-20T20:48:58Z</time>
      </trkpt>
      <trkpt lat="43.33601" lon="-1.30241">
        <ele>140.49</ele>
        <time>2021-08-20T20:48:59Z</time>
      </trkpt>
      <trkpt lat="43.33605" lon="-1.30235">
        <ele>140.49</ele>
        <time>2021-08-20T20:49:00Z</time>
      </trkpt>
      <trkpt lat="43.33612" lon="-1.30224">
        <ele>141.45</ele>
        <time>2021-08-20T20:49:02Z</time>
      </trkpt>
      <trkpt lat="43.33627" lon="-1.30197">
        <ele>143.37</ele>
        <time>2021-08-20T20:49:07Z</time>
      </trkpt>
      <trkpt lat="43.3364" lon="-1.30176">
        <ele>143.85</ele>
        <time>2021-08-20T20:49:11Z</time>
      </trkpt>
      <trkpt lat="43.33644" lon="-1.30172">
        <ele>143.85</ele>
        <time>2021-08-20T20:49:12Z</time>
      </trkpt>
      <trkpt lat="43.33648" lon="-1.30169">
        <ele>144.34</ele>
        <time>2021-08-20T20:49:13Z</time>
      </trkpt>
      <trkpt lat="43.33669" lon="-1.30149">
        <ele>144.34</ele>
        <time>2021-08-20T20:49:18Z</time>
      </trkpt>
      <trkpt lat="43.33673" lon="-1.30144">
        <ele>144.34</ele>
        <time>2021-08-20T20:49:19Z</time>
      </trkpt>
      <trkpt lat="43.33677" lon="-1.30138">
        <ele>144.34</ele>
        <time>2021-08-20T20:49:20Z</time>
      </trkpt>
      <trkpt lat="43.3368" lon="-1.30131">
        <ele>144.34</ele>
        <time>2021-08-20T20:49:21Z</time>
      </trkpt>
      <trkpt lat="43.33683" lon="-1.30125">
        <ele>144.34</ele>
        <time>2021-08-20T20:49:22Z</time>
      </trkpt>
      <trkpt lat="43.33685" lon="-1.30118">
        <ele>144.34</ele>
        <time>2021-08-20T20:49:23Z</time>
      </trkpt>
      <trkpt lat="43.33687" lon="-1.30111">
        <ele>144.34</ele>
        <time>2021-08-20T20:49:24Z</time>
      </trkpt>
      <trkpt lat="43.33689" lon="-1.30104">
        <ele>144.34</ele>
        <time>2021-08-20T20:49:25Z</time>
      </trkpt>
      <trkpt lat="43.33701" lon="-1.30048">
        <ele>145.78</ele>
        <time>2021-08-20T20:49:34Z</time>
      </trkpt>
      <trkpt lat="43.33709" lon="-1.30014">
        <ele>146.26</ele>
        <time>2021-08-20T20:49:40Z</time>
      </trkpt>
      <trkpt lat="43.33723" lon="-1.29985">
        <ele>147.7</ele>
        <time>2021-08-20T20:49:47Z</time>
      </trkpt>
      <trkpt lat="43.3374" lon="-1.29978">
        <ele>149.14</ele>
        <time>2021-08-20T20:49:54Z</time>
      </trkpt>
      <trkpt lat="43.3376" lon="-1.29979">
        <ele>150.58</ele>
        <time>2021-08-20T20:50:02Z</time>
      </trkpt>
      <trkpt lat="43.33781" lon="-1.29984">
        <ele>151.54</ele>
        <time>2021-08-20T20:50:10Z</time>
      </trkpt>
      <trkpt lat="43.33808" lon="-1.29989">
        <ele>152.99</ele>
        <time>2021-08-20T20:50:20Z</time>
      </trkpt>
      <trkpt lat="43.33826" lon="-1.29992">
        <ele>153.47</ele>
        <time>2021-08-20T20:50:27Z</time>
      </trkpt>
      <trkpt lat="43.3385" lon="-1.29998">
        <ele>153.95</ele>
        <time>2021-08-20T20:50:35Z</time>
      </trkpt>
      <trkpt lat="43.33853" lon="-1.29999">
        <ele>154.43</ele>
        <time>2021-08-20T20:50:36Z</time>
      </trkpt>
      <trkpt lat="43.33879" lon="-1.30006">
        <ele>154.91</ele>
        <time>2021-08-20T20:50:45Z</time>
      </trkpt>
      <trkpt lat="43.33913" lon="-1.30012">
        <ele>156.35</ele>
        <time>2021-08-20T20:50:56Z</time>
      </trkpt>
      <trkpt lat="43.33926" lon="-1.30011">
        <ele>156.83</ele>
        <time>2021-08-20T20:51:02Z</time>
      </trkpt>
      <trkpt lat="43.33944" lon="-1.30009">
        <ele>157.31</ele>
        <time>2021-08-20T20:51:11Z</time>
      </trkpt>
      <trkpt lat="43.33964" lon="-1.30006">
        <ele>158.27</ele>
        <time>2021-08-20T20:51:20Z</time>
      </trkpt>
      <trkpt lat="43.33981" lon="-1.29997">
        <ele>159.72</ele>
        <time>2021-08-20T20:51:28Z</time>
      </trkpt>
      <trkpt lat="43.33991" lon="-1.29973">
        <ele>161.64</ele>
        <time>2021-08-20T20:51:37Z</time>
      </trkpt>
      <trkpt lat="43.33995" lon="-1.29937">
        <ele>164.04</ele>
        <time>2021-08-20T20:51:48Z</time>
      </trkpt>
      <trkpt lat="43.33998" lon="-1.29906">
        <ele>165.48</ele>
        <time>2021-08-20T20:51:58Z</time>
      </trkpt>
      <trkpt lat="43.33999" lon="-1.29884">
        <ele>166.45</ele>
        <time>2021-08-20T20:52:05Z</time>
      </trkpt>
      <trkpt lat="43.34002" lon="-1.2986">
        <ele>167.41</ele>
        <time>2021-08-20T20:52:12Z</time>
      </trkpt>
      <trkpt lat="43.34007" lon="-1.29834">
        <ele>167.89</ele>
        <time>2021-08-20T20:52:20Z</time>
      </trkpt>
      <trkpt lat="43.3401" lon="-1.2983">
        <ele>167.89</ele>
        <time>2021-08-20T20:52:24Z</time>
      </trkpt>
      <trkpt lat="43.34012" lon="-1.29831">
        <ele>167.89</ele>
        <time>2021-08-20T20:52:25Z</time>
      </trkpt>
      <trkpt lat="43.34013" lon="-1.29832">
        <ele>167.89</ele>
        <time>2021-08-20T20:52:26Z</time>
      </trkpt>
      <trkpt lat="43.34015" lon="-1.29833">
        <ele>167.89</ele>
        <time>2021-08-20T20:52:27Z</time>
      </trkpt>
      <trkpt lat="43.34017" lon="-1.29835">
        <ele>167.89</ele>
        <time>2021-08-20T20:52:28Z</time>
      </trkpt>
      <trkpt lat="43.34019" lon="-1.29837">
        <ele>167.89</ele>
        <time>2021-08-20T20:52:29Z</time>
      </trkpt>
      <trkpt lat="43.3402" lon="-1.29838">
        <ele>167.89</ele>
        <time>2021-08-20T20:52:30Z</time>
      </trkpt>
      <trkpt lat="43.34034" lon="-1.29858">
        <ele>168.37</ele>
        <time>2021-08-20T20:52:37Z</time>
      </trkpt>
      <trkpt lat="43.34042" lon="-1.29871">
        <ele>169.33</ele>
        <time>2021-08-20T20:52:43Z</time>
      </trkpt>
      <trkpt lat="43.34042" lon="-1.29871">
        <ele>169.81</ele>
        <time>2021-08-20T20:52:49Z</time>
      </trkpt>
      <trkpt lat="43.34041" lon="-1.29873">
        <ele>169.81</ele>
        <time>2021-08-20T20:52:59Z</time>
      </trkpt>
      <trkpt lat="43.34041" lon="-1.29873">
        <ele>169.81</ele>
        <time>2021-08-20T20:53:06Z</time>
      </trkpt>
      <trkpt lat="43.3404" lon="-1.29875">
        <ele>169.81</ele>
        <time>2021-08-20T20:53:23Z</time>
      </trkpt>
      <trkpt lat="43.3404" lon="-1.29875">
        <ele>169.81</ele>
        <time>2021-08-20T20:53:33Z</time>
      </trkpt>
      <trkpt lat="43.3404" lon="-1.29875">
        <ele>169.81</ele>
        <time>2021-08-20T20:53:49Z</time>
      </trkpt>
      <trkpt lat="43.34039" lon="-1.29874">
        <ele>169.81</ele>
        <time>2021-08-20T20:54:05Z</time>
      </trkpt>
      <trkpt lat="43.34039" lon="-1.29873">
        <ele>169.81</ele>
        <time>2021-08-20T20:54:20Z</time>
      </trkpt>
      <trkpt lat="43.3404" lon="-1.29873">
        <ele>169.81</ele>
        <time>2021-08-20T20:54:29Z</time>
      </trkpt>
      <trkpt lat="43.34043" lon="-1.29871">
        <ele>169.81</ele>
        <time>2021-08-20T20:54:44Z</time>
      </trkpt>
      <trkpt lat="43.34045" lon="-1.2987">
        <ele>169.81</ele>
        <time>2021-08-20T20:55:00Z</time>
      </trkpt>
      <trkpt lat="43.34044" lon="-1.29868">
        <ele>169.81</ele>
        <time>2021-08-20T20:55:20Z</time>
      </trkpt>
      <trkpt lat="43.34043" lon="-1.29869">
        <ele>169.81</ele>
        <time>2021-08-20T20:55:33Z</time>
      </trkpt>
      <trkpt lat="43.34042" lon="-1.2987">
        <ele>169.81</ele>
        <time>2021-08-20T20:55:46Z</time>
      </trkpt>
      <trkpt lat="43.34042" lon="-1.29871">
        <ele>169.81</ele>
        <time>2021-08-20T20:55:55Z</time>
      </trkpt>
      <trkpt lat="43.34042" lon="-1.29871">
        <ele>169.81</ele>
        <time>2021-08-20T20:56:03Z</time>
      </trkpt>
      <trkpt lat="43.34042" lon="-1.2987">
        <ele>169.81</ele>
        <time>2021-08-20T20:56:08Z</time>
      </trkpt>
      <trkpt lat="43.34042" lon="-1.29869">
        <ele>169.81</ele>
        <time>2021-08-20T20:56:14Z</time>
      </trkpt>
      <trkpt lat="43.34043" lon="-1.29869">
        <ele>169.81</ele>
        <time>2021-08-20T20:56:31Z</time>
      </trkpt>
      <trkpt lat="43.34042" lon="-1.29869">
        <ele>169.81</ele>
        <time>2021-08-20T20:56:47Z</time>
      </trkpt>
      <trkpt lat="43.34043" lon="-1.2987">
        <ele>170.29</ele>
        <time>2021-08-20T20:56:59Z</time>
      </trkpt>
      <trkpt lat="43.34044" lon="-1.2987">
        <ele>170.29</ele>
        <time>2021-08-20T20:57:15Z</time>
      </trkpt>
      <trkpt lat="43.34044" lon="-1.2987">
        <ele>170.29</ele>
        <time>2021-08-20T20:57:26Z</time>
      </trkpt>
      <trkpt lat="43.34043" lon="-1.29869">
        <ele>170.29</ele>
        <time>2021-08-20T20:57:40Z</time>
      </trkpt>
      <trkpt lat="43.34041" lon="-1.2987">
        <ele>170.29</ele>
        <time>2021-08-20T20:57:57Z</time>
      </trkpt>
      <trkpt lat="43.3404" lon="-1.29871">
        <ele>170.29</ele>
        <time>2021-08-20T20:58:11Z</time>
      </trkpt>
      <trkpt lat="43.3404" lon="-1.29872">
        <ele>170.29</ele>
        <time>2021-08-20T20:58:24Z</time>
      </trkpt>
      <trkpt lat="43.34038" lon="-1.29871">
        <ele>170.29</ele>
        <time>2021-08-20T20:58:36Z</time>
      </trkpt>
      <trkpt lat="43.34039" lon="-1.29871">
        <ele>170.29</ele>
        <time>2021-08-20T20:58:46Z</time>
      </trkpt>
      <trkpt lat="43.34038" lon="-1.29869">
        <ele>170.29</ele>
        <time>2021-08-20T20:58:54Z</time>
      </trkpt>
      <trkpt lat="43.34037" lon="-1.29865">
        <ele>170.29</ele>
        <time>2021-08-20T20:59:03Z</time>
      </trkpt>
      <trkpt lat="43.34039" lon="-1.29866">
        <ele>170.77</ele>
        <time>2021-08-20T20:59:11Z</time>
      </trkpt>
      <trkpt lat="43.3404" lon="-1.29864">
        <ele>170.77</ele>
        <time>2021-08-20T20:59:18Z</time>
      </trkpt>
      <trkpt lat="43.3404" lon="-1.29861">
        <ele>170.77</ele>
        <time>2021-08-20T20:59:37Z</time>
      </trkpt>
      <trkpt lat="43.3404" lon="-1.29862">
        <ele>170.77</ele>
        <time>2021-08-20T20:59:53Z</time>
      </trkpt>
      <trkpt lat="43.34042" lon="-1.29863">
        <ele>170.77</ele>
        <time>2021-08-20T21:00:09Z</time>
      </trkpt>
      <trkpt lat="43.34042" lon="-1.29866">
        <ele>169.81</ele>
        <time>2021-08-20T21:00:32Z</time>
      </trkpt>
      <trkpt lat="43.34041" lon="-1.29864">
        <ele>169.81</ele>
        <time>2021-08-20T21:00:39Z</time>
      </trkpt>
      <trkpt lat="43.34041" lon="-1.29863">
        <ele>169.81</ele>
        <time>2021-08-20T21:00:57Z</time>
      </trkpt>
      <trkpt lat="43.34039" lon="-1.29859">
        <ele>169.81</ele>
        <time>2021-08-20T21:01:24Z</time>
      </trkpt>
      <trkpt lat="43.3404" lon="-1.29861">
        <ele>169.33</ele>
        <time>2021-08-20T21:01:38Z</time>
      </trkpt>
      <trkpt lat="43.34041" lon="-1.29863">
        <ele>169.33</ele>
        <time>2021-08-20T21:01:51Z</time>
      </trkpt>
      <trkpt lat="43.34042" lon="-1.29865">
        <ele>169.33</ele>
        <time>2021-08-20T21:02:10Z</time>
      </trkpt>
      <trkpt lat="43.34041" lon="-1.29864">
        <ele>169.33</ele>
        <time>2021-08-20T21:02:30Z</time>
      </trkpt>
      <trkpt lat="43.34041" lon="-1.29863">
        <ele>169.81</ele>
        <time>2021-08-20T21:02:49Z</time>
      </trkpt>
      <trkpt lat="43.34041" lon="-1.29862">
        <ele>169.81</ele>
        <time>2021-08-20T21:03:05Z</time>
      </trkpt>
      <trkpt lat="43.34039" lon="-1.29862">
        <ele>169.81</ele>
        <time>2021-08-20T21:03:22Z</time>
      </trkpt>
      <trkpt lat="43.34042" lon="-1.29867">
        <ele>169.81</ele>
        <time>2021-08-20T21:03:45Z</time>
      </trkpt>
      <trkpt lat="43.34043" lon="-1.29867">
        <ele>169.81</ele>
        <time>2021-08-20T21:04:04Z</time>
      </trkpt>
      <trkpt lat="43.34042" lon="-1.29864">
        <ele>169.81</ele>
        <time>2021-08-20T21:04:24Z</time>
      </trkpt>
      <trkpt lat="43.3404" lon="-1.29863">
        <ele>169.81</ele>
        <time>2021-08-20T21:04:43Z</time>
      </trkpt>
      <trkpt lat="43.3404" lon="-1.29863">
        <ele>169.81</ele>
        <time>2021-08-20T21:04:59Z</time>
      </trkpt>
      <trkpt lat="43.34042" lon="-1.29863">
        <ele>169.81</ele>
        <time>2021-08-20T21:05:22Z</time>
      </trkpt>
      <trkpt lat="43.34042" lon="-1.29865">
        <ele>169.81</ele>
        <time>2021-08-20T21:05:44Z</time>
      </trkpt>
      <trkpt lat="43.3404" lon="-1.29863">
        <ele>169.81</ele>
        <time>2021-08-20T21:06:04Z</time>
      </trkpt>
      <trkpt lat="43.3404" lon="-1.29862">
        <ele>169.81</ele>
        <time>2021-08-20T21:06:14Z</time>
      </trkpt>
      <trkpt lat="43.34042" lon="-1.29865">
        <ele>170.29</ele>
        <time>2021-08-20T21:06:38Z</time>
      </trkpt>
      <trkpt lat="43.34042" lon="-1.29865">
        <ele>170.29</ele>
        <time>2021-08-20T21:07:00Z</time>
      </trkpt>
      <trkpt lat="43.34042" lon="-1.29864">
        <ele>170.29</ele>
        <time>2021-08-20T21:07:22Z</time>
      </trkpt>
      <trkpt lat="43.34042" lon="-1.29865">
        <ele>170.29</ele>
        <time>2021-08-20T21:07:37Z</time>
      </trkpt>
      <trkpt lat="43.34044" lon="-1.29868">
        <ele>170.77</ele>
        <time>2021-08-20T21:07:59Z</time>
      </trkpt>
      <trkpt lat="43.34045" lon="-1.29869">
        <ele>170.77</ele>
        <time>2021-08-20T21:08:20Z</time>
      </trkpt>
      <trkpt lat="43.34044" lon="-1.29867">
        <ele>170.77</ele>
        <time>2021-08-20T21:08:35Z</time>
      </trkpt>
      <trkpt lat="43.34042" lon="-1.29865">
        <ele>170.77</ele>
        <time>2021-08-20T21:08:55Z</time>
      </trkpt>
      <trkpt lat="43.34043" lon="-1.29867">
        <ele>170.77</ele>
        <time>2021-08-20T21:09:17Z</time>
      </trkpt>
      <trkpt lat="43.34044" lon="-1.29869">
        <ele>171.25</ele>
        <time>2021-08-20T21:09:33Z</time>
      </trkpt>
      <trkpt lat="43.34043" lon="-1.29869">
        <ele>171.25</ele>
        <time>2021-08-20T21:09:49Z</time>
      </trkpt>
      <trkpt lat="43.34043" lon="-1.29867">
        <ele>171.25</ele>
        <time>2021-08-20T21:10:00Z</time>
      </trkpt>
      <trkpt lat="43.34042" lon="-1.29865">
        <ele>171.25</ele>
        <time>2021-08-20T21:10:14Z</time>
      </trkpt>
      <trkpt lat="43.34042" lon="-1.29863">
        <ele>171.25</ele>
        <time>2021-08-20T21:10:27Z</time>
      </trkpt>
      <trkpt lat="43.34042" lon="-1.29864">
        <ele>171.25</ele>
        <time>2021-08-20T21:10:44Z</time>
      </trkpt>
      <trkpt lat="43.34043" lon="-1.29867">
        <ele>171.73</ele>
        <time>2021-08-20T21:11:01Z</time>
      </trkpt>
      <trkpt lat="43.34043" lon="-1.29867">
        <ele>171.73</ele>
        <time>2021-08-20T21:11:26Z</time>
      </trkpt>
      <trkpt lat="43.34042" lon="-1.29866">
        <ele>171.25</ele>
        <time>2021-08-20T21:11:42Z</time>
      </trkpt>
      <trkpt lat="43.34043" lon="-1.29866">
        <ele>171.25</ele>
        <time>2021-08-20T21:11:58Z</time>
      </trkpt>
      <trkpt lat="43.34043" lon="-1.29867">
        <ele>171.25</ele>
        <time>2021-08-20T21:12:13Z</time>
      </trkpt>
      <trkpt lat="43.34043" lon="-1.29869">
        <ele>171.25</ele>
        <time>2021-08-20T21:12:29Z</time>
      </trkpt>
      <trkpt lat="43.34043" lon="-1.29868">
        <ele>171.73</ele>
        <time>2021-08-20T21:12:43Z</time>
      </trkpt>
      <trkpt lat="43.34041" lon="-1.29865">
        <ele>171.73</ele>
        <time>2021-08-20T21:12:55Z</time>
      </trkpt>
      <trkpt lat="43.3404" lon="-1.29864">
        <ele>171.25</ele>
        <time>2021-08-20T21:13:10Z</time>
      </trkpt>
      <trkpt lat="43.34043" lon="-1.29868">
        <ele>171.25</ele>
        <time>2021-08-20T21:13:28Z</time>
      </trkpt>
      <trkpt lat="43.34046" lon="-1.2987">
        <ele>171.25</ele>
        <time>2021-08-20T21:13:45Z</time>
      </trkpt>
      <trkpt lat="43.34047" lon="-1.29869">
        <ele>171.25</ele>
        <time>2021-08-20T21:14:00Z</time>
      </trkpt>
      <trkpt lat="43.34047" lon="-1.29867">
        <ele>171.25</ele>
        <time>2021-08-20T21:14:23Z</time>
      </trkpt>
      <trkpt lat="43.34045" lon="-1.29865">
        <ele>171.73</ele>
        <time>2021-08-20T21:14:46Z</time>
      </trkpt>
      <trkpt lat="43.34045" lon="-1.29867">
        <ele>171.73</ele>
        <time>2021-08-20T21:15:04Z</time>
      </trkpt>
      <trkpt lat="43.34045" lon="-1.29871">
        <ele>171.73</ele>
        <time>2021-08-20T21:15:19Z</time>
      </trkpt>
      <trkpt lat="43.34044" lon="-1.29872">
        <ele>171.73</ele>
        <time>2021-08-20T21:15:31Z</time>
      </trkpt>
      <trkpt lat="43.34042" lon="-1.29866">
        <ele>171.73</ele>
        <time>2021-08-20T21:15:50Z</time>
      </trkpt>
      <trkpt lat="43.34041" lon="-1.29865">
        <ele>171.73</ele>
        <time>2021-08-20T21:16:02Z</time>
      </trkpt>
      <trkpt lat="43.34042" lon="-1.29869">
        <ele>171.25</ele>
        <time>2021-08-20T21:16:25Z</time>
      </trkpt>
      <trkpt lat="43.34043" lon="-1.29869">
        <ele>171.73</ele>
        <time>2021-08-20T21:16:42Z</time>
      </trkpt>
      <trkpt lat="43.34042" lon="-1.29865">
        <ele>171.73</ele>
        <time>2021-08-20T21:17:05Z</time>
      </trkpt>
      <trkpt lat="43.3404" lon="-1.29862">
        <ele>171.73</ele>
        <time>2021-08-20T21:17:24Z</time>
      </trkpt>
      <trkpt lat="43.34042" lon="-1.29866">
        <ele>171.73</ele>
        <time>2021-08-20T21:17:48Z</time>
      </trkpt>
      <trkpt lat="43.34043" lon="-1.29867">
        <ele>171.73</ele>
        <time>2021-08-20T21:18:10Z</time>
      </trkpt>
      <trkpt lat="43.34042" lon="-1.29866">
        <ele>171.73</ele>
        <time>2021-08-20T21:18:24Z</time>
      </trkpt>
      <trkpt lat="43.34041" lon="-1.29865">
        <ele>171.73</ele>
        <time>2021-08-20T21:18:38Z</time>
      </trkpt>
      <trkpt lat="43.34041" lon="-1.29862">
        <ele>171.73</ele>
        <time>2021-08-20T21:19:01Z</time>
      </trkpt>
      <trkpt lat="43.34041" lon="-1.29864">
        <ele>171.73</ele>
        <time>2021-08-20T21:19:26Z</time>
      </trkpt>
      <trkpt lat="43.34041" lon="-1.29862">
        <ele>171.73</ele>
        <time>2021-08-20T21:19:55Z</time>
      </trkpt>
      <trkpt lat="43.34041" lon="-1.29863">
        <ele>171.73</ele>
        <time>2021-08-20T21:20:15Z</time>
      </trkpt>
      <trkpt lat="43.34042" lon="-1.29865">
        <ele>171.25</ele>
        <time>2021-08-20T21:20:31Z</time>
      </trkpt>
      <trkpt lat="43.34043" lon="-1.29865">
        <ele>171.25</ele>
        <time>2021-08-20T21:20:57Z</time>
      </trkpt>
      <trkpt lat="43.34044" lon="-1.29864">
        <ele>171.25</ele>
        <time>2021-08-20T21:21:20Z</time>
      </trkpt>
      <trkpt lat="43.34043" lon="-1.29865">
        <ele>171.25</ele>
        <time>2021-08-20T21:21:43Z</time>
      </trkpt>
      <trkpt lat="43.34043" lon="-1.29865">
        <ele>171.25</ele>
        <time>2021-08-20T21:22:03Z</time>
      </trkpt>
      <trkpt lat="43.34044" lon="-1.29865">
        <ele>171.25</ele>
        <time>2021-08-20T21:22:25Z</time>
      </trkpt>
      <trkpt lat="43.34044" lon="-1.29866">
        <ele>171.25</ele>
        <time>2021-08-20T21:22:49Z</time>
      </trkpt>
      <trkpt lat="43.34044" lon="-1.29864">
        <ele>170.77</ele>
        <time>2021-08-20T21:23:08Z</time>
      </trkpt>
      <trkpt lat="43.34044" lon="-1.29864">
        <ele>170.77</ele>
        <time>2021-08-20T21:23:33Z</time>
      </trkpt>
      <trkpt lat="43.34044" lon="-1.29861">
        <ele>170.77</ele>
        <time>2021-08-20T21:24:02Z</time>
      </trkpt>
      <trkpt lat="43.34044" lon="-1.29862">
        <ele>170.77</ele>
        <time>2021-08-20T21:24:19Z</time>
      </trkpt>
      <trkpt lat="43.34043" lon="-1.29864">
        <ele>170.29</ele>
        <time>2021-08-20T21:24:39Z</time>
      </trkpt>
      <trkpt lat="43.34041" lon="-1.29864">
        <ele>170.29</ele>
        <time>2021-08-20T21:25:01Z</time>
      </trkpt>
      <trkpt lat="43.34039" lon="-1.29865">
        <ele>170.29</ele>
        <time>2021-08-20T21:25:20Z</time>
      </trkpt>
      <trkpt lat="43.3404" lon="-1.29866">
        <ele>170.29</ele>
        <time>2021-08-20T21:25:41Z</time>
      </trkpt>
      <trkpt lat="43.34042" lon="-1.29864">
        <ele>170.29</ele>
        <time>2021-08-20T21:26:02Z</time>
      </trkpt>
      <trkpt lat="43.34044" lon="-1.29866">
        <ele>169.81</ele>
        <time>2021-08-20T21:26:23Z</time>
      </trkpt>
      <trkpt lat="43.34045" lon="-1.29866">
        <ele>169.81</ele>
        <time>2021-08-20T21:26:50Z</time>
      </trkpt>
      <trkpt lat="43.34045" lon="-1.29864">
        <ele>169.81</ele>
        <time>2021-08-20T21:27:06Z</time>
      </trkpt>
      <trkpt lat="43.34046" lon="-1.29864">
        <ele>169.81</ele>
        <time>2021-08-20T21:27:28Z</time>
      </trkpt>
      <trkpt lat="43.34046" lon="-1.29864">
        <ele>169.81</ele>
        <time>2021-08-20T21:27:45Z</time>
      </trkpt>
      <trkpt lat="43.34044" lon="-1.29864">
        <ele>169.81</ele>
        <time>2021-08-20T21:28:07Z</time>
      </trkpt>
      <trkpt lat="43.34044" lon="-1.29864">
        <ele>170.29</ele>
        <time>2021-08-20T21:28:22Z</time>
      </trkpt>
      <trkpt lat="43.34044" lon="-1.29864">
        <ele>170.29</ele>
        <time>2021-08-20T21:28:32Z</time>
      </trkpt>
      <trkpt lat="43.34042" lon="-1.29865">
        <ele>170.29</ele>
        <time>2021-08-20T21:28:55Z</time>
      </trkpt>
      <trkpt lat="43.34042" lon="-1.29864">
        <ele>170.29</ele>
        <time>2021-08-20T21:29:16Z</time>
      </trkpt>
      <trkpt lat="43.34043" lon="-1.29867">
        <ele>170.29</ele>
        <time>2021-08-20T21:29:48Z</time>
      </trkpt>
      <trkpt lat="43.34043" lon="-1.29867">
        <ele>170.29</ele>
        <time>2021-08-20T21:30:12Z</time>
      </trkpt>
      <trkpt lat="43.34041" lon="-1.29866">
        <ele>170.29</ele>
        <time>2021-08-20T21:30:31Z</time>
      </trkpt>
      <trkpt lat="43.34041" lon="-1.29869">
        <ele>170.29</ele>
        <time>2021-08-20T21:30:52Z</time>
      </trkpt>
      <trkpt lat="43.34041" lon="-1.2987">
        <ele>170.29</ele>
        <time>2021-08-20T21:31:10Z</time>
      </trkpt>
      <trkpt lat="43.34041" lon="-1.29868">
        <ele>170.77</ele>
        <time>2021-08-20T21:31:32Z</time>
      </trkpt>
      <trkpt lat="43.34041" lon="-1.29866">
        <ele>170.77</ele>
        <time>2021-08-20T21:31:53Z</time>
      </trkpt>
      <trkpt lat="43.3404" lon="-1.29867">
        <ele>170.77</ele>
        <time>2021-08-20T21:32:12Z</time>
      </trkpt>
      <trkpt lat="43.3404" lon="-1.29869">
        <ele>170.77</ele>
        <time>2021-08-20T21:32:39Z</time>
      </trkpt>
      <trkpt lat="43.34041" lon="-1.29866">
        <ele>170.77</ele>
        <time>2021-08-20T21:33:00Z</time>
      </trkpt>
      <trkpt lat="43.34041" lon="-1.29868">
        <ele>171.25</ele>
        <time>2021-08-20T21:33:21Z</time>
      </trkpt>
      <trkpt lat="43.34041" lon="-1.29867">
        <ele>170.77</ele>
        <time>2021-08-20T21:33:37Z</time>
      </trkpt>
      <trkpt lat="43.34041" lon="-1.29866">
        <ele>170.77</ele>
        <time>2021-08-20T21:33:56Z</time>
      </trkpt>
      <trkpt lat="43.34042" lon="-1.29865">
        <ele>170.77</ele>
        <time>2021-08-20T21:34:17Z</time>
      </trkpt>
      <trkpt lat="43.34043" lon="-1.29864">
        <ele>170.77</ele>
        <time>2021-08-20T21:34:36Z</time>
      </trkpt>
      <trkpt lat="43.34042" lon="-1.29864">
        <ele>170.77</ele>
        <time>2021-08-20T21:34:55Z</time>
      </trkpt>
      <trkpt lat="43.34043" lon="-1.29863">
        <ele>170.77</ele>
        <time>2021-08-20T21:35:18Z</time>
      </trkpt>
      <trkpt lat="43.34043" lon="-1.29862">
        <ele>170.77</ele>
        <time>2021-08-20T21:35:34Z</time>
      </trkpt>
      <trkpt lat="43.34043" lon="-1.29863">
        <ele>170.77</ele>
        <time>2021-08-20T21:35:53Z</time>
      </trkpt>
      <trkpt lat="43.3404" lon="-1.29867">
        <ele>170.77</ele>
        <time>2021-08-20T21:36:20Z</time>
      </trkpt>
      <trkpt lat="43.3404" lon="-1.29867">
        <ele>170.77</ele>
        <time>2021-08-20T21:36:41Z</time>
      </trkpt>
      <trkpt lat="43.3404" lon="-1.29867">
        <ele>170.77</ele>
        <time>2021-08-20T21:36:58Z</time>
      </trkpt>
      <trkpt lat="43.34041" lon="-1.29865">
        <ele>170.77</ele>
        <time>2021-08-20T21:37:22Z</time>
      </trkpt>
      <trkpt lat="43.34042" lon="-1.29861">
        <ele>170.77</ele>
        <time>2021-08-20T21:37:49Z</time>
      </trkpt>
      <trkpt lat="43.34043" lon="-1.29863">
        <ele>170.77</ele>
        <time>2021-08-20T21:38:09Z</time>
      </trkpt>
      <trkpt lat="43.34042" lon="-1.29863">
        <ele>170.77</ele>
        <time>2021-08-20T21:38:38Z</time>
      </trkpt>
      <trkpt lat="43.34043" lon="-1.29861">
        <ele>170.77</ele>
        <time>2021-08-20T21:39:02Z</time>
      </trkpt>
      <trkpt lat="43.34042" lon="-1.29861">
        <ele>170.77</ele>
        <time>2021-08-20T21:39:24Z</time>
      </trkpt>
      <trkpt lat="43.34043" lon="-1.29864">
        <ele>170.77</ele>
        <time>2021-08-20T21:39:44Z</time>
      </trkpt>
      <trkpt lat="43.34043" lon="-1.29862">
        <ele>170.77</ele>
        <time>2021-08-20T21:40:10Z</time>
      </trkpt>
      <trkpt lat="43.34043" lon="-1.29861">
        <ele>170.77</ele>
        <time>2021-08-20T21:40:28Z</time>
      </trkpt>
      <trkpt lat="43.34042" lon="-1.29863">
        <ele>170.29</ele>
        <time>2021-08-20T21:40:46Z</time>
      </trkpt>
      <trkpt lat="43.34042" lon="-1.29866">
        <ele>170.29</ele>
        <time>2021-08-20T21:41:08Z</time>
      </trkpt>
      <trkpt lat="43.34043" lon="-1.29865">
        <ele>170.29</ele>
        <time>2021-08-20T21:41:36Z</time>
      </trkpt>
      <trkpt lat="43.34043" lon="-1.29865">
        <ele>170.29</ele>
        <time>2021-08-20T21:41:56Z</time>
      </trkpt>
      <trkpt lat="43.34044" lon="-1.29865">
        <ele>170.29</ele>
        <time>2021-08-20T21:42:18Z</time>
      </trkpt>
      <trkpt lat="43.34044" lon="-1.29866">
        <ele>170.29</ele>
        <time>2021-08-20T21:42:37Z</time>
      </trkpt>
      <trkpt lat="43.34043" lon="-1.29867">
        <ele>170.29</ele>
        <time>2021-08-20T21:42:59Z</time>
      </trkpt>
      <trkpt lat="43.34042" lon="-1.29865">
        <ele>170.29</ele>
        <time>2021-08-20T21:43:21Z</time>
      </trkpt>
      <trkpt lat="43.34042" lon="-1.29863">
        <ele>170.29</ele>
        <time>2021-08-20T21:43:40Z</time>
      </trkpt>
      <trkpt lat="43.34042" lon="-1.29866">
        <ele>170.29</ele>
        <time>2021-08-20T21:44:03Z</time>
      </trkpt>
      <trkpt lat="43.3404" lon="-1.29865">
        <ele>170.77</ele>
        <time>2021-08-20T21:44:30Z</time>
      </trkpt>
      <trkpt lat="43.34041" lon="-1.29863">
        <ele>170.77</ele>
        <time>2021-08-20T21:44:52Z</time>
      </trkpt>
      <trkpt lat="43.34042" lon="-1.29864">
        <ele>170.77</ele>
        <time>2021-08-20T21:45:10Z</time>
      </trkpt>
      <trkpt lat="43.34042" lon="-1.29863">
        <ele>170.77</ele>
        <time>2021-08-20T21:45:39Z</time>
      </trkpt>
      <trkpt lat="43.34041" lon="-1.29863">
        <ele>170.77</ele>
        <time>2021-08-20T21:46:01Z</time>
      </trkpt>
      <trkpt lat="43.3404" lon="-1.29863">
        <ele>170.29</ele>
        <time>2021-08-20T21:46:17Z</time>
      </trkpt>
      <trkpt lat="43.3404" lon="-1.29864">
        <ele>170.29</ele>
        <time>2021-08-20T21:46:36Z</time>
      </trkpt>
      <trkpt lat="43.34039" lon="-1.29863">
        <ele>170.29</ele>
        <time>2021-08-20T21:46:55Z</time>
      </trkpt>
      <trkpt lat="43.3404" lon="-1.29864">
        <ele>170.29</ele>
        <time>2021-08-20T21:47:21Z</time>
      </trkpt>
      <trkpt lat="43.34041" lon="-1.29864">
        <ele>170.29</ele>
        <time>2021-08-20T21:47:41Z</time>
      </trkpt>
      <trkpt lat="43.3404" lon="-1.29864">
        <ele>170.29</ele>
        <time>2021-08-20T21:48:00Z</time>
      </trkpt>
      <trkpt lat="43.3404" lon="-1.29866">
        <ele>170.29</ele>
        <time>2021-08-20T21:48:17Z</time>
      </trkpt>
      <trkpt lat="43.34039" lon="-1.29865">
        <ele>170.29</ele>
        <time>2021-08-20T21:48:38Z</time>
      </trkpt>
      <trkpt lat="43.3404" lon="-1.29866">
        <ele>170.29</ele>
        <time>2021-08-20T21:48:56Z</time>
      </trkpt>
      <trkpt lat="43.34041" lon="-1.29868">
        <ele>170.29</ele>
        <time>2021-08-20T21:49:19Z</time>
      </trkpt>
      <trkpt lat="43.34041" lon="-1.29867">
        <ele>170.29</ele>
        <time>2021-08-20T21:49:36Z</time>
      </trkpt>
      <trkpt lat="43.34042" lon="-1.29867">
        <ele>170.29</ele>
        <time>2021-08-20T21:49:47Z</time>
      </trkpt>
      <trkpt lat="43.34042" lon="-1.29867">
        <ele>170.29</ele>
        <time>2021-08-20T21:49:58Z</time>
      </trkpt>
      <trkpt lat="43.34042" lon="-1.29867">
        <ele>170.29</ele>
        <time>2021-08-20T21:50:10Z</time>
      </trkpt>
      <trkpt lat="43.34042" lon="-1.29867">
        <ele>170.29</ele>
        <time>2021-08-20T21:50:23Z</time>
      </trkpt>
      <trkpt lat="43.34043" lon="-1.29866">
        <ele>170.29</ele>
        <time>2021-08-20T21:50:38Z</time>
      </trkpt>
      <trkpt lat="43.34043" lon="-1.29866">
        <ele>170.29</ele>
        <time>2021-08-20T21:50:47Z</time>
      </trkpt>
      <trkpt lat="43.34043" lon="-1.29866">
        <ele>170.29</ele>
        <time>2021-08-20T21:51:01Z</time>
      </trkpt>
      <trkpt lat="43.34043" lon="-1.29866">
        <ele>170.29</ele>
        <time>2021-08-20T21:51:13Z</time>
      </trkpt>
      <trkpt lat="43.34043" lon="-1.29866">
        <ele>170.29</ele>
        <time>2021-08-20T21:51:24Z</time>
      </trkpt>
      <trkpt lat="43.34042" lon="-1.29866">
        <ele>170.29</ele>
        <time>2021-08-20T21:51:34Z</time>
      </trkpt>
      <trkpt lat="43.34042" lon="-1.29866">
        <ele>170.29</ele>
        <time>2021-08-20T21:51:44Z</time>
      </trkpt>
      <trkpt lat="43.34041" lon="-1.29866">
        <ele>170.29</ele>
        <time>2021-08-20T21:51:54Z</time>
      </trkpt>
      <trkpt lat="43.3404" lon="-1.29869">
        <ele>170.29</ele>
        <time>2021-08-20T21:52:18Z</time>
      </trkpt>
      <trkpt lat="43.3404" lon="-1.2987">
        <ele>170.29</ele>
        <time>2021-08-20T21:52:32Z</time>
      </trkpt>
      <trkpt lat="43.3404" lon="-1.29869">
        <ele>170.29</ele>
        <time>2021-08-20T21:52:49Z</time>
      </trkpt>
      <trkpt lat="43.3404" lon="-1.29868">
        <ele>170.29</ele>
        <time>2021-08-20T21:53:01Z</time>
      </trkpt>
      <trkpt lat="43.34041" lon="-1.29868">
        <ele>170.29</ele>
        <time>2021-08-20T21:53:15Z</time>
      </trkpt>
      <trkpt lat="43.34041" lon="-1.29867">
        <ele>170.29</ele>
        <time>2021-08-20T21:53:26Z</time>
      </trkpt>
      <trkpt lat="43.34042" lon="-1.29867">
        <ele>170.29</ele>
        <time>2021-08-20T21:53:42Z</time>
      </trkpt>
      <trkpt lat="43.34042" lon="-1.29866">
        <ele>170.29</ele>
        <time>2021-08-20T21:53:58Z</time>
      </trkpt>
      <trkpt lat="43.34041" lon="-1.29867">
        <ele>170.29</ele>
        <time>2021-08-20T21:54:09Z</time>
      </trkpt>
      <trkpt lat="43.3404" lon="-1.29867">
        <ele>170.29</ele>
        <time>2021-08-20T21:54:23Z</time>
      </trkpt>
      <trkpt lat="43.3404" lon="-1.29869">
        <ele>170.29</ele>
        <time>2021-08-20T21:54:37Z</time>
      </trkpt>
      <trkpt lat="43.34042" lon="-1.29867">
        <ele>170.29</ele>
        <time>2021-08-20T21:54:55Z</time>
      </trkpt>
      <trkpt lat="43.34042" lon="-1.29865">
        <ele>170.29</ele>
        <time>2021-08-20T21:55:15Z</time>
      </trkpt>
      <trkpt lat="43.34042" lon="-1.29866">
        <ele>170.29</ele>
        <time>2021-08-20T21:55:30Z</time>
      </trkpt>
      <trkpt lat="43.34042" lon="-1.29866">
        <ele>170.29</ele>
        <time>2021-08-20T21:55:43Z</time>
      </trkpt>
      <trkpt lat="43.34041" lon="-1.29867">
        <ele>170.29</ele>
        <time>2021-08-20T21:56:01Z</time>
      </trkpt>
      <trkpt lat="43.3404" lon="-1.29866">
        <ele>170.29</ele>
        <time>2021-08-20T21:56:16Z</time>
      </trkpt>
      <trkpt lat="43.34041" lon="-1.29865">
        <ele>170.29</ele>
        <time>2021-08-20T21:56:30Z</time>
      </trkpt>
      <trkpt lat="43.34042" lon="-1.29865">
        <ele>170.29</ele>
        <time>2021-08-20T21:56:53Z</time>
      </trkpt>
      <trkpt lat="43.34042" lon="-1.29866">
        <ele>170.29</ele>
        <time>2021-08-20T21:57:06Z</time>
      </trkpt>
      <trkpt lat="43.34041" lon="-1.29866">
        <ele>170.29</ele>
        <time>2021-08-20T21:57:20Z</time>
      </trkpt>
      <trkpt lat="43.34041" lon="-1.29866">
        <ele>170.29</ele>
        <time>2021-08-20T21:57:42Z</time>
      </trkpt>
      <trkpt lat="43.3404" lon="-1.29864">
        <ele>170.29</ele>
        <time>2021-08-20T21:57:59Z</time>
      </trkpt>
      <trkpt lat="43.34041" lon="-1.29864">
        <ele>170.29</ele>
        <time>2021-08-20T21:58:17Z</time>
      </trkpt>
      <trkpt lat="43.34041" lon="-1.29862">
        <ele>170.29</ele>
        <time>2021-08-20T21:58:28Z</time>
      </trkpt>
      <trkpt lat="43.3404" lon="-1.29864">
        <ele>170.29</ele>
        <time>2021-08-20T21:58:49Z</time>
      </trkpt>
      <trkpt lat="43.34041" lon="-1.29865">
        <ele>170.29</ele>
        <time>2021-08-20T21:59:06Z</time>
      </trkpt>
      <trkpt lat="43.34041" lon="-1.29866">
        <ele>170.29</ele>
        <time>2021-08-20T21:59:16Z</time>
      </trkpt>
      <trkpt lat="43.3404" lon="-1.29865">
        <ele>170.29</ele>
        <time>2021-08-20T21:59:29Z</time>
      </trkpt>
      <trkpt lat="43.34039" lon="-1.29866">
        <ele>170.29</ele>
        <time>2021-08-20T21:59:51Z</time>
      </trkpt>
      <trkpt lat="43.34039" lon="-1.29868">
        <ele>170.29</ele>
        <time>2021-08-20T22:00:06Z</time>
      </trkpt>
    </trkseg>
  </trk>
</gpx>